<?xml version='1.0' encoding='UTF-8'?><gpx version="1.1" creator="JPX - https://github.com/jenetics/jpx" xmlns="http://www.topografix.com/GPX/1/1"><trk><trkseg><trkpt lat="43.4755484" lon="11.6176588"><ele>243.0</ele><time>2026-04-28T07:48:54.704Z</time></trkpt><trkpt lat="43.4754767" lon="11.6175497"><ele>243.0</ele><time>2026-04-28T07:48:55.708Z</time></trkpt><trkpt lat="43.4753834" lon="11.6174575"><ele>243.0</ele><time>2026-04-28T07:48:56.706Z</time></trkpt><trkpt lat="43.4752714" lon="11.6173775"><ele>243.0</ele><time>2026-04-28T07:48:57.705Z</time></trkpt><trkpt lat="43.475144" lon="11.6172967"><ele>241.66666666666669</ele><time>2026-04-28T07:48:58.704Z</time></trkpt><trkpt lat="43.4750052" lon="11.6172122"><ele>240.33333333333334</ele><time>2026-04-28T07:48:59.707Z</time></trkpt><trkpt lat="43.4748588" lon="11.6171251"><ele>239.0</ele><time>2026-04-28T07:49:00.711Z</time></trkpt><trkpt lat="43.4747109" lon="11.6170388"><ele>240.33333333333334</ele><time>2026-04-28T07:49:01.711Z</time></trkpt><trkpt lat="43.4745646" lon="11.6169516"><ele>241.66666666666669</ele><time>2026-04-28T07:49:02.713Z</time></trkpt><trkpt lat="43.4744166" lon="11.6168622"><ele>243.0</ele><time>2026-04-28T07:49:03.711Z</time></trkpt><trkpt lat="43.4742679" lon="11.6167708"><ele>243.0</ele><time>2026-04-28T07:49:04.705Z</time></trkpt><trkpt lat="43.474122" lon="11.6166814"><ele>243.0</ele><time>2026-04-28T07:49:05.704Z</time></trkpt><trkpt lat="43.4739866" lon="11.6165997"><ele>243.0</ele><time>2026-04-28T07:49:06.705Z</time></trkpt><trkpt lat="43.4738683" lon="11.6165367"><ele>243.0</ele><time>2026-04-28T07:49:07.713Z</time></trkpt><trkpt lat="43.4737483" lon="11.6164717"><ele>244.25</ele><time>2026-04-28T07:49:08.712Z</time></trkpt><trkpt lat="43.4736267" lon="11.6164017"><ele>245.5</ele><time>2026-04-28T07:49:09.714Z</time></trkpt><trkpt lat="43.4734983" lon="11.616325"><ele>246.75</ele><time>2026-04-28T07:49:10.707Z</time></trkpt><trkpt lat="43.47337" lon="11.6162467"><ele>248.0</ele><time>2026-04-28T07:49:11.706Z</time></trkpt><trkpt lat="43.4732383" lon="11.6161683"><ele>247.5</ele><time>2026-04-28T07:49:12.709Z</time></trkpt><trkpt lat="43.4731083" lon="11.6160917"><ele>247.0</ele><time>2026-04-28T07:49:13.709Z</time></trkpt><trkpt lat="43.4729833" lon="11.6160183"><ele>246.5</ele><time>2026-04-28T07:49:14.708Z</time></trkpt><trkpt lat="43.4728583" lon="11.61594"><ele>246.0</ele><time>2026-04-28T07:49:15.704Z</time></trkpt><trkpt lat="43.4727383" lon="11.6158667"><ele>247.25</ele><time>2026-04-28T07:49:16.711Z</time></trkpt><trkpt lat="43.472625" lon="11.6158017"><ele>248.5</ele><time>2026-04-28T07:49:17.708Z</time></trkpt><trkpt lat="43.4725217" lon="11.6157367"><ele>249.75</ele><time>2026-04-28T07:49:18.702Z</time></trkpt><trkpt lat="43.4724183" lon="11.615665"><ele>251.0</ele><time>2026-04-28T07:49:19.707Z</time></trkpt><trkpt lat="43.4723083" lon="11.61558"><ele>251.0</ele><time>2026-04-28T07:49:20.71Z</time></trkpt><trkpt lat="43.4721933" lon="11.6154833"><ele>251.0</ele><time>2026-04-28T07:49:21.708Z</time></trkpt><trkpt lat="43.472065" lon="11.61538"><ele>251.0</ele><time>2026-04-28T07:49:22.71Z</time></trkpt><trkpt lat="43.47193" lon="11.6152683"><ele>251.0</ele><time>2026-04-28T07:49:23.709Z</time></trkpt><trkpt lat="43.4717983" lon="11.61516"><ele>251.33333333333334</ele><time>2026-04-28T07:49:24.71Z</time></trkpt><trkpt lat="43.4716633" lon="11.6150633"><ele>251.66666666666669</ele><time>2026-04-28T07:49:25.711Z</time></trkpt><trkpt lat="43.47152" lon="11.614985"><ele>252.0</ele><time>2026-04-28T07:49:26.711Z</time></trkpt><trkpt lat="43.471365" lon="11.6149383"><ele>250.66666666666669</ele><time>2026-04-28T07:49:27.708Z</time></trkpt><trkpt lat="43.4711983" lon="11.6149217"><ele>249.33333333333334</ele><time>2026-04-28T07:49:28.711Z</time></trkpt><trkpt lat="43.4710217" lon="11.61493"><ele>248.0</ele><time>2026-04-28T07:49:29.711Z</time></trkpt><trkpt lat="43.4708417" lon="11.61495"><ele>248.0</ele><time>2026-04-28T07:49:30.709Z</time></trkpt><trkpt lat="43.4706717" lon="11.6149717"><ele>248.0</ele><time>2026-04-28T07:49:31.709Z</time></trkpt><trkpt lat="43.4705117" lon="11.6149767"><ele>248.0</ele><time>2026-04-28T07:49:32.707Z</time></trkpt><trkpt lat="43.4703633" lon="11.6149583"><ele>246.75</ele><time>2026-04-28T07:49:33.708Z</time></trkpt><trkpt lat="43.4702233" lon="11.614915"><ele>245.5</ele><time>2026-04-28T07:49:34.706Z</time></trkpt><trkpt lat="43.4700883" lon="11.61485"><ele>244.25</ele><time>2026-04-28T07:49:35.71Z</time></trkpt><trkpt lat="43.4699517" lon="11.6147683"><ele>243.0</ele><time>2026-04-28T07:49:36.709Z</time></trkpt><trkpt lat="43.4698233" lon="11.6146733"><ele>243.0</ele><time>2026-04-28T07:49:37.712Z</time></trkpt><trkpt lat="43.4697017" lon="11.6145583"><ele>243.0</ele><time>2026-04-28T07:49:38.707Z</time></trkpt><trkpt lat="43.469585" lon="11.6144383"><ele>243.0</ele><time>2026-04-28T07:49:39.713Z</time></trkpt><trkpt lat="43.4694717" lon="11.6143133"><ele>243.0</ele><time>2026-04-28T07:49:40.709Z</time></trkpt><trkpt lat="43.4693617" lon="11.6141967"><ele>242.25</ele><time>2026-04-28T07:49:41.71Z</time></trkpt><trkpt lat="43.469255" lon="11.614085"><ele>241.5</ele><time>2026-04-28T07:49:42.707Z</time></trkpt><trkpt lat="43.469155" lon="11.6139783"><ele>240.75</ele><time>2026-04-28T07:49:43.71Z</time></trkpt><trkpt lat="43.469065" lon="11.613875"><ele>240.0</ele><time>2026-04-28T07:49:44.709Z</time></trkpt><trkpt lat="43.4689917" lon="11.6137683"><ele>240.75</ele><time>2026-04-28T07:49:45.708Z</time></trkpt><trkpt lat="43.4689433" lon="11.613645"><ele>241.5</ele><time>2026-04-28T07:49:46.71Z</time></trkpt><trkpt lat="43.4689217" lon="11.6135033"><ele>242.25</ele><time>2026-04-28T07:49:47.707Z</time></trkpt><trkpt lat="43.4689317" lon="11.6133433"><ele>243.0</ele><time>2026-04-28T07:49:48.707Z</time></trkpt><trkpt lat="43.4689633" lon="11.6131667"><ele>243.0</ele><time>2026-04-28T07:49:49.708Z</time></trkpt><trkpt lat="43.46901" lon="11.6129683"><ele>243.0</ele><time>2026-04-28T07:49:50.708Z</time></trkpt><trkpt lat="43.4690617" lon="11.61276"><ele>243.0</ele><time>2026-04-28T07:49:51.707Z</time></trkpt><trkpt lat="43.469115" lon="11.612535"><ele>241.33333333333331</ele><time>2026-04-28T07:49:52.706Z</time></trkpt><trkpt lat="43.4691717" lon="11.612295"><ele>239.66666666666666</ele><time>2026-04-28T07:49:53.705Z</time></trkpt><trkpt lat="43.469235" lon="11.61204"><ele>238.0</ele><time>2026-04-28T07:49:54.704Z</time></trkpt><trkpt lat="43.4693033" lon="11.6117733"><ele>237.66666666666666</ele><time>2026-04-28T07:49:55.711Z</time></trkpt><trkpt lat="43.4693683" lon="11.6115167"><ele>237.33333333333331</ele><time>2026-04-28T07:49:56.709Z</time></trkpt><trkpt lat="43.46943" lon="11.6112783"><ele>237.0</ele><time>2026-04-28T07:49:57.711Z</time></trkpt><trkpt lat="43.469485" lon="11.6110567"><ele>237.0</ele><time>2026-04-28T07:49:58.709Z</time></trkpt><trkpt lat="43.4695367" lon="11.6108467"><ele>237.0</ele><time>2026-04-28T07:49:59.713Z</time></trkpt><trkpt lat="43.46958" lon="11.6106567"><ele>237.0</ele><time>2026-04-28T07:50:00.711Z</time></trkpt><trkpt lat="43.4696217" lon="11.6104883"><ele>237.0</ele><time>2026-04-28T07:50:01.712Z</time></trkpt><trkpt lat="43.46966" lon="11.610335"><ele>236.5</ele><time>2026-04-28T07:50:02.708Z</time></trkpt><trkpt lat="43.469695" lon="11.61019"><ele>236.0</ele><time>2026-04-28T07:50:03.711Z</time></trkpt><trkpt lat="43.4697233" lon="11.61006"><ele>235.5</ele><time>2026-04-28T07:50:04.711Z</time></trkpt><trkpt lat="43.4697367" lon="11.6099567"><ele>235.0</ele><time>2026-04-28T07:50:05.711Z</time></trkpt><trkpt lat="43.46973" lon="11.6098667"><ele>234.5</ele><time>2026-04-28T07:50:06.703Z</time></trkpt><trkpt lat="43.46969" lon="11.6097817"><ele>234.0</ele><time>2026-04-28T07:50:07.705Z</time></trkpt><trkpt lat="43.469615" lon="11.60969"><ele>234.0</ele><time>2026-04-28T07:50:08.704Z</time></trkpt><trkpt lat="43.4694867" lon="11.609605"><ele>234.0</ele><time>2026-04-28T07:50:09.705Z</time></trkpt><trkpt lat="43.4693583" lon="11.6095133"><ele>234.0</ele><time>2026-04-28T07:50:10.706Z</time></trkpt><trkpt lat="43.4692283" lon="11.6094167"><ele>234.0</ele><time>2026-04-28T07:50:11.704Z</time></trkpt><trkpt lat="43.46909" lon="11.6093117"><ele>234.0</ele><time>2026-04-28T07:50:12.705Z</time></trkpt><trkpt lat="43.4689483" lon="11.6091933"><ele>234.0</ele><time>2026-04-28T07:50:13.706Z</time></trkpt><trkpt lat="43.4687967" lon="11.6090683"><ele>234.0</ele><time>2026-04-28T07:50:14.704Z</time></trkpt><trkpt lat="43.468645" lon="11.6089433"><ele>235.33333333333331</ele><time>2026-04-28T07:50:15.705Z</time></trkpt><trkpt lat="43.4685017" lon="11.6088317"><ele>236.66666666666666</ele><time>2026-04-28T07:50:16.704Z</time></trkpt><trkpt lat="43.4683683" lon="11.6087267"><ele>238.0</ele><time>2026-04-28T07:50:17.704Z</time></trkpt><trkpt lat="43.4682367" lon="11.608625"><ele>238.0</ele><time>2026-04-28T07:50:18.711Z</time></trkpt><trkpt lat="43.4681083" lon="11.6085183"><ele>238.0</ele><time>2026-04-28T07:50:19.705Z</time></trkpt><trkpt lat="43.4679833" lon="11.6084"><ele>238.0</ele><time>2026-04-28T07:50:20.703Z</time></trkpt><trkpt lat="43.467865" lon="11.60828"><ele>238.0</ele><time>2026-04-28T07:50:21.705Z</time></trkpt><trkpt lat="43.46775" lon="11.6081567"><ele>239.75</ele><time>2026-04-28T07:50:22.703Z</time></trkpt><trkpt lat="43.4676383" lon="11.6080417"><ele>241.5</ele><time>2026-04-28T07:50:23.704Z</time></trkpt><trkpt lat="43.467525" lon="11.6079267"><ele>243.25</ele><time>2026-04-28T07:50:24.704Z</time></trkpt><trkpt lat="43.4674117" lon="11.6078183"><ele>245.0</ele><time>2026-04-28T07:50:25.705Z</time></trkpt><trkpt lat="43.4672933" lon="11.607715"><ele>245.5</ele><time>2026-04-28T07:50:26.705Z</time></trkpt><trkpt lat="43.4671717" lon="11.6076167"><ele>246.0</ele><time>2026-04-28T07:50:27.706Z</time></trkpt><trkpt lat="43.467055" lon="11.60752"><ele>246.5</ele><time>2026-04-28T07:50:28.704Z</time></trkpt><trkpt lat="43.4669333" lon="11.60742"><ele>247.0</ele><time>2026-04-28T07:50:29.705Z</time></trkpt><trkpt lat="43.4668133" lon="11.6073217"><ele>248.0</ele><time>2026-04-28T07:50:30.703Z</time></trkpt><trkpt lat="43.466695" lon="11.6072167"><ele>249.0</ele><time>2026-04-28T07:50:31.704Z</time></trkpt><trkpt lat="43.4665767" lon="11.60711"><ele>250.0</ele><time>2026-04-28T07:50:32.704Z</time></trkpt><trkpt lat="43.4664633" lon="11.6070017"><ele>251.0</ele><time>2026-04-28T07:50:33.704Z</time></trkpt><trkpt lat="43.4663517" lon="11.6068967"><ele>251.75</ele><time>2026-04-28T07:50:34.704Z</time></trkpt><trkpt lat="43.466245" lon="11.6068017"><ele>252.5</ele><time>2026-04-28T07:50:35.704Z</time></trkpt><trkpt lat="43.4661467" lon="11.6067217"><ele>253.25</ele><time>2026-04-28T07:50:36.705Z</time></trkpt><trkpt lat="43.4660483" lon="11.6066583"><ele>254.0</ele><time>2026-04-28T07:50:37.707Z</time></trkpt><trkpt lat="43.4659417" lon="11.60662"><ele>254.0</ele><time>2026-04-28T07:50:38.704Z</time></trkpt><trkpt lat="43.4658283" lon="11.606615"><ele>254.0</ele><time>2026-04-28T07:50:39.707Z</time></trkpt><trkpt lat="43.4657083" lon="11.6066567"><ele>254.0</ele><time>2026-04-28T07:50:40.705Z</time></trkpt><trkpt lat="43.4655817" lon="11.60673"><ele>254.0</ele><time>2026-04-28T07:50:41.705Z</time></trkpt><trkpt lat="43.4654517" lon="11.6068167"><ele>254.25</ele><time>2026-04-28T07:50:42.705Z</time></trkpt><trkpt lat="43.4653183" lon="11.6069"><ele>254.5</ele><time>2026-04-28T07:50:43.705Z</time></trkpt><trkpt lat="43.4651883" lon="11.6069833"><ele>254.75</ele><time>2026-04-28T07:50:44.705Z</time></trkpt><trkpt lat="43.465055" lon="11.60706"><ele>255.0</ele><time>2026-04-28T07:50:45.706Z</time></trkpt><trkpt lat="43.4649217" lon="11.6071183"><ele>255.0</ele><time>2026-04-28T07:50:46.707Z</time></trkpt><trkpt lat="43.4647833" lon="11.6071517"><ele>255.0</ele><time>2026-04-28T07:50:47.706Z</time></trkpt><trkpt lat="43.4646417" lon="11.6071617"><ele>255.0</ele><time>2026-04-28T07:50:48.707Z</time></trkpt><trkpt lat="43.4644983" lon="11.6071483"><ele>255.0</ele><time>2026-04-28T07:50:49.708Z</time></trkpt><trkpt lat="43.4643533" lon="11.6071167"><ele>255.0</ele><time>2026-04-28T07:50:50.706Z</time></trkpt><trkpt lat="43.4642117" lon="11.6070717"><ele>255.0</ele><time>2026-04-28T07:50:51.706Z</time></trkpt><trkpt lat="43.4640733" lon="11.607015"><ele>255.0</ele><time>2026-04-28T07:50:52.704Z</time></trkpt><trkpt lat="43.4639433" lon="11.6069517"><ele>255.0</ele><time>2026-04-28T07:50:53.704Z</time></trkpt><trkpt lat="43.4638167" lon="11.6068833"><ele>252.0</ele><time>2026-04-28T07:50:54.704Z</time></trkpt><trkpt lat="43.463695" lon="11.6068017"><ele>249.0</ele><time>2026-04-28T07:50:55.707Z</time></trkpt><trkpt lat="43.46357" lon="11.6067033"><ele>246.0</ele><time>2026-04-28T07:50:56.705Z</time></trkpt><trkpt lat="43.46345" lon="11.606595"><ele>243.0</ele><time>2026-04-28T07:50:57.705Z</time></trkpt><trkpt lat="43.4633333" lon="11.6064767"><ele>243.0</ele><time>2026-04-28T07:50:58.705Z</time></trkpt><trkpt lat="43.4632183" lon="11.6063583"><ele>243.0</ele><time>2026-04-28T07:50:59.705Z</time></trkpt><trkpt lat="43.4631017" lon="11.6062267"><ele>243.0</ele><time>2026-04-28T07:51:00.705Z</time></trkpt><trkpt lat="43.4629867" lon="11.6060917"><ele>243.0</ele><time>2026-04-28T07:51:01.703Z</time></trkpt><trkpt lat="43.46287" lon="11.6059583"><ele>241.0</ele><time>2026-04-28T07:51:02.705Z</time></trkpt><trkpt lat="43.462755" lon="11.6058233"><ele>239.0</ele><time>2026-04-28T07:51:03.705Z</time></trkpt><trkpt lat="43.4626433" lon="11.605685"><ele>237.0</ele><time>2026-04-28T07:51:04.705Z</time></trkpt><trkpt lat="43.462535" lon="11.6055567"><ele>235.0</ele><time>2026-04-28T07:51:05.704Z</time></trkpt><trkpt lat="43.4624283" lon="11.6054317"><ele>235.75</ele><time>2026-04-28T07:51:06.706Z</time></trkpt><trkpt lat="43.4623233" lon="11.6053133"><ele>236.5</ele><time>2026-04-28T07:51:07.706Z</time></trkpt><trkpt lat="43.4622183" lon="11.605195"><ele>237.25</ele><time>2026-04-28T07:51:08.705Z</time></trkpt><trkpt lat="43.4621083" lon="11.6050717"><ele>238.0</ele><time>2026-04-28T07:51:09.706Z</time></trkpt><trkpt lat="43.461995" lon="11.6049383"><ele>239.5</ele><time>2026-04-28T07:51:10.707Z</time></trkpt><trkpt lat="43.4618833" lon="11.6048033"><ele>241.0</ele><time>2026-04-28T07:51:11.706Z</time></trkpt><trkpt lat="43.4617767" lon="11.604665"><ele>242.5</ele><time>2026-04-28T07:51:12.706Z</time></trkpt><trkpt lat="43.46167" lon="11.6045267"><ele>244.0</ele><time>2026-04-28T07:51:13.707Z</time></trkpt><trkpt lat="43.4615633" lon="11.60439"><ele>244.66666666666666</ele><time>2026-04-28T07:51:14.706Z</time></trkpt><trkpt lat="43.46145" lon="11.6042483"><ele>245.33333333333331</ele><time>2026-04-28T07:51:15.708Z</time></trkpt><trkpt lat="43.4613317" lon="11.6041083"><ele>246.0</ele><time>2026-04-28T07:51:16.705Z</time></trkpt><trkpt lat="43.46121" lon="11.6039633"><ele>248.0</ele><time>2026-04-28T07:51:17.705Z</time></trkpt><trkpt lat="43.4610867" lon="11.6038117"><ele>250.0</ele><time>2026-04-28T07:51:18.704Z</time></trkpt><trkpt lat="43.46097" lon="11.603655"><ele>252.0</ele><time>2026-04-28T07:51:19.706Z</time></trkpt><trkpt lat="43.460855" lon="11.603495"><ele>253.0</ele><time>2026-04-28T07:51:20.704Z</time></trkpt><trkpt lat="43.4607417" lon="11.603335"><ele>254.0</ele><time>2026-04-28T07:51:21.705Z</time></trkpt><trkpt lat="43.4606217" lon="11.6031767"><ele>255.0</ele><time>2026-04-28T07:51:22.705Z</time></trkpt><trkpt lat="43.4605017" lon="11.6030217"><ele>253.66666666666669</ele><time>2026-04-28T07:51:23.705Z</time></trkpt><trkpt lat="43.4603767" lon="11.60287"><ele>252.33333333333334</ele><time>2026-04-28T07:51:24.705Z</time></trkpt><trkpt lat="43.4602583" lon="11.6027233"><ele>251.0</ele><time>2026-04-28T07:51:25.706Z</time></trkpt><trkpt lat="43.460135" lon="11.60259"><ele>253.0</ele><time>2026-04-28T07:51:26.707Z</time></trkpt><trkpt lat="43.4600183" lon="11.6024633"><ele>255.0</ele><time>2026-04-28T07:51:27.706Z</time></trkpt><trkpt lat="43.45991" lon="11.6023367"><ele>257.0</ele><time>2026-04-28T07:51:28.705Z</time></trkpt><trkpt lat="43.4598067" lon="11.6022217"><ele>259.0</ele><time>2026-04-28T07:51:29.706Z</time></trkpt><trkpt lat="43.4596967" lon="11.6021283"><ele>259.25</ele><time>2026-04-28T07:51:30.706Z</time></trkpt><trkpt lat="43.459575" lon="11.60206"><ele>259.5</ele><time>2026-04-28T07:51:31.706Z</time></trkpt><trkpt lat="43.4594517" lon="11.6020233"><ele>259.75</ele><time>2026-04-28T07:51:32.704Z</time></trkpt><trkpt lat="43.459325" lon="11.6020017"><ele>260.0</ele><time>2026-04-28T07:51:33.705Z</time></trkpt><trkpt lat="43.459205" lon="11.6019783"><ele>260.0</ele><time>2026-04-28T07:51:34.702Z</time></trkpt><trkpt lat="43.4590983" lon="11.6019333"><ele>260.0</ele><time>2026-04-28T07:51:35.703Z</time></trkpt><trkpt lat="43.459005" lon="11.6018483"><ele>260.0</ele><time>2026-04-28T07:51:36.707Z</time></trkpt><trkpt lat="43.4589183" lon="11.6017117"><ele>260.0</ele><time>2026-04-28T07:51:37.708Z</time></trkpt><trkpt lat="43.4588367" lon="11.6015467"><ele>259.6666666666667</ele><time>2026-04-28T07:51:38.707Z</time></trkpt><trkpt lat="43.4587483" lon="11.60136"><ele>259.3333333333333</ele><time>2026-04-28T07:51:39.705Z</time></trkpt><trkpt lat="43.4586467" lon="11.6011433"><ele>259.0</ele><time>2026-04-28T07:51:40.703Z</time></trkpt><trkpt lat="43.45853" lon="11.6008967"><ele>259.0</ele><time>2026-04-28T07:51:41.704Z</time></trkpt><trkpt lat="43.4583967" lon="11.6006233"><ele>259.0</ele><time>2026-04-28T07:51:42.704Z</time></trkpt><trkpt lat="43.458255" lon="11.60033"><ele>261.0</ele><time>2026-04-28T07:51:43.704Z</time></trkpt><trkpt lat="43.4581167" lon="11.600045"><ele>263.0</ele><time>2026-04-28T07:51:44.704Z</time></trkpt><trkpt lat="43.4579917" lon="11.59979"><ele>263.0</ele><time>2026-04-28T07:51:45.705Z</time></trkpt><trkpt lat="43.4578767" lon="11.59955"><ele>263.0</ele><time>2026-04-28T07:51:46.704Z</time></trkpt><trkpt lat="43.457775" lon="11.5993267"><ele>263.0</ele><time>2026-04-28T07:51:47.705Z</time></trkpt><trkpt lat="43.4576833" lon="11.5991217"><ele>264.25</ele><time>2026-04-28T07:51:48.706Z</time></trkpt><trkpt lat="43.4576083" lon="11.5989417"><ele>265.5</ele><time>2026-04-28T07:51:49.706Z</time></trkpt><trkpt lat="43.457545" lon="11.5987833"><ele>266.75</ele><time>2026-04-28T07:51:50.706Z</time></trkpt><trkpt lat="43.45749" lon="11.598635"><ele>268.0</ele><time>2026-04-28T07:51:51.707Z</time></trkpt><trkpt lat="43.457445" lon="11.5984917"><ele>268.6</ele><time>2026-04-28T07:51:52.705Z</time></trkpt><trkpt lat="43.457405" lon="11.5983583"><ele>269.20000000000005</ele><time>2026-04-28T07:51:53.704Z</time></trkpt><trkpt lat="43.4573667" lon="11.59824"><ele>269.8</ele><time>2026-04-28T07:51:54.706Z</time></trkpt><trkpt lat="43.457325" lon="11.5981267"><ele>270.40000000000003</ele><time>2026-04-28T07:51:55.705Z</time></trkpt><trkpt lat="43.4572767" lon="11.59803"><ele>271.0</ele><time>2026-04-28T07:51:56.707Z</time></trkpt><trkpt lat="43.45723" lon="11.597945"><ele>271.3333333333333</ele><time>2026-04-28T07:51:57.707Z</time></trkpt><trkpt lat="43.4571617" lon="11.5978283"><ele>271.66666666666663</ele><time>2026-04-28T07:51:59.705Z</time></trkpt><trkpt lat="43.4571133" lon="11.5977683"><ele>272.0</ele><time>2026-04-28T07:52:01.706Z</time></trkpt><trkpt lat="43.45705" lon="11.5976783"><ele>272.3333333333333</ele><time>2026-04-28T07:52:44.699Z</time></trkpt><trkpt lat="43.4569967" lon="11.5975983"><ele>272.6666666666667</ele><time>2026-04-28T07:52:45.705Z</time></trkpt><trkpt lat="43.4569467" lon="11.5975133"><ele>273.0</ele><time>2026-04-28T07:52:46.704Z</time></trkpt><trkpt lat="43.4569067" lon="11.5974333"><ele>273.0</ele><time>2026-04-28T07:52:47.704Z</time></trkpt><trkpt lat="43.4568767" lon="11.5973467"><ele>273.0</ele><time>2026-04-28T07:52:48.706Z</time></trkpt><trkpt lat="43.4568617" lon="11.5972467"><ele>273.0</ele><time>2026-04-28T07:52:49.704Z</time></trkpt><trkpt lat="43.4568567" lon="11.5971417"><ele>273.0</ele><time>2026-04-28T07:52:50.706Z</time></trkpt><trkpt lat="43.4568467" lon="11.5970433"><ele>273.0</ele><time>2026-04-28T07:52:51.706Z</time></trkpt><trkpt lat="43.456825" lon="11.59696"><ele>273.0</ele><time>2026-04-28T07:52:52.708Z</time></trkpt><trkpt lat="43.4567817" lon="11.59688"><ele>273.0</ele><time>2026-04-28T07:52:53.706Z</time></trkpt><trkpt lat="43.4567233" lon="11.59681"><ele>273.1666666666667</ele><time>2026-04-28T07:52:54.707Z</time></trkpt><trkpt lat="43.456655" lon="11.5967533"><ele>273.3333333333333</ele><time>2026-04-28T07:52:55.707Z</time></trkpt><trkpt lat="43.4565833" lon="11.5967067"><ele>273.5</ele><time>2026-04-28T07:52:56.706Z</time></trkpt><trkpt lat="43.456505" lon="11.59667"><ele>273.66666666666663</ele><time>2026-04-28T07:52:57.708Z</time></trkpt><trkpt lat="43.4564283" lon="11.59663"><ele>273.8333333333333</ele><time>2026-04-28T07:52:58.707Z</time></trkpt><trkpt lat="43.4563567" lon="11.59659"><ele>274.0</ele><time>2026-04-28T07:52:59.709Z</time></trkpt><trkpt lat="43.4562917" lon="11.5965567"><ele>275.59999999999997</ele><time>2026-04-28T07:53:00.705Z</time></trkpt><trkpt lat="43.456185" lon="11.5965217"><ele>277.2</ele><time>2026-04-28T07:53:02.705Z</time></trkpt><trkpt lat="43.4560567" lon="11.5965183"><ele>278.79999999999995</ele><time>2026-04-28T07:53:04.705Z</time></trkpt><trkpt lat="43.4559733" lon="11.5965267"><ele>280.4</ele><time>2026-04-28T07:53:05.703Z</time></trkpt><trkpt lat="43.4558933" lon="11.5965383"><ele>282.0</ele><time>2026-04-28T07:53:06.705Z</time></trkpt><trkpt lat="43.4558217" lon="11.5965367"><ele>282.0</ele><time>2026-04-28T07:53:07.706Z</time></trkpt><trkpt lat="43.4557617" lon="11.5965033"><ele>282.0</ele><time>2026-04-28T07:53:08.706Z</time></trkpt><trkpt lat="43.4557117" lon="11.596435"><ele>282.0</ele><time>2026-04-28T07:53:09.706Z</time></trkpt><trkpt lat="43.455665" lon="11.5963567"><ele>282.0</ele><time>2026-04-28T07:53:10.703Z</time></trkpt><trkpt lat="43.45562" lon="11.5962817"><ele>282.0</ele><time>2026-04-28T07:53:11.705Z</time></trkpt><trkpt lat="43.4555733" lon="11.5962083"><ele>282.0</ele><time>2026-04-28T07:53:12.704Z</time></trkpt><trkpt lat="43.4555117" lon="11.5961417"><ele>282.0</ele><time>2026-04-28T07:53:13.703Z</time></trkpt><trkpt lat="43.4554367" lon="11.5960833"><ele>282.6</ele><time>2026-04-28T07:53:14.704Z</time></trkpt><trkpt lat="43.455355" lon="11.5960217"><ele>283.2</ele><time>2026-04-28T07:53:15.705Z</time></trkpt><trkpt lat="43.45528" lon="11.5959567"><ele>283.8</ele><time>2026-04-28T07:53:16.704Z</time></trkpt><trkpt lat="43.4552233" lon="11.59588"><ele>284.4</ele><time>2026-04-28T07:53:17.701Z</time></trkpt><trkpt lat="43.4551767" lon="11.59578"><ele>285.0</ele><time>2026-04-28T07:53:18.704Z</time></trkpt><trkpt lat="43.4551317" lon="11.5956433"><ele>285.0</ele><time>2026-04-28T07:53:19.705Z</time></trkpt><trkpt lat="43.455095" lon="11.595495"><ele>285.0</ele><time>2026-04-28T07:53:20.705Z</time></trkpt><trkpt lat="43.4550667" lon="11.595345"><ele>285.0</ele><time>2026-04-28T07:53:21.705Z</time></trkpt><trkpt lat="43.4550583" lon="11.59521"><ele>285.0</ele><time>2026-04-28T07:53:22.705Z</time></trkpt><trkpt lat="43.4550617" lon="11.5950917"><ele>285.0</ele><time>2026-04-28T07:53:23.706Z</time></trkpt><trkpt lat="43.4550633" lon="11.59499"><ele>286.0</ele><time>2026-04-28T07:53:24.705Z</time></trkpt><trkpt lat="43.455055" lon="11.5948983"><ele>287.0</ele><time>2026-04-28T07:53:25.699Z</time></trkpt><trkpt lat="43.4549867" lon="11.5948"><ele>288.0</ele><time>2026-04-28T07:53:27.705Z</time></trkpt><trkpt lat="43.4549233" lon="11.5947817"><ele>289.0</ele><time>2026-04-28T07:53:28.704Z</time></trkpt><trkpt lat="43.4548567" lon="11.59478"><ele>290.0</ele><time>2026-04-28T07:53:29.705Z</time></trkpt><trkpt lat="43.45479" lon="11.59478"><ele>291.0</ele><time>2026-04-28T07:53:30.704Z</time></trkpt><trkpt lat="43.4546617" lon="11.59481"><ele>290.6666666666667</ele><time>2026-04-28T07:53:32.705Z</time></trkpt><trkpt lat="43.4545917" lon="11.5948517"><ele>290.3333333333333</ele><time>2026-04-28T07:53:33.705Z</time></trkpt><trkpt lat="43.454525" lon="11.5949"><ele>290.0</ele><time>2026-04-28T07:53:34.706Z</time></trkpt><trkpt lat="43.4544633" lon="11.5949467"><ele>289.66666666666663</ele><time>2026-04-28T07:53:35.704Z</time></trkpt><trkpt lat="43.4543717" lon="11.5949983"><ele>289.3333333333333</ele><time>2026-04-28T07:53:37.71Z</time></trkpt><trkpt lat="43.454285" lon="11.5949867"><ele>289.0</ele><time>2026-04-28T07:53:39.704Z</time></trkpt><trkpt lat="43.45418" lon="11.5948967"><ele>289.0</ele><time>2026-04-28T07:53:41.704Z</time></trkpt><trkpt lat="43.4541283" lon="11.5948367"><ele>289.0</ele><time>2026-04-28T07:53:42.703Z</time></trkpt><trkpt lat="43.4540767" lon="11.5947733"><ele>289.0</ele><time>2026-04-28T07:53:43.705Z</time></trkpt><trkpt lat="43.4540133" lon="11.5947167"><ele>289.0</ele><time>2026-04-28T07:53:44.705Z</time></trkpt><trkpt lat="43.4539633" lon="11.5946633"><ele>289.0</ele><time>2026-04-28T07:53:45.705Z</time></trkpt><trkpt lat="43.4539033" lon="11.59455"><ele>289.0</ele><time>2026-04-28T07:53:47.704Z</time></trkpt><trkpt lat="43.4539167" lon="11.594395"><ele>290.8333333333333</ele><time>2026-04-28T07:53:49.705Z</time></trkpt><trkpt lat="43.453945" lon="11.5942883"><ele>292.66666666666663</ele><time>2026-04-28T07:53:50.705Z</time></trkpt><trkpt lat="43.4539617" lon="11.5941767"><ele>294.5</ele><time>2026-04-28T07:53:51.706Z</time></trkpt><trkpt lat="43.453965" lon="11.5940567"><ele>296.3333333333333</ele><time>2026-04-28T07:53:52.704Z</time></trkpt><trkpt lat="43.4539567" lon="11.5939417"><ele>298.1666666666667</ele><time>2026-04-28T07:53:53.7Z</time></trkpt><trkpt lat="43.4539517" lon="11.5938483"><ele>300.0</ele><time>2026-04-28T07:53:54.704Z</time></trkpt><trkpt lat="43.4539567" lon="11.5937567"><ele>300.6666666666667</ele><time>2026-04-28T07:53:55.705Z</time></trkpt><trkpt lat="43.4539817" lon="11.593665"><ele>301.3333333333333</ele><time>2026-04-28T07:53:56.705Z</time></trkpt><trkpt lat="43.4540317" lon="11.5935717"><ele>302.0</ele><time>2026-04-28T07:53:57.705Z</time></trkpt><trkpt lat="43.4541033" lon="11.5934733"><ele>302.66666666666663</ele><time>2026-04-28T07:53:58.704Z</time></trkpt><trkpt lat="43.4541783" lon="11.59339"><ele>303.3333333333333</ele><time>2026-04-28T07:53:59.703Z</time></trkpt><trkpt lat="43.45424" lon="11.5933217"><ele>304.0</ele><time>2026-04-28T07:54:00.704Z</time></trkpt><trkpt lat="43.4543033" lon="11.5932"><ele>304.0</ele><time>2026-04-28T07:54:02.704Z</time></trkpt><trkpt lat="43.4543217" lon="11.593085"><ele>304.0</ele><time>2026-04-28T07:54:04.702Z</time></trkpt><trkpt lat="43.4542867" lon="11.5929183"><ele>304.0</ele><time>2026-04-28T07:54:06.703Z</time></trkpt><trkpt lat="43.4542567" lon="11.5928083"><ele>304.0</ele><time>2026-04-28T07:54:07.704Z</time></trkpt><trkpt lat="43.4542267" lon="11.59269"><ele>304.0</ele><time>2026-04-28T07:54:08.703Z</time></trkpt><trkpt lat="43.4542" lon="11.592575"><ele>304.5</ele><time>2026-04-28T07:54:09.704Z</time></trkpt><trkpt lat="43.4541667" lon="11.592465"><ele>305.0</ele><time>2026-04-28T07:54:10.704Z</time></trkpt><trkpt lat="43.454125" lon="11.5923583"><ele>305.5</ele><time>2026-04-28T07:54:11.704Z</time></trkpt><trkpt lat="43.4540817" lon="11.5922567"><ele>306.0</ele><time>2026-04-28T07:54:12.703Z</time></trkpt><trkpt lat="43.4540383" lon="11.5921567"><ele>306.5</ele><time>2026-04-28T07:54:13.706Z</time></trkpt><trkpt lat="43.453995" lon="11.59206"><ele>307.0</ele><time>2026-04-28T07:54:14.704Z</time></trkpt><trkpt lat="43.4539567" lon="11.5919667"><ele>307.99999999999994</ele><time>2026-04-28T07:54:15.705Z</time></trkpt><trkpt lat="43.4539233" lon="11.59188"><ele>309.0</ele><time>2026-04-28T07:54:16.704Z</time></trkpt><trkpt lat="43.4538967" lon="11.5917917"><ele>310.0</ele><time>2026-04-28T07:54:17.703Z</time></trkpt><trkpt lat="43.45388" lon="11.591705"><ele>311.0</ele><time>2026-04-28T07:54:18.703Z</time></trkpt><trkpt lat="43.4538783" lon="11.5916117"><ele>312.0</ele><time>2026-04-28T07:54:19.704Z</time></trkpt><trkpt lat="43.4538867" lon="11.5915017"><ele>312.99999999999994</ele><time>2026-04-28T07:54:20.704Z</time></trkpt><trkpt lat="43.4538983" lon="11.5913833"><ele>314.0</ele><time>2026-04-28T07:54:21.704Z</time></trkpt><trkpt lat="43.45391" lon="11.5912617"><ele>315.6666666666667</ele><time>2026-04-28T07:54:22.703Z</time></trkpt><trkpt lat="43.4539183" lon="11.59114"><ele>317.33333333333337</ele><time>2026-04-28T07:54:23.705Z</time></trkpt><trkpt lat="43.4539283" lon="11.5910183"><ele>319.0</ele><time>2026-04-28T07:54:24.708Z</time></trkpt><trkpt lat="43.4539317" lon="11.5908983"><ele>320.6666666666667</ele><time>2026-04-28T07:54:25.704Z</time></trkpt><trkpt lat="43.4539267" lon="11.5907833"><ele>322.3333333333333</ele><time>2026-04-28T07:54:26.704Z</time></trkpt><trkpt lat="43.4539117" lon="11.59067"><ele>324.0</ele><time>2026-04-28T07:54:27.705Z</time></trkpt><trkpt lat="43.4538933" lon="11.59056"><ele>324.0</ele><time>2026-04-28T07:54:28.702Z</time></trkpt><trkpt lat="43.4538817" lon="11.5904617"><ele>324.0</ele><time>2026-04-28T07:54:29.703Z</time></trkpt><trkpt lat="43.4538783" lon="11.5903717"><ele>324.0</ele><time>2026-04-28T07:54:30.702Z</time></trkpt><trkpt lat="43.4539167" lon="11.5902083"><ele>324.0</ele><time>2026-04-28T07:54:32.704Z</time></trkpt><trkpt lat="43.453975" lon="11.59008"><ele>324.0</ele><time>2026-04-28T07:54:34.704Z</time></trkpt><trkpt lat="43.4540183" lon="11.589975"><ele>326.2</ele><time>2026-04-28T07:54:36.703Z</time></trkpt><trkpt lat="43.4540367" lon="11.5898333"><ele>328.4</ele><time>2026-04-28T07:54:38.703Z</time></trkpt><trkpt lat="43.4540567" lon="11.589655"><ele>330.6</ele><time>2026-04-28T07:54:40.703Z</time></trkpt><trkpt lat="43.4540917" lon="11.5894867"><ele>332.8</ele><time>2026-04-28T07:54:42.703Z</time></trkpt><trkpt lat="43.4541117" lon="11.5893783"><ele>335.0</ele><time>2026-04-28T07:54:43.705Z</time></trkpt><trkpt lat="43.45413" lon="11.5892483"><ele>337.2</ele><time>2026-04-28T07:54:44.704Z</time></trkpt><trkpt lat="43.4541317" lon="11.5891133"><ele>339.4</ele><time>2026-04-28T07:54:45.705Z</time></trkpt><trkpt lat="43.4541317" lon="11.58899"><ele>341.6</ele><time>2026-04-28T07:54:46.708Z</time></trkpt><trkpt lat="43.4541333" lon="11.5888817"><ele>343.8</ele><time>2026-04-28T07:54:47.703Z</time></trkpt><trkpt lat="43.4541533" lon="11.588795"><ele>346.0</ele><time>2026-04-28T07:54:48.705Z</time></trkpt><trkpt lat="43.4541667" lon="11.58862"><ele>347.0</ele><time>2026-04-28T07:54:50.705Z</time></trkpt><trkpt lat="43.454155" lon="11.588515"><ele>348.0</ele><time>2026-04-28T07:54:51.705Z</time></trkpt><trkpt lat="43.4541367" lon="11.58841"><ele>349.0</ele><time>2026-04-28T07:54:52.704Z</time></trkpt><trkpt lat="43.4541083" lon="11.5883033"><ele>350.0</ele><time>2026-04-28T07:54:53.7Z</time></trkpt><trkpt lat="43.4540817" lon="11.5881983"><ele>351.0</ele><time>2026-04-28T07:54:54.701Z</time></trkpt><trkpt lat="43.4540633" lon="11.5880917"><ele>352.0</ele><time>2026-04-28T07:54:55.703Z</time></trkpt><trkpt lat="43.4540483" lon="11.5879633"><ele>352.8333333333333</ele><time>2026-04-28T07:54:56.704Z</time></trkpt><trkpt lat="43.45403" lon="11.58784"><ele>353.66666666666663</ele><time>2026-04-28T07:54:57.705Z</time></trkpt><trkpt lat="43.4540167" lon="11.587735"><ele>354.5</ele><time>2026-04-28T07:54:58.704Z</time></trkpt><trkpt lat="43.4540133" lon="11.587625"><ele>355.3333333333333</ele><time>2026-04-28T07:54:59.704Z</time></trkpt><trkpt lat="43.4540233" lon="11.5875083"><ele>356.1666666666667</ele><time>2026-04-28T07:55:00.704Z</time></trkpt><trkpt lat="43.4540367" lon="11.5873833"><ele>357.0</ele><time>2026-04-28T07:55:01.704Z</time></trkpt><trkpt lat="43.45405" lon="11.587255"><ele>357.0</ele><time>2026-04-28T07:55:02.704Z</time></trkpt><trkpt lat="43.4540667" lon="11.58711"><ele>357.0</ele><time>2026-04-28T07:55:03.703Z</time></trkpt><trkpt lat="43.4540917" lon="11.5869367"><ele>357.0</ele><time>2026-04-28T07:55:04.703Z</time></trkpt><trkpt lat="43.454115" lon="11.5867583"><ele>357.0</ele><time>2026-04-28T07:55:05.703Z</time></trkpt><trkpt lat="43.45413" lon="11.586605"><ele>357.6666666666667</ele><time>2026-04-28T07:55:06.703Z</time></trkpt><trkpt lat="43.454135" lon="11.58647"><ele>358.3333333333333</ele><time>2026-04-28T07:55:07.704Z</time></trkpt><trkpt lat="43.4541383" lon="11.5863517"><ele>359.0</ele><time>2026-04-28T07:55:08.703Z</time></trkpt><trkpt lat="43.4541433" lon="11.5862533"><ele>359.66666666666663</ele><time>2026-04-28T07:55:09.704Z</time></trkpt><trkpt lat="43.4541533" lon="11.5860933"><ele>360.3333333333333</ele><time>2026-04-28T07:55:11.704Z</time></trkpt><trkpt lat="43.45416" lon="11.585995"><ele>361.0</ele><time>2026-04-28T07:55:12.704Z</time></trkpt><trkpt lat="43.45416" lon="11.5858767"><ele>362.3333333333333</ele><time>2026-04-28T07:55:13.704Z</time></trkpt><trkpt lat="43.45416" lon="11.5857533"><ele>363.66666666666663</ele><time>2026-04-28T07:55:14.703Z</time></trkpt><trkpt lat="43.45416" lon="11.5856367"><ele>365.0</ele><time>2026-04-28T07:55:15.704Z</time></trkpt><trkpt lat="43.4541533" lon="11.58553"><ele>366.3333333333333</ele><time>2026-04-28T07:55:16.703Z</time></trkpt><trkpt lat="43.4541417" lon="11.5854183"><ele>367.6666666666667</ele><time>2026-04-28T07:55:17.703Z</time></trkpt><trkpt lat="43.45413" lon="11.585295"><ele>369.0</ele><time>2026-04-28T07:55:18.703Z</time></trkpt><trkpt lat="43.4541133" lon="11.5851717"><ele>371.0</ele><time>2026-04-28T07:55:19.704Z</time></trkpt><trkpt lat="43.454085" lon="11.5850633"><ele>373.0</ele><time>2026-04-28T07:55:20.705Z</time></trkpt><trkpt lat="43.454045" lon="11.584945"><ele>375.0</ele><time>2026-04-28T07:55:21.704Z</time></trkpt><trkpt lat="43.4540033" lon="11.5848167"><ele>377.0</ele><time>2026-04-28T07:55:22.704Z</time></trkpt><trkpt lat="43.4539533" lon="11.5846817"><ele>379.0</ele><time>2026-04-28T07:55:23.704Z</time></trkpt><trkpt lat="43.4539117" lon="11.5845583"><ele>381.3333333333333</ele><time>2026-04-28T07:55:24.707Z</time></trkpt><trkpt lat="43.4538783" lon="11.584445"><ele>383.66666666666663</ele><time>2026-04-28T07:55:25.702Z</time></trkpt><trkpt lat="43.45385" lon="11.5843333"><ele>386.0</ele><time>2026-04-28T07:55:26.702Z</time></trkpt><trkpt lat="43.45384" lon="11.5842183"><ele>388.3333333333333</ele><time>2026-04-28T07:55:27.704Z</time></trkpt><trkpt lat="43.45384" lon="11.5840917"><ele>390.6666666666667</ele><time>2026-04-28T07:55:28.704Z</time></trkpt><trkpt lat="43.4538483" lon="11.5839583"><ele>393.0</ele><time>2026-04-28T07:55:29.703Z</time></trkpt><trkpt lat="43.45386" lon="11.5838117"><ele>394.5</ele><time>2026-04-28T07:55:30.704Z</time></trkpt><trkpt lat="43.4538683" lon="11.5836733"><ele>396.0</ele><time>2026-04-28T07:55:31.703Z</time></trkpt><trkpt lat="43.4538817" lon="11.5835433"><ele>397.5</ele><time>2026-04-28T07:55:32.705Z</time></trkpt><trkpt lat="43.4538967" lon="11.5834283"><ele>399.0</ele><time>2026-04-28T07:55:33.705Z</time></trkpt><trkpt lat="43.453905" lon="11.5833217"><ele>400.5</ele><time>2026-04-28T07:55:34.704Z</time></trkpt><trkpt lat="43.453915" lon="11.5832133"><ele>402.0</ele><time>2026-04-28T07:55:35.705Z</time></trkpt><trkpt lat="43.4539217" lon="11.58311"><ele>402.0</ele><time>2026-04-28T07:55:36.704Z</time></trkpt><trkpt lat="43.4539217" lon="11.5830133"><ele>402.0</ele><time>2026-04-28T07:55:37.704Z</time></trkpt><trkpt lat="43.4539217" lon="11.58292"><ele>402.0</ele><time>2026-04-28T07:55:38.704Z</time></trkpt><trkpt lat="43.4539333" lon="11.5828217"><ele>402.0</ele><time>2026-04-28T07:55:39.705Z</time></trkpt><trkpt lat="43.4539367" lon="11.58271"><ele>402.0</ele><time>2026-04-28T07:55:40.704Z</time></trkpt><trkpt lat="43.4539483" lon="11.582595"><ele>402.0</ele><time>2026-04-28T07:55:41.704Z</time></trkpt><trkpt lat="43.45397" lon="11.582475"><ele>402.40000000000003</ele><time>2026-04-28T07:55:42.703Z</time></trkpt><trkpt lat="43.45399" lon="11.58236"><ele>402.8</ele><time>2026-04-28T07:55:43.706Z</time></trkpt><trkpt lat="43.454015" lon="11.582255"><ele>403.2</ele><time>2026-04-28T07:55:44.705Z</time></trkpt><trkpt lat="43.45404" lon="11.5821633"><ele>403.6</ele><time>2026-04-28T07:55:45.706Z</time></trkpt><trkpt lat="43.45406" lon="11.5820083"><ele>404.0</ele><time>2026-04-28T07:55:47.704Z</time></trkpt><trkpt lat="43.454065" lon="11.5818667"><ele>406.16666666666663</ele><time>2026-04-28T07:55:49.704Z</time></trkpt><trkpt lat="43.4540317" lon="11.5817333"><ele>408.3333333333333</ele><time>2026-04-28T07:55:51.705Z</time></trkpt><trkpt lat="43.4540017" lon="11.5816417"><ele>410.5</ele><time>2026-04-28T07:55:53.704Z</time></trkpt><trkpt lat="43.454" lon="11.58154"><ele>412.66666666666663</ele><time>2026-04-28T07:55:55.704Z</time></trkpt><trkpt lat="43.4539633" lon="11.58142"><ele>414.8333333333333</ele><time>2026-04-28T07:55:57.705Z</time></trkpt><trkpt lat="43.4539017" lon="11.581315"><ele>417.0</ele><time>2026-04-28T07:55:59.704Z</time></trkpt><trkpt lat="43.4538333" lon="11.5812033"><ele>417.0</ele><time>2026-04-28T07:56:01.703Z</time></trkpt><trkpt lat="43.4537783" lon="11.5811267"><ele>417.0</ele><time>2026-04-28T07:56:03.704Z</time></trkpt><trkpt lat="43.4537533" lon="11.58104"><ele>417.0</ele><time>2026-04-28T07:56:06.705Z</time></trkpt><trkpt lat="43.4538033" lon="11.5811117"><ele>417.0</ele><time>2026-04-28T07:56:15.704Z</time></trkpt><trkpt lat="43.4538667" lon="11.581215"><ele>417.0</ele><time>2026-04-28T07:56:17.704Z</time></trkpt><trkpt lat="43.4539517" lon="11.5813033"><ele>417.0</ele><time>2026-04-28T07:56:19.706Z</time></trkpt><trkpt lat="43.4540367" lon="11.58139"><ele>417.0</ele><time>2026-04-28T07:56:21.701Z</time></trkpt><trkpt lat="43.454125" lon="11.5814733"><ele>417.0</ele><time>2026-04-28T07:56:23.705Z</time></trkpt><trkpt lat="43.45422" lon="11.5815167"><ele>417.0</ele><time>2026-04-28T07:56:25.706Z</time></trkpt><trkpt lat="43.4543133" lon="11.5815217"><ele>417.0</ele><time>2026-04-28T07:56:27.705Z</time></trkpt><trkpt lat="43.4543983" lon="11.5815083"><ele>417.0</ele><time>2026-04-28T07:56:29.704Z</time></trkpt><trkpt lat="43.4544867" lon="11.5814833"><ele>417.0</ele><time>2026-04-28T07:56:31.705Z</time></trkpt><trkpt lat="43.4545483" lon="11.5814317"><ele>417.0</ele><time>2026-04-28T07:56:33.704Z</time></trkpt><trkpt lat="43.454605" lon="11.5813383"><ele>417.0</ele><time>2026-04-28T07:56:35.704Z</time></trkpt><trkpt lat="43.454665" lon="11.58123"><ele>417.0</ele><time>2026-04-28T07:56:37.701Z</time></trkpt><trkpt lat="43.4547167" lon="11.581125"><ele>417.0</ele><time>2026-04-28T07:56:39.705Z</time></trkpt><trkpt lat="43.454765" lon="11.58097"><ele>419.5</ele><time>2026-04-28T07:56:41.703Z</time></trkpt><trkpt lat="43.4547933" lon="11.58081"><ele>422.0</ele><time>2026-04-28T07:56:43.702Z</time></trkpt><trkpt lat="43.45483" lon="11.5806783"><ele>424.5</ele><time>2026-04-28T07:56:45.704Z</time></trkpt><trkpt lat="43.4549033" lon="11.58055"><ele>427.0</ele><time>2026-04-28T07:56:47.703Z</time></trkpt><trkpt lat="43.4549933" lon="11.580445"><ele>427.0</ele><time>2026-04-28T07:56:49.705Z</time></trkpt><trkpt lat="43.4551017" lon="11.5803733"><ele>427.00000000000006</ele><time>2026-04-28T07:56:51.704Z</time></trkpt><trkpt lat="43.4551583" lon="11.580335"><ele>427.00000000000006</ele><time>2026-04-28T07:56:52.704Z</time></trkpt><trkpt lat="43.4552533" lon="11.5802517"><ele>427.0</ele><time>2026-04-28T07:56:54.705Z</time></trkpt><trkpt lat="43.4553183" lon="11.58014"><ele>427.0</ele><time>2026-04-28T07:56:56.703Z</time></trkpt><trkpt lat="43.455365" lon="11.5799717"><ele>429.1666666666667</ele><time>2026-04-28T07:56:58.703Z</time></trkpt><trkpt lat="43.45539" lon="11.57987"><ele>431.33333333333337</ele><time>2026-04-28T07:56:59.702Z</time></trkpt><trkpt lat="43.4554133" lon="11.5797583"><ele>433.5</ele><time>2026-04-28T07:57:00.703Z</time></trkpt><trkpt lat="43.4554333" lon="11.579645"><ele>435.66666666666663</ele><time>2026-04-28T07:57:01.703Z</time></trkpt><trkpt lat="43.4554417" lon="11.5795383"><ele>437.8333333333333</ele><time>2026-04-28T07:57:02.704Z</time></trkpt><trkpt lat="43.455445" lon="11.5794383"><ele>440.0</ele><time>2026-04-28T07:57:03.705Z</time></trkpt><trkpt lat="43.4554567" lon="11.579345"><ele>440.3333333333333</ele><time>2026-04-28T07:57:04.702Z</time></trkpt><trkpt lat="43.4554683" lon="11.579225"><ele>440.66666666666663</ele><time>2026-04-28T07:57:05.703Z</time></trkpt><trkpt lat="43.4554783" lon="11.5790967"><ele>441.0</ele><time>2026-04-28T07:57:06.704Z</time></trkpt><trkpt lat="43.455495" lon="11.5789683"><ele>441.33333333333337</ele><time>2026-04-28T07:57:07.705Z</time></trkpt><trkpt lat="43.455515" lon="11.5788667"><ele>441.6666666666667</ele><time>2026-04-28T07:57:08.704Z</time></trkpt><trkpt lat="43.45555" lon="11.57878"><ele>442.0</ele><time>2026-04-28T07:57:09.706Z</time></trkpt><trkpt lat="43.4556083" lon="11.57871"><ele>444.33333333333337</ele><time>2026-04-28T07:57:10.704Z</time></trkpt><trkpt lat="43.4556733" lon="11.5786483"><ele>446.6666666666667</ele><time>2026-04-28T07:57:11.704Z</time></trkpt><trkpt lat="43.4557383" lon="11.578585"><ele>449.0</ele><time>2026-04-28T07:57:12.704Z</time></trkpt><trkpt lat="43.4558" lon="11.5785117"><ele>451.33333333333337</ele><time>2026-04-28T07:57:13.706Z</time></trkpt><trkpt lat="43.4558583" lon="11.578425"><ele>453.6666666666667</ele><time>2026-04-28T07:57:14.704Z</time></trkpt><trkpt lat="43.4559183" lon="11.5783433"><ele>456.0</ele><time>2026-04-28T07:57:15.703Z</time></trkpt><trkpt lat="43.4559683" lon="11.5782717"><ele>456.0</ele><time>2026-04-28T07:57:16.701Z</time></trkpt><trkpt lat="43.45601" lon="11.5781983"><ele>456.0</ele><time>2026-04-28T07:57:17.705Z</time></trkpt><trkpt lat="43.456045" lon="11.5781117"><ele>456.0</ele><time>2026-04-28T07:57:18.702Z</time></trkpt><trkpt lat="43.4560717" lon="11.5780267"><ele>456.0</ele><time>2026-04-28T07:57:19.705Z</time></trkpt><trkpt lat="43.4561117" lon="11.57795"><ele>456.0</ele><time>2026-04-28T07:57:20.704Z</time></trkpt><trkpt lat="43.456175" lon="11.57781"><ele>456.0</ele><time>2026-04-28T07:57:22.704Z</time></trkpt><trkpt lat="43.45618" lon="11.57771"><ele>456.0</ele><time>2026-04-28T07:57:23.703Z</time></trkpt><trkpt lat="43.4561733" lon="11.5776133"><ele>455.99999999999994</ele><time>2026-04-28T07:57:24.704Z</time></trkpt><trkpt lat="43.456165" lon="11.5775167"><ele>456.0</ele><time>2026-04-28T07:57:25.702Z</time></trkpt><trkpt lat="43.4561633" lon="11.5774283"><ele>456.0</ele><time>2026-04-28T07:57:26.702Z</time></trkpt><trkpt lat="43.4561783" lon="11.5773383"><ele>455.99999999999994</ele><time>2026-04-28T07:57:27.704Z</time></trkpt><trkpt lat="43.456215" lon="11.5772483"><ele>456.0</ele><time>2026-04-28T07:57:28.703Z</time></trkpt><trkpt lat="43.4562667" lon="11.5771567"><ele>456.0</ele><time>2026-04-28T07:57:29.702Z</time></trkpt><trkpt lat="43.45632" lon="11.5770583"><ele>457.1666666666667</ele><time>2026-04-28T07:57:30.703Z</time></trkpt><trkpt lat="43.4563733" lon="11.5769567"><ele>458.33333333333337</ele><time>2026-04-28T07:57:31.704Z</time></trkpt><trkpt lat="43.45642" lon="11.5768517"><ele>459.5</ele><time>2026-04-28T07:57:32.703Z</time></trkpt><trkpt lat="43.45646" lon="11.5767483"><ele>460.6666666666667</ele><time>2026-04-28T07:57:33.705Z</time></trkpt><trkpt lat="43.4564983" lon="11.5766483"><ele>461.83333333333337</ele><time>2026-04-28T07:57:34.705Z</time></trkpt><trkpt lat="43.4565383" lon="11.5765583"><ele>463.0</ele><time>2026-04-28T07:57:35.702Z</time></trkpt><trkpt lat="43.4565783" lon="11.57648"><ele>463.00000000000006</ele><time>2026-04-28T07:57:36.702Z</time></trkpt><trkpt lat="43.45662" lon="11.5764017"><ele>463.0</ele><time>2026-04-28T07:57:37.704Z</time></trkpt><trkpt lat="43.45666" lon="11.57632"><ele>463.0</ele><time>2026-04-28T07:57:38.703Z</time></trkpt><trkpt lat="43.456705" lon="11.57624"><ele>463.0</ele><time>2026-04-28T07:57:39.704Z</time></trkpt><trkpt lat="43.456755" lon="11.5761617"><ele>463.00000000000006</ele><time>2026-04-28T07:57:40.703Z</time></trkpt><trkpt lat="43.4568067" lon="11.576075"><ele>463.0</ele><time>2026-04-28T07:57:41.702Z</time></trkpt><trkpt lat="43.45686" lon="11.5759917"><ele>463.0</ele><time>2026-04-28T07:57:42.703Z</time></trkpt><trkpt lat="43.45691" lon="11.57593"><ele>462.99999999999994</ele><time>2026-04-28T07:57:43.703Z</time></trkpt><trkpt lat="43.4569667" lon="11.5758917"><ele>463.0</ele><time>2026-04-28T07:57:44.704Z</time></trkpt><trkpt lat="43.4570417" lon="11.5758633"><ele>463.0</ele><time>2026-04-28T07:57:45.703Z</time></trkpt><trkpt lat="43.4571183" lon="11.575835"><ele>462.99999999999994</ele><time>2026-04-28T07:57:46.703Z</time></trkpt><trkpt lat="43.4571867" lon="11.5758117"><ele>463.0</ele><time>2026-04-28T07:57:47.703Z</time></trkpt><trkpt lat="43.4572483" lon="11.5757867"><ele>463.0</ele><time>2026-04-28T07:57:48.704Z</time></trkpt><trkpt lat="43.4573067" lon="11.5757517"><ele>463.57142857142856</ele><time>2026-04-28T07:57:49.704Z</time></trkpt><trkpt lat="43.4573717" lon="11.57572"><ele>464.1428571428571</ele><time>2026-04-28T07:57:50.704Z</time></trkpt><trkpt lat="43.4574383" lon="11.57569"><ele>464.71428571428567</ele><time>2026-04-28T07:57:51.705Z</time></trkpt><trkpt lat="43.457505" lon="11.5756733"><ele>465.2857142857142</ele><time>2026-04-28T07:57:52.704Z</time></trkpt><trkpt lat="43.4575717" lon="11.575665"><ele>465.85714285714283</ele><time>2026-04-28T07:57:53.704Z</time></trkpt><trkpt lat="43.45764" lon="11.575675"><ele>466.42857142857133</ele><time>2026-04-28T07:57:54.703Z</time></trkpt><trkpt lat="43.4577033" lon="11.5756967"><ele>466.99999999999994</ele><time>2026-04-28T07:57:55.705Z</time></trkpt><trkpt lat="43.457815" lon="11.575715"><ele>466.99999999999994</ele><time>2026-04-28T07:57:57.706Z</time></trkpt><trkpt lat="43.4579217" lon="11.5756367"><ele>467.0</ele><time>2026-04-28T07:57:59.703Z</time></trkpt><trkpt lat="43.457975" lon="11.5755767"><ele>467.0</ele><time>2026-04-28T07:58:00.704Z</time></trkpt><trkpt lat="43.4580117" lon="11.57549"><ele>467.0</ele><time>2026-04-28T07:58:01.704Z</time></trkpt><trkpt lat="43.4580417" lon="11.5753917"><ele>466.99999999999994</ele><time>2026-04-28T07:58:02.705Z</time></trkpt><trkpt lat="43.458065" lon="11.5753033"><ele>467.0</ele><time>2026-04-28T07:58:03.705Z</time></trkpt><trkpt lat="43.4580917" lon="11.5752083"><ele>464.66666666666663</ele><time>2026-04-28T07:58:04.704Z</time></trkpt><trkpt lat="43.4581217" lon="11.57512"><ele>462.3333333333333</ele><time>2026-04-28T07:58:05.704Z</time></trkpt><trkpt lat="43.458155" lon="11.57503"><ele>460.0</ele><time>2026-04-28T07:58:06.703Z</time></trkpt><trkpt lat="43.4581883" lon="11.5749533"><ele>457.66666666666663</ele><time>2026-04-28T07:58:07.702Z</time></trkpt><trkpt lat="43.4582533" lon="11.57481"><ele>455.3333333333333</ele><time>2026-04-28T07:58:09.704Z</time></trkpt><trkpt lat="43.4582967" lon="11.5747433"><ele>453.0</ele><time>2026-04-28T07:58:10.703Z</time></trkpt><trkpt lat="43.45843" lon="11.5747117"><ele>453.0</ele><time>2026-04-28T07:58:12.704Z</time></trkpt><trkpt lat="43.458515" lon="11.57475"><ele>452.99999999999994</ele><time>2026-04-28T07:58:13.706Z</time></trkpt><trkpt lat="43.4586067" lon="11.5747883"><ele>452.99999999999994</ele><time>2026-04-28T07:58:14.704Z</time></trkpt><trkpt lat="43.458715" lon="11.5748267"><ele>453.0</ele><time>2026-04-28T07:58:15.707Z</time></trkpt><trkpt lat="43.4588317" lon="11.5748517"><ele>453.0</ele><time>2026-04-28T07:58:16.705Z</time></trkpt><trkpt lat="43.4589433" lon="11.5748733"><ele>451.59999999999997</ele><time>2026-04-28T07:58:17.704Z</time></trkpt><trkpt lat="43.4590433" lon="11.57489"><ele>450.19999999999993</ele><time>2026-04-28T07:58:18.705Z</time></trkpt><trkpt lat="43.4591367" lon="11.5748967"><ele>448.8</ele><time>2026-04-28T07:58:19.705Z</time></trkpt><trkpt lat="43.4592333" lon="11.574905"><ele>447.4</ele><time>2026-04-28T07:58:20.703Z</time></trkpt><trkpt lat="43.459315" lon="11.574915"><ele>446.0</ele><time>2026-04-28T07:58:21.705Z</time></trkpt><trkpt lat="43.4594" lon="11.57492"><ele>446.0</ele><time>2026-04-28T07:58:22.704Z</time></trkpt><trkpt lat="43.459485" lon="11.57489"><ele>446.0</ele><time>2026-04-28T07:58:23.705Z</time></trkpt><trkpt lat="43.4595667" lon="11.57483"><ele>446.0</ele><time>2026-04-28T07:58:24.703Z</time></trkpt><trkpt lat="43.4596483" lon="11.5747567"><ele>446.0</ele><time>2026-04-28T07:58:25.705Z</time></trkpt><trkpt lat="43.4597333" lon="11.5746883"><ele>446.0</ele><time>2026-04-28T07:58:26.705Z</time></trkpt><trkpt lat="43.459815" lon="11.57463"><ele>444.0</ele><time>2026-04-28T07:58:27.705Z</time></trkpt><trkpt lat="43.459905" lon="11.5745833"><ele>442.0</ele><time>2026-04-28T07:58:28.704Z</time></trkpt><trkpt lat="43.4600167" lon="11.57455"><ele>440.0</ele><time>2026-04-28T07:58:29.704Z</time></trkpt><trkpt lat="43.46013" lon="11.5745333"><ele>438.0</ele><time>2026-04-28T07:58:30.704Z</time></trkpt><trkpt lat="43.4602383" lon="11.5745283"><ele>436.0</ele><time>2026-04-28T07:58:31.705Z</time></trkpt><trkpt lat="43.460345" lon="11.5745167"><ele>436.0</ele><time>2026-04-28T07:58:32.704Z</time></trkpt><trkpt lat="43.46045" lon="11.5745033"><ele>436.0</ele><time>2026-04-28T07:58:33.702Z</time></trkpt><trkpt lat="43.46055" lon="11.5744983"><ele>436.0</ele><time>2026-04-28T07:58:34.705Z</time></trkpt><trkpt lat="43.4606417" lon="11.5744883"><ele>436.0</ele><time>2026-04-28T07:58:35.704Z</time></trkpt><trkpt lat="43.4607233" lon="11.5744717"><ele>436.0</ele><time>2026-04-28T07:58:36.704Z</time></trkpt><trkpt lat="43.460805" lon="11.57446"><ele>436.00000000000006</ele><time>2026-04-28T07:58:37.705Z</time></trkpt><trkpt lat="43.4608833" lon="11.5744383"><ele>436.0</ele><time>2026-04-28T07:58:38.704Z</time></trkpt><trkpt lat="43.4609483" lon="11.5743883"><ele>436.0</ele><time>2026-04-28T07:58:39.704Z</time></trkpt><trkpt lat="43.461" lon="11.5743017"><ele>436.0</ele><time>2026-04-28T07:58:40.703Z</time></trkpt><trkpt lat="43.4610333" lon="11.5741983"><ele>436.00000000000006</ele><time>2026-04-28T07:58:41.704Z</time></trkpt><trkpt lat="43.4610667" lon="11.57411"><ele>436.0</ele><time>2026-04-28T07:58:42.705Z</time></trkpt><trkpt lat="43.4611117" lon="11.5740433"><ele>436.00000000000006</ele><time>2026-04-28T07:58:43.705Z</time></trkpt><trkpt lat="43.4612183" lon="11.5739617"><ele>436.0</ele><time>2026-04-28T07:58:45.705Z</time></trkpt><trkpt lat="43.4612833" lon="11.5739133"><ele>436.0</ele><time>2026-04-28T07:58:46.704Z</time></trkpt><trkpt lat="43.4613383" lon="11.573845"><ele>436.0</ele><time>2026-04-28T07:58:47.704Z</time></trkpt><trkpt lat="43.4613967" lon="11.573785"><ele>436.00000000000006</ele><time>2026-04-28T07:58:48.704Z</time></trkpt><trkpt lat="43.4614583" lon="11.57373"><ele>436.0</ele><time>2026-04-28T07:58:49.706Z</time></trkpt><trkpt lat="43.4615233" lon="11.5736767"><ele>437.50000000000006</ele><time>2026-04-28T07:58:50.705Z</time></trkpt><trkpt lat="43.461595" lon="11.5736317"><ele>439.0</ele><time>2026-04-28T07:58:51.706Z</time></trkpt><trkpt lat="43.4616683" lon="11.5735967"><ele>440.5</ele><time>2026-04-28T07:58:52.705Z</time></trkpt><trkpt lat="43.4617333" lon="11.573575"><ele>442.0</ele><time>2026-04-28T07:58:53.704Z</time></trkpt><trkpt lat="43.46181" lon="11.5735983"><ele>443.50000000000006</ele><time>2026-04-28T07:58:55.705Z</time></trkpt><trkpt lat="43.4618417" lon="11.5736917"><ele>445.0</ele><time>2026-04-28T07:58:56.704Z</time></trkpt><trkpt lat="43.461875" lon="11.57381"><ele>445.0</ele><time>2026-04-28T07:58:57.704Z</time></trkpt><trkpt lat="43.4619183" lon="11.57391"><ele>445.0</ele><time>2026-04-28T07:58:58.703Z</time></trkpt><trkpt lat="43.46197" lon="11.574"><ele>445.0</ele><time>2026-04-28T07:58:59.704Z</time></trkpt><trkpt lat="43.46203" lon="11.5740883"><ele>445.0</ele><time>2026-04-28T07:59:00.704Z</time></trkpt><trkpt lat="43.4621017" lon="11.5741783"><ele>445.0</ele><time>2026-04-28T07:59:01.704Z</time></trkpt><trkpt lat="43.4621717" lon="11.5742733"><ele>445.83333333333337</ele><time>2026-04-28T07:59:02.704Z</time></trkpt><trkpt lat="43.4622333" lon="11.5743667"><ele>446.6666666666667</ele><time>2026-04-28T07:59:03.705Z</time></trkpt><trkpt lat="43.4622867" lon="11.5744483"><ele>447.5</ele><time>2026-04-28T07:59:04.704Z</time></trkpt><trkpt lat="43.4623367" lon="11.5745133"><ele>448.33333333333337</ele><time>2026-04-28T07:59:05.703Z</time></trkpt><trkpt lat="43.46239" lon="11.57456"><ele>449.1666666666667</ele><time>2026-04-28T07:59:06.703Z</time></trkpt><trkpt lat="43.4625283" lon="11.5745617"><ele>450.0</ele><time>2026-04-28T07:59:08.704Z</time></trkpt><trkpt lat="43.46261" lon="11.5745417"><ele>450.0</ele><time>2026-04-28T07:59:09.707Z</time></trkpt><trkpt lat="43.4626867" lon="11.5745117"><ele>450.0</ele><time>2026-04-28T07:59:10.706Z</time></trkpt><trkpt lat="43.46275" lon="11.5744583"><ele>450.0</ele><time>2026-04-28T07:59:11.702Z</time></trkpt><trkpt lat="43.4628183" lon="11.5743833"><ele>450.0</ele><time>2026-04-28T07:59:12.702Z</time></trkpt><trkpt lat="43.4628933" lon="11.5743033"><ele>450.0</ele><time>2026-04-28T07:59:13.703Z</time></trkpt><trkpt lat="43.4629617" lon="11.5742267"><ele>450.0</ele><time>2026-04-28T07:59:14.705Z</time></trkpt><trkpt lat="43.4630333" lon="11.5741567"><ele>448.5</ele><time>2026-04-28T07:59:15.705Z</time></trkpt><trkpt lat="43.4631067" lon="11.5740933"><ele>447.0</ele><time>2026-04-28T07:59:16.705Z</time></trkpt><trkpt lat="43.46316" lon="11.57404"><ele>445.5</ele><time>2026-04-28T07:59:17.704Z</time></trkpt><trkpt lat="43.4632167" lon="11.57399"><ele>444.0</ele><time>2026-04-28T07:59:18.705Z</time></trkpt><trkpt lat="43.4632733" lon="11.573945"><ele>442.5</ele><time>2026-04-28T07:59:19.704Z</time></trkpt><trkpt lat="43.4634083" lon="11.5739067"><ele>441.0</ele><time>2026-04-28T07:59:21.705Z</time></trkpt><trkpt lat="43.4634917" lon="11.5739233"><ele>441.0</ele><time>2026-04-28T07:59:22.704Z</time></trkpt><trkpt lat="43.46356" lon="11.5739467"><ele>441.0</ele><time>2026-04-28T07:59:23.704Z</time></trkpt><trkpt lat="43.4636233" lon="11.5739683"><ele>441.0</ele><time>2026-04-28T07:59:24.705Z</time></trkpt><trkpt lat="43.4637367" lon="11.5740317"><ele>441.0</ele><time>2026-04-28T07:59:26.705Z</time></trkpt><trkpt lat="43.4638467" lon="11.57413"><ele>441.0</ele><time>2026-04-28T07:59:28.704Z</time></trkpt><trkpt lat="43.4639033" lon="11.57418"><ele>439.4</ele><time>2026-04-28T07:59:29.704Z</time></trkpt><trkpt lat="43.4640117" lon="11.5742583"><ele>437.8</ele><time>2026-04-28T07:59:31.705Z</time></trkpt><trkpt lat="43.4641367" lon="11.5743017"><ele>436.19999999999993</ele><time>2026-04-28T07:59:33.699Z</time></trkpt><trkpt lat="43.4641983" lon="11.5743217"><ele>434.59999999999997</ele><time>2026-04-28T07:59:34.7Z</time></trkpt><trkpt lat="43.4643017" lon="11.5743867"><ele>433.0</ele><time>2026-04-28T07:59:36.704Z</time></trkpt><trkpt lat="43.4643633" lon="11.5744433"><ele>432.99999999999994</ele><time>2026-04-28T07:59:37.704Z</time></trkpt><trkpt lat="43.4644333" lon="11.574495"><ele>433.0</ele><time>2026-04-28T07:59:38.703Z</time></trkpt><trkpt lat="43.4644967" lon="11.5745433"><ele>433.0</ele><time>2026-04-28T07:59:39.705Z</time></trkpt><trkpt lat="43.4645583" lon="11.574585"><ele>433.0</ele><time>2026-04-28T07:59:40.703Z</time></trkpt><trkpt lat="43.46462" lon="11.57463"><ele>433.0</ele><time>2026-04-28T07:59:41.704Z</time></trkpt><trkpt lat="43.4646817" lon="11.57467"><ele>432.99999999999994</ele><time>2026-04-28T07:59:42.704Z</time></trkpt><trkpt lat="43.4647483" lon="11.5747133"><ele>433.0</ele><time>2026-04-28T07:59:43.705Z</time></trkpt><trkpt lat="43.4648083" lon="11.5747567"><ele>430.33333333333337</ele><time>2026-04-28T07:59:44.703Z</time></trkpt><trkpt lat="43.46491" lon="11.5748283"><ele>427.6666666666667</ele><time>2026-04-28T07:59:46.703Z</time></trkpt><trkpt lat="43.4650017" lon="11.57491"><ele>425.0</ele><time>2026-04-28T07:59:48.699Z</time></trkpt><trkpt lat="43.4650533" lon="11.5749617"><ele>422.33333333333337</ele><time>2026-04-28T07:59:49.704Z</time></trkpt><trkpt lat="43.4651067" lon="11.5750133"><ele>419.6666666666667</ele><time>2026-04-28T07:59:50.705Z</time></trkpt><trkpt lat="43.4651583" lon="11.57507"><ele>417.0</ele><time>2026-04-28T07:59:51.704Z</time></trkpt><trkpt lat="43.4652117" lon="11.5751217"><ele>417.0</ele><time>2026-04-28T07:59:52.705Z</time></trkpt><trkpt lat="43.4653017" lon="11.5751783"><ele>417.0</ele><time>2026-04-28T07:59:54.704Z</time></trkpt><trkpt lat="43.4653683" lon="11.5751783"><ele>417.0</ele><time>2026-04-28T07:59:57.705Z</time></trkpt><trkpt lat="43.4652717" lon="11.5751617"><ele>417.0</ele><time>2026-04-28T08:01:00.705Z</time></trkpt><trkpt lat="43.4652183" lon="11.5751117"><ele>417.0</ele><time>2026-04-28T08:01:01.705Z</time></trkpt><trkpt lat="43.4651267" lon="11.5750133"><ele>417.0</ele><time>2026-04-28T08:01:03.706Z</time></trkpt><trkpt lat="43.4650417" lon="11.5749117"><ele>417.0</ele><time>2026-04-28T08:01:05.704Z</time></trkpt><trkpt lat="43.4649533" lon="11.5748067"><ele>417.0</ele><time>2026-04-28T08:01:07.705Z</time></trkpt><trkpt lat="43.46484" lon="11.57472"><ele>417.0</ele><time>2026-04-28T08:01:09.707Z</time></trkpt><trkpt lat="43.4647733" lon="11.5746833"><ele>417.0</ele><time>2026-04-28T08:01:10.702Z</time></trkpt><trkpt lat="43.4646983" lon="11.57464"><ele>417.0</ele><time>2026-04-28T08:01:11.704Z</time></trkpt><trkpt lat="43.464615" lon="11.5746"><ele>417.6666666666667</ele><time>2026-04-28T08:01:12.704Z</time></trkpt><trkpt lat="43.4645433" lon="11.5745517"><ele>418.33333333333337</ele><time>2026-04-28T08:01:13.704Z</time></trkpt><trkpt lat="43.46447" lon="11.5745033"><ele>419.0</ele><time>2026-04-28T08:01:14.706Z</time></trkpt><trkpt lat="43.4643867" lon="11.5744483"><ele>419.6666666666667</ele><time>2026-04-28T08:01:15.706Z</time></trkpt><trkpt lat="43.464305" lon="11.5743933"><ele>420.33333333333337</ele><time>2026-04-28T08:01:16.704Z</time></trkpt><trkpt lat="43.46423" lon="11.5743533"><ele>421.0</ele><time>2026-04-28T08:01:17.706Z</time></trkpt><trkpt lat="43.46416" lon="11.574315"><ele>423.00000000000006</ele><time>2026-04-28T08:01:18.705Z</time></trkpt><trkpt lat="43.4640933" lon="11.5742867"><ele>425.0</ele><time>2026-04-28T08:01:19.706Z</time></trkpt><trkpt lat="43.4640233" lon="11.574265"><ele>427.0</ele><time>2026-04-28T08:01:20.706Z</time></trkpt><trkpt lat="43.4639517" lon="11.5742267"><ele>429.0</ele><time>2026-04-28T08:01:21.707Z</time></trkpt><trkpt lat="43.4638833" lon="11.5741667"><ele>431.00000000000006</ele><time>2026-04-28T08:01:22.706Z</time></trkpt><trkpt lat="43.4638167" lon="11.574095"><ele>433.0</ele><time>2026-04-28T08:01:23.706Z</time></trkpt><trkpt lat="43.4637467" lon="11.5740317"><ele>434.59999999999997</ele><time>2026-04-28T08:01:24.706Z</time></trkpt><trkpt lat="43.4636733" lon="11.5739883"><ele>436.19999999999993</ele><time>2026-04-28T08:01:25.705Z</time></trkpt><trkpt lat="43.463585" lon="11.5739567"><ele>437.8</ele><time>2026-04-28T08:01:26.705Z</time></trkpt><trkpt lat="43.463485" lon="11.57393"><ele>439.4</ele><time>2026-04-28T08:01:27.706Z</time></trkpt><trkpt lat="43.4633867" lon="11.5739167"><ele>441.0</ele><time>2026-04-28T08:01:28.705Z</time></trkpt><trkpt lat="43.4632967" lon="11.5739333"><ele>441.0</ele><time>2026-04-28T08:01:29.705Z</time></trkpt><trkpt lat="43.4632167" lon="11.573975"><ele>441.0</ele><time>2026-04-28T08:01:30.704Z</time></trkpt><trkpt lat="43.463145" lon="11.5740433"><ele>441.0</ele><time>2026-04-28T08:01:31.704Z</time></trkpt><trkpt lat="43.463065" lon="11.5741167"><ele>441.0</ele><time>2026-04-28T08:01:32.705Z</time></trkpt><trkpt lat="43.4629767" lon="11.574195"><ele>441.0</ele><time>2026-04-28T08:01:33.705Z</time></trkpt><trkpt lat="43.4628883" lon="11.5742817"><ele>440.3333333333333</ele><time>2026-04-28T08:01:34.703Z</time></trkpt><trkpt lat="43.46281" lon="11.5743633"><ele>439.66666666666663</ele><time>2026-04-28T08:01:35.705Z</time></trkpt><trkpt lat="43.4627383" lon="11.57444"><ele>439.0</ele><time>2026-04-28T08:01:36.705Z</time></trkpt><trkpt lat="43.4626717" lon="11.5745033"><ele>438.3333333333333</ele><time>2026-04-28T08:01:37.703Z</time></trkpt><trkpt lat="43.4625983" lon="11.57454"><ele>437.66666666666663</ele><time>2026-04-28T08:01:38.704Z</time></trkpt><trkpt lat="43.4625183" lon="11.57456"><ele>437.0</ele><time>2026-04-28T08:01:39.706Z</time></trkpt><trkpt lat="43.4624367" lon="11.5745667"><ele>436.99999999999994</ele><time>2026-04-28T08:01:40.712Z</time></trkpt><trkpt lat="43.4623633" lon="11.5745567"><ele>437.0</ele><time>2026-04-28T08:01:41.706Z</time></trkpt><trkpt lat="43.4622983" lon="11.5745233"><ele>437.0</ele><time>2026-04-28T08:01:42.705Z</time></trkpt><trkpt lat="43.46225" lon="11.5744583"><ele>437.0</ele><time>2026-04-28T08:01:43.706Z</time></trkpt><trkpt lat="43.4621983" lon="11.574375"><ele>436.99999999999994</ele><time>2026-04-28T08:01:44.705Z</time></trkpt><trkpt lat="43.4621283" lon="11.5742817"><ele>437.0</ele><time>2026-04-28T08:01:45.705Z</time></trkpt><trkpt lat="43.4620533" lon="11.5741883"><ele>438.3333333333333</ele><time>2026-04-28T08:01:46.704Z</time></trkpt><trkpt lat="43.4619817" lon="11.5741033"><ele>439.66666666666663</ele><time>2026-04-28T08:01:47.703Z</time></trkpt><trkpt lat="43.4619167" lon="11.5740233"><ele>441.0</ele><time>2026-04-28T08:01:48.705Z</time></trkpt><trkpt lat="43.4618633" lon="11.5739167"><ele>442.33333333333337</ele><time>2026-04-28T08:01:49.704Z</time></trkpt><trkpt lat="43.4618217" lon="11.5738083"><ele>443.6666666666667</ele><time>2026-04-28T08:01:50.705Z</time></trkpt><trkpt lat="43.4617933" lon="11.5737217"><ele>445.0</ele><time>2026-04-28T08:01:51.706Z</time></trkpt><trkpt lat="43.4617667" lon="11.57362"><ele>445.0</ele><time>2026-04-28T08:01:53.704Z</time></trkpt><trkpt lat="43.4616933" lon="11.573615"><ele>445.0</ele><time>2026-04-28T08:02:02.706Z</time></trkpt><trkpt lat="43.4615917" lon="11.5736733"><ele>445.0</ele><time>2026-04-28T08:02:04.706Z</time></trkpt><trkpt lat="43.461485" lon="11.573755"><ele>445.0</ele><time>2026-04-28T08:02:06.705Z</time></trkpt><trkpt lat="43.46139" lon="11.5738367"><ele>445.0</ele><time>2026-04-28T08:02:08.7Z</time></trkpt><trkpt lat="43.4612983" lon="11.5739233"><ele>443.2</ele><time>2026-04-28T08:02:10.706Z</time></trkpt><trkpt lat="43.46121" lon="11.5740283"><ele>441.4</ele><time>2026-04-28T08:02:12.707Z</time></trkpt><trkpt lat="43.4611067" lon="11.5740967"><ele>439.6</ele><time>2026-04-28T08:02:14.705Z</time></trkpt><trkpt lat="43.4610083" lon="11.5741883"><ele>437.8</ele><time>2026-04-28T08:02:16.704Z</time></trkpt><trkpt lat="43.4609683" lon="11.5742583"><ele>436.0</ele><time>2026-04-28T08:02:17.704Z</time></trkpt><trkpt lat="43.4608933" lon="11.57441"><ele>436.00000000000006</ele><time>2026-04-28T08:02:19.704Z</time></trkpt><trkpt lat="43.4608333" lon="11.5744717"><ele>436.0</ele><time>2026-04-28T08:02:20.704Z</time></trkpt><trkpt lat="43.4607717" lon="11.5745033"><ele>436.0</ele><time>2026-04-28T08:02:21.706Z</time></trkpt><trkpt lat="43.4606617" lon="11.5745317"><ele>436.0</ele><time>2026-04-28T08:02:23.704Z</time></trkpt><trkpt lat="43.4605833" lon="11.5745333"><ele>436.00000000000006</ele><time>2026-04-28T08:02:24.705Z</time></trkpt><trkpt lat="43.4604783" lon="11.5745333"><ele>436.0</ele><time>2026-04-28T08:02:25.706Z</time></trkpt><trkpt lat="43.4603617" lon="11.574535"><ele>436.0</ele><time>2026-04-28T08:02:26.705Z</time></trkpt><trkpt lat="43.4602433" lon="11.5745383"><ele>436.0</ele><time>2026-04-28T08:02:27.706Z</time></trkpt><trkpt lat="43.4601317" lon="11.5745517"><ele>436.0</ele><time>2026-04-28T08:02:28.705Z</time></trkpt><trkpt lat="43.4600283" lon="11.57457"><ele>436.0</ele><time>2026-04-28T08:02:29.705Z</time></trkpt><trkpt lat="43.459925" lon="11.5745933"><ele>436.0</ele><time>2026-04-28T08:02:30.705Z</time></trkpt><trkpt lat="43.4598217" lon="11.5746383"><ele>436.0</ele><time>2026-04-28T08:02:31.705Z</time></trkpt><trkpt lat="43.45972" lon="11.5746967"><ele>436.0</ele><time>2026-04-28T08:02:32.706Z</time></trkpt><trkpt lat="43.4596317" lon="11.5747567"><ele>436.0</ele><time>2026-04-28T08:02:33.706Z</time></trkpt><trkpt lat="43.4595517" lon="11.5748217"><ele>436.0</ele><time>2026-04-28T08:02:34.704Z</time></trkpt><trkpt lat="43.45947" lon="11.5748917"><ele>436.0</ele><time>2026-04-28T08:02:35.704Z</time></trkpt><trkpt lat="43.4593883" lon="11.5749383"><ele>438.0</ele><time>2026-04-28T08:02:36.704Z</time></trkpt><trkpt lat="43.459295" lon="11.574965"><ele>440.0</ele><time>2026-04-28T08:02:37.704Z</time></trkpt><trkpt lat="43.45919" lon="11.5749617"><ele>442.0</ele><time>2026-04-28T08:02:38.705Z</time></trkpt><trkpt lat="43.45909" lon="11.5749483"><ele>444.0</ele><time>2026-04-28T08:02:39.706Z</time></trkpt><trkpt lat="43.458985" lon="11.5749267"><ele>446.0</ele><time>2026-04-28T08:02:40.704Z</time></trkpt><trkpt lat="43.458875" lon="11.5749017"><ele>447.4</ele><time>2026-04-28T08:02:41.705Z</time></trkpt><trkpt lat="43.45876" lon="11.5748767"><ele>448.8</ele><time>2026-04-28T08:02:42.704Z</time></trkpt><trkpt lat="43.458655" lon="11.5748517"><ele>450.19999999999993</ele><time>2026-04-28T08:02:43.706Z</time></trkpt><trkpt lat="43.4585667" lon="11.5748233"><ele>451.59999999999997</ele><time>2026-04-28T08:02:44.706Z</time></trkpt><trkpt lat="43.45849" lon="11.57478"><ele>453.0</ele><time>2026-04-28T08:02:45.706Z</time></trkpt><trkpt lat="43.4584217" lon="11.5747467"><ele>453.0</ele><time>2026-04-28T08:02:46.704Z</time></trkpt><trkpt lat="43.4583583" lon="11.57473"><ele>453.0</ele><time>2026-04-28T08:02:47.704Z</time></trkpt><trkpt lat="43.4582917" lon="11.5747383"><ele>453.0</ele><time>2026-04-28T08:02:48.705Z</time></trkpt><trkpt lat="43.45823" lon="11.574795"><ele>453.0</ele><time>2026-04-28T08:02:49.705Z</time></trkpt><trkpt lat="43.4581817" lon="11.57488"><ele>453.0</ele><time>2026-04-28T08:02:50.704Z</time></trkpt><trkpt lat="43.4581433" lon="11.5749933"><ele>453.0</ele><time>2026-04-28T08:02:51.706Z</time></trkpt><trkpt lat="43.458115" lon="11.5751033"><ele>453.0</ele><time>2026-04-28T08:02:52.706Z</time></trkpt><trkpt lat="43.4580917" lon="11.5752017"><ele>453.0</ele><time>2026-04-28T08:02:53.704Z</time></trkpt><trkpt lat="43.4580583" lon="11.5752967"><ele>453.0</ele><time>2026-04-28T08:02:54.705Z</time></trkpt><trkpt lat="43.458015" lon="11.5753983"><ele>453.0</ele><time>2026-04-28T08:02:55.704Z</time></trkpt><trkpt lat="43.4579783" lon="11.5755067"><ele>453.0</ele><time>2026-04-28T08:02:56.705Z</time></trkpt><trkpt lat="43.4579317" lon="11.5756083"><ele>453.0</ele><time>2026-04-28T08:02:57.706Z</time></trkpt><trkpt lat="43.45788" lon="11.5757"><ele>455.79999999999995</ele><time>2026-04-28T08:02:58.706Z</time></trkpt><trkpt lat="43.4578217" lon="11.5757617"><ele>458.59999999999997</ele><time>2026-04-28T08:02:59.704Z</time></trkpt><trkpt lat="43.457725" lon="11.57582"><ele>461.40000000000003</ele><time>2026-04-28T08:03:01.706Z</time></trkpt><trkpt lat="43.4576017" lon="11.5757617"><ele>464.20000000000005</ele><time>2026-04-28T08:03:03.705Z</time></trkpt><trkpt lat="43.457535" lon="11.5757483"><ele>467.0</ele><time>2026-04-28T08:03:04.705Z</time></trkpt><trkpt lat="43.4574567" lon="11.575755"><ele>466.99999999999994</ele><time>2026-04-28T08:03:05.704Z</time></trkpt><trkpt lat="43.4573733" lon="11.5757867"><ele>467.0</ele><time>2026-04-28T08:03:06.706Z</time></trkpt><trkpt lat="43.4572933" lon="11.575825"><ele>467.0</ele><time>2026-04-28T08:03:07.705Z</time></trkpt><trkpt lat="43.45721" lon="11.5758583"><ele>467.0</ele><time>2026-04-28T08:03:08.704Z</time></trkpt><trkpt lat="43.45713" lon="11.57588"><ele>466.99999999999994</ele><time>2026-04-28T08:03:09.706Z</time></trkpt><trkpt lat="43.457045" lon="11.57589"><ele>467.0</ele><time>2026-04-28T08:03:10.705Z</time></trkpt><trkpt lat="43.4569633" lon="11.5759117"><ele>466.3333333333333</ele><time>2026-04-28T08:03:11.706Z</time></trkpt><trkpt lat="43.4568917" lon="11.5759467"><ele>465.66666666666663</ele><time>2026-04-28T08:03:12.705Z</time></trkpt><trkpt lat="43.456835" lon="11.576005"><ele>465.0</ele><time>2026-04-28T08:03:13.705Z</time></trkpt><trkpt lat="43.456785" lon="11.5760933"><ele>464.33333333333337</ele><time>2026-04-28T08:03:14.705Z</time></trkpt><trkpt lat="43.4567267" lon="11.576185"><ele>463.6666666666667</ele><time>2026-04-28T08:03:15.706Z</time></trkpt><trkpt lat="43.4566683" lon="11.5762767"><ele>463.0</ele><time>2026-04-28T08:03:16.706Z</time></trkpt><trkpt lat="43.45662" lon="11.576375"><ele>463.0</ele><time>2026-04-28T08:03:17.705Z</time></trkpt><trkpt lat="43.4565733" lon="11.57647"><ele>462.99999999999994</ele><time>2026-04-28T08:03:18.706Z</time></trkpt><trkpt lat="43.4565267" lon="11.576565"><ele>462.99999999999994</ele><time>2026-04-28T08:03:19.703Z</time></trkpt><trkpt lat="43.45649" lon="11.5766683"><ele>463.0</ele><time>2026-04-28T08:03:20.705Z</time></trkpt><trkpt lat="43.4564433" lon="11.576785"><ele>463.0</ele><time>2026-04-28T08:03:21.706Z</time></trkpt><trkpt lat="43.4563917" lon="11.576915"><ele>462.83333333333337</ele><time>2026-04-28T08:03:22.706Z</time></trkpt><trkpt lat="43.4563317" lon="11.57704"><ele>462.6666666666667</ele><time>2026-04-28T08:03:23.705Z</time></trkpt><trkpt lat="43.4562783" lon="11.57715"><ele>462.5</ele><time>2026-04-28T08:03:24.706Z</time></trkpt><trkpt lat="43.4562283" lon="11.5772417"><ele>462.33333333333337</ele><time>2026-04-28T08:03:25.706Z</time></trkpt><trkpt lat="43.4561817" lon="11.5773167"><ele>462.1666666666667</ele><time>2026-04-28T08:03:26.705Z</time></trkpt><trkpt lat="43.4561333" lon="11.5773783"><ele>462.0</ele><time>2026-04-28T08:03:27.706Z</time></trkpt><trkpt lat="43.456015" lon="11.577445"><ele>462.0</ele><time>2026-04-28T08:03:29.706Z</time></trkpt><trkpt lat="43.45594" lon="11.5774667"><ele>462.0</ele><time>2026-04-28T08:03:30.707Z</time></trkpt><trkpt lat="43.4558633" lon="11.577485"><ele>462.0</ele><time>2026-04-28T08:03:31.704Z</time></trkpt><trkpt lat="43.4557917" lon="11.5775233"><ele>462.0</ele><time>2026-04-28T08:03:32.705Z</time></trkpt><trkpt lat="43.455715" lon="11.5775733"><ele>462.0</ele><time>2026-04-28T08:03:33.706Z</time></trkpt><trkpt lat="43.4556383" lon="11.5776167"><ele>462.0</ele><time>2026-04-28T08:03:34.705Z</time></trkpt><trkpt lat="43.4555633" lon="11.577635"><ele>462.20000000000005</ele><time>2026-04-28T08:03:35.702Z</time></trkpt><trkpt lat="43.4554467" lon="11.5776183"><ele>462.40000000000003</ele><time>2026-04-28T08:03:37.704Z</time></trkpt><trkpt lat="43.4553433" lon="11.5776433"><ele>462.59999999999997</ele><time>2026-04-28T08:03:39.704Z</time></trkpt><trkpt lat="43.455255" lon="11.5777467"><ele>462.79999999999995</ele><time>2026-04-28T08:03:41.704Z</time></trkpt><trkpt lat="43.4552017" lon="11.5778117"><ele>463.0</ele><time>2026-04-28T08:03:42.704Z</time></trkpt><trkpt lat="43.455145" lon="11.5778733"><ele>463.0</ele><time>2026-04-28T08:03:43.705Z</time></trkpt><trkpt lat="43.45509" lon="11.5779317"><ele>462.99999999999994</ele><time>2026-04-28T08:03:44.705Z</time></trkpt><trkpt lat="43.4550383" lon="11.5779933"><ele>462.99999999999994</ele><time>2026-04-28T08:03:45.707Z</time></trkpt><trkpt lat="43.4549933" lon="11.5780583"><ele>463.0</ele><time>2026-04-28T08:03:46.705Z</time></trkpt><trkpt lat="43.4549117" lon="11.5781817"><ele>463.0</ele><time>2026-04-28T08:03:48.705Z</time></trkpt><trkpt lat="43.45483" lon="11.5783133"><ele>463.0</ele><time>2026-04-28T08:03:50.705Z</time></trkpt><trkpt lat="43.4547317" lon="11.5784017"><ele>462.99999999999994</ele><time>2026-04-28T08:03:52.706Z</time></trkpt><trkpt lat="43.454665" lon="11.5784167"><ele>462.99999999999994</ele><time>2026-04-28T08:03:53.707Z</time></trkpt><trkpt lat="43.4545533" lon="11.5784217"><ele>463.0</ele><time>2026-04-28T08:03:55.706Z</time></trkpt><trkpt lat="43.45444" lon="11.5784867"><ele>463.0</ele><time>2026-04-28T08:03:57.706Z</time></trkpt><trkpt lat="43.4543767" lon="11.578525"><ele>462.0</ele><time>2026-04-28T08:03:58.705Z</time></trkpt><trkpt lat="43.4543183" lon="11.57858"><ele>460.99999999999994</ele><time>2026-04-28T08:03:59.705Z</time></trkpt><trkpt lat="43.45425" lon="11.57864"><ele>459.99999999999994</ele><time>2026-04-28T08:04:00.705Z</time></trkpt><trkpt lat="43.45416" lon="11.5787033"><ele>459.0</ele><time>2026-04-28T08:04:01.707Z</time></trkpt><trkpt lat="43.4540583" lon="11.5787833"><ele>458.0</ele><time>2026-04-28T08:04:02.705Z</time></trkpt><trkpt lat="43.45395" lon="11.57887"><ele>457.59999999999997</ele><time>2026-04-28T08:04:03.707Z</time></trkpt><trkpt lat="43.4538517" lon="11.5789633"><ele>457.19999999999993</ele><time>2026-04-28T08:04:04.705Z</time></trkpt><trkpt lat="43.4537617" lon="11.5790517"><ele>456.8</ele><time>2026-04-28T08:04:05.705Z</time></trkpt><trkpt lat="43.4536733" lon="11.5791333"><ele>456.4</ele><time>2026-04-28T08:04:06.706Z</time></trkpt><trkpt lat="43.4535867" lon="11.5791983"><ele>456.0</ele><time>2026-04-28T08:04:07.705Z</time></trkpt><trkpt lat="43.4534967" lon="11.5792583"><ele>456.0</ele><time>2026-04-28T08:04:08.705Z</time></trkpt><trkpt lat="43.4534017" lon="11.57931"><ele>456.0</ele><time>2026-04-28T08:04:09.706Z</time></trkpt><trkpt lat="43.4533" lon="11.5793633"><ele>456.0</ele><time>2026-04-28T08:04:10.704Z</time></trkpt><trkpt lat="43.4531967" lon="11.5794217"><ele>456.0</ele><time>2026-04-28T08:04:11.706Z</time></trkpt><trkpt lat="43.4530983" lon="11.5794767"><ele>456.0</ele><time>2026-04-28T08:04:12.705Z</time></trkpt><trkpt lat="43.4530067" lon="11.57953"><ele>454.6</ele><time>2026-04-28T08:04:13.705Z</time></trkpt><trkpt lat="43.452915" lon="11.5795817"><ele>453.20000000000005</ele><time>2026-04-28T08:04:14.705Z</time></trkpt><trkpt lat="43.452825" lon="11.579635"><ele>451.79999999999995</ele><time>2026-04-28T08:04:15.705Z</time></trkpt><trkpt lat="43.4527383" lon="11.579685"><ele>450.4</ele><time>2026-04-28T08:04:16.706Z</time></trkpt><trkpt lat="43.4526567" lon="11.5797383"><ele>449.0</ele><time>2026-04-28T08:04:17.703Z</time></trkpt><trkpt lat="43.45258" lon="11.5797833"><ele>449.0</ele><time>2026-04-28T08:04:18.705Z</time></trkpt><trkpt lat="43.4525083" lon="11.5798283"><ele>448.99999999999994</ele><time>2026-04-28T08:04:19.706Z</time></trkpt><trkpt lat="43.4524417" lon="11.5798733"><ele>449.0</ele><time>2026-04-28T08:04:20.705Z</time></trkpt><trkpt lat="43.452375" lon="11.5799083"><ele>449.0</ele><time>2026-04-28T08:04:21.705Z</time></trkpt><trkpt lat="43.4523117" lon="11.5799417"><ele>448.99999999999994</ele><time>2026-04-28T08:04:22.706Z</time></trkpt><trkpt lat="43.4522483" lon="11.5799767"><ele>449.0</ele><time>2026-04-28T08:04:23.705Z</time></trkpt><trkpt lat="43.45218" lon="11.580015"><ele>449.0</ele><time>2026-04-28T08:04:24.704Z</time></trkpt><trkpt lat="43.452115" lon="11.5800517"><ele>448.99999999999994</ele><time>2026-04-28T08:04:25.705Z</time></trkpt><trkpt lat="43.4520333" lon="11.580125"><ele>449.0</ele><time>2026-04-28T08:04:27.707Z</time></trkpt><trkpt lat="43.4520233" lon="11.5802417"><ele>449.0</ele><time>2026-04-28T08:04:29.705Z</time></trkpt><trkpt lat="43.4520683" lon="11.5803667"><ele>449.0</ele><time>2026-04-28T08:04:31.708Z</time></trkpt><trkpt lat="43.4521117" lon="11.5804567"><ele>448.99999999999994</ele><time>2026-04-28T08:04:33.707Z</time></trkpt><trkpt lat="43.4521233" lon="11.5805617"><ele>449.0</ele><time>2026-04-28T08:04:37.705Z</time></trkpt><trkpt lat="43.4520383" lon="11.5805817"><ele>448.6</ele><time>2026-04-28T08:04:40.705Z</time></trkpt><trkpt lat="43.4519333" lon="11.580575"><ele>448.2</ele><time>2026-04-28T08:04:42.705Z</time></trkpt><trkpt lat="43.451805" lon="11.5806067"><ele>447.80000000000007</ele><time>2026-04-28T08:04:44.705Z</time></trkpt><trkpt lat="43.45173" lon="11.5806367"><ele>447.40000000000003</ele><time>2026-04-28T08:04:45.707Z</time></trkpt><trkpt lat="43.4516567" lon="11.5806733"><ele>447.0</ele><time>2026-04-28T08:04:46.704Z</time></trkpt><trkpt lat="43.451595" lon="11.58072"><ele>447.0</ele><time>2026-04-28T08:04:47.705Z</time></trkpt><trkpt lat="43.4515067" lon="11.580795"><ele>447.00000000000006</ele><time>2026-04-28T08:04:49.706Z</time></trkpt><trkpt lat="43.4514017" lon="11.5809"><ele>447.00000000000006</ele><time>2026-04-28T08:04:51.706Z</time></trkpt><trkpt lat="43.45133" lon="11.5809517"><ele>447.0</ele><time>2026-04-28T08:04:52.706Z</time></trkpt><trkpt lat="43.4512633" lon="11.58102"><ele>447.0</ele><time>2026-04-28T08:04:53.706Z</time></trkpt><trkpt lat="43.4512067" lon="11.5811"><ele>449.5</ele><time>2026-04-28T08:04:54.706Z</time></trkpt><trkpt lat="43.451165" lon="11.5811917"><ele>452.0</ele><time>2026-04-28T08:04:55.706Z</time></trkpt><trkpt lat="43.45114" lon="11.5812967"><ele>454.5</ele><time>2026-04-28T08:04:56.706Z</time></trkpt><trkpt lat="43.4511317" lon="11.5814117"><ele>457.0</ele><time>2026-04-28T08:04:57.707Z</time></trkpt><trkpt lat="43.4511433" lon="11.5815217"><ele>459.5</ele><time>2026-04-28T08:04:58.706Z</time></trkpt><trkpt lat="43.4511667" lon="11.5816283"><ele>462.0</ele><time>2026-04-28T08:04:59.705Z</time></trkpt><trkpt lat="43.4511917" lon="11.5817433"><ele>462.0</ele><time>2026-04-28T08:05:00.705Z</time></trkpt><trkpt lat="43.4512017" lon="11.5818483"><ele>462.0</ele><time>2026-04-28T08:05:01.705Z</time></trkpt><trkpt lat="43.4511967" lon="11.58194"><ele>462.0</ele><time>2026-04-28T08:05:02.705Z</time></trkpt><trkpt lat="43.451115" lon="11.582025"><ele>462.0</ele><time>2026-04-28T08:05:04.706Z</time></trkpt><trkpt lat="43.4510483" lon="11.5819833"><ele>462.0</ele><time>2026-04-28T08:05:05.708Z</time></trkpt><trkpt lat="43.450985" lon="11.58192"><ele>462.0</ele><time>2026-04-28T08:05:06.708Z</time></trkpt><trkpt lat="43.4509183" lon="11.5818367"><ele>462.0</ele><time>2026-04-28T08:05:07.703Z</time></trkpt><trkpt lat="43.4508433" lon="11.5817883"><ele>462.00000000000006</ele><time>2026-04-28T08:05:08.705Z</time></trkpt><trkpt lat="43.4507583" lon="11.5817617"><ele>462.00000000000006</ele><time>2026-04-28T08:05:09.707Z</time></trkpt><trkpt lat="43.45066" lon="11.5817633"><ele>462.0</ele><time>2026-04-28T08:05:10.705Z</time></trkpt><trkpt lat="43.4505483" lon="11.581785"><ele>462.0</ele><time>2026-04-28T08:05:11.706Z</time></trkpt><trkpt lat="43.4504283" lon="11.5818083"><ele>462.8</ele><time>2026-04-28T08:05:12.705Z</time></trkpt><trkpt lat="43.4503117" lon="11.58183"><ele>463.6</ele><time>2026-04-28T08:05:13.706Z</time></trkpt><trkpt lat="43.450195" lon="11.5818433"><ele>464.40000000000003</ele><time>2026-04-28T08:05:14.705Z</time></trkpt><trkpt lat="43.4500917" lon="11.5818517"><ele>465.20000000000005</ele><time>2026-04-28T08:05:15.706Z</time></trkpt><trkpt lat="43.4500017" lon="11.5818633"><ele>466.0</ele><time>2026-04-28T08:05:16.703Z</time></trkpt><trkpt lat="43.449915" lon="11.5818917"><ele>466.0</ele><time>2026-04-28T08:05:17.705Z</time></trkpt><trkpt lat="43.4498183" lon="11.5819483"><ele>466.0</ele><time>2026-04-28T08:05:18.706Z</time></trkpt><trkpt lat="43.4497133" lon="11.582015"><ele>466.0</ele><time>2026-04-28T08:05:19.706Z</time></trkpt><trkpt lat="43.449595" lon="11.58209"><ele>466.0</ele><time>2026-04-28T08:05:20.704Z</time></trkpt><trkpt lat="43.4494867" lon="11.58216"><ele>466.20000000000005</ele><time>2026-04-28T08:05:21.705Z</time></trkpt><trkpt lat="43.4493983" lon="11.5822283"><ele>466.40000000000003</ele><time>2026-04-28T08:05:22.705Z</time></trkpt><trkpt lat="43.4493233" lon="11.5823133"><ele>466.6</ele><time>2026-04-28T08:05:23.705Z</time></trkpt><trkpt lat="43.44926" lon="11.582425"><ele>466.8</ele><time>2026-04-28T08:05:24.706Z</time></trkpt><trkpt lat="43.4492117" lon="11.5825583"><ele>467.0</ele><time>2026-04-28T08:05:25.704Z</time></trkpt><trkpt lat="43.4491833" lon="11.58269"><ele>466.99999999999994</ele><time>2026-04-28T08:05:26.705Z</time></trkpt><trkpt lat="43.4491583" lon="11.5828033"><ele>467.0</ele><time>2026-04-28T08:05:27.706Z</time></trkpt><trkpt lat="43.4491383" lon="11.5829017"><ele>467.0</ele><time>2026-04-28T08:05:28.704Z</time></trkpt><trkpt lat="43.4491133" lon="11.5829817"><ele>467.0</ele><time>2026-04-28T08:05:29.702Z</time></trkpt><trkpt lat="43.4490017" lon="11.5830217"><ele>466.99999999999994</ele><time>2026-04-28T08:05:31.704Z</time></trkpt><trkpt lat="43.4489317" lon="11.58303"><ele>467.0</ele><time>2026-04-28T08:05:32.705Z</time></trkpt><trkpt lat="43.4488617" lon="11.5830517"><ele>469.16666666666663</ele><time>2026-04-28T08:05:33.705Z</time></trkpt><trkpt lat="43.4487833" lon="11.5830883"><ele>471.3333333333333</ele><time>2026-04-28T08:05:34.704Z</time></trkpt><trkpt lat="43.4487033" lon="11.5831283"><ele>473.5</ele><time>2026-04-28T08:05:35.711Z</time></trkpt><trkpt lat="43.448625" lon="11.58315"><ele>475.66666666666663</ele><time>2026-04-28T08:05:36.704Z</time></trkpt><trkpt lat="43.448545" lon="11.583175"><ele>477.8333333333333</ele><time>2026-04-28T08:05:37.704Z</time></trkpt><trkpt lat="43.4484667" lon="11.5832033"><ele>480.0</ele><time>2026-04-28T08:05:38.702Z</time></trkpt><trkpt lat="43.4483967" lon="11.5832317"><ele>480.0</ele><time>2026-04-28T08:05:39.705Z</time></trkpt><trkpt lat="43.448335" lon="11.583255"><ele>480.0</ele><time>2026-04-28T08:05:40.703Z</time></trkpt><trkpt lat="43.4482017" lon="11.5832883"><ele>480.0</ele><time>2026-04-28T08:05:42.704Z</time></trkpt><trkpt lat="43.4481267" lon="11.583315"><ele>480.0</ele><time>2026-04-28T08:05:43.704Z</time></trkpt><trkpt lat="43.4480417" lon="11.5833467"><ele>480.0</ele><time>2026-04-28T08:05:44.705Z</time></trkpt><trkpt lat="43.4479517" lon="11.5833833"><ele>482.0</ele><time>2026-04-28T08:05:45.705Z</time></trkpt><trkpt lat="43.4478667" lon="11.5834317"><ele>484.0</ele><time>2026-04-28T08:05:46.704Z</time></trkpt><trkpt lat="43.4477917" lon="11.5834767"><ele>486.0</ele><time>2026-04-28T08:05:47.703Z</time></trkpt><trkpt lat="43.4477183" lon="11.5835133"><ele>488.0</ele><time>2026-04-28T08:05:48.705Z</time></trkpt><trkpt lat="43.4476333" lon="11.5835367"><ele>490.0</ele><time>2026-04-28T08:05:49.705Z</time></trkpt><trkpt lat="43.447535" lon="11.5835617"><ele>492.0</ele><time>2026-04-28T08:05:50.706Z</time></trkpt><trkpt lat="43.4474317" lon="11.5835917"><ele>492.0</ele><time>2026-04-28T08:05:51.702Z</time></trkpt><trkpt lat="43.447325" lon="11.583625"><ele>492.00000000000006</ele><time>2026-04-28T08:05:52.704Z</time></trkpt><trkpt lat="43.447225" lon="11.5836633"><ele>492.00000000000006</ele><time>2026-04-28T08:05:53.705Z</time></trkpt><trkpt lat="43.4471383" lon="11.5837133"><ele>492.0</ele><time>2026-04-28T08:05:54.706Z</time></trkpt><trkpt lat="43.4470533" lon="11.5837633"><ele>492.0</ele><time>2026-04-28T08:05:55.706Z</time></trkpt><trkpt lat="43.446975" lon="11.583805"><ele>489.6666666666667</ele><time>2026-04-28T08:05:56.707Z</time></trkpt><trkpt lat="43.44689" lon="11.5838183"><ele>487.33333333333337</ele><time>2026-04-28T08:05:57.709Z</time></trkpt><trkpt lat="43.4468067" lon="11.583825"><ele>485.0</ele><time>2026-04-28T08:05:58.704Z</time></trkpt><trkpt lat="43.4467233" lon="11.5838367"><ele>482.6666666666667</ele><time>2026-04-28T08:05:59.704Z</time></trkpt><trkpt lat="43.4466483" lon="11.5838617"><ele>480.33333333333337</ele><time>2026-04-28T08:06:00.705Z</time></trkpt><trkpt lat="43.4465717" lon="11.5838883"><ele>478.0</ele><time>2026-04-28T08:06:01.704Z</time></trkpt><trkpt lat="43.4464917" lon="11.5839033"><ele>478.0</ele><time>2026-04-28T08:06:02.705Z</time></trkpt><trkpt lat="43.4464033" lon="11.5839033"><ele>477.99999999999994</ele><time>2026-04-28T08:06:03.705Z</time></trkpt><trkpt lat="43.44631" lon="11.58386"><ele>477.99999999999994</ele><time>2026-04-28T08:06:04.704Z</time></trkpt><trkpt lat="43.44621" lon="11.5838017"><ele>478.0</ele><time>2026-04-28T08:06:05.705Z</time></trkpt><trkpt lat="43.4461083" lon="11.583745"><ele>478.0</ele><time>2026-04-28T08:06:06.705Z</time></trkpt><trkpt lat="43.446005" lon="11.58369"><ele>480.0</ele><time>2026-04-28T08:06:07.7Z</time></trkpt><trkpt lat="43.4459017" lon="11.583635"><ele>481.99999999999994</ele><time>2026-04-28T08:06:08.704Z</time></trkpt><trkpt lat="43.4458067" lon="11.5835883"><ele>483.99999999999994</ele><time>2026-04-28T08:06:09.706Z</time></trkpt><trkpt lat="43.4457167" lon="11.5835367"><ele>486.0</ele><time>2026-04-28T08:06:10.705Z</time></trkpt><trkpt lat="43.4456283" lon="11.5834767"><ele>488.0</ele><time>2026-04-28T08:06:11.704Z</time></trkpt><trkpt lat="43.44553" lon="11.5833967"><ele>487.49999999999994</ele><time>2026-04-28T08:06:12.707Z</time></trkpt><trkpt lat="43.4454367" lon="11.58331"><ele>487.0</ele><time>2026-04-28T08:06:13.705Z</time></trkpt><trkpt lat="43.4453633" lon="11.583245"><ele>486.5</ele><time>2026-04-28T08:06:14.704Z</time></trkpt><trkpt lat="43.4453" lon="11.5831933"><ele>486.0</ele><time>2026-04-28T08:06:15.705Z</time></trkpt><trkpt lat="43.4452383" lon="11.5831583"><ele>485.49999999999994</ele><time>2026-04-28T08:06:16.704Z</time></trkpt><trkpt lat="43.445165" lon="11.583145"><ele>485.0</ele><time>2026-04-28T08:06:17.705Z</time></trkpt><trkpt lat="43.4450833" lon="11.58317"><ele>485.0</ele><time>2026-04-28T08:06:18.704Z</time></trkpt><trkpt lat="43.4450133" lon="11.5832467"><ele>485.0</ele><time>2026-04-28T08:06:19.705Z</time></trkpt><trkpt lat="43.4449417" lon="11.5833317"><ele>485.0</ele><time>2026-04-28T08:06:20.706Z</time></trkpt><trkpt lat="43.4448583" lon="11.5833967"><ele>485.0</ele><time>2026-04-28T08:06:21.705Z</time></trkpt><trkpt lat="43.44477" lon="11.5834767"><ele>485.0</ele><time>2026-04-28T08:06:22.705Z</time></trkpt><trkpt lat="43.44468" lon="11.5835533"><ele>486.49999999999994</ele><time>2026-04-28T08:06:23.704Z</time></trkpt><trkpt lat="43.4445967" lon="11.5836083"><ele>488.0</ele><time>2026-04-28T08:06:24.704Z</time></trkpt><trkpt lat="43.4445167" lon="11.5836333"><ele>489.5</ele><time>2026-04-28T08:06:25.705Z</time></trkpt><trkpt lat="43.4444367" lon="11.5836383"><ele>491.0</ele><time>2026-04-28T08:06:26.704Z</time></trkpt><trkpt lat="43.4443483" lon="11.583625"><ele>492.49999999999994</ele><time>2026-04-28T08:06:27.704Z</time></trkpt><trkpt lat="43.444255" lon="11.5836067"><ele>494.0</ele><time>2026-04-28T08:06:28.705Z</time></trkpt><trkpt lat="43.44415" lon="11.5835967"><ele>494.0</ele><time>2026-04-28T08:06:29.706Z</time></trkpt><trkpt lat="43.4440333" lon="11.5836017"><ele>494.0</ele><time>2026-04-28T08:06:30.705Z</time></trkpt><trkpt lat="43.443925" lon="11.5836183"><ele>494.0</ele><time>2026-04-28T08:06:31.705Z</time></trkpt><trkpt lat="43.4438233" lon="11.583625"><ele>494.0</ele><time>2026-04-28T08:06:32.704Z</time></trkpt><trkpt lat="43.44373" lon="11.5836083"><ele>494.0</ele><time>2026-04-28T08:06:33.705Z</time></trkpt><trkpt lat="43.4436267" lon="11.5835883"><ele>494.79999999999995</ele><time>2026-04-28T08:06:34.705Z</time></trkpt><trkpt lat="43.4435217" lon="11.583585"><ele>495.59999999999997</ele><time>2026-04-28T08:06:35.704Z</time></trkpt><trkpt lat="43.44341" lon="11.5835983"><ele>496.4</ele><time>2026-04-28T08:06:36.705Z</time></trkpt><trkpt lat="43.4433" lon="11.58361"><ele>497.2</ele><time>2026-04-28T08:06:37.706Z</time></trkpt><trkpt lat="43.4432" lon="11.5836133"><ele>498.0</ele><time>2026-04-28T08:06:38.705Z</time></trkpt><trkpt lat="43.4431083" lon="11.5836067"><ele>498.0</ele><time>2026-04-28T08:06:39.706Z</time></trkpt><trkpt lat="43.44302" lon="11.583605"><ele>498.0</ele><time>2026-04-28T08:06:40.705Z</time></trkpt><trkpt lat="43.4429317" lon="11.583595"><ele>498.0</ele><time>2026-04-28T08:06:41.705Z</time></trkpt><trkpt lat="43.4428433" lon="11.58358"><ele>498.0</ele><time>2026-04-28T08:06:42.704Z</time></trkpt><trkpt lat="43.4427517" lon="11.5835667"><ele>498.0</ele><time>2026-04-28T08:06:43.704Z</time></trkpt><trkpt lat="43.4426617" lon="11.5835567"><ele>498.0</ele><time>2026-04-28T08:06:44.704Z</time></trkpt><trkpt lat="43.4425767" lon="11.5835617"><ele>497.0</ele><time>2026-04-28T08:06:45.703Z</time></trkpt><trkpt lat="43.4424917" lon="11.583585"><ele>496.0</ele><time>2026-04-28T08:06:46.704Z</time></trkpt><trkpt lat="43.4424117" lon="11.583615"><ele>495.0</ele><time>2026-04-28T08:06:47.703Z</time></trkpt><trkpt lat="43.44233" lon="11.5836233"><ele>494.0</ele><time>2026-04-28T08:06:48.704Z</time></trkpt><trkpt lat="43.442245" lon="11.5835983"><ele>493.0</ele><time>2026-04-28T08:06:49.705Z</time></trkpt><trkpt lat="43.4421567" lon="11.5835383"><ele>492.0</ele><time>2026-04-28T08:06:50.705Z</time></trkpt><trkpt lat="43.4420683" lon="11.5834617"><ele>490.6</ele><time>2026-04-28T08:06:51.706Z</time></trkpt><trkpt lat="43.441985" lon="11.583395"><ele>489.20000000000005</ele><time>2026-04-28T08:06:52.704Z</time></trkpt><trkpt lat="43.4419" lon="11.5833533"><ele>487.8</ele><time>2026-04-28T08:06:53.703Z</time></trkpt><trkpt lat="43.4418117" lon="11.5833367"><ele>486.4</ele><time>2026-04-28T08:06:54.703Z</time></trkpt><trkpt lat="43.4417117" lon="11.5833617"><ele>485.0</ele><time>2026-04-28T08:06:55.704Z</time></trkpt><trkpt lat="43.441615" lon="11.583415"><ele>485.0</ele><time>2026-04-28T08:06:56.704Z</time></trkpt><trkpt lat="43.441535" lon="11.5834717"><ele>485.0</ele><time>2026-04-28T08:06:57.705Z</time></trkpt><trkpt lat="43.441455" lon="11.583515"><ele>485.0</ele><time>2026-04-28T08:06:58.703Z</time></trkpt><trkpt lat="43.4413733" lon="11.583535"><ele>485.0</ele><time>2026-04-28T08:06:59.703Z</time></trkpt><trkpt lat="43.4412817" lon="11.5835183"><ele>485.0</ele><time>2026-04-28T08:07:00.704Z</time></trkpt><trkpt lat="43.441185" lon="11.5834767"><ele>483.49999999999994</ele><time>2026-04-28T08:07:01.704Z</time></trkpt><trkpt lat="43.4410933" lon="11.5834283"><ele>482.0</ele><time>2026-04-28T08:07:02.704Z</time></trkpt><trkpt lat="43.4410167" lon="11.5833667"><ele>480.5</ele><time>2026-04-28T08:07:03.706Z</time></trkpt><trkpt lat="43.440955" lon="11.5833067"><ele>479.0</ele><time>2026-04-28T08:07:04.704Z</time></trkpt><trkpt lat="43.4409033" lon="11.5832417"><ele>477.49999999999994</ele><time>2026-04-28T08:07:05.705Z</time></trkpt><trkpt lat="43.440855" lon="11.58313"><ele>476.0</ele><time>2026-04-28T08:07:07.706Z</time></trkpt><trkpt lat="43.4408917" lon="11.5830483"><ele>475.99999999999994</ele><time>2026-04-28T08:07:10.705Z</time></trkpt><trkpt lat="43.4409483" lon="11.583095"><ele>476.0</ele><time>2026-04-28T08:07:12.705Z</time></trkpt><trkpt lat="43.4410017" lon="11.5831783"><ele>476.0</ele><time>2026-04-28T08:07:14.705Z</time></trkpt><trkpt lat="43.4410633" lon="11.5832617"><ele>476.0</ele><time>2026-04-28T08:07:17.704Z</time></trkpt><trkpt lat="43.4411467" lon="11.5832967"><ele>475.99999999999994</ele><time>2026-04-28T08:07:19.704Z</time></trkpt><trkpt lat="43.4412217" lon="11.5832683"><ele>476.0</ele><time>2026-04-28T08:07:21.704Z</time></trkpt><trkpt lat="43.4412317" lon="11.5831733"><ele>476.0</ele><time>2026-04-28T08:07:23.705Z</time></trkpt><trkpt lat="43.4411783" lon="11.5830683"><ele>476.0</ele><time>2026-04-28T08:07:25.703Z</time></trkpt><trkpt lat="43.4411017" lon="11.5829067"><ele>476.0</ele><time>2026-04-28T08:07:27.705Z</time></trkpt><trkpt lat="43.441065" lon="11.582785"><ele>476.0</ele><time>2026-04-28T08:07:28.707Z</time></trkpt><trkpt lat="43.44103" lon="11.58264"><ele>476.0</ele><time>2026-04-28T08:07:29.703Z</time></trkpt><trkpt lat="43.4410083" lon="11.5824917"><ele>478.3333333333333</ele><time>2026-04-28T08:07:30.703Z</time></trkpt><trkpt lat="43.4409967" lon="11.5823583"><ele>480.66666666666663</ele><time>2026-04-28T08:07:31.705Z</time></trkpt><trkpt lat="43.44101" lon="11.5822383"><ele>483.0</ele><time>2026-04-28T08:07:32.705Z</time></trkpt><trkpt lat="43.441035" lon="11.582135"><ele>485.33333333333337</ele><time>2026-04-28T08:07:33.705Z</time></trkpt><trkpt lat="43.441055" lon="11.5820317"><ele>487.6666666666667</ele><time>2026-04-28T08:07:34.705Z</time></trkpt><trkpt lat="43.4410717" lon="11.581925"><ele>490.0</ele><time>2026-04-28T08:07:35.7Z</time></trkpt><trkpt lat="43.4411" lon="11.5817967"><ele>491.33333333333337</ele><time>2026-04-28T08:07:36.704Z</time></trkpt><trkpt lat="43.4411283" lon="11.5816667"><ele>492.6666666666667</ele><time>2026-04-28T08:07:37.705Z</time></trkpt><trkpt lat="43.4411683" lon="11.58155"><ele>494.0</ele><time>2026-04-28T08:07:38.705Z</time></trkpt><trkpt lat="43.44121" lon="11.5814433"><ele>495.33333333333337</ele><time>2026-04-28T08:07:39.705Z</time></trkpt><trkpt lat="43.44124" lon="11.58134"><ele>496.6666666666667</ele><time>2026-04-28T08:07:40.704Z</time></trkpt><trkpt lat="43.4412633" lon="11.58124"><ele>498.0</ele><time>2026-04-28T08:07:41.704Z</time></trkpt><trkpt lat="43.4412767" lon="11.5811367"><ele>498.3333333333333</ele><time>2026-04-28T08:07:42.705Z</time></trkpt><trkpt lat="43.441275" lon="11.581035"><ele>498.66666666666663</ele><time>2026-04-28T08:07:43.704Z</time></trkpt><trkpt lat="43.441265" lon="11.5809267"><ele>499.0</ele><time>2026-04-28T08:07:44.704Z</time></trkpt><trkpt lat="43.44124" lon="11.5808183"><ele>499.3333333333333</ele><time>2026-04-28T08:07:45.704Z</time></trkpt><trkpt lat="43.4412017" lon="11.58072"><ele>499.66666666666663</ele><time>2026-04-28T08:07:46.702Z</time></trkpt><trkpt lat="43.44114" lon="11.5806317"><ele>500.0</ele><time>2026-04-28T08:07:47.703Z</time></trkpt><trkpt lat="43.4410767" lon="11.580555"><ele>499.99999999999994</ele><time>2026-04-28T08:07:48.703Z</time></trkpt><trkpt lat="43.44102" lon="11.5804767"><ele>500.0</ele><time>2026-04-28T08:07:49.705Z</time></trkpt><trkpt lat="43.4409767" lon="11.5803983"><ele>500.0</ele><time>2026-04-28T08:07:50.703Z</time></trkpt><trkpt lat="43.44094" lon="11.5803233"><ele>500.0</ele><time>2026-04-28T08:07:51.705Z</time></trkpt><trkpt lat="43.4409" lon="11.5801533"><ele>499.99999999999994</ele><time>2026-04-28T08:07:53.705Z</time></trkpt><trkpt lat="43.4408967" lon="11.5800667"><ele>500.0</ele><time>2026-04-28T08:07:54.704Z</time></trkpt><trkpt lat="43.4408983" lon="11.57998"><ele>498.57142857142856</ele><time>2026-04-28T08:07:55.705Z</time></trkpt><trkpt lat="43.4408933" lon="11.5798817"><ele>497.14285714285717</ele><time>2026-04-28T08:07:56.704Z</time></trkpt><trkpt lat="43.4408817" lon="11.5797883"><ele>495.7142857142857</ele><time>2026-04-28T08:07:57.705Z</time></trkpt><trkpt lat="43.4408633" lon="11.5796983"><ele>494.2857142857143</ele><time>2026-04-28T08:07:58.704Z</time></trkpt><trkpt lat="43.4408467" lon="11.5796067"><ele>492.8571428571429</ele><time>2026-04-28T08:07:59.704Z</time></trkpt><trkpt lat="43.4408233" lon="11.5795183"><ele>491.42857142857144</ele><time>2026-04-28T08:08:00.702Z</time></trkpt><trkpt lat="43.4407917" lon="11.579435"><ele>490.0</ele><time>2026-04-28T08:08:01.703Z</time></trkpt><trkpt lat="43.4407583" lon="11.57936"><ele>489.2</ele><time>2026-04-28T08:08:02.705Z</time></trkpt><trkpt lat="43.440705" lon="11.5792283"><ele>488.4</ele><time>2026-04-28T08:08:04.705Z</time></trkpt><trkpt lat="43.4407033" lon="11.5791117"><ele>487.6</ele><time>2026-04-28T08:08:06.703Z</time></trkpt><trkpt lat="43.440785" lon="11.5790533"><ele>486.8</ele><time>2026-04-28T08:08:08.706Z</time></trkpt><trkpt lat="43.440875" lon="11.5790583"><ele>486.0</ele><time>2026-04-28T08:08:09.703Z</time></trkpt><trkpt lat="43.440985" lon="11.5790983"><ele>486.0</ele><time>2026-04-28T08:08:10.706Z</time></trkpt><trkpt lat="43.44108" lon="11.579135"><ele>486.0</ele><time>2026-04-28T08:08:11.704Z</time></trkpt><trkpt lat="43.4411567" lon="11.5791667"><ele>486.0</ele><time>2026-04-28T08:08:12.703Z</time></trkpt><trkpt lat="43.4412533" lon="11.5791833"><ele>486.0</ele><time>2026-04-28T08:08:13.704Z</time></trkpt><trkpt lat="43.4413317" lon="11.5791583"><ele>486.0</ele><time>2026-04-28T08:08:14.704Z</time></trkpt><trkpt lat="43.4414117" lon="11.579115"><ele>486.0</ele><time>2026-04-28T08:08:15.706Z</time></trkpt><trkpt lat="43.441465" lon="11.5790433"><ele>484.0</ele><time>2026-04-28T08:08:16.703Z</time></trkpt><trkpt lat="43.4415183" lon="11.5789617"><ele>482.0</ele><time>2026-04-28T08:08:17.703Z</time></trkpt><trkpt lat="43.4415817" lon="11.5789033"><ele>480.0</ele><time>2026-04-28T08:08:18.706Z</time></trkpt><trkpt lat="43.4416567" lon="11.578865"><ele>478.0</ele><time>2026-04-28T08:08:19.704Z</time></trkpt><trkpt lat="43.441735" lon="11.5788283"><ele>476.0</ele><time>2026-04-28T08:08:20.704Z</time></trkpt><trkpt lat="43.441805" lon="11.5787867"><ele>474.0</ele><time>2026-04-28T08:08:21.704Z</time></trkpt><trkpt lat="43.441865" lon="11.57873"><ele>476.8333333333333</ele><time>2026-04-28T08:08:22.704Z</time></trkpt><trkpt lat="43.4419183" lon="11.578655"><ele>479.66666666666663</ele><time>2026-04-28T08:08:23.702Z</time></trkpt><trkpt lat="43.4419667" lon="11.57856"><ele>482.5</ele><time>2026-04-28T08:08:24.704Z</time></trkpt><trkpt lat="43.4420067" lon="11.5784583"><ele>485.3333333333333</ele><time>2026-04-28T08:08:25.704Z</time></trkpt><trkpt lat="43.4420433" lon="11.57836"><ele>488.16666666666663</ele><time>2026-04-28T08:08:26.705Z</time></trkpt><trkpt lat="43.44208" lon="11.5782717"><ele>491.0</ele><time>2026-04-28T08:08:27.706Z</time></trkpt><trkpt lat="43.4421167" lon="11.5781933"><ele>485.66666666666663</ele><time>2026-04-28T08:08:28.705Z</time></trkpt><trkpt lat="43.4421517" lon="11.5781067"><ele>480.3333333333333</ele><time>2026-04-28T08:08:29.703Z</time></trkpt><trkpt lat="43.4421733" lon="11.5780033"><ele>475.0</ele><time>2026-04-28T08:08:30.705Z</time></trkpt><trkpt lat="43.4421867" lon="11.5778767"><ele>469.66666666666663</ele><time>2026-04-28T08:08:31.705Z</time></trkpt><trkpt lat="43.442185" lon="11.5777383"><ele>464.3333333333333</ele><time>2026-04-28T08:08:32.705Z</time></trkpt><trkpt lat="43.44219" lon="11.5776"><ele>459.0</ele><time>2026-04-28T08:08:33.706Z</time></trkpt><trkpt lat="43.4422117" lon="11.5774483"><ele>459.0</ele><time>2026-04-28T08:08:34.704Z</time></trkpt><trkpt lat="43.44225" lon="11.5772917"><ele>459.0</ele><time>2026-04-28T08:08:35.705Z</time></trkpt><trkpt lat="43.442295" lon="11.5771683"><ele>459.0</ele><time>2026-04-28T08:08:36.704Z</time></trkpt><trkpt lat="43.4423333" lon="11.57706"><ele>459.0</ele><time>2026-04-28T08:08:37.709Z</time></trkpt><trkpt lat="43.4423717" lon="11.576965"><ele>459.0</ele><time>2026-04-28T08:08:38.703Z</time></trkpt><trkpt lat="43.442395" lon="11.5768683"><ele>459.4</ele><time>2026-04-28T08:08:39.706Z</time></trkpt><trkpt lat="43.442385" lon="11.5767733"><ele>459.79999999999995</ele><time>2026-04-28T08:08:40.706Z</time></trkpt><trkpt lat="43.4423517" lon="11.5766733"><ele>460.20000000000005</ele><time>2026-04-28T08:08:41.705Z</time></trkpt><trkpt lat="43.4423083" lon="11.576565"><ele>460.6</ele><time>2026-04-28T08:08:42.704Z</time></trkpt><trkpt lat="43.44224" lon="11.5764583"><ele>461.0</ele><time>2026-04-28T08:08:43.705Z</time></trkpt><trkpt lat="43.4421667" lon="11.5763333"><ele>465.8</ele><time>2026-04-28T08:08:44.703Z</time></trkpt><trkpt lat="43.442105" lon="11.576215"><ele>470.6</ele><time>2026-04-28T08:08:45.706Z</time></trkpt><trkpt lat="43.4420433" lon="11.5761283"><ele>475.4</ele><time>2026-04-28T08:08:46.704Z</time></trkpt><trkpt lat="43.441995" lon="11.5760533"><ele>480.2</ele><time>2026-04-28T08:08:47.704Z</time></trkpt><trkpt lat="43.441975" lon="11.57592"><ele>485.0</ele><time>2026-04-28T08:08:49.704Z</time></trkpt><trkpt lat="43.442055" lon="11.5758117"><ele>485.0</ele><time>2026-04-28T08:08:51.706Z</time></trkpt><trkpt lat="43.4421283" lon="11.575695"><ele>485.0</ele><time>2026-04-28T08:08:53.704Z</time></trkpt><trkpt lat="43.44214" lon="11.5755167"><ele>485.0</ele><time>2026-04-28T08:08:55.705Z</time></trkpt><trkpt lat="43.4421117" lon="11.5753633"><ele>485.0</ele><time>2026-04-28T08:08:56.706Z</time></trkpt><trkpt lat="43.4420633" lon="11.5752017"><ele>482.0</ele><time>2026-04-28T08:08:57.703Z</time></trkpt><trkpt lat="43.44201" lon="11.575035"><ele>479.0</ele><time>2026-04-28T08:08:58.705Z</time></trkpt><trkpt lat="43.4419583" lon="11.57487"><ele>476.0</ele><time>2026-04-28T08:08:59.704Z</time></trkpt><trkpt lat="43.4419117" lon="11.5747083"><ele>473.0</ele><time>2026-04-28T08:09:00.704Z</time></trkpt><trkpt lat="43.4418633" lon="11.5745617"><ele>470.59999999999997</ele><time>2026-04-28T08:09:01.704Z</time></trkpt><trkpt lat="43.441835" lon="11.5744217"><ele>468.19999999999993</ele><time>2026-04-28T08:09:02.704Z</time></trkpt><trkpt lat="43.4418133" lon="11.574285"><ele>465.8</ele><time>2026-04-28T08:09:03.706Z</time></trkpt><trkpt lat="43.4417883" lon="11.5741567"><ele>463.4</ele><time>2026-04-28T08:09:04.704Z</time></trkpt><trkpt lat="43.4417517" lon="11.5740233"><ele>461.0</ele><time>2026-04-28T08:09:05.704Z</time></trkpt><trkpt lat="43.441705" lon="11.5738883"><ele>461.0</ele><time>2026-04-28T08:09:06.705Z</time></trkpt><trkpt lat="43.4416467" lon="11.573755"><ele>461.0</ele><time>2026-04-28T08:09:07.704Z</time></trkpt><trkpt lat="43.4415883" lon="11.5736283"><ele>461.0</ele><time>2026-04-28T08:09:08.704Z</time></trkpt><trkpt lat="43.44154" lon="11.5735083"><ele>461.0</ele><time>2026-04-28T08:09:09.705Z</time></trkpt><trkpt lat="43.4415017" lon="11.57341"><ele>461.0</ele><time>2026-04-28T08:09:10.703Z</time></trkpt><trkpt lat="43.44148" lon="11.5733217"><ele>459.3333333333333</ele><time>2026-04-28T08:09:11.704Z</time></trkpt><trkpt lat="43.4414417" lon="11.5731883"><ele>457.66666666666663</ele><time>2026-04-28T08:09:13.704Z</time></trkpt><trkpt lat="43.4414183" lon="11.573095"><ele>456.0</ele><time>2026-04-28T08:09:15.706Z</time></trkpt><trkpt lat="43.4414517" lon="11.57301"><ele>454.33333333333337</ele><time>2026-04-28T08:09:19.703Z</time></trkpt><trkpt lat="43.4415183" lon="11.573075"><ele>452.6666666666667</ele><time>2026-04-28T08:09:22.704Z</time></trkpt><trkpt lat="43.44161" lon="11.5731633"><ele>451.0</ele><time>2026-04-28T08:09:24.706Z</time></trkpt><trkpt lat="43.4416767" lon="11.57321"><ele>451.0</ele><time>2026-04-28T08:09:25.706Z</time></trkpt><trkpt lat="43.4417517" lon="11.5732567"><ele>451.0</ele><time>2026-04-28T08:09:26.706Z</time></trkpt><trkpt lat="43.4418233" lon="11.57331"><ele>451.0</ele><time>2026-04-28T08:09:27.706Z</time></trkpt><trkpt lat="43.44189" lon="11.57339"><ele>451.0</ele><time>2026-04-28T08:09:28.705Z</time></trkpt><trkpt lat="43.4419533" lon="11.5734867"><ele>451.0</ele><time>2026-04-28T08:09:29.706Z</time></trkpt><trkpt lat="43.4420183" lon="11.5736"><ele>451.0</ele><time>2026-04-28T08:09:30.705Z</time></trkpt><trkpt lat="43.4420817" lon="11.5737283"><ele>451.0</ele><time>2026-04-28T08:09:31.707Z</time></trkpt><trkpt lat="43.4421383" lon="11.57388"><ele>451.0</ele><time>2026-04-28T08:09:32.705Z</time></trkpt><trkpt lat="43.4422" lon="11.5740417"><ele>451.0</ele><time>2026-04-28T08:09:33.705Z</time></trkpt><trkpt lat="43.4422617" lon="11.574205"><ele>451.0</ele><time>2026-04-28T08:09:34.705Z</time></trkpt><trkpt lat="43.4423367" lon="11.574365"><ele>451.0</ele><time>2026-04-28T08:09:35.704Z</time></trkpt><trkpt lat="43.44242" lon="11.57452"><ele>451.0</ele><time>2026-04-28T08:09:36.705Z</time></trkpt><trkpt lat="43.4425117" lon="11.5746683"><ele>451.0</ele><time>2026-04-28T08:09:37.705Z</time></trkpt><trkpt lat="43.4426033" lon="11.5748033"><ele>449.75</ele><time>2026-04-28T08:09:38.704Z</time></trkpt><trkpt lat="43.44269" lon="11.5749317"><ele>448.5</ele><time>2026-04-28T08:09:39.705Z</time></trkpt><trkpt lat="43.4427683" lon="11.5750567"><ele>447.25</ele><time>2026-04-28T08:09:40.705Z</time></trkpt><trkpt lat="43.4428383" lon="11.5751817"><ele>446.0</ele><time>2026-04-28T08:09:41.705Z</time></trkpt><trkpt lat="43.4429033" lon="11.5753033"><ele>445.75</ele><time>2026-04-28T08:09:42.704Z</time></trkpt><trkpt lat="43.4429733" lon="11.5754267"><ele>445.5</ele><time>2026-04-28T08:09:43.704Z</time></trkpt><trkpt lat="43.4430517" lon="11.57556"><ele>445.25</ele><time>2026-04-28T08:09:44.704Z</time></trkpt><trkpt lat="43.443125" lon="11.575685"><ele>445.0</ele><time>2026-04-28T08:09:45.705Z</time></trkpt><trkpt lat="43.4431883" lon="11.5757967"><ele>445.0</ele><time>2026-04-28T08:09:46.704Z</time></trkpt><trkpt lat="43.44324" lon="11.5758967"><ele>445.0</ele><time>2026-04-28T08:09:47.705Z</time></trkpt><trkpt lat="43.44328" lon="11.5759967"><ele>445.0</ele><time>2026-04-28T08:09:48.704Z</time></trkpt><trkpt lat="43.44332" lon="11.576105"><ele>445.0</ele><time>2026-04-28T08:09:49.704Z</time></trkpt><trkpt lat="43.4433383" lon="11.5762267"><ele>445.0</ele><time>2026-04-28T08:09:50.704Z</time></trkpt><trkpt lat="43.4433533" lon="11.5763617"><ele>444.0</ele><time>2026-04-28T08:09:51.704Z</time></trkpt><trkpt lat="43.443385" lon="11.576495"><ele>443.0</ele><time>2026-04-28T08:09:52.705Z</time></trkpt><trkpt lat="43.44343" lon="11.57664"><ele>442.0</ele><time>2026-04-28T08:09:53.704Z</time></trkpt><trkpt lat="43.443485" lon="11.5767917"><ele>441.0</ele><time>2026-04-28T08:09:54.704Z</time></trkpt><trkpt lat="43.4435317" lon="11.5769333"><ele>440.20000000000005</ele><time>2026-04-28T08:09:55.705Z</time></trkpt><trkpt lat="43.443565" lon="11.5770733"><ele>439.40000000000003</ele><time>2026-04-28T08:09:56.705Z</time></trkpt><trkpt lat="43.44359" lon="11.5772167"><ele>438.6</ele><time>2026-04-28T08:09:57.706Z</time></trkpt><trkpt lat="43.4436233" lon="11.5773483"><ele>437.8</ele><time>2026-04-28T08:09:58.704Z</time></trkpt><trkpt lat="43.443665" lon="11.5774533"><ele>437.0</ele><time>2026-04-28T08:09:59.704Z</time></trkpt><trkpt lat="43.4437033" lon="11.5775433"><ele>436.99999999999994</ele><time>2026-04-28T08:10:00.704Z</time></trkpt><trkpt lat="43.44375" lon="11.577615"><ele>437.0</ele><time>2026-04-28T08:10:01.705Z</time></trkpt><trkpt lat="43.4438117" lon="11.5776667"><ele>437.0</ele><time>2026-04-28T08:10:02.7Z</time></trkpt><trkpt lat="43.44387" lon="11.577705"><ele>437.0</ele><time>2026-04-28T08:10:03.705Z</time></trkpt><trkpt lat="43.4439783" lon="11.577715"><ele>436.99999999999994</ele><time>2026-04-28T08:10:05.704Z</time></trkpt><trkpt lat="43.4440017" lon="11.5776267"><ele>437.0</ele><time>2026-04-28T08:10:06.706Z</time></trkpt><trkpt lat="43.444025" lon="11.5775267"><ele>439.49999999999994</ele><time>2026-04-28T08:10:07.705Z</time></trkpt><trkpt lat="43.4440317" lon="11.57743"><ele>442.0</ele><time>2026-04-28T08:10:08.703Z</time></trkpt><trkpt lat="43.4440233" lon="11.5773317"><ele>444.5</ele><time>2026-04-28T08:10:09.705Z</time></trkpt><trkpt lat="43.4440167" lon="11.5772417"><ele>447.0</ele><time>2026-04-28T08:10:10.705Z</time></trkpt><trkpt lat="43.4440217" lon="11.57715"><ele>449.49999999999994</ele><time>2026-04-28T08:10:11.706Z</time></trkpt><trkpt lat="43.4441" lon="11.5771017"><ele>452.0</ele><time>2026-04-28T08:10:13.706Z</time></trkpt><trkpt lat="43.444195" lon="11.5771033"><ele>451.99999999999994</ele><time>2026-04-28T08:10:15.705Z</time></trkpt><trkpt lat="43.444265" lon="11.5770417"><ele>452.0</ele><time>2026-04-28T08:10:17.705Z</time></trkpt><trkpt lat="43.4443133" lon="11.5769667"><ele>452.0</ele><time>2026-04-28T08:10:20.7Z</time></trkpt><trkpt lat="43.44441" lon="11.5769283"><ele>452.0</ele><time>2026-04-28T08:10:22.704Z</time></trkpt><trkpt lat="43.4444667" lon="11.57689"><ele>451.99999999999994</ele><time>2026-04-28T08:10:23.704Z</time></trkpt><trkpt lat="43.4445183" lon="11.57684"><ele>452.0</ele><time>2026-04-28T08:10:24.704Z</time></trkpt><trkpt lat="43.444565" lon="11.57669"><ele>454.3333333333333</ele><time>2026-04-28T08:10:26.704Z</time></trkpt><trkpt lat="43.4445333" lon="11.576585"><ele>456.66666666666663</ele><time>2026-04-28T08:10:27.706Z</time></trkpt><trkpt lat="43.4445" lon="11.5764817"><ele>459.0</ele><time>2026-04-28T08:10:28.706Z</time></trkpt><trkpt lat="43.4444783" lon="11.57638"><ele>461.33333333333337</ele><time>2026-04-28T08:10:29.705Z</time></trkpt><trkpt lat="43.4444667" lon="11.576265"><ele>463.6666666666667</ele><time>2026-04-28T08:10:30.704Z</time></trkpt><trkpt lat="43.4444717" lon="11.5761383"><ele>466.0</ele><time>2026-04-28T08:10:31.705Z</time></trkpt><trkpt lat="43.444485" lon="11.575995"><ele>467.6</ele><time>2026-04-28T08:10:32.704Z</time></trkpt><trkpt lat="43.44451" lon="11.5758517"><ele>469.20000000000005</ele><time>2026-04-28T08:10:33.704Z</time></trkpt><trkpt lat="43.4445217" lon="11.575705"><ele>470.79999999999995</ele><time>2026-04-28T08:10:34.704Z</time></trkpt><trkpt lat="43.444535" lon="11.5755567"><ele>472.4</ele><time>2026-04-28T08:10:35.705Z</time></trkpt><trkpt lat="43.44454" lon="11.5754183"><ele>474.0</ele><time>2026-04-28T08:10:36.703Z</time></trkpt><trkpt lat="43.4445533" lon="11.5753"><ele>476.0</ele><time>2026-04-28T08:10:37.705Z</time></trkpt><trkpt lat="43.4445733" lon="11.5751883"><ele>478.0</ele><time>2026-04-28T08:10:38.701Z</time></trkpt><trkpt lat="43.4445933" lon="11.575065"><ele>480.0</ele><time>2026-04-28T08:10:39.706Z</time></trkpt><trkpt lat="43.444605" lon="11.5749433"><ele>482.0</ele><time>2026-04-28T08:10:40.706Z</time></trkpt><trkpt lat="43.44461" lon="11.5748283"><ele>484.0</ele><time>2026-04-28T08:10:41.701Z</time></trkpt><trkpt lat="43.4446183" lon="11.57473"><ele>486.0</ele><time>2026-04-28T08:10:42.707Z</time></trkpt><trkpt lat="43.4446367" lon="11.574645"><ele>487.0</ele><time>2026-04-28T08:10:43.705Z</time></trkpt><trkpt lat="43.4446683" lon="11.5745667"><ele>488.0</ele><time>2026-04-28T08:10:44.705Z</time></trkpt><trkpt lat="43.4447" lon="11.57448"><ele>489.0</ele><time>2026-04-28T08:10:45.706Z</time></trkpt><trkpt lat="43.44473" lon="11.5743933"><ele>490.0</ele><time>2026-04-28T08:10:46.705Z</time></trkpt><trkpt lat="43.4447533" lon="11.5742233"><ele>491.0</ele><time>2026-04-28T08:10:48.703Z</time></trkpt><trkpt lat="43.44476" lon="11.5741167"><ele>492.0</ele><time>2026-04-28T08:10:49.705Z</time></trkpt><trkpt lat="43.444775" lon="11.5740017"><ele>494.20000000000005</ele><time>2026-04-28T08:10:50.704Z</time></trkpt><trkpt lat="43.4447867" lon="11.573885"><ele>496.40000000000003</ele><time>2026-04-28T08:10:51.707Z</time></trkpt><trkpt lat="43.44479" lon="11.573765"><ele>498.59999999999997</ele><time>2026-04-28T08:10:52.705Z</time></trkpt><trkpt lat="43.4447833" lon="11.573635"><ele>500.79999999999995</ele><time>2026-04-28T08:10:53.706Z</time></trkpt><trkpt lat="43.4447767" lon="11.5734983"><ele>503.0</ele><time>2026-04-28T08:10:54.7Z</time></trkpt><trkpt lat="43.4447667" lon="11.573375"><ele>504.66666666666663</ele><time>2026-04-28T08:10:55.705Z</time></trkpt><trkpt lat="43.444755" lon="11.5732683"><ele>506.3333333333333</ele><time>2026-04-28T08:10:56.705Z</time></trkpt><trkpt lat="43.44474" lon="11.5731667"><ele>508.0</ele><time>2026-04-28T08:10:57.706Z</time></trkpt><trkpt lat="43.4447167" lon="11.5730667"><ele>509.66666666666663</ele><time>2026-04-28T08:10:58.705Z</time></trkpt><trkpt lat="43.4446983" lon="11.5729683"><ele>511.3333333333333</ele><time>2026-04-28T08:10:59.704Z</time></trkpt><trkpt lat="43.4446967" lon="11.5728583"><ele>513.0</ele><time>2026-04-28T08:11:00.705Z</time></trkpt><trkpt lat="43.444705" lon="11.5727333"><ele>515.6</ele><time>2026-04-28T08:11:01.706Z</time></trkpt><trkpt lat="43.4447283" lon="11.5726067"><ele>518.1999999999999</ele><time>2026-04-28T08:11:02.704Z</time></trkpt><trkpt lat="43.4447633" lon="11.572475"><ele>520.8</ele><time>2026-04-28T08:11:03.705Z</time></trkpt><trkpt lat="43.4448117" lon="11.5723417"><ele>523.4</ele><time>2026-04-28T08:11:04.705Z</time></trkpt><trkpt lat="43.4448583" lon="11.572215"><ele>526.0</ele><time>2026-04-28T08:11:05.703Z</time></trkpt><trkpt lat="43.4449133" lon="11.5720867"><ele>526.25</ele><time>2026-04-28T08:11:06.704Z</time></trkpt><trkpt lat="43.444965" lon="11.571955"><ele>526.5</ele><time>2026-04-28T08:11:07.704Z</time></trkpt><trkpt lat="43.4450117" lon="11.5718283"><ele>526.75</ele><time>2026-04-28T08:11:08.705Z</time></trkpt><trkpt lat="43.4450783" lon="11.5717033"><ele>527.0</ele><time>2026-04-28T08:11:09.706Z</time></trkpt><trkpt lat="43.4451533" lon="11.57156"><ele>527.0</ele><time>2026-04-28T08:11:10.704Z</time></trkpt><trkpt lat="43.44523" lon="11.5714283"><ele>527.0</ele><time>2026-04-28T08:11:11.705Z</time></trkpt><trkpt lat="43.4453083" lon="11.571295"><ele>527.0</ele><time>2026-04-28T08:11:12.705Z</time></trkpt><trkpt lat="43.4453883" lon="11.5711833"><ele>527.0</ele><time>2026-04-28T08:11:13.704Z</time></trkpt><trkpt lat="43.4454617" lon="11.571095"><ele>526.6666666666666</ele><time>2026-04-28T08:11:14.704Z</time></trkpt><trkpt lat="43.4455283" lon="11.5710083"><ele>526.3333333333333</ele><time>2026-04-28T08:11:15.705Z</time></trkpt><trkpt lat="43.44559" lon="11.5709083"><ele>526.0</ele><time>2026-04-28T08:11:16.705Z</time></trkpt><trkpt lat="43.445635" lon="11.570815"><ele>525.6666666666666</ele><time>2026-04-28T08:11:17.704Z</time></trkpt><trkpt lat="43.4456783" lon="11.57074"><ele>525.3333333333334</ele><time>2026-04-28T08:11:18.704Z</time></trkpt><trkpt lat="43.4457567" lon="11.5706367"><ele>525.0</ele><time>2026-04-28T08:11:20.705Z</time></trkpt><trkpt lat="43.4458117" lon="11.57057"><ele>525.0</ele><time>2026-04-28T08:11:21.706Z</time></trkpt><trkpt lat="43.44588" lon="11.5705"><ele>525.0</ele><time>2026-04-28T08:11:22.706Z</time></trkpt><trkpt lat="43.4459333" lon="11.570445"><ele>525.0</ele><time>2026-04-28T08:11:23.704Z</time></trkpt><trkpt lat="43.4459867" lon="11.57031"><ele>525.0</ele><time>2026-04-28T08:11:25.701Z</time></trkpt><trkpt lat="43.4459817" lon="11.5702067"><ele>525.0</ele><time>2026-04-28T08:11:26.701Z</time></trkpt><trkpt lat="43.4459783" lon="11.5700833"><ele>525.0</ele><time>2026-04-28T08:11:27.706Z</time></trkpt><trkpt lat="43.4459817" lon="11.56996"><ele>524.8</ele><time>2026-04-28T08:11:28.704Z</time></trkpt><trkpt lat="43.4459967" lon="11.5698317"><ele>524.6</ele><time>2026-04-28T08:11:29.704Z</time></trkpt><trkpt lat="43.44602" lon="11.569715"><ele>524.4</ele><time>2026-04-28T08:11:30.704Z</time></trkpt><trkpt lat="43.4460467" lon="11.5696"><ele>524.2</ele><time>2026-04-28T08:11:31.705Z</time></trkpt><trkpt lat="43.4460833" lon="11.5694717"><ele>524.0</ele><time>2026-04-28T08:11:32.705Z</time></trkpt><trkpt lat="43.44612" lon="11.5693467"><ele>523.5</ele><time>2026-04-28T08:11:33.704Z</time></trkpt><trkpt lat="43.4461617" lon="11.5692283"><ele>523.0</ele><time>2026-04-28T08:11:34.703Z</time></trkpt><trkpt lat="43.4462017" lon="11.5691367"><ele>522.5</ele><time>2026-04-28T08:11:35.704Z</time></trkpt><trkpt lat="43.44624" lon="11.5690633"><ele>522.0</ele><time>2026-04-28T08:11:36.703Z</time></trkpt><trkpt lat="43.4463383" lon="11.5690267"><ele>521.5</ele><time>2026-04-28T08:11:38.704Z</time></trkpt><trkpt lat="43.4464117" lon="11.5690367"><ele>521.0</ele><time>2026-04-28T08:11:39.705Z</time></trkpt><trkpt lat="43.4464817" lon="11.5690267"><ele>523.0</ele><time>2026-04-28T08:11:40.705Z</time></trkpt><trkpt lat="43.446555" lon="11.5690017"><ele>525.0</ele><time>2026-04-28T08:11:41.705Z</time></trkpt><trkpt lat="43.4466283" lon="11.5689433"><ele>527.0</ele><time>2026-04-28T08:11:42.703Z</time></trkpt><trkpt lat="43.4467083" lon="11.5688633"><ele>529.0</ele><time>2026-04-28T08:11:43.704Z</time></trkpt><trkpt lat="43.44678" lon="11.568775"><ele>531.0</ele><time>2026-04-28T08:11:44.704Z</time></trkpt><trkpt lat="43.4468417" lon="11.5686867"><ele>533.0</ele><time>2026-04-28T08:11:45.706Z</time></trkpt><trkpt lat="43.4468883" lon="11.5685917"><ele>533.3333333333333</ele><time>2026-04-28T08:11:46.704Z</time></trkpt><trkpt lat="43.4469183" lon="11.568495"><ele>533.6666666666666</ele><time>2026-04-28T08:11:47.705Z</time></trkpt><trkpt lat="43.4469383" lon="11.56838"><ele>534.0</ele><time>2026-04-28T08:11:48.705Z</time></trkpt><trkpt lat="43.44696" lon="11.56826"><ele>534.3333333333334</ele><time>2026-04-28T08:11:49.705Z</time></trkpt><trkpt lat="43.446975" lon="11.5681367"><ele>534.6666666666667</ele><time>2026-04-28T08:11:50.703Z</time></trkpt><trkpt lat="43.4469833" lon="11.5680083"><ele>535.0</ele><time>2026-04-28T08:11:51.705Z</time></trkpt><trkpt lat="43.44699" lon="11.5678783"><ele>536.0</ele><time>2026-04-28T08:11:52.705Z</time></trkpt><trkpt lat="43.4469967" lon="11.56775"><ele>537.0</ele><time>2026-04-28T08:11:53.704Z</time></trkpt><trkpt lat="43.447015" lon="11.5676317"><ele>538.0</ele><time>2026-04-28T08:11:54.705Z</time></trkpt><trkpt lat="43.4470417" lon="11.5675217"><ele>539.0</ele><time>2026-04-28T08:11:55.704Z</time></trkpt><trkpt lat="43.4470783" lon="11.567425"><ele>540.0</ele><time>2026-04-28T08:11:56.705Z</time></trkpt><trkpt lat="43.4471133" lon="11.5673383"><ele>541.0</ele><time>2026-04-28T08:11:57.705Z</time></trkpt><trkpt lat="43.4471383" lon="11.5672483"><ele>541.0</ele><time>2026-04-28T08:11:58.706Z</time></trkpt><trkpt lat="43.4471633" lon="11.5671617"><ele>541.0</ele><time>2026-04-28T08:11:59.705Z</time></trkpt><trkpt lat="43.4471883" lon="11.5670683"><ele>541.0</ele><time>2026-04-28T08:12:00.718Z</time></trkpt><trkpt lat="43.4472133" lon="11.5669683"><ele>541.0</ele><time>2026-04-28T08:12:01.704Z</time></trkpt><trkpt lat="43.447245" lon="11.5668717"><ele>541.0</ele><time>2026-04-28T08:12:02.706Z</time></trkpt><trkpt lat="43.4472767" lon="11.5667917"><ele>541.0</ele><time>2026-04-28T08:12:03.705Z</time></trkpt><trkpt lat="43.4473033" lon="11.56662"><ele>543.0</ele><time>2026-04-28T08:12:05.705Z</time></trkpt><trkpt lat="43.4472967" lon="11.5664533"><ele>545.0</ele><time>2026-04-28T08:12:07.706Z</time></trkpt><trkpt lat="43.4473067" lon="11.5663617"><ele>547.0</ele><time>2026-04-28T08:12:08.708Z</time></trkpt><trkpt lat="43.4473017" lon="11.5662717"><ele>549.0</ele><time>2026-04-28T08:12:09.706Z</time></trkpt><trkpt lat="43.4472833" lon="11.5661767"><ele>551.0</ele><time>2026-04-28T08:12:10.704Z</time></trkpt><trkpt lat="43.4472583" lon="11.5660883"><ele>553.0</ele><time>2026-04-28T08:12:11.703Z</time></trkpt><trkpt lat="43.4472483" lon="11.5659917"><ele>553.8333333333334</ele><time>2026-04-28T08:12:12.705Z</time></trkpt><trkpt lat="43.447255" lon="11.5658833"><ele>554.6666666666667</ele><time>2026-04-28T08:12:13.705Z</time></trkpt><trkpt lat="43.4472667" lon="11.565765"><ele>555.5</ele><time>2026-04-28T08:12:14.705Z</time></trkpt><trkpt lat="43.4472733" lon="11.565645"><ele>556.3333333333334</ele><time>2026-04-28T08:12:15.706Z</time></trkpt><trkpt lat="43.4472817" lon="11.5655283"><ele>557.1666666666666</ele><time>2026-04-28T08:12:16.703Z</time></trkpt><trkpt lat="43.4472883" lon="11.5653983"><ele>558.0</ele><time>2026-04-28T08:12:17.706Z</time></trkpt><trkpt lat="43.4472717" lon="11.5652367"><ele>558.25</ele><time>2026-04-28T08:12:18.705Z</time></trkpt><trkpt lat="43.447255" lon="11.565075"><ele>558.5</ele><time>2026-04-28T08:12:19.706Z</time></trkpt><trkpt lat="43.447245" lon="11.5649233"><ele>558.75</ele><time>2026-04-28T08:12:20.708Z</time></trkpt><trkpt lat="43.4472267" lon="11.5647717"><ele>559.0</ele><time>2026-04-28T08:12:21.707Z</time></trkpt><trkpt lat="43.4471967" lon="11.5646217"><ele>559.1666666666667</ele><time>2026-04-28T08:12:22.706Z</time></trkpt><trkpt lat="43.447165" lon="11.5644917"><ele>559.3333333333334</ele><time>2026-04-28T08:12:23.705Z</time></trkpt><trkpt lat="43.4471267" lon="11.5643817"><ele>559.5</ele><time>2026-04-28T08:12:24.705Z</time></trkpt><trkpt lat="43.4470917" lon="11.564285"><ele>559.6666666666666</ele><time>2026-04-28T08:12:25.704Z</time></trkpt><trkpt lat="43.44707" lon="11.564195"><ele>559.8333333333333</ele><time>2026-04-28T08:12:26.704Z</time></trkpt><trkpt lat="43.447055" lon="11.5640883"><ele>560.0</ele><time>2026-04-28T08:12:27.706Z</time></trkpt><trkpt lat="43.447055" lon="11.5639567"><ele>560.0</ele><time>2026-04-28T08:12:28.705Z</time></trkpt><trkpt lat="43.4470583" lon="11.5638133"><ele>560.0</ele><time>2026-04-28T08:12:29.705Z</time></trkpt><trkpt lat="43.4470667" lon="11.5636783"><ele>560.0</ele><time>2026-04-28T08:12:30.705Z</time></trkpt><trkpt lat="43.4470833" lon="11.5635517"><ele>560.0</ele><time>2026-04-28T08:12:31.706Z</time></trkpt><trkpt lat="43.4471017" lon="11.56344"><ele>560.0</ele><time>2026-04-28T08:12:32.705Z</time></trkpt><trkpt lat="43.4471367" lon="11.5633417"><ele>561.3333333333333</ele><time>2026-04-28T08:12:33.706Z</time></trkpt><trkpt lat="43.447195" lon="11.5632633"><ele>562.6666666666666</ele><time>2026-04-28T08:12:34.705Z</time></trkpt><trkpt lat="43.447255" lon="11.5631933"><ele>564.0</ele><time>2026-04-28T08:12:35.704Z</time></trkpt><trkpt lat="43.44733" lon="11.5631433"><ele>565.3333333333334</ele><time>2026-04-28T08:12:36.705Z</time></trkpt><trkpt lat="43.4474083" lon="11.5631117"><ele>566.6666666666667</ele><time>2026-04-28T08:12:37.706Z</time></trkpt><trkpt lat="43.4474833" lon="11.563105"><ele>568.0</ele><time>2026-04-28T08:12:38.704Z</time></trkpt><trkpt lat="43.447555" lon="11.563115"><ele>568.0</ele><time>2026-04-28T08:12:39.705Z</time></trkpt><trkpt lat="43.447625" lon="11.5631667"><ele>568.0</ele><time>2026-04-28T08:12:40.706Z</time></trkpt><trkpt lat="43.4476883" lon="11.5632283"><ele>568.0</ele><time>2026-04-28T08:12:41.705Z</time></trkpt><trkpt lat="43.4477517" lon="11.5632633"><ele>568.0</ele><time>2026-04-28T08:12:42.704Z</time></trkpt><trkpt lat="43.447815" lon="11.563275"><ele>568.0</ele><time>2026-04-28T08:12:43.703Z</time></trkpt><trkpt lat="43.447885" lon="11.56325"><ele>568.0</ele><time>2026-04-28T08:12:44.701Z</time></trkpt><trkpt lat="43.44796" lon="11.5632"><ele>568.0</ele><time>2026-04-28T08:12:45.705Z</time></trkpt><trkpt lat="43.4480283" lon="11.5631567"><ele>568.0</ele><time>2026-04-28T08:12:46.704Z</time></trkpt><trkpt lat="43.4481217" lon="11.5631467"><ele>568.0</ele><time>2026-04-28T08:12:48.705Z</time></trkpt><trkpt lat="43.44816" lon="11.5630633"><ele>568.0</ele><time>2026-04-28T08:12:53.711Z</time></trkpt><trkpt lat="43.448135" lon="11.5629767"><ele>568.0</ele><time>2026-04-28T08:12:54.703Z</time></trkpt><trkpt lat="43.4481167" lon="11.5628717"><ele>568.0</ele><time>2026-04-28T08:12:55.706Z</time></trkpt><trkpt lat="43.448115" lon="11.56276"><ele>568.0</ele><time>2026-04-28T08:12:56.704Z</time></trkpt><trkpt lat="43.448115" lon="11.562655"><ele>569.1999999999999</ele><time>2026-04-28T08:12:57.705Z</time></trkpt><trkpt lat="43.4481017" lon="11.562555"><ele>570.4</ele><time>2026-04-28T08:12:58.705Z</time></trkpt><trkpt lat="43.4480633" lon="11.5624517"><ele>571.5999999999999</ele><time>2026-04-28T08:12:59.704Z</time></trkpt><trkpt lat="43.448" lon="11.5623433"><ele>572.8</ele><time>2026-04-28T08:13:00.705Z</time></trkpt><trkpt lat="43.4479167" lon="11.562235"><ele>574.0</ele><time>2026-04-28T08:13:01.706Z</time></trkpt><trkpt lat="43.4478367" lon="11.562125"><ele>576.0</ele><time>2026-04-28T08:13:02.703Z</time></trkpt><trkpt lat="43.447755" lon="11.5620133"><ele>578.0</ele><time>2026-04-28T08:13:03.704Z</time></trkpt><trkpt lat="43.4476783" lon="11.5619017"><ele>580.0</ele><time>2026-04-28T08:13:04.704Z</time></trkpt><trkpt lat="43.44761" lon="11.5617817"><ele>582.0</ele><time>2026-04-28T08:13:05.705Z</time></trkpt><trkpt lat="43.4475567" lon="11.5616467"><ele>584.0</ele><time>2026-04-28T08:13:06.705Z</time></trkpt><trkpt lat="43.4475083" lon="11.5615233"><ele>584.0</ele><time>2026-04-28T08:13:07.704Z</time></trkpt><trkpt lat="43.4474433" lon="11.5614133"><ele>584.0</ele><time>2026-04-28T08:13:08.705Z</time></trkpt><trkpt lat="43.44736" lon="11.561295"><ele>584.0</ele><time>2026-04-28T08:13:09.704Z</time></trkpt><trkpt lat="43.4472767" lon="11.5611733"><ele>584.0</ele><time>2026-04-28T08:13:10.705Z</time></trkpt><trkpt lat="43.4471967" lon="11.561055"><ele>584.75</ele><time>2026-04-28T08:13:11.704Z</time></trkpt><trkpt lat="43.44712" lon="11.5609283"><ele>585.5</ele><time>2026-04-28T08:13:12.703Z</time></trkpt><trkpt lat="43.44704" lon="11.5608"><ele>586.25</ele><time>2026-04-28T08:13:13.705Z</time></trkpt><trkpt lat="43.4469517" lon="11.5606633"><ele>587.0</ele><time>2026-04-28T08:13:14.705Z</time></trkpt><trkpt lat="43.44686" lon="11.5605283"><ele>587.0</ele><time>2026-04-28T08:13:15.706Z</time></trkpt><trkpt lat="43.4467617" lon="11.5604033"><ele>587.0</ele><time>2026-04-28T08:13:16.704Z</time></trkpt><trkpt lat="43.4466717" lon="11.5602833"><ele>587.0</ele><time>2026-04-28T08:13:17.704Z</time></trkpt><trkpt lat="43.4465933" lon="11.5601717"><ele>587.0</ele><time>2026-04-28T08:13:18.705Z</time></trkpt><trkpt lat="43.4465283" lon="11.5600617"><ele>588.0</ele><time>2026-04-28T08:13:19.705Z</time></trkpt><trkpt lat="43.44647" lon="11.5599617"><ele>589.0</ele><time>2026-04-28T08:13:20.705Z</time></trkpt><trkpt lat="43.4464217" lon="11.5598633"><ele>590.0</ele><time>2026-04-28T08:13:21.706Z</time></trkpt><trkpt lat="43.4463817" lon="11.5597517"><ele>591.0</ele><time>2026-04-28T08:13:22.705Z</time></trkpt><trkpt lat="43.446355" lon="11.5596317"><ele>592.0</ele><time>2026-04-28T08:13:23.703Z</time></trkpt><trkpt lat="43.446325" lon="11.5595317"><ele>593.0</ele><time>2026-04-28T08:13:24.705Z</time></trkpt><trkpt lat="43.4462417" lon="11.5594317"><ele>594.6666666666666</ele><time>2026-04-28T08:13:26.705Z</time></trkpt><trkpt lat="43.4461783" lon="11.5594217"><ele>596.3333333333333</ele><time>2026-04-28T08:13:27.705Z</time></trkpt><trkpt lat="43.4461167" lon="11.5593967"><ele>598.0</ele><time>2026-04-28T08:13:28.705Z</time></trkpt><trkpt lat="43.4460567" lon="11.5593317"><ele>599.6666666666666</ele><time>2026-04-28T08:13:29.704Z</time></trkpt><trkpt lat="43.44599" lon="11.5592433"><ele>601.3333333333334</ele><time>2026-04-28T08:13:30.704Z</time></trkpt><trkpt lat="43.4459083" lon="11.55915"><ele>603.0</ele><time>2026-04-28T08:13:31.707Z</time></trkpt><trkpt lat="43.4458267" lon="11.5590767"><ele>603.0</ele><time>2026-04-28T08:13:32.705Z</time></trkpt><trkpt lat="43.4457567" lon="11.5590167"><ele>603.0</ele><time>2026-04-28T08:13:33.706Z</time></trkpt><trkpt lat="43.4457033" lon="11.558955"><ele>603.0</ele><time>2026-04-28T08:13:34.704Z</time></trkpt><trkpt lat="43.4456767" lon="11.5588133"><ele>603.0</ele><time>2026-04-28T08:13:36.706Z</time></trkpt><trkpt lat="43.4456783" lon="11.5586333"><ele>603.0</ele><time>2026-04-28T08:13:38.704Z</time></trkpt><trkpt lat="43.445665" lon="11.5585217"><ele>603.6</ele><time>2026-04-28T08:13:39.706Z</time></trkpt><trkpt lat="43.44563" lon="11.5583917"><ele>604.1999999999999</ele><time>2026-04-28T08:13:40.703Z</time></trkpt><trkpt lat="43.4455767" lon="11.55826"><ele>604.8</ele><time>2026-04-28T08:13:41.705Z</time></trkpt><trkpt lat="43.4455117" lon="11.5581383"><ele>605.4</ele><time>2026-04-28T08:13:42.703Z</time></trkpt><trkpt lat="43.44543" lon="11.5580217"><ele>606.0</ele><time>2026-04-28T08:13:43.704Z</time></trkpt><trkpt lat="43.4453383" lon="11.5578983"><ele>605.75</ele><time>2026-04-28T08:13:44.704Z</time></trkpt><trkpt lat="43.4452433" lon="11.5577667"><ele>605.5</ele><time>2026-04-28T08:13:45.706Z</time></trkpt><trkpt lat="43.4451483" lon="11.5576283"><ele>605.25</ele><time>2026-04-28T08:13:46.706Z</time></trkpt><trkpt lat="43.4450633" lon="11.5575067"><ele>605.0</ele><time>2026-04-28T08:13:47.705Z</time></trkpt><trkpt lat="43.4449983" lon="11.5574017"><ele>605.0</ele><time>2026-04-28T08:13:48.702Z</time></trkpt><trkpt lat="43.4449467" lon="11.557315"><ele>605.0</ele><time>2026-04-28T08:13:49.704Z</time></trkpt><trkpt lat="43.4448917" lon="11.55724"><ele>605.0</ele><time>2026-04-28T08:13:50.704Z</time></trkpt><trkpt lat="43.4447917" lon="11.557185"><ele>605.0</ele><time>2026-04-28T08:13:51.706Z</time></trkpt><trkpt lat="43.4446667" lon="11.5571367"><ele>605.0</ele><time>2026-04-28T08:13:52.704Z</time></trkpt><trkpt lat="43.4445467" lon="11.5570917"><ele>605.0</ele><time>2026-04-28T08:13:53.702Z</time></trkpt><trkpt lat="43.4444467" lon="11.557055"><ele>605.0</ele><time>2026-04-28T08:13:54.704Z</time></trkpt><trkpt lat="43.4443667" lon="11.5570233"><ele>605.0</ele><time>2026-04-28T08:13:55.706Z</time></trkpt><trkpt lat="43.444275" lon="11.5569733"><ele>605.0</ele><time>2026-04-28T08:13:57.706Z</time></trkpt><trkpt lat="43.4443167" lon="11.5568483"><ele>605.0</ele><time>2026-04-28T08:14:00.705Z</time></trkpt><trkpt lat="43.4443817" lon="11.5567717"><ele>606.0</ele><time>2026-04-28T08:14:01.706Z</time></trkpt><trkpt lat="43.4444383" lon="11.5566783"><ele>607.0</ele><time>2026-04-28T08:14:02.705Z</time></trkpt><trkpt lat="43.4444917" lon="11.5565617"><ele>608.0</ele><time>2026-04-28T08:14:03.705Z</time></trkpt><trkpt lat="43.4445267" lon="11.5564433"><ele>609.0</ele><time>2026-04-28T08:14:04.705Z</time></trkpt><trkpt lat="43.4445583" lon="11.556315"><ele>610.0</ele><time>2026-04-28T08:14:05.704Z</time></trkpt><trkpt lat="43.444575" lon="11.5561833"><ele>610.0</ele><time>2026-04-28T08:14:06.705Z</time></trkpt><trkpt lat="43.4445817" lon="11.5560533"><ele>610.0</ele><time>2026-04-28T08:14:07.705Z</time></trkpt><trkpt lat="43.4445767" lon="11.555935"><ele>610.0</ele><time>2026-04-28T08:14:08.704Z</time></trkpt><trkpt lat="43.4445667" lon="11.5558217"><ele>610.0</ele><time>2026-04-28T08:14:09.706Z</time></trkpt><trkpt lat="43.4445417" lon="11.55571"><ele>610.0</ele><time>2026-04-28T08:14:10.705Z</time></trkpt><trkpt lat="43.4444933" lon="11.5555933"><ele>610.0</ele><time>2026-04-28T08:14:11.703Z</time></trkpt><trkpt lat="43.4444333" lon="11.555475"><ele>608.0</ele><time>2026-04-28T08:14:12.705Z</time></trkpt><trkpt lat="43.4443683" lon="11.5553633"><ele>606.0</ele><time>2026-04-28T08:14:13.705Z</time></trkpt><trkpt lat="43.4443117" lon="11.5552433"><ele>604.0</ele><time>2026-04-28T08:14:14.705Z</time></trkpt><trkpt lat="43.4442617" lon="11.5551083"><ele>602.0</ele><time>2026-04-28T08:14:15.706Z</time></trkpt><trkpt lat="43.4442033" lon="11.55498"><ele>600.0</ele><time>2026-04-28T08:14:16.704Z</time></trkpt><trkpt lat="43.4441383" lon="11.5548517"><ele>600.0</ele><time>2026-04-28T08:14:17.704Z</time></trkpt><trkpt lat="43.4440733" lon="11.5547133"><ele>600.0</ele><time>2026-04-28T08:14:18.705Z</time></trkpt><trkpt lat="43.444015" lon="11.5545683"><ele>600.0</ele><time>2026-04-28T08:14:19.703Z</time></trkpt><trkpt lat="43.443955" lon="11.5544167"><ele>600.0</ele><time>2026-04-28T08:14:20.703Z</time></trkpt><trkpt lat="43.443895" lon="11.554255"><ele>597.25</ele><time>2026-04-28T08:14:21.706Z</time></trkpt><trkpt lat="43.4438433" lon="11.5541"><ele>594.5</ele><time>2026-04-28T08:14:22.704Z</time></trkpt><trkpt lat="43.4437917" lon="11.5539567"><ele>591.75</ele><time>2026-04-28T08:14:23.704Z</time></trkpt><trkpt lat="43.4437517" lon="11.5538167"><ele>589.0</ele><time>2026-04-28T08:14:24.705Z</time></trkpt><trkpt lat="43.4437167" lon="11.55368"><ele>593.6</ele><time>2026-04-28T08:14:25.706Z</time></trkpt><trkpt lat="43.4436817" lon="11.5535567"><ele>598.2</ele><time>2026-04-28T08:14:26.705Z</time></trkpt><trkpt lat="43.443655" lon="11.5534417"><ele>602.8000000000001</ele><time>2026-04-28T08:14:27.706Z</time></trkpt><trkpt lat="43.4436283" lon="11.5533267"><ele>607.4</ele><time>2026-04-28T08:14:28.705Z</time></trkpt><trkpt lat="43.4435933" lon="11.553205"><ele>612.0</ele><time>2026-04-28T08:14:29.703Z</time></trkpt><trkpt lat="43.4435417" lon="11.5530667"><ele>612.0</ele><time>2026-04-28T08:14:30.704Z</time></trkpt><trkpt lat="43.44348" lon="11.552925"><ele>612.0</ele><time>2026-04-28T08:14:31.705Z</time></trkpt><trkpt lat="43.443425" lon="11.5527817"><ele>612.0</ele><time>2026-04-28T08:14:32.7Z</time></trkpt><trkpt lat="43.443375" lon="11.5526417"><ele>612.0</ele><time>2026-04-28T08:14:33.704Z</time></trkpt><trkpt lat="43.44332" lon="11.5525083"><ele>607.25</ele><time>2026-04-28T08:14:34.704Z</time></trkpt><trkpt lat="43.4432683" lon="11.5523717"><ele>602.5</ele><time>2026-04-28T08:14:35.704Z</time></trkpt><trkpt lat="43.443215" lon="11.5522283"><ele>597.75</ele><time>2026-04-28T08:14:36.705Z</time></trkpt><trkpt lat="43.44316" lon="11.55209"><ele>593.0</ele><time>2026-04-28T08:14:37.705Z</time></trkpt><trkpt lat="43.4430983" lon="11.5519633"><ele>593.4</ele><time>2026-04-28T08:14:38.705Z</time></trkpt><trkpt lat="43.44303" lon="11.5518367"><ele>593.8</ele><time>2026-04-28T08:14:39.705Z</time></trkpt><trkpt lat="43.442955" lon="11.5517267"><ele>594.2</ele><time>2026-04-28T08:14:40.704Z</time></trkpt><trkpt lat="43.4428883" lon="11.5516117"><ele>594.6</ele><time>2026-04-28T08:14:41.705Z</time></trkpt><trkpt lat="43.4428267" lon="11.5515"><ele>595.0</ele><time>2026-04-28T08:14:42.706Z</time></trkpt><trkpt lat="43.4427667" lon="11.5513917"><ele>595.0</ele><time>2026-04-28T08:14:43.707Z</time></trkpt><trkpt lat="43.4427067" lon="11.5512883"><ele>595.0</ele><time>2026-04-28T08:14:44.706Z</time></trkpt><trkpt lat="43.442635" lon="11.5511933"><ele>595.0</ele><time>2026-04-28T08:14:45.706Z</time></trkpt><trkpt lat="43.4425517" lon="11.5510983"><ele>595.0</ele><time>2026-04-28T08:14:46.705Z</time></trkpt><trkpt lat="43.4424617" lon="11.5510017"><ele>595.0</ele><time>2026-04-28T08:14:47.705Z</time></trkpt><trkpt lat="43.4423867" lon="11.5508783"><ele>594.25</ele><time>2026-04-28T08:14:48.705Z</time></trkpt><trkpt lat="43.4423217" lon="11.5507317"><ele>593.5</ele><time>2026-04-28T08:14:49.705Z</time></trkpt><trkpt lat="43.442255" lon="11.5505633"><ele>592.75</ele><time>2026-04-28T08:14:50.706Z</time></trkpt><trkpt lat="43.4421917" lon="11.5503917"><ele>592.0</ele><time>2026-04-28T08:14:51.707Z</time></trkpt><trkpt lat="43.4421367" lon="11.5502467"><ele>592.0</ele><time>2026-04-28T08:14:52.705Z</time></trkpt><trkpt lat="43.4421017" lon="11.5501267"><ele>592.0</ele><time>2026-04-28T08:14:53.705Z</time></trkpt><trkpt lat="43.4420933" lon="11.5500133"><ele>592.0</ele><time>2026-04-28T08:14:54.705Z</time></trkpt><trkpt lat="43.4421133" lon="11.549905"><ele>592.0</ele><time>2026-04-28T08:14:55.705Z</time></trkpt><trkpt lat="43.4421617" lon="11.5497867"><ele>592.0</ele><time>2026-04-28T08:14:56.706Z</time></trkpt><trkpt lat="43.442205" lon="11.54966"><ele>592.5</ele><time>2026-04-28T08:14:57.706Z</time></trkpt><trkpt lat="43.4422367" lon="11.5495267"><ele>593.0</ele><time>2026-04-28T08:14:58.705Z</time></trkpt><trkpt lat="43.4422617" lon="11.54938"><ele>593.5</ele><time>2026-04-28T08:14:59.706Z</time></trkpt><trkpt lat="43.4422767" lon="11.5492117"><ele>594.0</ele><time>2026-04-28T08:15:00.705Z</time></trkpt><trkpt lat="43.4422833" lon="11.5490183"><ele>594.0</ele><time>2026-04-28T08:15:01.714Z</time></trkpt><trkpt lat="43.4422883" lon="11.5488233"><ele>594.0</ele><time>2026-04-28T08:15:02.705Z</time></trkpt><trkpt lat="43.442295" lon="11.5486367"><ele>594.0</ele><time>2026-04-28T08:15:03.706Z</time></trkpt><trkpt lat="43.4423017" lon="11.5484567"><ele>594.0</ele><time>2026-04-28T08:15:04.705Z</time></trkpt><trkpt lat="43.4423067" lon="11.5482967"><ele>593.6</ele><time>2026-04-28T08:15:05.705Z</time></trkpt><trkpt lat="43.4423033" lon="11.5481517"><ele>593.2</ele><time>2026-04-28T08:15:06.706Z</time></trkpt><trkpt lat="43.4422917" lon="11.5480067"><ele>592.8000000000001</ele><time>2026-04-28T08:15:07.707Z</time></trkpt><trkpt lat="43.4422733" lon="11.5478617"><ele>592.4</ele><time>2026-04-28T08:15:08.705Z</time></trkpt><trkpt lat="43.44224" lon="11.5477283"><ele>592.0</ele><time>2026-04-28T08:15:09.706Z</time></trkpt><trkpt lat="43.4422" lon="11.5476033"><ele>592.0</ele><time>2026-04-28T08:15:10.706Z</time></trkpt><trkpt lat="43.44216" lon="11.547485"><ele>592.0</ele><time>2026-04-28T08:15:11.705Z</time></trkpt><trkpt lat="43.4421317" lon="11.54736"><ele>592.0</ele><time>2026-04-28T08:15:12.705Z</time></trkpt><trkpt lat="43.44212" lon="11.5472267"><ele>592.0</ele><time>2026-04-28T08:15:13.708Z</time></trkpt><trkpt lat="43.44212" lon="11.5470983"><ele>592.0</ele><time>2026-04-28T08:15:14.705Z</time></trkpt><trkpt lat="43.4421383" lon="11.5469833"><ele>593.8000000000001</ele><time>2026-04-28T08:15:15.705Z</time></trkpt><trkpt lat="43.4421683" lon="11.5468667"><ele>595.6</ele><time>2026-04-28T08:15:16.706Z</time></trkpt><trkpt lat="43.4422133" lon="11.5467483"><ele>597.4000000000001</ele><time>2026-04-28T08:15:17.705Z</time></trkpt><trkpt lat="43.44227" lon="11.5466317"><ele>599.2</ele><time>2026-04-28T08:15:18.705Z</time></trkpt><trkpt lat="43.4423467" lon="11.5465117"><ele>601.0</ele><time>2026-04-28T08:15:19.706Z</time></trkpt><trkpt lat="43.4424283" lon="11.546415"><ele>601.0</ele><time>2026-04-28T08:15:20.705Z</time></trkpt><trkpt lat="43.44251" lon="11.5463417"><ele>601.0</ele><time>2026-04-28T08:15:21.706Z</time></trkpt><trkpt lat="43.44259" lon="11.5462917"><ele>601.0</ele><time>2026-04-28T08:15:22.705Z</time></trkpt><trkpt lat="43.4426667" lon="11.5462433"><ele>601.0</ele><time>2026-04-28T08:15:23.705Z</time></trkpt><trkpt lat="43.4427333" lon="11.54619"><ele>601.0</ele><time>2026-04-28T08:15:24.706Z</time></trkpt><trkpt lat="43.4427967" lon="11.5461217"><ele>601.0</ele><time>2026-04-28T08:15:25.708Z</time></trkpt><trkpt lat="43.44285" lon="11.5460417"><ele>601.0</ele><time>2026-04-28T08:15:26.7Z</time></trkpt><trkpt lat="43.4428917" lon="11.5459467"><ele>601.0</ele><time>2026-04-28T08:15:27.707Z</time></trkpt><trkpt lat="43.4429167" lon="11.5458417"><ele>601.0</ele><time>2026-04-28T08:15:28.704Z</time></trkpt><trkpt lat="43.4429233" lon="11.5457233"><ele>601.0</ele><time>2026-04-28T08:15:29.705Z</time></trkpt><trkpt lat="43.44291" lon="11.5455917"><ele>601.0</ele><time>2026-04-28T08:15:30.706Z</time></trkpt><trkpt lat="43.4428717" lon="11.54546"><ele>601.0</ele><time>2026-04-28T08:15:31.709Z</time></trkpt><trkpt lat="43.4428317" lon="11.54534"><ele>601.0</ele><time>2026-04-28T08:15:32.706Z</time></trkpt><trkpt lat="43.44279" lon="11.545225"><ele>601.0</ele><time>2026-04-28T08:15:33.705Z</time></trkpt><trkpt lat="43.4427533" lon="11.5451067"><ele>601.0</ele><time>2026-04-28T08:15:34.704Z</time></trkpt><trkpt lat="43.442715" lon="11.5449817"><ele>601.0</ele><time>2026-04-28T08:15:35.704Z</time></trkpt><trkpt lat="43.4426617" lon="11.54486"><ele>601.0</ele><time>2026-04-28T08:15:36.705Z</time></trkpt><trkpt lat="43.4426" lon="11.54475"><ele>601.0</ele><time>2026-04-28T08:15:37.705Z</time></trkpt><trkpt lat="43.4425467" lon="11.5446483"><ele>601.0</ele><time>2026-04-28T08:15:38.704Z</time></trkpt><trkpt lat="43.4424983" lon="11.5445617"><ele>601.0</ele><time>2026-04-28T08:15:39.706Z</time></trkpt><trkpt lat="43.4424417" lon="11.5444817"><ele>601.0</ele><time>2026-04-28T08:15:40.703Z</time></trkpt><trkpt lat="43.4424" lon="11.5443967"><ele>601.0</ele><time>2026-04-28T08:15:41.704Z</time></trkpt><trkpt lat="43.4423633" lon="11.5443"><ele>601.0</ele><time>2026-04-28T08:15:42.704Z</time></trkpt><trkpt lat="43.4423383" lon="11.5441917"><ele>599.1666666666667</ele><time>2026-04-28T08:15:43.705Z</time></trkpt><trkpt lat="43.4423217" lon="11.5440833"><ele>597.3333333333334</ele><time>2026-04-28T08:15:44.705Z</time></trkpt><trkpt lat="43.4423033" lon="11.54397"><ele>595.5</ele><time>2026-04-28T08:15:45.706Z</time></trkpt><trkpt lat="43.4422817" lon="11.5438567"><ele>593.6666666666666</ele><time>2026-04-28T08:15:46.705Z</time></trkpt><trkpt lat="43.4422583" lon="11.543745"><ele>591.8333333333333</ele><time>2026-04-28T08:15:47.703Z</time></trkpt><trkpt lat="43.442235" lon="11.543625"><ele>590.0</ele><time>2026-04-28T08:15:48.704Z</time></trkpt><trkpt lat="43.4422333" lon="11.5434917"><ele>589.2</ele><time>2026-04-28T08:15:49.705Z</time></trkpt><trkpt lat="43.4422367" lon="11.543355"><ele>588.4</ele><time>2026-04-28T08:15:50.704Z</time></trkpt><trkpt lat="43.442255" lon="11.54322"><ele>587.6</ele><time>2026-04-28T08:15:51.706Z</time></trkpt><trkpt lat="43.4422817" lon="11.5430933"><ele>586.8</ele><time>2026-04-28T08:15:52.705Z</time></trkpt><trkpt lat="43.4423083" lon="11.5429867"><ele>586.0</ele><time>2026-04-28T08:15:53.704Z</time></trkpt><trkpt lat="43.44232" lon="11.5428833"><ele>585.6666666666667</ele><time>2026-04-28T08:15:54.705Z</time></trkpt><trkpt lat="43.4423083" lon="11.5427817"><ele>585.3333333333334</ele><time>2026-04-28T08:15:55.704Z</time></trkpt><trkpt lat="43.4422733" lon="11.542685"><ele>585.0</ele><time>2026-04-28T08:15:56.704Z</time></trkpt><trkpt lat="43.442225" lon="11.5425983"><ele>584.6666666666666</ele><time>2026-04-28T08:15:57.707Z</time></trkpt><trkpt lat="43.4421817" lon="11.5425083"><ele>584.3333333333333</ele><time>2026-04-28T08:15:58.707Z</time></trkpt><trkpt lat="43.4421417" lon="11.5424083"><ele>584.0</ele><time>2026-04-28T08:15:59.706Z</time></trkpt><trkpt lat="43.4421033" lon="11.5423067"><ele>583.0</ele><time>2026-04-28T08:16:00.706Z</time></trkpt><trkpt lat="43.442075" lon="11.5422017"><ele>582.0</ele><time>2026-04-28T08:16:01.707Z</time></trkpt><trkpt lat="43.4420567" lon="11.5420933"><ele>581.0</ele><time>2026-04-28T08:16:02.705Z</time></trkpt><trkpt lat="43.4420517" lon="11.5419867"><ele>580.0</ele><time>2026-04-28T08:16:03.706Z</time></trkpt><trkpt lat="43.4420567" lon="11.5418733"><ele>579.0</ele><time>2026-04-28T08:16:04.706Z</time></trkpt><trkpt lat="43.4420617" lon="11.54175"><ele>578.0</ele><time>2026-04-28T08:16:05.706Z</time></trkpt><trkpt lat="43.44207" lon="11.54162"><ele>581.8</ele><time>2026-04-28T08:16:06.706Z</time></trkpt><trkpt lat="43.442075" lon="11.5414833"><ele>585.5999999999999</ele><time>2026-04-28T08:16:07.706Z</time></trkpt><trkpt lat="43.4420833" lon="11.54136"><ele>589.4000000000001</ele><time>2026-04-28T08:16:08.706Z</time></trkpt><trkpt lat="43.442085" lon="11.5412567"><ele>593.2</ele><time>2026-04-28T08:16:09.706Z</time></trkpt><trkpt lat="43.4420583" lon="11.5410867"><ele>597.0</ele><time>2026-04-28T08:16:11.705Z</time></trkpt><trkpt lat="43.4420433" lon="11.54099"><ele>600.2</ele><time>2026-04-28T08:16:12.705Z</time></trkpt><trkpt lat="43.44203" lon="11.5408717"><ele>603.4000000000001</ele><time>2026-04-28T08:16:13.705Z</time></trkpt><trkpt lat="43.4420067" lon="11.5407483"><ele>606.5999999999999</ele><time>2026-04-28T08:16:14.706Z</time></trkpt><trkpt lat="43.4419933" lon="11.5406133"><ele>609.8</ele><time>2026-04-28T08:16:15.706Z</time></trkpt><trkpt lat="43.4419933" lon="11.5404767"><ele>613.0</ele><time>2026-04-28T08:16:16.704Z</time></trkpt><trkpt lat="43.441995" lon="11.540345"><ele>613.1666666666667</ele><time>2026-04-28T08:16:17.7Z</time></trkpt><trkpt lat="43.441995" lon="11.5402267"><ele>613.3333333333334</ele><time>2026-04-28T08:16:18.706Z</time></trkpt><trkpt lat="43.4419833" lon="11.540115"><ele>613.5</ele><time>2026-04-28T08:16:19.702Z</time></trkpt><trkpt lat="43.441965" lon="11.5399933"><ele>613.6666666666666</ele><time>2026-04-28T08:16:20.705Z</time></trkpt><trkpt lat="43.441945" lon="11.53987"><ele>613.8333333333333</ele><time>2026-04-28T08:16:21.705Z</time></trkpt><trkpt lat="43.4419283" lon="11.5397483"><ele>614.0</ele><time>2026-04-28T08:16:22.709Z</time></trkpt><trkpt lat="43.4419283" lon="11.5396217"><ele>613.4</ele><time>2026-04-28T08:16:23.705Z</time></trkpt><trkpt lat="43.44194" lon="11.5394767"><ele>612.8</ele><time>2026-04-28T08:16:24.703Z</time></trkpt><trkpt lat="43.44195" lon="11.539335"><ele>612.2</ele><time>2026-04-28T08:16:25.705Z</time></trkpt><trkpt lat="43.4419633" lon="11.5392033"><ele>611.6</ele><time>2026-04-28T08:16:26.706Z</time></trkpt><trkpt lat="43.4419717" lon="11.5390833"><ele>611.0</ele><time>2026-04-28T08:16:27.705Z</time></trkpt><trkpt lat="43.4419683" lon="11.5389833"><ele>611.0</ele><time>2026-04-28T08:16:28.704Z</time></trkpt><trkpt lat="43.4419433" lon="11.53884"><ele>611.0</ele><time>2026-04-28T08:16:30.706Z</time></trkpt><trkpt lat="43.4418717" lon="11.53877"><ele>611.0</ele><time>2026-04-28T08:16:32.702Z</time></trkpt><trkpt lat="43.4418467" lon="11.5386583"><ele>611.0</ele><time>2026-04-28T08:16:35.704Z</time></trkpt><trkpt lat="43.4418817" lon="11.538575"><ele>611.0</ele><time>2026-04-28T08:16:37.706Z</time></trkpt><trkpt lat="43.4418917" lon="11.5384533"><ele>611.0</ele><time>2026-04-28T08:16:39.706Z</time></trkpt><trkpt lat="43.4418533" lon="11.5383333"><ele>611.0</ele><time>2026-04-28T08:16:41.706Z</time></trkpt><trkpt lat="43.4418433" lon="11.5382333"><ele>611.0</ele><time>2026-04-28T08:16:43.706Z</time></trkpt><trkpt lat="43.4418983" lon="11.5381133"><ele>611.0</ele><time>2026-04-28T08:16:45.706Z</time></trkpt><trkpt lat="43.4419483" lon="11.53796"><ele>611.0</ele><time>2026-04-28T08:16:47.704Z</time></trkpt><trkpt lat="43.4419667" lon="11.5378633"><ele>611.0</ele><time>2026-04-28T08:16:48.705Z</time></trkpt><trkpt lat="43.4419867" lon="11.5377533"><ele>611.6</ele><time>2026-04-28T08:16:49.706Z</time></trkpt><trkpt lat="43.4420067" lon="11.5376333"><ele>612.2</ele><time>2026-04-28T08:16:50.704Z</time></trkpt><trkpt lat="43.4420283" lon="11.5375017"><ele>612.8</ele><time>2026-04-28T08:16:51.706Z</time></trkpt><trkpt lat="43.4420383" lon="11.53738"><ele>613.4</ele><time>2026-04-28T08:16:52.704Z</time></trkpt><trkpt lat="43.4420467" lon="11.5372783"><ele>614.0</ele><time>2026-04-28T08:16:53.705Z</time></trkpt><trkpt lat="43.4420683" lon="11.537125"><ele>614.6</ele><time>2026-04-28T08:16:55.706Z</time></trkpt><trkpt lat="43.4421017" lon="11.5369667"><ele>615.2</ele><time>2026-04-28T08:16:57.706Z</time></trkpt><trkpt lat="43.4421133" lon="11.53686"><ele>615.8000000000001</ele><time>2026-04-28T08:16:58.705Z</time></trkpt><trkpt lat="43.4421167" lon="11.536745"><ele>616.4</ele><time>2026-04-28T08:16:59.705Z</time></trkpt><trkpt lat="43.4421167" lon="11.5366217"><ele>617.0</ele><time>2026-04-28T08:17:00.705Z</time></trkpt><trkpt lat="43.4421117" lon="11.5364817"><ele>617.0</ele><time>2026-04-28T08:17:01.704Z</time></trkpt><trkpt lat="43.4421017" lon="11.5363517"><ele>617.0</ele><time>2026-04-28T08:17:02.705Z</time></trkpt><trkpt lat="43.4421" lon="11.53622"><ele>617.0</ele><time>2026-04-28T08:17:03.706Z</time></trkpt><trkpt lat="43.4421017" lon="11.5361"><ele>617.0</ele><time>2026-04-28T08:17:04.705Z</time></trkpt><trkpt lat="43.44211" lon="11.53599"><ele>617.0</ele><time>2026-04-28T08:17:05.705Z</time></trkpt><trkpt lat="43.4421117" lon="11.5359017"><ele>617.0</ele><time>2026-04-28T08:17:06.705Z</time></trkpt><trkpt lat="43.4421267" lon="11.5357667"><ele>619.8000000000001</ele><time>2026-04-28T08:17:08.706Z</time></trkpt><trkpt lat="43.442195" lon="11.5356833"><ele>622.6</ele><time>2026-04-28T08:17:10.705Z</time></trkpt><trkpt lat="43.4422583" lon="11.5355933"><ele>625.4000000000001</ele><time>2026-04-28T08:17:12.705Z</time></trkpt><trkpt lat="43.4422817" lon="11.5354167"><ele>628.2</ele><time>2026-04-28T08:17:14.704Z</time></trkpt><trkpt lat="43.4422783" lon="11.53531"><ele>631.0</ele><time>2026-04-28T08:17:15.705Z</time></trkpt><trkpt lat="43.442275" lon="11.5352083"><ele>631.5</ele><time>2026-04-28T08:17:16.707Z</time></trkpt><trkpt lat="43.44227" lon="11.5351033"><ele>632.0</ele><time>2026-04-28T08:17:17.706Z</time></trkpt><trkpt lat="43.4422617" lon="11.5350117"><ele>632.5</ele><time>2026-04-28T08:17:18.705Z</time></trkpt><trkpt lat="43.44224" lon="11.53493"><ele>633.0</ele><time>2026-04-28T08:17:19.706Z</time></trkpt><trkpt lat="43.4422183" lon="11.5348467"><ele>633.5</ele><time>2026-04-28T08:17:20.706Z</time></trkpt><trkpt lat="43.44213" lon="11.5347283"><ele>634.0</ele><time>2026-04-28T08:17:22.705Z</time></trkpt><trkpt lat="43.44207" lon="11.53469"><ele>634.0</ele><time>2026-04-28T08:17:23.705Z</time></trkpt><trkpt lat="43.4420067" lon="11.53467"><ele>634.0</ele><time>2026-04-28T08:17:24.705Z</time></trkpt><trkpt lat="43.4418883" lon="11.53465"><ele>634.0</ele><time>2026-04-28T08:17:26.706Z</time></trkpt><trkpt lat="43.4417767" lon="11.53457"><ele>634.0</ele><time>2026-04-28T08:17:28.706Z</time></trkpt><trkpt lat="43.44171" lon="11.534485"><ele>634.0</ele><time>2026-04-28T08:17:29.706Z</time></trkpt><trkpt lat="43.4416367" lon="11.534375"><ele>636.0</ele><time>2026-04-28T08:17:30.705Z</time></trkpt><trkpt lat="43.441575" lon="11.5342733"><ele>638.0</ele><time>2026-04-28T08:17:31.704Z</time></trkpt><trkpt lat="43.4415317" lon="11.5341717"><ele>640.0</ele><time>2026-04-28T08:17:32.705Z</time></trkpt><trkpt lat="43.4414933" lon="11.53409"><ele>642.0</ele><time>2026-04-28T08:17:33.707Z</time></trkpt><trkpt lat="43.4414517" lon="11.533925"><ele>644.0</ele><time>2026-04-28T08:17:35.706Z</time></trkpt><trkpt lat="43.441465" lon="11.533735"><ele>644.3333333333333</ele><time>2026-04-28T08:17:37.706Z</time></trkpt><trkpt lat="43.4414617" lon="11.533635"><ele>644.6666666666666</ele><time>2026-04-28T08:17:38.705Z</time></trkpt><trkpt lat="43.4414667" lon="11.5335367"><ele>645.0</ele><time>2026-04-28T08:17:39.709Z</time></trkpt><trkpt lat="43.441455" lon="11.5334383"><ele>645.3333333333334</ele><time>2026-04-28T08:17:40.707Z</time></trkpt><trkpt lat="43.4414333" lon="11.5333233"><ele>645.6666666666667</ele><time>2026-04-28T08:17:41.705Z</time></trkpt><trkpt lat="43.4414067" lon="11.5331883"><ele>646.0</ele><time>2026-04-28T08:17:42.705Z</time></trkpt><trkpt lat="43.44138" lon="11.53307"><ele>646.0</ele><time>2026-04-28T08:17:43.707Z</time></trkpt><trkpt lat="43.4413633" lon="11.5329517"><ele>646.0</ele><time>2026-04-28T08:17:44.704Z</time></trkpt><trkpt lat="43.44135" lon="11.5328433"><ele>646.0</ele><time>2026-04-28T08:17:45.706Z</time></trkpt><trkpt lat="43.4413383" lon="11.5327483"><ele>646.0</ele><time>2026-04-28T08:17:46.705Z</time></trkpt><trkpt lat="43.4413417" lon="11.532575"><ele>646.0</ele><time>2026-04-28T08:17:48.706Z</time></trkpt><trkpt lat="43.44135" lon="11.5324633"><ele>646.0</ele><time>2026-04-28T08:17:49.702Z</time></trkpt><trkpt lat="43.44136" lon="11.5323333"><ele>646.6666666666667</ele><time>2026-04-28T08:17:50.707Z</time></trkpt><trkpt lat="43.4413817" lon="11.53221"><ele>647.3333333333334</ele><time>2026-04-28T08:17:51.707Z</time></trkpt><trkpt lat="43.441405" lon="11.532095"><ele>648.0</ele><time>2026-04-28T08:17:52.705Z</time></trkpt><trkpt lat="43.441425" lon="11.5319767"><ele>648.6666666666666</ele><time>2026-04-28T08:17:53.705Z</time></trkpt><trkpt lat="43.4414317" lon="11.5318633"><ele>649.3333333333333</ele><time>2026-04-28T08:17:54.706Z</time></trkpt><trkpt lat="43.4414333" lon="11.5317467"><ele>650.0</ele><time>2026-04-28T08:17:55.706Z</time></trkpt><trkpt lat="43.441425" lon="11.5316467"><ele>651.0</ele><time>2026-04-28T08:17:56.708Z</time></trkpt><trkpt lat="43.4414" lon="11.5315383"><ele>652.0</ele><time>2026-04-28T08:17:57.707Z</time></trkpt><trkpt lat="43.4413683" lon="11.531435"><ele>653.0</ele><time>2026-04-28T08:17:58.708Z</time></trkpt><trkpt lat="43.4413383" lon="11.5313333"><ele>654.0</ele><time>2026-04-28T08:17:59.704Z</time></trkpt><trkpt lat="43.4413083" lon="11.5312333"><ele>655.0</ele><time>2026-04-28T08:18:00.706Z</time></trkpt><trkpt lat="43.4412883" lon="11.5311317"><ele>656.0</ele><time>2026-04-28T08:18:01.707Z</time></trkpt><trkpt lat="43.441275" lon="11.531025"><ele>653.6666666666666</ele><time>2026-04-28T08:18:02.707Z</time></trkpt><trkpt lat="43.4412733" lon="11.53091"><ele>651.3333333333333</ele><time>2026-04-28T08:18:03.707Z</time></trkpt><trkpt lat="43.4412717" lon="11.53081"><ele>649.0</ele><time>2026-04-28T08:18:04.707Z</time></trkpt><trkpt lat="43.4412733" lon="11.5307167"><ele>646.6666666666666</ele><time>2026-04-28T08:18:05.706Z</time></trkpt><trkpt lat="43.4412783" lon="11.5305717"><ele>644.3333333333334</ele><time>2026-04-28T08:18:07.706Z</time></trkpt><trkpt lat="43.4412933" lon="11.5304417"><ele>642.0</ele><time>2026-04-28T08:18:09.707Z</time></trkpt><trkpt lat="43.4413083" lon="11.530335"><ele>639.8000000000001</ele><time>2026-04-28T08:18:11.704Z</time></trkpt><trkpt lat="43.4412917" lon="11.5302117"><ele>637.6</ele><time>2026-04-28T08:18:14.706Z</time></trkpt><trkpt lat="43.44122" lon="11.5301233"><ele>635.4000000000001</ele><time>2026-04-28T08:18:16.705Z</time></trkpt><trkpt lat="43.4411567" lon="11.5301183"><ele>633.2</ele><time>2026-04-28T08:18:17.706Z</time></trkpt><trkpt lat="43.4410433" lon="11.5301067"><ele>631.0</ele><time>2026-04-28T08:18:19.705Z</time></trkpt><trkpt lat="43.4409367" lon="11.5300917"><ele>631.0</ele><time>2026-04-28T08:18:21.707Z</time></trkpt><trkpt lat="43.440855" lon="11.5300383"><ele>631.0</ele><time>2026-04-28T08:18:23.705Z</time></trkpt><trkpt lat="43.44087" lon="11.52993"><ele>631.0</ele><time>2026-04-28T08:18:26.704Z</time></trkpt><trkpt lat="43.4409433" lon="11.5298583"><ele>631.0</ele><time>2026-04-28T08:18:28.7Z</time></trkpt><trkpt lat="43.44095" lon="11.5297567"><ele>631.0</ele><time>2026-04-28T08:18:30.706Z</time></trkpt><trkpt lat="43.4409017" lon="11.529685"><ele>631.0</ele><time>2026-04-28T08:18:32.705Z</time></trkpt><trkpt lat="43.4408533" lon="11.5296133"><ele>628.25</ele><time>2026-04-28T08:18:34.705Z</time></trkpt><trkpt lat="43.4408283" lon="11.529395"><ele>625.5</ele><time>2026-04-28T08:18:36.705Z</time></trkpt><trkpt lat="43.4408233" lon="11.52923"><ele>622.75</ele><time>2026-04-28T08:18:37.705Z</time></trkpt><trkpt lat="43.4408233" lon="11.5290583"><ele>620.0</ele><time>2026-04-28T08:18:38.705Z</time></trkpt><trkpt lat="43.4408267" lon="11.528895"><ele>620.0</ele><time>2026-04-28T08:18:39.706Z</time></trkpt><trkpt lat="43.440835" lon="11.5287517"><ele>620.0</ele><time>2026-04-28T08:18:40.706Z</time></trkpt><trkpt lat="43.44086" lon="11.528605"><ele>620.0</ele><time>2026-04-28T08:18:41.705Z</time></trkpt><trkpt lat="43.4409017" lon="11.5284617"><ele>620.0</ele><time>2026-04-28T08:18:42.706Z</time></trkpt><trkpt lat="43.440955" lon="11.5283233"><ele>620.0</ele><time>2026-04-28T08:18:43.707Z</time></trkpt><trkpt lat="43.441015" lon="11.5281833"><ele>620.5</ele><time>2026-04-28T08:18:44.706Z</time></trkpt><trkpt lat="43.4410767" lon="11.5280433"><ele>621.0</ele><time>2026-04-28T08:18:45.708Z</time></trkpt><trkpt lat="43.44114" lon="11.5279083"><ele>621.5</ele><time>2026-04-28T08:18:46.707Z</time></trkpt><trkpt lat="43.4412167" lon="11.5277817"><ele>622.0</ele><time>2026-04-28T08:18:47.705Z</time></trkpt><trkpt lat="43.441295" lon="11.5276683"><ele>619.5</ele><time>2026-04-28T08:18:48.705Z</time></trkpt><trkpt lat="43.4413883" lon="11.5275667"><ele>617.0</ele><time>2026-04-28T08:18:49.706Z</time></trkpt><trkpt lat="43.4414883" lon="11.5274867"><ele>614.5</ele><time>2026-04-28T08:18:50.705Z</time></trkpt><trkpt lat="43.4415983" lon="11.5274183"><ele>612.0</ele><time>2026-04-28T08:18:51.706Z</time></trkpt><trkpt lat="43.4417167" lon="11.5273517"><ele>612.0</ele><time>2026-04-28T08:18:52.704Z</time></trkpt><trkpt lat="43.4418467" lon="11.52728"><ele>612.0</ele><time>2026-04-28T08:18:53.705Z</time></trkpt><trkpt lat="43.4419717" lon="11.5272133"><ele>612.0</ele><time>2026-04-28T08:18:54.705Z</time></trkpt><trkpt lat="43.4420983" lon="11.5271683"><ele>612.0</ele><time>2026-04-28T08:18:55.706Z</time></trkpt><trkpt lat="43.44223" lon="11.527155"><ele>611.25</ele><time>2026-04-28T08:18:56.706Z</time></trkpt><trkpt lat="43.4423583" lon="11.527175"><ele>610.5</ele><time>2026-04-28T08:18:57.706Z</time></trkpt><trkpt lat="43.44249" lon="11.5271983"><ele>609.75</ele><time>2026-04-28T08:18:58.704Z</time></trkpt><trkpt lat="43.4426217" lon="11.5272117"><ele>609.0</ele><time>2026-04-28T08:18:59.704Z</time></trkpt><trkpt lat="43.4427417" lon="11.5272067"><ele>609.0</ele><time>2026-04-28T08:19:00.706Z</time></trkpt><trkpt lat="43.4428467" lon="11.5271883"><ele>609.0</ele><time>2026-04-28T08:19:01.704Z</time></trkpt><trkpt lat="43.4429333" lon="11.5271383"><ele>609.0</ele><time>2026-04-28T08:19:02.704Z</time></trkpt><trkpt lat="43.4430017" lon="11.527055"><ele>609.0</ele><time>2026-04-28T08:19:03.705Z</time></trkpt><trkpt lat="43.4430517" lon="11.52696"><ele>609.0</ele><time>2026-04-28T08:19:04.705Z</time></trkpt><trkpt lat="43.4431" lon="11.526855"><ele>610.4</ele><time>2026-04-28T08:19:05.705Z</time></trkpt><trkpt lat="43.4431433" lon="11.5267433"><ele>611.8</ele><time>2026-04-28T08:19:06.706Z</time></trkpt><trkpt lat="43.4431733" lon="11.5266183"><ele>613.2</ele><time>2026-04-28T08:19:07.706Z</time></trkpt><trkpt lat="43.44319" lon="11.52648"><ele>614.6</ele><time>2026-04-28T08:19:08.705Z</time></trkpt><trkpt lat="43.4431867" lon="11.52633"><ele>616.0</ele><time>2026-04-28T08:19:09.706Z</time></trkpt><trkpt lat="43.4431567" lon="11.5261633"><ele>616.0</ele><time>2026-04-28T08:19:10.705Z</time></trkpt><trkpt lat="43.443125" lon="11.52598"><ele>616.0</ele><time>2026-04-28T08:19:11.706Z</time></trkpt><trkpt lat="43.4430733" lon="11.525785"><ele>616.0</ele><time>2026-04-28T08:19:12.706Z</time></trkpt><trkpt lat="43.4430167" lon="11.5255817"><ele>616.0</ele><time>2026-04-28T08:19:13.708Z</time></trkpt><trkpt lat="43.4429467" lon="11.5253833"><ele>617.0</ele><time>2026-04-28T08:19:14.705Z</time></trkpt><trkpt lat="43.44288" lon="11.5251967"><ele>618.0</ele><time>2026-04-28T08:19:15.715Z</time></trkpt><trkpt lat="43.4428167" lon="11.5250267"><ele>619.0</ele><time>2026-04-28T08:19:16.706Z</time></trkpt><trkpt lat="43.4427583" lon="11.52488"><ele>620.0</ele><time>2026-04-28T08:19:17.705Z</time></trkpt><trkpt lat="43.4426867" lon="11.52475"><ele>620.0</ele><time>2026-04-28T08:19:18.705Z</time></trkpt><trkpt lat="43.4425967" lon="11.5246417"><ele>620.0</ele><time>2026-04-28T08:19:19.706Z</time></trkpt><trkpt lat="43.4425033" lon="11.5245367"><ele>620.0</ele><time>2026-04-28T08:19:20.706Z</time></trkpt><trkpt lat="43.44242" lon="11.5244333"><ele>620.0</ele><time>2026-04-28T08:19:21.705Z</time></trkpt><trkpt lat="43.442345" lon="11.524335"><ele>622.6666666666666</ele><time>2026-04-28T08:19:22.705Z</time></trkpt><trkpt lat="43.4422933" lon="11.5242217"><ele>625.3333333333333</ele><time>2026-04-28T08:19:23.705Z</time></trkpt><trkpt lat="43.4422683" lon="11.5241"><ele>628.0</ele><time>2026-04-28T08:19:24.705Z</time></trkpt><trkpt lat="43.4422583" lon="11.5239817"><ele>630.6666666666666</ele><time>2026-04-28T08:19:25.706Z</time></trkpt><trkpt lat="43.442255" lon="11.52387"><ele>633.3333333333334</ele><time>2026-04-28T08:19:26.706Z</time></trkpt><trkpt lat="43.44224" lon="11.5237783"><ele>636.0</ele><time>2026-04-28T08:19:27.706Z</time></trkpt><trkpt lat="43.4422167" lon="11.5236967"><ele>637.25</ele><time>2026-04-28T08:19:28.705Z</time></trkpt><trkpt lat="43.4420617" lon="11.5235883"><ele>638.5</ele><time>2026-04-28T08:19:30.706Z</time></trkpt><trkpt lat="43.441955" lon="11.5235133"><ele>639.75</ele><time>2026-04-28T08:19:31.705Z</time></trkpt><trkpt lat="43.4418367" lon="11.523425"><ele>641.0</ele><time>2026-04-28T08:19:32.705Z</time></trkpt><trkpt lat="43.4417083" lon="11.5233467"><ele>641.0</ele><time>2026-04-28T08:19:33.708Z</time></trkpt><trkpt lat="43.44159" lon="11.5232733"><ele>641.0</ele><time>2026-04-28T08:19:34.705Z</time></trkpt><trkpt lat="43.4414967" lon="11.5232133"><ele>641.0</ele><time>2026-04-28T08:19:35.704Z</time></trkpt><trkpt lat="43.4414317" lon="11.52316"><ele>641.0</ele><time>2026-04-28T08:19:36.706Z</time></trkpt><trkpt lat="43.441375" lon="11.5230367"><ele>641.0</ele><time>2026-04-28T08:19:38.706Z</time></trkpt><trkpt lat="43.4414317" lon="11.522845"><ele>642.4</ele><time>2026-04-28T08:19:40.706Z</time></trkpt><trkpt lat="43.441485" lon="11.5226967"><ele>643.8</ele><time>2026-04-28T08:19:41.704Z</time></trkpt><trkpt lat="43.4415267" lon="11.52254"><ele>645.1999999999999</ele><time>2026-04-28T08:19:42.705Z</time></trkpt><trkpt lat="43.4415633" lon="11.5223967"><ele>646.5999999999999</ele><time>2026-04-28T08:19:43.707Z</time></trkpt><trkpt lat="43.4415967" lon="11.5222833"><ele>648.0</ele><time>2026-04-28T08:19:44.712Z</time></trkpt><trkpt lat="43.4416333" lon="11.5221983"><ele>648.0</ele><time>2026-04-28T08:19:45.706Z</time></trkpt><trkpt lat="43.4417367" lon="11.5221017"><ele>648.0</ele><time>2026-04-28T08:19:47.705Z</time></trkpt><trkpt lat="43.4418" lon="11.5220583"><ele>648.0</ele><time>2026-04-28T08:19:48.705Z</time></trkpt><trkpt lat="43.4418783" lon="11.5219983"><ele>648.0</ele><time>2026-04-28T08:19:49.704Z</time></trkpt><trkpt lat="43.4419617" lon="11.5219167"><ele>648.0</ele><time>2026-04-28T08:19:50.705Z</time></trkpt><trkpt lat="43.442055" lon="11.5218383"><ele>649.0</ele><time>2026-04-28T08:19:51.706Z</time></trkpt><trkpt lat="43.4421533" lon="11.5217483"><ele>650.0</ele><time>2026-04-28T08:19:52.704Z</time></trkpt><trkpt lat="43.44226" lon="11.5216467"><ele>651.0</ele><time>2026-04-28T08:19:53.704Z</time></trkpt><trkpt lat="43.4423633" lon="11.5215383"><ele>652.0</ele><time>2026-04-28T08:19:54.705Z</time></trkpt><trkpt lat="43.4424567" lon="11.5214317"><ele>652.0</ele><time>2026-04-28T08:19:55.704Z</time></trkpt><trkpt lat="43.4425383" lon="11.5213233"><ele>652.0</ele><time>2026-04-28T08:19:56.704Z</time></trkpt><trkpt lat="43.4426167" lon="11.52119"><ele>652.0</ele><time>2026-04-28T08:19:57.706Z</time></trkpt><trkpt lat="43.442685" lon="11.5210267"><ele>652.0</ele><time>2026-04-28T08:19:58.7Z</time></trkpt><trkpt lat="43.442755" lon="11.5208333"><ele>651.0</ele><time>2026-04-28T08:19:59.703Z</time></trkpt><trkpt lat="43.4428283" lon="11.520625"><ele>650.0</ele><time>2026-04-28T08:20:00.702Z</time></trkpt><trkpt lat="43.4429017" lon="11.520435"><ele>649.0</ele><time>2026-04-28T08:20:01.706Z</time></trkpt><trkpt lat="43.4429633" lon="11.5202617"><ele>649.8000000000001</ele><time>2026-04-28T08:20:02.704Z</time></trkpt><trkpt lat="43.4430183" lon="11.5201217"><ele>650.6</ele><time>2026-04-28T08:20:03.706Z</time></trkpt><trkpt lat="43.4430633" lon="11.5200233"><ele>651.4</ele><time>2026-04-28T08:20:04.705Z</time></trkpt><trkpt lat="43.4431217" lon="11.519905"><ele>652.2</ele><time>2026-04-28T08:20:06.705Z</time></trkpt><trkpt lat="43.4431083" lon="11.51982"><ele>653.0</ele><time>2026-04-28T08:20:09.707Z</time></trkpt><trkpt lat="43.4430183" lon="11.5197817"><ele>653.0</ele><time>2026-04-28T08:20:11.704Z</time></trkpt><trkpt lat="43.4429267" lon="11.519675"><ele>653.0</ele><time>2026-04-28T08:20:13.704Z</time></trkpt><trkpt lat="43.442875" lon="11.5196083"><ele>653.0</ele><time>2026-04-28T08:20:14.707Z</time></trkpt><trkpt lat="43.4428233" lon="11.519535"><ele>653.0</ele><time>2026-04-28T08:20:15.707Z</time></trkpt><trkpt lat="43.4427833" lon="11.5194517"><ele>653.0</ele><time>2026-04-28T08:20:16.704Z</time></trkpt><trkpt lat="43.4427583" lon="11.5193533"><ele>653.0</ele><time>2026-04-28T08:20:17.705Z</time></trkpt><trkpt lat="43.44275" lon="11.5192383"><ele>653.0</ele><time>2026-04-28T08:20:18.703Z</time></trkpt><trkpt lat="43.4427633" lon="11.5191133"><ele>653.0</ele><time>2026-04-28T08:20:19.704Z</time></trkpt><trkpt lat="43.442775" lon="11.5189933"><ele>653.0</ele><time>2026-04-28T08:20:20.705Z</time></trkpt><trkpt lat="43.4427883" lon="11.5188683"><ele>653.0</ele><time>2026-04-28T08:20:21.705Z</time></trkpt><trkpt lat="43.442795" lon="11.5187567"><ele>653.0</ele><time>2026-04-28T08:20:22.705Z</time></trkpt><trkpt lat="43.4428033" lon="11.5186533"><ele>653.0</ele><time>2026-04-28T08:20:23.704Z</time></trkpt><trkpt lat="43.4428217" lon="11.518545"><ele>653.6666666666666</ele><time>2026-04-28T08:20:24.706Z</time></trkpt><trkpt lat="43.4428483" lon="11.5184333"><ele>654.3333333333333</ele><time>2026-04-28T08:20:25.706Z</time></trkpt><trkpt lat="43.442875" lon="11.5183317"><ele>655.0</ele><time>2026-04-28T08:20:26.706Z</time></trkpt><trkpt lat="43.4429" lon="11.5182317"><ele>655.6666666666666</ele><time>2026-04-28T08:20:27.706Z</time></trkpt><trkpt lat="43.4429167" lon="11.5181267"><ele>656.3333333333334</ele><time>2026-04-28T08:20:28.705Z</time></trkpt><trkpt lat="43.4429383" lon="11.5180233"><ele>657.0</ele><time>2026-04-28T08:20:29.703Z</time></trkpt><trkpt lat="43.4429717" lon="11.517915"><ele>660.5</ele><time>2026-04-28T08:20:30.705Z</time></trkpt><trkpt lat="43.443" lon="11.5178067"><ele>664.0</ele><time>2026-04-28T08:20:31.705Z</time></trkpt><trkpt lat="43.443025" lon="11.5176967"><ele>667.5</ele><time>2026-04-28T08:20:32.71Z</time></trkpt><trkpt lat="43.4430417" lon="11.517585"><ele>671.0</ele><time>2026-04-28T08:20:33.704Z</time></trkpt><trkpt lat="43.443055" lon="11.5174717"><ele>674.5</ele><time>2026-04-28T08:20:34.706Z</time></trkpt><trkpt lat="43.4430617" lon="11.5173633"><ele>678.0</ele><time>2026-04-28T08:20:35.705Z</time></trkpt><trkpt lat="43.4430583" lon="11.5172583"><ele>678.0</ele><time>2026-04-28T08:20:36.704Z</time></trkpt><trkpt lat="43.44304" lon="11.5171467"><ele>678.0</ele><time>2026-04-28T08:20:37.707Z</time></trkpt><trkpt lat="43.4430133" lon="11.51703"><ele>678.0</ele><time>2026-04-28T08:20:38.705Z</time></trkpt><trkpt lat="43.4429917" lon="11.5169233"><ele>678.0</ele><time>2026-04-28T08:20:39.707Z</time></trkpt><trkpt lat="43.442965" lon="11.5168233"><ele>678.0</ele><time>2026-04-28T08:20:40.705Z</time></trkpt><trkpt lat="43.442935" lon="11.5167183"><ele>678.0</ele><time>2026-04-28T08:20:41.703Z</time></trkpt><trkpt lat="43.4429017" lon="11.51662"><ele>677.6666666666666</ele><time>2026-04-28T08:20:42.707Z</time></trkpt><trkpt lat="43.4428733" lon="11.516525"><ele>677.3333333333334</ele><time>2026-04-28T08:20:43.706Z</time></trkpt><trkpt lat="43.4428567" lon="11.516435"><ele>677.0</ele><time>2026-04-28T08:20:44.705Z</time></trkpt><trkpt lat="43.4428417" lon="11.51634"><ele>676.6666666666667</ele><time>2026-04-28T08:20:45.715Z</time></trkpt><trkpt lat="43.4428283" lon="11.516235"><ele>676.3333333333334</ele><time>2026-04-28T08:20:46.704Z</time></trkpt><trkpt lat="43.442815" lon="11.51612"><ele>676.0</ele><time>2026-04-28T08:20:47.703Z</time></trkpt><trkpt lat="43.44282" lon="11.5160017"><ele>676.0</ele><time>2026-04-28T08:20:48.705Z</time></trkpt><trkpt lat="43.4428317" lon="11.515885"><ele>676.0</ele><time>2026-04-28T08:20:49.705Z</time></trkpt><trkpt lat="43.442845" lon="11.51577"><ele>676.0</ele><time>2026-04-28T08:20:50.705Z</time></trkpt><trkpt lat="43.4428683" lon="11.51566"><ele>676.0</ele><time>2026-04-28T08:20:51.706Z</time></trkpt><trkpt lat="43.4428917" lon="11.5155667"><ele>676.0</ele><time>2026-04-28T08:20:52.715Z</time></trkpt><trkpt lat="43.4429533" lon="11.5154367"><ele>676.0</ele><time>2026-04-28T08:20:54.704Z</time></trkpt><trkpt lat="43.443075" lon="11.5154133"><ele>677.8571428571429</ele><time>2026-04-28T08:20:56.704Z</time></trkpt><trkpt lat="43.4431433" lon="11.5154217"><ele>679.7142857142857</ele><time>2026-04-28T08:20:57.701Z</time></trkpt><trkpt lat="43.44322" lon="11.5154267"><ele>681.5714285714286</ele><time>2026-04-28T08:20:58.704Z</time></trkpt><trkpt lat="43.443305" lon="11.5154317"><ele>683.4285714285714</ele><time>2026-04-28T08:20:59.704Z</time></trkpt><trkpt lat="43.4433833" lon="11.515435"><ele>685.2857142857143</ele><time>2026-04-28T08:21:00.704Z</time></trkpt><trkpt lat="43.4434517" lon="11.5154283"><ele>687.1428571428571</ele><time>2026-04-28T08:21:01.705Z</time></trkpt><trkpt lat="43.4435217" lon="11.5154117"><ele>689.0</ele><time>2026-04-28T08:21:02.704Z</time></trkpt><trkpt lat="43.4435967" lon="11.5153883"><ele>689.0</ele><time>2026-04-28T08:21:03.704Z</time></trkpt><trkpt lat="43.44369" lon="11.5153483"><ele>689.0</ele><time>2026-04-28T08:21:04.704Z</time></trkpt><trkpt lat="43.443775" lon="11.5153"><ele>689.0</ele><time>2026-04-28T08:21:05.699Z</time></trkpt><trkpt lat="43.4438533" lon="11.5152517"><ele>689.0</ele><time>2026-04-28T08:21:06.71Z</time></trkpt><trkpt lat="43.4439183" lon="11.5152117"><ele>689.0</ele><time>2026-04-28T08:21:07.706Z</time></trkpt><trkpt lat="43.4439783" lon="11.5151717"><ele>689.0</ele><time>2026-04-28T08:21:08.704Z</time></trkpt><trkpt lat="43.4440733" lon="11.515075"><ele>692.3333333333333</ele><time>2026-04-28T08:21:10.704Z</time></trkpt><trkpt lat="43.44411" lon="11.514995"><ele>695.6666666666666</ele><time>2026-04-28T08:21:11.704Z</time></trkpt><trkpt lat="43.4441383" lon="11.5148967"><ele>699.0</ele><time>2026-04-28T08:21:12.704Z</time></trkpt><trkpt lat="43.4441467" lon="11.5147833"><ele>702.3333333333334</ele><time>2026-04-28T08:21:13.704Z</time></trkpt><trkpt lat="43.4441383" lon="11.5146583"><ele>705.6666666666667</ele><time>2026-04-28T08:21:14.703Z</time></trkpt><trkpt lat="43.4441417" lon="11.514545"><ele>709.0</ele><time>2026-04-28T08:21:15.705Z</time></trkpt><trkpt lat="43.44415" lon="11.5144433"><ele>709.1666666666667</ele><time>2026-04-28T08:21:16.706Z</time></trkpt><trkpt lat="43.4441617" lon="11.5143417"><ele>709.3333333333334</ele><time>2026-04-28T08:21:17.705Z</time></trkpt><trkpt lat="43.4441717" lon="11.514235"><ele>709.5</ele><time>2026-04-28T08:21:18.705Z</time></trkpt><trkpt lat="43.44418" lon="11.5141217"><ele>709.6666666666666</ele><time>2026-04-28T08:21:19.705Z</time></trkpt><trkpt lat="43.4441817" lon="11.514"><ele>709.8333333333333</ele><time>2026-04-28T08:21:20.704Z</time></trkpt><trkpt lat="43.4441633" lon="11.5138583"><ele>710.0</ele><time>2026-04-28T08:21:21.706Z</time></trkpt><trkpt lat="43.4441467" lon="11.5137083"><ele>710.0</ele><time>2026-04-28T08:21:22.705Z</time></trkpt><trkpt lat="43.4441317" lon="11.51357"><ele>710.0</ele><time>2026-04-28T08:21:23.705Z</time></trkpt><trkpt lat="43.4441217" lon="11.5134483"><ele>710.0</ele><time>2026-04-28T08:21:24.707Z</time></trkpt><trkpt lat="43.4441233" lon="11.5133317"><ele>710.0</ele><time>2026-04-28T08:21:25.705Z</time></trkpt><trkpt lat="43.4441183" lon="11.513245"><ele>710.0</ele><time>2026-04-28T08:21:26.705Z</time></trkpt><trkpt lat="43.4441883" lon="11.5131033"><ele>710.0</ele><time>2026-04-28T08:21:28.705Z</time></trkpt><trkpt lat="43.44425" lon="11.5130333"><ele>710.0</ele><time>2026-04-28T08:21:29.706Z</time></trkpt><trkpt lat="43.44432" lon="11.5129567"><ele>710.0</ele><time>2026-04-28T08:21:30.703Z</time></trkpt><trkpt lat="43.4443933" lon="11.51288"><ele>710.0</ele><time>2026-04-28T08:21:31.705Z</time></trkpt><trkpt lat="43.444455" lon="11.5127933"><ele>710.0</ele><time>2026-04-28T08:21:32.705Z</time></trkpt><trkpt lat="43.4445167" lon="11.5127"><ele>710.0</ele><time>2026-04-28T08:21:33.706Z</time></trkpt><trkpt lat="43.4445767" lon="11.5126067"><ele>712.8333333333333</ele><time>2026-04-28T08:21:34.705Z</time></trkpt><trkpt lat="43.4446383" lon="11.5125217"><ele>715.6666666666666</ele><time>2026-04-28T08:21:35.704Z</time></trkpt><trkpt lat="43.4447033" lon="11.51245"><ele>718.5</ele><time>2026-04-28T08:21:36.705Z</time></trkpt><trkpt lat="43.44477" lon="11.5123833"><ele>721.3333333333334</ele><time>2026-04-28T08:21:37.707Z</time></trkpt><trkpt lat="43.444835" lon="11.51232"><ele>724.1666666666667</ele><time>2026-04-28T08:21:38.705Z</time></trkpt><trkpt lat="43.4449" lon="11.5122633"><ele>727.0</ele><time>2026-04-28T08:21:39.706Z</time></trkpt><trkpt lat="43.4449717" lon="11.5122233"><ele>727.0</ele><time>2026-04-28T08:21:40.705Z</time></trkpt><trkpt lat="43.4450583" lon="11.5121917"><ele>727.0</ele><time>2026-04-28T08:21:41.706Z</time></trkpt><trkpt lat="43.44516" lon="11.51217"><ele>727.0</ele><time>2026-04-28T08:21:42.706Z</time></trkpt><trkpt lat="43.4452483" lon="11.5121533"><ele>727.0</ele><time>2026-04-28T08:21:43.706Z</time></trkpt><trkpt lat="43.4453217" lon="11.5121417"><ele>727.0</ele><time>2026-04-28T08:21:44.705Z</time></trkpt><trkpt lat="43.4454367" lon="11.51212"><ele>725.2</ele><time>2026-04-28T08:21:46.706Z</time></trkpt><trkpt lat="43.4455083" lon="11.5120633"><ele>723.4000000000001</ele><time>2026-04-28T08:21:48.705Z</time></trkpt><trkpt lat="43.4455383" lon="11.5119267"><ele>721.5999999999999</ele><time>2026-04-28T08:21:50.706Z</time></trkpt><trkpt lat="43.4455383" lon="11.5117667"><ele>719.8</ele><time>2026-04-28T08:21:52.705Z</time></trkpt><trkpt lat="43.44555" lon="11.511615"><ele>718.0</ele><time>2026-04-28T08:21:54.705Z</time></trkpt><trkpt lat="43.4455617" lon="11.511525"><ele>718.0</ele><time>2026-04-28T08:21:55.704Z</time></trkpt><trkpt lat="43.4455617" lon="11.5114167"><ele>718.0</ele><time>2026-04-28T08:21:56.705Z</time></trkpt><trkpt lat="43.44556" lon="11.5112917"><ele>718.0</ele><time>2026-04-28T08:21:57.706Z</time></trkpt><trkpt lat="43.4455583" lon="11.511165"><ele>718.0</ele><time>2026-04-28T08:21:58.704Z</time></trkpt><trkpt lat="43.4455583" lon="11.5110417"><ele>718.0</ele><time>2026-04-28T08:21:59.704Z</time></trkpt><trkpt lat="43.4455633" lon="11.5109317"><ele>718.0</ele><time>2026-04-28T08:22:00.706Z</time></trkpt><trkpt lat="43.4455817" lon="11.51084"><ele>720.1666666666667</ele><time>2026-04-28T08:22:01.705Z</time></trkpt><trkpt lat="43.4456267" lon="11.5107133"><ele>722.3333333333334</ele><time>2026-04-28T08:22:03.707Z</time></trkpt><trkpt lat="43.445655" lon="11.5106067"><ele>724.5</ele><time>2026-04-28T08:22:05.706Z</time></trkpt><trkpt lat="43.44568" lon="11.5104767"><ele>726.6666666666666</ele><time>2026-04-28T08:22:07.704Z</time></trkpt><trkpt lat="43.445705" lon="11.51039"><ele>728.8333333333333</ele><time>2026-04-28T08:22:08.705Z</time></trkpt><trkpt lat="43.445735" lon="11.510285"><ele>731.0</ele><time>2026-04-28T08:22:09.707Z</time></trkpt><trkpt lat="43.4457717" lon="11.5101683"><ele>733.6666666666666</ele><time>2026-04-28T08:22:10.706Z</time></trkpt><trkpt lat="43.4458033" lon="11.51006"><ele>736.3333333333333</ele><time>2026-04-28T08:22:11.704Z</time></trkpt><trkpt lat="43.445825" lon="11.5099617"><ele>739.0</ele><time>2026-04-28T08:22:12.705Z</time></trkpt><trkpt lat="43.4458383" lon="11.5098683"><ele>741.6666666666666</ele><time>2026-04-28T08:22:13.706Z</time></trkpt><trkpt lat="43.4458517" lon="11.5097833"><ele>744.3333333333334</ele><time>2026-04-28T08:22:14.705Z</time></trkpt><trkpt lat="43.4458683" lon="11.5096967"><ele>747.0</ele><time>2026-04-28T08:22:15.705Z</time></trkpt><trkpt lat="43.4458933" lon="11.5095333"><ele>752.0</ele><time>2026-04-28T08:22:17.704Z</time></trkpt><trkpt lat="43.4459217" lon="11.509455"><ele>757.0</ele><time>2026-04-28T08:22:18.71Z</time></trkpt><trkpt lat="43.4459983" lon="11.509325"><ele>762.0</ele><time>2026-04-28T08:22:20.703Z</time></trkpt><trkpt lat="43.4460783" lon="11.50923"><ele>767.0</ele><time>2026-04-28T08:22:22.705Z</time></trkpt><trkpt lat="43.4461483" lon="11.509205"><ele>772.0</ele><time>2026-04-28T08:22:24.705Z</time></trkpt><trkpt lat="43.446215" lon="11.5092083"><ele>777.0</ele><time>2026-04-28T08:22:26.706Z</time></trkpt><trkpt lat="43.446285" lon="11.509165"><ele>777.0</ele><time>2026-04-28T08:22:28.706Z</time></trkpt><trkpt lat="43.4463433" lon="11.509125"><ele>777.0</ele><time>2026-04-28T08:22:30.705Z</time></trkpt><trkpt lat="43.4463917" lon="11.5090667"><ele>777.0</ele><time>2026-04-28T08:22:35.704Z</time></trkpt><trkpt lat="43.4463483" lon="11.5091633"><ele>777.0</ele><time>2026-04-28T08:22:41.703Z</time></trkpt><trkpt lat="43.44628" lon="11.5092467"><ele>777.0</ele><time>2026-04-28T08:22:43.705Z</time></trkpt><trkpt lat="43.4461867" lon="11.50929"><ele>777.0</ele><time>2026-04-28T08:22:45.705Z</time></trkpt><trkpt lat="43.446105" lon="11.5093217"><ele>777.0</ele><time>2026-04-28T08:22:47.705Z</time></trkpt><trkpt lat="43.4460383" lon="11.5093783"><ele>777.0</ele><time>2026-04-28T08:22:49.707Z</time></trkpt><trkpt lat="43.4459883" lon="11.5094433"><ele>777.0</ele><time>2026-04-28T08:22:51.705Z</time></trkpt><trkpt lat="43.445945" lon="11.5095133"><ele>777.0</ele><time>2026-04-28T08:22:53.703Z</time></trkpt><trkpt lat="43.4459183" lon="11.5096017"><ele>777.0</ele><time>2026-04-28T08:22:55.706Z</time></trkpt><trkpt lat="43.4459067" lon="11.509705"><ele>777.0</ele><time>2026-04-28T08:22:57.707Z</time></trkpt><trkpt lat="43.4459017" lon="11.5098267"><ele>777.0</ele><time>2026-04-28T08:22:59.704Z</time></trkpt><trkpt lat="43.4458867" lon="11.509985"><ele>772.0</ele><time>2026-04-28T08:23:01.705Z</time></trkpt><trkpt lat="43.4458683" lon="11.5100767"><ele>767.0</ele><time>2026-04-28T08:23:02.706Z</time></trkpt><trkpt lat="43.4458417" lon="11.5101667"><ele>762.0</ele><time>2026-04-28T08:23:03.704Z</time></trkpt><trkpt lat="43.445815" lon="11.51026"><ele>757.0</ele><time>2026-04-28T08:23:04.706Z</time></trkpt><trkpt lat="43.445785" lon="11.5103433"><ele>752.0</ele><time>2026-04-28T08:23:05.706Z</time></trkpt><trkpt lat="43.445735" lon="11.5104767"><ele>747.0</ele><time>2026-04-28T08:23:07.706Z</time></trkpt><trkpt lat="43.4457" lon="11.51062"><ele>743.8</ele><time>2026-04-28T08:23:09.706Z</time></trkpt><trkpt lat="43.4456617" lon="11.510755"><ele>740.6</ele><time>2026-04-28T08:23:11.704Z</time></trkpt><trkpt lat="43.445615" lon="11.51084"><ele>737.4</ele><time>2026-04-28T08:23:13.706Z</time></trkpt><trkpt lat="43.4455533" lon="11.5109983"><ele>734.1999999999999</ele><time>2026-04-28T08:23:15.706Z</time></trkpt><trkpt lat="43.4455383" lon="11.5110967"><ele>731.0</ele><time>2026-04-28T08:23:16.705Z</time></trkpt><trkpt lat="43.4455317" lon="11.5112"><ele>729.1428571428571</ele><time>2026-04-28T08:23:17.706Z</time></trkpt><trkpt lat="43.4455267" lon="11.5113033"><ele>727.2857142857142</ele><time>2026-04-28T08:23:18.705Z</time></trkpt><trkpt lat="43.4455183" lon="11.5114"><ele>725.4285714285714</ele><time>2026-04-28T08:23:19.705Z</time></trkpt><trkpt lat="43.4455133" lon="11.5115017"><ele>723.5714285714286</ele><time>2026-04-28T08:23:20.705Z</time></trkpt><trkpt lat="43.4455133" lon="11.5116017"><ele>721.7142857142858</ele><time>2026-04-28T08:23:21.7Z</time></trkpt><trkpt lat="43.4455117" lon="11.5116983"><ele>719.8571428571429</ele><time>2026-04-28T08:23:22.704Z</time></trkpt><trkpt lat="43.4455067" lon="11.5118"><ele>718.0</ele><time>2026-04-28T08:23:23.704Z</time></trkpt><trkpt lat="43.4455017" lon="11.5118983"><ele>718.0</ele><time>2026-04-28T08:23:24.705Z</time></trkpt><trkpt lat="43.4454833" lon="11.51205"><ele>718.0</ele><time>2026-04-28T08:23:26.704Z</time></trkpt><trkpt lat="43.445425" lon="11.5121417"><ele>718.0</ele><time>2026-04-28T08:23:28.705Z</time></trkpt><trkpt lat="43.44529" lon="11.51219"><ele>718.0</ele><time>2026-04-28T08:23:30.705Z</time></trkpt><trkpt lat="43.44521" lon="11.5122133"><ele>718.0</ele><time>2026-04-28T08:23:31.704Z</time></trkpt><trkpt lat="43.4451183" lon="11.51223"><ele>719.5</ele><time>2026-04-28T08:23:32.704Z</time></trkpt><trkpt lat="43.4450283" lon="11.5122483"><ele>721.0</ele><time>2026-04-28T08:23:33.705Z</time></trkpt><trkpt lat="43.4449483" lon="11.5122717"><ele>722.5</ele><time>2026-04-28T08:23:34.704Z</time></trkpt><trkpt lat="43.4448783" lon="11.512305"><ele>724.0</ele><time>2026-04-28T08:23:35.704Z</time></trkpt><trkpt lat="43.444815" lon="11.5123567"><ele>725.5</ele><time>2026-04-28T08:23:36.706Z</time></trkpt><trkpt lat="43.4447617" lon="11.5124117"><ele>727.0</ele><time>2026-04-28T08:23:37.706Z</time></trkpt><trkpt lat="43.444705" lon="11.5124667"><ele>727.0</ele><time>2026-04-28T08:23:38.706Z</time></trkpt><trkpt lat="43.4446383" lon="11.51253"><ele>727.0</ele><time>2026-04-28T08:23:39.705Z</time></trkpt><trkpt lat="43.444575" lon="11.51261"><ele>727.0</ele><time>2026-04-28T08:23:40.707Z</time></trkpt><trkpt lat="43.44453" lon="11.5127083"><ele>727.0</ele><time>2026-04-28T08:23:41.706Z</time></trkpt><trkpt lat="43.4444783" lon="11.51281"><ele>727.0</ele><time>2026-04-28T08:23:42.707Z</time></trkpt><trkpt lat="43.4444217" lon="11.5128967"><ele>727.0</ele><time>2026-04-28T08:23:43.707Z</time></trkpt><trkpt lat="43.4443667" lon="11.5129867"><ele>723.6</ele><time>2026-04-28T08:23:44.705Z</time></trkpt><trkpt lat="43.4443083" lon="11.5130717"><ele>720.2</ele><time>2026-04-28T08:23:45.707Z</time></trkpt><trkpt lat="43.444255" lon="11.5131533"><ele>716.8</ele><time>2026-04-28T08:23:46.705Z</time></trkpt><trkpt lat="43.44422" lon="11.5132283"><ele>713.4</ele><time>2026-04-28T08:23:47.704Z</time></trkpt><trkpt lat="43.44416" lon="11.513365"><ele>710.0</ele><time>2026-04-28T08:23:49.705Z</time></trkpt><trkpt lat="43.4441433" lon="11.51353"><ele>710.0</ele><time>2026-04-28T08:23:51.706Z</time></trkpt><trkpt lat="43.4441433" lon="11.5136283"><ele>710.0</ele><time>2026-04-28T08:23:52.704Z</time></trkpt><trkpt lat="43.4441483" lon="11.5137467"><ele>710.0</ele><time>2026-04-28T08:23:53.706Z</time></trkpt><trkpt lat="43.4441583" lon="11.5138767"><ele>710.0</ele><time>2026-04-28T08:23:54.706Z</time></trkpt><trkpt lat="43.4441633" lon="11.513995"><ele>710.0</ele><time>2026-04-28T08:23:55.706Z</time></trkpt><trkpt lat="43.444165" lon="11.5141033"><ele>710.0</ele><time>2026-04-28T08:23:56.706Z</time></trkpt><trkpt lat="43.4441617" lon="11.514205"><ele>710.0</ele><time>2026-04-28T08:23:57.707Z</time></trkpt><trkpt lat="43.4441467" lon="11.5143083"><ele>710.0</ele><time>2026-04-28T08:23:58.714Z</time></trkpt><trkpt lat="43.4441317" lon="11.514395"><ele>710.0</ele><time>2026-04-28T08:23:59.705Z</time></trkpt><trkpt lat="43.4441217" lon="11.5144867"><ele>710.0</ele><time>2026-04-28T08:24:00.704Z</time></trkpt><trkpt lat="43.4441233" lon="11.5145933"><ele>710.0</ele><time>2026-04-28T08:24:01.706Z</time></trkpt><trkpt lat="43.444125" lon="11.5147167"><ele>710.0</ele><time>2026-04-28T08:24:02.705Z</time></trkpt><trkpt lat="43.4441233" lon="11.5148367"><ele>709.8</ele><time>2026-04-28T08:24:03.704Z</time></trkpt><trkpt lat="43.4441033" lon="11.514955"><ele>709.6</ele><time>2026-04-28T08:24:04.705Z</time></trkpt><trkpt lat="43.4440733" lon="11.51505"><ele>709.4000000000001</ele><time>2026-04-28T08:24:05.705Z</time></trkpt><trkpt lat="43.44401" lon="11.5151883"><ele>709.2</ele><time>2026-04-28T08:24:07.719Z</time></trkpt><trkpt lat="43.4438917" lon="11.51527"><ele>709.0</ele><time>2026-04-28T08:24:09.705Z</time></trkpt><trkpt lat="43.44381" lon="11.5153183"><ele>706.0</ele><time>2026-04-28T08:24:10.705Z</time></trkpt><trkpt lat="43.4437117" lon="11.51536"><ele>703.0</ele><time>2026-04-28T08:24:11.705Z</time></trkpt><trkpt lat="43.4436117" lon="11.5154033"><ele>700.0</ele><time>2026-04-28T08:24:12.705Z</time></trkpt><trkpt lat="43.4435217" lon="11.5154267"><ele>697.0</ele><time>2026-04-28T08:24:13.705Z</time></trkpt><trkpt lat="43.4434383" lon="11.5154333"><ele>694.0</ele><time>2026-04-28T08:24:14.706Z</time></trkpt><trkpt lat="43.4433633" lon="11.515445"><ele>694.0</ele><time>2026-04-28T08:24:15.705Z</time></trkpt><trkpt lat="43.4432917" lon="11.5154533"><ele>694.0</ele><time>2026-04-28T08:24:16.704Z</time></trkpt><trkpt lat="43.4432267" lon="11.5154617"><ele>694.0</ele><time>2026-04-28T08:24:17.704Z</time></trkpt><trkpt lat="43.443105" lon="11.5154683"><ele>694.0</ele><time>2026-04-28T08:24:19.706Z</time></trkpt><trkpt lat="43.4429983" lon="11.5154733"><ele>694.0</ele><time>2026-04-28T08:24:21.706Z</time></trkpt><trkpt lat="43.4429083" lon="11.5155367"><ele>690.4000000000001</ele><time>2026-04-28T08:24:23.705Z</time></trkpt><trkpt lat="43.442855" lon="11.5157067"><ele>686.8</ele><time>2026-04-28T08:24:25.705Z</time></trkpt><trkpt lat="43.44284" lon="11.51582"><ele>683.2</ele><time>2026-04-28T08:24:26.705Z</time></trkpt><trkpt lat="43.4428283" lon="11.51594"><ele>679.5999999999999</ele><time>2026-04-28T08:24:27.707Z</time></trkpt><trkpt lat="43.442815" lon="11.5160583"><ele>676.0</ele><time>2026-04-28T08:24:28.704Z</time></trkpt><trkpt lat="43.442815" lon="11.51617"><ele>674.6666666666667</ele><time>2026-04-28T08:24:29.705Z</time></trkpt><trkpt lat="43.4428267" lon="11.5162717"><ele>673.3333333333334</ele><time>2026-04-28T08:24:30.71Z</time></trkpt><trkpt lat="43.44284" lon="11.51637"><ele>672.0</ele><time>2026-04-28T08:24:31.705Z</time></trkpt><trkpt lat="43.4428567" lon="11.5164617"><ele>670.6666666666666</ele><time>2026-04-28T08:24:32.706Z</time></trkpt><trkpt lat="43.44288" lon="11.5165483"><ele>669.3333333333333</ele><time>2026-04-28T08:24:33.705Z</time></trkpt><trkpt lat="43.442905" lon="11.51665"><ele>668.0</ele><time>2026-04-28T08:24:34.704Z</time></trkpt><trkpt lat="43.4429417" lon="11.5167667"><ele>669.6666666666666</ele><time>2026-04-28T08:24:35.704Z</time></trkpt><trkpt lat="43.4429733" lon="11.5168817"><ele>671.3333333333333</ele><time>2026-04-28T08:24:36.703Z</time></trkpt><trkpt lat="43.443" lon="11.5169983"><ele>673.0</ele><time>2026-04-28T08:24:37.706Z</time></trkpt><trkpt lat="43.443025" lon="11.5171083"><ele>674.6666666666666</ele><time>2026-04-28T08:24:38.703Z</time></trkpt><trkpt lat="43.4430433" lon="11.5172117"><ele>676.3333333333334</ele><time>2026-04-28T08:24:39.704Z</time></trkpt><trkpt lat="43.4430517" lon="11.5173117"><ele>678.0</ele><time>2026-04-28T08:24:40.704Z</time></trkpt><trkpt lat="43.4430517" lon="11.5174133"><ele>678.0</ele><time>2026-04-28T08:24:41.704Z</time></trkpt><trkpt lat="43.4430467" lon="11.5175233"><ele>678.0</ele><time>2026-04-28T08:24:42.705Z</time></trkpt><trkpt lat="43.4430367" lon="11.51763"><ele>678.0</ele><time>2026-04-28T08:24:43.704Z</time></trkpt><trkpt lat="43.443025" lon="11.5177383"><ele>678.0</ele><time>2026-04-28T08:24:44.704Z</time></trkpt><trkpt lat="43.443005" lon="11.5178417"><ele>678.0</ele><time>2026-04-28T08:24:45.704Z</time></trkpt><trkpt lat="43.442975" lon="11.51795"><ele>678.0</ele><time>2026-04-28T08:24:46.704Z</time></trkpt><trkpt lat="43.4429433" lon="11.518055"><ele>675.0</ele><time>2026-04-28T08:24:47.704Z</time></trkpt><trkpt lat="43.4429217" lon="11.518155"><ele>672.0</ele><time>2026-04-28T08:24:48.704Z</time></trkpt><trkpt lat="43.4429" lon="11.5182517"><ele>669.0</ele><time>2026-04-28T08:24:49.704Z</time></trkpt><trkpt lat="43.4428817" lon="11.5183433"><ele>666.0</ele><time>2026-04-28T08:24:50.706Z</time></trkpt><trkpt lat="43.442865" lon="11.51843"><ele>663.0</ele><time>2026-04-28T08:24:51.706Z</time></trkpt><trkpt lat="43.442845" lon="11.5185167"><ele>660.0</ele><time>2026-04-28T08:24:52.704Z</time></trkpt><trkpt lat="43.4428233" lon="11.518605"><ele>657.0</ele><time>2026-04-28T08:24:53.704Z</time></trkpt><trkpt lat="43.4428033" lon="11.5186967"><ele>656.3333333333334</ele><time>2026-04-28T08:24:54.705Z</time></trkpt><trkpt lat="43.4427917" lon="11.518795"><ele>655.6666666666666</ele><time>2026-04-28T08:24:55.705Z</time></trkpt><trkpt lat="43.4427817" lon="11.518905"><ele>655.0</ele><time>2026-04-28T08:24:56.705Z</time></trkpt><trkpt lat="43.4427733" lon="11.519025"><ele>654.3333333333333</ele><time>2026-04-28T08:24:57.706Z</time></trkpt><trkpt lat="43.4427683" lon="11.519145"><ele>653.6666666666666</ele><time>2026-04-28T08:24:58.705Z</time></trkpt><trkpt lat="43.44277" lon="11.5192633"><ele>653.0</ele><time>2026-04-28T08:24:59.705Z</time></trkpt><trkpt lat="43.4427767" lon="11.5193717"><ele>653.0</ele><time>2026-04-28T08:25:00.704Z</time></trkpt><trkpt lat="43.4427967" lon="11.5194683"><ele>653.0</ele><time>2026-04-28T08:25:01.705Z</time></trkpt><trkpt lat="43.442835" lon="11.5195533"><ele>653.0</ele><time>2026-04-28T08:25:02.705Z</time></trkpt><trkpt lat="43.44288" lon="11.5196317"><ele>653.0</ele><time>2026-04-28T08:25:03.708Z</time></trkpt><trkpt lat="43.4429533" lon="11.5197317"><ele>653.0</ele><time>2026-04-28T08:25:05.705Z</time></trkpt><trkpt lat="43.44303" lon="11.5198083"><ele>653.0</ele><time>2026-04-28T08:25:07.705Z</time></trkpt><trkpt lat="43.4431" lon="11.5198383"><ele>653.0</ele><time>2026-04-28T08:25:09.705Z</time></trkpt><trkpt lat="43.44312" lon="11.5199467"><ele>653.0</ele><time>2026-04-28T08:25:12.706Z</time></trkpt><trkpt lat="43.4430583" lon="11.5200933"><ele>653.0</ele><time>2026-04-28T08:25:14.706Z</time></trkpt><trkpt lat="43.4430233" lon="11.520175"><ele>653.0</ele><time>2026-04-28T08:25:15.706Z</time></trkpt><trkpt lat="43.4429967" lon="11.5202567"><ele>653.0</ele><time>2026-04-28T08:25:16.705Z</time></trkpt><trkpt lat="43.4429667" lon="11.5203433"><ele>653.0</ele><time>2026-04-28T08:25:17.705Z</time></trkpt><trkpt lat="43.4429333" lon="11.5204183"><ele>652.3333333333333</ele><time>2026-04-28T08:25:18.704Z</time></trkpt><trkpt lat="43.442895" lon="11.5204967"><ele>651.6666666666666</ele><time>2026-04-28T08:25:19.705Z</time></trkpt><trkpt lat="43.44285" lon="11.5205817"><ele>651.0</ele><time>2026-04-28T08:25:20.704Z</time></trkpt><trkpt lat="43.44282" lon="11.520665"><ele>650.3333333333334</ele><time>2026-04-28T08:25:21.705Z</time></trkpt><trkpt lat="43.4427933" lon="11.5207467"><ele>649.6666666666667</ele><time>2026-04-28T08:25:22.704Z</time></trkpt><trkpt lat="43.4427633" lon="11.52083"><ele>649.0</ele><time>2026-04-28T08:25:23.703Z</time></trkpt><trkpt lat="43.4427083" lon="11.5209933"><ele>649.0</ele><time>2026-04-28T08:25:25.704Z</time></trkpt><trkpt lat="43.4426767" lon="11.52108"><ele>649.0</ele><time>2026-04-28T08:25:26.705Z</time></trkpt><trkpt lat="43.4426433" lon="11.52117"><ele>649.0</ele><time>2026-04-28T08:25:27.706Z</time></trkpt><trkpt lat="43.4426017" lon="11.52126"><ele>649.0</ele><time>2026-04-28T08:25:28.704Z</time></trkpt><trkpt lat="43.4425417" lon="11.5213517"><ele>649.0</ele><time>2026-04-28T08:25:29.705Z</time></trkpt><trkpt lat="43.442475" lon="11.5214367"><ele>649.0</ele><time>2026-04-28T08:25:30.704Z</time></trkpt><trkpt lat="43.4423917" lon="11.5215367"><ele>649.75</ele><time>2026-04-28T08:25:31.706Z</time></trkpt><trkpt lat="43.4422933" lon="11.52165"><ele>650.5</ele><time>2026-04-28T08:25:32.706Z</time></trkpt><trkpt lat="43.44219" lon="11.5217517"><ele>651.25</ele><time>2026-04-28T08:25:33.705Z</time></trkpt><trkpt lat="43.4420983" lon="11.5218433"><ele>652.0</ele><time>2026-04-28T08:25:34.705Z</time></trkpt><trkpt lat="43.4420067" lon="11.5219267"><ele>651.3333333333334</ele><time>2026-04-28T08:25:35.705Z</time></trkpt><trkpt lat="43.4419217" lon="11.5220083"><ele>650.6666666666667</ele><time>2026-04-28T08:25:36.705Z</time></trkpt><trkpt lat="43.441845" lon="11.5220867"><ele>650.0</ele><time>2026-04-28T08:25:37.706Z</time></trkpt><trkpt lat="43.4417667" lon="11.5221533"><ele>649.3333333333334</ele><time>2026-04-28T08:25:38.703Z</time></trkpt><trkpt lat="43.4416967" lon="11.5222167"><ele>648.6666666666666</ele><time>2026-04-28T08:25:39.707Z</time></trkpt><trkpt lat="43.4416433" lon="11.5222833"><ele>648.0</ele><time>2026-04-28T08:25:40.705Z</time></trkpt><trkpt lat="43.44161" lon="11.5223617"><ele>648.0</ele><time>2026-04-28T08:25:41.705Z</time></trkpt><trkpt lat="43.4415683" lon="11.5224583"><ele>648.0</ele><time>2026-04-28T08:25:42.705Z</time></trkpt><trkpt lat="43.44154" lon="11.5225883"><ele>648.0</ele><time>2026-04-28T08:25:43.704Z</time></trkpt><trkpt lat="43.4415117" lon="11.522715"><ele>648.0</ele><time>2026-04-28T08:25:44.705Z</time></trkpt><trkpt lat="43.4414783" lon="11.52284"><ele>648.0</ele><time>2026-04-28T08:25:45.704Z</time></trkpt><trkpt lat="43.4414367" lon="11.5229417"><ele>646.8333333333334</ele><time>2026-04-28T08:25:46.705Z</time></trkpt><trkpt lat="43.441395" lon="11.5230317"><ele>645.6666666666666</ele><time>2026-04-28T08:25:47.704Z</time></trkpt><trkpt lat="43.44136" lon="11.5231733"><ele>644.5</ele><time>2026-04-28T08:25:49.705Z</time></trkpt><trkpt lat="43.4414183" lon="11.5232983"><ele>643.3333333333333</ele><time>2026-04-28T08:25:51.706Z</time></trkpt><trkpt lat="43.44148" lon="11.5233433"><ele>642.1666666666666</ele><time>2026-04-28T08:25:52.705Z</time></trkpt><trkpt lat="43.4415583" lon="11.5233883"><ele>641.0</ele><time>2026-04-28T08:25:53.706Z</time></trkpt><trkpt lat="43.44165" lon="11.5234483"><ele>641.0</ele><time>2026-04-28T08:25:54.705Z</time></trkpt><trkpt lat="43.44176" lon="11.5235283"><ele>641.0</ele><time>2026-04-28T08:25:55.705Z</time></trkpt><trkpt lat="43.441855" lon="11.52361"><ele>641.0</ele><time>2026-04-28T08:25:56.705Z</time></trkpt><trkpt lat="43.4419567" lon="11.5236767"><ele>641.0</ele><time>2026-04-28T08:25:57.706Z</time></trkpt><trkpt lat="43.4420617" lon="11.5237367"><ele>640.0</ele><time>2026-04-28T08:25:58.705Z</time></trkpt><trkpt lat="43.4421467" lon="11.5237833"><ele>639.0</ele><time>2026-04-28T08:25:59.705Z</time></trkpt><trkpt lat="43.4422217" lon="11.52383"><ele>638.0</ele><time>2026-04-28T08:26:00.705Z</time></trkpt><trkpt lat="43.4422817" lon="11.52388"><ele>637.0</ele><time>2026-04-28T08:26:01.705Z</time></trkpt><trkpt lat="43.44234" lon="11.5240517"><ele>636.0</ele><time>2026-04-28T08:26:03.705Z</time></trkpt><trkpt lat="43.4423367" lon="11.5242017"><ele>636.0</ele><time>2026-04-28T08:26:04.704Z</time></trkpt><trkpt lat="43.4423633" lon="11.524325"><ele>636.0</ele><time>2026-04-28T08:26:05.705Z</time></trkpt><trkpt lat="43.4424067" lon="11.5244483"><ele>636.0</ele><time>2026-04-28T08:26:06.705Z</time></trkpt><trkpt lat="43.44248" lon="11.5245633"><ele>636.0</ele><time>2026-04-28T08:26:07.704Z</time></trkpt><trkpt lat="43.4425567" lon="11.5246633"><ele>636.0</ele><time>2026-04-28T08:26:08.704Z</time></trkpt><trkpt lat="43.4426233" lon="11.5247517"><ele>632.0</ele><time>2026-04-28T08:26:09.705Z</time></trkpt><trkpt lat="43.442685" lon="11.5248583"><ele>628.0</ele><time>2026-04-28T08:26:10.703Z</time></trkpt><trkpt lat="43.4427467" lon="11.5249917"><ele>624.0</ele><time>2026-04-28T08:26:11.707Z</time></trkpt><trkpt lat="43.4428083" lon="11.5251517"><ele>620.0</ele><time>2026-04-28T08:26:12.705Z</time></trkpt><trkpt lat="43.44287" lon="11.5253183"><ele>619.0</ele><time>2026-04-28T08:26:13.705Z</time></trkpt><trkpt lat="43.4429283" lon="11.5254783"><ele>618.0</ele><time>2026-04-28T08:26:14.704Z</time></trkpt><trkpt lat="43.4429817" lon="11.525655"><ele>617.0</ele><time>2026-04-28T08:26:15.705Z</time></trkpt><trkpt lat="43.443025" lon="11.5258283"><ele>616.0</ele><time>2026-04-28T08:26:16.704Z</time></trkpt><trkpt lat="43.4430667" lon="11.5259917"><ele>616.0</ele><time>2026-04-28T08:26:17.703Z</time></trkpt><trkpt lat="43.443105" lon="11.52615"><ele>616.0</ele><time>2026-04-28T08:26:18.703Z</time></trkpt><trkpt lat="43.4431283" lon="11.5263033"><ele>616.0</ele><time>2026-04-28T08:26:19.705Z</time></trkpt><trkpt lat="43.44314" lon="11.5264517"><ele>616.0</ele><time>2026-04-28T08:26:20.704Z</time></trkpt><trkpt lat="43.4431333" lon="11.5265933"><ele>616.0</ele><time>2026-04-28T08:26:21.705Z</time></trkpt><trkpt lat="43.4430967" lon="11.5267283"><ele>616.2</ele><time>2026-04-28T08:26:22.704Z</time></trkpt><trkpt lat="43.4430467" lon="11.5268667"><ele>616.4000000000001</ele><time>2026-04-28T08:26:23.704Z</time></trkpt><trkpt lat="43.4429917" lon="11.526995"><ele>616.6</ele><time>2026-04-28T08:26:24.705Z</time></trkpt><trkpt lat="43.4429367" lon="11.5270933"><ele>616.8000000000001</ele><time>2026-04-28T08:26:25.704Z</time></trkpt><trkpt lat="43.442875" lon="11.5271717"><ele>617.0</ele><time>2026-04-28T08:26:26.704Z</time></trkpt><trkpt lat="43.4427967" lon="11.5272233"><ele>615.0</ele><time>2026-04-28T08:26:27.708Z</time></trkpt><trkpt lat="43.4426867" lon="11.5272467"><ele>613.0</ele><time>2026-04-28T08:26:28.704Z</time></trkpt><trkpt lat="43.4425367" lon="11.5272233"><ele>611.0</ele><time>2026-04-28T08:26:29.702Z</time></trkpt><trkpt lat="43.4423983" lon="11.5272"><ele>609.0</ele><time>2026-04-28T08:26:30.705Z</time></trkpt><trkpt lat="43.442265" lon="11.527185"><ele>609.0</ele><time>2026-04-28T08:26:31.707Z</time></trkpt><trkpt lat="43.44214" lon="11.5271867"><ele>609.0</ele><time>2026-04-28T08:26:32.704Z</time></trkpt><trkpt lat="43.4420117" lon="11.5272183"><ele>609.0</ele><time>2026-04-28T08:26:33.705Z</time></trkpt><trkpt lat="43.441875" lon="11.52728"><ele>609.0</ele><time>2026-04-28T08:26:34.704Z</time></trkpt><trkpt lat="43.44174" lon="11.5273617"><ele>609.75</ele><time>2026-04-28T08:26:35.704Z</time></trkpt><trkpt lat="43.4416133" lon="11.5274417"><ele>610.5</ele><time>2026-04-28T08:26:36.703Z</time></trkpt><trkpt lat="43.4415017" lon="11.5275117"><ele>611.25</ele><time>2026-04-28T08:26:37.704Z</time></trkpt><trkpt lat="43.4414033" lon="11.5275783"><ele>612.0</ele><time>2026-04-28T08:26:38.704Z</time></trkpt><trkpt lat="43.441315" lon="11.5276483"><ele>613.0</ele><time>2026-04-28T08:26:39.707Z</time></trkpt><trkpt lat="43.4412333" lon="11.527745"><ele>614.0</ele><time>2026-04-28T08:26:40.704Z</time></trkpt><trkpt lat="43.441155" lon="11.5278667"><ele>615.0</ele><time>2026-04-28T08:26:41.704Z</time></trkpt><trkpt lat="43.4410783" lon="11.528015"><ele>616.0</ele><time>2026-04-28T08:26:42.702Z</time></trkpt><trkpt lat="43.4410033" lon="11.528175"><ele>617.0</ele><time>2026-04-28T08:26:43.705Z</time></trkpt><trkpt lat="43.4409417" lon="11.5283333"><ele>618.0</ele><time>2026-04-28T08:26:44.703Z</time></trkpt><trkpt lat="43.4408883" lon="11.52849"><ele>619.0</ele><time>2026-04-28T08:26:45.706Z</time></trkpt><trkpt lat="43.440845" lon="11.52863"><ele>620.0</ele><time>2026-04-28T08:26:46.705Z</time></trkpt><trkpt lat="43.4408117" lon="11.5287533"><ele>620.0</ele><time>2026-04-28T08:26:47.705Z</time></trkpt><trkpt lat="43.4408" lon="11.5288833"><ele>620.0</ele><time>2026-04-28T08:26:48.705Z</time></trkpt><trkpt lat="43.4408033" lon="11.5290333"><ele>620.0</ele><time>2026-04-28T08:26:49.705Z</time></trkpt><trkpt lat="43.440815" lon="11.5292117"><ele>620.0</ele><time>2026-04-28T08:26:50.704Z</time></trkpt><trkpt lat="43.44082" lon="11.529375"><ele>620.0</ele><time>2026-04-28T08:26:51.706Z</time></trkpt><trkpt lat="43.4408317" lon="11.52951"><ele>620.0</ele><time>2026-04-28T08:26:52.704Z</time></trkpt><trkpt lat="43.4408433" lon="11.5296083"><ele>620.0</ele><time>2026-04-28T08:26:53.706Z</time></trkpt><trkpt lat="43.4408717" lon="11.5296867"><ele>620.0</ele><time>2026-04-28T08:26:54.704Z</time></trkpt><trkpt lat="43.44094" lon="11.5298117"><ele>620.0</ele><time>2026-04-28T08:26:56.701Z</time></trkpt><trkpt lat="43.440965" lon="11.5299133"><ele>620.0</ele><time>2026-04-28T08:26:58.705Z</time></trkpt><trkpt lat="43.4409" lon="11.5299867"><ele>621.8333333333333</ele><time>2026-04-28T08:27:00.704Z</time></trkpt><trkpt lat="43.4408367" lon="11.5300667"><ele>623.6666666666666</ele><time>2026-04-28T08:27:02.706Z</time></trkpt><trkpt lat="43.44092" lon="11.5301467"><ele>625.5</ele><time>2026-04-28T08:27:04.706Z</time></trkpt><trkpt lat="43.441" lon="11.5301667"><ele>627.3333333333334</ele><time>2026-04-28T08:27:05.704Z</time></trkpt><trkpt lat="43.4410883" lon="11.5301817"><ele>629.1666666666667</ele><time>2026-04-28T08:27:06.706Z</time></trkpt><trkpt lat="43.4411783" lon="11.5301967"><ele>631.0</ele><time>2026-04-28T08:27:07.707Z</time></trkpt><trkpt lat="43.441265" lon="11.5302183"><ele>630.8</ele><time>2026-04-28T08:27:08.707Z</time></trkpt><trkpt lat="43.441355" lon="11.5302767"><ele>630.6</ele><time>2026-04-28T08:27:10.705Z</time></trkpt><trkpt lat="43.4413433" lon="11.5304333"><ele>630.4</ele><time>2026-04-28T08:27:13.705Z</time></trkpt><trkpt lat="43.441325" lon="11.5305283"><ele>630.2</ele><time>2026-04-28T08:27:14.704Z</time></trkpt><trkpt lat="43.44131" lon="11.5306383"><ele>630.0</ele><time>2026-04-28T08:27:15.705Z</time></trkpt><trkpt lat="43.4413" lon="11.530765"><ele>631.6666666666666</ele><time>2026-04-28T08:27:16.705Z</time></trkpt><trkpt lat="43.4412883" lon="11.5309067"><ele>633.3333333333334</ele><time>2026-04-28T08:27:17.703Z</time></trkpt><trkpt lat="43.4412783" lon="11.531035"><ele>635.0</ele><time>2026-04-28T08:27:18.705Z</time></trkpt><trkpt lat="43.4412783" lon="11.531155"><ele>636.6666666666667</ele><time>2026-04-28T08:27:19.705Z</time></trkpt><trkpt lat="43.4412867" lon="11.5312583"><ele>638.3333333333334</ele><time>2026-04-28T08:27:20.704Z</time></trkpt><trkpt lat="43.4412983" lon="11.5313467"><ele>640.0</ele><time>2026-04-28T08:27:21.706Z</time></trkpt><trkpt lat="43.4413183" lon="11.531485"><ele>641.4285714285714</ele><time>2026-04-28T08:27:23.705Z</time></trkpt><trkpt lat="43.4413667" lon="11.5315717"><ele>642.8571428571429</ele><time>2026-04-28T08:28:04.704Z</time></trkpt><trkpt lat="43.4413867" lon="11.531665"><ele>644.2857142857142</ele><time>2026-04-28T08:28:06.704Z</time></trkpt><trkpt lat="43.441375" lon="11.5317567"><ele>645.7142857142858</ele><time>2026-04-28T08:32:51.706Z</time></trkpt><trkpt lat="43.4413633" lon="11.5318517"><ele>647.1428571428572</ele><time>2026-04-28T08:32:52.703Z</time></trkpt><trkpt lat="43.4413467" lon="11.5319483"><ele>648.5714285714286</ele><time>2026-04-28T08:32:53.704Z</time></trkpt><trkpt lat="43.4413217" lon="11.5320617"><ele>650.0</ele><time>2026-04-28T08:32:54.706Z</time></trkpt><trkpt lat="43.4413" lon="11.53218"><ele>650.0</ele><time>2026-04-28T08:32:55.705Z</time></trkpt><trkpt lat="43.44129" lon="11.5323133"><ele>650.0</ele><time>2026-04-28T08:32:56.705Z</time></trkpt><trkpt lat="43.441285" lon="11.53243"><ele>650.0</ele><time>2026-04-28T08:32:57.706Z</time></trkpt><trkpt lat="43.4412867" lon="11.53252"><ele>650.0</ele><time>2026-04-28T08:32:58.704Z</time></trkpt><trkpt lat="43.4413117" lon="11.5326983"><ele>650.0</ele><time>2026-04-28T08:33:00.706Z</time></trkpt><trkpt lat="43.44133" lon="11.5327983"><ele>649.3333333333333</ele><time>2026-04-28T08:33:01.704Z</time></trkpt><trkpt lat="43.4413517" lon="11.5329033"><ele>648.6666666666666</ele><time>2026-04-28T08:33:02.705Z</time></trkpt><trkpt lat="43.4413833" lon="11.5330167"><ele>648.0</ele><time>2026-04-28T08:33:03.705Z</time></trkpt><trkpt lat="43.4414117" lon="11.533125"><ele>647.3333333333334</ele><time>2026-04-28T08:33:04.703Z</time></trkpt><trkpt lat="43.4414333" lon="11.5332317"><ele>646.6666666666667</ele><time>2026-04-28T08:33:05.704Z</time></trkpt><trkpt lat="43.44145" lon="11.533335"><ele>646.0</ele><time>2026-04-28T08:33:06.705Z</time></trkpt><trkpt lat="43.4414533" lon="11.533425"><ele>646.0000000000001</ele><time>2026-04-28T08:33:07.704Z</time></trkpt><trkpt lat="43.4414617" lon="11.533515"><ele>646.0</ele><time>2026-04-28T08:33:08.705Z</time></trkpt><trkpt lat="43.4414717" lon="11.5336083"><ele>646.0</ele><time>2026-04-28T08:33:09.706Z</time></trkpt><trkpt lat="43.4414783" lon="11.5336983"><ele>646.0</ele><time>2026-04-28T08:33:10.703Z</time></trkpt><trkpt lat="43.4414733" lon="11.5337867"><ele>646.0</ele><time>2026-04-28T08:33:11.704Z</time></trkpt><trkpt lat="43.4414717" lon="11.5338783"><ele>646.0000000000001</ele><time>2026-04-28T08:33:12.705Z</time></trkpt><trkpt lat="43.4414733" lon="11.533965"><ele>646.0</ele><time>2026-04-28T08:33:13.704Z</time></trkpt><trkpt lat="43.4415333" lon="11.534135"><ele>645.5999999999999</ele><time>2026-04-28T08:33:15.706Z</time></trkpt><trkpt lat="43.44159" lon="11.53423"><ele>645.2</ele><time>2026-04-28T08:33:16.704Z</time></trkpt><trkpt lat="43.4416633" lon="11.5343383"><ele>644.8</ele><time>2026-04-28T08:33:17.705Z</time></trkpt><trkpt lat="43.44173" lon="11.5344617"><ele>644.4000000000001</ele><time>2026-04-28T08:33:18.706Z</time></trkpt><trkpt lat="43.4417817" lon="11.534565"><ele>644.0</ele><time>2026-04-28T08:33:19.701Z</time></trkpt><trkpt lat="43.4418267" lon="11.5346333"><ele>642.2</ele><time>2026-04-28T08:33:20.703Z</time></trkpt><trkpt lat="43.4419267" lon="11.5347033"><ele>640.4000000000001</ele><time>2026-04-28T08:33:22.704Z</time></trkpt><trkpt lat="43.4420433" lon="11.5347033"><ele>638.6</ele><time>2026-04-28T08:33:24.705Z</time></trkpt><trkpt lat="43.44214" lon="11.5347533"><ele>636.8</ele><time>2026-04-28T08:33:26.706Z</time></trkpt><trkpt lat="43.4422017" lon="11.5348617"><ele>635.0</ele><time>2026-04-28T08:33:28.704Z</time></trkpt><trkpt lat="43.442225" lon="11.5349483"><ele>634.9999999999999</ele><time>2026-04-28T08:33:29.705Z</time></trkpt><trkpt lat="43.4422383" lon="11.5350517"><ele>635.0</ele><time>2026-04-28T08:33:30.706Z</time></trkpt><trkpt lat="43.4422467" lon="11.535145"><ele>635.0</ele><time>2026-04-28T08:33:31.707Z</time></trkpt><trkpt lat="43.442255" lon="11.5352333"><ele>635.0</ele><time>2026-04-28T08:33:32.706Z</time></trkpt><trkpt lat="43.4422617" lon="11.535325"><ele>635.0</ele><time>2026-04-28T08:33:33.707Z</time></trkpt><trkpt lat="43.442265" lon="11.5354133"><ele>634.9999999999999</ele><time>2026-04-28T08:33:34.704Z</time></trkpt><trkpt lat="43.4422483" lon="11.5355517"><ele>635.0</ele><time>2026-04-28T08:33:36.705Z</time></trkpt><trkpt lat="43.4421767" lon="11.5357"><ele>632.4</ele><time>2026-04-28T08:33:38.701Z</time></trkpt><trkpt lat="43.4421167" lon="11.535785"><ele>629.8</ele><time>2026-04-28T08:33:40.705Z</time></trkpt><trkpt lat="43.442095" lon="11.535895"><ele>627.2</ele><time>2026-04-28T08:33:42.705Z</time></trkpt><trkpt lat="43.44209" lon="11.5359833"><ele>624.6</ele><time>2026-04-28T08:33:43.703Z</time></trkpt><trkpt lat="43.4420633" lon="11.536165"><ele>622.0</ele><time>2026-04-28T08:33:45.705Z</time></trkpt><trkpt lat="43.4420567" lon="11.5362883"><ele>621.0</ele><time>2026-04-28T08:33:46.703Z</time></trkpt><trkpt lat="43.4420567" lon="11.5364233"><ele>620.0</ele><time>2026-04-28T08:33:47.705Z</time></trkpt><trkpt lat="43.4420617" lon="11.53657"><ele>619.0</ele><time>2026-04-28T08:33:48.705Z</time></trkpt><trkpt lat="43.442075" lon="11.5367133"><ele>618.0</ele><time>2026-04-28T08:33:49.706Z</time></trkpt><trkpt lat="43.4420767" lon="11.536835"><ele>617.0</ele><time>2026-04-28T08:33:50.705Z</time></trkpt><trkpt lat="43.442075" lon="11.5369467"><ele>617.0</ele><time>2026-04-28T08:33:51.705Z</time></trkpt><trkpt lat="43.4420667" lon="11.5370433"><ele>617.0</ele><time>2026-04-28T08:33:52.706Z</time></trkpt><trkpt lat="43.4420417" lon="11.5372033"><ele>617.0</ele><time>2026-04-28T08:33:54.705Z</time></trkpt><trkpt lat="43.44203" lon="11.5373733"><ele>617.0</ele><time>2026-04-28T08:33:56.705Z</time></trkpt><trkpt lat="43.4420283" lon="11.537485"><ele>617.0</ele><time>2026-04-28T08:33:57.707Z</time></trkpt><trkpt lat="43.44202" lon="11.537605"><ele>616.5</ele><time>2026-04-28T08:33:58.706Z</time></trkpt><trkpt lat="43.44201" lon="11.5377283"><ele>616.0</ele><time>2026-04-28T08:33:59.705Z</time></trkpt><trkpt lat="43.4419983" lon="11.5378417"><ele>615.5</ele><time>2026-04-28T08:34:00.706Z</time></trkpt><trkpt lat="43.4419867" lon="11.5379567"><ele>615.0</ele><time>2026-04-28T08:34:01.705Z</time></trkpt><trkpt lat="43.4419633" lon="11.5380483"><ele>614.5</ele><time>2026-04-28T08:34:02.702Z</time></trkpt><trkpt lat="43.4419133" lon="11.5381967"><ele>614.0</ele><time>2026-04-28T08:34:04.706Z</time></trkpt><trkpt lat="43.44185" lon="11.5383133"><ele>613.5</ele><time>2026-04-28T08:34:06.705Z</time></trkpt><trkpt lat="43.4418317" lon="11.5384017"><ele>613.0</ele><time>2026-04-28T08:34:08.704Z</time></trkpt><trkpt lat="43.4418733" lon="11.5384817"><ele>612.5</ele><time>2026-04-28T08:34:10.706Z</time></trkpt><trkpt lat="43.4418767" lon="11.5386167"><ele>612.0</ele><time>2026-04-28T08:34:13.706Z</time></trkpt><trkpt lat="43.441855" lon="11.5387067"><ele>611.5</ele><time>2026-04-28T08:34:15.706Z</time></trkpt><trkpt lat="43.4418183" lon="11.53881"><ele>611.0</ele><time>2026-04-28T08:34:18.704Z</time></trkpt><trkpt lat="43.4418917" lon="11.5388817"><ele>611.0</ele><time>2026-04-28T08:34:21.706Z</time></trkpt><trkpt lat="43.4419533" lon="11.5389483"><ele>611.0</ele><time>2026-04-28T08:34:23.706Z</time></trkpt><trkpt lat="43.4419883" lon="11.53907"><ele>611.0</ele><time>2026-04-28T08:34:25.704Z</time></trkpt><trkpt lat="43.4419917" lon="11.539245"><ele>611.0</ele><time>2026-04-28T08:34:27.707Z</time></trkpt><trkpt lat="43.4419767" lon="11.5393533"><ele>611.0</ele><time>2026-04-28T08:34:28.706Z</time></trkpt><trkpt lat="43.4419583" lon="11.539465"><ele>611.5</ele><time>2026-04-28T08:34:29.705Z</time></trkpt><trkpt lat="43.4419467" lon="11.53957"><ele>612.0</ele><time>2026-04-28T08:34:30.705Z</time></trkpt><trkpt lat="43.4419367" lon="11.5396783"><ele>612.5</ele><time>2026-04-28T08:34:31.707Z</time></trkpt><trkpt lat="43.4419383" lon="11.5397967"><ele>613.0</ele><time>2026-04-28T08:34:32.707Z</time></trkpt><trkpt lat="43.4419517" lon="11.5399133"><ele>613.5</ele><time>2026-04-28T08:34:33.709Z</time></trkpt><trkpt lat="43.4419733" lon="11.540025"><ele>614.0</ele><time>2026-04-28T08:34:34.706Z</time></trkpt><trkpt lat="43.4419917" lon="11.5401317"><ele>614.0</ele><time>2026-04-28T08:34:35.706Z</time></trkpt><trkpt lat="43.4420033" lon="11.540235"><ele>614.0</ele><time>2026-04-28T08:34:36.706Z</time></trkpt><trkpt lat="43.44201" lon="11.54034"><ele>614.0</ele><time>2026-04-28T08:34:37.707Z</time></trkpt><trkpt lat="43.442005" lon="11.5404533"><ele>614.0</ele><time>2026-04-28T08:34:38.706Z</time></trkpt><trkpt lat="43.4420017" lon="11.5405767"><ele>614.0</ele><time>2026-04-28T08:34:39.709Z</time></trkpt><trkpt lat="43.442005" lon="11.5407"><ele>614.0</ele><time>2026-04-28T08:34:40.707Z</time></trkpt><trkpt lat="43.4420067" lon="11.5408167"><ele>613.8</ele><time>2026-04-28T08:34:41.706Z</time></trkpt><trkpt lat="43.44201" lon="11.5409167"><ele>613.5999999999999</ele><time>2026-04-28T08:34:42.706Z</time></trkpt><trkpt lat="43.4420183" lon="11.5410117"><ele>613.4</ele><time>2026-04-28T08:34:43.707Z</time></trkpt><trkpt lat="43.4420317" lon="11.5410967"><ele>613.1999999999999</ele><time>2026-04-28T08:34:44.705Z</time></trkpt><trkpt lat="43.4420683" lon="11.5412583"><ele>613.0</ele><time>2026-04-28T08:34:46.706Z</time></trkpt><trkpt lat="43.442075" lon="11.5414367"><ele>610.7142857142858</ele><time>2026-04-28T08:34:48.706Z</time></trkpt><trkpt lat="43.442075" lon="11.5415433"><ele>608.4285714285714</ele><time>2026-04-28T08:34:49.706Z</time></trkpt><trkpt lat="43.4420783" lon="11.5416633"><ele>606.1428571428571</ele><time>2026-04-28T08:34:50.706Z</time></trkpt><trkpt lat="43.4420767" lon="11.5417683"><ele>603.8571428571429</ele><time>2026-04-28T08:34:51.706Z</time></trkpt><trkpt lat="43.4420667" lon="11.5418583"><ele>601.5714285714286</ele><time>2026-04-28T08:34:52.705Z</time></trkpt><trkpt lat="43.4420567" lon="11.541955"><ele>599.2857142857143</ele><time>2026-04-28T08:34:53.705Z</time></trkpt><trkpt lat="43.4420517" lon="11.5420483"><ele>597.0</ele><time>2026-04-28T08:34:54.706Z</time></trkpt><trkpt lat="43.44205" lon="11.542135"><ele>594.4</ele><time>2026-04-28T08:34:55.706Z</time></trkpt><trkpt lat="43.442075" lon="11.5423283"><ele>591.8000000000001</ele><time>2026-04-28T08:34:57.708Z</time></trkpt><trkpt lat="43.4421167" lon="11.5424433"><ele>589.2</ele><time>2026-04-28T08:34:58.705Z</time></trkpt><trkpt lat="43.4421533" lon="11.5425517"><ele>586.6</ele><time>2026-04-28T08:34:59.705Z</time></trkpt><trkpt lat="43.442195" lon="11.5426583"><ele>584.0</ele><time>2026-04-28T08:35:00.706Z</time></trkpt><trkpt lat="43.4422417" lon="11.5427483"><ele>584.0</ele><time>2026-04-28T08:35:01.706Z</time></trkpt><trkpt lat="43.4422767" lon="11.5428383"><ele>584.0</ele><time>2026-04-28T08:35:02.706Z</time></trkpt><trkpt lat="43.4423033" lon="11.5429217"><ele>584.0</ele><time>2026-04-28T08:35:03.707Z</time></trkpt><trkpt lat="43.4423067" lon="11.5430133"><ele>584.0</ele><time>2026-04-28T08:35:04.706Z</time></trkpt><trkpt lat="43.44229" lon="11.5431083"><ele>584.0</ele><time>2026-04-28T08:35:05.706Z</time></trkpt><trkpt lat="43.4422683" lon="11.54321"><ele>584.0</ele><time>2026-04-28T08:35:06.706Z</time></trkpt><trkpt lat="43.44225" lon="11.5433367"><ele>584.0</ele><time>2026-04-28T08:35:07.707Z</time></trkpt><trkpt lat="43.4422383" lon="11.5434833"><ele>584.3333333333333</ele><time>2026-04-28T08:35:08.705Z</time></trkpt><trkpt lat="43.4422417" lon="11.5436167"><ele>584.6666666666666</ele><time>2026-04-28T08:35:09.707Z</time></trkpt><trkpt lat="43.44226" lon="11.5437417"><ele>585.0</ele><time>2026-04-28T08:35:10.706Z</time></trkpt><trkpt lat="43.4422917" lon="11.5438533"><ele>585.3333333333334</ele><time>2026-04-28T08:35:11.705Z</time></trkpt><trkpt lat="43.4423217" lon="11.5439633"><ele>585.6666666666667</ele><time>2026-04-28T08:35:12.705Z</time></trkpt><trkpt lat="43.442335" lon="11.5440783"><ele>586.0</ele><time>2026-04-28T08:35:13.705Z</time></trkpt><trkpt lat="43.44235" lon="11.5442017"><ele>586.6666666666667</ele><time>2026-04-28T08:35:14.705Z</time></trkpt><trkpt lat="43.4423683" lon="11.544315"><ele>587.3333333333334</ele><time>2026-04-28T08:35:15.706Z</time></trkpt><trkpt lat="43.442405" lon="11.5444233"><ele>588.0</ele><time>2026-04-28T08:35:16.705Z</time></trkpt><trkpt lat="43.44245" lon="11.5445317"><ele>588.6666666666666</ele><time>2026-04-28T08:35:17.705Z</time></trkpt><trkpt lat="43.4425017" lon="11.544625"><ele>589.3333333333333</ele><time>2026-04-28T08:35:18.705Z</time></trkpt><trkpt lat="43.4425517" lon="11.5447333"><ele>590.0</ele><time>2026-04-28T08:35:19.705Z</time></trkpt><trkpt lat="43.4426083" lon="11.5448567"><ele>592.2</ele><time>2026-04-28T08:35:20.706Z</time></trkpt><trkpt lat="43.442665" lon="11.544995"><ele>594.4</ele><time>2026-04-28T08:35:21.707Z</time></trkpt><trkpt lat="43.4427167" lon="11.5451267"><ele>596.6</ele><time>2026-04-28T08:35:22.705Z</time></trkpt><trkpt lat="43.442765" lon="11.54525"><ele>598.8</ele><time>2026-04-28T08:35:23.705Z</time></trkpt><trkpt lat="43.4428083" lon="11.5453667"><ele>601.0</ele><time>2026-04-28T08:35:24.705Z</time></trkpt><trkpt lat="43.4428467" lon="11.545485"><ele>602.6666666666667</ele><time>2026-04-28T08:35:25.705Z</time></trkpt><trkpt lat="43.44288" lon="11.5456067"><ele>604.3333333333334</ele><time>2026-04-28T08:35:26.706Z</time></trkpt><trkpt lat="43.442905" lon="11.5457233"><ele>606.0</ele><time>2026-04-28T08:35:27.706Z</time></trkpt><trkpt lat="43.4429117" lon="11.5458317"><ele>607.6666666666666</ele><time>2026-04-28T08:35:28.706Z</time></trkpt><trkpt lat="43.442905" lon="11.5459483"><ele>609.3333333333333</ele><time>2026-04-28T08:35:29.705Z</time></trkpt><trkpt lat="43.442885" lon="11.5460467"><ele>611.0</ele><time>2026-04-28T08:35:30.706Z</time></trkpt><trkpt lat="43.4428467" lon="11.546145"><ele>609.3333333333333</ele><time>2026-04-28T08:35:31.707Z</time></trkpt><trkpt lat="43.4428067" lon="11.546245"><ele>607.6666666666666</ele><time>2026-04-28T08:35:32.706Z</time></trkpt><trkpt lat="43.44276" lon="11.5463383"><ele>606.0</ele><time>2026-04-28T08:35:33.705Z</time></trkpt><trkpt lat="43.442705" lon="11.5464033"><ele>604.3333333333334</ele><time>2026-04-28T08:35:34.705Z</time></trkpt><trkpt lat="43.4426417" lon="11.5464567"><ele>602.6666666666667</ele><time>2026-04-28T08:35:35.704Z</time></trkpt><trkpt lat="43.442565" lon="11.54652"><ele>601.0</ele><time>2026-04-28T08:35:36.706Z</time></trkpt><trkpt lat="43.4424833" lon="11.5465933"><ele>601.0</ele><time>2026-04-28T08:35:37.707Z</time></trkpt><trkpt lat="43.44241" lon="11.546685"><ele>601.0</ele><time>2026-04-28T08:35:38.705Z</time></trkpt><trkpt lat="43.442325" lon="11.5467783"><ele>601.0</ele><time>2026-04-28T08:35:39.706Z</time></trkpt><trkpt lat="43.4422667" lon="11.5468783"><ele>601.0</ele><time>2026-04-28T08:35:40.706Z</time></trkpt><trkpt lat="43.442225" lon="11.5469783"><ele>601.0</ele><time>2026-04-28T08:35:41.706Z</time></trkpt><trkpt lat="43.4421983" lon="11.5470867"><ele>599.2</ele><time>2026-04-28T08:35:42.706Z</time></trkpt><trkpt lat="43.442175" lon="11.547205"><ele>597.4000000000001</ele><time>2026-04-28T08:35:43.706Z</time></trkpt><trkpt lat="43.4421617" lon="11.5473267"><ele>595.6</ele><time>2026-04-28T08:35:44.706Z</time></trkpt><trkpt lat="43.44216" lon="11.5474633"><ele>593.8000000000001</ele><time>2026-04-28T08:35:45.707Z</time></trkpt><trkpt lat="43.4421767" lon="11.5475817"><ele>592.0</ele><time>2026-04-28T08:35:46.704Z</time></trkpt><trkpt lat="43.44221" lon="11.5477"><ele>592.0</ele><time>2026-04-28T08:35:47.705Z</time></trkpt><trkpt lat="43.4422467" lon="11.547835"><ele>592.0</ele><time>2026-04-28T08:35:48.706Z</time></trkpt><trkpt lat="43.4422767" lon="11.547975"><ele>592.0</ele><time>2026-04-28T08:35:49.705Z</time></trkpt><trkpt lat="43.4423017" lon="11.54812"><ele>592.0</ele><time>2026-04-28T08:35:50.706Z</time></trkpt><trkpt lat="43.442315" lon="11.548265"><ele>592.0</ele><time>2026-04-28T08:35:51.706Z</time></trkpt><trkpt lat="43.44232" lon="11.5484217"><ele>592.0</ele><time>2026-04-28T08:35:52.706Z</time></trkpt><trkpt lat="43.44232" lon="11.548575"><ele>592.0</ele><time>2026-04-28T08:35:53.706Z</time></trkpt><trkpt lat="43.4423183" lon="11.5487283"><ele>592.0</ele><time>2026-04-28T08:35:54.706Z</time></trkpt><trkpt lat="43.4423167" lon="11.5488917"><ele>592.0</ele><time>2026-04-28T08:35:55.708Z</time></trkpt><trkpt lat="43.442315" lon="11.5490767"><ele>592.0</ele><time>2026-04-28T08:35:56.706Z</time></trkpt><trkpt lat="43.4423133" lon="11.549255"><ele>592.0</ele><time>2026-04-28T08:35:57.706Z</time></trkpt><trkpt lat="43.44231" lon="11.5494167"><ele>592.0</ele><time>2026-04-28T08:35:58.706Z</time></trkpt><trkpt lat="43.4422967" lon="11.5495633"><ele>592.0</ele><time>2026-04-28T08:35:59.706Z</time></trkpt><trkpt lat="43.4422717" lon="11.549695"><ele>592.0</ele><time>2026-04-28T08:36:00.705Z</time></trkpt><trkpt lat="43.4422317" lon="11.5498267"><ele>592.0</ele><time>2026-04-28T08:36:01.706Z</time></trkpt><trkpt lat="43.4421917" lon="11.5499333"><ele>592.0</ele><time>2026-04-28T08:36:02.705Z</time></trkpt><trkpt lat="43.44216" lon="11.550025"><ele>592.0</ele><time>2026-04-28T08:36:03.707Z</time></trkpt><trkpt lat="43.4421383" lon="11.5501133"><ele>592.0</ele><time>2026-04-28T08:36:04.705Z</time></trkpt><trkpt lat="43.44214" lon="11.5502067"><ele>592.0</ele><time>2026-04-28T08:36:05.705Z</time></trkpt><trkpt lat="43.4421783" lon="11.5503383"><ele>591.0</ele><time>2026-04-28T08:36:06.708Z</time></trkpt><trkpt lat="43.4422417" lon="11.5504967"><ele>590.0</ele><time>2026-04-28T08:36:07.706Z</time></trkpt><trkpt lat="43.4423033" lon="11.5506617"><ele>589.0</ele><time>2026-04-28T08:36:08.705Z</time></trkpt><trkpt lat="43.4423633" lon="11.5508183"><ele>588.0</ele><time>2026-04-28T08:36:09.707Z</time></trkpt><trkpt lat="43.442425" lon="11.5509533"><ele>588.0</ele><time>2026-04-28T08:36:10.705Z</time></trkpt><trkpt lat="43.4424983" lon="11.5510667"><ele>588.0</ele><time>2026-04-28T08:36:11.706Z</time></trkpt><trkpt lat="43.4425833" lon="11.551155"><ele>588.0</ele><time>2026-04-28T08:36:12.706Z</time></trkpt><trkpt lat="43.4426667" lon="11.5512333"><ele>588.0</ele><time>2026-04-28T08:36:13.705Z</time></trkpt><trkpt lat="43.4427433" lon="11.5513217"><ele>588.0</ele><time>2026-04-28T08:36:14.704Z</time></trkpt><trkpt lat="43.4428133" lon="11.5514267"><ele>589.0</ele><time>2026-04-28T08:36:15.705Z</time></trkpt><trkpt lat="43.4428683" lon="11.5515467"><ele>590.0</ele><time>2026-04-28T08:36:16.704Z</time></trkpt><trkpt lat="43.4429317" lon="11.5516733"><ele>591.0</ele><time>2026-04-28T08:36:17.705Z</time></trkpt><trkpt lat="43.4430067" lon="11.5517933"><ele>592.0</ele><time>2026-04-28T08:36:18.703Z</time></trkpt><trkpt lat="43.443085" lon="11.5519117"><ele>593.0</ele><time>2026-04-28T08:36:19.705Z</time></trkpt><trkpt lat="43.4431533" lon="11.5520417"><ele>593.0</ele><time>2026-04-28T08:36:20.705Z</time></trkpt><trkpt lat="43.4432133" lon="11.5521833"><ele>593.0</ele><time>2026-04-28T08:36:21.707Z</time></trkpt><trkpt lat="43.4432733" lon="11.5523317"><ele>593.0</ele><time>2026-04-28T08:36:22.705Z</time></trkpt><trkpt lat="43.4433317" lon="11.55248"><ele>593.0</ele><time>2026-04-28T08:36:23.704Z</time></trkpt><trkpt lat="43.443385" lon="11.5526217"><ele>593.0</ele><time>2026-04-28T08:36:24.706Z</time></trkpt><trkpt lat="43.4434333" lon="11.5527717"><ele>593.0</ele><time>2026-04-28T08:36:25.707Z</time></trkpt><trkpt lat="43.4434833" lon="11.55293"><ele>593.0</ele><time>2026-04-28T08:36:26.706Z</time></trkpt><trkpt lat="43.4435383" lon="11.5530867"><ele>593.0</ele><time>2026-04-28T08:36:27.706Z</time></trkpt><trkpt lat="43.4435883" lon="11.5532233"><ele>596.8</ele><time>2026-04-28T08:36:28.705Z</time></trkpt><trkpt lat="43.4436283" lon="11.5533417"><ele>600.5999999999999</ele><time>2026-04-28T08:36:29.706Z</time></trkpt><trkpt lat="43.44367" lon="11.5534617"><ele>604.4000000000001</ele><time>2026-04-28T08:36:30.706Z</time></trkpt><trkpt lat="43.44371" lon="11.55359"><ele>608.2</ele><time>2026-04-28T08:36:31.706Z</time></trkpt><trkpt lat="43.44375" lon="11.5537067"><ele>612.0</ele><time>2026-04-28T08:36:32.706Z</time></trkpt><trkpt lat="43.4437933" lon="11.5538283"><ele>606.25</ele><time>2026-04-28T08:36:33.706Z</time></trkpt><trkpt lat="43.4438383" lon="11.5539717"><ele>600.5</ele><time>2026-04-28T08:36:34.706Z</time></trkpt><trkpt lat="43.44389" lon="11.554135"><ele>594.75</ele><time>2026-04-28T08:36:35.705Z</time></trkpt><trkpt lat="43.44395" lon="11.5543267"><ele>589.0</ele><time>2026-04-28T08:36:36.704Z</time></trkpt><trkpt lat="43.4440217" lon="11.5545167"><ele>591.75</ele><time>2026-04-28T08:36:37.706Z</time></trkpt><trkpt lat="43.4440933" lon="11.554685"><ele>594.5</ele><time>2026-04-28T08:36:38.705Z</time></trkpt><trkpt lat="43.44416" lon="11.5548417"><ele>597.25</ele><time>2026-04-28T08:36:39.705Z</time></trkpt><trkpt lat="43.44423" lon="11.5550067"><ele>600.0</ele><time>2026-04-28T08:36:40.706Z</time></trkpt><trkpt lat="43.4442867" lon="11.5551683"><ele>600.0</ele><time>2026-04-28T08:36:41.706Z</time></trkpt><trkpt lat="43.4443467" lon="11.55532"><ele>600.0</ele><time>2026-04-28T08:36:42.706Z</time></trkpt><trkpt lat="43.44442" lon="11.5554633"><ele>600.0</ele><time>2026-04-28T08:36:43.707Z</time></trkpt><trkpt lat="43.4444967" lon="11.5555867"><ele>600.0</ele><time>2026-04-28T08:36:44.706Z</time></trkpt><trkpt lat="43.44455" lon="11.5557"><ele>602.0</ele><time>2026-04-28T08:36:45.707Z</time></trkpt><trkpt lat="43.4445833" lon="11.5558017"><ele>604.0</ele><time>2026-04-28T08:36:46.705Z</time></trkpt><trkpt lat="43.44461" lon="11.5559083"><ele>606.0</ele><time>2026-04-28T08:36:47.705Z</time></trkpt><trkpt lat="43.444615" lon="11.5560333"><ele>608.0</ele><time>2026-04-28T08:36:48.705Z</time></trkpt><trkpt lat="43.4446067" lon="11.5561667"><ele>610.0</ele><time>2026-04-28T08:36:49.706Z</time></trkpt><trkpt lat="43.4445767" lon="11.55631"><ele>610.6</ele><time>2026-04-28T08:36:50.705Z</time></trkpt><trkpt lat="43.4445417" lon="11.556455"><ele>611.2</ele><time>2026-04-28T08:36:51.706Z</time></trkpt><trkpt lat="43.4445067" lon="11.5565817"><ele>611.8</ele><time>2026-04-28T08:36:52.705Z</time></trkpt><trkpt lat="43.44446" lon="11.5567033"><ele>612.4</ele><time>2026-04-28T08:36:53.706Z</time></trkpt><trkpt lat="43.4444033" lon="11.556815"><ele>613.0</ele><time>2026-04-28T08:36:54.706Z</time></trkpt><trkpt lat="43.4443317" lon="11.55689"><ele>613.0</ele><time>2026-04-28T08:36:55.707Z</time></trkpt><trkpt lat="43.44425" lon="11.55697"><ele>613.0</ele><time>2026-04-28T08:36:56.705Z</time></trkpt><trkpt lat="43.44417" lon="11.557045"><ele>613.0</ele><time>2026-04-28T08:36:57.707Z</time></trkpt><trkpt lat="43.444075" lon="11.5571033"><ele>613.0</ele><time>2026-04-28T08:36:58.705Z</time></trkpt><trkpt lat="43.4439683" lon="11.557145"><ele>613.0</ele><time>2026-04-28T08:36:59.705Z</time></trkpt><trkpt lat="43.4438683" lon="11.55719"><ele>611.1999999999999</ele><time>2026-04-28T08:37:00.706Z</time></trkpt><trkpt lat="43.4437633" lon="11.5572367"><ele>609.4</ele><time>2026-04-28T08:37:01.707Z</time></trkpt><trkpt lat="43.4436717" lon="11.557285"><ele>607.5999999999999</ele><time>2026-04-28T08:37:02.706Z</time></trkpt><trkpt lat="43.443585" lon="11.5573467"><ele>605.8</ele><time>2026-04-28T08:37:03.706Z</time></trkpt><trkpt lat="43.4435033" lon="11.557425"><ele>604.0</ele><time>2026-04-28T08:37:04.706Z</time></trkpt><trkpt lat="43.4434283" lon="11.55753"><ele>604.0</ele><time>2026-04-28T08:37:05.705Z</time></trkpt><trkpt lat="43.44337" lon="11.5576367"><ele>604.0</ele><time>2026-04-28T08:37:06.706Z</time></trkpt><trkpt lat="43.4433283" lon="11.557745"><ele>604.0</ele><time>2026-04-28T08:37:07.706Z</time></trkpt><trkpt lat="43.4433017" lon="11.5578517"><ele>604.0</ele><time>2026-04-28T08:37:08.707Z</time></trkpt><trkpt lat="43.4432967" lon="11.5579517"><ele>604.0</ele><time>2026-04-28T08:37:09.707Z</time></trkpt><trkpt lat="43.44331" lon="11.5580367"><ele>604.0</ele><time>2026-04-28T08:37:10.706Z</time></trkpt><trkpt lat="43.4433383" lon="11.55817"><ele>603.4</ele><time>2026-04-28T08:37:12.705Z</time></trkpt><trkpt lat="43.4432933" lon="11.5582417"><ele>602.8</ele><time>2026-04-28T08:37:14.708Z</time></trkpt><trkpt lat="43.4432217" lon="11.558235"><ele>602.2</ele><time>2026-04-28T08:37:15.706Z</time></trkpt><trkpt lat="43.4431067" lon="11.55824"><ele>601.6</ele><time>2026-04-28T08:37:16.704Z</time></trkpt><trkpt lat="43.4429767" lon="11.558265"><ele>601.0</ele><time>2026-04-28T08:37:17.704Z</time></trkpt><trkpt lat="43.4428683" lon="11.5583017"><ele>599.0</ele><time>2026-04-28T08:37:18.705Z</time></trkpt><trkpt lat="43.4427583" lon="11.5583433"><ele>597.0</ele><time>2026-04-28T08:37:19.705Z</time></trkpt><trkpt lat="43.44265" lon="11.5583983"><ele>595.0</ele><time>2026-04-28T08:37:20.706Z</time></trkpt><trkpt lat="43.4425467" lon="11.5584667"><ele>593.0</ele><time>2026-04-28T08:37:21.707Z</time></trkpt><trkpt lat="43.442445" lon="11.5585383"><ele>593.0</ele><time>2026-04-28T08:37:22.705Z</time></trkpt><trkpt lat="43.4423467" lon="11.558605"><ele>593.0</ele><time>2026-04-28T08:37:23.705Z</time></trkpt><trkpt lat="43.4422583" lon="11.5586567"><ele>593.0</ele><time>2026-04-28T08:37:24.707Z</time></trkpt><trkpt lat="43.4421733" lon="11.5586983"><ele>593.0</ele><time>2026-04-28T08:37:25.705Z</time></trkpt><trkpt lat="43.4420917" lon="11.5587467"><ele>593.0</ele><time>2026-04-28T08:37:26.706Z</time></trkpt><trkpt lat="43.442" lon="11.55879"><ele>593.6</ele><time>2026-04-28T08:37:27.705Z</time></trkpt><trkpt lat="43.441905" lon="11.5588367"><ele>594.1999999999999</ele><time>2026-04-28T08:37:28.706Z</time></trkpt><trkpt lat="43.4417967" lon="11.55888"><ele>594.8</ele><time>2026-04-28T08:37:29.705Z</time></trkpt><trkpt lat="43.4416983" lon="11.5589183"><ele>595.4</ele><time>2026-04-28T08:37:30.705Z</time></trkpt><trkpt lat="43.4416017" lon="11.5589817"><ele>596.0</ele><time>2026-04-28T08:37:31.707Z</time></trkpt><trkpt lat="43.4415167" lon="11.5590533"><ele>596.0</ele><time>2026-04-28T08:37:32.707Z</time></trkpt><trkpt lat="43.441445" lon="11.5591333"><ele>596.0</ele><time>2026-04-28T08:37:33.708Z</time></trkpt><trkpt lat="43.4413817" lon="11.55923"><ele>596.0</ele><time>2026-04-28T08:37:34.712Z</time></trkpt><trkpt lat="43.4413267" lon="11.5593517"><ele>596.0</ele><time>2026-04-28T08:37:35.707Z</time></trkpt><trkpt lat="43.441275" lon="11.5594817"><ele>596.0</ele><time>2026-04-28T08:37:36.706Z</time></trkpt><trkpt lat="43.441225" lon="11.5596117"><ele>594.4</ele><time>2026-04-28T08:37:37.707Z</time></trkpt><trkpt lat="43.44118" lon="11.559745"><ele>592.8</ele><time>2026-04-28T08:37:38.703Z</time></trkpt><trkpt lat="43.4411317" lon="11.5598767"><ele>591.1999999999999</ele><time>2026-04-28T08:37:39.706Z</time></trkpt><trkpt lat="43.441085" lon="11.5600167"><ele>589.6</ele><time>2026-04-28T08:37:40.705Z</time></trkpt><trkpt lat="43.44104" lon="11.5601533"><ele>588.0</ele><time>2026-04-28T08:37:41.704Z</time></trkpt><trkpt lat="43.4409967" lon="11.560275"><ele>589.0</ele><time>2026-04-28T08:37:42.706Z</time></trkpt><trkpt lat="43.4409667" lon="11.560415"><ele>590.0</ele><time>2026-04-28T08:37:43.705Z</time></trkpt><trkpt lat="43.44096" lon="11.5605517"><ele>591.0</ele><time>2026-04-28T08:37:44.706Z</time></trkpt><trkpt lat="43.4409533" lon="11.5606883"><ele>592.0</ele><time>2026-04-28T08:37:45.707Z</time></trkpt><trkpt lat="43.4409433" lon="11.560805"><ele>593.0</ele><time>2026-04-28T08:37:46.706Z</time></trkpt><trkpt lat="43.440925" lon="11.5609133"><ele>593.0</ele><time>2026-04-28T08:37:47.706Z</time></trkpt><trkpt lat="43.44089" lon="11.5610183"><ele>593.0</ele><time>2026-04-28T08:37:48.706Z</time></trkpt><trkpt lat="43.4408217" lon="11.561085"><ele>593.0</ele><time>2026-04-28T08:37:49.706Z</time></trkpt><trkpt lat="43.4407333" lon="11.5611283"><ele>593.0</ele><time>2026-04-28T08:37:50.705Z</time></trkpt><trkpt lat="43.440625" lon="11.5611083"><ele>593.0</ele><time>2026-04-28T08:37:51.705Z</time></trkpt><trkpt lat="43.4405283" lon="11.5610717"><ele>595.0</ele><time>2026-04-28T08:37:52.705Z</time></trkpt><trkpt lat="43.4404267" lon="11.561"><ele>597.0</ele><time>2026-04-28T08:37:53.707Z</time></trkpt><trkpt lat="43.4403317" lon="11.56089"><ele>599.0</ele><time>2026-04-28T08:37:54.705Z</time></trkpt><trkpt lat="43.4402517" lon="11.56077"><ele>601.0</ele><time>2026-04-28T08:37:55.706Z</time></trkpt><trkpt lat="43.4401833" lon="11.560665"><ele>601.0</ele><time>2026-04-28T08:37:56.705Z</time></trkpt><trkpt lat="43.4401217" lon="11.560555"><ele>601.0</ele><time>2026-04-28T08:37:57.706Z</time></trkpt><trkpt lat="43.4400583" lon="11.560455"><ele>601.0</ele><time>2026-04-28T08:37:58.706Z</time></trkpt><trkpt lat="43.439995" lon="11.56037"><ele>601.0</ele><time>2026-04-28T08:37:59.705Z</time></trkpt><trkpt lat="43.4399183" lon="11.5603033"><ele>601.0</ele><time>2026-04-28T08:38:00.706Z</time></trkpt><trkpt lat="43.4398283" lon="11.5602483"><ele>600.0</ele><time>2026-04-28T08:38:01.706Z</time></trkpt><trkpt lat="43.4397417" lon="11.5601933"><ele>599.0</ele><time>2026-04-28T08:38:02.705Z</time></trkpt><trkpt lat="43.4396733" lon="11.560115"><ele>598.0</ele><time>2026-04-28T08:38:03.706Z</time></trkpt><trkpt lat="43.4396067" lon="11.5600183"><ele>597.0</ele><time>2026-04-28T08:38:04.706Z</time></trkpt><trkpt lat="43.4395533" lon="11.5599133"><ele>596.0</ele><time>2026-04-28T08:38:05.705Z</time></trkpt><trkpt lat="43.4395033" lon="11.5598133"><ele>599.0</ele><time>2026-04-28T08:38:06.707Z</time></trkpt><trkpt lat="43.439455" lon="11.5597267"><ele>602.0</ele><time>2026-04-28T08:38:07.706Z</time></trkpt><trkpt lat="43.439415" lon="11.5596483"><ele>605.0</ele><time>2026-04-28T08:38:08.705Z</time></trkpt><trkpt lat="43.4393683" lon="11.5595617"><ele>608.0</ele><time>2026-04-28T08:38:09.706Z</time></trkpt><trkpt lat="43.4393067" lon="11.55947"><ele>611.0</ele><time>2026-04-28T08:38:10.705Z</time></trkpt><trkpt lat="43.4392433" lon="11.5594017"><ele>614.0</ele><time>2026-04-28T08:38:11.706Z</time></trkpt><trkpt lat="43.4391717" lon="11.5593433"><ele>614.2</ele><time>2026-04-28T08:38:12.706Z</time></trkpt><trkpt lat="43.4390983" lon="11.55929"><ele>614.4</ele><time>2026-04-28T08:38:13.707Z</time></trkpt><trkpt lat="43.4390367" lon="11.5592333"><ele>614.6</ele><time>2026-04-28T08:38:14.705Z</time></trkpt><trkpt lat="43.4389733" lon="11.5591833"><ele>614.8</ele><time>2026-04-28T08:38:15.705Z</time></trkpt><trkpt lat="43.4388567" lon="11.5591383"><ele>615.0</ele><time>2026-04-28T08:38:17.705Z</time></trkpt><trkpt lat="43.4387567" lon="11.5591467"><ele>614.0</ele><time>2026-04-28T08:38:18.705Z</time></trkpt><trkpt lat="43.4386867" lon="11.559115"><ele>613.0</ele><time>2026-04-28T08:38:19.708Z</time></trkpt><trkpt lat="43.4386217" lon="11.55912"><ele>612.0</ele><time>2026-04-28T08:38:20.705Z</time></trkpt><trkpt lat="43.438555" lon="11.5591067"><ele>611.0</ele><time>2026-04-28T08:38:21.705Z</time></trkpt><trkpt lat="43.4384617" lon="11.5590717"><ele>610.0</ele><time>2026-04-28T08:38:23.705Z</time></trkpt><trkpt lat="43.4383967" lon="11.5590417"><ele>609.0</ele><time>2026-04-28T08:38:24.705Z</time></trkpt><trkpt lat="43.43833" lon="11.5590083"><ele>608.0</ele><time>2026-04-28T08:38:25.707Z</time></trkpt><trkpt lat="43.4382583" lon="11.5589867"><ele>608.0</ele><time>2026-04-28T08:38:26.705Z</time></trkpt><trkpt lat="43.4381283" lon="11.5589367"><ele>608.0</ele><time>2026-04-28T08:38:28.704Z</time></trkpt><trkpt lat="43.43806" lon="11.5588967"><ele>608.0</ele><time>2026-04-28T08:38:29.705Z</time></trkpt><trkpt lat="43.4380033" lon="11.558855"><ele>608.0</ele><time>2026-04-28T08:38:30.705Z</time></trkpt><trkpt lat="43.4379267" lon="11.55881"><ele>608.0</ele><time>2026-04-28T08:38:31.705Z</time></trkpt><trkpt lat="43.4378517" lon="11.5587683"><ele>608.0</ele><time>2026-04-28T08:38:32.704Z</time></trkpt><trkpt lat="43.4377783" lon="11.5587283"><ele>607.8333333333333</ele><time>2026-04-28T08:38:33.707Z</time></trkpt><trkpt lat="43.43771" lon="11.5586933"><ele>607.6666666666666</ele><time>2026-04-28T08:38:34.704Z</time></trkpt><trkpt lat="43.4376517" lon="11.5586517"><ele>607.5</ele><time>2026-04-28T08:38:35.706Z</time></trkpt><trkpt lat="43.4375933" lon="11.5585567"><ele>607.3333333333334</ele><time>2026-04-28T08:38:37.706Z</time></trkpt><trkpt lat="43.4375233" lon="11.558515"><ele>607.1666666666667</ele><time>2026-04-28T08:38:39.706Z</time></trkpt><trkpt lat="43.43744" lon="11.558605"><ele>607.0</ele><time>2026-04-28T08:38:42.705Z</time></trkpt><trkpt lat="43.437385" lon="11.5586933"><ele>606.3333333333334</ele><time>2026-04-28T08:38:43.705Z</time></trkpt><trkpt lat="43.43731" lon="11.558785"><ele>605.6666666666667</ele><time>2026-04-28T08:38:44.706Z</time></trkpt><trkpt lat="43.43725" lon="11.55887"><ele>605.0</ele><time>2026-04-28T08:38:45.705Z</time></trkpt><trkpt lat="43.4371933" lon="11.5589367"><ele>604.3333333333334</ele><time>2026-04-28T08:38:46.705Z</time></trkpt><trkpt lat="43.4371267" lon="11.5590083"><ele>603.6666666666666</ele><time>2026-04-28T08:38:47.704Z</time></trkpt><trkpt lat="43.437055" lon="11.5590683"><ele>603.0</ele><time>2026-04-28T08:38:48.704Z</time></trkpt><trkpt lat="43.436985" lon="11.5591267"><ele>603.0</ele><time>2026-04-28T08:38:49.705Z</time></trkpt><trkpt lat="43.436925" lon="11.5591883"><ele>603.0</ele><time>2026-04-28T08:38:50.705Z</time></trkpt><trkpt lat="43.4368117" lon="11.5592467"><ele>603.0</ele><time>2026-04-28T08:38:51.704Z</time></trkpt><trkpt lat="43.436745" lon="11.5593083"><ele>603.0</ele><time>2026-04-28T08:38:52.705Z</time></trkpt><trkpt lat="43.4366583" lon="11.5593667"><ele>603.0</ele><time>2026-04-28T08:38:53.706Z</time></trkpt><trkpt lat="43.4365917" lon="11.5594083"><ele>603.0</ele><time>2026-04-28T08:38:54.706Z</time></trkpt><trkpt lat="43.436515" lon="11.55944"><ele>603.0</ele><time>2026-04-28T08:38:55.706Z</time></trkpt><trkpt lat="43.4364417" lon="11.55946"><ele>603.0</ele><time>2026-04-28T08:38:56.705Z</time></trkpt><trkpt lat="43.43636" lon="11.55946"><ele>603.0</ele><time>2026-04-28T08:38:57.707Z</time></trkpt><trkpt lat="43.43628" lon="11.5594233"><ele>603.0</ele><time>2026-04-28T08:38:58.705Z</time></trkpt><trkpt lat="43.4361983" lon="11.559365"><ele>603.0</ele><time>2026-04-28T08:38:59.705Z</time></trkpt><trkpt lat="43.4361233" lon="11.5593017"><ele>603.0</ele><time>2026-04-28T08:39:00.705Z</time></trkpt><trkpt lat="43.4360617" lon="11.5592267"><ele>602.8333333333334</ele><time>2026-04-28T08:39:01.707Z</time></trkpt><trkpt lat="43.436005" lon="11.55916"><ele>602.6666666666666</ele><time>2026-04-28T08:39:02.705Z</time></trkpt><trkpt lat="43.4359583" lon="11.559085"><ele>602.5</ele><time>2026-04-28T08:39:03.705Z</time></trkpt><trkpt lat="43.4358933" lon="11.5590183"><ele>602.3333333333333</ele><time>2026-04-28T08:39:05.705Z</time></trkpt><trkpt lat="43.4358283" lon="11.5590517"><ele>602.1666666666666</ele><time>2026-04-28T08:39:09.708Z</time></trkpt><trkpt lat="43.4358117" lon="11.5591467"><ele>602.0</ele><time>2026-04-28T08:39:11.705Z</time></trkpt><trkpt lat="43.4358067" lon="11.5592767"><ele>602.0</ele><time>2026-04-28T08:39:12.706Z</time></trkpt><trkpt lat="43.4357967" lon="11.55941"><ele>602.0</ele><time>2026-04-28T08:39:13.705Z</time></trkpt><trkpt lat="43.4357917" lon="11.559545"><ele>602.0</ele><time>2026-04-28T08:39:14.704Z</time></trkpt><trkpt lat="43.435775" lon="11.5596533"><ele>602.0</ele><time>2026-04-28T08:39:15.706Z</time></trkpt><trkpt lat="43.4357717" lon="11.5597867"><ele>602.0</ele><time>2026-04-28T08:39:16.706Z</time></trkpt><trkpt lat="43.4357767" lon="11.5599867"><ele>601.0</ele><time>2026-04-28T08:39:17.705Z</time></trkpt><trkpt lat="43.4357433" lon="11.5600667"><ele>600.0</ele><time>2026-04-28T08:39:18.704Z</time></trkpt><trkpt lat="43.4356317" lon="11.56014"><ele>599.0</ele><time>2026-04-28T08:39:20.705Z</time></trkpt><trkpt lat="43.4355383" lon="11.560255"><ele>598.0</ele><time>2026-04-28T08:39:22.705Z</time></trkpt><trkpt lat="43.4355017" lon="11.560345"><ele>597.0</ele><time>2026-04-28T08:39:23.705Z</time></trkpt><trkpt lat="43.43547" lon="11.5604417"><ele>600.8333333333334</ele><time>2026-04-28T08:39:24.705Z</time></trkpt><trkpt lat="43.4354517" lon="11.5605667"><ele>604.6666666666666</ele><time>2026-04-28T08:39:25.705Z</time></trkpt><trkpt lat="43.435435" lon="11.5606933"><ele>608.5</ele><time>2026-04-28T08:39:26.704Z</time></trkpt><trkpt lat="43.4354117" lon="11.5608067"><ele>612.3333333333333</ele><time>2026-04-28T08:39:27.707Z</time></trkpt><trkpt lat="43.4353917" lon="11.5609083"><ele>616.1666666666666</ele><time>2026-04-28T08:39:28.705Z</time></trkpt><trkpt lat="43.4353633" lon="11.561"><ele>620.0</ele><time>2026-04-28T08:39:29.704Z</time></trkpt><trkpt lat="43.4353233" lon="11.561095"><ele>620.0</ele><time>2026-04-28T08:39:30.706Z</time></trkpt><trkpt lat="43.4352717" lon="11.56119"><ele>620.0</ele><time>2026-04-28T08:39:31.705Z</time></trkpt><trkpt lat="43.435215" lon="11.5612783"><ele>620.0</ele><time>2026-04-28T08:39:32.706Z</time></trkpt><trkpt lat="43.4351483" lon="11.5613583"><ele>620.0</ele><time>2026-04-28T08:39:33.706Z</time></trkpt><trkpt lat="43.4351033" lon="11.56143"><ele>620.0</ele><time>2026-04-28T08:39:34.706Z</time></trkpt><trkpt lat="43.4350533" lon="11.5614917"><ele>620.0</ele><time>2026-04-28T08:39:35.706Z</time></trkpt><trkpt lat="43.4349467" lon="11.5615933"><ele>618.0</ele><time>2026-04-28T08:39:37.706Z</time></trkpt><trkpt lat="43.43482" lon="11.5616567"><ele>616.0</ele><time>2026-04-28T08:39:39.705Z</time></trkpt><trkpt lat="43.434735" lon="11.5616783"><ele>614.0</ele><time>2026-04-28T08:39:40.705Z</time></trkpt><trkpt lat="43.4346" lon="11.5616667"><ele>612.0</ele><time>2026-04-28T08:39:41.704Z</time></trkpt><trkpt lat="43.4345167" lon="11.561665"><ele>610.0</ele><time>2026-04-28T08:39:42.705Z</time></trkpt><trkpt lat="43.4344467" lon="11.561655"><ele>610.0</ele><time>2026-04-28T08:39:43.706Z</time></trkpt><trkpt lat="43.4343467" lon="11.5616333"><ele>610.0</ele><time>2026-04-28T08:39:44.705Z</time></trkpt><trkpt lat="43.4342617" lon="11.5616233"><ele>610.0</ele><time>2026-04-28T08:39:45.706Z</time></trkpt><trkpt lat="43.43413" lon="11.561615"><ele>610.0</ele><time>2026-04-28T08:39:46.705Z</time></trkpt><trkpt lat="43.4340167" lon="11.5616317"><ele>610.0</ele><time>2026-04-28T08:39:47.705Z</time></trkpt><trkpt lat="43.433895" lon="11.5616817"><ele>610.0</ele><time>2026-04-28T08:39:48.705Z</time></trkpt><trkpt lat="43.43381" lon="11.5617083"><ele>610.0</ele><time>2026-04-28T08:39:49.707Z</time></trkpt><trkpt lat="43.4337383" lon="11.5618167"><ele>610.0</ele><time>2026-04-28T08:39:51.707Z</time></trkpt><trkpt lat="43.4336917" lon="11.5619067"><ele>610.0</ele><time>2026-04-28T08:39:53.704Z</time></trkpt><trkpt lat="43.4336617" lon="11.56201"><ele>610.0</ele><time>2026-04-28T08:39:54.704Z</time></trkpt><trkpt lat="43.43364" lon="11.562165"><ele>611.25</ele><time>2026-04-28T08:39:55.705Z</time></trkpt><trkpt lat="43.43362" lon="11.562315"><ele>612.5</ele><time>2026-04-28T08:39:56.705Z</time></trkpt><trkpt lat="43.4335933" lon="11.5624883"><ele>613.75</ele><time>2026-04-28T08:39:57.705Z</time></trkpt><trkpt lat="43.433575" lon="11.5626483"><ele>615.0</ele><time>2026-04-28T08:39:58.705Z</time></trkpt><trkpt lat="43.433555" lon="11.5628083"><ele>615.2</ele><time>2026-04-28T08:39:59.706Z</time></trkpt><trkpt lat="43.4335383" lon="11.5629667"><ele>615.4</ele><time>2026-04-28T08:40:00.705Z</time></trkpt><trkpt lat="43.4335267" lon="11.563105"><ele>615.6</ele><time>2026-04-28T08:40:01.705Z</time></trkpt><trkpt lat="43.43352" lon="11.5632217"><ele>615.8</ele><time>2026-04-28T08:40:02.705Z</time></trkpt><trkpt lat="43.43353" lon="11.5633567"><ele>616.0</ele><time>2026-04-28T08:40:03.707Z</time></trkpt><trkpt lat="43.4335667" lon="11.563485"><ele>616.0</ele><time>2026-04-28T08:40:04.704Z</time></trkpt><trkpt lat="43.4336083" lon="11.563595"><ele>616.0</ele><time>2026-04-28T08:40:05.705Z</time></trkpt><trkpt lat="43.433645" lon="11.5636933"><ele>616.0</ele><time>2026-04-28T08:40:06.705Z</time></trkpt><trkpt lat="43.4336767" lon="11.5638"><ele>616.0</ele><time>2026-04-28T08:40:07.706Z</time></trkpt><trkpt lat="43.4336933" lon="11.5639117"><ele>616.0</ele><time>2026-04-28T08:40:08.705Z</time></trkpt><trkpt lat="43.4337167" lon="11.5640383"><ele>616.0</ele><time>2026-04-28T08:40:09.705Z</time></trkpt><trkpt lat="43.43373" lon="11.5641617"><ele>616.5</ele><time>2026-04-28T08:40:10.707Z</time></trkpt><trkpt lat="43.4337417" lon="11.5642917"><ele>617.0</ele><time>2026-04-28T08:40:11.707Z</time></trkpt><trkpt lat="43.433755" lon="11.5644033"><ele>617.5</ele><time>2026-04-28T08:40:12.704Z</time></trkpt><trkpt lat="43.4337633" lon="11.5645083"><ele>618.0</ele><time>2026-04-28T08:40:13.706Z</time></trkpt><trkpt lat="43.433765" lon="11.5646167"><ele>618.5</ele><time>2026-04-28T08:40:14.706Z</time></trkpt><trkpt lat="43.4337533" lon="11.5647217"><ele>619.0</ele><time>2026-04-28T08:40:15.706Z</time></trkpt><trkpt lat="43.433725" lon="11.564825"><ele>617.6666666666667</ele><time>2026-04-28T08:40:16.705Z</time></trkpt><trkpt lat="43.4336833" lon="11.5649317"><ele>616.3333333333334</ele><time>2026-04-28T08:40:17.705Z</time></trkpt><trkpt lat="43.4336417" lon="11.5650383"><ele>615.0</ele><time>2026-04-28T08:40:18.706Z</time></trkpt><trkpt lat="43.4335867" lon="11.565115"><ele>613.6666666666666</ele><time>2026-04-28T08:40:19.707Z</time></trkpt><trkpt lat="43.4335367" lon="11.565175"><ele>612.3333333333333</ele><time>2026-04-28T08:40:20.705Z</time></trkpt><trkpt lat="43.433455" lon="11.5653017"><ele>611.0</ele><time>2026-04-28T08:40:22.706Z</time></trkpt><trkpt lat="43.4334167" lon="11.5653867"><ele>608.1428571428572</ele><time>2026-04-28T08:40:23.706Z</time></trkpt><trkpt lat="43.4333867" lon="11.5654717"><ele>605.2857142857143</ele><time>2026-04-28T08:40:24.706Z</time></trkpt><trkpt lat="43.4333517" lon="11.5655567"><ele>602.4285714285714</ele><time>2026-04-28T08:40:25.707Z</time></trkpt><trkpt lat="43.4333217" lon="11.5656483"><ele>599.5714285714287</ele><time>2026-04-28T08:40:26.707Z</time></trkpt><trkpt lat="43.43329" lon="11.5657383"><ele>596.7142857142858</ele><time>2026-04-28T08:40:27.707Z</time></trkpt><trkpt lat="43.43326" lon="11.5658367"><ele>593.8571428571429</ele><time>2026-04-28T08:40:28.708Z</time></trkpt><trkpt lat="43.4332283" lon="11.5659317"><ele>591.0</ele><time>2026-04-28T08:40:29.704Z</time></trkpt><trkpt lat="43.4331917" lon="11.5660283"><ele>591.0</ele><time>2026-04-28T08:40:30.707Z</time></trkpt><trkpt lat="43.4331517" lon="11.5661433"><ele>591.0</ele><time>2026-04-28T08:40:31.708Z</time></trkpt><trkpt lat="43.4331167" lon="11.5662567"><ele>591.0</ele><time>2026-04-28T08:40:32.707Z</time></trkpt><trkpt lat="43.4330717" lon="11.56636"><ele>591.0</ele><time>2026-04-28T08:40:33.709Z</time></trkpt><trkpt lat="43.4330333" lon="11.5664433"><ele>591.0</ele><time>2026-04-28T08:40:34.707Z</time></trkpt><trkpt lat="43.43299" lon="11.5665167"><ele>591.0</ele><time>2026-04-28T08:40:35.707Z</time></trkpt><trkpt lat="43.43296" lon="11.5666"><ele>593.0</ele><time>2026-04-28T08:40:36.706Z</time></trkpt><trkpt lat="43.432915" lon="11.5667617"><ele>595.0</ele><time>2026-04-28T08:40:38.706Z</time></trkpt><trkpt lat="43.4328633" lon="11.56689"><ele>597.0</ele><time>2026-04-28T08:40:39.706Z</time></trkpt><trkpt lat="43.43283" lon="11.5669683"><ele>599.0</ele><time>2026-04-28T08:40:40.705Z</time></trkpt><trkpt lat="43.4328017" lon="11.567055"><ele>601.0</ele><time>2026-04-28T08:40:41.705Z</time></trkpt><trkpt lat="43.43277" lon="11.5671983"><ele>601.5</ele><time>2026-04-28T08:40:42.706Z</time></trkpt><trkpt lat="43.4327467" lon="11.5673183"><ele>602.0</ele><time>2026-04-28T08:40:43.707Z</time></trkpt><trkpt lat="43.4327183" lon="11.56744"><ele>602.5</ele><time>2026-04-28T08:40:44.707Z</time></trkpt><trkpt lat="43.4326917" lon="11.5675617"><ele>603.0</ele><time>2026-04-28T08:40:45.707Z</time></trkpt><trkpt lat="43.4326633" lon="11.5676717"><ele>603.5</ele><time>2026-04-28T08:40:46.708Z</time></trkpt><trkpt lat="43.4326467" lon="11.56779"><ele>604.0</ele><time>2026-04-28T08:40:47.707Z</time></trkpt><trkpt lat="43.432635" lon="11.5678967"><ele>604.6</ele><time>2026-04-28T08:40:48.708Z</time></trkpt><trkpt lat="43.432625" lon="11.56803"><ele>605.2</ele><time>2026-04-28T08:40:49.708Z</time></trkpt><trkpt lat="43.4326167" lon="11.5681617"><ele>605.8000000000001</ele><time>2026-04-28T08:40:50.707Z</time></trkpt><trkpt lat="43.43261" lon="11.568285"><ele>606.4</ele><time>2026-04-28T08:40:51.707Z</time></trkpt><trkpt lat="43.432615" lon="11.5684283"><ele>607.0</ele><time>2026-04-28T08:40:52.704Z</time></trkpt><trkpt lat="43.4326267" lon="11.5685767"><ele>606.2</ele><time>2026-04-28T08:40:53.707Z</time></trkpt><trkpt lat="43.4326383" lon="11.5687083"><ele>605.4000000000001</ele><time>2026-04-28T08:40:54.706Z</time></trkpt><trkpt lat="43.43265" lon="11.5688417"><ele>604.5999999999999</ele><time>2026-04-28T08:40:55.709Z</time></trkpt><trkpt lat="43.4326733" lon="11.5689983"><ele>603.8</ele><time>2026-04-28T08:40:56.707Z</time></trkpt><trkpt lat="43.4326967" lon="11.5691183"><ele>603.0</ele><time>2026-04-28T08:40:57.706Z</time></trkpt><trkpt lat="43.432725" lon="11.5692283"><ele>603.0</ele><time>2026-04-28T08:40:58.707Z</time></trkpt><trkpt lat="43.4327567" lon="11.5693433"><ele>603.0</ele><time>2026-04-28T08:40:59.708Z</time></trkpt><trkpt lat="43.4327583" lon="11.569485"><ele>603.0</ele><time>2026-04-28T08:41:01.708Z</time></trkpt><trkpt lat="43.4327067" lon="11.5695967"><ele>603.0</ele><time>2026-04-28T08:41:03.707Z</time></trkpt><trkpt lat="43.43261" lon="11.56966"><ele>603.0</ele><time>2026-04-28T08:41:05.705Z</time></trkpt><trkpt lat="43.4324817" lon="11.569645"><ele>603.0</ele><time>2026-04-28T08:41:07.706Z</time></trkpt><trkpt lat="43.4323933" lon="11.56957"><ele>603.0</ele><time>2026-04-28T08:41:08.706Z</time></trkpt><trkpt lat="43.4323083" lon="11.56951"><ele>603.0</ele><time>2026-04-28T08:41:09.707Z</time></trkpt><trkpt lat="43.4321217" lon="11.5693767"><ele>603.0</ele><time>2026-04-28T08:41:10.705Z</time></trkpt><trkpt lat="43.4320217" lon="11.5693883"><ele>605.4</ele><time>2026-04-28T08:41:11.704Z</time></trkpt><trkpt lat="43.4319467" lon="11.5694083"><ele>607.8</ele><time>2026-04-28T08:41:12.705Z</time></trkpt><trkpt lat="43.4318217" lon="11.5694133"><ele>610.2</ele><time>2026-04-28T08:41:14.707Z</time></trkpt><trkpt lat="43.4317417" lon="11.5693717"><ele>612.6</ele><time>2026-04-28T08:41:15.707Z</time></trkpt><trkpt lat="43.431625" lon="11.5692767"><ele>615.0</ele><time>2026-04-28T08:41:16.706Z</time></trkpt><trkpt lat="43.4315233" lon="11.5691883"><ele>615.0</ele><time>2026-04-28T08:41:17.706Z</time></trkpt><trkpt lat="43.4314117" lon="11.5691"><ele>615.0</ele><time>2026-04-28T08:41:18.705Z</time></trkpt><trkpt lat="43.431295" lon="11.5690267"><ele>615.0</ele><time>2026-04-28T08:41:19.702Z</time></trkpt><trkpt lat="43.4311917" lon="11.5689433"><ele>615.0</ele><time>2026-04-28T08:41:20.705Z</time></trkpt><trkpt lat="43.4311017" lon="11.5688883"><ele>614.3333333333334</ele><time>2026-04-28T08:41:21.707Z</time></trkpt><trkpt lat="43.431025" lon="11.568845"><ele>613.6666666666666</ele><time>2026-04-28T08:41:22.705Z</time></trkpt><trkpt lat="43.430945" lon="11.56882"><ele>613.0</ele><time>2026-04-28T08:41:23.705Z</time></trkpt><trkpt lat="43.43085" lon="11.5688267"><ele>612.3333333333333</ele><time>2026-04-28T08:41:24.705Z</time></trkpt><trkpt lat="43.4307567" lon="11.5688233"><ele>611.6666666666666</ele><time>2026-04-28T08:41:25.706Z</time></trkpt><trkpt lat="43.4306617" lon="11.5688117"><ele>611.0</ele><time>2026-04-28T08:41:26.706Z</time></trkpt><trkpt lat="43.43058" lon="11.5687767"><ele>611.0</ele><time>2026-04-28T08:41:27.705Z</time></trkpt><trkpt lat="43.43049" lon="11.5687383"><ele>611.0</ele><time>2026-04-28T08:41:28.707Z</time></trkpt><trkpt lat="43.4304083" lon="11.5686917"><ele>611.0</ele><time>2026-04-28T08:41:29.707Z</time></trkpt><trkpt lat="43.430345" lon="11.5686083"><ele>611.0</ele><time>2026-04-28T08:41:30.706Z</time></trkpt><trkpt lat="43.4302717" lon="11.568515"><ele>611.0</ele><time>2026-04-28T08:41:31.705Z</time></trkpt><trkpt lat="43.43022" lon="11.568395"><ele>614.75</ele><time>2026-04-28T08:41:32.706Z</time></trkpt><trkpt lat="43.4301633" lon="11.56827"><ele>618.5</ele><time>2026-04-28T08:41:33.707Z</time></trkpt><trkpt lat="43.4301033" lon="11.568135"><ele>622.25</ele><time>2026-04-28T08:41:34.705Z</time></trkpt><trkpt lat="43.430035" lon="11.5679917"><ele>626.0</ele><time>2026-04-28T08:41:35.705Z</time></trkpt><trkpt lat="43.4299633" lon="11.567845"><ele>628.0</ele><time>2026-04-28T08:41:36.705Z</time></trkpt><trkpt lat="43.4298933" lon="11.5677133"><ele>630.0</ele><time>2026-04-28T08:41:37.702Z</time></trkpt><trkpt lat="43.42983" lon="11.5675917"><ele>632.0</ele><time>2026-04-28T08:41:38.705Z</time></trkpt><trkpt lat="43.4297767" lon="11.5674783"><ele>634.0</ele><time>2026-04-28T08:41:39.706Z</time></trkpt><trkpt lat="43.4297317" lon="11.5673767"><ele>636.0</ele><time>2026-04-28T08:41:40.705Z</time></trkpt><trkpt lat="43.4296867" lon="11.5672767"><ele>636.0</ele><time>2026-04-28T08:41:41.702Z</time></trkpt><trkpt lat="43.429645" lon="11.5671833"><ele>636.0</ele><time>2026-04-28T08:41:42.707Z</time></trkpt><trkpt lat="43.4295983" lon="11.5670933"><ele>636.0</ele><time>2026-04-28T08:41:43.706Z</time></trkpt><trkpt lat="43.4295617" lon="11.5669983"><ele>636.0</ele><time>2026-04-28T08:41:44.704Z</time></trkpt><trkpt lat="43.4295333" lon="11.5669083"><ele>636.0</ele><time>2026-04-28T08:41:45.707Z</time></trkpt><trkpt lat="43.4295233" lon="11.56681"><ele>636.0</ele><time>2026-04-28T08:41:46.705Z</time></trkpt><trkpt lat="43.4295367" lon="11.5667"><ele>632.6</ele><time>2026-04-28T08:41:47.705Z</time></trkpt><trkpt lat="43.4295433" lon="11.5666033"><ele>629.2</ele><time>2026-04-28T08:41:48.71Z</time></trkpt><trkpt lat="43.4295433" lon="11.5665083"><ele>625.8</ele><time>2026-04-28T08:41:49.705Z</time></trkpt><trkpt lat="43.4295383" lon="11.5663917"><ele>622.4</ele><time>2026-04-28T08:41:50.706Z</time></trkpt><trkpt lat="43.429525" lon="11.5662267"><ele>619.0</ele><time>2026-04-28T08:41:51.706Z</time></trkpt><trkpt lat="43.4294767" lon="11.56607"><ele>619.0</ele><time>2026-04-28T08:41:52.706Z</time></trkpt><trkpt lat="43.4294267" lon="11.565945"><ele>619.0</ele><time>2026-04-28T08:41:53.705Z</time></trkpt><trkpt lat="43.4293833" lon="11.56583"><ele>619.0</ele><time>2026-04-28T08:41:54.705Z</time></trkpt><trkpt lat="43.4293367" lon="11.5657133"><ele>619.0</ele><time>2026-04-28T08:41:55.704Z</time></trkpt><trkpt lat="43.42928" lon="11.5655967"><ele>619.0</ele><time>2026-04-28T08:41:56.705Z</time></trkpt><trkpt lat="43.4292167" lon="11.56549"><ele>619.0</ele><time>2026-04-28T08:41:57.705Z</time></trkpt><trkpt lat="43.4291517" lon="11.5653933"><ele>619.0</ele><time>2026-04-28T08:41:58.705Z</time></trkpt><trkpt lat="43.4290933" lon="11.5653083"><ele>619.0</ele><time>2026-04-28T08:41:59.705Z</time></trkpt><trkpt lat="43.4290367" lon="11.5652333"><ele>619.0</ele><time>2026-04-28T08:42:00.706Z</time></trkpt><trkpt lat="43.42895" lon="11.5651317"><ele>619.0</ele><time>2026-04-28T08:42:02.705Z</time></trkpt><trkpt lat="43.4290083" lon="11.5650667"><ele>619.0</ele><time>2026-04-28T08:42:06.705Z</time></trkpt><trkpt lat="43.429205" lon="11.5651083"><ele>619.0</ele><time>2026-04-28T08:42:08.706Z</time></trkpt><trkpt lat="43.4293417" lon="11.565165"><ele>619.0</ele><time>2026-04-28T08:42:09.706Z</time></trkpt><trkpt lat="43.4294533" lon="11.5652"><ele>619.0</ele><time>2026-04-28T08:42:10.707Z</time></trkpt><trkpt lat="43.4295717" lon="11.5652317"><ele>619.0</ele><time>2026-04-28T08:42:11.705Z</time></trkpt><trkpt lat="43.4296717" lon="11.5652567"><ele>619.25</ele><time>2026-04-28T08:42:12.705Z</time></trkpt><trkpt lat="43.4297917" lon="11.565285"><ele>619.5</ele><time>2026-04-28T08:42:13.706Z</time></trkpt><trkpt lat="43.4298983" lon="11.565265"><ele>619.75</ele><time>2026-04-28T08:42:14.705Z</time></trkpt><trkpt lat="43.4300017" lon="11.5652117"><ele>620.0</ele><time>2026-04-28T08:42:15.706Z</time></trkpt><trkpt lat="43.4300967" lon="11.5650967"><ele>620.0</ele><time>2026-04-28T08:42:16.703Z</time></trkpt><trkpt lat="43.430195" lon="11.56503"><ele>620.0</ele><time>2026-04-28T08:42:17.704Z</time></trkpt><trkpt lat="43.430285" lon="11.5649667"><ele>620.0</ele><time>2026-04-28T08:42:18.707Z</time></trkpt><trkpt lat="43.4303733" lon="11.5649417"><ele>620.0</ele><time>2026-04-28T08:42:19.705Z</time></trkpt><trkpt lat="43.4304733" lon="11.5649433"><ele>620.0</ele><time>2026-04-28T08:42:20.704Z</time></trkpt><trkpt lat="43.43058" lon="11.564965"><ele>621.25</ele><time>2026-04-28T08:42:21.704Z</time></trkpt><trkpt lat="43.43069" lon="11.5649817"><ele>622.5</ele><time>2026-04-28T08:42:22.706Z</time></trkpt><trkpt lat="43.4308017" lon="11.5649933"><ele>623.75</ele><time>2026-04-28T08:42:23.703Z</time></trkpt><trkpt lat="43.4309167" lon="11.5650083"><ele>625.0</ele><time>2026-04-28T08:42:24.704Z</time></trkpt><trkpt lat="43.4310283" lon="11.5650133"><ele>625.0</ele><time>2026-04-28T08:42:25.705Z</time></trkpt><trkpt lat="43.43113" lon="11.5649933"><ele>625.0</ele><time>2026-04-28T08:42:26.705Z</time></trkpt><trkpt lat="43.4312333" lon="11.5649417"><ele>625.0</ele><time>2026-04-28T08:42:27.706Z</time></trkpt><trkpt lat="43.431355" lon="11.5648617"><ele>625.0</ele><time>2026-04-28T08:42:28.705Z</time></trkpt><trkpt lat="43.4314583" lon="11.5647467"><ele>625.5</ele><time>2026-04-28T08:42:29.704Z</time></trkpt><trkpt lat="43.43156" lon="11.56463"><ele>626.0</ele><time>2026-04-28T08:42:30.704Z</time></trkpt><trkpt lat="43.4316617" lon="11.56451"><ele>626.5</ele><time>2026-04-28T08:42:31.706Z</time></trkpt><trkpt lat="43.43176" lon="11.5643883"><ele>627.0</ele><time>2026-04-28T08:42:32.705Z</time></trkpt><trkpt lat="43.4318567" lon="11.5642583"><ele>626.0</ele><time>2026-04-28T08:42:33.705Z</time></trkpt><trkpt lat="43.43194" lon="11.5641167"><ele>625.0</ele><time>2026-04-28T08:42:34.705Z</time></trkpt><trkpt lat="43.4320117" lon="11.5639533"><ele>624.0</ele><time>2026-04-28T08:42:35.706Z</time></trkpt><trkpt lat="43.432075" lon="11.5637833"><ele>623.0</ele><time>2026-04-28T08:42:36.705Z</time></trkpt><trkpt lat="43.4321283" lon="11.563615"><ele>623.6</ele><time>2026-04-28T08:42:37.705Z</time></trkpt><trkpt lat="43.43217" lon="11.5634533"><ele>624.1999999999999</ele><time>2026-04-28T08:42:38.705Z</time></trkpt><trkpt lat="43.432205" lon="11.5633067"><ele>624.8</ele><time>2026-04-28T08:42:39.706Z</time></trkpt><trkpt lat="43.43223" lon="11.5631917"><ele>625.4</ele><time>2026-04-28T08:42:40.704Z</time></trkpt><trkpt lat="43.4322617" lon="11.5630933"><ele>626.0</ele><time>2026-04-28T08:42:41.7Z</time></trkpt><trkpt lat="43.4323017" lon="11.5630183"><ele>626.0</ele><time>2026-04-28T08:42:42.705Z</time></trkpt><trkpt lat="43.4323367" lon="11.5629317"><ele>626.0</ele><time>2026-04-28T08:42:43.706Z</time></trkpt><trkpt lat="43.43236" lon="11.56285"><ele>626.0</ele><time>2026-04-28T08:42:44.704Z</time></trkpt><trkpt lat="43.432405" lon="11.562695"><ele>626.0</ele><time>2026-04-28T08:42:46.704Z</time></trkpt><trkpt lat="43.432445" lon="11.5626217"><ele>626.0</ele><time>2026-04-28T08:42:47.705Z</time></trkpt><trkpt lat="43.4324967" lon="11.5625717"><ele>626.0</ele><time>2026-04-28T08:42:48.707Z</time></trkpt><trkpt lat="43.43259" lon="11.5625267"><ele>625.6666666666666</ele><time>2026-04-28T08:42:50.705Z</time></trkpt><trkpt lat="43.4326633" lon="11.5625467"><ele>625.3333333333333</ele><time>2026-04-28T08:42:52.705Z</time></trkpt><trkpt lat="43.4327333" lon="11.5625567"><ele>625.0</ele><time>2026-04-28T08:42:54.705Z</time></trkpt><trkpt lat="43.4328217" lon="11.5625217"><ele>624.6666666666666</ele><time>2026-04-28T08:42:56.704Z</time></trkpt><trkpt lat="43.4328833" lon="11.5624967"><ele>624.3333333333334</ele><time>2026-04-28T08:42:57.707Z</time></trkpt><trkpt lat="43.4329583" lon="11.5624633"><ele>624.0</ele><time>2026-04-28T08:42:58.706Z</time></trkpt><trkpt lat="43.433035" lon="11.5624267"><ele>622.2</ele><time>2026-04-28T08:42:59.704Z</time></trkpt><trkpt lat="43.4331233" lon="11.5623783"><ele>620.4</ele><time>2026-04-28T08:43:00.705Z</time></trkpt><trkpt lat="43.433215" lon="11.562305"><ele>618.6</ele><time>2026-04-28T08:43:01.707Z</time></trkpt><trkpt lat="43.4333167" lon="11.5622183"><ele>616.8</ele><time>2026-04-28T08:43:02.705Z</time></trkpt><trkpt lat="43.4334167" lon="11.5621183"><ele>615.0</ele><time>2026-04-28T08:43:03.704Z</time></trkpt><trkpt lat="43.4335117" lon="11.5620283"><ele>614.8</ele><time>2026-04-28T08:43:04.705Z</time></trkpt><trkpt lat="43.4336" lon="11.5619483"><ele>614.6</ele><time>2026-04-28T08:43:05.705Z</time></trkpt><trkpt lat="43.4336933" lon="11.5618717"><ele>614.4</ele><time>2026-04-28T08:43:06.705Z</time></trkpt><trkpt lat="43.43378" lon="11.5617967"><ele>614.2</ele><time>2026-04-28T08:43:07.706Z</time></trkpt><trkpt lat="43.4338633" lon="11.5617183"><ele>614.0</ele><time>2026-04-28T08:43:08.704Z</time></trkpt><trkpt lat="43.433935" lon="11.5616517"><ele>613.3333333333333</ele><time>2026-04-28T08:43:09.705Z</time></trkpt><trkpt lat="43.4340233" lon="11.56159"><ele>612.6666666666666</ele><time>2026-04-28T08:43:10.705Z</time></trkpt><trkpt lat="43.434105" lon="11.561555"><ele>612.0</ele><time>2026-04-28T08:43:11.705Z</time></trkpt><trkpt lat="43.4341817" lon="11.5615383"><ele>611.3333333333334</ele><time>2026-04-28T08:43:12.703Z</time></trkpt><trkpt lat="43.4342567" lon="11.5615183"><ele>610.6666666666667</ele><time>2026-04-28T08:43:13.704Z</time></trkpt><trkpt lat="43.4343233" lon="11.561485"><ele>610.0</ele><time>2026-04-28T08:43:14.705Z</time></trkpt><trkpt lat="43.434375" lon="11.5614333"><ele>610.0</ele><time>2026-04-28T08:43:15.705Z</time></trkpt><trkpt lat="43.43442" lon="11.5613583"><ele>610.0</ele><time>2026-04-28T08:43:16.705Z</time></trkpt><trkpt lat="43.4344717" lon="11.5612817"><ele>610.0</ele><time>2026-04-28T08:43:17.705Z</time></trkpt><trkpt lat="43.4345333" lon="11.561225"><ele>610.0</ele><time>2026-04-28T08:43:18.703Z</time></trkpt><trkpt lat="43.4345983" lon="11.561185"><ele>610.0</ele><time>2026-04-28T08:43:19.701Z</time></trkpt><trkpt lat="43.4346883" lon="11.561105"><ele>610.0</ele><time>2026-04-28T08:43:21.706Z</time></trkpt><trkpt lat="43.4347467" lon="11.560975"><ele>611.4285714285714</ele><time>2026-04-28T08:43:23.703Z</time></trkpt><trkpt lat="43.434765" lon="11.5608783"><ele>612.8571428571428</ele><time>2026-04-28T08:43:24.705Z</time></trkpt><trkpt lat="43.4347817" lon="11.5607817"><ele>614.2857142857142</ele><time>2026-04-28T08:43:25.706Z</time></trkpt><trkpt lat="43.4347933" lon="11.5606883"><ele>615.7142857142858</ele><time>2026-04-28T08:43:26.705Z</time></trkpt><trkpt lat="43.4348067" lon="11.56059"><ele>617.1428571428571</ele><time>2026-04-28T08:43:27.706Z</time></trkpt><trkpt lat="43.4348217" lon="11.5604817"><ele>618.5714285714286</ele><time>2026-04-28T08:43:28.704Z</time></trkpt><trkpt lat="43.43484" lon="11.5603767"><ele>620.0</ele><time>2026-04-28T08:43:29.704Z</time></trkpt><trkpt lat="43.434855" lon="11.5602883"><ele>620.6666666666666</ele><time>2026-04-28T08:43:30.705Z</time></trkpt><trkpt lat="43.4348183" lon="11.56016"><ele>621.3333333333333</ele><time>2026-04-28T08:43:32.705Z</time></trkpt><trkpt lat="43.4347717" lon="11.5600683"><ele>622.0</ele><time>2026-04-28T08:43:33.705Z</time></trkpt><trkpt lat="43.434725" lon="11.5599833"><ele>622.6666666666666</ele><time>2026-04-28T08:43:34.706Z</time></trkpt><trkpt lat="43.4346833" lon="11.5598967"><ele>623.3333333333334</ele><time>2026-04-28T08:43:35.704Z</time></trkpt><trkpt lat="43.4346483" lon="11.55981"><ele>624.0</ele><time>2026-04-28T08:43:36.707Z</time></trkpt><trkpt lat="43.4346167" lon="11.5597167"><ele>624.3333333333334</ele><time>2026-04-28T08:43:37.706Z</time></trkpt><trkpt lat="43.4345767" lon="11.559625"><ele>624.6666666666666</ele><time>2026-04-28T08:43:38.705Z</time></trkpt><trkpt lat="43.4345467" lon="11.5595267"><ele>625.0</ele><time>2026-04-28T08:43:39.706Z</time></trkpt><trkpt lat="43.4345083" lon="11.5594283"><ele>625.3333333333333</ele><time>2026-04-28T08:43:40.705Z</time></trkpt><trkpt lat="43.4344583" lon="11.5593217"><ele>625.6666666666666</ele><time>2026-04-28T08:43:41.705Z</time></trkpt><trkpt lat="43.4344083" lon="11.5591967"><ele>626.0</ele><time>2026-04-28T08:43:42.705Z</time></trkpt><trkpt lat="43.4343667" lon="11.5590467"><ele>627.4</ele><time>2026-04-28T08:43:43.706Z</time></trkpt><trkpt lat="43.4343267" lon="11.5588883"><ele>628.8</ele><time>2026-04-28T08:43:44.706Z</time></trkpt><trkpt lat="43.4342933" lon="11.558745"><ele>630.1999999999999</ele><time>2026-04-28T08:43:45.706Z</time></trkpt><trkpt lat="43.4342583" lon="11.5586017"><ele>631.6</ele><time>2026-04-28T08:43:46.705Z</time></trkpt><trkpt lat="43.4342283" lon="11.558465"><ele>633.0</ele><time>2026-04-28T08:43:47.706Z</time></trkpt><trkpt lat="43.4342033" lon="11.5583217"><ele>633.0</ele><time>2026-04-28T08:43:48.706Z</time></trkpt><trkpt lat="43.4341783" lon="11.5581867"><ele>633.0</ele><time>2026-04-28T08:43:49.706Z</time></trkpt><trkpt lat="43.4341617" lon="11.5580633"><ele>633.0</ele><time>2026-04-28T08:43:50.706Z</time></trkpt><trkpt lat="43.43417" lon="11.5579267"><ele>633.0</ele><time>2026-04-28T08:43:51.705Z</time></trkpt><trkpt lat="43.4341883" lon="11.55779"><ele>633.0</ele><time>2026-04-28T08:43:52.705Z</time></trkpt><trkpt lat="43.4342167" lon="11.557665"><ele>633.0</ele><time>2026-04-28T08:43:53.704Z</time></trkpt><trkpt lat="43.434255" lon="11.55754"><ele>633.0</ele><time>2026-04-28T08:43:54.707Z</time></trkpt><trkpt lat="43.4342917" lon="11.557425"><ele>633.0</ele><time>2026-04-28T08:43:55.705Z</time></trkpt><trkpt lat="43.43432" lon="11.5573"><ele>633.0</ele><time>2026-04-28T08:43:56.705Z</time></trkpt><trkpt lat="43.4343367" lon="11.5571617"><ele>633.0</ele><time>2026-04-28T08:43:57.707Z</time></trkpt><trkpt lat="43.4343467" lon="11.5570233"><ele>632.4</ele><time>2026-04-28T08:43:58.706Z</time></trkpt><trkpt lat="43.4343583" lon="11.55689"><ele>631.8</ele><time>2026-04-28T08:43:59.705Z</time></trkpt><trkpt lat="43.4343667" lon="11.556765"><ele>631.2</ele><time>2026-04-28T08:44:00.705Z</time></trkpt><trkpt lat="43.4343717" lon="11.55664"><ele>630.6</ele><time>2026-04-28T08:44:01.706Z</time></trkpt><trkpt lat="43.4343733" lon="11.55651"><ele>630.0</ele><time>2026-04-28T08:44:02.705Z</time></trkpt><trkpt lat="43.43438" lon="11.556385"><ele>630.0</ele><time>2026-04-28T08:44:03.707Z</time></trkpt><trkpt lat="43.4344033" lon="11.5562517"><ele>630.0</ele><time>2026-04-28T08:44:04.703Z</time></trkpt><trkpt lat="43.434435" lon="11.5561167"><ele>630.0</ele><time>2026-04-28T08:44:05.704Z</time></trkpt><trkpt lat="43.43448" lon="11.5559817"><ele>630.0</ele><time>2026-04-28T08:44:06.704Z</time></trkpt><trkpt lat="43.4345367" lon="11.5558417"><ele>630.0</ele><time>2026-04-28T08:44:07.704Z</time></trkpt><trkpt lat="43.4345983" lon="11.55571"><ele>631.8</ele><time>2026-04-28T08:44:08.704Z</time></trkpt><trkpt lat="43.4346567" lon="11.5555917"><ele>633.6</ele><time>2026-04-28T08:44:09.704Z</time></trkpt><trkpt lat="43.434705" lon="11.5554717"><ele>635.4</ele><time>2026-04-28T08:44:10.705Z</time></trkpt><trkpt lat="43.43475" lon="11.5553483"><ele>637.2</ele><time>2026-04-28T08:44:11.702Z</time></trkpt><trkpt lat="43.4347883" lon="11.55525"><ele>639.0</ele><time>2026-04-28T08:44:12.704Z</time></trkpt><trkpt lat="43.4348233" lon="11.555165"><ele>639.0</ele><time>2026-04-28T08:44:13.705Z</time></trkpt><trkpt lat="43.4348883" lon="11.5550417"><ele>639.0</ele><time>2026-04-28T08:44:15.706Z</time></trkpt><trkpt lat="43.4349917" lon="11.5549883"><ele>639.0</ele><time>2026-04-28T08:44:17.705Z</time></trkpt><trkpt lat="43.43506" lon="11.55499"><ele>639.0</ele><time>2026-04-28T08:44:18.704Z</time></trkpt><trkpt lat="43.4351383" lon="11.55501"><ele>639.0</ele><time>2026-04-28T08:44:19.704Z</time></trkpt><trkpt lat="43.4352233" lon="11.5550283"><ele>639.0</ele><time>2026-04-28T08:44:20.703Z</time></trkpt><trkpt lat="43.43532" lon="11.55504"><ele>639.0</ele><time>2026-04-28T08:44:21.705Z</time></trkpt><trkpt lat="43.4354317" lon="11.5550567"><ele>639.0</ele><time>2026-04-28T08:44:22.704Z</time></trkpt><trkpt lat="43.4355417" lon="11.55508"><ele>639.0</ele><time>2026-04-28T08:44:23.704Z</time></trkpt><trkpt lat="43.4356417" lon="11.55511"><ele>639.0</ele><time>2026-04-28T08:44:24.704Z</time></trkpt><trkpt lat="43.435725" lon="11.555135"><ele>639.5</ele><time>2026-04-28T08:44:25.705Z</time></trkpt><trkpt lat="43.4357967" lon="11.5551567"><ele>640.0</ele><time>2026-04-28T08:44:26.705Z</time></trkpt><trkpt lat="43.43587" lon="11.55519"><ele>640.5</ele><time>2026-04-28T08:44:27.706Z</time></trkpt><trkpt lat="43.435955" lon="11.55523"><ele>641.0</ele><time>2026-04-28T08:44:28.704Z</time></trkpt><trkpt lat="43.436045" lon="11.5552783"><ele>641.5</ele><time>2026-04-28T08:44:29.703Z</time></trkpt><trkpt lat="43.4361283" lon="11.5553367"><ele>642.0</ele><time>2026-04-28T08:44:30.705Z</time></trkpt><trkpt lat="43.4362017" lon="11.5553883"><ele>642.5</ele><time>2026-04-28T08:44:31.707Z</time></trkpt><trkpt lat="43.4362833" lon="11.55545"><ele>643.0</ele><time>2026-04-28T08:44:32.703Z</time></trkpt><trkpt lat="43.4363633" lon="11.5555133"><ele>643.5</ele><time>2026-04-28T08:44:33.707Z</time></trkpt><trkpt lat="43.4364333" lon="11.55558"><ele>644.0</ele><time>2026-04-28T08:44:34.706Z</time></trkpt><trkpt lat="43.436495" lon="11.555645"><ele>644.5</ele><time>2026-04-28T08:44:35.704Z</time></trkpt><trkpt lat="43.4365567" lon="11.5557017"><ele>645.0</ele><time>2026-04-28T08:44:36.705Z</time></trkpt><trkpt lat="43.4366233" lon="11.555745"><ele>645.0</ele><time>2026-04-28T08:44:37.706Z</time></trkpt><trkpt lat="43.4367017" lon="11.5557783"><ele>645.0</ele><time>2026-04-28T08:44:38.706Z</time></trkpt><trkpt lat="43.4367967" lon="11.5557967"><ele>645.0</ele><time>2026-04-28T08:44:39.707Z</time></trkpt><trkpt lat="43.436895" lon="11.5558067"><ele>645.0</ele><time>2026-04-28T08:44:40.704Z</time></trkpt><trkpt lat="43.4369867" lon="11.55581"><ele>645.0</ele><time>2026-04-28T08:44:41.705Z</time></trkpt><trkpt lat="43.4370667" lon="11.5558017"><ele>645.0</ele><time>2026-04-28T08:44:42.704Z</time></trkpt><trkpt lat="43.4371383" lon="11.5558"><ele>643.6666666666666</ele><time>2026-04-28T08:44:43.706Z</time></trkpt><trkpt lat="43.437205" lon="11.5558133"><ele>642.3333333333334</ele><time>2026-04-28T08:44:44.704Z</time></trkpt><trkpt lat="43.4372683" lon="11.5558433"><ele>641.0</ele><time>2026-04-28T08:44:45.705Z</time></trkpt><trkpt lat="43.437375" lon="11.55592"><ele>639.6666666666667</ele><time>2026-04-28T08:44:47.704Z</time></trkpt><trkpt lat="43.437485" lon="11.556"><ele>638.3333333333334</ele><time>2026-04-28T08:44:49.705Z</time></trkpt><trkpt lat="43.4375417" lon="11.5560383"><ele>637.0</ele><time>2026-04-28T08:44:50.704Z</time></trkpt><trkpt lat="43.4376" lon="11.5560733"><ele>637.0</ele><time>2026-04-28T08:44:51.706Z</time></trkpt><trkpt lat="43.4376983" lon="11.556135"><ele>637.0</ele><time>2026-04-28T08:44:53.703Z</time></trkpt><trkpt lat="43.43779" lon="11.5562083"><ele>637.0</ele><time>2026-04-28T08:44:55.704Z</time></trkpt><trkpt lat="43.4378817" lon="11.5563183"><ele>637.0</ele><time>2026-04-28T08:44:57.707Z</time></trkpt><trkpt lat="43.4379483" lon="11.5564483"><ele>634.1666666666667</ele><time>2026-04-28T08:44:59.706Z</time></trkpt><trkpt lat="43.4379833" lon="11.55654"><ele>631.3333333333334</ele><time>2026-04-28T08:45:00.705Z</time></trkpt><trkpt lat="43.4380183" lon="11.556625"><ele>628.5</ele><time>2026-04-28T08:45:01.704Z</time></trkpt><trkpt lat="43.43805" lon="11.5567033"><ele>625.6666666666666</ele><time>2026-04-28T08:45:02.705Z</time></trkpt><trkpt lat="43.43809" lon="11.55679"><ele>622.8333333333333</ele><time>2026-04-28T08:45:03.706Z</time></trkpt><trkpt lat="43.438135" lon="11.5568817"><ele>620.0</ele><time>2026-04-28T08:45:04.705Z</time></trkpt><trkpt lat="43.438185" lon="11.5569767"><ele>619.8</ele><time>2026-04-28T08:45:05.706Z</time></trkpt><trkpt lat="43.43824" lon="11.5570767"><ele>619.6</ele><time>2026-04-28T08:45:06.705Z</time></trkpt><trkpt lat="43.4382883" lon="11.5571783"><ele>619.4</ele><time>2026-04-28T08:45:07.705Z</time></trkpt><trkpt lat="43.4383367" lon="11.5573"><ele>619.2</ele><time>2026-04-28T08:45:08.705Z</time></trkpt><trkpt lat="43.438375" lon="11.5574217"><ele>619.0</ele><time>2026-04-28T08:45:09.705Z</time></trkpt><trkpt lat="43.4384067" lon="11.5575517"><ele>619.0</ele><time>2026-04-28T08:45:10.704Z</time></trkpt><trkpt lat="43.4384383" lon="11.5576933"><ele>619.0</ele><time>2026-04-28T08:45:11.703Z</time></trkpt><trkpt lat="43.438475" lon="11.5578367"><ele>619.0</ele><time>2026-04-28T08:45:12.706Z</time></trkpt><trkpt lat="43.4385067" lon="11.5579583"><ele>619.0</ele><time>2026-04-28T08:45:13.704Z</time></trkpt><trkpt lat="43.4385367" lon="11.5580783"><ele>619.0</ele><time>2026-04-28T08:45:14.704Z</time></trkpt><trkpt lat="43.43858" lon="11.5581917"><ele>618.2</ele><time>2026-04-28T08:45:15.706Z</time></trkpt><trkpt lat="43.4386317" lon="11.558305"><ele>617.4</ele><time>2026-04-28T08:45:16.705Z</time></trkpt><trkpt lat="43.438695" lon="11.558415"><ele>616.6</ele><time>2026-04-28T08:45:17.705Z</time></trkpt><trkpt lat="43.4387633" lon="11.5585217"><ele>615.8</ele><time>2026-04-28T08:45:18.704Z</time></trkpt><trkpt lat="43.4388267" lon="11.55862"><ele>615.0</ele><time>2026-04-28T08:45:19.704Z</time></trkpt><trkpt lat="43.4388833" lon="11.5587017"><ele>615.0</ele><time>2026-04-28T08:45:20.705Z</time></trkpt><trkpt lat="43.43893" lon="11.5587683"><ele>615.0</ele><time>2026-04-28T08:45:21.704Z</time></trkpt><trkpt lat="43.4390133" lon="11.558875"><ele>615.0</ele><time>2026-04-28T08:45:23.704Z</time></trkpt><trkpt lat="43.4390583" lon="11.5589817"><ele>615.0</ele><time>2026-04-28T08:45:25.704Z</time></trkpt><trkpt lat="43.4390267" lon="11.5590883"><ele>615.0</ele><time>2026-04-28T08:45:28.704Z</time></trkpt><trkpt lat="43.4389617" lon="11.5591167"><ele>615.0</ele><time>2026-04-28T08:45:38.705Z</time></trkpt><trkpt lat="43.43887" lon="11.559125"><ele>613.6</ele><time>2026-04-28T08:45:40.706Z</time></trkpt><trkpt lat="43.4387517" lon="11.559065"><ele>612.2</ele><time>2026-04-28T08:45:42.706Z</time></trkpt><trkpt lat="43.4386933" lon="11.5590233"><ele>610.8</ele><time>2026-04-28T08:45:43.706Z</time></trkpt><trkpt lat="43.4385967" lon="11.5589883"><ele>609.4</ele><time>2026-04-28T08:45:44.706Z</time></trkpt><trkpt lat="43.4385133" lon="11.558955"><ele>608.0</ele><time>2026-04-28T08:45:45.707Z</time></trkpt><trkpt lat="43.4384383" lon="11.55892"><ele>608.0</ele><time>2026-04-28T08:45:46.706Z</time></trkpt><trkpt lat="43.438355" lon="11.558885"><ele>608.0</ele><time>2026-04-28T08:45:47.705Z</time></trkpt><trkpt lat="43.4382483" lon="11.55887"><ele>608.0</ele><time>2026-04-28T08:45:48.705Z</time></trkpt><trkpt lat="43.438155" lon="11.5588483"><ele>608.0</ele><time>2026-04-28T08:45:49.707Z</time></trkpt><trkpt lat="43.4380583" lon="11.5588233"><ele>608.0</ele><time>2026-04-28T08:45:50.707Z</time></trkpt><trkpt lat="43.4379767" lon="11.5587883"><ele>607.8333333333333</ele><time>2026-04-28T08:45:51.707Z</time></trkpt><trkpt lat="43.4379" lon="11.5587467"><ele>607.6666666666666</ele><time>2026-04-28T08:45:52.707Z</time></trkpt><trkpt lat="43.43782" lon="11.5587133"><ele>607.5</ele><time>2026-04-28T08:45:53.704Z</time></trkpt><trkpt lat="43.4377383" lon="11.5586767"><ele>607.3333333333334</ele><time>2026-04-28T08:45:54.707Z</time></trkpt><trkpt lat="43.4376767" lon="11.5586333"><ele>607.1666666666667</ele><time>2026-04-28T08:45:55.708Z</time></trkpt><trkpt lat="43.437575" lon="11.558605"><ele>607.0</ele><time>2026-04-28T08:45:57.705Z</time></trkpt><trkpt lat="43.4375133" lon="11.5585867"><ele>607.0</ele><time>2026-04-28T08:45:59.703Z</time></trkpt><trkpt lat="43.4374433" lon="11.5586233"><ele>607.0</ele><time>2026-04-28T08:46:01.704Z</time></trkpt><trkpt lat="43.437365" lon="11.55881"><ele>607.0</ele><time>2026-04-28T08:46:03.705Z</time></trkpt><trkpt lat="43.437295" lon="11.5589017"><ele>607.0</ele><time>2026-04-28T08:46:04.705Z</time></trkpt><trkpt lat="43.437225" lon="11.5589817"><ele>607.0</ele><time>2026-04-28T08:46:05.705Z</time></trkpt><trkpt lat="43.437155" lon="11.5590417"><ele>606.2</ele><time>2026-04-28T08:46:06.706Z</time></trkpt><trkpt lat="43.4370833" lon="11.5590967"><ele>605.4000000000001</ele><time>2026-04-28T08:46:07.705Z</time></trkpt><trkpt lat="43.4369983" lon="11.559165"><ele>604.5999999999999</ele><time>2026-04-28T08:46:08.706Z</time></trkpt><trkpt lat="43.436915" lon="11.5592467"><ele>603.8</ele><time>2026-04-28T08:46:09.706Z</time></trkpt><trkpt lat="43.4368383" lon="11.5593183"><ele>603.0</ele><time>2026-04-28T08:46:10.704Z</time></trkpt><trkpt lat="43.4367617" lon="11.5593817"><ele>603.0</ele><time>2026-04-28T08:46:11.705Z</time></trkpt><trkpt lat="43.436695" lon="11.5594267"><ele>603.0</ele><time>2026-04-28T08:46:12.705Z</time></trkpt><trkpt lat="43.4366267" lon="11.55946"><ele>603.0</ele><time>2026-04-28T08:46:13.704Z</time></trkpt><trkpt lat="43.436555" lon="11.559475"><ele>603.0</ele><time>2026-04-28T08:46:14.705Z</time></trkpt><trkpt lat="43.4364817" lon="11.5594783"><ele>603.0</ele><time>2026-04-28T08:46:15.705Z</time></trkpt><trkpt lat="43.436405" lon="11.5594633"><ele>603.0</ele><time>2026-04-28T08:46:16.704Z</time></trkpt><trkpt lat="43.4363183" lon="11.559415"><ele>602.8333333333334</ele><time>2026-04-28T08:46:17.703Z</time></trkpt><trkpt lat="43.4362367" lon="11.559335"><ele>602.6666666666666</ele><time>2026-04-28T08:46:18.705Z</time></trkpt><trkpt lat="43.4361617" lon="11.5592667"><ele>602.5</ele><time>2026-04-28T08:46:19.705Z</time></trkpt><trkpt lat="43.4360933" lon="11.5591967"><ele>602.3333333333333</ele><time>2026-04-28T08:46:20.705Z</time></trkpt><trkpt lat="43.4360417" lon="11.5591217"><ele>602.1666666666666</ele><time>2026-04-28T08:46:21.707Z</time></trkpt><trkpt lat="43.43599" lon="11.5590533"><ele>602.0</ele><time>2026-04-28T08:46:22.704Z</time></trkpt><trkpt lat="43.4359317" lon="11.5590117"><ele>602.0</ele><time>2026-04-28T08:46:23.705Z</time></trkpt><trkpt lat="43.4358317" lon="11.5590233"><ele>602.0</ele><time>2026-04-28T08:46:42.705Z</time></trkpt><trkpt lat="43.4358183" lon="11.5591483"><ele>602.0</ele><time>2026-04-28T08:46:44.705Z</time></trkpt><trkpt lat="43.43582" lon="11.5593117"><ele>602.0</ele><time>2026-04-28T08:46:46.705Z</time></trkpt><trkpt lat="43.43582" lon="11.559615"><ele>601.1666666666666</ele><time>2026-04-28T08:46:47.703Z</time></trkpt><trkpt lat="43.4358033" lon="11.5597583"><ele>600.3333333333333</ele><time>2026-04-28T08:46:48.706Z</time></trkpt><trkpt lat="43.4357883" lon="11.5598817"><ele>599.5</ele><time>2026-04-28T08:46:49.704Z</time></trkpt><trkpt lat="43.4357417" lon="11.5599717"><ele>598.6666666666666</ele><time>2026-04-28T08:46:50.706Z</time></trkpt><trkpt lat="43.435675" lon="11.56003"><ele>597.8333333333334</ele><time>2026-04-28T08:46:51.706Z</time></trkpt><trkpt lat="43.43561" lon="11.5600867"><ele>597.0</ele><time>2026-04-28T08:46:52.705Z</time></trkpt><trkpt lat="43.4355417" lon="11.5601333"><ele>597.0</ele><time>2026-04-28T08:46:53.705Z</time></trkpt><trkpt lat="43.4354983" lon="11.5602083"><ele>597.0</ele><time>2026-04-28T08:46:54.706Z</time></trkpt><trkpt lat="43.4354617" lon="11.5602983"><ele>597.0</ele><time>2026-04-28T08:46:55.706Z</time></trkpt><trkpt lat="43.4354283" lon="11.5604"><ele>597.0</ele><time>2026-04-28T08:46:56.704Z</time></trkpt><trkpt lat="43.4354117" lon="11.560505"><ele>597.0</ele><time>2026-04-28T08:46:57.706Z</time></trkpt><trkpt lat="43.4353967" lon="11.56061"><ele>597.0</ele><time>2026-04-28T08:46:58.705Z</time></trkpt><trkpt lat="43.4353783" lon="11.5607167"><ele>598.6666666666666</ele><time>2026-04-28T08:46:59.704Z</time></trkpt><trkpt lat="43.43536" lon="11.5608283"><ele>600.3333333333334</ele><time>2026-04-28T08:47:00.705Z</time></trkpt><trkpt lat="43.4353333" lon="11.5609383"><ele>602.0</ele><time>2026-04-28T08:47:01.705Z</time></trkpt><trkpt lat="43.435305" lon="11.56106"><ele>603.6666666666667</ele><time>2026-04-28T08:47:02.704Z</time></trkpt><trkpt lat="43.4352717" lon="11.5611567"><ele>605.3333333333334</ele><time>2026-04-28T08:47:03.707Z</time></trkpt><trkpt lat="43.4352183" lon="11.5612633"><ele>607.0</ele><time>2026-04-28T08:47:04.705Z</time></trkpt><trkpt lat="43.4351567" lon="11.561365"><ele>607.0</ele><time>2026-04-28T08:47:05.704Z</time></trkpt><trkpt lat="43.43507" lon="11.56146"><ele>607.0</ele><time>2026-04-28T08:47:06.705Z</time></trkpt><trkpt lat="43.43499" lon="11.5615317"><ele>607.0</ele><time>2026-04-28T08:47:07.704Z</time></trkpt><trkpt lat="43.434905" lon="11.5615867"><ele>607.0</ele><time>2026-04-28T08:47:08.705Z</time></trkpt><trkpt lat="43.43483" lon="11.5616333"><ele>607.0</ele><time>2026-04-28T08:47:09.705Z</time></trkpt><trkpt lat="43.4347283" lon="11.5616517"><ele>607.75</ele><time>2026-04-28T08:47:10.705Z</time></trkpt><trkpt lat="43.4346167" lon="11.561655"><ele>608.5</ele><time>2026-04-28T08:47:11.705Z</time></trkpt><trkpt lat="43.4344767" lon="11.5616567"><ele>609.25</ele><time>2026-04-28T08:47:12.704Z</time></trkpt><trkpt lat="43.4343533" lon="11.561665"><ele>610.0</ele><time>2026-04-28T08:47:13.704Z</time></trkpt><trkpt lat="43.43426" lon="11.5616583"><ele>610.0</ele><time>2026-04-28T08:47:14.704Z</time></trkpt><trkpt lat="43.43417" lon="11.561645"><ele>610.0</ele><time>2026-04-28T08:47:15.706Z</time></trkpt><trkpt lat="43.434095" lon="11.5616417"><ele>610.0</ele><time>2026-04-28T08:47:16.705Z</time></trkpt><trkpt lat="43.433995" lon="11.5616517"><ele>610.0</ele><time>2026-04-28T08:47:17.705Z</time></trkpt><trkpt lat="43.43389" lon="11.5616833"><ele>610.0</ele><time>2026-04-28T08:47:18.705Z</time></trkpt><trkpt lat="43.433805" lon="11.56174"><ele>610.8</ele><time>2026-04-28T08:47:19.704Z</time></trkpt><trkpt lat="43.4337383" lon="11.561795"><ele>611.6</ele><time>2026-04-28T08:47:20.706Z</time></trkpt><trkpt lat="43.4336617" lon="11.5618767"><ele>612.4</ele><time>2026-04-28T08:47:22.706Z</time></trkpt><trkpt lat="43.4336117" lon="11.5620183"><ele>613.2</ele><time>2026-04-28T08:47:24.706Z</time></trkpt><trkpt lat="43.4336" lon="11.5621617"><ele>614.0</ele><time>2026-04-28T08:47:25.708Z</time></trkpt><trkpt lat="43.4335933" lon="11.5623533"><ele>614.2</ele><time>2026-04-28T08:47:26.706Z</time></trkpt><trkpt lat="43.43357" lon="11.562495"><ele>614.4</ele><time>2026-04-28T08:47:27.706Z</time></trkpt><trkpt lat="43.4335483" lon="11.5626367"><ele>614.6</ele><time>2026-04-28T08:47:28.705Z</time></trkpt><trkpt lat="43.433525" lon="11.5627783"><ele>614.8</ele><time>2026-04-28T08:47:29.705Z</time></trkpt><trkpt lat="43.433505" lon="11.5629383"><ele>615.0</ele><time>2026-04-28T08:47:30.707Z</time></trkpt><trkpt lat="43.4334917" lon="11.5630983"><ele>615.1666666666666</ele><time>2026-04-28T08:47:31.706Z</time></trkpt><trkpt lat="43.4334833" lon="11.5632233"><ele>615.3333333333334</ele><time>2026-04-28T08:47:32.706Z</time></trkpt><trkpt lat="43.433495" lon="11.5633433"><ele>615.5</ele><time>2026-04-28T08:47:33.707Z</time></trkpt><trkpt lat="43.43353" lon="11.56345"><ele>615.6666666666667</ele><time>2026-04-28T08:47:34.707Z</time></trkpt><trkpt lat="43.43357" lon="11.56356"><ele>615.8333333333334</ele><time>2026-04-28T08:47:35.707Z</time></trkpt><trkpt lat="43.4336117" lon="11.5636667"><ele>616.0</ele><time>2026-04-28T08:47:36.707Z</time></trkpt><trkpt lat="43.4336467" lon="11.563775"><ele>616.5</ele><time>2026-04-28T08:47:37.706Z</time></trkpt><trkpt lat="43.4336733" lon="11.5638933"><ele>617.0</ele><time>2026-04-28T08:47:38.707Z</time></trkpt><trkpt lat="43.43369" lon="11.56402"><ele>617.5</ele><time>2026-04-28T08:47:39.706Z</time></trkpt><trkpt lat="43.4337017" lon="11.56414"><ele>618.0</ele><time>2026-04-28T08:47:40.705Z</time></trkpt><trkpt lat="43.4337167" lon="11.5642467"><ele>618.5</ele><time>2026-04-28T08:47:41.705Z</time></trkpt><trkpt lat="43.433725" lon="11.56434"><ele>619.0</ele><time>2026-04-28T08:47:42.707Z</time></trkpt><trkpt lat="43.4337367" lon="11.564435"><ele>617.4</ele><time>2026-04-28T08:47:43.707Z</time></trkpt><trkpt lat="43.43375" lon="11.5645533"><ele>615.8</ele><time>2026-04-28T08:47:44.705Z</time></trkpt><trkpt lat="43.4337517" lon="11.5646783"><ele>614.2</ele><time>2026-04-28T08:47:45.707Z</time></trkpt><trkpt lat="43.4337233" lon="11.564805"><ele>612.6</ele><time>2026-04-28T08:47:46.706Z</time></trkpt><trkpt lat="43.4336783" lon="11.5649183"><ele>611.0</ele><time>2026-04-28T08:47:47.705Z</time></trkpt><trkpt lat="43.4336333" lon="11.5650183"><ele>611.0</ele><time>2026-04-28T08:47:48.706Z</time></trkpt><trkpt lat="43.4335867" lon="11.5650983"><ele>611.0</ele><time>2026-04-28T08:47:49.708Z</time></trkpt><trkpt lat="43.43354" lon="11.565175"><ele>611.0</ele><time>2026-04-28T08:47:50.705Z</time></trkpt><trkpt lat="43.43349" lon="11.56525"><ele>611.0</ele><time>2026-04-28T08:47:51.708Z</time></trkpt><trkpt lat="43.433425" lon="11.5654"><ele>611.0</ele><time>2026-04-28T08:47:53.706Z</time></trkpt><trkpt lat="43.4333883" lon="11.5654883"><ele>611.0</ele><time>2026-04-28T08:47:54.706Z</time></trkpt><trkpt lat="43.4333533" lon="11.5655817"><ele>607.6666666666666</ele><time>2026-04-28T08:47:55.706Z</time></trkpt><trkpt lat="43.43332" lon="11.5656767"><ele>604.3333333333333</ele><time>2026-04-28T08:47:56.706Z</time></trkpt><trkpt lat="43.4332883" lon="11.565775"><ele>601.0</ele><time>2026-04-28T08:47:57.707Z</time></trkpt><trkpt lat="43.4332583" lon="11.56588"><ele>597.6666666666666</ele><time>2026-04-28T08:47:58.706Z</time></trkpt><trkpt lat="43.433235" lon="11.5659833"><ele>594.3333333333334</ele><time>2026-04-28T08:47:59.707Z</time></trkpt><trkpt lat="43.4332" lon="11.5660983"><ele>591.0</ele><time>2026-04-28T08:48:00.707Z</time></trkpt><trkpt lat="43.4331517" lon="11.566225"><ele>590.6666666666666</ele><time>2026-04-28T08:48:01.706Z</time></trkpt><trkpt lat="43.4331017" lon="11.5663433"><ele>590.3333333333334</ele><time>2026-04-28T08:48:02.707Z</time></trkpt><trkpt lat="43.4330417" lon="11.56645"><ele>590.0</ele><time>2026-04-28T08:48:03.708Z</time></trkpt><trkpt lat="43.4329917" lon="11.56654"><ele>589.6666666666667</ele><time>2026-04-28T08:48:04.705Z</time></trkpt><trkpt lat="43.432955" lon="11.5666317"><ele>589.3333333333334</ele><time>2026-04-28T08:48:05.706Z</time></trkpt><trkpt lat="43.43293" lon="11.56672"><ele>589.0</ele><time>2026-04-28T08:48:06.706Z</time></trkpt><trkpt lat="43.432905" lon="11.566825"><ele>591.0</ele><time>2026-04-28T08:48:07.705Z</time></trkpt><trkpt lat="43.4328883" lon="11.56691"><ele>593.0</ele><time>2026-04-28T08:48:08.706Z</time></trkpt><trkpt lat="43.4328117" lon="11.5670367"><ele>595.0</ele><time>2026-04-28T08:48:10.73Z</time></trkpt><trkpt lat="43.432775" lon="11.56711"><ele>597.0</ele><time>2026-04-28T08:48:11.705Z</time></trkpt><trkpt lat="43.4327567" lon="11.567235"><ele>599.0</ele><time>2026-04-28T08:48:12.703Z</time></trkpt><trkpt lat="43.43274" lon="11.5673733"><ele>601.0</ele><time>2026-04-28T08:48:13.706Z</time></trkpt><trkpt lat="43.4327133" lon="11.56749"><ele>601.5</ele><time>2026-04-28T08:48:14.703Z</time></trkpt><trkpt lat="43.4326933" lon="11.56759"><ele>602.0</ele><time>2026-04-28T08:48:15.707Z</time></trkpt><trkpt lat="43.432675" lon="11.5676933"><ele>602.5</ele><time>2026-04-28T08:48:16.706Z</time></trkpt><trkpt lat="43.4326617" lon="11.5678"><ele>603.0</ele><time>2026-04-28T08:48:17.706Z</time></trkpt><trkpt lat="43.43265" lon="11.5678933"><ele>603.5</ele><time>2026-04-28T08:48:18.706Z</time></trkpt><trkpt lat="43.4326333" lon="11.5679967"><ele>604.0</ele><time>2026-04-28T08:48:19.705Z</time></trkpt><trkpt lat="43.4326117" lon="11.5681283"><ele>603.8</ele><time>2026-04-28T08:48:20.707Z</time></trkpt><trkpt lat="43.4325967" lon="11.56824"><ele>603.5999999999999</ele><time>2026-04-28T08:48:21.706Z</time></trkpt><trkpt lat="43.4326" lon="11.568345"><ele>603.4</ele><time>2026-04-28T08:48:22.706Z</time></trkpt><trkpt lat="43.432605" lon="11.568465"><ele>603.1999999999999</ele><time>2026-04-28T08:48:23.706Z</time></trkpt><trkpt lat="43.4326133" lon="11.5686217"><ele>603.0</ele><time>2026-04-28T08:48:24.706Z</time></trkpt><trkpt lat="43.432625" lon="11.56877"><ele>603.0</ele><time>2026-04-28T08:48:25.706Z</time></trkpt><trkpt lat="43.432645" lon="11.5689183"><ele>603.0</ele><time>2026-04-28T08:48:26.706Z</time></trkpt><trkpt lat="43.4326683" lon="11.5690483"><ele>603.0</ele><time>2026-04-28T08:48:27.707Z</time></trkpt><trkpt lat="43.4326883" lon="11.5691483"><ele>603.0</ele><time>2026-04-28T08:48:28.706Z</time></trkpt><trkpt lat="43.43271" lon="11.56925"><ele>603.0</ele><time>2026-04-28T08:48:29.707Z</time></trkpt><trkpt lat="43.4327217" lon="11.5693383"><ele>603.0</ele><time>2026-04-28T08:48:30.707Z</time></trkpt><trkpt lat="43.4327333" lon="11.5694867"><ele>603.0</ele><time>2026-04-28T08:48:32.708Z</time></trkpt><trkpt lat="43.432675" lon="11.5695633"><ele>603.0</ele><time>2026-04-28T08:48:34.706Z</time></trkpt><trkpt lat="43.43258" lon="11.569545"><ele>603.0</ele><time>2026-04-28T08:48:35.707Z</time></trkpt><trkpt lat="43.432475" lon="11.5695133"><ele>603.0</ele><time>2026-04-28T08:48:36.706Z</time></trkpt><trkpt lat="43.4323783" lon="11.5694683"><ele>603.0</ele><time>2026-04-28T08:48:37.707Z</time></trkpt><trkpt lat="43.43229" lon="11.569405"><ele>603.0</ele><time>2026-04-28T08:48:38.707Z</time></trkpt><trkpt lat="43.43221" lon="11.5693467"><ele>603.0</ele><time>2026-04-28T08:48:39.707Z</time></trkpt><trkpt lat="43.432135" lon="11.5693033"><ele>603.0</ele><time>2026-04-28T08:48:40.706Z</time></trkpt><trkpt lat="43.4320567" lon="11.5692983"><ele>603.0</ele><time>2026-04-28T08:48:41.706Z</time></trkpt><trkpt lat="43.4319867" lon="11.5693217"><ele>603.0</ele><time>2026-04-28T08:48:42.707Z</time></trkpt><trkpt lat="43.43192" lon="11.5693467"><ele>603.0</ele><time>2026-04-28T08:48:43.708Z</time></trkpt><trkpt lat="43.4318567" lon="11.5693633"><ele>606.0</ele><time>2026-04-28T08:48:44.706Z</time></trkpt><trkpt lat="43.4317667" lon="11.5693017"><ele>609.0</ele><time>2026-04-28T08:48:45.707Z</time></trkpt><trkpt lat="43.4316667" lon="11.5692117"><ele>612.0</ele><time>2026-04-28T08:48:46.706Z</time></trkpt><trkpt lat="43.4315617" lon="11.569125"><ele>615.0</ele><time>2026-04-28T08:48:47.705Z</time></trkpt><trkpt lat="43.4314483" lon="11.5690517"><ele>615.0</ele><time>2026-04-28T08:48:48.706Z</time></trkpt><trkpt lat="43.4313383" lon="11.56898"><ele>615.0</ele><time>2026-04-28T08:48:49.706Z</time></trkpt><trkpt lat="43.4312367" lon="11.5689117"><ele>615.0</ele><time>2026-04-28T08:48:50.707Z</time></trkpt><trkpt lat="43.4311533" lon="11.5688683"><ele>615.0</ele><time>2026-04-28T08:48:51.708Z</time></trkpt><trkpt lat="43.43107" lon="11.5688383"><ele>615.0</ele><time>2026-04-28T08:48:52.706Z</time></trkpt><trkpt lat="43.430985" lon="11.568825"><ele>614.3333333333334</ele><time>2026-04-28T08:48:53.706Z</time></trkpt><trkpt lat="43.4308983" lon="11.56883"><ele>613.6666666666666</ele><time>2026-04-28T08:48:54.706Z</time></trkpt><trkpt lat="43.4308167" lon="11.56882"><ele>613.0</ele><time>2026-04-28T08:48:55.707Z</time></trkpt><trkpt lat="43.4307283" lon="11.5688083"><ele>612.3333333333333</ele><time>2026-04-28T08:48:56.704Z</time></trkpt><trkpt lat="43.430655" lon="11.5687583"><ele>611.6666666666666</ele><time>2026-04-28T08:48:57.706Z</time></trkpt><trkpt lat="43.4305617" lon="11.56871"><ele>611.0</ele><time>2026-04-28T08:48:58.705Z</time></trkpt><trkpt lat="43.43048" lon="11.5686383"><ele>614.0</ele><time>2026-04-28T08:48:59.705Z</time></trkpt><trkpt lat="43.4304033" lon="11.568585"><ele>617.0</ele><time>2026-04-28T08:49:00.703Z</time></trkpt><trkpt lat="43.4303067" lon="11.5685183"><ele>620.0</ele><time>2026-04-28T08:49:01.701Z</time></trkpt><trkpt lat="43.4302333" lon="11.5684433"><ele>623.0</ele><time>2026-04-28T08:49:02.705Z</time></trkpt><trkpt lat="43.4301767" lon="11.56834"><ele>626.0</ele><time>2026-04-28T08:49:03.705Z</time></trkpt><trkpt lat="43.4301183" lon="11.5682133"><ele>626.0</ele><time>2026-04-28T08:49:04.704Z</time></trkpt><trkpt lat="43.4300467" lon="11.5680817"><ele>626.0</ele><time>2026-04-28T08:49:05.704Z</time></trkpt><trkpt lat="43.4299767" lon="11.567935"><ele>626.0</ele><time>2026-04-28T08:49:06.706Z</time></trkpt><trkpt lat="43.4299233" lon="11.567785"><ele>626.0</ele><time>2026-04-28T08:49:07.704Z</time></trkpt><trkpt lat="43.4298683" lon="11.5676417"><ele>628.0</ele><time>2026-04-28T08:49:08.704Z</time></trkpt><trkpt lat="43.4298217" lon="11.56751"><ele>630.0</ele><time>2026-04-28T08:49:09.708Z</time></trkpt><trkpt lat="43.4297717" lon="11.567395"><ele>632.0</ele><time>2026-04-28T08:49:10.706Z</time></trkpt><trkpt lat="43.429725" lon="11.5672833"><ele>634.0</ele><time>2026-04-28T08:49:11.705Z</time></trkpt><trkpt lat="43.4296733" lon="11.5671683"><ele>636.0</ele><time>2026-04-28T08:49:12.705Z</time></trkpt><trkpt lat="43.429625" lon="11.5670717"><ele>632.0</ele><time>2026-04-28T08:49:13.705Z</time></trkpt><trkpt lat="43.42958" lon="11.566975"><ele>628.0</ele><time>2026-04-28T08:49:14.705Z</time></trkpt><trkpt lat="43.4295467" lon="11.5668717"><ele>624.0</ele><time>2026-04-28T08:49:15.705Z</time></trkpt><trkpt lat="43.429535" lon="11.5667633"><ele>620.0</ele><time>2026-04-28T08:49:16.703Z</time></trkpt><trkpt lat="43.4295333" lon="11.5666533"><ele>616.0</ele><time>2026-04-28T08:49:17.705Z</time></trkpt><trkpt lat="43.4295333" lon="11.5665467"><ele>612.0</ele><time>2026-04-28T08:49:18.704Z</time></trkpt><trkpt lat="43.429525" lon="11.566445"><ele>612.0</ele><time>2026-04-28T08:49:19.705Z</time></trkpt><trkpt lat="43.4295233" lon="11.5663033"><ele>612.0</ele><time>2026-04-28T08:49:20.704Z</time></trkpt><trkpt lat="43.4295017" lon="11.5661617"><ele>612.0</ele><time>2026-04-28T08:49:21.706Z</time></trkpt><trkpt lat="43.4294583" lon="11.56603"><ele>612.0</ele><time>2026-04-28T08:49:22.703Z</time></trkpt><trkpt lat="43.4294183" lon="11.56591"><ele>612.0</ele><time>2026-04-28T08:49:23.705Z</time></trkpt><trkpt lat="43.42937" lon="11.56579"><ele>613.4</ele><time>2026-04-28T08:49:24.705Z</time></trkpt><trkpt lat="43.42931" lon="11.5656617"><ele>614.8000000000001</ele><time>2026-04-28T08:49:25.704Z</time></trkpt><trkpt lat="43.429255" lon="11.5655467"><ele>616.2</ele><time>2026-04-28T08:49:26.705Z</time></trkpt><trkpt lat="43.4291883" lon="11.56544"><ele>617.6</ele><time>2026-04-28T08:49:27.705Z</time></trkpt><trkpt lat="43.4291367" lon="11.5653483"><ele>619.0</ele><time>2026-04-28T08:49:28.703Z</time></trkpt><trkpt lat="43.42909" lon="11.5652783"><ele>619.0</ele><time>2026-04-28T08:49:29.702Z</time></trkpt><trkpt lat="43.4290317" lon="11.5652183"><ele>619.0</ele><time>2026-04-28T08:49:30.704Z</time></trkpt><trkpt lat="43.4289667" lon="11.5651433"><ele>619.0</ele><time>2026-04-28T08:49:32.705Z</time></trkpt><trkpt lat="43.42893" lon="11.565065"><ele>619.0</ele><time>2026-04-28T08:49:35.704Z</time></trkpt><trkpt lat="43.4290183" lon="11.5650617"><ele>619.0</ele><time>2026-04-28T08:49:38.705Z</time></trkpt><trkpt lat="43.42909" lon="11.5650783"><ele>619.0</ele><time>2026-04-28T08:49:41.704Z</time></trkpt><trkpt lat="43.4291983" lon="11.5650967"><ele>619.0</ele><time>2026-04-28T08:49:49.706Z</time></trkpt><trkpt lat="43.4292717" lon="11.56511"><ele>619.0</ele><time>2026-04-28T08:49:51.706Z</time></trkpt><trkpt lat="43.429415" lon="11.565125"><ele>619.0</ele><time>2026-04-28T08:49:53.704Z</time></trkpt><trkpt lat="43.4295167" lon="11.5651233"><ele>619.0</ele><time>2026-04-28T08:49:54.7Z</time></trkpt><trkpt lat="43.4295933" lon="11.5650917"><ele>619.0</ele><time>2026-04-28T08:49:55.706Z</time></trkpt><trkpt lat="43.4297067" lon="11.5650867"><ele>619.2</ele><time>2026-04-28T08:49:56.704Z</time></trkpt><trkpt lat="43.4298183" lon="11.5650617"><ele>619.4</ele><time>2026-04-28T08:49:57.707Z</time></trkpt><trkpt lat="43.429945" lon="11.565"><ele>619.6</ele><time>2026-04-28T08:49:58.708Z</time></trkpt><trkpt lat="43.4300433" lon="11.5649517"><ele>619.8</ele><time>2026-04-28T08:49:59.704Z</time></trkpt><trkpt lat="43.4301383" lon="11.5649283"><ele>620.0</ele><time>2026-04-28T08:50:00.705Z</time></trkpt><trkpt lat="43.4302383" lon="11.56492"><ele>620.0</ele><time>2026-04-28T08:50:01.704Z</time></trkpt><trkpt lat="43.4303867" lon="11.5649283"><ele>620.0</ele><time>2026-04-28T08:50:02.706Z</time></trkpt><trkpt lat="43.4305217" lon="11.5649683"><ele>620.0</ele><time>2026-04-28T08:50:03.706Z</time></trkpt><trkpt lat="43.430655" lon="11.5650017"><ele>620.0</ele><time>2026-04-28T08:50:04.699Z</time></trkpt><trkpt lat="43.43079" lon="11.56503"><ele>621.25</ele><time>2026-04-28T08:50:05.705Z</time></trkpt><trkpt lat="43.4309633" lon="11.565045"><ele>622.5</ele><time>2026-04-28T08:50:06.703Z</time></trkpt><trkpt lat="43.431105" lon="11.565025"><ele>623.75</ele><time>2026-04-28T08:50:07.702Z</time></trkpt><trkpt lat="43.4312233" lon="11.56496"><ele>625.0</ele><time>2026-04-28T08:50:08.705Z</time></trkpt><trkpt lat="43.4313333" lon="11.5648583"><ele>625.5</ele><time>2026-04-28T08:50:09.705Z</time></trkpt><trkpt lat="43.43144" lon="11.56474"><ele>626.0</ele><time>2026-04-28T08:50:10.704Z</time></trkpt><trkpt lat="43.431545" lon="11.5646267"><ele>626.5</ele><time>2026-04-28T08:50:11.705Z</time></trkpt><trkpt lat="43.4316467" lon="11.56451"><ele>627.0</ele><time>2026-04-28T08:50:12.705Z</time></trkpt><trkpt lat="43.4317517" lon="11.5643767"><ele>626.0</ele><time>2026-04-28T08:50:13.704Z</time></trkpt><trkpt lat="43.4318567" lon="11.5642167"><ele>625.0</ele><time>2026-04-28T08:50:14.703Z</time></trkpt><trkpt lat="43.4319467" lon="11.5640583"><ele>624.0</ele><time>2026-04-28T08:50:15.705Z</time></trkpt><trkpt lat="43.4320233" lon="11.5638883"><ele>623.0</ele><time>2026-04-28T08:50:16.703Z</time></trkpt><trkpt lat="43.432085" lon="11.56371"><ele>623.75</ele><time>2026-04-28T08:50:17.704Z</time></trkpt><trkpt lat="43.43214" lon="11.5635283"><ele>624.5</ele><time>2026-04-28T08:50:18.704Z</time></trkpt><trkpt lat="43.4321817" lon="11.5633617"><ele>625.25</ele><time>2026-04-28T08:50:19.706Z</time></trkpt><trkpt lat="43.4322167" lon="11.56322"><ele>626.0</ele><time>2026-04-28T08:50:20.705Z</time></trkpt><trkpt lat="43.4322667" lon="11.5631"><ele>626.0</ele><time>2026-04-28T08:50:21.706Z</time></trkpt><trkpt lat="43.432315" lon="11.563005"><ele>626.0</ele><time>2026-04-28T08:50:22.702Z</time></trkpt><trkpt lat="43.4323567" lon="11.5629083"><ele>626.0</ele><time>2026-04-28T08:50:23.704Z</time></trkpt><trkpt lat="43.432385" lon="11.5628067"><ele>626.0</ele><time>2026-04-28T08:50:24.702Z</time></trkpt><trkpt lat="43.4324133" lon="11.5627067"><ele>626.0</ele><time>2026-04-28T08:50:25.702Z</time></trkpt><trkpt lat="43.4324417" lon="11.562625"><ele>626.0</ele><time>2026-04-28T08:50:26.704Z</time></trkpt><trkpt lat="43.4325267" lon="11.562535"><ele>625.6</ele><time>2026-04-28T08:50:28.705Z</time></trkpt><trkpt lat="43.43267" lon="11.5625567"><ele>625.2</ele><time>2026-04-28T08:50:30.705Z</time></trkpt><trkpt lat="43.4327583" lon="11.5625567"><ele>624.8</ele><time>2026-04-28T08:50:31.703Z</time></trkpt><trkpt lat="43.4328533" lon="11.5625383"><ele>624.4</ele><time>2026-04-28T08:50:32.705Z</time></trkpt><trkpt lat="43.4329617" lon="11.56249"><ele>624.0</ele><time>2026-04-28T08:50:33.705Z</time></trkpt><trkpt lat="43.433065" lon="11.5624283"><ele>621.75</ele><time>2026-04-28T08:50:34.703Z</time></trkpt><trkpt lat="43.4331667" lon="11.5623567"><ele>619.5</ele><time>2026-04-28T08:50:35.703Z</time></trkpt><trkpt lat="43.4332683" lon="11.5622667"><ele>617.25</ele><time>2026-04-28T08:50:36.705Z</time></trkpt><trkpt lat="43.4333833" lon="11.56216"><ele>615.0</ele><time>2026-04-28T08:50:37.705Z</time></trkpt><trkpt lat="43.4334967" lon="11.5620467"><ele>614.75</ele><time>2026-04-28T08:50:38.704Z</time></trkpt><trkpt lat="43.4336083" lon="11.561935"><ele>614.5</ele><time>2026-04-28T08:50:39.706Z</time></trkpt><trkpt lat="43.433715" lon="11.5618383"><ele>614.25</ele><time>2026-04-28T08:50:40.704Z</time></trkpt><trkpt lat="43.43382" lon="11.56175"><ele>614.0</ele><time>2026-04-28T08:50:41.704Z</time></trkpt><trkpt lat="43.4339183" lon="11.561665"><ele>613.2</ele><time>2026-04-28T08:50:42.705Z</time></trkpt><trkpt lat="43.43401" lon="11.5616"><ele>612.4</ele><time>2026-04-28T08:50:43.706Z</time></trkpt><trkpt lat="43.4340933" lon="11.5615517"><ele>611.6</ele><time>2026-04-28T08:50:44.704Z</time></trkpt><trkpt lat="43.4341733" lon="11.56152"><ele>610.8</ele><time>2026-04-28T08:50:45.706Z</time></trkpt><trkpt lat="43.4342483" lon="11.5614983"><ele>610.0</ele><time>2026-04-28T08:50:46.703Z</time></trkpt><trkpt lat="43.434355" lon="11.5614333"><ele>610.0</ele><time>2026-04-28T08:50:48.705Z</time></trkpt><trkpt lat="43.43441" lon="11.561315"><ele>610.0</ele><time>2026-04-28T08:50:50.702Z</time></trkpt><trkpt lat="43.434515" lon="11.5612317"><ele>610.0</ele><time>2026-04-28T08:50:52.702Z</time></trkpt><trkpt lat="43.4345817" lon="11.5612033"><ele>610.0</ele><time>2026-04-28T08:50:53.705Z</time></trkpt><trkpt lat="43.4346383" lon="11.5611617"><ele>610.0</ele><time>2026-04-28T08:50:54.704Z</time></trkpt><trkpt lat="43.4347183" lon="11.5610233"><ele>611.4285714285714</ele><time>2026-04-28T08:50:56.703Z</time></trkpt><trkpt lat="43.4347467" lon="11.5609317"><ele>612.8571428571428</ele><time>2026-04-28T08:50:57.707Z</time></trkpt><trkpt lat="43.43477" lon="11.5608367"><ele>614.2857142857142</ele><time>2026-04-28T08:50:58.705Z</time></trkpt><trkpt lat="43.43479" lon="11.5607417"><ele>615.7142857142858</ele><time>2026-04-28T08:50:59.703Z</time></trkpt><trkpt lat="43.4348" lon="11.5606517"><ele>617.1428571428571</ele><time>2026-04-28T08:51:00.704Z</time></trkpt><trkpt lat="43.4348117" lon="11.5605383"><ele>618.5714285714286</ele><time>2026-04-28T08:51:01.704Z</time></trkpt><trkpt lat="43.434825" lon="11.56043"><ele>620.0</ele><time>2026-04-28T08:51:02.705Z</time></trkpt><trkpt lat="43.43484" lon="11.5603367"><ele>620.6666666666666</ele><time>2026-04-28T08:51:03.705Z</time></trkpt><trkpt lat="43.4348233" lon="11.5601733"><ele>621.3333333333333</ele><time>2026-04-28T08:51:05.704Z</time></trkpt><trkpt lat="43.4347833" lon="11.5600883"><ele>622.0</ele><time>2026-04-28T08:51:06.705Z</time></trkpt><trkpt lat="43.4347383" lon="11.560005"><ele>622.6666666666666</ele><time>2026-04-28T08:51:07.706Z</time></trkpt><trkpt lat="43.434705" lon="11.559925"><ele>623.3333333333334</ele><time>2026-04-28T08:51:08.705Z</time></trkpt><trkpt lat="43.43467" lon="11.5598233"><ele>624.0</ele><time>2026-04-28T08:51:09.706Z</time></trkpt><trkpt lat="43.4346317" lon="11.5597117"><ele>624.4</ele><time>2026-04-28T08:51:10.706Z</time></trkpt><trkpt lat="43.4345883" lon="11.559605"><ele>624.8</ele><time>2026-04-28T08:51:11.704Z</time></trkpt><trkpt lat="43.4345467" lon="11.5595"><ele>625.2</ele><time>2026-04-28T08:51:12.705Z</time></trkpt><trkpt lat="43.4345" lon="11.5593967"><ele>625.6</ele><time>2026-04-28T08:51:13.706Z</time></trkpt><trkpt lat="43.4344433" lon="11.55928"><ele>626.0</ele><time>2026-04-28T08:51:14.705Z</time></trkpt><trkpt lat="43.4343917" lon="11.5591483"><ele>627.75</ele><time>2026-04-28T08:51:15.706Z</time></trkpt><trkpt lat="43.4343433" lon="11.5589983"><ele>629.5</ele><time>2026-04-28T08:51:16.705Z</time></trkpt><trkpt lat="43.4342983" lon="11.55884"><ele>631.25</ele><time>2026-04-28T08:51:17.704Z</time></trkpt><trkpt lat="43.434255" lon="11.55869"><ele>633.0</ele><time>2026-04-28T08:51:18.705Z</time></trkpt><trkpt lat="43.4342217" lon="11.5585433"><ele>633.0</ele><time>2026-04-28T08:51:19.705Z</time></trkpt><trkpt lat="43.4341917" lon="11.5584017"><ele>633.0</ele><time>2026-04-28T08:51:20.705Z</time></trkpt><trkpt lat="43.4341667" lon="11.5582567"><ele>633.0</ele><time>2026-04-28T08:51:21.704Z</time></trkpt><trkpt lat="43.4341533" lon="11.5581283"><ele>633.0</ele><time>2026-04-28T08:51:22.706Z</time></trkpt><trkpt lat="43.4341533" lon="11.558"><ele>633.0</ele><time>2026-04-28T08:51:23.704Z</time></trkpt><trkpt lat="43.4341733" lon="11.5578567"><ele>633.0</ele><time>2026-04-28T08:51:24.705Z</time></trkpt><trkpt lat="43.4342" lon="11.5577233"><ele>633.0</ele><time>2026-04-28T08:51:25.705Z</time></trkpt><trkpt lat="43.4342367" lon="11.5575883"><ele>633.0</ele><time>2026-04-28T08:51:26.705Z</time></trkpt><trkpt lat="43.43428" lon="11.5574517"><ele>633.0</ele><time>2026-04-28T08:51:27.706Z</time></trkpt><trkpt lat="43.43431" lon="11.5573183"><ele>633.0</ele><time>2026-04-28T08:51:28.705Z</time></trkpt><trkpt lat="43.43433" lon="11.5571667"><ele>632.4</ele><time>2026-04-28T08:51:29.704Z</time></trkpt><trkpt lat="43.4343467" lon="11.5570067"><ele>631.8</ele><time>2026-04-28T08:51:30.705Z</time></trkpt><trkpt lat="43.4343567" lon="11.5568517"><ele>631.2</ele><time>2026-04-28T08:51:31.706Z</time></trkpt><trkpt lat="43.4343633" lon="11.5567017"><ele>630.6</ele><time>2026-04-28T08:51:32.705Z</time></trkpt><trkpt lat="43.43437" lon="11.55656"><ele>630.0</ele><time>2026-04-28T08:51:33.706Z</time></trkpt><trkpt lat="43.43438" lon="11.556425"><ele>630.0</ele><time>2026-04-28T08:51:34.704Z</time></trkpt><trkpt lat="43.4344" lon="11.55629"><ele>630.0</ele><time>2026-04-28T08:51:35.704Z</time></trkpt><trkpt lat="43.4344367" lon="11.5561467"><ele>630.0</ele><time>2026-04-28T08:51:36.706Z</time></trkpt><trkpt lat="43.4344833" lon="11.5560033"><ele>630.0</ele><time>2026-04-28T08:51:37.705Z</time></trkpt><trkpt lat="43.4345417" lon="11.5558583"><ele>630.0</ele><time>2026-04-28T08:51:38.704Z</time></trkpt><trkpt lat="43.4346067" lon="11.55571"><ele>631.8</ele><time>2026-04-28T08:51:39.705Z</time></trkpt><trkpt lat="43.4346667" lon="11.5555733"><ele>633.6</ele><time>2026-04-28T08:51:40.704Z</time></trkpt><trkpt lat="43.4347183" lon="11.555445"><ele>635.4</ele><time>2026-04-28T08:51:41.704Z</time></trkpt><trkpt lat="43.4347633" lon="11.5553183"><ele>637.2</ele><time>2026-04-28T08:51:42.705Z</time></trkpt><trkpt lat="43.4348033" lon="11.5552183"><ele>639.0</ele><time>2026-04-28T08:51:43.706Z</time></trkpt><trkpt lat="43.4348417" lon="11.5551383"><ele>639.0</ele><time>2026-04-28T08:51:44.699Z</time></trkpt><trkpt lat="43.43488" lon="11.5550667"><ele>639.0</ele><time>2026-04-28T08:51:45.699Z</time></trkpt><trkpt lat="43.4349533" lon="11.5549767"><ele>639.0</ele><time>2026-04-28T08:51:47.702Z</time></trkpt><trkpt lat="43.43504" lon="11.5549367"><ele>639.0</ele><time>2026-04-28T08:51:49.699Z</time></trkpt><trkpt lat="43.4351067" lon="11.5549583"><ele>639.0</ele><time>2026-04-28T08:51:50.705Z</time></trkpt><trkpt lat="43.4351967" lon="11.5549717"><ele>639.0</ele><time>2026-04-28T08:51:51.705Z</time></trkpt><trkpt lat="43.43529" lon="11.5549767"><ele>639.0</ele><time>2026-04-28T08:51:52.705Z</time></trkpt><trkpt lat="43.435395" lon="11.55499"><ele>639.0</ele><time>2026-04-28T08:51:53.703Z</time></trkpt><trkpt lat="43.4355067" lon="11.5550217"><ele>639.0</ele><time>2026-04-28T08:51:54.704Z</time></trkpt><trkpt lat="43.4356067" lon="11.55505"><ele>639.0</ele><time>2026-04-28T08:51:55.706Z</time></trkpt><trkpt lat="43.4357017" lon="11.5550783"><ele>639.0</ele><time>2026-04-28T08:51:56.705Z</time></trkpt><trkpt lat="43.4357867" lon="11.5551083"><ele>639.6</ele><time>2026-04-28T08:51:57.706Z</time></trkpt><trkpt lat="43.43588" lon="11.55515"><ele>640.2</ele><time>2026-04-28T08:51:58.704Z</time></trkpt><trkpt lat="43.43598" lon="11.55521"><ele>640.8000000000001</ele><time>2026-04-28T08:51:59.701Z</time></trkpt><trkpt lat="43.4360767" lon="11.5552783"><ele>641.4</ele><time>2026-04-28T08:52:00.705Z</time></trkpt><trkpt lat="43.4361633" lon="11.5553433"><ele>642.0</ele><time>2026-04-28T08:52:01.705Z</time></trkpt><trkpt lat="43.4362483" lon="11.5554067"><ele>642.5</ele><time>2026-04-28T08:52:02.706Z</time></trkpt><trkpt lat="43.4363367" lon="11.5554767"><ele>643.0</ele><time>2026-04-28T08:52:03.706Z</time></trkpt><trkpt lat="43.436415" lon="11.5555467"><ele>643.5</ele><time>2026-04-28T08:52:04.705Z</time></trkpt><trkpt lat="43.4364833" lon="11.5556217"><ele>644.0</ele><time>2026-04-28T08:52:05.705Z</time></trkpt><trkpt lat="43.4365517" lon="11.555685"><ele>644.5</ele><time>2026-04-28T08:52:06.705Z</time></trkpt><trkpt lat="43.4366217" lon="11.55573"><ele>645.0</ele><time>2026-04-28T08:52:07.705Z</time></trkpt><trkpt lat="43.436705" lon="11.5557633"><ele>645.0</ele><time>2026-04-28T08:52:08.705Z</time></trkpt><trkpt lat="43.4368017" lon="11.5557817"><ele>645.0</ele><time>2026-04-28T08:52:09.706Z</time></trkpt><trkpt lat="43.4369033" lon="11.55579"><ele>645.0</ele><time>2026-04-28T08:52:10.704Z</time></trkpt><trkpt lat="43.43699" lon="11.555785"><ele>645.0</ele><time>2026-04-28T08:52:11.704Z</time></trkpt><trkpt lat="43.437065" lon="11.5557717"><ele>645.0</ele><time>2026-04-28T08:52:12.705Z</time></trkpt><trkpt lat="43.4371383" lon="11.555775"><ele>645.0</ele><time>2026-04-28T08:52:13.701Z</time></trkpt><trkpt lat="43.4372117" lon="11.5557983"><ele>643.8571428571429</ele><time>2026-04-28T08:52:14.706Z</time></trkpt><trkpt lat="43.437275" lon="11.55584"><ele>642.7142857142857</ele><time>2026-04-28T08:52:15.707Z</time></trkpt><trkpt lat="43.4373333" lon="11.5558867"><ele>641.5714285714286</ele><time>2026-04-28T08:52:16.704Z</time></trkpt><trkpt lat="43.43739" lon="11.555945"><ele>640.4285714285714</ele><time>2026-04-28T08:52:17.704Z</time></trkpt><trkpt lat="43.437445" lon="11.555995"><ele>639.2857142857142</ele><time>2026-04-28T08:52:18.705Z</time></trkpt><trkpt lat="43.4375033" lon="11.5560417"><ele>638.1428571428571</ele><time>2026-04-28T08:52:19.704Z</time></trkpt><trkpt lat="43.4375733" lon="11.5560883"><ele>637.0</ele><time>2026-04-28T08:52:20.705Z</time></trkpt><trkpt lat="43.43764" lon="11.55613"><ele>637.0</ele><time>2026-04-28T08:52:21.705Z</time></trkpt><trkpt lat="43.4377017" lon="11.556165"><ele>637.0</ele><time>2026-04-28T08:52:22.704Z</time></trkpt><trkpt lat="43.4377983" lon="11.5562317"><ele>637.0</ele><time>2026-04-28T08:52:24.704Z</time></trkpt><trkpt lat="43.4378933" lon="11.5563583"><ele>637.0</ele><time>2026-04-28T08:52:26.705Z</time></trkpt><trkpt lat="43.43794" lon="11.5564417"><ele>637.0</ele><time>2026-04-28T08:52:27.706Z</time></trkpt><trkpt lat="43.4379867" lon="11.5565317"><ele>634.1666666666667</ele><time>2026-04-28T08:52:28.705Z</time></trkpt><trkpt lat="43.4380183" lon="11.556615"><ele>631.3333333333334</ele><time>2026-04-28T08:52:29.704Z</time></trkpt><trkpt lat="43.438055" lon="11.5567017"><ele>628.5</ele><time>2026-04-28T08:52:30.704Z</time></trkpt><trkpt lat="43.4380967" lon="11.55679"><ele>625.6666666666666</ele><time>2026-04-28T08:52:31.704Z</time></trkpt><trkpt lat="43.4381417" lon="11.55687"><ele>622.8333333333333</ele><time>2026-04-28T08:52:32.705Z</time></trkpt><trkpt lat="43.4381967" lon="11.556955"><ele>620.0</ele><time>2026-04-28T08:52:33.705Z</time></trkpt><trkpt lat="43.4382483" lon="11.55706"><ele>619.8</ele><time>2026-04-28T08:52:34.707Z</time></trkpt><trkpt lat="43.438295" lon="11.55716"><ele>619.6</ele><time>2026-04-28T08:52:35.704Z</time></trkpt><trkpt lat="43.43834" lon="11.5572667"><ele>619.4</ele><time>2026-04-28T08:52:36.705Z</time></trkpt><trkpt lat="43.438375" lon="11.55738"><ele>619.2</ele><time>2026-04-28T08:52:37.706Z</time></trkpt><trkpt lat="43.43841" lon="11.5575033"><ele>619.0</ele><time>2026-04-28T08:52:38.705Z</time></trkpt><trkpt lat="43.4384433" lon="11.5576417"><ele>619.0</ele><time>2026-04-28T08:52:39.706Z</time></trkpt><trkpt lat="43.43848" lon="11.557805"><ele>619.0</ele><time>2026-04-28T08:52:40.705Z</time></trkpt><trkpt lat="43.4385133" lon="11.5579533"><ele>619.0</ele><time>2026-04-28T08:52:41.705Z</time></trkpt><trkpt lat="43.4385483" lon="11.5580867"><ele>619.0</ele><time>2026-04-28T08:52:42.705Z</time></trkpt><trkpt lat="43.4385917" lon="11.5582067"><ele>619.0</ele><time>2026-04-28T08:52:43.705Z</time></trkpt><trkpt lat="43.43865" lon="11.5583233"><ele>618.2</ele><time>2026-04-28T08:52:44.705Z</time></trkpt><trkpt lat="43.43872" lon="11.5584433"><ele>617.4</ele><time>2026-04-28T08:52:45.706Z</time></trkpt><trkpt lat="43.4387867" lon="11.5585533"><ele>616.6</ele><time>2026-04-28T08:52:46.706Z</time></trkpt><trkpt lat="43.4388467" lon="11.55866"><ele>615.8</ele><time>2026-04-28T08:52:47.704Z</time></trkpt><trkpt lat="43.4389" lon="11.5587517"><ele>615.0</ele><time>2026-04-28T08:52:48.704Z</time></trkpt><trkpt lat="43.438945" lon="11.5588233"><ele>615.0</ele><time>2026-04-28T08:52:49.704Z</time></trkpt><trkpt lat="43.4390183" lon="11.5589267"><ele>615.0</ele><time>2026-04-28T08:52:51.705Z</time></trkpt><trkpt lat="43.4390483" lon="11.5590133"><ele>615.0</ele><time>2026-04-28T08:52:53.705Z</time></trkpt><trkpt lat="43.4390083" lon="11.5591183"><ele>615.0</ele><time>2026-04-28T08:52:56.706Z</time></trkpt><trkpt lat="43.43893" lon="11.55917"><ele>615.0</ele><time>2026-04-28T08:52:58.704Z</time></trkpt><trkpt lat="43.43883" lon="11.5591833"><ele>615.0</ele><time>2026-04-28T08:53:00.705Z</time></trkpt><trkpt lat="43.438725" lon="11.5591717"><ele>613.8333333333334</ele><time>2026-04-28T08:53:02.705Z</time></trkpt><trkpt lat="43.438615" lon="11.5591017"><ele>612.6666666666666</ele><time>2026-04-28T08:53:04.705Z</time></trkpt><trkpt lat="43.438555" lon="11.559065"><ele>611.5</ele><time>2026-04-28T08:53:05.704Z</time></trkpt><trkpt lat="43.438495" lon="11.5590317"><ele>610.3333333333333</ele><time>2026-04-28T08:53:06.705Z</time></trkpt><trkpt lat="43.4384283" lon="11.559005"><ele>609.1666666666666</ele><time>2026-04-28T08:53:07.704Z</time></trkpt><trkpt lat="43.4383533" lon="11.5589817"><ele>608.0</ele><time>2026-04-28T08:53:08.705Z</time></trkpt><trkpt lat="43.43828" lon="11.5589517"><ele>608.0</ele><time>2026-04-28T08:53:09.704Z</time></trkpt><trkpt lat="43.4382083" lon="11.5589133"><ele>608.0</ele><time>2026-04-28T08:53:10.704Z</time></trkpt><trkpt lat="43.4381333" lon="11.55888"><ele>608.0</ele><time>2026-04-28T08:53:11.704Z</time></trkpt><trkpt lat="43.4380567" lon="11.5588467"><ele>608.0</ele><time>2026-04-28T08:53:12.704Z</time></trkpt><trkpt lat="43.4379683" lon="11.5587983"><ele>608.0</ele><time>2026-04-28T08:53:13.706Z</time></trkpt><trkpt lat="43.4378917" lon="11.558765"><ele>608.0</ele><time>2026-04-28T08:53:14.705Z</time></trkpt><trkpt lat="43.4378117" lon="11.5587267"><ele>607.8333333333333</ele><time>2026-04-28T08:53:15.706Z</time></trkpt><trkpt lat="43.4377433" lon="11.558685"><ele>607.6666666666666</ele><time>2026-04-28T08:53:16.704Z</time></trkpt><trkpt lat="43.437685" lon="11.55864"><ele>607.5</ele><time>2026-04-28T08:53:17.704Z</time></trkpt><trkpt lat="43.4376283" lon="11.5585933"><ele>607.3333333333334</ele><time>2026-04-28T08:53:18.704Z</time></trkpt><trkpt lat="43.4375633" lon="11.5585517"><ele>607.1666666666667</ele><time>2026-04-28T08:53:19.704Z</time></trkpt><trkpt lat="43.4374867" lon="11.5585233"><ele>607.0</ele><time>2026-04-28T08:53:21.705Z</time></trkpt><trkpt lat="43.4373867" lon="11.5586483"><ele>606.3333333333334</ele><time>2026-04-28T08:53:23.704Z</time></trkpt><trkpt lat="43.43732" lon="11.5587683"><ele>605.6666666666667</ele><time>2026-04-28T08:53:24.704Z</time></trkpt><trkpt lat="43.4372533" lon="11.5588483"><ele>605.0</ele><time>2026-04-28T08:53:25.706Z</time></trkpt><trkpt lat="43.4372017" lon="11.558925"><ele>604.3333333333334</ele><time>2026-04-28T08:53:26.707Z</time></trkpt><trkpt lat="43.43714" lon="11.558985"><ele>603.6666666666666</ele><time>2026-04-28T08:53:27.705Z</time></trkpt><trkpt lat="43.43707" lon="11.5590483"><ele>603.0</ele><time>2026-04-28T08:53:28.704Z</time></trkpt><trkpt lat="43.4369967" lon="11.559115"><ele>603.0</ele><time>2026-04-28T08:53:29.704Z</time></trkpt><trkpt lat="43.4369333" lon="11.559195"><ele>603.0</ele><time>2026-04-28T08:53:30.705Z</time></trkpt><trkpt lat="43.4368683" lon="11.559265"><ele>603.0</ele><time>2026-04-28T08:53:31.706Z</time></trkpt><trkpt lat="43.4368083" lon="11.559325"><ele>603.0</ele><time>2026-04-28T08:53:32.705Z</time></trkpt><trkpt lat="43.436745" lon="11.5593733"><ele>603.0</ele><time>2026-04-28T08:53:33.706Z</time></trkpt><trkpt lat="43.4366533" lon="11.559405"><ele>603.0</ele><time>2026-04-28T08:53:34.704Z</time></trkpt><trkpt lat="43.4365167" lon="11.5594433"><ele>603.0</ele><time>2026-04-28T08:53:36.704Z</time></trkpt><trkpt lat="43.4364367" lon="11.5594417"><ele>603.0</ele><time>2026-04-28T08:53:37.706Z</time></trkpt><trkpt lat="43.43635" lon="11.5594183"><ele>603.0</ele><time>2026-04-28T08:53:38.704Z</time></trkpt><trkpt lat="43.4362617" lon="11.5593717"><ele>603.0</ele><time>2026-04-28T08:53:39.706Z</time></trkpt><trkpt lat="43.4361917" lon="11.55929"><ele>603.0</ele><time>2026-04-28T08:53:40.704Z</time></trkpt><trkpt lat="43.4361233" lon="11.5592267"><ele>603.0</ele><time>2026-04-28T08:53:41.704Z</time></trkpt><trkpt lat="43.43605" lon="11.559145"><ele>602.8</ele><time>2026-04-28T08:53:42.705Z</time></trkpt><trkpt lat="43.43599" lon="11.55907"><ele>602.5999999999999</ele><time>2026-04-28T08:53:43.705Z</time></trkpt><trkpt lat="43.4358983" lon="11.5589883"><ele>602.4000000000001</ele><time>2026-04-28T08:53:45.706Z</time></trkpt><trkpt lat="43.4358317" lon="11.5589783"><ele>602.2</ele><time>2026-04-28T08:53:47.704Z</time></trkpt><trkpt lat="43.4357783" lon="11.55912"><ele>602.0</ele><time>2026-04-28T08:53:50.704Z</time></trkpt><trkpt lat="43.4357667" lon="11.559395"><ele>601.0</ele><time>2026-04-28T08:53:52.704Z</time></trkpt><trkpt lat="43.43575" lon="11.5595817"><ele>600.0</ele><time>2026-04-28T08:53:53.705Z</time></trkpt><trkpt lat="43.435735" lon="11.55976"><ele>599.0</ele><time>2026-04-28T08:53:54.704Z</time></trkpt><trkpt lat="43.4357233" lon="11.55989"><ele>598.0</ele><time>2026-04-28T08:53:55.706Z</time></trkpt><trkpt lat="43.4356967" lon="11.559985"><ele>597.0</ele><time>2026-04-28T08:53:56.705Z</time></trkpt><trkpt lat="43.4356583" lon="11.56007"><ele>597.0</ele><time>2026-04-28T08:53:57.705Z</time></trkpt><trkpt lat="43.4355683" lon="11.5601067"><ele>597.0</ele><time>2026-04-28T08:53:59.704Z</time></trkpt><trkpt lat="43.4355083" lon="11.5601383"><ele>597.0</ele><time>2026-04-28T08:54:00.704Z</time></trkpt><trkpt lat="43.435425" lon="11.5602733"><ele>597.0</ele><time>2026-04-28T08:54:02.704Z</time></trkpt><trkpt lat="43.4354033" lon="11.5603833"><ele>597.0</ele><time>2026-04-28T08:54:03.705Z</time></trkpt><trkpt lat="43.435415" lon="11.5605083"><ele>601.6</ele><time>2026-04-28T08:54:04.704Z</time></trkpt><trkpt lat="43.4354083" lon="11.5606317"><ele>606.2</ele><time>2026-04-28T08:54:05.705Z</time></trkpt><trkpt lat="43.4353917" lon="11.5607633"><ele>610.8</ele><time>2026-04-28T08:54:06.706Z</time></trkpt><trkpt lat="43.4353733" lon="11.5608883"><ele>615.4</ele><time>2026-04-28T08:54:07.705Z</time></trkpt><trkpt lat="43.4353533" lon="11.5610133"><ele>620.0</ele><time>2026-04-28T08:54:08.705Z</time></trkpt><trkpt lat="43.435335" lon="11.561125"><ele>617.8333333333333</ele><time>2026-04-28T08:54:09.705Z</time></trkpt><trkpt lat="43.43531" lon="11.5612417"><ele>615.6666666666666</ele><time>2026-04-28T08:54:10.704Z</time></trkpt><trkpt lat="43.4352783" lon="11.5613433"><ele>613.5</ele><time>2026-04-28T08:54:11.704Z</time></trkpt><trkpt lat="43.4352317" lon="11.5614267"><ele>611.3333333333334</ele><time>2026-04-28T08:54:12.706Z</time></trkpt><trkpt lat="43.4351733" lon="11.5615233"><ele>609.1666666666667</ele><time>2026-04-28T08:54:13.704Z</time></trkpt><trkpt lat="43.43509" lon="11.5615733"><ele>607.0</ele><time>2026-04-28T08:54:14.705Z</time></trkpt><trkpt lat="43.43498" lon="11.5616533"><ele>607.0</ele><time>2026-04-28T08:54:15.705Z</time></trkpt><trkpt lat="43.4349017" lon="11.561695"><ele>607.0</ele><time>2026-04-28T08:54:16.704Z</time></trkpt><trkpt lat="43.4348017" lon="11.5617167"><ele>607.0</ele><time>2026-04-28T08:54:17.703Z</time></trkpt><trkpt lat="43.4346917" lon="11.56173"><ele>607.0</ele><time>2026-04-28T08:54:18.704Z</time></trkpt><trkpt lat="43.4345733" lon="11.5617367"><ele>607.0</ele><time>2026-04-28T08:54:19.706Z</time></trkpt><trkpt lat="43.434465" lon="11.5617317"><ele>607.75</ele><time>2026-04-28T08:54:20.704Z</time></trkpt><trkpt lat="43.4343367" lon="11.5617233"><ele>608.5</ele><time>2026-04-28T08:54:21.705Z</time></trkpt><trkpt lat="43.4342333" lon="11.5617117"><ele>609.25</ele><time>2026-04-28T08:54:22.705Z</time></trkpt><trkpt lat="43.4341267" lon="11.5616817"><ele>610.0</ele><time>2026-04-28T08:54:23.704Z</time></trkpt><trkpt lat="43.4339583" lon="11.5616533"><ele>610.0</ele><time>2026-04-28T08:54:24.703Z</time></trkpt><trkpt lat="43.4338617" lon="11.5616633"><ele>610.0</ele><time>2026-04-28T08:54:25.706Z</time></trkpt><trkpt lat="43.433775" lon="11.5616917"><ele>610.0</ele><time>2026-04-28T08:54:26.704Z</time></trkpt><trkpt lat="43.4337083" lon="11.561735"><ele>610.0</ele><time>2026-04-28T08:54:27.713Z</time></trkpt><trkpt lat="43.4336433" lon="11.5618217"><ele>610.0</ele><time>2026-04-28T08:54:29.703Z</time></trkpt><trkpt lat="43.4336133" lon="11.5619067"><ele>610.0</ele><time>2026-04-28T08:54:30.705Z</time></trkpt><trkpt lat="43.4335783" lon="11.562"><ele>611.25</ele><time>2026-04-28T08:54:31.707Z</time></trkpt><trkpt lat="43.43356" lon="11.56215"><ele>612.5</ele><time>2026-04-28T08:54:32.705Z</time></trkpt><trkpt lat="43.4335533" lon="11.5623667"><ele>613.75</ele><time>2026-04-28T08:54:33.706Z</time></trkpt><trkpt lat="43.43353" lon="11.562525"><ele>615.0</ele><time>2026-04-28T08:54:34.705Z</time></trkpt><trkpt lat="43.4335067" lon="11.562675"><ele>615.0</ele><time>2026-04-28T08:54:35.705Z</time></trkpt><trkpt lat="43.4334833" lon="11.56283"><ele>615.0</ele><time>2026-04-28T08:54:36.705Z</time></trkpt><trkpt lat="43.433465" lon="11.56299"><ele>615.0</ele><time>2026-04-28T08:54:37.706Z</time></trkpt><trkpt lat="43.4334517" lon="11.56313"><ele>615.0</ele><time>2026-04-28T08:54:38.705Z</time></trkpt><trkpt lat="43.4334467" lon="11.563245"><ele>615.0</ele><time>2026-04-28T08:54:39.706Z</time></trkpt><trkpt lat="43.4334517" lon="11.5633683"><ele>615.1666666666666</ele><time>2026-04-28T08:54:40.704Z</time></trkpt><trkpt lat="43.4334833" lon="11.5634583"><ele>615.3333333333334</ele><time>2026-04-28T08:54:41.704Z</time></trkpt><trkpt lat="43.4335317" lon="11.5635617"><ele>615.5</ele><time>2026-04-28T08:54:42.705Z</time></trkpt><trkpt lat="43.4335733" lon="11.5636733"><ele>615.6666666666667</ele><time>2026-04-28T08:54:43.706Z</time></trkpt><trkpt lat="43.43361" lon="11.5637867"><ele>615.8333333333334</ele><time>2026-04-28T08:54:44.704Z</time></trkpt><trkpt lat="43.433625" lon="11.56393"><ele>616.0</ele><time>2026-04-28T08:54:45.706Z</time></trkpt><trkpt lat="43.4336467" lon="11.564045"><ele>616.5</ele><time>2026-04-28T08:54:46.704Z</time></trkpt><trkpt lat="43.4336617" lon="11.564185"><ele>617.0</ele><time>2026-04-28T08:54:47.704Z</time></trkpt><trkpt lat="43.433675" lon="11.5643033"><ele>617.5</ele><time>2026-04-28T08:54:48.705Z</time></trkpt><trkpt lat="43.4336883" lon="11.5644317"><ele>618.0</ele><time>2026-04-28T08:54:49.704Z</time></trkpt><trkpt lat="43.4337" lon="11.5645333"><ele>618.5</ele><time>2026-04-28T08:54:50.704Z</time></trkpt><trkpt lat="43.4337067" lon="11.5646483"><ele>619.0</ele><time>2026-04-28T08:54:51.706Z</time></trkpt><trkpt lat="43.433695" lon="11.564755"><ele>617.6666666666667</ele><time>2026-04-28T08:54:52.703Z</time></trkpt><trkpt lat="43.4336633" lon="11.5648467"><ele>616.3333333333334</ele><time>2026-04-28T08:54:53.704Z</time></trkpt><trkpt lat="43.4336283" lon="11.5649417"><ele>615.0</ele><time>2026-04-28T08:54:54.704Z</time></trkpt><trkpt lat="43.4335917" lon="11.5650333"><ele>613.6666666666666</ele><time>2026-04-28T08:54:55.705Z</time></trkpt><trkpt lat="43.433545" lon="11.5650983"><ele>612.3333333333333</ele><time>2026-04-28T08:54:56.704Z</time></trkpt><trkpt lat="43.433465" lon="11.56523"><ele>611.0</ele><time>2026-04-28T08:54:58.704Z</time></trkpt><trkpt lat="43.4334233" lon="11.56531"><ele>607.6666666666666</ele><time>2026-04-28T08:54:59.704Z</time></trkpt><trkpt lat="43.4333817" lon="11.5654"><ele>604.3333333333333</ele><time>2026-04-28T08:55:00.705Z</time></trkpt><trkpt lat="43.4333433" lon="11.5654917"><ele>601.0</ele><time>2026-04-28T08:55:01.706Z</time></trkpt><trkpt lat="43.4333033" lon="11.5655867"><ele>597.6666666666666</ele><time>2026-04-28T08:55:02.706Z</time></trkpt><trkpt lat="43.43327" lon="11.565685"><ele>594.3333333333334</ele><time>2026-04-28T08:55:03.706Z</time></trkpt><trkpt lat="43.4332417" lon="11.5657783"><ele>591.0</ele><time>2026-04-28T08:55:04.704Z</time></trkpt><trkpt lat="43.43321" lon="11.5658867"><ele>591.0</ele><time>2026-04-28T08:55:05.704Z</time></trkpt><trkpt lat="43.433165" lon="11.5659983"><ele>591.0</ele><time>2026-04-28T08:55:06.706Z</time></trkpt><trkpt lat="43.433105" lon="11.5661233"><ele>591.0</ele><time>2026-04-28T08:55:07.706Z</time></trkpt><trkpt lat="43.4330567" lon="11.5662433"><ele>591.0</ele><time>2026-04-28T08:55:08.704Z</time></trkpt><trkpt lat="43.4329967" lon="11.5663533"><ele>591.0</ele><time>2026-04-28T08:55:09.706Z</time></trkpt><trkpt lat="43.4329417" lon="11.5664517"><ele>592.6666666666666</ele><time>2026-04-28T08:55:10.705Z</time></trkpt><trkpt lat="43.4328933" lon="11.566525"><ele>594.3333333333334</ele><time>2026-04-28T08:55:11.704Z</time></trkpt><trkpt lat="43.4328433" lon="11.5666"><ele>596.0</ele><time>2026-04-28T08:55:12.704Z</time></trkpt><trkpt lat="43.4327883" lon="11.566695"><ele>597.6666666666667</ele><time>2026-04-28T08:55:13.705Z</time></trkpt><trkpt lat="43.4327817" lon="11.5668083"><ele>599.3333333333334</ele><time>2026-04-28T08:55:14.706Z</time></trkpt><trkpt lat="43.4327583" lon="11.566895"><ele>601.0</ele><time>2026-04-28T08:55:15.706Z</time></trkpt><trkpt lat="43.4327383" lon="11.5670117"><ele>601.6</ele><time>2026-04-28T08:55:16.706Z</time></trkpt><trkpt lat="43.4327233" lon="11.5671567"><ele>602.2</ele><time>2026-04-28T08:55:17.704Z</time></trkpt><trkpt lat="43.4327067" lon="11.5673067"><ele>602.8</ele><time>2026-04-28T08:55:18.705Z</time></trkpt><trkpt lat="43.4326917" lon="11.5674533"><ele>603.4</ele><time>2026-04-28T08:55:19.705Z</time></trkpt><trkpt lat="43.432685" lon="11.5675817"><ele>604.0</ele><time>2026-04-28T08:55:20.705Z</time></trkpt><trkpt lat="43.4326667" lon="11.5677017"><ele>604.0</ele><time>2026-04-28T08:55:21.705Z</time></trkpt><trkpt lat="43.4326467" lon="11.5678083"><ele>604.0</ele><time>2026-04-28T08:55:22.705Z</time></trkpt><trkpt lat="43.4326317" lon="11.5679467"><ele>604.0</ele><time>2026-04-28T08:55:23.704Z</time></trkpt><trkpt lat="43.4326183" lon="11.56805"><ele>604.0</ele><time>2026-04-28T08:55:24.704Z</time></trkpt><trkpt lat="43.4326083" lon="11.5681383"><ele>604.0</ele><time>2026-04-28T08:55:25.705Z</time></trkpt><trkpt lat="43.4325933" lon="11.5682367"><ele>604.0</ele><time>2026-04-28T08:55:26.704Z</time></trkpt><trkpt lat="43.43259" lon="11.5683383"><ele>603.8</ele><time>2026-04-28T08:55:27.707Z</time></trkpt><trkpt lat="43.4326167" lon="11.56854"><ele>603.5999999999999</ele><time>2026-04-28T08:55:29.704Z</time></trkpt><trkpt lat="43.4326283" lon="11.568655"><ele>603.4</ele><time>2026-04-28T08:55:30.705Z</time></trkpt><trkpt lat="43.4326417" lon="11.568785"><ele>603.1999999999999</ele><time>2026-04-28T08:55:31.705Z</time></trkpt><trkpt lat="43.4326617" lon="11.568925"><ele>603.0</ele><time>2026-04-28T08:55:32.705Z</time></trkpt><trkpt lat="43.432685" lon="11.5690533"><ele>603.0</ele><time>2026-04-28T08:55:33.706Z</time></trkpt><trkpt lat="43.4327083" lon="11.5691667"><ele>603.0</ele><time>2026-04-28T08:55:34.705Z</time></trkpt><trkpt lat="43.432735" lon="11.569275"><ele>603.0</ele><time>2026-04-28T08:55:35.705Z</time></trkpt><trkpt lat="43.4327567" lon="11.5693783"><ele>603.0</ele><time>2026-04-28T08:55:36.705Z</time></trkpt><trkpt lat="43.432785" lon="11.56947"><ele>603.0</ele><time>2026-04-28T08:55:37.705Z</time></trkpt><trkpt lat="43.4328267" lon="11.5695467"><ele>603.0</ele><time>2026-04-28T08:55:38.705Z</time></trkpt><trkpt lat="43.43287" lon="11.569625"><ele>602.1666666666666</ele><time>2026-04-28T08:55:39.705Z</time></trkpt><trkpt lat="43.43292" lon="11.5697017"><ele>601.3333333333334</ele><time>2026-04-28T08:55:40.705Z</time></trkpt><trkpt lat="43.43298" lon="11.5697533"><ele>600.5</ele><time>2026-04-28T08:55:41.704Z</time></trkpt><trkpt lat="43.43305" lon="11.5697917"><ele>599.6666666666667</ele><time>2026-04-28T08:55:42.705Z</time></trkpt><trkpt lat="43.43315" lon="11.5698083"><ele>598.8333333333334</ele><time>2026-04-28T08:55:43.706Z</time></trkpt><trkpt lat="43.4332533" lon="11.5698167"><ele>598.0</ele><time>2026-04-28T08:55:44.705Z</time></trkpt><trkpt lat="43.43335" lon="11.5697933"><ele>596.0</ele><time>2026-04-28T08:55:45.706Z</time></trkpt><trkpt lat="43.433445" lon="11.5697817"><ele>594.0</ele><time>2026-04-28T08:55:46.704Z</time></trkpt><trkpt lat="43.4335533" lon="11.5697833"><ele>592.0</ele><time>2026-04-28T08:55:47.703Z</time></trkpt><trkpt lat="43.433685" lon="11.5697833"><ele>590.0</ele><time>2026-04-28T08:55:48.704Z</time></trkpt><trkpt lat="43.4338183" lon="11.5697917"><ele>590.0</ele><time>2026-04-28T08:55:49.703Z</time></trkpt><trkpt lat="43.433965" lon="11.5698083"><ele>590.0</ele><time>2026-04-28T08:55:50.704Z</time></trkpt><trkpt lat="43.4341267" lon="11.5698167"><ele>590.0</ele><time>2026-04-28T08:55:51.704Z</time></trkpt><trkpt lat="43.4342667" lon="11.5698133"><ele>590.0</ele><time>2026-04-28T08:55:52.704Z</time></trkpt><trkpt lat="43.4343867" lon="11.569805"><ele>590.0</ele><time>2026-04-28T08:55:53.704Z</time></trkpt><trkpt lat="43.434475" lon="11.5698083"><ele>590.0</ele><time>2026-04-28T08:55:54.705Z</time></trkpt><trkpt lat="43.43456" lon="11.5698133"><ele>590.0</ele><time>2026-04-28T08:55:55.706Z</time></trkpt><trkpt lat="43.434635" lon="11.56982"><ele>590.0</ele><time>2026-04-28T08:55:56.704Z</time></trkpt><trkpt lat="43.4347033" lon="11.56986"><ele>590.0</ele><time>2026-04-28T08:55:57.706Z</time></trkpt><trkpt lat="43.43478" lon="11.569905"><ele>590.0</ele><time>2026-04-28T08:55:58.704Z</time></trkpt><trkpt lat="43.4348617" lon="11.569955"><ele>590.5</ele><time>2026-04-28T08:55:59.705Z</time></trkpt><trkpt lat="43.43495" lon="11.570025"><ele>591.0</ele><time>2026-04-28T08:56:00.705Z</time></trkpt><trkpt lat="43.4350467" lon="11.570115"><ele>591.5</ele><time>2026-04-28T08:56:01.705Z</time></trkpt><trkpt lat="43.435155" lon="11.57023"><ele>592.0</ele><time>2026-04-28T08:56:02.704Z</time></trkpt><trkpt lat="43.4352617" lon="11.5703383"><ele>590.4</ele><time>2026-04-28T08:56:03.706Z</time></trkpt><trkpt lat="43.435365" lon="11.5704433"><ele>588.8000000000001</ele><time>2026-04-28T08:56:04.705Z</time></trkpt><trkpt lat="43.4354533" lon="11.57054"><ele>587.2</ele><time>2026-04-28T08:56:05.704Z</time></trkpt><trkpt lat="43.4355283" lon="11.5706267"><ele>585.6</ele><time>2026-04-28T08:56:06.704Z</time></trkpt><trkpt lat="43.4356033" lon="11.570695"><ele>584.0</ele><time>2026-04-28T08:56:07.705Z</time></trkpt><trkpt lat="43.4356883" lon="11.5707517"><ele>584.0</ele><time>2026-04-28T08:56:08.705Z</time></trkpt><trkpt lat="43.4357883" lon="11.5708117"><ele>584.0</ele><time>2026-04-28T08:56:09.705Z</time></trkpt><trkpt lat="43.43589" lon="11.5708433"><ele>584.0</ele><time>2026-04-28T08:56:10.704Z</time></trkpt><trkpt lat="43.4359883" lon="11.5708867"><ele>584.0</ele><time>2026-04-28T08:56:11.705Z</time></trkpt><trkpt lat="43.4360867" lon="11.5709483"><ele>584.0</ele><time>2026-04-28T08:56:12.706Z</time></trkpt><trkpt lat="43.43617" lon="11.5710433"><ele>584.0</ele><time>2026-04-28T08:56:13.704Z</time></trkpt><trkpt lat="43.4362267" lon="11.5711617"><ele>584.0</ele><time>2026-04-28T08:56:14.704Z</time></trkpt><trkpt lat="43.43628" lon="11.5713083"><ele>584.0</ele><time>2026-04-28T08:56:15.706Z</time></trkpt><trkpt lat="43.4363167" lon="11.571475"><ele>584.0</ele><time>2026-04-28T08:56:16.705Z</time></trkpt><trkpt lat="43.4363533" lon="11.5716267"><ele>583.8</ele><time>2026-04-28T08:56:17.704Z</time></trkpt><trkpt lat="43.4363817" lon="11.5717667"><ele>583.5999999999999</ele><time>2026-04-28T08:56:18.704Z</time></trkpt><trkpt lat="43.436425" lon="11.5718983"><ele>583.4</ele><time>2026-04-28T08:56:19.705Z</time></trkpt><trkpt lat="43.436475" lon="11.57202"><ele>583.1999999999999</ele><time>2026-04-28T08:56:20.704Z</time></trkpt><trkpt lat="43.436545" lon="11.57214"><ele>583.0</ele><time>2026-04-28T08:56:21.706Z</time></trkpt><trkpt lat="43.4366217" lon="11.5722767"><ele>578.5</ele><time>2026-04-28T08:56:22.706Z</time></trkpt><trkpt lat="43.4367" lon="11.572445"><ele>574.0</ele><time>2026-04-28T08:56:23.705Z</time></trkpt><trkpt lat="43.4367767" lon="11.5726233"><ele>569.5</ele><time>2026-04-28T08:56:24.705Z</time></trkpt><trkpt lat="43.4368517" lon="11.5728"><ele>565.0</ele><time>2026-04-28T08:56:25.706Z</time></trkpt><trkpt lat="43.4369117" lon="11.572955"><ele>562.0</ele><time>2026-04-28T08:56:26.705Z</time></trkpt><trkpt lat="43.4369617" lon="11.5730967"><ele>559.0</ele><time>2026-04-28T08:56:27.705Z</time></trkpt><trkpt lat="43.43699" lon="11.573225"><ele>556.0</ele><time>2026-04-28T08:56:28.705Z</time></trkpt><trkpt lat="43.43702" lon="11.5733417"><ele>553.0</ele><time>2026-04-28T08:56:29.704Z</time></trkpt><trkpt lat="43.4370633" lon="11.5734417"><ele>550.0</ele><time>2026-04-28T08:56:30.705Z</time></trkpt><trkpt lat="43.437125" lon="11.5735283"><ele>552.0</ele><time>2026-04-28T08:56:31.706Z</time></trkpt><trkpt lat="43.4372167" lon="11.5736117"><ele>554.0</ele><time>2026-04-28T08:56:32.705Z</time></trkpt><trkpt lat="43.4373217" lon="11.5737067"><ele>556.0</ele><time>2026-04-28T08:56:33.706Z</time></trkpt><trkpt lat="43.4374283" lon="11.573805"><ele>558.0</ele><time>2026-04-28T08:56:34.704Z</time></trkpt><trkpt lat="43.4375233" lon="11.5739033"><ele>558.0</ele><time>2026-04-28T08:56:35.705Z</time></trkpt><trkpt lat="43.43758" lon="11.57399"><ele>558.0</ele><time>2026-04-28T08:56:36.705Z</time></trkpt><trkpt lat="43.4376183" lon="11.5740817"><ele>558.0</ele><time>2026-04-28T08:56:37.705Z</time></trkpt><trkpt lat="43.437645" lon="11.574185"><ele>558.0</ele><time>2026-04-28T08:56:38.704Z</time></trkpt><trkpt lat="43.4376567" lon="11.57432"><ele>558.0</ele><time>2026-04-28T08:56:39.706Z</time></trkpt><trkpt lat="43.437665" lon="11.5744417"><ele>558.0</ele><time>2026-04-28T08:56:40.705Z</time></trkpt><trkpt lat="43.4376733" lon="11.5745533"><ele>559.1666666666666</ele><time>2026-04-28T08:56:41.704Z</time></trkpt><trkpt lat="43.4377" lon="11.574665"><ele>560.3333333333334</ele><time>2026-04-28T08:56:42.704Z</time></trkpt><trkpt lat="43.4377467" lon="11.5747533"><ele>561.5</ele><time>2026-04-28T08:56:43.706Z</time></trkpt><trkpt lat="43.437805" lon="11.5748317"><ele>562.6666666666667</ele><time>2026-04-28T08:56:44.706Z</time></trkpt><trkpt lat="43.4378683" lon="11.5748933"><ele>563.8333333333334</ele><time>2026-04-28T08:56:45.707Z</time></trkpt><trkpt lat="43.4379533" lon="11.57494"><ele>565.0</ele><time>2026-04-28T08:56:46.704Z</time></trkpt><trkpt lat="43.4380333" lon="11.5749833"><ele>565.0</ele><time>2026-04-28T08:56:47.705Z</time></trkpt><trkpt lat="43.4381133" lon="11.5750517"><ele>565.0</ele><time>2026-04-28T08:56:48.704Z</time></trkpt><trkpt lat="43.43819" lon="11.5751633"><ele>565.0</ele><time>2026-04-28T08:56:49.704Z</time></trkpt><trkpt lat="43.4382533" lon="11.5752867"><ele>565.0</ele><time>2026-04-28T08:56:50.706Z</time></trkpt><trkpt lat="43.43831" lon="11.5754017"><ele>565.0</ele><time>2026-04-28T08:56:51.705Z</time></trkpt><trkpt lat="43.4383617" lon="11.5755283"><ele>561.2</ele><time>2026-04-28T08:56:52.705Z</time></trkpt><trkpt lat="43.4384083" lon="11.5756467"><ele>557.4</ele><time>2026-04-28T08:56:53.705Z</time></trkpt><trkpt lat="43.4384583" lon="11.575765"><ele>553.6</ele><time>2026-04-28T08:56:54.705Z</time></trkpt><trkpt lat="43.43849" lon="11.5758833"><ele>549.8</ele><time>2026-04-28T08:56:55.705Z</time></trkpt><trkpt lat="43.4385033" lon="11.5759967"><ele>546.0</ele><time>2026-04-28T08:56:56.706Z</time></trkpt><trkpt lat="43.4385017" lon="11.5761283"><ele>542.6666666666666</ele><time>2026-04-28T08:56:57.706Z</time></trkpt><trkpt lat="43.4385117" lon="11.5762483"><ele>539.3333333333334</ele><time>2026-04-28T08:56:58.705Z</time></trkpt><trkpt lat="43.4385267" lon="11.5763483"><ele>536.0</ele><time>2026-04-28T08:56:59.704Z</time></trkpt><trkpt lat="43.4385467" lon="11.576455"><ele>532.6666666666667</ele><time>2026-04-28T08:57:00.706Z</time></trkpt><trkpt lat="43.4385717" lon="11.57657"><ele>529.3333333333334</ele><time>2026-04-28T08:57:01.705Z</time></trkpt><trkpt lat="43.4386433" lon="11.5766683"><ele>526.0</ele><time>2026-04-28T08:57:02.705Z</time></trkpt><trkpt lat="43.4387133" lon="11.5767883"><ele>526.0</ele><time>2026-04-28T08:57:03.708Z</time></trkpt><trkpt lat="43.4387917" lon="11.57691"><ele>526.0</ele><time>2026-04-28T08:57:04.706Z</time></trkpt><trkpt lat="43.4388683" lon="11.57703"><ele>526.0</ele><time>2026-04-28T08:57:05.705Z</time></trkpt><trkpt lat="43.4389367" lon="11.5771433"><ele>526.0</ele><time>2026-04-28T08:57:06.704Z</time></trkpt><trkpt lat="43.4390033" lon="11.5772467"><ele>526.0</ele><time>2026-04-28T08:57:07.706Z</time></trkpt><trkpt lat="43.4390567" lon="11.57734"><ele>526.1666666666667</ele><time>2026-04-28T08:57:08.706Z</time></trkpt><trkpt lat="43.4391033" lon="11.5774183"><ele>526.3333333333334</ele><time>2026-04-28T08:57:09.706Z</time></trkpt><trkpt lat="43.4391217" lon="11.5775333"><ele>526.5</ele><time>2026-04-28T08:57:10.705Z</time></trkpt><trkpt lat="43.43912" lon="11.5776517"><ele>526.6666666666666</ele><time>2026-04-28T08:57:11.703Z</time></trkpt><trkpt lat="43.439115" lon="11.577765"><ele>526.8333333333333</ele><time>2026-04-28T08:57:12.706Z</time></trkpt><trkpt lat="43.4391183" lon="11.5778767"><ele>527.0</ele><time>2026-04-28T08:57:13.706Z</time></trkpt><trkpt lat="43.4391283" lon="11.5780083"><ele>526.8333333333333</ele><time>2026-04-28T08:57:14.707Z</time></trkpt><trkpt lat="43.43913" lon="11.57815"><ele>526.6666666666666</ele><time>2026-04-28T08:57:15.706Z</time></trkpt><trkpt lat="43.43912" lon="11.5782883"><ele>526.5</ele><time>2026-04-28T08:57:16.706Z</time></trkpt><trkpt lat="43.4391117" lon="11.5784133"><ele>526.3333333333334</ele><time>2026-04-28T08:57:17.705Z</time></trkpt><trkpt lat="43.4391067" lon="11.5785233"><ele>526.1666666666667</ele><time>2026-04-28T08:57:18.705Z</time></trkpt><trkpt lat="43.439115" lon="11.578625"><ele>526.0</ele><time>2026-04-28T08:57:19.707Z</time></trkpt><trkpt lat="43.439135" lon="11.5787183"><ele>526.0</ele><time>2026-04-28T08:57:20.702Z</time></trkpt><trkpt lat="43.4391683" lon="11.5788217"><ele>526.0</ele><time>2026-04-28T08:57:21.706Z</time></trkpt><trkpt lat="43.4391967" lon="11.578925"><ele>526.0</ele><time>2026-04-28T08:57:22.705Z</time></trkpt><trkpt lat="43.439215" lon="11.5790483"><ele>526.0</ele><time>2026-04-28T08:57:23.706Z</time></trkpt><trkpt lat="43.439215" lon="11.5791767"><ele>526.0</ele><time>2026-04-28T08:57:24.705Z</time></trkpt><trkpt lat="43.4392283" lon="11.5793017"><ele>526.0</ele><time>2026-04-28T08:57:25.705Z</time></trkpt><trkpt lat="43.4392517" lon="11.579425"><ele>525.2</ele><time>2026-04-28T08:57:26.701Z</time></trkpt><trkpt lat="43.439305" lon="11.579535"><ele>524.4000000000001</ele><time>2026-04-28T08:57:27.707Z</time></trkpt><trkpt lat="43.4393733" lon="11.5796233"><ele>523.6</ele><time>2026-04-28T08:57:28.705Z</time></trkpt><trkpt lat="43.439445" lon="11.57973"><ele>522.8000000000001</ele><time>2026-04-28T08:57:29.706Z</time></trkpt><trkpt lat="43.4395217" lon="11.5798083"><ele>522.0</ele><time>2026-04-28T08:57:30.705Z</time></trkpt><trkpt lat="43.43959" lon="11.57988"><ele>521.0</ele><time>2026-04-28T08:57:31.702Z</time></trkpt><trkpt lat="43.4396733" lon="11.57994"><ele>520.0</ele><time>2026-04-28T08:57:32.706Z</time></trkpt><trkpt lat="43.43976" lon="11.58"><ele>519.0</ele><time>2026-04-28T08:57:33.707Z</time></trkpt><trkpt lat="43.4398483" lon="11.580055"><ele>518.0</ele><time>2026-04-28T08:57:34.705Z</time></trkpt><trkpt lat="43.4399367" lon="11.5801117"><ele>517.0</ele><time>2026-04-28T08:57:35.706Z</time></trkpt><trkpt lat="43.4400217" lon="11.5801667"><ele>517.0</ele><time>2026-04-28T08:57:36.706Z</time></trkpt><trkpt lat="43.4401067" lon="11.580225"><ele>517.0</ele><time>2026-04-28T08:57:37.705Z</time></trkpt><trkpt lat="43.4401883" lon="11.5802867"><ele>517.0</ele><time>2026-04-28T08:57:38.705Z</time></trkpt><trkpt lat="43.4402717" lon="11.5803533"><ele>517.0</ele><time>2026-04-28T08:57:39.706Z</time></trkpt><trkpt lat="43.4403517" lon="11.5804117"><ele>517.0</ele><time>2026-04-28T08:57:40.705Z</time></trkpt><trkpt lat="43.4404267" lon="11.580475"><ele>514.1666666666667</ele><time>2026-04-28T08:57:41.704Z</time></trkpt><trkpt lat="43.4404933" lon="11.5805517"><ele>511.33333333333337</ele><time>2026-04-28T08:57:42.705Z</time></trkpt><trkpt lat="43.44055" lon="11.5806333"><ele>508.5</ele><time>2026-04-28T08:57:43.705Z</time></trkpt><trkpt lat="43.4406033" lon="11.580715"><ele>505.66666666666663</ele><time>2026-04-28T08:57:44.706Z</time></trkpt><trkpt lat="43.4406533" lon="11.5807983"><ele>502.8333333333333</ele><time>2026-04-28T08:57:45.706Z</time></trkpt><trkpt lat="43.44071" lon="11.5808733"><ele>500.0</ele><time>2026-04-28T08:57:46.705Z</time></trkpt><trkpt lat="43.4407633" lon="11.5809383"><ele>500.0</ele><time>2026-04-28T08:57:47.705Z</time></trkpt><trkpt lat="43.4408217" lon="11.5809883"><ele>500.0</ele><time>2026-04-28T08:57:48.706Z</time></trkpt><trkpt lat="43.4409183" lon="11.58109"><ele>500.0</ele><time>2026-04-28T08:57:50.706Z</time></trkpt><trkpt lat="43.4409817" lon="11.581225"><ele>500.0</ele><time>2026-04-28T08:57:52.706Z</time></trkpt><trkpt lat="43.440995" lon="11.5813417"><ele>500.0</ele><time>2026-04-28T08:57:53.705Z</time></trkpt><trkpt lat="43.441005" lon="11.5814533"><ele>499.66666666666663</ele><time>2026-04-28T08:57:54.705Z</time></trkpt><trkpt lat="43.4410067" lon="11.5815483"><ele>499.3333333333333</ele><time>2026-04-28T08:57:55.706Z</time></trkpt><trkpt lat="43.4410167" lon="11.5816967"><ele>499.0</ele><time>2026-04-28T08:57:57.707Z</time></trkpt><trkpt lat="43.4410267" lon="11.5817967"><ele>498.66666666666663</ele><time>2026-04-28T08:57:59.706Z</time></trkpt><trkpt lat="43.441095" lon="11.5817483"><ele>498.3333333333333</ele><time>2026-04-28T08:58:04.705Z</time></trkpt><trkpt lat="43.4411233" lon="11.5816617"><ele>498.0</ele><time>2026-04-28T08:58:05.705Z</time></trkpt><trkpt lat="43.4411583" lon="11.581555"><ele>498.0</ele><time>2026-04-28T08:58:06.705Z</time></trkpt><trkpt lat="43.441195" lon="11.5814333"><ele>498.0</ele><time>2026-04-28T08:58:07.705Z</time></trkpt><trkpt lat="43.4412167" lon="11.5813117"><ele>498.0</ele><time>2026-04-28T08:58:08.705Z</time></trkpt><trkpt lat="43.4412267" lon="11.58119"><ele>498.0</ele><time>2026-04-28T08:58:09.706Z</time></trkpt><trkpt lat="43.4412333" lon="11.5810617"><ele>498.0</ele><time>2026-04-28T08:58:10.704Z</time></trkpt><trkpt lat="43.44122" lon="11.5809533"><ele>498.0</ele><time>2026-04-28T08:58:11.705Z</time></trkpt><trkpt lat="43.4412033" lon="11.5808033"><ele>498.4</ele><time>2026-04-28T08:58:12.705Z</time></trkpt><trkpt lat="43.44117" lon="11.5806517"><ele>498.79999999999995</ele><time>2026-04-28T08:58:13.705Z</time></trkpt><trkpt lat="43.4411267" lon="11.5805417"><ele>499.2</ele><time>2026-04-28T08:58:14.706Z</time></trkpt><trkpt lat="43.4410667" lon="11.58045"><ele>499.6</ele><time>2026-04-28T08:58:15.707Z</time></trkpt><trkpt lat="43.4410133" lon="11.5803517"><ele>500.0</ele><time>2026-04-28T08:58:16.705Z</time></trkpt><trkpt lat="43.4409633" lon="11.5802433"><ele>498.0</ele><time>2026-04-28T08:58:17.707Z</time></trkpt><trkpt lat="43.4409283" lon="11.5801183"><ele>496.0</ele><time>2026-04-28T08:58:18.705Z</time></trkpt><trkpt lat="43.44091" lon="11.5800017"><ele>494.0</ele><time>2026-04-28T08:58:19.707Z</time></trkpt><trkpt lat="43.4409017" lon="11.5798667"><ele>492.0</ele><time>2026-04-28T08:58:20.705Z</time></trkpt><trkpt lat="43.4408817" lon="11.5797333"><ele>490.0</ele><time>2026-04-28T08:58:21.707Z</time></trkpt><trkpt lat="43.4408467" lon="11.5796017"><ele>489.33333333333337</ele><time>2026-04-28T08:58:22.706Z</time></trkpt><trkpt lat="43.4408183" lon="11.5794817"><ele>488.6666666666667</ele><time>2026-04-28T08:58:23.706Z</time></trkpt><trkpt lat="43.44078" lon="11.579375"><ele>488.0</ele><time>2026-04-28T08:58:24.705Z</time></trkpt><trkpt lat="43.44074" lon="11.5792967"><ele>487.33333333333337</ele><time>2026-04-28T08:58:25.706Z</time></trkpt><trkpt lat="43.4406667" lon="11.5791783"><ele>486.6666666666667</ele><time>2026-04-28T08:58:27.705Z</time></trkpt><trkpt lat="43.44063" lon="11.579085"><ele>486.0</ele><time>2026-04-28T08:58:30.705Z</time></trkpt><trkpt lat="43.4407683" lon="11.57921"><ele>486.0</ele><time>2026-04-28T08:58:34.705Z</time></trkpt><trkpt lat="43.4408717" lon="11.5792133"><ele>486.0</ele><time>2026-04-28T08:58:36.706Z</time></trkpt><trkpt lat="43.4409483" lon="11.5791733"><ele>486.0</ele><time>2026-04-28T08:58:37.706Z</time></trkpt><trkpt lat="43.4410117" lon="11.5791233"><ele>486.0</ele><time>2026-04-28T08:58:38.707Z</time></trkpt><trkpt lat="43.44121" lon="11.57913"><ele>486.0</ele><time>2026-04-28T08:58:40.706Z</time></trkpt><trkpt lat="43.441275" lon="11.5790983"><ele>486.0</ele><time>2026-04-28T08:58:41.705Z</time></trkpt><trkpt lat="43.44134" lon="11.57906"><ele>486.0</ele><time>2026-04-28T08:58:42.706Z</time></trkpt><trkpt lat="43.4414233" lon="11.5790283"><ele>486.0</ele><time>2026-04-28T08:58:43.705Z</time></trkpt><trkpt lat="43.441575" lon="11.578975"><ele>486.0</ele><time>2026-04-28T08:58:44.705Z</time></trkpt><trkpt lat="43.4416617" lon="11.5788883"><ele>487.0</ele><time>2026-04-28T08:58:45.705Z</time></trkpt><trkpt lat="43.4417183" lon="11.5788"><ele>488.0</ele><time>2026-04-28T08:58:46.705Z</time></trkpt><trkpt lat="43.441865" lon="11.5786567"><ele>489.0</ele><time>2026-04-28T08:58:47.704Z</time></trkpt><trkpt lat="43.4419033" lon="11.5785767"><ele>490.0</ele><time>2026-04-28T08:58:48.705Z</time></trkpt><trkpt lat="43.441935" lon="11.5784933"><ele>491.0</ele><time>2026-04-28T08:58:49.707Z</time></trkpt><trkpt lat="43.44198" lon="11.5783883"><ele>491.0</ele><time>2026-04-28T08:58:50.705Z</time></trkpt><trkpt lat="43.4420183" lon="11.5782817"><ele>491.0</ele><time>2026-04-28T08:58:51.707Z</time></trkpt><trkpt lat="43.4420583" lon="11.57818"><ele>491.0</ele><time>2026-04-28T08:58:52.706Z</time></trkpt><trkpt lat="43.4420867" lon="11.5780583"><ele>491.0</ele><time>2026-04-28T08:58:53.704Z</time></trkpt><trkpt lat="43.4421017" lon="11.5779233"><ele>491.0</ele><time>2026-04-28T08:58:54.705Z</time></trkpt><trkpt lat="43.44213" lon="11.5778"><ele>484.6</ele><time>2026-04-28T08:58:55.705Z</time></trkpt><trkpt lat="43.442155" lon="11.5776467"><ele>478.20000000000005</ele><time>2026-04-28T08:58:56.706Z</time></trkpt><trkpt lat="43.4421867" lon="11.5775317"><ele>471.79999999999995</ele><time>2026-04-28T08:58:57.707Z</time></trkpt><trkpt lat="43.4422067" lon="11.5774333"><ele>465.4</ele><time>2026-04-28T08:58:58.704Z</time></trkpt><trkpt lat="43.4422283" lon="11.5772433"><ele>459.0</ele><time>2026-04-28T08:59:00.705Z</time></trkpt><trkpt lat="43.442305" lon="11.577035"><ele>459.5</ele><time>2026-04-28T08:59:01.706Z</time></trkpt><trkpt lat="43.4423367" lon="11.57685"><ele>460.0</ele><time>2026-04-28T08:59:02.706Z</time></trkpt><trkpt lat="43.4423267" lon="11.5766217"><ele>460.5</ele><time>2026-04-28T08:59:03.706Z</time></trkpt><trkpt lat="43.4422967" lon="11.5765017"><ele>461.0</ele><time>2026-04-28T08:59:04.705Z</time></trkpt><trkpt lat="43.4422667" lon="11.5764033"><ele>461.0</ele><time>2026-04-28T08:59:05.705Z</time></trkpt><trkpt lat="43.4422117" lon="11.5762533"><ele>461.0</ele><time>2026-04-28T08:59:06.706Z</time></trkpt><trkpt lat="43.4421767" lon="11.5761317"><ele>461.0</ele><time>2026-04-28T08:59:07.704Z</time></trkpt><trkpt lat="43.442155" lon="11.5760467"><ele>461.0</ele><time>2026-04-28T08:59:08.707Z</time></trkpt><trkpt lat="43.442055" lon="11.5759367"><ele>461.0</ele><time>2026-04-28T08:59:10.704Z</time></trkpt><trkpt lat="43.442025" lon="11.5758217"><ele>464.0</ele><time>2026-04-28T08:59:13.705Z</time></trkpt><trkpt lat="43.4420383" lon="11.5756083"><ele>467.0</ele><time>2026-04-28T08:59:15.705Z</time></trkpt><trkpt lat="43.4420317" lon="11.5754883"><ele>470.0</ele><time>2026-04-28T08:59:16.704Z</time></trkpt><trkpt lat="43.44202" lon="11.5753133"><ele>473.0</ele><time>2026-04-28T08:59:17.704Z</time></trkpt><trkpt lat="43.4420033" lon="11.575105"><ele>473.0</ele><time>2026-04-28T08:59:18.705Z</time></trkpt><trkpt lat="43.441965" lon="11.5749117"><ele>473.0</ele><time>2026-04-28T08:59:19.705Z</time></trkpt><trkpt lat="43.4419433" lon="11.574725"><ele>473.0</ele><time>2026-04-28T08:59:20.705Z</time></trkpt><trkpt lat="43.44192" lon="11.5745733"><ele>473.0</ele><time>2026-04-28T08:59:21.707Z</time></trkpt><trkpt lat="43.4419133" lon="11.5744117"><ele>470.0</ele><time>2026-04-28T08:59:22.705Z</time></trkpt><trkpt lat="43.4418967" lon="11.5742633"><ele>467.0</ele><time>2026-04-28T08:59:23.702Z</time></trkpt><trkpt lat="43.441865" lon="11.5741133"><ele>464.0</ele><time>2026-04-28T08:59:24.705Z</time></trkpt><trkpt lat="43.4418267" lon="11.5739717"><ele>461.0</ele><time>2026-04-28T08:59:25.705Z</time></trkpt><trkpt lat="43.4417733" lon="11.5738267"><ele>460.99999999999994</ele><time>2026-04-28T08:59:26.704Z</time></trkpt><trkpt lat="43.4417283" lon="11.573695"><ele>461.0</ele><time>2026-04-28T08:59:27.708Z</time></trkpt><trkpt lat="43.4416933" lon="11.5735817"><ele>461.0</ele><time>2026-04-28T08:59:28.701Z</time></trkpt><trkpt lat="43.4416617" lon="11.5734817"><ele>461.0</ele><time>2026-04-28T08:59:29.705Z</time></trkpt><trkpt lat="43.4416267" lon="11.5733833"><ele>460.99999999999994</ele><time>2026-04-28T08:59:30.705Z</time></trkpt><trkpt lat="43.4415733" lon="11.57329"><ele>461.0</ele><time>2026-04-28T08:59:32.706Z</time></trkpt><trkpt lat="43.4414283" lon="11.5732217"><ele>459.3333333333333</ele><time>2026-04-28T08:59:37.706Z</time></trkpt><trkpt lat="43.4414917" lon="11.5731917"><ele>457.66666666666663</ele><time>2026-04-28T08:59:42.705Z</time></trkpt><trkpt lat="43.4415817" lon="11.5732083"><ele>456.0</ele><time>2026-04-28T08:59:44.706Z</time></trkpt><trkpt lat="43.4416817" lon="11.5732383"><ele>454.33333333333337</ele><time>2026-04-28T08:59:46.705Z</time></trkpt><trkpt lat="43.441755" lon="11.5733"><ele>452.6666666666667</ele><time>2026-04-28T08:59:47.703Z</time></trkpt><trkpt lat="43.44183" lon="11.5733633"><ele>451.0</ele><time>2026-04-28T08:59:48.705Z</time></trkpt><trkpt lat="43.4419117" lon="11.57345"><ele>451.0</ele><time>2026-04-28T08:59:49.706Z</time></trkpt><trkpt lat="43.4419767" lon="11.5735533"><ele>451.0</ele><time>2026-04-28T08:59:50.704Z</time></trkpt><trkpt lat="43.442045" lon="11.5736667"><ele>451.0</ele><time>2026-04-28T08:59:51.705Z</time></trkpt><trkpt lat="43.44211" lon="11.5737933"><ele>451.0</ele><time>2026-04-28T08:59:52.704Z</time></trkpt><trkpt lat="43.4421883" lon="11.5739567"><ele>451.0</ele><time>2026-04-28T08:59:53.705Z</time></trkpt><trkpt lat="43.4422883" lon="11.5741167"><ele>451.0</ele><time>2026-04-28T08:59:54.705Z</time></trkpt><trkpt lat="43.4423933" lon="11.5742467"><ele>451.0</ele><time>2026-04-28T08:59:55.705Z</time></trkpt><trkpt lat="43.4424983" lon="11.574395"><ele>451.0</ele><time>2026-04-28T08:59:56.705Z</time></trkpt><trkpt lat="43.4425917" lon="11.57456"><ele>449.75</ele><time>2026-04-28T08:59:57.706Z</time></trkpt><trkpt lat="43.4426683" lon="11.5747117"><ele>448.5</ele><time>2026-04-28T08:59:58.706Z</time></trkpt><trkpt lat="43.442735" lon="11.5748633"><ele>447.25</ele><time>2026-04-28T08:59:59.704Z</time></trkpt><trkpt lat="43.4428" lon="11.5750017"><ele>446.0</ele><time>2026-04-28T09:00:00.702Z</time></trkpt><trkpt lat="43.442885" lon="11.5751633"><ele>445.75</ele><time>2026-04-28T09:00:01.702Z</time></trkpt><trkpt lat="43.4429767" lon="11.575335"><ele>445.5</ele><time>2026-04-28T09:00:02.703Z</time></trkpt><trkpt lat="43.4430517" lon="11.5754633"><ele>445.25</ele><time>2026-04-28T09:00:03.703Z</time></trkpt><trkpt lat="43.4430983" lon="11.5756417"><ele>445.0</ele><time>2026-04-28T09:00:04.699Z</time></trkpt><trkpt lat="43.4431417" lon="11.5757833"><ele>445.0</ele><time>2026-04-28T09:00:05.701Z</time></trkpt><trkpt lat="43.44319" lon="11.5759267"><ele>445.0</ele><time>2026-04-28T09:00:06.705Z</time></trkpt><trkpt lat="43.4432167" lon="11.5760583"><ele>445.0</ele><time>2026-04-28T09:00:07.706Z</time></trkpt><trkpt lat="43.443235" lon="11.5762033"><ele>445.0</ele><time>2026-04-28T09:00:08.704Z</time></trkpt><trkpt lat="43.4432583" lon="11.5763433"><ele>445.0</ele><time>2026-04-28T09:00:09.707Z</time></trkpt><trkpt lat="43.4433067" lon="11.576485"><ele>444.0</ele><time>2026-04-28T09:00:10.706Z</time></trkpt><trkpt lat="43.4433717" lon="11.5766433"><ele>443.0</ele><time>2026-04-28T09:00:11.705Z</time></trkpt><trkpt lat="43.443435" lon="11.57679"><ele>442.0</ele><time>2026-04-28T09:00:12.704Z</time></trkpt><trkpt lat="43.4434867" lon="11.5769283"><ele>441.0</ele><time>2026-04-28T09:00:13.707Z</time></trkpt><trkpt lat="43.4435217" lon="11.5770683"><ele>440.3333333333333</ele><time>2026-04-28T09:00:14.705Z</time></trkpt><trkpt lat="43.4435583" lon="11.577195"><ele>439.66666666666663</ele><time>2026-04-28T09:00:15.703Z</time></trkpt><trkpt lat="43.4435983" lon="11.5773133"><ele>439.0</ele><time>2026-04-28T09:00:16.705Z</time></trkpt><trkpt lat="43.4436383" lon="11.5774167"><ele>438.3333333333333</ele><time>2026-04-28T09:00:17.704Z</time></trkpt><trkpt lat="43.4436783" lon="11.57749"><ele>437.66666666666663</ele><time>2026-04-28T09:00:18.705Z</time></trkpt><trkpt lat="43.44373" lon="11.577555"><ele>437.0</ele><time>2026-04-28T09:00:19.704Z</time></trkpt><trkpt lat="43.4437867" lon="11.577605"><ele>439.49999999999994</ele><time>2026-04-28T09:00:20.704Z</time></trkpt><trkpt lat="43.44387" lon="11.577615"><ele>442.0</ele><time>2026-04-28T09:00:23.705Z</time></trkpt><trkpt lat="43.4438967" lon="11.5775233"><ele>444.5</ele><time>2026-04-28T09:00:27.705Z</time></trkpt><trkpt lat="43.4438867" lon="11.57742"><ele>447.0</ele><time>2026-04-28T09:00:30.705Z</time></trkpt><trkpt lat="43.443915" lon="11.57733"><ele>449.49999999999994</ele><time>2026-04-28T09:00:32.706Z</time></trkpt><trkpt lat="43.4439667" lon="11.5772583"><ele>452.0</ele><time>2026-04-28T09:00:34.706Z</time></trkpt><trkpt lat="43.44402" lon="11.577185"><ele>451.99999999999994</ele><time>2026-04-28T09:00:36.706Z</time></trkpt><trkpt lat="43.4440967" lon="11.5771333"><ele>452.0</ele><time>2026-04-28T09:00:38.706Z</time></trkpt><trkpt lat="43.4441867" lon="11.5770883"><ele>452.0</ele><time>2026-04-28T09:00:40.705Z</time></trkpt><trkpt lat="43.4442533" lon="11.57704"><ele>452.0</ele><time>2026-04-28T09:00:42.706Z</time></trkpt><trkpt lat="43.4443067" lon="11.5769917"><ele>451.99999999999994</ele><time>2026-04-28T09:00:44.705Z</time></trkpt><trkpt lat="43.4443633" lon="11.5768683"><ele>452.0</ele><time>2026-04-28T09:00:46.706Z</time></trkpt><trkpt lat="43.4443783" lon="11.5766933"><ele>454.8</ele><time>2026-04-28T09:00:47.704Z</time></trkpt><trkpt lat="43.4443917" lon="11.576605"><ele>457.6</ele><time>2026-04-28T09:00:48.706Z</time></trkpt><trkpt lat="43.4444017" lon="11.5764417"><ele>460.40000000000003</ele><time>2026-04-28T09:00:49.706Z</time></trkpt><trkpt lat="43.444415" lon="11.576305"><ele>463.20000000000005</ele><time>2026-04-28T09:00:50.704Z</time></trkpt><trkpt lat="43.4444333" lon="11.5761633"><ele>466.0</ele><time>2026-04-28T09:00:51.707Z</time></trkpt><trkpt lat="43.44443" lon="11.576035"><ele>467.6</ele><time>2026-04-28T09:00:52.704Z</time></trkpt><trkpt lat="43.444455" lon="11.575835"><ele>469.20000000000005</ele><time>2026-04-28T09:00:53.705Z</time></trkpt><trkpt lat="43.444465" lon="11.5757117"><ele>470.79999999999995</ele><time>2026-04-28T09:00:54.707Z</time></trkpt><trkpt lat="43.44448" lon="11.5755983"><ele>472.4</ele><time>2026-04-28T09:00:55.705Z</time></trkpt><trkpt lat="43.444495" lon="11.575465"><ele>474.0</ele><time>2026-04-28T09:00:56.704Z</time></trkpt><trkpt lat="43.4445033" lon="11.575345"><ele>476.4</ele><time>2026-04-28T09:00:57.705Z</time></trkpt><trkpt lat="43.44452" lon="11.5751367"><ele>478.79999999999995</ele><time>2026-04-28T09:00:58.706Z</time></trkpt><trkpt lat="43.44453" lon="11.575015"><ele>481.20000000000005</ele><time>2026-04-28T09:00:59.707Z</time></trkpt><trkpt lat="43.444555" lon="11.5749133"><ele>483.6</ele><time>2026-04-28T09:01:00.705Z</time></trkpt><trkpt lat="43.4445867" lon="11.5747783"><ele>486.0</ele><time>2026-04-28T09:01:01.706Z</time></trkpt><trkpt lat="43.4446167" lon="11.57467"><ele>487.0</ele><time>2026-04-28T09:01:02.705Z</time></trkpt><trkpt lat="43.4446467" lon="11.5745583"><ele>488.0</ele><time>2026-04-28T09:01:03.707Z</time></trkpt><trkpt lat="43.444665" lon="11.5744633"><ele>489.0</ele><time>2026-04-28T09:01:04.703Z</time></trkpt><trkpt lat="43.4446767" lon="11.574335"><ele>490.0</ele><time>2026-04-28T09:01:05.703Z</time></trkpt><trkpt lat="43.4446917" lon="11.5742017"><ele>491.0</ele><time>2026-04-28T09:01:06.705Z</time></trkpt><trkpt lat="43.4447033" lon="11.574085"><ele>492.0</ele><time>2026-04-28T09:01:07.705Z</time></trkpt><trkpt lat="43.444715" lon="11.5739667"><ele>493.8333333333333</ele><time>2026-04-28T09:01:08.705Z</time></trkpt><trkpt lat="43.4447183" lon="11.5738433"><ele>495.66666666666663</ele><time>2026-04-28T09:01:09.706Z</time></trkpt><trkpt lat="43.4446983" lon="11.5737517"><ele>497.5</ele><time>2026-04-28T09:01:10.705Z</time></trkpt><trkpt lat="43.44469" lon="11.5736317"><ele>499.3333333333333</ele><time>2026-04-28T09:01:11.705Z</time></trkpt><trkpt lat="43.4446817" lon="11.5735167"><ele>501.16666666666663</ele><time>2026-04-28T09:01:12.706Z</time></trkpt><trkpt lat="43.4446633" lon="11.5734117"><ele>503.0</ele><time>2026-04-28T09:01:13.707Z</time></trkpt><trkpt lat="43.44464" lon="11.573305"><ele>505.3333333333333</ele><time>2026-04-28T09:01:14.706Z</time></trkpt><trkpt lat="43.4446267" lon="11.5731867"><ele>507.66666666666663</ele><time>2026-04-28T09:01:15.707Z</time></trkpt><trkpt lat="43.444615" lon="11.5730933"><ele>510.0</ele><time>2026-04-28T09:01:16.705Z</time></trkpt><trkpt lat="43.4446117" lon="11.57297"><ele>512.3333333333334</ele><time>2026-04-28T09:01:17.704Z</time></trkpt><trkpt lat="43.4446133" lon="11.5728483"><ele>514.6666666666667</ele><time>2026-04-28T09:01:18.706Z</time></trkpt><trkpt lat="43.4446233" lon="11.57271"><ele>517.0</ele><time>2026-04-28T09:01:19.706Z</time></trkpt><trkpt lat="43.4446567" lon="11.57257"><ele>518.8000000000001</ele><time>2026-04-28T09:01:20.705Z</time></trkpt><trkpt lat="43.4446883" lon="11.5724417"><ele>520.6</ele><time>2026-04-28T09:01:21.706Z</time></trkpt><trkpt lat="43.44473" lon="11.5723083"><ele>522.4000000000001</ele><time>2026-04-28T09:01:22.706Z</time></trkpt><trkpt lat="43.4447667" lon="11.5721783"><ele>524.2</ele><time>2026-04-28T09:01:23.705Z</time></trkpt><trkpt lat="43.444815" lon="11.5720717"><ele>526.0</ele><time>2026-04-28T09:01:24.705Z</time></trkpt><trkpt lat="43.4448917" lon="11.5719333"><ele>526.25</ele><time>2026-04-28T09:01:25.706Z</time></trkpt><trkpt lat="43.44497" lon="11.5717917"><ele>526.5</ele><time>2026-04-28T09:01:26.705Z</time></trkpt><trkpt lat="43.4450467" lon="11.5716533"><ele>526.75</ele><time>2026-04-28T09:01:27.705Z</time></trkpt><trkpt lat="43.4451233" lon="11.57153"><ele>527.0</ele><time>2026-04-28T09:01:28.706Z</time></trkpt><trkpt lat="43.4452133" lon="11.5713933"><ele>527.0</ele><time>2026-04-28T09:01:29.705Z</time></trkpt><trkpt lat="43.44529" lon="11.5712917"><ele>527.0</ele><time>2026-04-28T09:01:30.705Z</time></trkpt><trkpt lat="43.4453633" lon="11.5711883"><ele>527.0</ele><time>2026-04-28T09:01:31.706Z</time></trkpt><trkpt lat="43.4454283" lon="11.571085"><ele>527.0</ele><time>2026-04-28T09:01:32.705Z</time></trkpt><trkpt lat="43.4454917" lon="11.5709967"><ele>527.0</ele><time>2026-04-28T09:01:33.703Z</time></trkpt><trkpt lat="43.4455483" lon="11.5709117"><ele>526.6666666666666</ele><time>2026-04-28T09:01:34.705Z</time></trkpt><trkpt lat="43.4455917" lon="11.570835"><ele>526.3333333333333</ele><time>2026-04-28T09:01:35.705Z</time></trkpt><trkpt lat="43.445645" lon="11.570765"><ele>526.0</ele><time>2026-04-28T09:01:36.705Z</time></trkpt><trkpt lat="43.4457117" lon="11.5706783"><ele>525.6666666666666</ele><time>2026-04-28T09:01:37.707Z</time></trkpt><trkpt lat="43.44578" lon="11.5705883"><ele>525.3333333333334</ele><time>2026-04-28T09:01:38.707Z</time></trkpt><trkpt lat="43.4458467" lon="11.570515"><ele>525.0</ele><time>2026-04-28T09:01:39.706Z</time></trkpt><trkpt lat="43.4459133" lon="11.570445"><ele>525.0</ele><time>2026-04-28T09:01:40.705Z</time></trkpt><trkpt lat="43.445965" lon="11.57038"><ele>525.0</ele><time>2026-04-28T09:01:41.706Z</time></trkpt><trkpt lat="43.4460017" lon="11.57021"><ele>525.0</ele><time>2026-04-28T09:01:43.704Z</time></trkpt><trkpt lat="43.44599" lon="11.5700833"><ele>525.0</ele><time>2026-04-28T09:01:44.704Z</time></trkpt><trkpt lat="43.4459883" lon="11.5699467"><ele>525.0</ele><time>2026-04-28T09:01:45.706Z</time></trkpt><trkpt lat="43.446" lon="11.56983"><ele>524.8333333333334</ele><time>2026-04-28T09:01:46.704Z</time></trkpt><trkpt lat="43.44601" lon="11.56973"><ele>524.6666666666666</ele><time>2026-04-28T09:01:47.705Z</time></trkpt><trkpt lat="43.4460367" lon="11.5696283"><ele>524.5</ele><time>2026-04-28T09:01:48.705Z</time></trkpt><trkpt lat="43.4460667" lon="11.5695133"><ele>524.3333333333333</ele><time>2026-04-28T09:01:49.706Z</time></trkpt><trkpt lat="43.4460933" lon="11.5693933"><ele>524.1666666666666</ele><time>2026-04-28T09:01:50.706Z</time></trkpt><trkpt lat="43.4461167" lon="11.569285"><ele>524.0</ele><time>2026-04-28T09:01:51.707Z</time></trkpt><trkpt lat="43.44615" lon="11.56918"><ele>523.5</ele><time>2026-04-28T09:01:52.705Z</time></trkpt><trkpt lat="43.4461833" lon="11.5690983"><ele>523.0</ele><time>2026-04-28T09:01:53.7Z</time></trkpt><trkpt lat="43.4462783" lon="11.5690117"><ele>522.5</ele><time>2026-04-28T09:01:55.706Z</time></trkpt><trkpt lat="43.4463533" lon="11.5689967"><ele>522.0</ele><time>2026-04-28T09:01:56.706Z</time></trkpt><trkpt lat="43.4464217" lon="11.5689733"><ele>521.5</ele><time>2026-04-28T09:01:57.706Z</time></trkpt><trkpt lat="43.4464883" lon="11.56894"><ele>521.0</ele><time>2026-04-28T09:01:58.705Z</time></trkpt><trkpt lat="43.44656" lon="11.5688933"><ele>523.4</ele><time>2026-04-28T09:01:59.703Z</time></trkpt><trkpt lat="43.4466333" lon="11.56883"><ele>525.8</ele><time>2026-04-28T09:02:00.703Z</time></trkpt><trkpt lat="43.446715" lon="11.5687467"><ele>528.1999999999999</ele><time>2026-04-28T09:02:01.707Z</time></trkpt><trkpt lat="43.4467883" lon="11.5686567"><ele>530.6</ele><time>2026-04-28T09:02:02.706Z</time></trkpt><trkpt lat="43.44685" lon="11.5685633"><ele>533.0</ele><time>2026-04-28T09:02:03.706Z</time></trkpt><trkpt lat="43.4468917" lon="11.5684717"><ele>533.3333333333333</ele><time>2026-04-28T09:02:04.704Z</time></trkpt><trkpt lat="43.4469217" lon="11.5683567"><ele>533.6666666666666</ele><time>2026-04-28T09:02:05.705Z</time></trkpt><trkpt lat="43.4469283" lon="11.5682367"><ele>534.0</ele><time>2026-04-28T09:02:06.705Z</time></trkpt><trkpt lat="43.446935" lon="11.5681133"><ele>534.3333333333334</ele><time>2026-04-28T09:02:07.705Z</time></trkpt><trkpt lat="43.4469383" lon="11.5679917"><ele>534.6666666666667</ele><time>2026-04-28T09:02:08.704Z</time></trkpt><trkpt lat="43.4469467" lon="11.56787"><ele>535.0</ele><time>2026-04-28T09:02:09.706Z</time></trkpt><trkpt lat="43.4469583" lon="11.567745"><ele>536.2</ele><time>2026-04-28T09:02:10.705Z</time></trkpt><trkpt lat="43.44698" lon="11.567625"><ele>537.4</ele><time>2026-04-28T09:02:11.705Z</time></trkpt><trkpt lat="43.4470133" lon="11.56751"><ele>538.6</ele><time>2026-04-28T09:02:12.705Z</time></trkpt><trkpt lat="43.44705" lon="11.56741"><ele>539.8</ele><time>2026-04-28T09:02:13.707Z</time></trkpt><trkpt lat="43.4470833" lon="11.56732"><ele>541.0</ele><time>2026-04-28T09:02:14.706Z</time></trkpt><trkpt lat="43.4471283" lon="11.5671533"><ele>541.0</ele><time>2026-04-28T09:02:16.706Z</time></trkpt><trkpt lat="43.4471583" lon="11.567055"><ele>541.0</ele><time>2026-04-28T09:02:17.705Z</time></trkpt><trkpt lat="43.447205" lon="11.5669417"><ele>541.0</ele><time>2026-04-28T09:02:18.705Z</time></trkpt><trkpt lat="43.4472467" lon="11.5668467"><ele>541.0</ele><time>2026-04-28T09:02:19.706Z</time></trkpt><trkpt lat="43.4472833" lon="11.56677"><ele>541.0</ele><time>2026-04-28T09:02:20.705Z</time></trkpt><trkpt lat="43.447315" lon="11.5666817"><ele>541.0</ele><time>2026-04-28T09:02:21.709Z</time></trkpt><trkpt lat="43.4473133" lon="11.5665067"><ele>543.4</ele><time>2026-04-28T09:02:23.705Z</time></trkpt><trkpt lat="43.44731" lon="11.5663717"><ele>545.8</ele><time>2026-04-28T09:02:25.706Z</time></trkpt><trkpt lat="43.4472833" lon="11.5662017"><ele>548.1999999999999</ele><time>2026-04-28T09:02:27.708Z</time></trkpt><trkpt lat="43.447275" lon="11.5661067"><ele>550.6</ele><time>2026-04-28T09:02:28.706Z</time></trkpt><trkpt lat="43.4472767" lon="11.5659483"><ele>553.0</ele><time>2026-04-28T09:02:29.705Z</time></trkpt><trkpt lat="43.4472817" lon="11.5658333"><ele>554.0</ele><time>2026-04-28T09:02:30.705Z</time></trkpt><trkpt lat="43.447285" lon="11.565715"><ele>555.0</ele><time>2026-04-28T09:02:31.705Z</time></trkpt><trkpt lat="43.44728" lon="11.5655917"><ele>556.0</ele><time>2026-04-28T09:02:32.704Z</time></trkpt><trkpt lat="43.447275" lon="11.5654567"><ele>557.0</ele><time>2026-04-28T09:02:33.706Z</time></trkpt><trkpt lat="43.44726" lon="11.5653"><ele>558.0</ele><time>2026-04-28T09:02:34.706Z</time></trkpt><trkpt lat="43.4472467" lon="11.5651317"><ele>558.1999999999999</ele><time>2026-04-28T09:02:35.711Z</time></trkpt><trkpt lat="43.4472367" lon="11.5649817"><ele>558.4</ele><time>2026-04-28T09:02:36.704Z</time></trkpt><trkpt lat="43.447215" lon="11.5648433"><ele>558.5999999999999</ele><time>2026-04-28T09:02:37.706Z</time></trkpt><trkpt lat="43.4471867" lon="11.5647033"><ele>558.8</ele><time>2026-04-28T09:02:38.705Z</time></trkpt><trkpt lat="43.4471567" lon="11.5645717"><ele>559.0</ele><time>2026-04-28T09:02:39.706Z</time></trkpt><trkpt lat="43.44712" lon="11.5644483"><ele>559.2</ele><time>2026-04-28T09:02:40.713Z</time></trkpt><trkpt lat="43.4470867" lon="11.5643433"><ele>559.4</ele><time>2026-04-28T09:02:41.704Z</time></trkpt><trkpt lat="43.44706" lon="11.5642283"><ele>559.6</ele><time>2026-04-28T09:02:42.705Z</time></trkpt><trkpt lat="43.4470433" lon="11.5641"><ele>559.8</ele><time>2026-04-28T09:02:43.706Z</time></trkpt><trkpt lat="43.447045" lon="11.56395"><ele>560.0</ele><time>2026-04-28T09:02:44.706Z</time></trkpt><trkpt lat="43.4470467" lon="11.563795"><ele>559.8333333333333</ele><time>2026-04-28T09:02:45.706Z</time></trkpt><trkpt lat="43.4470533" lon="11.5636533"><ele>559.6666666666666</ele><time>2026-04-28T09:02:46.705Z</time></trkpt><trkpt lat="43.447065" lon="11.5635383"><ele>559.5</ele><time>2026-04-28T09:02:47.705Z</time></trkpt><trkpt lat="43.44709" lon="11.5634267"><ele>559.3333333333334</ele><time>2026-04-28T09:02:48.704Z</time></trkpt><trkpt lat="43.4471417" lon="11.5633383"><ele>559.1666666666667</ele><time>2026-04-28T09:02:49.705Z</time></trkpt><trkpt lat="43.4471983" lon="11.563235"><ele>559.0</ele><time>2026-04-28T09:02:50.706Z</time></trkpt><trkpt lat="43.4472667" lon="11.563165"><ele>560.5</ele><time>2026-04-28T09:02:51.707Z</time></trkpt><trkpt lat="43.447355" lon="11.56312"><ele>562.0</ele><time>2026-04-28T09:02:52.707Z</time></trkpt><trkpt lat="43.447425" lon="11.5630867"><ele>563.5</ele><time>2026-04-28T09:02:53.704Z</time></trkpt><trkpt lat="43.44749" lon="11.5630717"><ele>565.0</ele><time>2026-04-28T09:02:54.705Z</time></trkpt><trkpt lat="43.4475567" lon="11.56309"><ele>566.5</ele><time>2026-04-28T09:02:55.704Z</time></trkpt><trkpt lat="43.4476267" lon="11.5631483"><ele>568.0</ele><time>2026-04-28T09:02:56.705Z</time></trkpt><trkpt lat="43.4477267" lon="11.5632083"><ele>568.0</ele><time>2026-04-28T09:02:57.705Z</time></trkpt><trkpt lat="43.44781" lon="11.56321"><ele>568.0</ele><time>2026-04-28T09:02:58.703Z</time></trkpt><trkpt lat="43.4478967" lon="11.5631867"><ele>568.0</ele><time>2026-04-28T09:02:59.706Z</time></trkpt><trkpt lat="43.447975" lon="11.5631367"><ele>568.0</ele><time>2026-04-28T09:03:00.703Z</time></trkpt><trkpt lat="43.4480433" lon="11.5631083"><ele>568.0</ele><time>2026-04-28T09:03:01.706Z</time></trkpt><trkpt lat="43.4481183" lon="11.5631133"><ele>568.0</ele><time>2026-04-28T09:03:03.708Z</time></trkpt><trkpt lat="43.44816" lon="11.5630333"><ele>568.0</ele><time>2026-04-28T09:03:10.704Z</time></trkpt><trkpt lat="43.4481167" lon="11.5629083"><ele>568.0</ele><time>2026-04-28T09:03:12.705Z</time></trkpt><trkpt lat="43.4481083" lon="11.5628033"><ele>568.0</ele><time>2026-04-28T09:03:13.706Z</time></trkpt><trkpt lat="43.4481083" lon="11.5626967"><ele>568.0</ele><time>2026-04-28T09:03:14.703Z</time></trkpt><trkpt lat="43.44811" lon="11.5626017"><ele>568.0</ele><time>2026-04-28T09:03:15.706Z</time></trkpt><trkpt lat="43.4480933" lon="11.5624967"><ele>568.0</ele><time>2026-04-28T09:03:16.705Z</time></trkpt><trkpt lat="43.4480583" lon="11.5623967"><ele>569.5</ele><time>2026-04-28T09:03:17.706Z</time></trkpt><trkpt lat="43.4479817" lon="11.5622733"><ele>571.0</ele><time>2026-04-28T09:03:18.705Z</time></trkpt><trkpt lat="43.4478883" lon="11.562165"><ele>572.5</ele><time>2026-04-28T09:03:19.707Z</time></trkpt><trkpt lat="43.4478" lon="11.562055"><ele>574.0</ele><time>2026-04-28T09:03:20.706Z</time></trkpt><trkpt lat="43.447715" lon="11.5619333"><ele>576.0</ele><time>2026-04-28T09:03:21.705Z</time></trkpt><trkpt lat="43.4476333" lon="11.561795"><ele>578.0</ele><time>2026-04-28T09:03:22.706Z</time></trkpt><trkpt lat="43.4475717" lon="11.5616617"><ele>580.0</ele><time>2026-04-28T09:03:23.705Z</time></trkpt><trkpt lat="43.4475233" lon="11.5615417"><ele>582.0</ele><time>2026-04-28T09:03:24.706Z</time></trkpt><trkpt lat="43.44747" lon="11.561435"><ele>584.0</ele><time>2026-04-28T09:03:25.705Z</time></trkpt><trkpt lat="43.4474017" lon="11.5613267"><ele>584.0</ele><time>2026-04-28T09:03:26.705Z</time></trkpt><trkpt lat="43.4473183" lon="11.5612067"><ele>584.0</ele><time>2026-04-28T09:03:27.709Z</time></trkpt><trkpt lat="43.4472317" lon="11.5610833"><ele>584.0</ele><time>2026-04-28T09:03:28.706Z</time></trkpt><trkpt lat="43.4471517" lon="11.560955"><ele>584.0</ele><time>2026-04-28T09:03:29.704Z</time></trkpt><trkpt lat="43.447065" lon="11.5608183"><ele>584.75</ele><time>2026-04-28T09:03:30.706Z</time></trkpt><trkpt lat="43.446975" lon="11.560675"><ele>585.5</ele><time>2026-04-28T09:03:31.707Z</time></trkpt><trkpt lat="43.44688" lon="11.5605267"><ele>586.25</ele><time>2026-04-28T09:03:32.705Z</time></trkpt><trkpt lat="43.4467717" lon="11.5603817"><ele>587.0</ele><time>2026-04-28T09:03:33.707Z</time></trkpt><trkpt lat="43.44668" lon="11.5602567"><ele>588.2</ele><time>2026-04-28T09:03:34.707Z</time></trkpt><trkpt lat="43.4465917" lon="11.56014"><ele>589.4000000000001</ele><time>2026-04-28T09:03:35.705Z</time></trkpt><trkpt lat="43.446515" lon="11.560025"><ele>590.5999999999999</ele><time>2026-04-28T09:03:36.706Z</time></trkpt><trkpt lat="43.4464567" lon="11.5599083"><ele>591.8</ele><time>2026-04-28T09:03:37.705Z</time></trkpt><trkpt lat="43.446415" lon="11.55979"><ele>593.0</ele><time>2026-04-28T09:03:38.705Z</time></trkpt><trkpt lat="43.4463867" lon="11.55967"><ele>593.0</ele><time>2026-04-28T09:03:39.706Z</time></trkpt><trkpt lat="43.4463517" lon="11.5595583"><ele>593.0</ele><time>2026-04-28T09:03:40.704Z</time></trkpt><trkpt lat="43.44632" lon="11.55946"><ele>593.0</ele><time>2026-04-28T09:03:41.705Z</time></trkpt><trkpt lat="43.4462067" lon="11.5594417"><ele>593.0</ele><time>2026-04-28T09:03:43.706Z</time></trkpt><trkpt lat="43.4461433" lon="11.5594183"><ele>593.0</ele><time>2026-04-28T09:03:44.705Z</time></trkpt><trkpt lat="43.4460833" lon="11.5593617"><ele>593.0</ele><time>2026-04-28T09:03:45.706Z</time></trkpt><trkpt lat="43.4460167" lon="11.5592817"><ele>594.6666666666666</ele><time>2026-04-28T09:03:46.705Z</time></trkpt><trkpt lat="43.445945" lon="11.559195"><ele>596.3333333333333</ele><time>2026-04-28T09:03:47.704Z</time></trkpt><trkpt lat="43.4458617" lon="11.5591183"><ele>598.0</ele><time>2026-04-28T09:03:48.704Z</time></trkpt><trkpt lat="43.4457917" lon="11.5590383"><ele>599.6666666666666</ele><time>2026-04-28T09:03:49.706Z</time></trkpt><trkpt lat="43.445735" lon="11.5589667"><ele>601.3333333333334</ele><time>2026-04-28T09:03:50.703Z</time></trkpt><trkpt lat="43.4456933" lon="11.5588983"><ele>603.0</ele><time>2026-04-28T09:03:51.705Z</time></trkpt><trkpt lat="43.4456683" lon="11.5587483"><ele>603.5</ele><time>2026-04-28T09:03:53.705Z</time></trkpt><trkpt lat="43.4456717" lon="11.5586533"><ele>604.0</ele><time>2026-04-28T09:03:54.706Z</time></trkpt><trkpt lat="43.4456567" lon="11.55856"><ele>604.5</ele><time>2026-04-28T09:03:55.704Z</time></trkpt><trkpt lat="43.44563" lon="11.55843"><ele>605.0</ele><time>2026-04-28T09:03:56.705Z</time></trkpt><trkpt lat="43.4455867" lon="11.5583133"><ele>605.5</ele><time>2026-04-28T09:03:57.706Z</time></trkpt><trkpt lat="43.4455283" lon="11.5581867"><ele>606.0</ele><time>2026-04-28T09:03:58.705Z</time></trkpt><trkpt lat="43.4454467" lon="11.5580733"><ele>605.75</ele><time>2026-04-28T09:03:59.704Z</time></trkpt><trkpt lat="43.4453533" lon="11.5579383"><ele>605.5</ele><time>2026-04-28T09:04:00.705Z</time></trkpt><trkpt lat="43.445275" lon="11.5578133"><ele>605.25</ele><time>2026-04-28T09:04:01.704Z</time></trkpt><trkpt lat="43.4451933" lon="11.5576933"><ele>605.0</ele><time>2026-04-28T09:04:02.705Z</time></trkpt><trkpt lat="43.4451133" lon="11.5575817"><ele>605.0</ele><time>2026-04-28T09:04:03.707Z</time></trkpt><trkpt lat="43.4450467" lon="11.55748"><ele>605.0</ele><time>2026-04-28T09:04:04.705Z</time></trkpt><trkpt lat="43.4449817" lon="11.5573783"><ele>605.0</ele><time>2026-04-28T09:04:05.705Z</time></trkpt><trkpt lat="43.4449117" lon="11.5573033"><ele>605.0</ele><time>2026-04-28T09:04:06.705Z</time></trkpt><trkpt lat="43.4448283" lon="11.55724"><ele>605.0</ele><time>2026-04-28T09:04:07.706Z</time></trkpt><trkpt lat="43.44471" lon="11.55719"><ele>605.0</ele><time>2026-04-28T09:04:08.704Z</time></trkpt><trkpt lat="43.4446" lon="11.5571383"><ele>605.0</ele><time>2026-04-28T09:04:09.706Z</time></trkpt><trkpt lat="43.4445033" lon="11.55709"><ele>605.0</ele><time>2026-04-28T09:04:10.705Z</time></trkpt><trkpt lat="43.4444283" lon="11.5570567"><ele>605.0</ele><time>2026-04-28T09:04:11.704Z</time></trkpt><trkpt lat="43.44436" lon="11.5570267"><ele>605.0</ele><time>2026-04-28T09:04:12.705Z</time></trkpt><trkpt lat="43.4442933" lon="11.5570117"><ele>605.0</ele><time>2026-04-28T09:04:14.703Z</time></trkpt><trkpt lat="43.4441767" lon="11.5570283"><ele>605.0</ele><time>2026-04-28T09:04:16.704Z</time></trkpt><trkpt lat="43.4440817" lon="11.5570533"><ele>605.0</ele><time>2026-04-28T09:04:17.704Z</time></trkpt><trkpt lat="43.443955" lon="11.5571033"><ele>605.0</ele><time>2026-04-28T09:04:18.706Z</time></trkpt><trkpt lat="43.44385" lon="11.5571483"><ele>605.0</ele><time>2026-04-28T09:04:19.705Z</time></trkpt><trkpt lat="43.4437617" lon="11.557205"><ele>605.0</ele><time>2026-04-28T09:04:20.705Z</time></trkpt><trkpt lat="43.4436833" lon="11.55726"><ele>604.8333333333333</ele><time>2026-04-28T09:04:21.706Z</time></trkpt><trkpt lat="43.4436017" lon="11.55732"><ele>604.6666666666666</ele><time>2026-04-28T09:04:22.706Z</time></trkpt><trkpt lat="43.443535" lon="11.5573833"><ele>604.5</ele><time>2026-04-28T09:04:23.707Z</time></trkpt><trkpt lat="43.4434633" lon="11.55745"><ele>604.3333333333334</ele><time>2026-04-28T09:04:24.705Z</time></trkpt><trkpt lat="43.4433967" lon="11.5575117"><ele>604.1666666666667</ele><time>2026-04-28T09:04:25.706Z</time></trkpt><trkpt lat="43.4433467" lon="11.5575717"><ele>604.0</ele><time>2026-04-28T09:04:26.705Z</time></trkpt><trkpt lat="43.4432783" lon="11.55769"><ele>604.0</ele><time>2026-04-28T09:04:28.706Z</time></trkpt><trkpt lat="43.4432433" lon="11.557775"><ele>604.0</ele><time>2026-04-28T09:04:29.705Z</time></trkpt><trkpt lat="43.4431967" lon="11.5579467"><ele>604.0</ele><time>2026-04-28T09:04:31.707Z</time></trkpt><trkpt lat="43.4431617" lon="11.5580417"><ele>604.0</ele><time>2026-04-28T09:04:33.708Z</time></trkpt><trkpt lat="43.4432717" lon="11.5580317"><ele>604.0</ele><time>2026-04-28T09:04:35.705Z</time></trkpt><trkpt lat="43.4433067" lon="11.557855"><ele>604.0</ele><time>2026-04-28T09:04:37.707Z</time></trkpt><trkpt lat="43.4433333" lon="11.5577633"><ele>604.0</ele><time>2026-04-28T09:04:38.705Z</time></trkpt><trkpt lat="43.4433867" lon="11.5576017"><ele>604.0</ele><time>2026-04-28T09:04:40.706Z</time></trkpt><trkpt lat="43.4434767" lon="11.557455"><ele>604.0</ele><time>2026-04-28T09:04:42.707Z</time></trkpt><trkpt lat="43.4435717" lon="11.5573867"><ele>604.0</ele><time>2026-04-28T09:04:43.706Z</time></trkpt><trkpt lat="43.44369" lon="11.5573"><ele>604.0</ele><time>2026-04-28T09:04:44.705Z</time></trkpt><trkpt lat="43.4437967" lon="11.5572417"><ele>604.0</ele><time>2026-04-28T09:04:45.705Z</time></trkpt><trkpt lat="43.44389" lon="11.5571867"><ele>604.0</ele><time>2026-04-28T09:04:46.705Z</time></trkpt><trkpt lat="43.4439833" lon="11.5571417"><ele>604.0</ele><time>2026-04-28T09:04:47.704Z</time></trkpt><trkpt lat="43.4440617" lon="11.557075"><ele>604.0</ele><time>2026-04-28T09:04:48.705Z</time></trkpt><trkpt lat="43.4441467" lon="11.557005"><ele>605.8</ele><time>2026-04-28T09:04:49.706Z</time></trkpt><trkpt lat="43.44422" lon="11.5569"><ele>607.5999999999999</ele><time>2026-04-28T09:04:50.706Z</time></trkpt><trkpt lat="43.4442633" lon="11.5567817"><ele>609.4</ele><time>2026-04-28T09:04:51.707Z</time></trkpt><trkpt lat="43.4442933" lon="11.5566617"><ele>611.1999999999999</ele><time>2026-04-28T09:04:52.706Z</time></trkpt><trkpt lat="43.4443183" lon="11.5565233"><ele>613.0</ele><time>2026-04-28T09:04:53.704Z</time></trkpt><trkpt lat="43.4443367" lon="11.556385"><ele>612.25</ele><time>2026-04-28T09:04:54.705Z</time></trkpt><trkpt lat="43.44436" lon="11.5561917"><ele>611.5</ele><time>2026-04-28T09:04:55.705Z</time></trkpt><trkpt lat="43.4443867" lon="11.5560383"><ele>610.75</ele><time>2026-04-28T09:04:56.705Z</time></trkpt><trkpt lat="43.444415" lon="11.5558617"><ele>610.0</ele><time>2026-04-28T09:04:57.705Z</time></trkpt><trkpt lat="43.444415" lon="11.555725"><ele>610.0</ele><time>2026-04-28T09:04:58.706Z</time></trkpt><trkpt lat="43.444385" lon="11.55558"><ele>610.0</ele><time>2026-04-28T09:04:59.706Z</time></trkpt><trkpt lat="43.4443333" lon="11.5554467"><ele>610.0</ele><time>2026-04-28T09:05:00.705Z</time></trkpt><trkpt lat="43.4442783" lon="11.555295"><ele>610.0</ele><time>2026-04-28T09:05:01.706Z</time></trkpt><trkpt lat="43.444215" lon="11.55513"><ele>607.5</ele><time>2026-04-28T09:05:02.705Z</time></trkpt><trkpt lat="43.44415" lon="11.5549633"><ele>605.0</ele><time>2026-04-28T09:05:03.707Z</time></trkpt><trkpt lat="43.444085" lon="11.5548083"><ele>602.5</ele><time>2026-04-28T09:05:04.707Z</time></trkpt><trkpt lat="43.444025" lon="11.5546617"><ele>600.0</ele><time>2026-04-28T09:05:05.705Z</time></trkpt><trkpt lat="43.4439717" lon="11.55452"><ele>598.1666666666666</ele><time>2026-04-28T09:05:06.705Z</time></trkpt><trkpt lat="43.4439183" lon="11.5543867"><ele>596.3333333333334</ele><time>2026-04-28T09:05:07.706Z</time></trkpt><trkpt lat="43.4438667" lon="11.5542567"><ele>594.5</ele><time>2026-04-28T09:05:08.709Z</time></trkpt><trkpt lat="43.4438317" lon="11.55415"><ele>592.6666666666667</ele><time>2026-04-28T09:05:09.706Z</time></trkpt><trkpt lat="43.443815" lon="11.55406"><ele>590.8333333333334</ele><time>2026-04-28T09:05:10.706Z</time></trkpt><trkpt lat="43.4438167" lon="11.5539733"><ele>589.0</ele><time>2026-04-28T09:05:11.708Z</time></trkpt><trkpt lat="43.4438217" lon="11.5538267"><ele>589.0</ele><time>2026-04-28T09:05:13.706Z</time></trkpt><trkpt lat="43.443895" lon="11.5537267"><ele>589.0</ele><time>2026-04-28T09:05:14.705Z</time></trkpt><trkpt lat="43.4439267" lon="11.5536467"><ele>589.0</ele><time>2026-04-28T09:05:15.706Z</time></trkpt><trkpt lat="43.4439617" lon="11.5535567"><ele>589.0</ele><time>2026-04-28T09:05:16.705Z</time></trkpt><trkpt lat="43.4440817" lon="11.5534233"><ele>589.0</ele><time>2026-04-28T09:05:17.704Z</time></trkpt><trkpt lat="43.4441267" lon="11.5532867"><ele>588.8333333333334</ele><time>2026-04-28T09:05:18.706Z</time></trkpt><trkpt lat="43.4441367" lon="11.5531833"><ele>588.6666666666667</ele><time>2026-04-28T09:05:19.705Z</time></trkpt><trkpt lat="43.4441667" lon="11.55307"><ele>588.5</ele><time>2026-04-28T09:05:20.705Z</time></trkpt><trkpt lat="43.444195" lon="11.5529717"><ele>588.3333333333334</ele><time>2026-04-28T09:05:21.706Z</time></trkpt><trkpt lat="43.4442767" lon="11.5528733"><ele>588.1666666666666</ele><time>2026-04-28T09:05:22.705Z</time></trkpt><trkpt lat="43.4443533" lon="11.5528033"><ele>588.0</ele><time>2026-04-28T09:05:23.704Z</time></trkpt><trkpt lat="43.4444333" lon="11.5527533"><ele>586.1999999999999</ele><time>2026-04-28T09:05:24.706Z</time></trkpt><trkpt lat="43.44451" lon="11.5527317"><ele>584.4</ele><time>2026-04-28T09:05:25.706Z</time></trkpt><trkpt lat="43.4445917" lon="11.552735"><ele>582.5999999999999</ele><time>2026-04-28T09:05:26.705Z</time></trkpt><trkpt lat="43.44469" lon="11.55278"><ele>580.8</ele><time>2026-04-28T09:05:27.708Z</time></trkpt><trkpt lat="43.4447883" lon="11.552855"><ele>579.0</ele><time>2026-04-28T09:05:28.705Z</time></trkpt><trkpt lat="43.4449033" lon="11.5529367"><ele>577.0</ele><time>2026-04-28T09:05:29.7Z</time></trkpt><trkpt lat="43.4450283" lon="11.5529933"><ele>575.0</ele><time>2026-04-28T09:05:30.705Z</time></trkpt><trkpt lat="43.44517" lon="11.5530433"><ele>573.0</ele><time>2026-04-28T09:05:31.705Z</time></trkpt><trkpt lat="43.445325" lon="11.5531133"><ele>571.0</ele><time>2026-04-28T09:05:32.705Z</time></trkpt><trkpt lat="43.4454833" lon="11.5532083"><ele>570.0</ele><time>2026-04-28T09:05:33.706Z</time></trkpt><trkpt lat="43.4456267" lon="11.553305"><ele>569.0</ele><time>2026-04-28T09:05:34.706Z</time></trkpt><trkpt lat="43.4457617" lon="11.55341"><ele>568.0</ele><time>2026-04-28T09:05:35.705Z</time></trkpt><trkpt lat="43.445885" lon="11.5535183"><ele>568.0</ele><time>2026-04-28T09:05:36.705Z</time></trkpt><trkpt lat="43.4459983" lon="11.553625"><ele>568.0</ele><time>2026-04-28T09:05:37.706Z</time></trkpt><trkpt lat="43.4460967" lon="11.5537283"><ele>568.0</ele><time>2026-04-28T09:05:38.704Z</time></trkpt><trkpt lat="43.4461967" lon="11.5538283"><ele>568.0</ele><time>2026-04-28T09:05:39.707Z</time></trkpt><trkpt lat="43.4463033" lon="11.553915"><ele>567.5</ele><time>2026-04-28T09:05:40.705Z</time></trkpt><trkpt lat="43.4464167" lon="11.5539917"><ele>567.0</ele><time>2026-04-28T09:05:41.705Z</time></trkpt><trkpt lat="43.4465483" lon="11.55406"><ele>566.5</ele><time>2026-04-28T09:05:42.706Z</time></trkpt><trkpt lat="43.4466867" lon="11.5541183"><ele>566.0</ele><time>2026-04-28T09:05:43.704Z</time></trkpt><trkpt lat="43.4468383" lon="11.5541767"><ele>566.0</ele><time>2026-04-28T09:05:44.705Z</time></trkpt><trkpt lat="43.4469967" lon="11.55423"><ele>566.0</ele><time>2026-04-28T09:05:45.705Z</time></trkpt><trkpt lat="43.447155" lon="11.55429"><ele>566.0</ele><time>2026-04-28T09:05:46.706Z</time></trkpt><trkpt lat="43.4473083" lon="11.5543567"><ele>565.3333333333333</ele><time>2026-04-28T09:05:47.706Z</time></trkpt><trkpt lat="43.4474583" lon="11.5544267"><ele>564.6666666666666</ele><time>2026-04-28T09:05:48.705Z</time></trkpt><trkpt lat="43.447605" lon="11.5544983"><ele>564.0</ele><time>2026-04-28T09:05:49.706Z</time></trkpt><trkpt lat="43.4477483" lon="11.554575"><ele>563.25</ele><time>2026-04-28T09:05:50.705Z</time></trkpt><trkpt lat="43.447885" lon="11.5546483"><ele>562.5</ele><time>2026-04-28T09:05:51.706Z</time></trkpt><trkpt lat="43.4480117" lon="11.5547117"><ele>561.75</ele><time>2026-04-28T09:05:52.705Z</time></trkpt><trkpt lat="43.4481383" lon="11.554785"><ele>561.0</ele><time>2026-04-28T09:05:53.704Z</time></trkpt><trkpt lat="43.4482517" lon="11.5548333"><ele>561.0</ele><time>2026-04-28T09:05:54.706Z</time></trkpt><trkpt lat="43.44837" lon="11.554855"><ele>561.0</ele><time>2026-04-28T09:05:55.705Z</time></trkpt><trkpt lat="43.4484933" lon="11.55484"><ele>561.0</ele><time>2026-04-28T09:05:56.705Z</time></trkpt><trkpt lat="43.448605" lon="11.5548083"><ele>561.0</ele><time>2026-04-28T09:05:57.706Z</time></trkpt><trkpt lat="43.4487033" lon="11.5547783"><ele>560.2</ele><time>2026-04-28T09:05:58.706Z</time></trkpt><trkpt lat="43.4488017" lon="11.5547633"><ele>559.4000000000001</ele><time>2026-04-28T09:05:59.706Z</time></trkpt><trkpt lat="43.448905" lon="11.5547683"><ele>558.6</ele><time>2026-04-28T09:06:00.705Z</time></trkpt><trkpt lat="43.4490017" lon="11.5547867"><ele>557.8000000000001</ele><time>2026-04-28T09:06:01.706Z</time></trkpt><trkpt lat="43.4490933" lon="11.5548183"><ele>557.0</ele><time>2026-04-28T09:06:02.705Z</time></trkpt><trkpt lat="43.4491867" lon="11.5548433"><ele>557.0</ele><time>2026-04-28T09:06:03.705Z</time></trkpt><trkpt lat="43.44928" lon="11.55487"><ele>557.0</ele><time>2026-04-28T09:06:04.705Z</time></trkpt><trkpt lat="43.44938" lon="11.5549017"><ele>557.0</ele><time>2026-04-28T09:06:05.705Z</time></trkpt><trkpt lat="43.4494767" lon="11.5549417"><ele>557.0</ele><time>2026-04-28T09:06:06.706Z</time></trkpt><trkpt lat="43.4495733" lon="11.5549817"><ele>557.0</ele><time>2026-04-28T09:06:07.706Z</time></trkpt><trkpt lat="43.4496567" lon="11.5550083"><ele>555.0</ele><time>2026-04-28T09:06:08.705Z</time></trkpt><trkpt lat="43.44974" lon="11.555"><ele>553.0</ele><time>2026-04-28T09:06:09.706Z</time></trkpt><trkpt lat="43.4498617" lon="11.554995"><ele>551.0</ele><time>2026-04-28T09:06:10.71Z</time></trkpt><trkpt lat="43.4499333" lon="11.5549283"><ele>549.0</ele><time>2026-04-28T09:06:11.705Z</time></trkpt><trkpt lat="43.4499933" lon="11.5548633"><ele>547.0</ele><time>2026-04-28T09:06:12.705Z</time></trkpt><trkpt lat="43.450045" lon="11.5548133"><ele>545.0</ele><time>2026-04-28T09:06:13.706Z</time></trkpt><trkpt lat="43.4501533" lon="11.5547983"><ele>545.0</ele><time>2026-04-28T09:06:15.705Z</time></trkpt><trkpt lat="43.45025" lon="11.5548433"><ele>545.0</ele><time>2026-04-28T09:06:17.705Z</time></trkpt><trkpt lat="43.4503267" lon="11.5548467"><ele>545.0</ele><time>2026-04-28T09:06:19.706Z</time></trkpt><trkpt lat="43.4503933" lon="11.5547683"><ele>545.0</ele><time>2026-04-28T09:06:21.705Z</time></trkpt><trkpt lat="43.4504183" lon="11.5546233"><ele>545.0</ele><time>2026-04-28T09:06:23.705Z</time></trkpt><trkpt lat="43.4504283" lon="11.5545183"><ele>543.1666666666666</ele><time>2026-04-28T09:06:24.705Z</time></trkpt><trkpt lat="43.4504283" lon="11.5544067"><ele>541.3333333333333</ele><time>2026-04-28T09:06:25.707Z</time></trkpt><trkpt lat="43.4504367" lon="11.55431"><ele>539.5</ele><time>2026-04-28T09:06:26.705Z</time></trkpt><trkpt lat="43.450465" lon="11.5542133"><ele>537.6666666666666</ele><time>2026-04-28T09:06:27.71Z</time></trkpt><trkpt lat="43.450485" lon="11.5541183"><ele>535.8333333333334</ele><time>2026-04-28T09:06:28.706Z</time></trkpt><trkpt lat="43.450505" lon="11.5539967"><ele>534.0</ele><time>2026-04-28T09:06:29.705Z</time></trkpt><trkpt lat="43.4505433" lon="11.5539267"><ele>533.0</ele><time>2026-04-28T09:06:30.705Z</time></trkpt><trkpt lat="43.4506317" lon="11.5538517"><ele>532.0</ele><time>2026-04-28T09:06:32.706Z</time></trkpt><trkpt lat="43.4507567" lon="11.5539317"><ele>531.0</ele><time>2026-04-28T09:06:34.705Z</time></trkpt><trkpt lat="43.450825" lon="11.5539833"><ele>530.0</ele><time>2026-04-28T09:06:35.704Z</time></trkpt><trkpt lat="43.450895" lon="11.5540133"><ele>529.0</ele><time>2026-04-28T09:06:36.704Z</time></trkpt><trkpt lat="43.4509617" lon="11.55404"><ele>529.0</ele><time>2026-04-28T09:06:37.705Z</time></trkpt><trkpt lat="43.4510317" lon="11.5540633"><ele>529.0</ele><time>2026-04-28T09:06:38.704Z</time></trkpt><trkpt lat="43.4510967" lon="11.5540833"><ele>529.0</ele><time>2026-04-28T09:06:39.707Z</time></trkpt><trkpt lat="43.4511717" lon="11.5541167"><ele>529.0</ele><time>2026-04-28T09:06:40.706Z</time></trkpt><trkpt lat="43.4512533" lon="11.5541583"><ele>529.0</ele><time>2026-04-28T09:06:41.706Z</time></trkpt><trkpt lat="43.4513367" lon="11.5542067"><ele>529.0</ele><time>2026-04-28T09:06:42.706Z</time></trkpt><trkpt lat="43.4514183" lon="11.5542583"><ele>529.1666666666667</ele><time>2026-04-28T09:06:43.705Z</time></trkpt><trkpt lat="43.4515017" lon="11.5542967"><ele>529.3333333333334</ele><time>2026-04-28T09:06:44.709Z</time></trkpt><trkpt lat="43.45159" lon="11.55433"><ele>529.5</ele><time>2026-04-28T09:06:45.707Z</time></trkpt><trkpt lat="43.45167" lon="11.5543617"><ele>529.6666666666666</ele><time>2026-04-28T09:06:46.706Z</time></trkpt><trkpt lat="43.45174" lon="11.5543917"><ele>529.8333333333333</ele><time>2026-04-28T09:06:47.704Z</time></trkpt><trkpt lat="43.451835" lon="11.5544267"><ele>530.0</ele><time>2026-04-28T09:06:49.705Z</time></trkpt><trkpt lat="43.4518383" lon="11.5545217"><ele>530.0</ele><time>2026-04-28T09:06:54.705Z</time></trkpt><trkpt lat="43.45176" lon="11.55448"><ele>530.0</ele><time>2026-04-28T09:06:56.706Z</time></trkpt><trkpt lat="43.4516817" lon="11.554415"><ele>530.0</ele><time>2026-04-28T09:06:57.705Z</time></trkpt><trkpt lat="43.451565" lon="11.5543517"><ele>530.0</ele><time>2026-04-28T09:06:58.706Z</time></trkpt><trkpt lat="43.4514333" lon="11.55427"><ele>530.0</ele><time>2026-04-28T09:06:59.704Z</time></trkpt><trkpt lat="43.4512933" lon="11.5541817"><ele>529.75</ele><time>2026-04-28T09:07:00.707Z</time></trkpt><trkpt lat="43.4511683" lon="11.55412"><ele>529.5</ele><time>2026-04-28T09:07:01.706Z</time></trkpt><trkpt lat="43.4510433" lon="11.5540783"><ele>529.25</ele><time>2026-04-28T09:07:02.706Z</time></trkpt><trkpt lat="43.4509217" lon="11.5540317"><ele>529.0</ele><time>2026-04-28T09:07:03.705Z</time></trkpt><trkpt lat="43.4508117" lon="11.5539733"><ele>529.0</ele><time>2026-04-28T09:07:04.705Z</time></trkpt><trkpt lat="43.4507233" lon="11.553915"><ele>529.0</ele><time>2026-04-28T09:07:05.705Z</time></trkpt><trkpt lat="43.4506517" lon="11.553875"><ele>529.0</ele><time>2026-04-28T09:07:06.706Z</time></trkpt><trkpt lat="43.4505783" lon="11.55387"><ele>529.0</ele><time>2026-04-28T09:07:07.706Z</time></trkpt><trkpt lat="43.4505133" lon="11.553895"><ele>529.0</ele><time>2026-04-28T09:07:08.704Z</time></trkpt><trkpt lat="43.4504583" lon="11.5539383"><ele>529.0</ele><time>2026-04-28T09:07:09.707Z</time></trkpt><trkpt lat="43.4504067" lon="11.5540033"><ele>530.0</ele><time>2026-04-28T09:07:10.704Z</time></trkpt><trkpt lat="43.4503683" lon="11.5540833"><ele>531.0</ele><time>2026-04-28T09:07:11.705Z</time></trkpt><trkpt lat="43.4503233" lon="11.5541667"><ele>532.0</ele><time>2026-04-28T09:07:12.705Z</time></trkpt><trkpt lat="43.4502983" lon="11.5542633"><ele>533.0</ele><time>2026-04-28T09:07:13.705Z</time></trkpt><trkpt lat="43.4502983" lon="11.554435"><ele>534.0</ele><time>2026-04-28T09:07:14.705Z</time></trkpt><trkpt lat="43.4503233" lon="11.5546667"><ele>535.8333333333334</ele><time>2026-04-28T09:07:16.705Z</time></trkpt><trkpt lat="43.45028" lon="11.554785"><ele>537.6666666666666</ele><time>2026-04-28T09:07:18.704Z</time></trkpt><trkpt lat="43.4501633" lon="11.5548017"><ele>539.5</ele><time>2026-04-28T09:07:20.706Z</time></trkpt><trkpt lat="43.4500933" lon="11.5548083"><ele>541.3333333333333</ele><time>2026-04-28T09:07:21.706Z</time></trkpt><trkpt lat="43.4500233" lon="11.5548367"><ele>543.1666666666666</ele><time>2026-04-28T09:07:22.703Z</time></trkpt><trkpt lat="43.4499533" lon="11.55488"><ele>545.0</ele><time>2026-04-28T09:07:23.706Z</time></trkpt><trkpt lat="43.449865" lon="11.5549417"><ele>545.0</ele><time>2026-04-28T09:07:24.706Z</time></trkpt><trkpt lat="43.449775" lon="11.5550033"><ele>545.0</ele><time>2026-04-28T09:07:25.706Z</time></trkpt><trkpt lat="43.4496733" lon="11.5550367"><ele>545.0</ele><time>2026-04-28T09:07:26.705Z</time></trkpt><trkpt lat="43.4495817" lon="11.5550383"><ele>545.0</ele><time>2026-04-28T09:07:27.706Z</time></trkpt><trkpt lat="43.4494083" lon="11.5549483"><ele>549.0</ele><time>2026-04-28T09:07:28.705Z</time></trkpt><trkpt lat="43.4492517" lon="11.5548733"><ele>553.0</ele><time>2026-04-28T09:07:29.705Z</time></trkpt><trkpt lat="43.4490917" lon="11.5548117"><ele>557.0</ele><time>2026-04-28T09:07:30.706Z</time></trkpt><trkpt lat="43.44894" lon="11.55477"><ele>557.0</ele><time>2026-04-28T09:07:31.705Z</time></trkpt><trkpt lat="43.4488067" lon="11.55475"><ele>557.0</ele><time>2026-04-28T09:07:32.706Z</time></trkpt><trkpt lat="43.4486683" lon="11.5547567"><ele>557.0</ele><time>2026-04-28T09:07:33.709Z</time></trkpt><trkpt lat="43.44854" lon="11.5547767"><ele>557.0</ele><time>2026-04-28T09:07:34.705Z</time></trkpt><trkpt lat="43.44842" lon="11.5547983"><ele>558.0</ele><time>2026-04-28T09:07:35.704Z</time></trkpt><trkpt lat="43.4483083" lon="11.5548067"><ele>559.0</ele><time>2026-04-28T09:07:36.706Z</time></trkpt><trkpt lat="43.4481867" lon="11.5548017"><ele>560.0</ele><time>2026-04-28T09:07:37.706Z</time></trkpt><trkpt lat="43.4480583" lon="11.554765"><ele>561.0</ele><time>2026-04-28T09:07:38.703Z</time></trkpt><trkpt lat="43.4479333" lon="11.554715"><ele>561.75</ele><time>2026-04-28T09:07:39.707Z</time></trkpt><trkpt lat="43.447795" lon="11.5546467"><ele>562.5</ele><time>2026-04-28T09:07:40.706Z</time></trkpt><trkpt lat="43.447655" lon="11.5545717"><ele>563.25</ele><time>2026-04-28T09:07:41.7Z</time></trkpt><trkpt lat="43.4475183" lon="11.554495"><ele>564.0</ele><time>2026-04-28T09:07:42.704Z</time></trkpt><trkpt lat="43.4473833" lon="11.554415"><ele>564.0</ele><time>2026-04-28T09:07:43.706Z</time></trkpt><trkpt lat="43.4472333" lon="11.5543317"><ele>564.0</ele><time>2026-04-28T09:07:44.703Z</time></trkpt><trkpt lat="43.4470833" lon="11.55426"><ele>564.0</ele><time>2026-04-28T09:07:45.705Z</time></trkpt><trkpt lat="43.4469283" lon="11.5541917"><ele>564.5</ele><time>2026-04-28T09:07:46.705Z</time></trkpt><trkpt lat="43.44678" lon="11.5541317"><ele>565.0</ele><time>2026-04-28T09:07:47.706Z</time></trkpt><trkpt lat="43.4466467" lon="11.5540783"><ele>565.5</ele><time>2026-04-28T09:07:48.706Z</time></trkpt><trkpt lat="43.4465467" lon="11.554035"><ele>566.0</ele><time>2026-04-28T09:07:49.705Z</time></trkpt><trkpt lat="43.4464333" lon="11.5539717"><ele>566.0</ele><time>2026-04-28T09:07:50.703Z</time></trkpt><trkpt lat="43.4463233" lon="11.5538983"><ele>566.0</ele><time>2026-04-28T09:07:51.707Z</time></trkpt><trkpt lat="43.4462217" lon="11.553815"><ele>566.0</ele><time>2026-04-28T09:07:52.705Z</time></trkpt><trkpt lat="43.446125" lon="11.55371"><ele>566.0</ele><time>2026-04-28T09:07:53.704Z</time></trkpt><trkpt lat="43.4460333" lon="11.5535933"><ele>566.5</ele><time>2026-04-28T09:07:54.705Z</time></trkpt><trkpt lat="43.44593" lon="11.5534817"><ele>567.0</ele><time>2026-04-28T09:07:55.704Z</time></trkpt><trkpt lat="43.4458117" lon="11.5533817"><ele>567.5</ele><time>2026-04-28T09:07:56.703Z</time></trkpt><trkpt lat="43.445685" lon="11.55328"><ele>568.0</ele><time>2026-04-28T09:07:57.707Z</time></trkpt><trkpt lat="43.445555" lon="11.5531917"><ele>568.75</ele><time>2026-04-28T09:07:58.704Z</time></trkpt><trkpt lat="43.4454233" lon="11.5531183"><ele>569.5</ele><time>2026-04-28T09:07:59.705Z</time></trkpt><trkpt lat="43.445295" lon="11.55306"><ele>570.25</ele><time>2026-04-28T09:08:00.705Z</time></trkpt><trkpt lat="43.4451767" lon="11.553015"><ele>571.0</ele><time>2026-04-28T09:08:01.702Z</time></trkpt><trkpt lat="43.4450633" lon="11.5529683"><ele>571.0</ele><time>2026-04-28T09:08:02.705Z</time></trkpt><trkpt lat="43.44496" lon="11.5529033"><ele>571.0</ele><time>2026-04-28T09:08:03.706Z</time></trkpt><trkpt lat="43.4448683" lon="11.5528267"><ele>571.0</ele><time>2026-04-28T09:08:04.706Z</time></trkpt><trkpt lat="43.4447833" lon="11.5527583"><ele>571.0</ele><time>2026-04-28T09:08:05.705Z</time></trkpt><trkpt lat="43.4447" lon="11.55272"><ele>571.0</ele><time>2026-04-28T09:08:06.706Z</time></trkpt><trkpt lat="43.4446133" lon="11.5527083"><ele>572.6</ele><time>2026-04-28T09:08:07.704Z</time></trkpt><trkpt lat="43.44451" lon="11.55272"><ele>574.2</ele><time>2026-04-28T09:08:08.706Z</time></trkpt><trkpt lat="43.4444133" lon="11.5527683"><ele>575.8</ele><time>2026-04-28T09:08:09.707Z</time></trkpt><trkpt lat="43.4443267" lon="11.55284"><ele>577.4</ele><time>2026-04-28T09:08:10.705Z</time></trkpt><trkpt lat="43.444255" lon="11.5529183"><ele>579.0</ele><time>2026-04-28T09:08:11.704Z</time></trkpt><trkpt lat="43.4441983" lon="11.5530017"><ele>580.8</ele><time>2026-04-28T09:08:12.706Z</time></trkpt><trkpt lat="43.4441717" lon="11.5531217"><ele>582.5999999999999</ele><time>2026-04-28T09:08:13.707Z</time></trkpt><trkpt lat="43.444155" lon="11.5532483"><ele>584.4</ele><time>2026-04-28T09:08:14.706Z</time></trkpt><trkpt lat="43.4441433" lon="11.5533767"><ele>586.1999999999999</ele><time>2026-04-28T09:08:15.706Z</time></trkpt><trkpt lat="43.4441233" lon="11.5534933"><ele>588.0</ele><time>2026-04-28T09:08:16.705Z</time></trkpt><trkpt lat="43.4440917" lon="11.55361"><ele>588.1666666666666</ele><time>2026-04-28T09:08:17.705Z</time></trkpt><trkpt lat="43.4440433" lon="11.55372"><ele>588.3333333333334</ele><time>2026-04-28T09:08:18.706Z</time></trkpt><trkpt lat="43.444" lon="11.5538033"><ele>588.5</ele><time>2026-04-28T09:08:19.708Z</time></trkpt><trkpt lat="43.4439267" lon="11.5539383"><ele>588.6666666666667</ele><time>2026-04-28T09:08:21.707Z</time></trkpt><trkpt lat="43.4438833" lon="11.554025"><ele>588.8333333333334</ele><time>2026-04-28T09:08:22.707Z</time></trkpt><trkpt lat="43.4438583" lon="11.5541067"><ele>589.0</ele><time>2026-04-28T09:08:23.705Z</time></trkpt><trkpt lat="43.4438667" lon="11.554265"><ele>589.0</ele><time>2026-04-28T09:08:25.708Z</time></trkpt><trkpt lat="43.4439283" lon="11.5543533"><ele>589.0</ele><time>2026-04-28T09:08:26.706Z</time></trkpt><trkpt lat="43.4440133" lon="11.5545017"><ele>589.0</ele><time>2026-04-28T09:08:27.708Z</time></trkpt><trkpt lat="43.4441133" lon="11.5546567"><ele>589.0</ele><time>2026-04-28T09:08:28.706Z</time></trkpt><trkpt lat="43.444185" lon="11.5548017"><ele>592.6666666666667</ele><time>2026-04-28T09:08:29.706Z</time></trkpt><trkpt lat="43.4442317" lon="11.5550783"><ele>596.3333333333334</ele><time>2026-04-28T09:08:30.707Z</time></trkpt><trkpt lat="43.4442933" lon="11.5552333"><ele>600.0</ele><time>2026-04-28T09:08:31.707Z</time></trkpt><trkpt lat="43.4443683" lon="11.5553633"><ele>602.0</ele><time>2026-04-28T09:08:32.706Z</time></trkpt><trkpt lat="43.4444417" lon="11.5554983"><ele>604.0</ele><time>2026-04-28T09:08:33.708Z</time></trkpt><trkpt lat="43.4444983" lon="11.555605"><ele>606.0</ele><time>2026-04-28T09:08:34.706Z</time></trkpt><trkpt lat="43.4445467" lon="11.555725"><ele>608.0</ele><time>2026-04-28T09:08:35.706Z</time></trkpt><trkpt lat="43.4445683" lon="11.5558417"><ele>610.0</ele><time>2026-04-28T09:08:36.707Z</time></trkpt><trkpt lat="43.4445767" lon="11.5559767"><ele>610.0</ele><time>2026-04-28T09:08:37.706Z</time></trkpt><trkpt lat="43.4445717" lon="11.556135"><ele>610.0</ele><time>2026-04-28T09:08:38.707Z</time></trkpt><trkpt lat="43.4445533" lon="11.5562967"><ele>610.0</ele><time>2026-04-28T09:08:39.71Z</time></trkpt><trkpt lat="43.444525" lon="11.5564467"><ele>610.0</ele><time>2026-04-28T09:08:40.707Z</time></trkpt><trkpt lat="43.444485" lon="11.556585"><ele>610.5</ele><time>2026-04-28T09:08:41.706Z</time></trkpt><trkpt lat="43.4444417" lon="11.556695"><ele>611.0</ele><time>2026-04-28T09:08:42.707Z</time></trkpt><trkpt lat="43.4444067" lon="11.5567967"><ele>611.5</ele><time>2026-04-28T09:08:43.707Z</time></trkpt><trkpt lat="43.4443617" lon="11.5568917"><ele>612.0</ele><time>2026-04-28T09:08:44.709Z</time></trkpt><trkpt lat="43.4443133" lon="11.5569933"><ele>612.5</ele><time>2026-04-28T09:08:46.707Z</time></trkpt><trkpt lat="43.4443167" lon="11.5570933"><ele>613.0</ele><time>2026-04-28T09:08:48.707Z</time></trkpt><trkpt lat="43.44443" lon="11.557185"><ele>611.4</ele><time>2026-04-28T09:08:50.705Z</time></trkpt><trkpt lat="43.4444883" lon="11.5572417"><ele>609.8</ele><time>2026-04-28T09:08:51.709Z</time></trkpt><trkpt lat="43.444565" lon="11.557295"><ele>608.2</ele><time>2026-04-28T09:08:52.707Z</time></trkpt><trkpt lat="43.4446733" lon="11.557355"><ele>606.6</ele><time>2026-04-28T09:08:53.707Z</time></trkpt><trkpt lat="43.4447383" lon="11.557415"><ele>605.0</ele><time>2026-04-28T09:08:54.706Z</time></trkpt><trkpt lat="43.4448483" lon="11.55748"><ele>605.0</ele><time>2026-04-28T09:08:55.707Z</time></trkpt><trkpt lat="43.4449767" lon="11.5575683"><ele>605.0</ele><time>2026-04-28T09:08:56.707Z</time></trkpt><trkpt lat="43.445075" lon="11.5576933"><ele>605.0</ele><time>2026-04-28T09:08:57.709Z</time></trkpt><trkpt lat="43.4451683" lon="11.5578167"><ele>605.0</ele><time>2026-04-28T09:08:58.708Z</time></trkpt><trkpt lat="43.4452517" lon="11.5579233"><ele>605.25</ele><time>2026-04-28T09:08:59.708Z</time></trkpt><trkpt lat="43.4453317" lon="11.5580217"><ele>605.5</ele><time>2026-04-28T09:09:00.71Z</time></trkpt><trkpt lat="43.445415" lon="11.5581333"><ele>605.75</ele><time>2026-04-28T09:09:01.708Z</time></trkpt><trkpt lat="43.4454833" lon="11.5582617"><ele>606.0</ele><time>2026-04-28T09:09:02.704Z</time></trkpt><trkpt lat="43.4455433" lon="11.5584017"><ele>606.0</ele><time>2026-04-28T09:09:03.707Z</time></trkpt><trkpt lat="43.4455817" lon="11.55851"><ele>606.0</ele><time>2026-04-28T09:09:04.707Z</time></trkpt><trkpt lat="43.44561" lon="11.5586133"><ele>606.0</ele><time>2026-04-28T09:09:05.706Z</time></trkpt><trkpt lat="43.44565" lon="11.5587317"><ele>606.0</ele><time>2026-04-28T09:09:06.707Z</time></trkpt><trkpt lat="43.4456617" lon="11.5588267"><ele>606.0</ele><time>2026-04-28T09:09:07.707Z</time></trkpt><trkpt lat="43.445725" lon="11.5589717"><ele>605.5</ele><time>2026-04-28T09:09:09.706Z</time></trkpt><trkpt lat="43.4457833" lon="11.559025"><ele>605.0</ele><time>2026-04-28T09:09:10.706Z</time></trkpt><trkpt lat="43.4458517" lon="11.5590883"><ele>604.5</ele><time>2026-04-28T09:09:11.706Z</time></trkpt><trkpt lat="43.44592" lon="11.5591667"><ele>604.0</ele><time>2026-04-28T09:09:12.707Z</time></trkpt><trkpt lat="43.4459833" lon="11.5592533"><ele>603.5</ele><time>2026-04-28T09:09:13.707Z</time></trkpt><trkpt lat="43.446045" lon="11.5593333"><ele>603.0</ele><time>2026-04-28T09:09:14.703Z</time></trkpt><trkpt lat="43.4461167" lon="11.5594083"><ele>603.0</ele><time>2026-04-28T09:09:15.705Z</time></trkpt><trkpt lat="43.446175" lon="11.559445"><ele>603.0</ele><time>2026-04-28T09:09:16.706Z</time></trkpt><trkpt lat="43.4462783" lon="11.5595233"><ele>603.0</ele><time>2026-04-28T09:09:18.705Z</time></trkpt><trkpt lat="43.44634" lon="11.55958"><ele>603.0</ele><time>2026-04-28T09:09:19.707Z</time></trkpt><trkpt lat="43.4463817" lon="11.5596567"><ele>603.0</ele><time>2026-04-28T09:09:20.706Z</time></trkpt><trkpt lat="43.4464217" lon="11.5597633"><ele>603.0</ele><time>2026-04-28T09:09:21.706Z</time></trkpt><trkpt lat="43.4464683" lon="11.5598817"><ele>600.5</ele><time>2026-04-28T09:09:22.704Z</time></trkpt><trkpt lat="43.4465267" lon="11.5600033"><ele>598.0</ele><time>2026-04-28T09:09:23.704Z</time></trkpt><trkpt lat="43.4465983" lon="11.56012"><ele>595.5</ele><time>2026-04-28T09:09:24.705Z</time></trkpt><trkpt lat="43.4466867" lon="11.5602367"><ele>593.0</ele><time>2026-04-28T09:09:25.707Z</time></trkpt><trkpt lat="43.4467817" lon="11.5603633"><ele>591.5</ele><time>2026-04-28T09:09:26.705Z</time></trkpt><trkpt lat="43.446875" lon="11.5604983"><ele>590.0</ele><time>2026-04-28T09:09:27.706Z</time></trkpt><trkpt lat="43.44697" lon="11.5606433"><ele>588.5</ele><time>2026-04-28T09:09:28.704Z</time></trkpt><trkpt lat="43.4470617" lon="11.5607883"><ele>587.0</ele><time>2026-04-28T09:09:29.706Z</time></trkpt><trkpt lat="43.4471433" lon="11.5609167"><ele>586.6</ele><time>2026-04-28T09:09:30.705Z</time></trkpt><trkpt lat="43.4472117" lon="11.5610333"><ele>586.2</ele><time>2026-04-28T09:09:31.707Z</time></trkpt><trkpt lat="43.44728" lon="11.5611433"><ele>585.8</ele><time>2026-04-28T09:09:32.705Z</time></trkpt><trkpt lat="43.4473483" lon="11.56125"><ele>585.4</ele><time>2026-04-28T09:09:33.706Z</time></trkpt><trkpt lat="43.4474183" lon="11.5613583"><ele>585.0</ele><time>2026-04-28T09:09:34.706Z</time></trkpt><trkpt lat="43.4474783" lon="11.5614683"><ele>584.8</ele><time>2026-04-28T09:09:35.707Z</time></trkpt><trkpt lat="43.4475383" lon="11.5615883"><ele>584.6</ele><time>2026-04-28T09:09:36.704Z</time></trkpt><trkpt lat="43.4475867" lon="11.56171"><ele>584.4</ele><time>2026-04-28T09:09:37.706Z</time></trkpt><trkpt lat="43.447635" lon="11.56182"><ele>584.2</ele><time>2026-04-28T09:09:38.705Z</time></trkpt><trkpt lat="43.4476967" lon="11.5619267"><ele>584.0</ele><time>2026-04-28T09:09:39.707Z</time></trkpt><trkpt lat="43.44777" lon="11.5620333"><ele>582.6</ele><time>2026-04-28T09:09:40.705Z</time></trkpt><trkpt lat="43.4478417" lon="11.5621333"><ele>581.2</ele><time>2026-04-28T09:09:41.705Z</time></trkpt><trkpt lat="43.4479133" lon="11.5622367"><ele>579.8000000000001</ele><time>2026-04-28T09:09:42.705Z</time></trkpt><trkpt lat="43.4479833" lon="11.562335"><ele>578.4</ele><time>2026-04-28T09:09:43.706Z</time></trkpt><trkpt lat="43.4480483" lon="11.562435"><ele>577.0</ele><time>2026-04-28T09:09:44.705Z</time></trkpt><trkpt lat="43.4480933" lon="11.5625217"><ele>576.5</ele><time>2026-04-28T09:09:45.705Z</time></trkpt><trkpt lat="43.4481333" lon="11.5626083"><ele>576.0</ele><time>2026-04-28T09:09:46.704Z</time></trkpt><trkpt lat="43.4481483" lon="11.5626983"><ele>575.5</ele><time>2026-04-28T09:09:47.703Z</time></trkpt><trkpt lat="43.4481467" lon="11.5628583"><ele>575.0</ele><time>2026-04-28T09:09:49.706Z</time></trkpt><trkpt lat="43.4481683" lon="11.5629717"><ele>574.5</ele><time>2026-04-28T09:09:51.706Z</time></trkpt><trkpt lat="43.44818" lon="11.5630767"><ele>574.0</ele><time>2026-04-28T09:09:55.705Z</time></trkpt><trkpt lat="43.4481117" lon="11.563115"><ele>573.0</ele><time>2026-04-28T09:10:04.705Z</time></trkpt><trkpt lat="43.4480033" lon="11.5631617"><ele>572.0</ele><time>2026-04-28T09:10:07.706Z</time></trkpt><trkpt lat="43.4479367" lon="11.563195"><ele>571.0</ele><time>2026-04-28T09:10:08.706Z</time></trkpt><trkpt lat="43.4478733" lon="11.56322"><ele>570.0</ele><time>2026-04-28T09:10:09.705Z</time></trkpt><trkpt lat="43.447805" lon="11.5632267"><ele>569.0</ele><time>2026-04-28T09:10:10.714Z</time></trkpt><trkpt lat="43.4477217" lon="11.563205"><ele>568.0</ele><time>2026-04-28T09:10:11.705Z</time></trkpt><trkpt lat="43.447645" lon="11.5631583"><ele>568.0</ele><time>2026-04-28T09:10:12.707Z</time></trkpt><trkpt lat="43.44757" lon="11.5631217"><ele>568.0</ele><time>2026-04-28T09:10:13.706Z</time></trkpt><trkpt lat="43.4475033" lon="11.5631133"><ele>568.0</ele><time>2026-04-28T09:10:14.704Z</time></trkpt><trkpt lat="43.4474217" lon="11.5631267"><ele>568.0</ele><time>2026-04-28T09:10:15.707Z</time></trkpt><trkpt lat="43.44734" lon="11.5631517"><ele>568.0</ele><time>2026-04-28T09:10:16.705Z</time></trkpt><trkpt lat="43.4472583" lon="11.5631983"><ele>568.0</ele><time>2026-04-28T09:10:17.706Z</time></trkpt><trkpt lat="43.4472017" lon="11.5632717"><ele>568.0</ele><time>2026-04-28T09:10:18.706Z</time></trkpt><trkpt lat="43.4471517" lon="11.5633483"><ele>568.0</ele><time>2026-04-28T09:10:19.707Z</time></trkpt><trkpt lat="43.4471183" lon="11.5634233"><ele>568.0</ele><time>2026-04-28T09:10:20.706Z</time></trkpt><trkpt lat="43.44709" lon="11.5636133"><ele>568.0</ele><time>2026-04-28T09:10:22.705Z</time></trkpt><trkpt lat="43.4470817" lon="11.56376"><ele>568.0</ele><time>2026-04-28T09:10:23.704Z</time></trkpt><trkpt lat="43.44708" lon="11.56393"><ele>566.4</ele><time>2026-04-28T09:10:24.706Z</time></trkpt><trkpt lat="43.4470767" lon="11.564085"><ele>564.8</ele><time>2026-04-28T09:10:25.705Z</time></trkpt><trkpt lat="43.4470933" lon="11.5641983"><ele>563.2</ele><time>2026-04-28T09:10:26.7Z</time></trkpt><trkpt lat="43.447115" lon="11.56431"><ele>561.6</ele><time>2026-04-28T09:10:27.706Z</time></trkpt><trkpt lat="43.44714" lon="11.5644383"><ele>560.0</ele><time>2026-04-28T09:10:28.706Z</time></trkpt><trkpt lat="43.44717" lon="11.5645767"><ele>559.8</ele><time>2026-04-28T09:10:29.705Z</time></trkpt><trkpt lat="43.4472" lon="11.564705"><ele>559.6</ele><time>2026-04-28T09:10:30.705Z</time></trkpt><trkpt lat="43.447225" lon="11.5648383"><ele>559.4</ele><time>2026-04-28T09:10:31.706Z</time></trkpt><trkpt lat="43.4472383" lon="11.5649883"><ele>559.2</ele><time>2026-04-28T09:10:32.705Z</time></trkpt><trkpt lat="43.44725" lon="11.5651517"><ele>559.0</ele><time>2026-04-28T09:10:33.706Z</time></trkpt><trkpt lat="43.4472617" lon="11.5653083"><ele>558.8</ele><time>2026-04-28T09:10:34.705Z</time></trkpt><trkpt lat="43.447275" lon="11.565445"><ele>558.5999999999999</ele><time>2026-04-28T09:10:35.705Z</time></trkpt><trkpt lat="43.4472783" lon="11.56558"><ele>558.4</ele><time>2026-04-28T09:10:36.706Z</time></trkpt><trkpt lat="43.447275" lon="11.5657083"><ele>558.1999999999999</ele><time>2026-04-28T09:10:37.706Z</time></trkpt><trkpt lat="43.4472667" lon="11.5658267"><ele>558.0</ele><time>2026-04-28T09:10:38.708Z</time></trkpt><trkpt lat="43.447255" lon="11.5659283"><ele>558.0</ele><time>2026-04-28T09:10:39.707Z</time></trkpt><trkpt lat="43.44724" lon="11.5660233"><ele>558.0</ele><time>2026-04-28T09:10:40.706Z</time></trkpt><trkpt lat="43.4472333" lon="11.5661117"><ele>558.0</ele><time>2026-04-28T09:10:41.706Z</time></trkpt><trkpt lat="43.4472583" lon="11.5662633"><ele>558.0</ele><time>2026-04-28T09:10:43.705Z</time></trkpt><trkpt lat="43.447265" lon="11.5664033"><ele>558.0</ele><time>2026-04-28T09:10:45.705Z</time></trkpt><trkpt lat="43.44726" lon="11.5665283"><ele>558.0</ele><time>2026-04-28T09:10:47.705Z</time></trkpt><trkpt lat="43.4472817" lon="11.56667"><ele>557.0</ele><time>2026-04-28T09:10:49.706Z</time></trkpt><trkpt lat="43.447275" lon="11.5668283"><ele>556.0</ele><time>2026-04-28T09:10:51.706Z</time></trkpt><trkpt lat="43.4472467" lon="11.56693"><ele>555.0</ele><time>2026-04-28T09:10:52.705Z</time></trkpt><trkpt lat="43.4472167" lon="11.5670267"><ele>554.0</ele><time>2026-04-28T09:10:53.704Z</time></trkpt><trkpt lat="43.447175" lon="11.567215"><ele>553.0</ele><time>2026-04-28T09:10:55.705Z</time></trkpt><trkpt lat="43.447155" lon="11.5673083"><ele>550.6</ele><time>2026-04-28T09:10:56.705Z</time></trkpt><trkpt lat="43.4471233" lon="11.5673933"><ele>548.1999999999999</ele><time>2026-04-28T09:10:57.706Z</time></trkpt><trkpt lat="43.447065" lon="11.5675367"><ele>545.8</ele><time>2026-04-28T09:10:59.705Z</time></trkpt><trkpt lat="43.447025" lon="11.567705"><ele>543.4</ele><time>2026-04-28T09:11:01.705Z</time></trkpt><trkpt lat="43.4470117" lon="11.56786"><ele>541.0</ele><time>2026-04-28T09:11:03.706Z</time></trkpt><trkpt lat="43.4470017" lon="11.5679833"><ele>540.0</ele><time>2026-04-28T09:11:04.703Z</time></trkpt><trkpt lat="43.44699" lon="11.5680883"><ele>539.0</ele><time>2026-04-28T09:11:05.705Z</time></trkpt><trkpt lat="43.4469683" lon="11.5681883"><ele>538.0</ele><time>2026-04-28T09:11:06.705Z</time></trkpt><trkpt lat="43.446945" lon="11.56829"><ele>537.0</ele><time>2026-04-28T09:11:07.705Z</time></trkpt><trkpt lat="43.4469217" lon="11.5683883"><ele>536.0</ele><time>2026-04-28T09:11:08.704Z</time></trkpt><trkpt lat="43.4469" lon="11.568485"><ele>535.0</ele><time>2026-04-28T09:11:09.706Z</time></trkpt><trkpt lat="43.4468317" lon="11.56866"><ele>534.6666666666667</ele><time>2026-04-28T09:11:11.704Z</time></trkpt><trkpt lat="43.4467617" lon="11.568765"><ele>534.3333333333334</ele><time>2026-04-28T09:11:12.706Z</time></trkpt><trkpt lat="43.44668" lon="11.56887"><ele>534.0</ele><time>2026-04-28T09:11:13.705Z</time></trkpt><trkpt lat="43.4466117" lon="11.568955"><ele>533.6666666666666</ele><time>2026-04-28T09:11:14.706Z</time></trkpt><trkpt lat="43.44655" lon="11.5690117"><ele>533.3333333333333</ele><time>2026-04-28T09:11:15.707Z</time></trkpt><trkpt lat="43.44649" lon="11.5690433"><ele>533.0</ele><time>2026-04-28T09:11:16.705Z</time></trkpt><trkpt lat="43.44643" lon="11.569075"><ele>533.0</ele><time>2026-04-28T09:11:17.706Z</time></trkpt><trkpt lat="43.446365" lon="11.5690867"><ele>533.0</ele><time>2026-04-28T09:11:18.705Z</time></trkpt><trkpt lat="43.4462517" lon="11.5691167"><ele>533.0</ele><time>2026-04-28T09:11:20.706Z</time></trkpt><trkpt lat="43.4461633" lon="11.5692333"><ele>533.0</ele><time>2026-04-28T09:11:22.704Z</time></trkpt><trkpt lat="43.44613" lon="11.5693217"><ele>533.0</ele><time>2026-04-28T09:11:23.702Z</time></trkpt><trkpt lat="43.4461033" lon="11.56942"><ele>531.5</ele><time>2026-04-28T09:11:24.704Z</time></trkpt><trkpt lat="43.4460783" lon="11.5695267"><ele>530.0</ele><time>2026-04-28T09:11:25.706Z</time></trkpt><trkpt lat="43.4460483" lon="11.569615"><ele>528.5</ele><time>2026-04-28T09:11:26.706Z</time></trkpt><trkpt lat="43.44602" lon="11.5697267"><ele>527.0</ele><time>2026-04-28T09:11:27.705Z</time></trkpt><trkpt lat="43.4459967" lon="11.56984"><ele>525.5</ele><time>2026-04-28T09:11:28.705Z</time></trkpt><trkpt lat="43.4459867" lon="11.569975"><ele>524.0</ele><time>2026-04-28T09:11:29.705Z</time></trkpt><trkpt lat="43.4459867" lon="11.5701067"><ele>524.0</ele><time>2026-04-28T09:11:30.705Z</time></trkpt><trkpt lat="43.4459883" lon="11.5702217"><ele>524.0</ele><time>2026-04-28T09:11:31.706Z</time></trkpt><trkpt lat="43.4459833" lon="11.57031"><ele>524.0</ele><time>2026-04-28T09:11:32.704Z</time></trkpt><trkpt lat="43.44597" lon="11.5704033"><ele>524.0</ele><time>2026-04-28T09:11:33.706Z</time></trkpt><trkpt lat="43.4458933" lon="11.5705467"><ele>524.0</ele><time>2026-04-28T09:11:35.704Z</time></trkpt><trkpt lat="43.4458333" lon="11.5706267"><ele>524.0</ele><time>2026-04-28T09:11:36.706Z</time></trkpt><trkpt lat="43.4457783" lon="11.570705"><ele>524.1666666666666</ele><time>2026-04-28T09:11:37.705Z</time></trkpt><trkpt lat="43.4457333" lon="11.570785"><ele>524.3333333333333</ele><time>2026-04-28T09:11:38.703Z</time></trkpt><trkpt lat="43.445695" lon="11.570855"><ele>524.5</ele><time>2026-04-28T09:11:39.707Z</time></trkpt><trkpt lat="43.4456567" lon="11.5709333"><ele>524.6666666666666</ele><time>2026-04-28T09:11:40.704Z</time></trkpt><trkpt lat="43.4456117" lon="11.5710233"><ele>524.8333333333334</ele><time>2026-04-28T09:11:41.705Z</time></trkpt><trkpt lat="43.4455617" lon="11.5711133"><ele>525.0</ele><time>2026-04-28T09:11:42.703Z</time></trkpt><trkpt lat="43.4454983" lon="11.571195"><ele>525.4</ele><time>2026-04-28T09:11:43.702Z</time></trkpt><trkpt lat="43.4454233" lon="11.57129"><ele>525.8</ele><time>2026-04-28T09:11:44.706Z</time></trkpt><trkpt lat="43.445355" lon="11.5713917"><ele>526.2</ele><time>2026-04-28T09:11:45.706Z</time></trkpt><trkpt lat="43.4452867" lon="11.5714917"><ele>526.6</ele><time>2026-04-28T09:11:46.707Z</time></trkpt><trkpt lat="43.4452117" lon="11.5716083"><ele>527.0</ele><time>2026-04-28T09:11:47.705Z</time></trkpt><trkpt lat="43.4451333" lon="11.5717317"><ele>527.0</ele><time>2026-04-28T09:11:48.707Z</time></trkpt><trkpt lat="43.4450517" lon="11.57186"><ele>527.0</ele><time>2026-04-28T09:11:49.706Z</time></trkpt><trkpt lat="43.4449767" lon="11.5719883"><ele>527.0</ele><time>2026-04-28T09:11:50.704Z</time></trkpt><trkpt lat="43.444905" lon="11.57211"><ele>527.0</ele><time>2026-04-28T09:11:51.706Z</time></trkpt><trkpt lat="43.444845" lon="11.57225"><ele>526.8000000000001</ele><time>2026-04-28T09:11:52.705Z</time></trkpt><trkpt lat="43.444785" lon="11.57238"><ele>526.6</ele><time>2026-04-28T09:11:53.705Z</time></trkpt><trkpt lat="43.4447317" lon="11.5725017"><ele>526.4000000000001</ele><time>2026-04-28T09:11:54.705Z</time></trkpt><trkpt lat="43.444695" lon="11.572625"><ele>526.2</ele><time>2026-04-28T09:11:55.712Z</time></trkpt><trkpt lat="43.4446667" lon="11.57274"><ele>526.0</ele><time>2026-04-28T09:11:56.704Z</time></trkpt><trkpt lat="43.4446467" lon="11.5728667"><ele>523.8333333333334</ele><time>2026-04-28T09:11:57.707Z</time></trkpt><trkpt lat="43.4446417" lon="11.5729617"><ele>521.6666666666667</ele><time>2026-04-28T09:11:58.706Z</time></trkpt><trkpt lat="43.444635" lon="11.5730533"><ele>519.5</ele><time>2026-04-28T09:11:59.705Z</time></trkpt><trkpt lat="43.4446533" lon="11.5732017"><ele>517.3333333333334</ele><time>2026-04-28T09:12:01.707Z</time></trkpt><trkpt lat="43.44469" lon="11.573365"><ele>515.1666666666666</ele><time>2026-04-28T09:12:03.707Z</time></trkpt><trkpt lat="43.444705" lon="11.5734533"><ele>513.0</ele><time>2026-04-28T09:12:04.706Z</time></trkpt><trkpt lat="43.44471" lon="11.5735817"><ele>513.0000000000001</ele><time>2026-04-28T09:12:05.705Z</time></trkpt><trkpt lat="43.444715" lon="11.5736817"><ele>513.0</ele><time>2026-04-28T09:12:06.705Z</time></trkpt><trkpt lat="43.444715" lon="11.5737817"><ele>513.0</ele><time>2026-04-28T09:12:07.705Z</time></trkpt><trkpt lat="43.4447167" lon="11.5738783"><ele>513.0</ele><time>2026-04-28T09:12:08.705Z</time></trkpt><trkpt lat="43.4447133" lon="11.5739667"><ele>513.0</ele><time>2026-04-28T09:12:09.706Z</time></trkpt><trkpt lat="43.4447017" lon="11.5740533"><ele>513.0000000000001</ele><time>2026-04-28T09:12:10.706Z</time></trkpt><trkpt lat="43.4447" lon="11.574145"><ele>513.0</ele><time>2026-04-28T09:12:11.704Z</time></trkpt><trkpt lat="43.4446967" lon="11.574235"><ele>511.0</ele><time>2026-04-28T09:12:12.706Z</time></trkpt><trkpt lat="43.4446833" lon="11.5743217"><ele>508.99999999999994</ele><time>2026-04-28T09:12:13.705Z</time></trkpt><trkpt lat="43.444655" lon="11.5744083"><ele>506.99999999999994</ele><time>2026-04-28T09:12:14.706Z</time></trkpt><trkpt lat="43.4446233" lon="11.5744833"><ele>505.0</ele><time>2026-04-28T09:12:15.706Z</time></trkpt><trkpt lat="43.4445733" lon="11.5746133"><ele>503.0</ele><time>2026-04-28T09:12:17.704Z</time></trkpt><trkpt lat="43.4445233" lon="11.57487"><ele>498.75</ele><time>2026-04-28T09:12:19.706Z</time></trkpt><trkpt lat="43.444525" lon="11.5750467"><ele>494.5</ele><time>2026-04-28T09:12:21.706Z</time></trkpt><trkpt lat="43.4445117" lon="11.5752067"><ele>490.25</ele><time>2026-04-28T09:12:23.705Z</time></trkpt><trkpt lat="43.4444933" lon="11.575355"><ele>486.0</ele><time>2026-04-28T09:12:25.706Z</time></trkpt><trkpt lat="43.444475" lon="11.5755433"><ele>484.0</ele><time>2026-04-28T09:12:27.706Z</time></trkpt><trkpt lat="43.444465" lon="11.575665"><ele>482.0</ele><time>2026-04-28T09:12:28.705Z</time></trkpt><trkpt lat="43.444445" lon="11.575795"><ele>480.0</ele><time>2026-04-28T09:12:29.705Z</time></trkpt><trkpt lat="43.4444233" lon="11.5759033"><ele>478.0</ele><time>2026-04-28T09:12:30.703Z</time></trkpt><trkpt lat="43.4444033" lon="11.57602"><ele>476.0</ele><time>2026-04-28T09:12:31.705Z</time></trkpt><trkpt lat="43.4443933" lon="11.5761417"><ele>474.0</ele><time>2026-04-28T09:12:32.705Z</time></trkpt><trkpt lat="43.4443917" lon="11.5762583"><ele>472.4</ele><time>2026-04-28T09:12:33.706Z</time></trkpt><trkpt lat="43.44439" lon="11.576445"><ele>470.79999999999995</ele><time>2026-04-28T09:12:34.704Z</time></trkpt><trkpt lat="43.4444083" lon="11.5765533"><ele>469.20000000000005</ele><time>2026-04-28T09:12:35.705Z</time></trkpt><trkpt lat="43.4444267" lon="11.57664"><ele>467.6</ele><time>2026-04-28T09:12:36.705Z</time></trkpt><trkpt lat="43.444445" lon="11.5767767"><ele>466.0</ele><time>2026-04-28T09:12:38.706Z</time></trkpt><trkpt lat="43.4444133" lon="11.57686"><ele>466.00000000000006</ele><time>2026-04-28T09:12:40.705Z</time></trkpt><trkpt lat="43.4443517" lon="11.5769317"><ele>466.0</ele><time>2026-04-28T09:12:42.705Z</time></trkpt><trkpt lat="43.4442717" lon="11.5769933"><ele>466.0</ele><time>2026-04-28T09:12:45.707Z</time></trkpt><trkpt lat="43.44422" lon="11.57706"><ele>466.0</ele><time>2026-04-28T09:12:47.705Z</time></trkpt><trkpt lat="43.4441467" lon="11.5771083"><ele>466.00000000000006</ele><time>2026-04-28T09:12:50.704Z</time></trkpt><trkpt lat="43.4440733" lon="11.5770867"><ele>466.0</ele><time>2026-04-28T09:12:53.709Z</time></trkpt><trkpt lat="43.44402" lon="11.57714"><ele>463.6666666666667</ele><time>2026-04-28T09:12:55.702Z</time></trkpt><trkpt lat="43.4440067" lon="11.5772417"><ele>461.33333333333337</ele><time>2026-04-28T09:12:57.706Z</time></trkpt><trkpt lat="43.4440017" lon="11.5773433"><ele>459.0</ele><time>2026-04-28T09:12:59.705Z</time></trkpt><trkpt lat="43.4439717" lon="11.5774467"><ele>456.66666666666663</ele><time>2026-04-28T09:13:01.706Z</time></trkpt><trkpt lat="43.4439133" lon="11.5775083"><ele>454.3333333333333</ele><time>2026-04-28T09:13:04.705Z</time></trkpt><trkpt lat="43.4438283" lon="11.57752"><ele>452.0</ele><time>2026-04-28T09:13:07.702Z</time></trkpt><trkpt lat="43.443755" lon="11.5774517"><ele>449.8</ele><time>2026-04-28T09:13:09.705Z</time></trkpt><trkpt lat="43.443705" lon="11.5773983"><ele>447.6</ele><time>2026-04-28T09:13:10.704Z</time></trkpt><trkpt lat="43.4436317" lon="11.577305"><ele>445.40000000000003</ele><time>2026-04-28T09:13:11.705Z</time></trkpt><trkpt lat="43.4435817" lon="11.577195"><ele>443.20000000000005</ele><time>2026-04-28T09:13:12.706Z</time></trkpt><trkpt lat="43.4435233" lon="11.5770667"><ele>441.0</ele><time>2026-04-28T09:13:13.706Z</time></trkpt><trkpt lat="43.4434583" lon="11.5769317"><ele>441.0</ele><time>2026-04-28T09:13:14.704Z</time></trkpt><trkpt lat="43.4434083" lon="11.5768267"><ele>441.0</ele><time>2026-04-28T09:13:15.707Z</time></trkpt><trkpt lat="43.4433633" lon="11.5767183"><ele>441.0</ele><time>2026-04-28T09:13:16.705Z</time></trkpt><trkpt lat="43.443325" lon="11.5765833"><ele>441.0</ele><time>2026-04-28T09:13:17.703Z</time></trkpt><trkpt lat="43.4432983" lon="11.576425"><ele>441.0</ele><time>2026-04-28T09:13:18.705Z</time></trkpt><trkpt lat="43.44327" lon="11.5762883"><ele>441.8</ele><time>2026-04-28T09:13:19.705Z</time></trkpt><trkpt lat="43.4432417" lon="11.576155"><ele>442.6</ele><time>2026-04-28T09:13:20.705Z</time></trkpt><trkpt lat="43.4432183" lon="11.5760383"><ele>443.4</ele><time>2026-04-28T09:13:21.702Z</time></trkpt><trkpt lat="43.4431583" lon="11.5759133"><ele>444.2</ele><time>2026-04-28T09:13:22.705Z</time></trkpt><trkpt lat="43.4430733" lon="11.575785"><ele>445.0</ele><time>2026-04-28T09:13:23.705Z</time></trkpt><trkpt lat="43.443" lon="11.5756567"><ele>445.25</ele><time>2026-04-28T09:13:24.704Z</time></trkpt><trkpt lat="43.4429367" lon="11.5755067"><ele>445.5</ele><time>2026-04-28T09:13:25.706Z</time></trkpt><trkpt lat="43.4428833" lon="11.5753517"><ele>445.75</ele><time>2026-04-28T09:13:26.705Z</time></trkpt><trkpt lat="43.442825" lon="11.57522"><ele>446.0</ele><time>2026-04-28T09:13:27.706Z</time></trkpt><trkpt lat="43.4427683" lon="11.575085"><ele>446.0</ele><time>2026-04-28T09:13:28.705Z</time></trkpt><trkpt lat="43.4426967" lon="11.5749283"><ele>446.0</ele><time>2026-04-28T09:13:29.704Z</time></trkpt><trkpt lat="43.4426233" lon="11.574775"><ele>446.0</ele><time>2026-04-28T09:13:30.705Z</time></trkpt><trkpt lat="43.4425483" lon="11.574625"><ele>446.0</ele><time>2026-04-28T09:13:31.705Z</time></trkpt><trkpt lat="43.442455" lon="11.5744767"><ele>447.25</ele><time>2026-04-28T09:13:32.705Z</time></trkpt><trkpt lat="43.442365" lon="11.57434"><ele>448.5</ele><time>2026-04-28T09:13:33.706Z</time></trkpt><trkpt lat="43.4422833" lon="11.5742"><ele>449.75</ele><time>2026-04-28T09:13:34.704Z</time></trkpt><trkpt lat="43.4422133" lon="11.574055"><ele>451.0</ele><time>2026-04-28T09:13:35.704Z</time></trkpt><trkpt lat="43.4421583" lon="11.5739017"><ele>451.0</ele><time>2026-04-28T09:13:36.706Z</time></trkpt><trkpt lat="43.4420967" lon="11.5737767"><ele>451.0</ele><time>2026-04-28T09:13:37.706Z</time></trkpt><trkpt lat="43.4420383" lon="11.5736683"><ele>451.0</ele><time>2026-04-28T09:13:38.705Z</time></trkpt><trkpt lat="43.4419783" lon="11.573545"><ele>451.0</ele><time>2026-04-28T09:13:39.706Z</time></trkpt><trkpt lat="43.4419217" lon="11.5734217"><ele>451.0</ele><time>2026-04-28T09:13:40.705Z</time></trkpt><trkpt lat="43.4418483" lon="11.5733283"><ele>451.00000000000006</ele><time>2026-04-28T09:13:41.705Z</time></trkpt><trkpt lat="43.4417767" lon="11.5732617"><ele>451.0</ele><time>2026-04-28T09:13:42.705Z</time></trkpt><trkpt lat="43.4416967" lon="11.573195"><ele>451.0</ele><time>2026-04-28T09:13:43.707Z</time></trkpt><trkpt lat="43.441635" lon="11.5731367"><ele>451.0</ele><time>2026-04-28T09:13:44.706Z</time></trkpt><trkpt lat="43.441555" lon="11.573085"><ele>451.00000000000006</ele><time>2026-04-28T09:13:45.709Z</time></trkpt><trkpt lat="43.4414917" lon="11.57305"><ele>451.0</ele><time>2026-04-28T09:13:47.704Z</time></trkpt><trkpt lat="43.4413917" lon="11.573005"><ele>451.0</ele><time>2026-04-28T09:13:49.705Z</time></trkpt><trkpt lat="43.4413367" lon="11.57305"><ele>451.0</ele><time>2026-04-28T09:13:54.705Z</time></trkpt><trkpt lat="43.4413433" lon="11.5731517"><ele>451.0</ele><time>2026-04-28T09:13:56.705Z</time></trkpt><trkpt lat="43.4414167" lon="11.573265"><ele>451.0</ele><time>2026-04-28T09:13:57.707Z</time></trkpt><trkpt lat="43.4415117" lon="11.57348"><ele>451.0</ele><time>2026-04-28T09:13:58.705Z</time></trkpt><trkpt lat="43.4415767" lon="11.573775"><ele>453.5</ele><time>2026-04-28T09:13:59.705Z</time></trkpt><trkpt lat="43.44163" lon="11.57396"><ele>456.0</ele><time>2026-04-28T09:14:00.705Z</time></trkpt><trkpt lat="43.4416817" lon="11.5741217"><ele>458.5</ele><time>2026-04-28T09:14:01.705Z</time></trkpt><trkpt lat="43.44175" lon="11.5743433"><ele>461.0</ele><time>2026-04-28T09:14:02.701Z</time></trkpt><trkpt lat="43.4418117" lon="11.5745417"><ele>464.0</ele><time>2026-04-28T09:14:03.706Z</time></trkpt><trkpt lat="43.441855" lon="11.5747283"><ele>467.0</ele><time>2026-04-28T09:14:04.701Z</time></trkpt><trkpt lat="43.4418967" lon="11.5749317"><ele>470.0</ele><time>2026-04-28T09:14:05.706Z</time></trkpt><trkpt lat="43.4419467" lon="11.575095"><ele>473.0</ele><time>2026-04-28T09:14:06.704Z</time></trkpt><trkpt lat="43.4420083" lon="11.5752567"><ele>475.4</ele><time>2026-04-28T09:14:07.705Z</time></trkpt><trkpt lat="43.442055" lon="11.5753867"><ele>477.79999999999995</ele><time>2026-04-28T09:14:08.706Z</time></trkpt><trkpt lat="43.4420933" lon="11.5754933"><ele>480.2</ele><time>2026-04-28T09:14:09.703Z</time></trkpt><trkpt lat="43.4421567" lon="11.5756217"><ele>482.6</ele><time>2026-04-28T09:14:10.706Z</time></trkpt><trkpt lat="43.442185" lon="11.57573"><ele>485.0</ele><time>2026-04-28T09:14:11.701Z</time></trkpt><trkpt lat="43.4421917" lon="11.57583"><ele>480.2</ele><time>2026-04-28T09:14:12.704Z</time></trkpt><trkpt lat="43.442175" lon="11.5759833"><ele>475.4</ele><time>2026-04-28T09:14:14.706Z</time></trkpt><trkpt lat="43.4421633" lon="11.5760917"><ele>470.6</ele><time>2026-04-28T09:14:16.704Z</time></trkpt><trkpt lat="43.4421983" lon="11.576215"><ele>465.8</ele><time>2026-04-28T09:14:18.706Z</time></trkpt><trkpt lat="43.4422317" lon="11.5763317"><ele>461.0</ele><time>2026-04-28T09:14:20.707Z</time></trkpt><trkpt lat="43.4422933" lon="11.57643"><ele>460.99999999999994</ele><time>2026-04-28T09:14:21.706Z</time></trkpt><trkpt lat="43.4423583" lon="11.5765333"><ele>461.0</ele><time>2026-04-28T09:14:22.705Z</time></trkpt><trkpt lat="43.4424083" lon="11.576635"><ele>461.0</ele><time>2026-04-28T09:14:23.706Z</time></trkpt><trkpt lat="43.4424517" lon="11.57671"><ele>461.0</ele><time>2026-04-28T09:14:24.705Z</time></trkpt><trkpt lat="43.4424733" lon="11.576815"><ele>460.99999999999994</ele><time>2026-04-28T09:14:25.705Z</time></trkpt><trkpt lat="43.4424883" lon="11.5769333"><ele>461.0</ele><time>2026-04-28T09:14:26.705Z</time></trkpt><trkpt lat="43.4424833" lon="11.577065"><ele>460.6</ele><time>2026-04-28T09:14:27.705Z</time></trkpt><trkpt lat="43.442475" lon="11.5771717"><ele>460.20000000000005</ele><time>2026-04-28T09:14:28.705Z</time></trkpt><trkpt lat="43.4424433" lon="11.5773133"><ele>459.79999999999995</ele><time>2026-04-28T09:14:29.704Z</time></trkpt><trkpt lat="43.4424117" lon="11.5774683"><ele>459.4</ele><time>2026-04-28T09:14:30.704Z</time></trkpt><trkpt lat="43.4423817" lon="11.5776267"><ele>459.0</ele><time>2026-04-28T09:14:31.705Z</time></trkpt><trkpt lat="43.4423667" lon="11.577785"><ele>458.0</ele><time>2026-04-28T09:14:32.704Z</time></trkpt><trkpt lat="43.4423433" lon="11.577955"><ele>457.0</ele><time>2026-04-28T09:14:33.706Z</time></trkpt><trkpt lat="43.4423067" lon="11.578115"><ele>456.0</ele><time>2026-04-28T09:14:34.705Z</time></trkpt><trkpt lat="43.44225" lon="11.5782617"><ele>455.0</ele><time>2026-04-28T09:14:35.705Z</time></trkpt><trkpt lat="43.4422067" lon="11.5784"><ele>454.99999999999994</ele><time>2026-04-28T09:14:36.705Z</time></trkpt><trkpt lat="43.4421717" lon="11.5785283"><ele>455.0</ele><time>2026-04-28T09:14:37.707Z</time></trkpt><trkpt lat="43.4421183" lon="11.57859"><ele>455.0</ele><time>2026-04-28T09:14:38.707Z</time></trkpt><trkpt lat="43.44207" lon="11.57867"><ele>455.0</ele><time>2026-04-28T09:14:39.706Z</time></trkpt><trkpt lat="43.44201" lon="11.578735"><ele>454.99999999999994</ele><time>2026-04-28T09:14:40.706Z</time></trkpt><trkpt lat="43.4419567" lon="11.57879"><ele>455.0</ele><time>2026-04-28T09:14:41.705Z</time></trkpt><trkpt lat="43.441895" lon="11.57881"><ele>458.16666666666663</ele><time>2026-04-28T09:14:42.706Z</time></trkpt><trkpt lat="43.44184" lon="11.578865"><ele>461.3333333333333</ele><time>2026-04-28T09:14:43.705Z</time></trkpt><trkpt lat="43.441785" lon="11.578925"><ele>464.5</ele><time>2026-04-28T09:14:44.706Z</time></trkpt><trkpt lat="43.441695" lon="11.57893"><ele>467.66666666666663</ele><time>2026-04-28T09:14:45.706Z</time></trkpt><trkpt lat="43.441575" lon="11.57903"><ele>470.8333333333333</ele><time>2026-04-28T09:14:47.704Z</time></trkpt><trkpt lat="43.4415017" lon="11.57906"><ele>474.0</ele><time>2026-04-28T09:14:48.704Z</time></trkpt><trkpt lat="43.4414067" lon="11.5790667"><ele>477.0</ele><time>2026-04-28T09:14:49.706Z</time></trkpt><trkpt lat="43.441235" lon="11.5791"><ele>480.0</ele><time>2026-04-28T09:14:50.707Z</time></trkpt><trkpt lat="43.4411667" lon="11.579095"><ele>483.0</ele><time>2026-04-28T09:14:51.707Z</time></trkpt><trkpt lat="43.441095" lon="11.57908"><ele>486.0</ele><time>2026-04-28T09:14:52.705Z</time></trkpt><trkpt lat="43.4408883" lon="11.5790183"><ele>486.0</ele><time>2026-04-28T09:14:53.706Z</time></trkpt><trkpt lat="43.4407783" lon="11.579005"><ele>486.0</ele><time>2026-04-28T09:14:54.705Z</time></trkpt><trkpt lat="43.44069" lon="11.578995"><ele>486.0</ele><time>2026-04-28T09:14:55.705Z</time></trkpt><trkpt lat="43.4406217" lon="11.5789717"><ele>486.0</ele><time>2026-04-28T09:14:56.705Z</time></trkpt><trkpt lat="43.4405267" lon="11.578975"><ele>486.0</ele><time>2026-04-28T09:14:58.705Z</time></trkpt><trkpt lat="43.44048" lon="11.5790917"><ele>486.0</ele><time>2026-04-28T09:15:00.707Z</time></trkpt><trkpt lat="43.440475" lon="11.5791917"><ele>486.0</ele><time>2026-04-28T09:15:01.706Z</time></trkpt><trkpt lat="43.4404817" lon="11.57932"><ele>486.0</ele><time>2026-04-28T09:15:02.704Z</time></trkpt><trkpt lat="43.440505" lon="11.5794417"><ele>486.0</ele><time>2026-04-28T09:15:03.709Z</time></trkpt><trkpt lat="43.440515" lon="11.5795883"><ele>486.0</ele><time>2026-04-28T09:15:04.704Z</time></trkpt><trkpt lat="43.4406083" lon="11.579775"><ele>487.0</ele><time>2026-04-28T09:15:05.705Z</time></trkpt><trkpt lat="43.440715" lon="11.5799733"><ele>488.0</ele><time>2026-04-28T09:15:06.705Z</time></trkpt><trkpt lat="43.4407833" lon="11.5801283"><ele>489.0</ele><time>2026-04-28T09:15:07.706Z</time></trkpt><trkpt lat="43.440835" lon="11.5803017"><ele>490.0</ele><time>2026-04-28T09:15:08.705Z</time></trkpt><trkpt lat="43.44084" lon="11.5804283"><ele>492.5</ele><time>2026-04-28T09:15:09.706Z</time></trkpt><trkpt lat="43.4408767" lon="11.580605"><ele>495.0</ele><time>2026-04-28T09:15:10.705Z</time></trkpt><trkpt lat="43.4409017" lon="11.5807767"><ele>497.5</ele><time>2026-04-28T09:15:11.704Z</time></trkpt><trkpt lat="43.4409133" lon="11.5809317"><ele>500.0</ele><time>2026-04-28T09:15:12.705Z</time></trkpt><trkpt lat="43.440895" lon="11.581085"><ele>499.5</ele><time>2026-04-28T09:15:13.705Z</time></trkpt><trkpt lat="43.4408367" lon="11.5812483"><ele>499.0</ele><time>2026-04-28T09:15:14.705Z</time></trkpt><trkpt lat="43.4408167" lon="11.5814217"><ele>498.5</ele><time>2026-04-28T09:15:15.705Z</time></trkpt><trkpt lat="43.4408217" lon="11.581585"><ele>498.0</ele><time>2026-04-28T09:15:16.705Z</time></trkpt><trkpt lat="43.440805" lon="11.5817133"><ele>498.0</ele><time>2026-04-28T09:15:17.703Z</time></trkpt><trkpt lat="43.440795" lon="11.5818433"><ele>497.99999999999994</ele><time>2026-04-28T09:15:18.705Z</time></trkpt><trkpt lat="43.4407983" lon="11.582005"><ele>497.99999999999994</ele><time>2026-04-28T09:15:19.704Z</time></trkpt><trkpt lat="43.440805" lon="11.5821383"><ele>498.0</ele><time>2026-04-28T09:15:20.704Z</time></trkpt><trkpt lat="43.44082" lon="11.5822867"><ele>498.0</ele><time>2026-04-28T09:15:21.706Z</time></trkpt><trkpt lat="43.4408633" lon="11.5824867"><ele>496.6666666666667</ele><time>2026-04-28T09:15:22.704Z</time></trkpt><trkpt lat="43.4408883" lon="11.5826233"><ele>495.33333333333337</ele><time>2026-04-28T09:15:23.705Z</time></trkpt><trkpt lat="43.44092" lon="11.5827517"><ele>494.0</ele><time>2026-04-28T09:15:24.705Z</time></trkpt><trkpt lat="43.4409533" lon="11.5828483"><ele>492.6666666666667</ele><time>2026-04-28T09:15:25.705Z</time></trkpt><trkpt lat="43.4409817" lon="11.5829267"><ele>491.33333333333337</ele><time>2026-04-28T09:15:26.705Z</time></trkpt><trkpt lat="43.441055" lon="11.58302"><ele>490.0</ele><time>2026-04-28T09:15:28.705Z</time></trkpt><trkpt lat="43.4411017" lon="11.5831117"><ele>487.6666666666667</ele><time>2026-04-28T09:15:30.705Z</time></trkpt><trkpt lat="43.441085" lon="11.5832017"><ele>485.33333333333337</ele><time>2026-04-28T09:15:32.705Z</time></trkpt><trkpt lat="43.4410183" lon="11.583185"><ele>483.0</ele><time>2026-04-28T09:15:36.705Z</time></trkpt><trkpt lat="43.4409467" lon="11.5831283"><ele>480.66666666666663</ele><time>2026-04-28T09:15:38.706Z</time></trkpt><trkpt lat="43.440975" lon="11.5832383"><ele>478.3333333333333</ele><time>2026-04-28T09:15:47.704Z</time></trkpt><trkpt lat="43.4410683" lon="11.5833033"><ele>476.0</ele><time>2026-04-28T09:15:48.704Z</time></trkpt><trkpt lat="43.4411583" lon="11.5833433"><ele>476.0</ele><time>2026-04-28T09:15:49.706Z</time></trkpt><trkpt lat="43.4412467" lon="11.5833717"><ele>476.0</ele><time>2026-04-28T09:15:50.705Z</time></trkpt><trkpt lat="43.4413333" lon="11.5833783"><ele>476.0</ele><time>2026-04-28T09:15:51.706Z</time></trkpt><trkpt lat="43.4414783" lon="11.5834067"><ele>476.0</ele><time>2026-04-28T09:15:52.705Z</time></trkpt><trkpt lat="43.4415833" lon="11.5833783"><ele>476.0</ele><time>2026-04-28T09:15:53.704Z</time></trkpt><trkpt lat="43.44169" lon="11.5833333"><ele>477.49999999999994</ele><time>2026-04-28T09:15:54.705Z</time></trkpt><trkpt lat="43.44179" lon="11.583305"><ele>479.0</ele><time>2026-04-28T09:15:55.705Z</time></trkpt><trkpt lat="43.44188" lon="11.5833083"><ele>480.5</ele><time>2026-04-28T09:15:56.706Z</time></trkpt><trkpt lat="43.441965" lon="11.5833333"><ele>482.0</ele><time>2026-04-28T09:15:57.706Z</time></trkpt><trkpt lat="43.44204" lon="11.5833767"><ele>483.49999999999994</ele><time>2026-04-28T09:15:58.704Z</time></trkpt><trkpt lat="43.442115" lon="11.583425"><ele>485.0</ele><time>2026-04-28T09:15:59.705Z</time></trkpt><trkpt lat="43.4421917" lon="11.58347"><ele>486.4</ele><time>2026-04-28T09:16:00.704Z</time></trkpt><trkpt lat="43.4422733" lon="11.58351"><ele>487.8</ele><time>2026-04-28T09:16:01.706Z</time></trkpt><trkpt lat="43.4423517" lon="11.58352"><ele>489.20000000000005</ele><time>2026-04-28T09:16:02.707Z</time></trkpt><trkpt lat="43.4424517" lon="11.583505"><ele>490.6</ele><time>2026-04-28T09:16:03.706Z</time></trkpt><trkpt lat="43.442555" lon="11.5834783"><ele>492.0</ele><time>2026-04-28T09:16:04.705Z</time></trkpt><trkpt lat="43.442655" lon="11.5834667"><ele>492.0</ele><time>2026-04-28T09:16:05.705Z</time></trkpt><trkpt lat="43.4427533" lon="11.58347"><ele>492.00000000000006</ele><time>2026-04-28T09:16:06.705Z</time></trkpt><trkpt lat="43.4428583" lon="11.5834883"><ele>492.00000000000006</ele><time>2026-04-28T09:16:07.704Z</time></trkpt><trkpt lat="43.4429683" lon="11.583505"><ele>492.0</ele><time>2026-04-28T09:16:08.704Z</time></trkpt><trkpt lat="43.4430867" lon="11.5835283"><ele>492.0</ele><time>2026-04-28T09:16:09.706Z</time></trkpt><trkpt lat="43.44321" lon="11.58355"><ele>493.20000000000005</ele><time>2026-04-28T09:16:10.704Z</time></trkpt><trkpt lat="43.443335" lon="11.5835533"><ele>494.40000000000003</ele><time>2026-04-28T09:16:11.704Z</time></trkpt><trkpt lat="43.4434567" lon="11.5835517"><ele>495.59999999999997</ele><time>2026-04-28T09:16:12.705Z</time></trkpt><trkpt lat="43.44356" lon="11.58355"><ele>496.79999999999995</ele><time>2026-04-28T09:16:13.705Z</time></trkpt><trkpt lat="43.4436583" lon="11.5835583"><ele>498.0</ele><time>2026-04-28T09:16:14.706Z</time></trkpt><trkpt lat="43.4437467" lon="11.5835767"><ele>497.2</ele><time>2026-04-28T09:16:15.706Z</time></trkpt><trkpt lat="43.4438333" lon="11.5835817"><ele>496.4</ele><time>2026-04-28T09:16:16.704Z</time></trkpt><trkpt lat="43.44393" lon="11.583575"><ele>495.59999999999997</ele><time>2026-04-28T09:16:17.705Z</time></trkpt><trkpt lat="43.4440433" lon="11.58357"><ele>494.79999999999995</ele><time>2026-04-28T09:16:18.706Z</time></trkpt><trkpt lat="43.4441517" lon="11.5835717"><ele>494.0</ele><time>2026-04-28T09:16:19.706Z</time></trkpt><trkpt lat="43.4442517" lon="11.58358"><ele>493.99999999999994</ele><time>2026-04-28T09:16:20.705Z</time></trkpt><trkpt lat="43.4443417" lon="11.5836"><ele>494.0</ele><time>2026-04-28T09:16:21.706Z</time></trkpt><trkpt lat="43.4444267" lon="11.5836217"><ele>494.0</ele><time>2026-04-28T09:16:22.705Z</time></trkpt><trkpt lat="43.4445017" lon="11.58363"><ele>494.0</ele><time>2026-04-28T09:16:23.705Z</time></trkpt><trkpt lat="43.444575" lon="11.5836233"><ele>493.99999999999994</ele><time>2026-04-28T09:16:24.705Z</time></trkpt><trkpt lat="43.4446567" lon="11.5835917"><ele>494.0</ele><time>2026-04-28T09:16:25.705Z</time></trkpt><trkpt lat="43.44475" lon="11.5835317"><ele>492.2</ele><time>2026-04-28T09:16:26.706Z</time></trkpt><trkpt lat="43.44484" lon="11.5834617"><ele>490.4</ele><time>2026-04-28T09:16:27.707Z</time></trkpt><trkpt lat="43.4449183" lon="11.583395"><ele>488.6</ele><time>2026-04-28T09:16:28.705Z</time></trkpt><trkpt lat="43.4449967" lon="11.5833217"><ele>486.8</ele><time>2026-04-28T09:16:29.704Z</time></trkpt><trkpt lat="43.4450733" lon="11.5832517"><ele>485.0</ele><time>2026-04-28T09:16:30.705Z</time></trkpt><trkpt lat="43.4451417" lon="11.5832017"><ele>485.0</ele><time>2026-04-28T09:16:31.704Z</time></trkpt><trkpt lat="43.445205" lon="11.58317"><ele>485.0</ele><time>2026-04-28T09:16:32.705Z</time></trkpt><trkpt lat="43.4452683" lon="11.5831567"><ele>485.0</ele><time>2026-04-28T09:16:33.706Z</time></trkpt><trkpt lat="43.4454183" lon="11.583235"><ele>485.0</ele><time>2026-04-28T09:16:35.705Z</time></trkpt><trkpt lat="43.4455083" lon="11.5833133"><ele>485.0</ele><time>2026-04-28T09:16:36.705Z</time></trkpt><trkpt lat="43.4456" lon="11.5833817"><ele>485.75</ele><time>2026-04-28T09:16:37.705Z</time></trkpt><trkpt lat="43.4457067" lon="11.5834533"><ele>486.5</ele><time>2026-04-28T09:16:38.706Z</time></trkpt><trkpt lat="43.4458033" lon="11.5835083"><ele>487.25</ele><time>2026-04-28T09:16:39.706Z</time></trkpt><trkpt lat="43.4459083" lon="11.5835617"><ele>488.0</ele><time>2026-04-28T09:16:40.706Z</time></trkpt><trkpt lat="43.4460167" lon="11.5836167"><ele>488.0</ele><time>2026-04-28T09:16:41.705Z</time></trkpt><trkpt lat="43.4461217" lon="11.5836633"><ele>487.99999999999994</ele><time>2026-04-28T09:16:42.706Z</time></trkpt><trkpt lat="43.4462217" lon="11.5837183"><ele>487.99999999999994</ele><time>2026-04-28T09:16:43.706Z</time></trkpt><trkpt lat="43.4463117" lon="11.583765"><ele>488.0</ele><time>2026-04-28T09:16:44.706Z</time></trkpt><trkpt lat="43.4463967" lon="11.5838"><ele>488.0</ele><time>2026-04-28T09:16:45.707Z</time></trkpt><trkpt lat="43.446475" lon="11.5838183"><ele>486.3333333333333</ele><time>2026-04-28T09:16:46.705Z</time></trkpt><trkpt lat="43.4465567" lon="11.5838083"><ele>484.66666666666663</ele><time>2026-04-28T09:16:47.704Z</time></trkpt><trkpt lat="43.4466317" lon="11.5837767"><ele>483.0</ele><time>2026-04-28T09:16:48.706Z</time></trkpt><trkpt lat="43.446705" lon="11.5837517"><ele>481.33333333333337</ele><time>2026-04-28T09:16:49.705Z</time></trkpt><trkpt lat="43.44678" lon="11.58373"><ele>479.6666666666667</ele><time>2026-04-28T09:16:50.706Z</time></trkpt><trkpt lat="43.4468683" lon="11.5837183"><ele>478.0</ele><time>2026-04-28T09:16:51.706Z</time></trkpt><trkpt lat="43.4469517" lon="11.5837033"><ele>480.79999999999995</ele><time>2026-04-28T09:16:52.705Z</time></trkpt><trkpt lat="43.447025" lon="11.5836783"><ele>483.59999999999997</ele><time>2026-04-28T09:16:53.705Z</time></trkpt><trkpt lat="43.4471117" lon="11.58364"><ele>486.40000000000003</ele><time>2026-04-28T09:16:54.706Z</time></trkpt><trkpt lat="43.4471983" lon="11.58361"><ele>489.20000000000005</ele><time>2026-04-28T09:16:55.706Z</time></trkpt><trkpt lat="43.4472867" lon="11.5835767"><ele>492.0</ele><time>2026-04-28T09:16:56.706Z</time></trkpt><trkpt lat="43.4473933" lon="11.5835417"><ele>492.0</ele><time>2026-04-28T09:16:57.706Z</time></trkpt><trkpt lat="43.4474983" lon="11.5835283"><ele>492.0</ele><time>2026-04-28T09:16:58.704Z</time></trkpt><trkpt lat="43.4475867" lon="11.583515"><ele>492.0</ele><time>2026-04-28T09:16:59.704Z</time></trkpt><trkpt lat="43.4476667" lon="11.5834933"><ele>492.0</ele><time>2026-04-28T09:17:00.705Z</time></trkpt><trkpt lat="43.447745" lon="11.5834633"><ele>492.0</ele><time>2026-04-28T09:17:01.706Z</time></trkpt><trkpt lat="43.4478217" lon="11.5834267"><ele>492.0</ele><time>2026-04-28T09:17:02.704Z</time></trkpt><trkpt lat="43.4478967" lon="11.583385"><ele>490.0</ele><time>2026-04-28T09:17:03.705Z</time></trkpt><trkpt lat="43.4479717" lon="11.5833417"><ele>488.0</ele><time>2026-04-28T09:17:04.707Z</time></trkpt><trkpt lat="43.4480417" lon="11.5833033"><ele>486.0</ele><time>2026-04-28T09:17:05.704Z</time></trkpt><trkpt lat="43.4481067" lon="11.58328"><ele>484.0</ele><time>2026-04-28T09:17:06.706Z</time></trkpt><trkpt lat="43.4481683" lon="11.58326"><ele>482.0</ele><time>2026-04-28T09:17:07.705Z</time></trkpt><trkpt lat="43.4482383" lon="11.5832433"><ele>480.0</ele><time>2026-04-28T09:17:08.706Z</time></trkpt><trkpt lat="43.448355" lon="11.5832283"><ele>480.0</ele><time>2026-04-28T09:17:10.705Z</time></trkpt><trkpt lat="43.44847" lon="11.5832"><ele>480.0</ele><time>2026-04-28T09:17:12.705Z</time></trkpt><trkpt lat="43.44854" lon="11.58318"><ele>480.0</ele><time>2026-04-28T09:17:13.708Z</time></trkpt><trkpt lat="43.448605" lon="11.583155"><ele>480.0</ele><time>2026-04-28T09:17:14.706Z</time></trkpt><trkpt lat="43.4486683" lon="11.583135"><ele>480.0</ele><time>2026-04-28T09:17:15.705Z</time></trkpt><trkpt lat="43.4487367" lon="11.58311"><ele>480.0</ele><time>2026-04-28T09:17:16.705Z</time></trkpt><trkpt lat="43.4488067" lon="11.583085"><ele>477.8333333333333</ele><time>2026-04-28T09:17:17.703Z</time></trkpt><trkpt lat="43.4488767" lon="11.5830483"><ele>475.66666666666663</ele><time>2026-04-28T09:17:18.705Z</time></trkpt><trkpt lat="43.4489367" lon="11.5830133"><ele>473.5</ele><time>2026-04-28T09:17:19.707Z</time></trkpt><trkpt lat="43.449035" lon="11.5829767"><ele>471.3333333333333</ele><time>2026-04-28T09:17:21.706Z</time></trkpt><trkpt lat="43.4491117" lon="11.58294"><ele>469.16666666666663</ele><time>2026-04-28T09:17:23.705Z</time></trkpt><trkpt lat="43.4491533" lon="11.5828667"><ele>467.0</ele><time>2026-04-28T09:17:25.705Z</time></trkpt><trkpt lat="43.449175" lon="11.5827733"><ele>467.0</ele><time>2026-04-28T09:17:26.705Z</time></trkpt><trkpt lat="43.4491983" lon="11.582635"><ele>467.00000000000006</ele><time>2026-04-28T09:17:27.706Z</time></trkpt><trkpt lat="43.4492283" lon="11.5825133"><ele>467.00000000000006</ele><time>2026-04-28T09:17:28.705Z</time></trkpt><trkpt lat="43.4492783" lon="11.5823967"><ele>467.0</ele><time>2026-04-28T09:17:29.705Z</time></trkpt><trkpt lat="43.44934" lon="11.5823"><ele>467.0</ele><time>2026-04-28T09:17:30.708Z</time></trkpt><trkpt lat="43.4494317" lon="11.5822167"><ele>467.0</ele><time>2026-04-28T09:17:31.706Z</time></trkpt><trkpt lat="43.44955" lon="11.582135"><ele>467.0</ele><time>2026-04-28T09:17:32.704Z</time></trkpt><trkpt lat="43.4496583" lon="11.5820683"><ele>467.0</ele><time>2026-04-28T09:17:33.706Z</time></trkpt><trkpt lat="43.4497633" lon="11.5819983"><ele>467.0</ele><time>2026-04-28T09:17:34.704Z</time></trkpt><trkpt lat="43.4498583" lon="11.5819367"><ele>466.8</ele><time>2026-04-28T09:17:35.704Z</time></trkpt><trkpt lat="43.4499617" lon="11.5818933"><ele>466.6</ele><time>2026-04-28T09:17:36.705Z</time></trkpt><trkpt lat="43.4500717" lon="11.5818717"><ele>466.40000000000003</ele><time>2026-04-28T09:17:37.705Z</time></trkpt><trkpt lat="43.450185" lon="11.58186"><ele>466.20000000000005</ele><time>2026-04-28T09:17:38.705Z</time></trkpt><trkpt lat="43.4502967" lon="11.581845"><ele>466.0</ele><time>2026-04-28T09:17:39.705Z</time></trkpt><trkpt lat="43.4504067" lon="11.5818267"><ele>465.33333333333337</ele><time>2026-04-28T09:17:40.705Z</time></trkpt><trkpt lat="43.4505083" lon="11.5818033"><ele>464.6666666666667</ele><time>2026-04-28T09:17:41.705Z</time></trkpt><trkpt lat="43.4505983" lon="11.5817833"><ele>464.0</ele><time>2026-04-28T09:17:42.706Z</time></trkpt><trkpt lat="43.4506733" lon="11.581775"><ele>463.33333333333337</ele><time>2026-04-28T09:17:43.706Z</time></trkpt><trkpt lat="43.4507433" lon="11.581775"><ele>462.6666666666667</ele><time>2026-04-28T09:17:44.705Z</time></trkpt><trkpt lat="43.4508067" lon="11.5817883"><ele>462.0</ele><time>2026-04-28T09:17:45.706Z</time></trkpt><trkpt lat="43.450925" lon="11.5818483"><ele>462.0</ele><time>2026-04-28T09:17:47.705Z</time></trkpt><trkpt lat="43.4510133" lon="11.5819167"><ele>462.0</ele><time>2026-04-28T09:17:49.706Z</time></trkpt><trkpt lat="43.451085" lon="11.5819417"><ele>462.0</ele><time>2026-04-28T09:17:51.706Z</time></trkpt><trkpt lat="43.45115" lon="11.5819183"><ele>462.0</ele><time>2026-04-28T09:17:53.706Z</time></trkpt><trkpt lat="43.4512" lon="11.58184"><ele>462.0</ele><time>2026-04-28T09:17:55.707Z</time></trkpt><trkpt lat="43.4511983" lon="11.5816917"><ele>462.0</ele><time>2026-04-28T09:17:57.706Z</time></trkpt><trkpt lat="43.45118" lon="11.58157"><ele>462.0</ele><time>2026-04-28T09:17:58.705Z</time></trkpt><trkpt lat="43.4511667" lon="11.5814667"><ele>462.0</ele><time>2026-04-28T09:17:59.704Z</time></trkpt><trkpt lat="43.45116" lon="11.58137"><ele>462.0</ele><time>2026-04-28T09:18:00.705Z</time></trkpt><trkpt lat="43.4511683" lon="11.5812667"><ele>462.0</ele><time>2026-04-28T09:18:01.706Z</time></trkpt><trkpt lat="43.45119" lon="11.5811633"><ele>462.0</ele><time>2026-04-28T09:18:02.704Z</time></trkpt><trkpt lat="43.4512317" lon="11.58107"><ele>462.0</ele><time>2026-04-28T09:18:03.706Z</time></trkpt><trkpt lat="43.4512883" lon="11.5809833"><ele>459.0</ele><time>2026-04-28T09:18:04.705Z</time></trkpt><trkpt lat="43.4513567" lon="11.5809033"><ele>456.00000000000006</ele><time>2026-04-28T09:18:05.706Z</time></trkpt><trkpt lat="43.451435" lon="11.5808317"><ele>453.00000000000006</ele><time>2026-04-28T09:18:06.703Z</time></trkpt><trkpt lat="43.4515133" lon="11.58076"><ele>450.0</ele><time>2026-04-28T09:18:07.706Z</time></trkpt><trkpt lat="43.4515867" lon="11.5806917"><ele>447.0</ele><time>2026-04-28T09:18:08.704Z</time></trkpt><trkpt lat="43.451665" lon="11.58063"><ele>447.0</ele><time>2026-04-28T09:18:09.705Z</time></trkpt><trkpt lat="43.4517483" lon="11.5805767"><ele>447.0</ele><time>2026-04-28T09:18:10.704Z</time></trkpt><trkpt lat="43.4518367" lon="11.5805383"><ele>447.0</ele><time>2026-04-28T09:18:11.705Z</time></trkpt><trkpt lat="43.4519183" lon="11.5805083"><ele>447.0</ele><time>2026-04-28T09:18:12.705Z</time></trkpt><trkpt lat="43.4519933" lon="11.5805017"><ele>447.0</ele><time>2026-04-28T09:18:13.706Z</time></trkpt><trkpt lat="43.4520617" lon="11.5805017"><ele>447.0</ele><time>2026-04-28T09:18:14.704Z</time></trkpt><trkpt lat="43.4521783" lon="11.5805283"><ele>445.6666666666667</ele><time>2026-04-28T09:18:16.705Z</time></trkpt><trkpt lat="43.4522417" lon="11.5805417"><ele>444.33333333333337</ele><time>2026-04-28T09:18:17.704Z</time></trkpt><trkpt lat="43.4523183" lon="11.5805583"><ele>443.0</ele><time>2026-04-28T09:18:18.705Z</time></trkpt><trkpt lat="43.452405" lon="11.58055"><ele>441.6666666666667</ele><time>2026-04-28T09:18:19.706Z</time></trkpt><trkpt lat="43.4524883" lon="11.580535"><ele>440.33333333333337</ele><time>2026-04-28T09:18:20.704Z</time></trkpt><trkpt lat="43.452575" lon="11.580515"><ele>439.0</ele><time>2026-04-28T09:18:21.706Z</time></trkpt><trkpt lat="43.4526683" lon="11.5804867"><ele>439.0</ele><time>2026-04-28T09:18:22.705Z</time></trkpt><trkpt lat="43.4527667" lon="11.58046"><ele>439.0</ele><time>2026-04-28T09:18:23.705Z</time></trkpt><trkpt lat="43.452865" lon="11.5804433"><ele>439.0</ele><time>2026-04-28T09:18:24.704Z</time></trkpt><trkpt lat="43.4529633" lon="11.580435"><ele>439.0</ele><time>2026-04-28T09:18:25.705Z</time></trkpt><trkpt lat="43.4530567" lon="11.5804367"><ele>439.0</ele><time>2026-04-28T09:18:26.704Z</time></trkpt><trkpt lat="43.4531417" lon="11.5804517"><ele>437.0</ele><time>2026-04-28T09:18:27.709Z</time></trkpt><trkpt lat="43.4532267" lon="11.5804883"><ele>435.0</ele><time>2026-04-28T09:18:28.707Z</time></trkpt><trkpt lat="43.4533117" lon="11.5805383"><ele>433.0</ele><time>2026-04-28T09:18:29.703Z</time></trkpt><trkpt lat="43.4533917" lon="11.5806017"><ele>431.0</ele><time>2026-04-28T09:18:30.705Z</time></trkpt><trkpt lat="43.4534633" lon="11.5806783"><ele>429.0</ele><time>2026-04-28T09:18:31.705Z</time></trkpt><trkpt lat="43.4535317" lon="11.5807667"><ele>429.0</ele><time>2026-04-28T09:18:32.705Z</time></trkpt><trkpt lat="43.4536017" lon="11.5808617"><ele>429.0</ele><time>2026-04-28T09:18:33.706Z</time></trkpt><trkpt lat="43.453665" lon="11.58095"><ele>429.0</ele><time>2026-04-28T09:18:34.705Z</time></trkpt><trkpt lat="43.4537233" lon="11.5810333"><ele>429.0</ele><time>2026-04-28T09:18:35.704Z</time></trkpt><trkpt lat="43.4537817" lon="11.58111"><ele>429.0</ele><time>2026-04-28T09:18:36.705Z</time></trkpt><trkpt lat="43.4538433" lon="11.5811833"><ele>429.0</ele><time>2026-04-28T09:18:37.704Z</time></trkpt><trkpt lat="43.4539033" lon="11.5812433"><ele>427.0</ele><time>2026-04-28T09:18:38.705Z</time></trkpt><trkpt lat="43.4539633" lon="11.5813017"><ele>425.0</ele><time>2026-04-28T09:18:39.705Z</time></trkpt><trkpt lat="43.4540217" lon="11.5813583"><ele>423.0</ele><time>2026-04-28T09:18:40.704Z</time></trkpt><trkpt lat="43.45408" lon="11.5814117"><ele>421.0</ele><time>2026-04-28T09:18:41.704Z</time></trkpt><trkpt lat="43.4541383" lon="11.5814517"><ele>419.0</ele><time>2026-04-28T09:18:42.705Z</time></trkpt><trkpt lat="43.4542583" lon="11.5814817"><ele>417.0</ele><time>2026-04-28T09:18:44.705Z</time></trkpt><trkpt lat="43.454375" lon="11.58148"><ele>417.0</ele><time>2026-04-28T09:18:46.705Z</time></trkpt><trkpt lat="43.4544783" lon="11.5814633"><ele>417.0</ele><time>2026-04-28T09:18:48.705Z</time></trkpt><trkpt lat="43.4545733" lon="11.5814083"><ele>417.0</ele><time>2026-04-28T09:18:50.705Z</time></trkpt><trkpt lat="43.4546717" lon="11.5812833"><ele>417.0</ele><time>2026-04-28T09:18:52.705Z</time></trkpt><trkpt lat="43.4547117" lon="11.5812033"><ele>417.0</ele><time>2026-04-28T09:18:53.704Z</time></trkpt><trkpt lat="43.45475" lon="11.5811067"><ele>418.6666666666667</ele><time>2026-04-28T09:18:54.706Z</time></trkpt><trkpt lat="43.4547817" lon="11.5810117"><ele>420.33333333333337</ele><time>2026-04-28T09:18:55.706Z</time></trkpt><trkpt lat="43.4548033" lon="11.5809067"><ele>422.0</ele><time>2026-04-28T09:18:56.705Z</time></trkpt><trkpt lat="43.4548183" lon="11.5808083"><ele>423.6666666666667</ele><time>2026-04-28T09:18:57.707Z</time></trkpt><trkpt lat="43.454835" lon="11.58072"><ele>425.33333333333337</ele><time>2026-04-28T09:18:58.705Z</time></trkpt><trkpt lat="43.45486" lon="11.5806367"><ele>427.0</ele><time>2026-04-28T09:18:59.704Z</time></trkpt><trkpt lat="43.4549267" lon="11.5804967"><ele>427.00000000000006</ele><time>2026-04-28T09:19:01.705Z</time></trkpt><trkpt lat="43.4550183" lon="11.58038"><ele>427.0</ele><time>2026-04-28T09:19:03.707Z</time></trkpt><trkpt lat="43.4550817" lon="11.5803283"><ele>427.0</ele><time>2026-04-28T09:19:04.704Z</time></trkpt><trkpt lat="43.4551567" lon="11.5802867"><ele>427.0</ele><time>2026-04-28T09:19:05.704Z</time></trkpt><trkpt lat="43.4552317" lon="11.5802333"><ele>427.00000000000006</ele><time>2026-04-28T09:19:06.704Z</time></trkpt><trkpt lat="43.45529" lon="11.58018"><ele>427.0</ele><time>2026-04-28T09:19:07.705Z</time></trkpt><trkpt lat="43.455335" lon="11.5801117"><ele>429.1666666666667</ele><time>2026-04-28T09:19:08.704Z</time></trkpt><trkpt lat="43.4553683" lon="11.5800283"><ele>431.33333333333337</ele><time>2026-04-28T09:19:09.706Z</time></trkpt><trkpt lat="43.455395" lon="11.5799367"><ele>433.5</ele><time>2026-04-28T09:19:10.705Z</time></trkpt><trkpt lat="43.4554117" lon="11.5798383"><ele>435.66666666666663</ele><time>2026-04-28T09:19:11.704Z</time></trkpt><trkpt lat="43.45543" lon="11.5797333"><ele>437.8333333333333</ele><time>2026-04-28T09:19:12.705Z</time></trkpt><trkpt lat="43.4554517" lon="11.57962"><ele>440.0</ele><time>2026-04-28T09:19:13.706Z</time></trkpt><trkpt lat="43.455465" lon="11.5795083"><ele>440.3333333333333</ele><time>2026-04-28T09:19:14.706Z</time></trkpt><trkpt lat="43.4554783" lon="11.579395"><ele>440.66666666666663</ele><time>2026-04-28T09:19:15.705Z</time></trkpt><trkpt lat="43.4554867" lon="11.5792733"><ele>441.0</ele><time>2026-04-28T09:19:16.704Z</time></trkpt><trkpt lat="43.4554933" lon="11.5791583"><ele>441.33333333333337</ele><time>2026-04-28T09:19:17.704Z</time></trkpt><trkpt lat="43.4555033" lon="11.5790233"><ele>441.6666666666667</ele><time>2026-04-28T09:19:18.706Z</time></trkpt><trkpt lat="43.45551" lon="11.5789033"><ele>442.0</ele><time>2026-04-28T09:19:19.705Z</time></trkpt><trkpt lat="43.455525" lon="11.5788"><ele>442.00000000000006</ele><time>2026-04-28T09:19:20.704Z</time></trkpt><trkpt lat="43.45554" lon="11.5787067"><ele>442.0</ele><time>2026-04-28T09:19:21.705Z</time></trkpt><trkpt lat="43.4555767" lon="11.5786233"><ele>442.0</ele><time>2026-04-28T09:19:22.704Z</time></trkpt><trkpt lat="43.4556367" lon="11.5785533"><ele>442.0</ele><time>2026-04-28T09:19:23.704Z</time></trkpt><trkpt lat="43.455705" lon="11.578485"><ele>442.00000000000006</ele><time>2026-04-28T09:19:24.704Z</time></trkpt><trkpt lat="43.45577" lon="11.5784117"><ele>442.0</ele><time>2026-04-28T09:19:25.705Z</time></trkpt><trkpt lat="43.4558367" lon="11.5783333"><ele>444.0</ele><time>2026-04-28T09:19:26.704Z</time></trkpt><trkpt lat="43.4558983" lon="11.578255"><ele>446.0</ele><time>2026-04-28T09:19:27.706Z</time></trkpt><trkpt lat="43.45595" lon="11.5781917"><ele>448.0</ele><time>2026-04-28T09:19:28.704Z</time></trkpt><trkpt lat="43.455995" lon="11.57812"><ele>450.0</ele><time>2026-04-28T09:19:29.703Z</time></trkpt><trkpt lat="43.4560417" lon="11.578035"><ele>451.99999999999994</ele><time>2026-04-28T09:19:30.704Z</time></trkpt><trkpt lat="43.45608" lon="11.5779417"><ele>454.0</ele><time>2026-04-28T09:19:31.705Z</time></trkpt><trkpt lat="43.4561117" lon="11.577855"><ele>456.0</ele><time>2026-04-28T09:19:32.703Z</time></trkpt><trkpt lat="43.45614" lon="11.5777767"><ele>457.0</ele><time>2026-04-28T09:19:33.704Z</time></trkpt><trkpt lat="43.456155" lon="11.5776883"><ele>458.0</ele><time>2026-04-28T09:19:34.704Z</time></trkpt><trkpt lat="43.4561633" lon="11.5776"><ele>459.0</ele><time>2026-04-28T09:19:35.703Z</time></trkpt><trkpt lat="43.4561667" lon="11.57751"><ele>460.0</ele><time>2026-04-28T09:19:36.705Z</time></trkpt><trkpt lat="43.4561667" lon="11.5773467"><ele>461.0</ele><time>2026-04-28T09:19:38.704Z</time></trkpt><trkpt lat="43.4562233" lon="11.5772017"><ele>462.0</ele><time>2026-04-28T09:19:40.706Z</time></trkpt><trkpt lat="43.45627" lon="11.5771117"><ele>462.1666666666667</ele><time>2026-04-28T09:19:41.704Z</time></trkpt><trkpt lat="43.4563267" lon="11.57701"><ele>462.33333333333337</ele><time>2026-04-28T09:19:42.703Z</time></trkpt><trkpt lat="43.4563717" lon="11.5769033"><ele>462.5</ele><time>2026-04-28T09:19:43.704Z</time></trkpt><trkpt lat="43.4564117" lon="11.5767933"><ele>462.6666666666667</ele><time>2026-04-28T09:19:44.704Z</time></trkpt><trkpt lat="43.456455" lon="11.5766833"><ele>462.83333333333337</ele><time>2026-04-28T09:19:45.704Z</time></trkpt><trkpt lat="43.456495" lon="11.576585"><ele>463.0</ele><time>2026-04-28T09:19:46.704Z</time></trkpt><trkpt lat="43.4565333" lon="11.5764983"><ele>463.0</ele><time>2026-04-28T09:19:47.704Z</time></trkpt><trkpt lat="43.4565833" lon="11.5764067"><ele>462.99999999999994</ele><time>2026-04-28T09:19:48.705Z</time></trkpt><trkpt lat="43.4566467" lon="11.576305"><ele>462.99999999999994</ele><time>2026-04-28T09:19:49.706Z</time></trkpt><trkpt lat="43.4567067" lon="11.5762083"><ele>463.0</ele><time>2026-04-28T09:19:50.705Z</time></trkpt><trkpt lat="43.4567717" lon="11.5761067"><ele>463.0</ele><time>2026-04-28T09:19:51.707Z</time></trkpt><trkpt lat="43.4568367" lon="11.57601"><ele>463.00000000000006</ele><time>2026-04-28T09:19:52.705Z</time></trkpt><trkpt lat="43.4568983" lon="11.575935"><ele>463.0</ele><time>2026-04-28T09:19:53.704Z</time></trkpt><trkpt lat="43.4569567" lon="11.5758767"><ele>463.0</ele><time>2026-04-28T09:19:54.704Z</time></trkpt><trkpt lat="43.4570283" lon="11.5758533"><ele>463.0</ele><time>2026-04-28T09:19:55.704Z</time></trkpt><trkpt lat="43.457105" lon="11.57583"><ele>463.00000000000006</ele><time>2026-04-28T09:19:56.704Z</time></trkpt><trkpt lat="43.457175" lon="11.5758"><ele>463.0</ele><time>2026-04-28T09:19:57.706Z</time></trkpt><trkpt lat="43.4572417" lon="11.5757667"><ele>463.6666666666667</ele><time>2026-04-28T09:19:58.704Z</time></trkpt><trkpt lat="43.4573067" lon="11.5757233"><ele>464.33333333333337</ele><time>2026-04-28T09:19:59.705Z</time></trkpt><trkpt lat="43.4573733" lon="11.57568"><ele>465.0</ele><time>2026-04-28T09:20:00.705Z</time></trkpt><trkpt lat="43.4574367" lon="11.575645"><ele>465.66666666666663</ele><time>2026-04-28T09:20:01.705Z</time></trkpt><trkpt lat="43.45755" lon="11.575615"><ele>466.3333333333333</ele><time>2026-04-28T09:20:03.705Z</time></trkpt><trkpt lat="43.4576317" lon="11.5756167"><ele>467.0</ele><time>2026-04-28T09:20:05.704Z</time></trkpt><trkpt lat="43.4577167" lon="11.575585"><ele>467.0</ele><time>2026-04-28T09:20:07.705Z</time></trkpt><trkpt lat="43.4578117" lon="11.5755117"><ele>467.00000000000006</ele><time>2026-04-28T09:20:09.705Z</time></trkpt><trkpt lat="43.4578917" lon="11.5753817"><ele>467.00000000000006</ele><time>2026-04-28T09:20:11.705Z</time></trkpt><trkpt lat="43.4579317" lon="11.5752967"><ele>467.0</ele><time>2026-04-28T09:20:12.704Z</time></trkpt><trkpt lat="43.4579617" lon="11.5752067"><ele>467.0</ele><time>2026-04-28T09:20:13.706Z</time></trkpt><trkpt lat="43.4580067" lon="11.5751067"><ele>464.66666666666663</ele><time>2026-04-28T09:20:14.704Z</time></trkpt><trkpt lat="43.4580433" lon="11.5750133"><ele>462.3333333333333</ele><time>2026-04-28T09:20:15.705Z</time></trkpt><trkpt lat="43.4580817" lon="11.5749433"><ele>460.0</ele><time>2026-04-28T09:20:16.706Z</time></trkpt><trkpt lat="43.4581483" lon="11.57481"><ele>457.66666666666663</ele><time>2026-04-28T09:20:18.705Z</time></trkpt><trkpt lat="43.4582033" lon="11.5747583"><ele>455.3333333333333</ele><time>2026-04-28T09:20:19.705Z</time></trkpt><trkpt lat="43.4582933" lon="11.5746817"><ele>453.0</ele><time>2026-04-28T09:20:21.706Z</time></trkpt><trkpt lat="43.458425" lon="11.5746867"><ele>453.0</ele><time>2026-04-28T09:20:23.704Z</time></trkpt><trkpt lat="43.458515" lon="11.5747"><ele>452.99999999999994</ele><time>2026-04-28T09:20:24.704Z</time></trkpt><trkpt lat="43.4586067" lon="11.574705"><ele>452.99999999999994</ele><time>2026-04-28T09:20:25.704Z</time></trkpt><trkpt lat="43.4586967" lon="11.574705"><ele>453.0</ele><time>2026-04-28T09:20:26.705Z</time></trkpt><trkpt lat="43.45879" lon="11.574715"><ele>453.0</ele><time>2026-04-28T09:20:27.705Z</time></trkpt><trkpt lat="43.45889" lon="11.57473"><ele>451.59999999999997</ele><time>2026-04-28T09:20:28.702Z</time></trkpt><trkpt lat="43.45899" lon="11.574735"><ele>450.19999999999993</ele><time>2026-04-28T09:20:29.704Z</time></trkpt><trkpt lat="43.4590933" lon="11.574735"><ele>448.8</ele><time>2026-04-28T09:20:30.705Z</time></trkpt><trkpt lat="43.4591967" lon="11.5747433"><ele>447.4</ele><time>2026-04-28T09:20:31.704Z</time></trkpt><trkpt lat="43.4592933" lon="11.5747283"><ele>446.0</ele><time>2026-04-28T09:20:32.705Z</time></trkpt><trkpt lat="43.4593817" lon="11.5746883"><ele>446.0</ele><time>2026-04-28T09:20:33.706Z</time></trkpt><trkpt lat="43.4594783" lon="11.5746283"><ele>446.0</ele><time>2026-04-28T09:20:34.705Z</time></trkpt><trkpt lat="43.4595933" lon="11.5745683"><ele>446.0</ele><time>2026-04-28T09:20:35.704Z</time></trkpt><trkpt lat="43.4596917" lon="11.574515"><ele>446.0</ele><time>2026-04-28T09:20:36.705Z</time></trkpt><trkpt lat="43.459825" lon="11.5745133"><ele>443.5</ele><time>2026-04-28T09:20:37.707Z</time></trkpt><trkpt lat="43.4599567" lon="11.5744833"><ele>441.0</ele><time>2026-04-28T09:20:38.705Z</time></trkpt><trkpt lat="43.4601083" lon="11.5744633"><ele>438.5</ele><time>2026-04-28T09:20:39.705Z</time></trkpt><trkpt lat="43.460235" lon="11.5744517"><ele>436.0</ele><time>2026-04-28T09:20:40.705Z</time></trkpt><trkpt lat="43.4603617" lon="11.5744483"><ele>436.0</ele><time>2026-04-28T09:20:41.704Z</time></trkpt><trkpt lat="43.4604767" lon="11.574445"><ele>436.0</ele><time>2026-04-28T09:20:42.705Z</time></trkpt><trkpt lat="43.4605833" lon="11.574435"><ele>436.0</ele><time>2026-04-28T09:20:43.706Z</time></trkpt><trkpt lat="43.4606783" lon="11.5744283"><ele>436.0</ele><time>2026-04-28T09:20:44.705Z</time></trkpt><trkpt lat="43.46077" lon="11.5744217"><ele>436.0</ele><time>2026-04-28T09:20:45.705Z</time></trkpt><trkpt lat="43.4608583" lon="11.5744033"><ele>436.00000000000006</ele><time>2026-04-28T09:20:46.705Z</time></trkpt><trkpt lat="43.4609383" lon="11.5743683"><ele>436.0</ele><time>2026-04-28T09:20:47.705Z</time></trkpt><trkpt lat="43.4609967" lon="11.5742983"><ele>436.0</ele><time>2026-04-28T09:20:48.704Z</time></trkpt><trkpt lat="43.4610433" lon="11.5742067"><ele>436.0</ele><time>2026-04-28T09:20:49.704Z</time></trkpt><trkpt lat="43.4610933" lon="11.5741333"><ele>436.00000000000006</ele><time>2026-04-28T09:20:50.705Z</time></trkpt><trkpt lat="43.4611517" lon="11.574085"><ele>436.0</ele><time>2026-04-28T09:20:51.706Z</time></trkpt><trkpt lat="43.4612167" lon="11.5740367"><ele>436.00000000000006</ele><time>2026-04-28T09:20:52.705Z</time></trkpt><trkpt lat="43.4612817" lon="11.5739683"><ele>436.0</ele><time>2026-04-28T09:20:53.705Z</time></trkpt><trkpt lat="43.4613533" lon="11.5738867"><ele>436.0</ele><time>2026-04-28T09:20:54.705Z</time></trkpt><trkpt lat="43.46142" lon="11.573815"><ele>436.0</ele><time>2026-04-28T09:20:55.705Z</time></trkpt><trkpt lat="43.461485" lon="11.573745"><ele>436.00000000000006</ele><time>2026-04-28T09:20:56.705Z</time></trkpt><trkpt lat="43.46155" lon="11.5736817"><ele>436.0</ele><time>2026-04-28T09:20:57.707Z</time></trkpt><trkpt lat="43.4616183" lon="11.5736317"><ele>437.50000000000006</ele><time>2026-04-28T09:20:58.705Z</time></trkpt><trkpt lat="43.46169" lon="11.5735933"><ele>439.0</ele><time>2026-04-28T09:20:59.704Z</time></trkpt><trkpt lat="43.4618033" lon="11.57356"><ele>440.5</ele><time>2026-04-28T09:21:01.706Z</time></trkpt><trkpt lat="43.461865" lon="11.5736267"><ele>442.0</ele><time>2026-04-28T09:21:03.706Z</time></trkpt><trkpt lat="43.4619" lon="11.573735"><ele>443.50000000000006</ele><time>2026-04-28T09:21:04.705Z</time></trkpt><trkpt lat="43.4619417" lon="11.573835"><ele>445.0</ele><time>2026-04-28T09:21:05.705Z</time></trkpt><trkpt lat="43.4619933" lon="11.5739317"><ele>445.00000000000006</ele><time>2026-04-28T09:21:06.703Z</time></trkpt><trkpt lat="43.46204" lon="11.57401"><ele>445.0</ele><time>2026-04-28T09:21:07.706Z</time></trkpt><trkpt lat="43.46211" lon="11.5741067"><ele>445.0</ele><time>2026-04-28T09:21:08.705Z</time></trkpt><trkpt lat="43.462175" lon="11.5741983"><ele>445.0</ele><time>2026-04-28T09:21:09.704Z</time></trkpt><trkpt lat="43.4622333" lon="11.5742833"><ele>445.00000000000006</ele><time>2026-04-28T09:21:10.704Z</time></trkpt><trkpt lat="43.4622867" lon="11.5743567"><ele>445.0</ele><time>2026-04-28T09:21:11.704Z</time></trkpt><trkpt lat="43.4623467" lon="11.57441"><ele>445.83333333333337</ele><time>2026-04-28T09:21:12.705Z</time></trkpt><trkpt lat="43.462415" lon="11.5744367"><ele>446.6666666666667</ele><time>2026-04-28T09:21:13.705Z</time></trkpt><trkpt lat="43.4624883" lon="11.5744433"><ele>447.5</ele><time>2026-04-28T09:21:14.705Z</time></trkpt><trkpt lat="43.46257" lon="11.574435"><ele>448.33333333333337</ele><time>2026-04-28T09:21:15.705Z</time></trkpt><trkpt lat="43.4626467" lon="11.5744183"><ele>449.1666666666667</ele><time>2026-04-28T09:21:16.706Z</time></trkpt><trkpt lat="43.4627117" lon="11.5743817"><ele>450.0</ele><time>2026-04-28T09:21:17.704Z</time></trkpt><trkpt lat="43.46278" lon="11.5743267"><ele>450.0</ele><time>2026-04-28T09:21:18.705Z</time></trkpt><trkpt lat="43.462855" lon="11.574265"><ele>450.0</ele><time>2026-04-28T09:21:19.706Z</time></trkpt><trkpt lat="43.4629283" lon="11.5741917"><ele>450.0</ele><time>2026-04-28T09:21:20.705Z</time></trkpt><trkpt lat="43.463005" lon="11.5741317"><ele>450.0</ele><time>2026-04-28T09:21:21.706Z</time></trkpt><trkpt lat="43.4630767" lon="11.574075"><ele>450.0</ele><time>2026-04-28T09:21:22.704Z</time></trkpt><trkpt lat="43.463145" lon="11.574015"><ele>450.0</ele><time>2026-04-28T09:21:23.704Z</time></trkpt><trkpt lat="43.46321" lon="11.5739633"><ele>448.5</ele><time>2026-04-28T09:21:24.705Z</time></trkpt><trkpt lat="43.4632717" lon="11.5739133"><ele>447.0</ele><time>2026-04-28T09:21:25.704Z</time></trkpt><trkpt lat="43.4633317" lon="11.5738783"><ele>445.5</ele><time>2026-04-28T09:21:26.705Z</time></trkpt><trkpt lat="43.4634583" lon="11.573855"><ele>444.0</ele><time>2026-04-28T09:21:28.705Z</time></trkpt><trkpt lat="43.46353" lon="11.5738683"><ele>442.5</ele><time>2026-04-28T09:21:29.704Z</time></trkpt><trkpt lat="43.463595" lon="11.5738833"><ele>441.0</ele><time>2026-04-28T09:21:30.706Z</time></trkpt><trkpt lat="43.463655" lon="11.5739117"><ele>441.0</ele><time>2026-04-28T09:21:31.705Z</time></trkpt><trkpt lat="43.4637167" lon="11.573945"><ele>441.0</ele><time>2026-04-28T09:21:32.705Z</time></trkpt><trkpt lat="43.4637733" lon="11.573995"><ele>441.0</ele><time>2026-04-28T09:21:33.705Z</time></trkpt><trkpt lat="43.4638383" lon="11.5740583"><ele>441.0</ele><time>2026-04-28T09:21:34.705Z</time></trkpt><trkpt lat="43.4638967" lon="11.574115"><ele>441.0</ele><time>2026-04-28T09:21:35.704Z</time></trkpt><trkpt lat="43.4640083" lon="11.5741983"><ele>441.0</ele><time>2026-04-28T09:21:37.699Z</time></trkpt><trkpt lat="43.46413" lon="11.5742383"><ele>439.6666666666667</ele><time>2026-04-28T09:21:39.706Z</time></trkpt><trkpt lat="43.4642517" lon="11.57429"><ele>438.33333333333337</ele><time>2026-04-28T09:21:41.705Z</time></trkpt><trkpt lat="43.4643133" lon="11.5743333"><ele>437.0</ele><time>2026-04-28T09:21:42.705Z</time></trkpt><trkpt lat="43.4643767" lon="11.5743817"><ele>435.6666666666667</ele><time>2026-04-28T09:21:43.706Z</time></trkpt><trkpt lat="43.4644467" lon="11.574435"><ele>434.33333333333337</ele><time>2026-04-28T09:21:44.705Z</time></trkpt><trkpt lat="43.464515" lon="11.5744833"><ele>433.0</ele><time>2026-04-28T09:21:45.705Z</time></trkpt><trkpt lat="43.4645817" lon="11.57453"><ele>430.33333333333337</ele><time>2026-04-28T09:21:46.704Z</time></trkpt><trkpt lat="43.4646467" lon="11.57458"><ele>427.6666666666667</ele><time>2026-04-28T09:21:47.703Z</time></trkpt><trkpt lat="43.4647117" lon="11.5746267"><ele>425.0</ele><time>2026-04-28T09:21:48.705Z</time></trkpt><trkpt lat="43.464775" lon="11.5746717"><ele>422.33333333333337</ele><time>2026-04-28T09:21:49.704Z</time></trkpt><trkpt lat="43.464835" lon="11.5747167"><ele>419.6666666666667</ele><time>2026-04-28T09:21:50.706Z</time></trkpt><trkpt lat="43.4649467" lon="11.574795"><ele>417.0</ele><time>2026-04-28T09:21:52.705Z</time></trkpt><trkpt lat="43.4650483" lon="11.5748883"><ele>417.0</ele><time>2026-04-28T09:21:54.705Z</time></trkpt><trkpt lat="43.4651033" lon="11.57494"><ele>417.0</ele><time>2026-04-28T09:21:55.706Z</time></trkpt><trkpt lat="43.4651583" lon="11.574995"><ele>417.0</ele><time>2026-04-28T09:21:56.706Z</time></trkpt><trkpt lat="43.4652517" lon="11.5750767"><ele>417.0</ele><time>2026-04-28T09:21:58.704Z</time></trkpt><trkpt lat="43.465305" lon="11.57513"><ele>417.0</ele><time>2026-04-28T09:22:00.703Z</time></trkpt><trkpt lat="43.465345" lon="11.5750233"><ele>417.0</ele><time>2026-04-28T09:22:05.703Z</time></trkpt><trkpt lat="43.4652967" lon="11.574895"><ele>417.0</ele><time>2026-04-28T09:22:07.705Z</time></trkpt><trkpt lat="43.4652567" lon="11.574785"><ele>417.0</ele><time>2026-04-28T09:22:08.707Z</time></trkpt><trkpt lat="43.4652033" lon="11.57466"><ele>417.0</ele><time>2026-04-28T09:22:09.706Z</time></trkpt><trkpt lat="43.46515" lon="11.5745117"><ele>417.0</ele><time>2026-04-28T09:22:10.705Z</time></trkpt><trkpt lat="43.4651117" lon="11.5743683"><ele>417.0</ele><time>2026-04-28T09:22:11.704Z</time></trkpt><trkpt lat="43.465075" lon="11.5742333"><ele>417.0</ele><time>2026-04-28T09:22:12.705Z</time></trkpt><trkpt lat="43.46504" lon="11.5740933"><ele>417.0</ele><time>2026-04-28T09:22:13.705Z</time></trkpt><trkpt lat="43.4650117" lon="11.5739517"><ele>417.0</ele><time>2026-04-28T09:22:14.705Z</time></trkpt><trkpt lat="43.4649917" lon="11.5738267"><ele>417.0</ele><time>2026-04-28T09:22:15.705Z</time></trkpt><trkpt lat="43.4649767" lon="11.5737233"><ele>417.0</ele><time>2026-04-28T09:22:16.706Z</time></trkpt><trkpt lat="43.4649567" lon="11.57364"><ele>417.0</ele><time>2026-04-28T09:22:17.703Z</time></trkpt><trkpt lat="43.4649417" lon="11.5734967"><ele>417.0</ele><time>2026-04-28T09:22:19.706Z</time></trkpt><trkpt lat="43.4649533" lon="11.5733967"><ele>417.0</ele><time>2026-04-28T09:22:21.707Z</time></trkpt><trkpt lat="43.4650517" lon="11.5733633"><ele>417.0</ele><time>2026-04-28T09:22:23.704Z</time></trkpt><trkpt lat="43.4651383" lon="11.5733433"><ele>417.0</ele><time>2026-04-28T09:22:24.705Z</time></trkpt><trkpt lat="43.4652367" lon="11.5733283"><ele>417.0</ele><time>2026-04-28T09:22:25.704Z</time></trkpt><trkpt lat="43.465335" lon="11.5733233"><ele>415.25</ele><time>2026-04-28T09:22:26.705Z</time></trkpt><trkpt lat="43.4654467" lon="11.5733133"><ele>413.5</ele><time>2026-04-28T09:22:27.706Z</time></trkpt><trkpt lat="43.4655717" lon="11.5733033"><ele>411.75</ele><time>2026-04-28T09:22:28.704Z</time></trkpt><trkpt lat="43.465705" lon="11.5732933"><ele>410.0</ele><time>2026-04-28T09:22:29.703Z</time></trkpt><trkpt lat="43.4658133" lon="11.57329"><ele>410.0</ele><time>2026-04-28T09:22:30.704Z</time></trkpt><trkpt lat="43.465935" lon="11.5732883"><ele>410.0</ele><time>2026-04-28T09:22:31.704Z</time></trkpt><trkpt lat="43.46606" lon="11.573285"><ele>410.0</ele><time>2026-04-28T09:22:32.704Z</time></trkpt><trkpt lat="43.46618" lon="11.57327"><ele>410.0</ele><time>2026-04-28T09:22:33.706Z</time></trkpt><trkpt lat="43.466275" lon="11.5732483"><ele>409.99999999999994</ele><time>2026-04-28T09:22:34.706Z</time></trkpt><trkpt lat="43.4663583" lon="11.5732183"><ele>410.0</ele><time>2026-04-28T09:22:35.705Z</time></trkpt><trkpt lat="43.4664267" lon="11.57316"><ele>410.0</ele><time>2026-04-28T09:22:36.704Z</time></trkpt><trkpt lat="43.4664783" lon="11.573075"><ele>410.0</ele><time>2026-04-28T09:22:37.704Z</time></trkpt><trkpt lat="43.4665083" lon="11.5729617"><ele>409.99999999999994</ele><time>2026-04-28T09:22:38.712Z</time></trkpt><trkpt lat="43.4665367" lon="11.5728533"><ele>410.0</ele><time>2026-04-28T09:22:39.705Z</time></trkpt><trkpt lat="43.4665417" lon="11.5727367"><ele>409.99999999999994</ele><time>2026-04-28T09:22:40.706Z</time></trkpt><trkpt lat="43.46654" lon="11.5726267"><ele>410.0</ele><time>2026-04-28T09:22:41.705Z</time></trkpt><trkpt lat="43.4665467" lon="11.57253"><ele>410.0</ele><time>2026-04-28T09:22:42.705Z</time></trkpt><trkpt lat="43.4665417" lon="11.5724383"><ele>410.0</ele><time>2026-04-28T09:22:43.705Z</time></trkpt><trkpt lat="43.4665833" lon="11.57229"><ele>409.99999999999994</ele><time>2026-04-28T09:22:45.705Z</time></trkpt><trkpt lat="43.4666533" lon="11.5722017"><ele>410.0</ele><time>2026-04-28T09:22:47.705Z</time></trkpt><trkpt lat="43.46674" lon="11.5721683"><ele>410.0</ele><time>2026-04-28T09:22:49.705Z</time></trkpt><trkpt lat="43.4668183" lon="11.5721867"><ele>410.0</ele><time>2026-04-28T09:22:50.706Z</time></trkpt><trkpt lat="43.4669517" lon="11.572245"><ele>410.0</ele><time>2026-04-28T09:22:51.706Z</time></trkpt><trkpt lat="43.4670683" lon="11.5722867"><ele>410.0</ele><time>2026-04-28T09:22:52.705Z</time></trkpt><trkpt lat="43.4671967" lon="11.5723183"><ele>409.66666666666663</ele><time>2026-04-28T09:22:53.704Z</time></trkpt><trkpt lat="43.4672967" lon="11.572335"><ele>409.3333333333333</ele><time>2026-04-28T09:22:54.704Z</time></trkpt><trkpt lat="43.467385" lon="11.5723433"><ele>409.0</ele><time>2026-04-28T09:22:55.706Z</time></trkpt><trkpt lat="43.467475" lon="11.572335"><ele>408.66666666666663</ele><time>2026-04-28T09:22:56.705Z</time></trkpt><trkpt lat="43.4675533" lon="11.5723117"><ele>408.3333333333333</ele><time>2026-04-28T09:22:57.706Z</time></trkpt><trkpt lat="43.4676267" lon="11.57227"><ele>408.0</ele><time>2026-04-28T09:22:58.706Z</time></trkpt><trkpt lat="43.467685" lon="11.57221"><ele>408.0</ele><time>2026-04-28T09:22:59.704Z</time></trkpt><trkpt lat="43.4677383" lon="11.572135"><ele>408.0</ele><time>2026-04-28T09:23:00.704Z</time></trkpt><trkpt lat="43.4677983" lon="11.57206"><ele>408.0</ele><time>2026-04-28T09:23:01.706Z</time></trkpt><trkpt lat="43.467835" lon="11.5719783"><ele>408.0</ele><time>2026-04-28T09:23:02.707Z</time></trkpt><trkpt lat="43.4678717" lon="11.5718183"><ele>408.0</ele><time>2026-04-28T09:23:04.704Z</time></trkpt><trkpt lat="43.46784" lon="11.5717333"><ele>408.0</ele><time>2026-04-28T09:23:05.703Z</time></trkpt><trkpt lat="43.467795" lon="11.5715967"><ele>408.0</ele><time>2026-04-28T09:23:07.706Z</time></trkpt><trkpt lat="43.4677483" lon="11.571505"><ele>408.0</ele><time>2026-04-28T09:23:09.705Z</time></trkpt><trkpt lat="43.4677033" lon="11.5713867"><ele>408.0</ele><time>2026-04-28T09:23:11.704Z</time></trkpt><trkpt lat="43.4677283" lon="11.5712667"><ele>408.0</ele><time>2026-04-28T09:23:13.705Z</time></trkpt><trkpt lat="43.4677817" lon="11.571125"><ele>408.0</ele><time>2026-04-28T09:23:15.705Z</time></trkpt><trkpt lat="43.4678117" lon="11.5710317"><ele>408.79999999999995</ele><time>2026-04-28T09:23:16.704Z</time></trkpt><trkpt lat="43.467835" lon="11.5708617"><ele>409.6</ele><time>2026-04-28T09:23:18.705Z</time></trkpt><trkpt lat="43.467845" lon="11.5707633"><ele>410.4</ele><time>2026-04-28T09:23:20.706Z</time></trkpt><trkpt lat="43.46793" lon="11.5706983"><ele>411.20000000000005</ele><time>2026-04-28T09:23:25.705Z</time></trkpt><trkpt lat="43.4680167" lon="11.5706583"><ele>412.0</ele><time>2026-04-28T09:23:27.703Z</time></trkpt><trkpt lat="43.468105" lon="11.5705783"><ele>409.0</ele><time>2026-04-28T09:23:29.703Z</time></trkpt><trkpt lat="43.4681767" lon="11.5705067"><ele>406.0</ele><time>2026-04-28T09:23:31.704Z</time></trkpt><trkpt lat="43.468225" lon="11.570385"><ele>403.0</ele><time>2026-04-28T09:23:33.706Z</time></trkpt><trkpt lat="43.4683" lon="11.5702483"><ele>400.0</ele><time>2026-04-28T09:23:34.705Z</time></trkpt><trkpt lat="43.468445" lon="11.5701033"><ele>400.0</ele><time>2026-04-28T09:23:35.705Z</time></trkpt><trkpt lat="43.4684933" lon="11.5699367"><ele>400.0</ele><time>2026-04-28T09:23:36.704Z</time></trkpt><trkpt lat="43.468525" lon="11.56986"><ele>400.0</ele><time>2026-04-28T09:23:37.705Z</time></trkpt><trkpt lat="43.4685833" lon="11.56976"><ele>400.0</ele><time>2026-04-28T09:23:39.705Z</time></trkpt><trkpt lat="43.4686817" lon="11.5697817"><ele>400.0</ele><time>2026-04-28T09:23:41.705Z</time></trkpt><trkpt lat="43.46882" lon="11.5698283"><ele>395.0</ele><time>2026-04-28T09:23:43.706Z</time></trkpt><trkpt lat="43.4689267" lon="11.5698267"><ele>390.0</ele><time>2026-04-28T09:23:44.704Z</time></trkpt><trkpt lat="43.4690167" lon="11.569865"><ele>385.0</ele><time>2026-04-28T09:23:45.705Z</time></trkpt><trkpt lat="43.4691133" lon="11.569895"><ele>380.0</ele><time>2026-04-28T09:23:46.704Z</time></trkpt><trkpt lat="43.4692067" lon="11.5699333"><ele>375.0</ele><time>2026-04-28T09:23:47.704Z</time></trkpt><trkpt lat="43.4693017" lon="11.5700017"><ele>375.0</ele><time>2026-04-28T09:23:48.704Z</time></trkpt><trkpt lat="43.469405" lon="11.57006"><ele>375.0</ele><time>2026-04-28T09:23:49.704Z</time></trkpt><trkpt lat="43.4694967" lon="11.5701333"><ele>375.0</ele><time>2026-04-28T09:23:50.704Z</time></trkpt><trkpt lat="43.4695767" lon="11.5702017"><ele>375.0</ele><time>2026-04-28T09:23:51.705Z</time></trkpt><trkpt lat="43.469655" lon="11.5702717"><ele>375.0</ele><time>2026-04-28T09:23:52.704Z</time></trkpt><trkpt lat="43.4697267" lon="11.570335"><ele>370.8333333333333</ele><time>2026-04-28T09:23:53.703Z</time></trkpt><trkpt lat="43.46979" lon="11.5704"><ele>366.6666666666667</ele><time>2026-04-28T09:23:54.705Z</time></trkpt><trkpt lat="43.46985" lon="11.5704483"><ele>362.5</ele><time>2026-04-28T09:23:55.705Z</time></trkpt><trkpt lat="43.4699183" lon="11.5704883"><ele>358.33333333333337</ele><time>2026-04-28T09:23:56.705Z</time></trkpt><trkpt lat="43.4700017" lon="11.5705"><ele>354.1666666666667</ele><time>2026-04-28T09:23:57.704Z</time></trkpt><trkpt lat="43.470095" lon="11.5704733"><ele>350.0</ele><time>2026-04-28T09:23:58.705Z</time></trkpt><trkpt lat="43.47018" lon="11.5704383"><ele>350.0</ele><time>2026-04-28T09:23:59.704Z</time></trkpt><trkpt lat="43.470245" lon="11.5704067"><ele>350.0</ele><time>2026-04-28T09:24:00.704Z</time></trkpt><trkpt lat="43.4703067" lon="11.57038"><ele>350.0</ele><time>2026-04-28T09:24:01.704Z</time></trkpt><trkpt lat="43.4703667" lon="11.5703533"><ele>350.0</ele><time>2026-04-28T09:24:03.707Z</time></trkpt><trkpt lat="43.4704067" lon="11.570285"><ele>350.0</ele><time>2026-04-28T09:24:05.704Z</time></trkpt><trkpt lat="43.4704167" lon="11.5701517"><ele>350.0</ele><time>2026-04-28T09:24:07.703Z</time></trkpt><trkpt lat="43.4703967" lon="11.570065"><ele>350.0</ele><time>2026-04-28T09:24:08.704Z</time></trkpt><trkpt lat="43.4703517" lon="11.5699683"><ele>350.4</ele><time>2026-04-28T09:24:09.705Z</time></trkpt><trkpt lat="43.470295" lon="11.5698683"><ele>350.8</ele><time>2026-04-28T09:24:10.704Z</time></trkpt><trkpt lat="43.4702417" lon="11.5697717"><ele>351.20000000000005</ele><time>2026-04-28T09:24:11.704Z</time></trkpt><trkpt lat="43.4701633" lon="11.5696633"><ele>351.6</ele><time>2026-04-28T09:24:12.704Z</time></trkpt><trkpt lat="43.4700883" lon="11.569555"><ele>352.0</ele><time>2026-04-28T09:24:13.707Z</time></trkpt><trkpt lat="43.47003" lon="11.5694483"><ele>352.0</ele><time>2026-04-28T09:24:14.702Z</time></trkpt><trkpt lat="43.46998" lon="11.5693317"><ele>352.0</ele><time>2026-04-28T09:24:15.705Z</time></trkpt><trkpt lat="43.46994" lon="11.5691867"><ele>352.0</ele><time>2026-04-28T09:24:16.703Z</time></trkpt><trkpt lat="43.4699017" lon="11.5690317"><ele>352.0</ele><time>2026-04-28T09:24:17.703Z</time></trkpt><trkpt lat="43.46987" lon="11.5688817"><ele>352.0</ele><time>2026-04-28T09:24:18.704Z</time></trkpt><trkpt lat="43.4698333" lon="11.5687367"><ele>350.8</ele><time>2026-04-28T09:24:19.704Z</time></trkpt><trkpt lat="43.4697933" lon="11.5686033"><ele>349.6</ele><time>2026-04-28T09:24:20.705Z</time></trkpt><trkpt lat="43.469765" lon="11.5684817"><ele>348.40000000000003</ele><time>2026-04-28T09:24:21.705Z</time></trkpt><trkpt lat="43.4697517" lon="11.568355"><ele>347.20000000000005</ele><time>2026-04-28T09:24:22.705Z</time></trkpt><trkpt lat="43.46975" lon="11.568225"><ele>346.0</ele><time>2026-04-28T09:24:23.703Z</time></trkpt><trkpt lat="43.4697467" lon="11.56809"><ele>346.0</ele><time>2026-04-28T09:24:24.706Z</time></trkpt><trkpt lat="43.4697417" lon="11.5679567"><ele>346.0</ele><time>2026-04-28T09:24:25.706Z</time></trkpt><trkpt lat="43.469715" lon="11.5678067"><ele>346.0</ele><time>2026-04-28T09:24:26.705Z</time></trkpt><trkpt lat="43.4696783" lon="11.56764"><ele>346.0</ele><time>2026-04-28T09:24:27.706Z</time></trkpt><trkpt lat="43.4696433" lon="11.567475"><ele>344.75</ele><time>2026-04-28T09:24:28.704Z</time></trkpt><trkpt lat="43.4696167" lon="11.5673133"><ele>343.5</ele><time>2026-04-28T09:24:29.703Z</time></trkpt><trkpt lat="43.469595" lon="11.5671567"><ele>342.25</ele><time>2026-04-28T09:24:30.704Z</time></trkpt><trkpt lat="43.4695783" lon="11.56699"><ele>341.0</ele><time>2026-04-28T09:24:31.704Z</time></trkpt><trkpt lat="43.469575" lon="11.566825"><ele>347.8</ele><time>2026-04-28T09:24:32.703Z</time></trkpt><trkpt lat="43.4695683" lon="11.5666733"><ele>354.6</ele><time>2026-04-28T09:24:33.706Z</time></trkpt><trkpt lat="43.46956" lon="11.5665417"><ele>361.4</ele><time>2026-04-28T09:24:34.705Z</time></trkpt><trkpt lat="43.4695617" lon="11.5664267"><ele>368.2</ele><time>2026-04-28T09:24:35.704Z</time></trkpt><trkpt lat="43.46955" lon="11.5663083"><ele>375.0</ele><time>2026-04-28T09:24:36.704Z</time></trkpt><trkpt lat="43.4695367" lon="11.566195"><ele>373.6</ele><time>2026-04-28T09:24:37.705Z</time></trkpt><trkpt lat="43.4695267" lon="11.56608"><ele>372.2</ele><time>2026-04-28T09:24:38.706Z</time></trkpt><trkpt lat="43.4695217" lon="11.5659633"><ele>370.79999999999995</ele><time>2026-04-28T09:24:39.705Z</time></trkpt><trkpt lat="43.469515" lon="11.5658417"><ele>369.4</ele><time>2026-04-28T09:24:40.705Z</time></trkpt><trkpt lat="43.4694933" lon="11.5657133"><ele>368.0</ele><time>2026-04-28T09:24:41.704Z</time></trkpt><trkpt lat="43.4694617" lon="11.5655833"><ele>368.0</ele><time>2026-04-28T09:24:42.705Z</time></trkpt><trkpt lat="43.4694317" lon="11.56545"><ele>368.0</ele><time>2026-04-28T09:24:43.705Z</time></trkpt><trkpt lat="43.469405" lon="11.56534"><ele>368.0</ele><time>2026-04-28T09:24:44.699Z</time></trkpt><trkpt lat="43.4693583" lon="11.5652083"><ele>368.0</ele><time>2026-04-28T09:24:45.704Z</time></trkpt><trkpt lat="43.4693117" lon="11.56507"><ele>368.0</ele><time>2026-04-28T09:24:46.705Z</time></trkpt><trkpt lat="43.4692717" lon="11.56494"><ele>366.4</ele><time>2026-04-28T09:24:47.704Z</time></trkpt><trkpt lat="43.46923" lon="11.5648083"><ele>364.79999999999995</ele><time>2026-04-28T09:24:48.704Z</time></trkpt><trkpt lat="43.469195" lon="11.5646883"><ele>363.2</ele><time>2026-04-28T09:24:49.706Z</time></trkpt><trkpt lat="43.4691567" lon="11.5645783"><ele>361.6</ele><time>2026-04-28T09:24:50.704Z</time></trkpt><trkpt lat="43.46912" lon="11.564475"><ele>360.0</ele><time>2026-04-28T09:24:51.705Z</time></trkpt><trkpt lat="43.4690867" lon="11.5643683"><ele>359.5</ele><time>2026-04-28T09:24:52.706Z</time></trkpt><trkpt lat="43.4690517" lon="11.56426"><ele>359.0</ele><time>2026-04-28T09:24:53.705Z</time></trkpt><trkpt lat="43.4690167" lon="11.5641483"><ele>358.5</ele><time>2026-04-28T09:24:54.706Z</time></trkpt><trkpt lat="43.4690017" lon="11.5640383"><ele>358.0</ele><time>2026-04-28T09:24:55.704Z</time></trkpt><trkpt lat="43.46899" lon="11.56394"><ele>357.5</ele><time>2026-04-28T09:24:56.705Z</time></trkpt><trkpt lat="43.4689717" lon="11.5638517"><ele>357.0</ele><time>2026-04-28T09:24:57.705Z</time></trkpt><trkpt lat="43.4689467" lon="11.5637533"><ele>357.5</ele><time>2026-04-28T09:24:58.703Z</time></trkpt><trkpt lat="43.4689167" lon="11.5636483"><ele>358.0</ele><time>2026-04-28T09:24:59.704Z</time></trkpt><trkpt lat="43.46888" lon="11.5635467"><ele>358.5</ele><time>2026-04-28T09:25:00.704Z</time></trkpt><trkpt lat="43.46885" lon="11.563465"><ele>359.0</ele><time>2026-04-28T09:25:01.704Z</time></trkpt><trkpt lat="43.4688017" lon="11.5633517"><ele>359.5</ele><time>2026-04-28T09:25:03.707Z</time></trkpt><trkpt lat="43.46889" lon="11.5633683"><ele>360.0</ele><time>2026-04-28T09:25:35.704Z</time></trkpt><trkpt lat="43.468955" lon="11.56336"><ele>360.0</ele><time>2026-04-28T09:25:37.706Z</time></trkpt><trkpt lat="43.4690183" lon="11.5633633"><ele>360.0</ele><time>2026-04-28T09:25:39.706Z</time></trkpt><trkpt lat="43.469085" lon="11.563395"><ele>360.0</ele><time>2026-04-28T09:25:42.704Z</time></trkpt><trkpt lat="43.46919" lon="11.5634367"><ele>360.0</ele><time>2026-04-28T09:25:45.705Z</time></trkpt><trkpt lat="43.4693083" lon="11.5634383"><ele>360.0</ele><time>2026-04-28T09:25:48.704Z</time></trkpt><trkpt lat="43.4693867" lon="11.563415"><ele>360.0</ele><time>2026-04-28T09:25:49.706Z</time></trkpt><trkpt lat="43.4695017" lon="11.5633733"><ele>360.0</ele><time>2026-04-28T09:25:50.705Z</time></trkpt><trkpt lat="43.4695733" lon="11.5633267"><ele>360.0</ele><time>2026-04-28T09:25:51.705Z</time></trkpt><trkpt lat="43.4696467" lon="11.563285"><ele>360.0</ele><time>2026-04-28T09:25:52.704Z</time></trkpt><trkpt lat="43.469715" lon="11.5632633"><ele>360.0</ele><time>2026-04-28T09:25:53.704Z</time></trkpt><trkpt lat="43.46982" lon="11.56325"><ele>360.0</ele><time>2026-04-28T09:25:54.704Z</time></trkpt><trkpt lat="43.4698933" lon="11.563255"><ele>360.0</ele><time>2026-04-28T09:25:55.702Z</time></trkpt><trkpt lat="43.4699567" lon="11.5632517"><ele>361.0</ele><time>2026-04-28T09:25:56.701Z</time></trkpt><trkpt lat="43.4700783" lon="11.563215"><ele>362.0</ele><time>2026-04-28T09:25:58.704Z</time></trkpt><trkpt lat="43.47017" lon="11.5631667"><ele>363.0</ele><time>2026-04-28T09:25:59.703Z</time></trkpt><trkpt lat="43.47024" lon="11.5631183"><ele>364.0</ele><time>2026-04-28T09:26:00.704Z</time></trkpt><trkpt lat="43.4703033" lon="11.5630717"><ele>365.0</ele><time>2026-04-28T09:26:01.705Z</time></trkpt><trkpt lat="43.4703817" lon="11.5630367"><ele>363.1666666666667</ele><time>2026-04-28T09:26:02.704Z</time></trkpt><trkpt lat="43.47046" lon="11.5630183"><ele>361.33333333333337</ele><time>2026-04-28T09:26:03.706Z</time></trkpt><trkpt lat="43.470535" lon="11.563"><ele>359.5</ele><time>2026-04-28T09:26:04.704Z</time></trkpt><trkpt lat="43.4706183" lon="11.5630117"><ele>357.6666666666667</ele><time>2026-04-28T09:26:05.704Z</time></trkpt><trkpt lat="43.4706983" lon="11.5630217"><ele>355.8333333333333</ele><time>2026-04-28T09:26:06.711Z</time></trkpt><trkpt lat="43.4707717" lon="11.5630133"><ele>354.0</ele><time>2026-04-28T09:26:07.705Z</time></trkpt><trkpt lat="43.4708467" lon="11.5629933"><ele>354.0</ele><time>2026-04-28T09:26:08.713Z</time></trkpt><trkpt lat="43.4709217" lon="11.56297"><ele>354.0</ele><time>2026-04-28T09:26:09.705Z</time></trkpt><trkpt lat="43.4709983" lon="11.5629617"><ele>354.0</ele><time>2026-04-28T09:26:10.705Z</time></trkpt><trkpt lat="43.4710667" lon="11.56296"><ele>354.0</ele><time>2026-04-28T09:26:11.706Z</time></trkpt><trkpt lat="43.4711317" lon="11.5629517"><ele>354.0</ele><time>2026-04-28T09:26:12.704Z</time></trkpt><trkpt lat="43.4712467" lon="11.56293"><ele>354.0</ele><time>2026-04-28T09:26:14.705Z</time></trkpt><trkpt lat="43.4713567" lon="11.5628733"><ele>356.0</ele><time>2026-04-28T09:26:16.705Z</time></trkpt><trkpt lat="43.4714217" lon="11.5628433"><ele>358.0</ele><time>2026-04-28T09:26:17.705Z</time></trkpt><trkpt lat="43.47149" lon="11.5628233"><ele>360.0</ele><time>2026-04-28T09:26:18.705Z</time></trkpt><trkpt lat="43.4715533" lon="11.56281"><ele>362.0</ele><time>2026-04-28T09:26:19.706Z</time></trkpt><trkpt lat="43.4716217" lon="11.562805"><ele>364.0</ele><time>2026-04-28T09:26:20.705Z</time></trkpt><trkpt lat="43.4717017" lon="11.56282"><ele>366.0</ele><time>2026-04-28T09:26:21.706Z</time></trkpt><trkpt lat="43.4717867" lon="11.5628317"><ele>368.0</ele><time>2026-04-28T09:26:22.706Z</time></trkpt><trkpt lat="43.47187" lon="11.5628533"><ele>365.14285714285717</ele><time>2026-04-28T09:26:23.704Z</time></trkpt><trkpt lat="43.471945" lon="11.562865"><ele>362.2857142857143</ele><time>2026-04-28T09:26:24.704Z</time></trkpt><trkpt lat="43.4720183" lon="11.56289"><ele>359.42857142857144</ele><time>2026-04-28T09:26:25.705Z</time></trkpt><trkpt lat="43.4720817" lon="11.5629117"><ele>356.57142857142856</ele><time>2026-04-28T09:26:26.705Z</time></trkpt><trkpt lat="43.4721483" lon="11.5629383"><ele>353.7142857142857</ele><time>2026-04-28T09:26:28.705Z</time></trkpt><trkpt lat="43.47221" lon="11.5630333"><ele>350.85714285714283</ele><time>2026-04-28T09:26:31.705Z</time></trkpt><trkpt lat="43.472255" lon="11.5631"><ele>348.0</ele><time>2026-04-28T09:26:33.706Z</time></trkpt><trkpt lat="43.4723117" lon="11.5631483"><ele>347.2</ele><time>2026-04-28T09:26:35.704Z</time></trkpt><trkpt lat="43.47239" lon="11.5631717"><ele>346.4</ele><time>2026-04-28T09:26:37.706Z</time></trkpt><trkpt lat="43.472495" lon="11.563175"><ele>345.59999999999997</ele><time>2026-04-28T09:26:39.705Z</time></trkpt><trkpt lat="43.4725767" lon="11.5632017"><ele>344.79999999999995</ele><time>2026-04-28T09:26:40.704Z</time></trkpt><trkpt lat="43.47268" lon="11.563235"><ele>344.0</ele><time>2026-04-28T09:26:42.704Z</time></trkpt><trkpt lat="43.4727567" lon="11.5632633"><ele>344.0</ele><time>2026-04-28T09:26:44.706Z</time></trkpt><trkpt lat="43.47283" lon="11.5633417"><ele>344.0</ele><time>2026-04-28T09:26:46.706Z</time></trkpt><trkpt lat="43.4729367" lon="11.563425"><ele>344.0</ele><time>2026-04-28T09:26:48.706Z</time></trkpt><trkpt lat="43.4730417" lon="11.5635083"><ele>344.0</ele><time>2026-04-28T09:26:50.705Z</time></trkpt><trkpt lat="43.473145" lon="11.563535"><ele>344.0</ele><time>2026-04-28T09:26:52.707Z</time></trkpt><trkpt lat="43.473245" lon="11.5635933"><ele>342.0</ele><time>2026-04-28T09:26:54.706Z</time></trkpt><trkpt lat="43.4733367" lon="11.5636933"><ele>340.0</ele><time>2026-04-28T09:26:56.705Z</time></trkpt><trkpt lat="43.4734067" lon="11.56379"><ele>338.0</ele><time>2026-04-28T09:26:58.704Z</time></trkpt><trkpt lat="43.47348" lon="11.5639133"><ele>336.0</ele><time>2026-04-28T09:27:00.702Z</time></trkpt><trkpt lat="43.4735633" lon="11.5640117"><ele>334.0</ele><time>2026-04-28T09:27:02.704Z</time></trkpt><trkpt lat="43.4736233" lon="11.5640633"><ele>332.16666666666663</ele><time>2026-04-28T09:27:03.706Z</time></trkpt><trkpt lat="43.473695" lon="11.5641067"><ele>330.3333333333333</ele><time>2026-04-28T09:27:04.706Z</time></trkpt><trkpt lat="43.4737633" lon="11.5641083"><ele>328.5</ele><time>2026-04-28T09:27:05.706Z</time></trkpt><trkpt lat="43.4739017" lon="11.5641383"><ele>326.6666666666667</ele><time>2026-04-28T09:27:07.706Z</time></trkpt><trkpt lat="43.473975" lon="11.5641617"><ele>324.83333333333337</ele><time>2026-04-28T09:27:08.705Z</time></trkpt><trkpt lat="43.4740483" lon="11.564175"><ele>323.0</ele><time>2026-04-28T09:27:09.706Z</time></trkpt><trkpt lat="43.4741633" lon="11.564145"><ele>323.0</ele><time>2026-04-28T09:27:11.704Z</time></trkpt><trkpt lat="43.4742267" lon="11.56412"><ele>323.0</ele><time>2026-04-28T09:27:12.705Z</time></trkpt><trkpt lat="43.4743133" lon="11.5641067"><ele>323.0</ele><time>2026-04-28T09:27:13.705Z</time></trkpt><trkpt lat="43.474415" lon="11.5641217"><ele>323.0</ele><time>2026-04-28T09:27:14.705Z</time></trkpt><trkpt lat="43.474505" lon="11.5641417"><ele>323.0</ele><time>2026-04-28T09:27:15.707Z</time></trkpt><trkpt lat="43.4745867" lon="11.5641567"><ele>323.0</ele><time>2026-04-28T09:27:16.705Z</time></trkpt><trkpt lat="43.4746717" lon="11.5641633"><ele>322.0</ele><time>2026-04-28T09:27:17.705Z</time></trkpt><trkpt lat="43.4747617" lon="11.5641667"><ele>321.0</ele><time>2026-04-28T09:27:18.705Z</time></trkpt><trkpt lat="43.4748567" lon="11.564165"><ele>320.0</ele><time>2026-04-28T09:27:19.706Z</time></trkpt><trkpt lat="43.4749583" lon="11.56417"><ele>319.0</ele><time>2026-04-28T09:27:20.706Z</time></trkpt><trkpt lat="43.475055" lon="11.5641767"><ele>318.0</ele><time>2026-04-28T09:27:21.706Z</time></trkpt><trkpt lat="43.4751483" lon="11.5641833"><ele>318.0</ele><time>2026-04-28T09:27:22.706Z</time></trkpt><trkpt lat="43.475235" lon="11.564195"><ele>318.0</ele><time>2026-04-28T09:27:23.705Z</time></trkpt><trkpt lat="43.4753167" lon="11.5642033"><ele>318.0</ele><time>2026-04-28T09:27:24.705Z</time></trkpt><trkpt lat="43.4753933" lon="11.5642117"><ele>318.0</ele><time>2026-04-28T09:27:25.707Z</time></trkpt><trkpt lat="43.475465" lon="11.56422"><ele>318.0</ele><time>2026-04-28T09:27:26.707Z</time></trkpt><trkpt lat="43.4755733" lon="11.5642283"><ele>318.0</ele><time>2026-04-28T09:27:28.706Z</time></trkpt><trkpt lat="43.47563" lon="11.564185"><ele>317.2</ele><time>2026-04-28T09:27:30.706Z</time></trkpt><trkpt lat="43.475635" lon="11.564065"><ele>316.4</ele><time>2026-04-28T09:27:32.705Z</time></trkpt><trkpt lat="43.4756133" lon="11.5639367"><ele>315.59999999999997</ele><time>2026-04-28T09:27:34.706Z</time></trkpt><trkpt lat="43.47553" lon="11.5638183"><ele>314.8</ele><time>2026-04-28T09:27:36.705Z</time></trkpt><trkpt lat="43.4754617" lon="11.563755"><ele>314.0</ele><time>2026-04-28T09:27:37.707Z</time></trkpt><trkpt lat="43.4754033" lon="11.56369"><ele>312.33333333333337</ele><time>2026-04-28T09:27:38.707Z</time></trkpt><trkpt lat="43.47535" lon="11.5636283"><ele>310.6666666666667</ele><time>2026-04-28T09:27:39.706Z</time></trkpt><trkpt lat="43.4752983" lon="11.563575"><ele>309.0</ele><time>2026-04-28T09:27:40.706Z</time></trkpt><trkpt lat="43.4752033" lon="11.5634783"><ele>307.3333333333333</ele><time>2026-04-28T09:27:42.706Z</time></trkpt><trkpt lat="43.4751483" lon="11.563435"><ele>305.66666666666663</ele><time>2026-04-28T09:27:43.706Z</time></trkpt><trkpt lat="43.4750367" lon="11.563345"><ele>304.0</ele><time>2026-04-28T09:27:45.707Z</time></trkpt><trkpt lat="43.4749533" lon="11.5633067"><ele>304.0</ele><time>2026-04-28T09:27:46.706Z</time></trkpt><trkpt lat="43.47486" lon="11.5632733"><ele>304.0</ele><time>2026-04-28T09:27:47.705Z</time></trkpt><trkpt lat="43.4747883" lon="11.5632383"><ele>304.0</ele><time>2026-04-28T09:27:48.706Z</time></trkpt><trkpt lat="43.4747117" lon="11.5632017"><ele>304.0</ele><time>2026-04-28T09:27:49.706Z</time></trkpt><trkpt lat="43.47465" lon="11.5631783"><ele>304.0</ele><time>2026-04-28T09:27:50.705Z</time></trkpt><trkpt lat="43.4745867" lon="11.563155"><ele>304.0</ele><time>2026-04-28T09:27:51.706Z</time></trkpt><trkpt lat="43.4744933" lon="11.5631167"><ele>305.59999999999997</ele><time>2026-04-28T09:27:53.705Z</time></trkpt><trkpt lat="43.4744283" lon="11.5630767"><ele>307.2</ele><time>2026-04-28T09:27:55.704Z</time></trkpt><trkpt lat="43.4744017" lon="11.5629783"><ele>308.79999999999995</ele><time>2026-04-28T09:27:58.704Z</time></trkpt><trkpt lat="43.47447" lon="11.5628933"><ele>310.4</ele><time>2026-04-28T09:28:01.705Z</time></trkpt><trkpt lat="43.47456" lon="11.5628283"><ele>312.0</ele><time>2026-04-28T09:28:03.706Z</time></trkpt><trkpt lat="43.4746733" lon="11.5627883"><ele>307.2</ele><time>2026-04-28T09:28:05.704Z</time></trkpt><trkpt lat="43.4747917" lon="11.562745"><ele>302.4</ele><time>2026-04-28T09:28:07.703Z</time></trkpt><trkpt lat="43.4748883" lon="11.5626983"><ele>297.6</ele><time>2026-04-28T09:28:09.705Z</time></trkpt><trkpt lat="43.47495" lon="11.5626283"><ele>292.8</ele><time>2026-04-28T09:28:12.704Z</time></trkpt><trkpt lat="43.4748583" lon="11.5626717"><ele>288.0</ele><time>2026-04-28T09:28:20.705Z</time></trkpt><trkpt lat="43.4747867" lon="11.5626967"><ele>288.00000000000006</ele><time>2026-04-28T09:28:21.706Z</time></trkpt><trkpt lat="43.4747067" lon="11.5627217"><ele>288.0</ele><time>2026-04-28T09:28:22.704Z</time></trkpt><trkpt lat="43.4746317" lon="11.5627417"><ele>288.0</ele><time>2026-04-28T09:28:23.702Z</time></trkpt><trkpt lat="43.4745667" lon="11.5627633"><ele>288.0</ele><time>2026-04-28T09:28:24.706Z</time></trkpt><trkpt lat="43.4745033" lon="11.5627917"><ele>288.0</ele><time>2026-04-28T09:28:25.706Z</time></trkpt><trkpt lat="43.4744383" lon="11.56283"><ele>288.00000000000006</ele><time>2026-04-28T09:28:26.706Z</time></trkpt><trkpt lat="43.4743733" lon="11.5628783"><ele>288.0</ele><time>2026-04-28T09:28:27.706Z</time></trkpt><trkpt lat="43.4743" lon="11.5629533"><ele>291.2</ele><time>2026-04-28T09:28:29.705Z</time></trkpt><trkpt lat="43.47428" lon="11.5630467"><ele>294.4</ele><time>2026-04-28T09:28:32.704Z</time></trkpt><trkpt lat="43.47439" lon="11.563095"><ele>297.59999999999997</ele><time>2026-04-28T09:28:34.705Z</time></trkpt><trkpt lat="43.474465" lon="11.56313"><ele>300.8</ele><time>2026-04-28T09:28:35.704Z</time></trkpt><trkpt lat="43.4745583" lon="11.5631617"><ele>304.0</ele><time>2026-04-28T09:28:36.705Z</time></trkpt><trkpt lat="43.4746783" lon="11.563185"><ele>304.0</ele><time>2026-04-28T09:28:37.706Z</time></trkpt><trkpt lat="43.4747983" lon="11.563205"><ele>304.0</ele><time>2026-04-28T09:28:38.705Z</time></trkpt><trkpt lat="43.4748967" lon="11.5632233"><ele>304.0</ele><time>2026-04-28T09:28:39.705Z</time></trkpt><trkpt lat="43.4749833" lon="11.5632533"><ele>304.0</ele><time>2026-04-28T09:28:40.706Z</time></trkpt><trkpt lat="43.4750633" lon="11.563305"><ele>304.0</ele><time>2026-04-28T09:28:41.705Z</time></trkpt><trkpt lat="43.4751667" lon="11.563395"><ele>304.0</ele><time>2026-04-28T09:28:42.706Z</time></trkpt><trkpt lat="43.4752733" lon="11.56351"><ele>304.0</ele><time>2026-04-28T09:28:43.705Z</time></trkpt><trkpt lat="43.475365" lon="11.5635917"><ele>304.0</ele><time>2026-04-28T09:28:44.705Z</time></trkpt><trkpt lat="43.4754383" lon="11.5636633"><ele>304.0</ele><time>2026-04-28T09:28:45.703Z</time></trkpt><trkpt lat="43.4755033" lon="11.563735"><ele>304.0</ele><time>2026-04-28T09:28:46.706Z</time></trkpt><trkpt lat="43.47558" lon="11.5638133"><ele>305.66666666666663</ele><time>2026-04-28T09:28:47.706Z</time></trkpt><trkpt lat="43.4756267" lon="11.5638767"><ele>307.3333333333333</ele><time>2026-04-28T09:28:48.704Z</time></trkpt><trkpt lat="43.47562" lon="11.5640283"><ele>309.0</ele><time>2026-04-28T09:28:50.706Z</time></trkpt><trkpt lat="43.475545" lon="11.5641383"><ele>310.6666666666667</ele><time>2026-04-28T09:28:52.706Z</time></trkpt><trkpt lat="43.4754717" lon="11.5641417"><ele>312.33333333333337</ele><time>2026-04-28T09:28:53.704Z</time></trkpt><trkpt lat="43.475385" lon="11.5641433"><ele>314.0</ele><time>2026-04-28T09:28:54.7Z</time></trkpt><trkpt lat="43.4752883" lon="11.5641467"><ele>314.8</ele><time>2026-04-28T09:28:55.706Z</time></trkpt><trkpt lat="43.4751817" lon="11.56414"><ele>315.59999999999997</ele><time>2026-04-28T09:28:56.706Z</time></trkpt><trkpt lat="43.4750667" lon="11.5641367"><ele>316.4</ele><time>2026-04-28T09:28:57.706Z</time></trkpt><trkpt lat="43.4749533" lon="11.564135"><ele>317.2</ele><time>2026-04-28T09:28:58.706Z</time></trkpt><trkpt lat="43.4748417" lon="11.5641317"><ele>318.0</ele><time>2026-04-28T09:28:59.705Z</time></trkpt><trkpt lat="43.4747367" lon="11.564125"><ele>318.0</ele><time>2026-04-28T09:29:00.706Z</time></trkpt><trkpt lat="43.4746383" lon="11.5641167"><ele>318.0</ele><time>2026-04-28T09:29:01.705Z</time></trkpt><trkpt lat="43.474545" lon="11.5641083"><ele>318.0</ele><time>2026-04-28T09:29:02.705Z</time></trkpt><trkpt lat="43.4744567" lon="11.564095"><ele>318.0</ele><time>2026-04-28T09:29:03.706Z</time></trkpt><trkpt lat="43.47438" lon="11.5640817"><ele>318.0</ele><time>2026-04-28T09:29:04.706Z</time></trkpt><trkpt lat="43.4743033" lon="11.564075"><ele>318.0</ele><time>2026-04-28T09:29:05.706Z</time></trkpt><trkpt lat="43.4742317" lon="11.56408"><ele>318.8</ele><time>2026-04-28T09:29:06.707Z</time></trkpt><trkpt lat="43.4741183" lon="11.564115"><ele>319.6</ele><time>2026-04-28T09:29:08.706Z</time></trkpt><trkpt lat="43.4740033" lon="11.5641233"><ele>320.40000000000003</ele><time>2026-04-28T09:29:10.704Z</time></trkpt><trkpt lat="43.473935" lon="11.5641033"><ele>321.20000000000005</ele><time>2026-04-28T09:29:11.705Z</time></trkpt><trkpt lat="43.4738117" lon="11.564105"><ele>322.0</ele><time>2026-04-28T09:29:13.708Z</time></trkpt><trkpt lat="43.4736967" lon="11.5641117"><ele>322.0</ele><time>2026-04-28T09:29:15.706Z</time></trkpt><trkpt lat="43.4736" lon="11.56405"><ele>322.0</ele><time>2026-04-28T09:29:17.704Z</time></trkpt><trkpt lat="43.4735317" lon="11.5639183"><ele>322.0</ele><time>2026-04-28T09:29:19.706Z</time></trkpt><trkpt lat="43.4734933" lon="11.5638417"><ele>322.0</ele><time>2026-04-28T09:29:20.705Z</time></trkpt><trkpt lat="43.47345" lon="11.563765"><ele>322.0</ele><time>2026-04-28T09:29:21.706Z</time></trkpt><trkpt lat="43.4734017" lon="11.56369"><ele>322.0</ele><time>2026-04-28T09:29:22.701Z</time></trkpt><trkpt lat="43.4733433" lon="11.5636167"><ele>324.0</ele><time>2026-04-28T09:29:23.705Z</time></trkpt><trkpt lat="43.4732883" lon="11.5635533"><ele>326.0</ele><time>2026-04-28T09:29:24.705Z</time></trkpt><trkpt lat="43.4732283" lon="11.5635"><ele>328.0</ele><time>2026-04-28T09:29:25.705Z</time></trkpt><trkpt lat="43.4731383" lon="11.563415"><ele>330.0</ele><time>2026-04-28T09:29:27.706Z</time></trkpt><trkpt lat="43.4730267" lon="11.563335"><ele>332.0</ele><time>2026-04-28T09:29:29.704Z</time></trkpt><trkpt lat="43.4729783" lon="11.5632767"><ele>334.0</ele><time>2026-04-28T09:29:30.706Z</time></trkpt><trkpt lat="43.4728783" lon="11.5631867"><ele>335.66666666666663</ele><time>2026-04-28T09:29:32.706Z</time></trkpt><trkpt lat="43.4728167" lon="11.56316"><ele>337.3333333333333</ele><time>2026-04-28T09:29:33.705Z</time></trkpt><trkpt lat="43.4727" lon="11.5631417"><ele>339.0</ele><time>2026-04-28T09:29:35.705Z</time></trkpt><trkpt lat="43.472635" lon="11.5631717"><ele>340.6666666666667</ele><time>2026-04-28T09:29:37.705Z</time></trkpt><trkpt lat="43.472555" lon="11.56319"><ele>342.33333333333337</ele><time>2026-04-28T09:29:39.705Z</time></trkpt><trkpt lat="43.472455" lon="11.5631467"><ele>344.0</ele><time>2026-04-28T09:29:41.705Z</time></trkpt><trkpt lat="43.4723983" lon="11.5630967"><ele>344.0</ele><time>2026-04-28T09:29:43.705Z</time></trkpt><trkpt lat="43.47231" lon="11.5630083"><ele>344.0</ele><time>2026-04-28T09:29:45.705Z</time></trkpt><trkpt lat="43.4722133" lon="11.562925"><ele>344.0</ele><time>2026-04-28T09:29:47.705Z</time></trkpt><trkpt lat="43.472125" lon="11.56288"><ele>344.0</ele><time>2026-04-28T09:29:48.704Z</time></trkpt><trkpt lat="43.472015" lon="11.5628483"><ele>344.0</ele><time>2026-04-28T09:29:49.705Z</time></trkpt><trkpt lat="43.4719183" lon="11.5628283"><ele>344.6666666666667</ele><time>2026-04-28T09:29:50.706Z</time></trkpt><trkpt lat="43.471835" lon="11.5628133"><ele>345.33333333333337</ele><time>2026-04-28T09:29:51.707Z</time></trkpt><trkpt lat="43.47176" lon="11.56282"><ele>346.0</ele><time>2026-04-28T09:29:52.705Z</time></trkpt><trkpt lat="43.4716717" lon="11.562835"><ele>346.6666666666667</ele><time>2026-04-28T09:29:53.704Z</time></trkpt><trkpt lat="43.4715933" lon="11.5628583"><ele>347.3333333333333</ele><time>2026-04-28T09:29:54.706Z</time></trkpt><trkpt lat="43.471515" lon="11.5628783"><ele>348.0</ele><time>2026-04-28T09:29:55.705Z</time></trkpt><trkpt lat="43.4714317" lon="11.5629083"><ele>348.0</ele><time>2026-04-28T09:29:56.705Z</time></trkpt><trkpt lat="43.4713533" lon="11.562925"><ele>348.0</ele><time>2026-04-28T09:29:57.705Z</time></trkpt><trkpt lat="43.4712783" lon="11.562935"><ele>348.0</ele><time>2026-04-28T09:29:58.705Z</time></trkpt><trkpt lat="43.4711983" lon="11.56294"><ele>348.0</ele><time>2026-04-28T09:29:59.705Z</time></trkpt><trkpt lat="43.471125" lon="11.5629517"><ele>348.0</ele><time>2026-04-28T09:30:00.704Z</time></trkpt><trkpt lat="43.471045" lon="11.5629733"><ele>348.0</ele><time>2026-04-28T09:30:01.703Z</time></trkpt><trkpt lat="43.4709667" lon="11.5629817"><ele>348.85714285714283</ele><time>2026-04-28T09:30:02.705Z</time></trkpt><trkpt lat="43.4708817" lon="11.56298"><ele>349.7142857142857</ele><time>2026-04-28T09:30:03.705Z</time></trkpt><trkpt lat="43.4708067" lon="11.5629667"><ele>350.57142857142856</ele><time>2026-04-28T09:30:04.704Z</time></trkpt><trkpt lat="43.47074" lon="11.5629567"><ele>351.42857142857144</ele><time>2026-04-28T09:30:05.706Z</time></trkpt><trkpt lat="43.470665" lon="11.5629783"><ele>352.2857142857143</ele><time>2026-04-28T09:30:06.706Z</time></trkpt><trkpt lat="43.4706017" lon="11.56301"><ele>353.14285714285717</ele><time>2026-04-28T09:30:07.705Z</time></trkpt><trkpt lat="43.4705383" lon="11.5630467"><ele>354.0</ele><time>2026-04-28T09:30:08.705Z</time></trkpt><trkpt lat="43.47048" lon="11.5630833"><ele>355.8333333333333</ele><time>2026-04-28T09:30:09.705Z</time></trkpt><trkpt lat="43.470415" lon="11.56313"><ele>357.6666666666667</ele><time>2026-04-28T09:30:10.704Z</time></trkpt><trkpt lat="43.4703467" lon="11.563165"><ele>359.5</ele><time>2026-04-28T09:30:11.705Z</time></trkpt><trkpt lat="43.4702433" lon="11.563175"><ele>361.33333333333337</ele><time>2026-04-28T09:30:13.705Z</time></trkpt><trkpt lat="43.47018" lon="11.5631933"><ele>363.1666666666667</ele><time>2026-04-28T09:30:14.706Z</time></trkpt><trkpt lat="43.4700583" lon="11.5632367"><ele>365.0</ele><time>2026-04-28T09:30:16.704Z</time></trkpt><trkpt lat="43.4699717" lon="11.5632633"><ele>365.0</ele><time>2026-04-28T09:30:17.705Z</time></trkpt><trkpt lat="43.4699083" lon="11.5632867"><ele>365.0</ele><time>2026-04-28T09:30:18.704Z</time></trkpt><trkpt lat="43.4697983" lon="11.563315"><ele>365.0</ele><time>2026-04-28T09:30:20.704Z</time></trkpt><trkpt lat="43.4696667" lon="11.5633783"><ele>365.0</ele><time>2026-04-28T09:30:22.704Z</time></trkpt><trkpt lat="43.469555" lon="11.5633967"><ele>365.0</ele><time>2026-04-28T09:30:24.705Z</time></trkpt><trkpt lat="43.46949" lon="11.5633883"><ele>364.1666666666667</ele><time>2026-04-28T09:30:25.705Z</time></trkpt><trkpt lat="43.4694267" lon="11.5633833"><ele>363.33333333333337</ele><time>2026-04-28T09:30:26.704Z</time></trkpt><trkpt lat="43.4693133" lon="11.5634017"><ele>362.5</ele><time>2026-04-28T09:30:28.704Z</time></trkpt><trkpt lat="43.4692267" lon="11.5634467"><ele>361.6666666666667</ele><time>2026-04-28T09:30:30.713Z</time></trkpt><trkpt lat="43.4691783" lon="11.563515"><ele>360.8333333333333</ele><time>2026-04-28T09:30:32.704Z</time></trkpt><trkpt lat="43.4691717" lon="11.5636333"><ele>360.0</ele><time>2026-04-28T09:30:34.704Z</time></trkpt><trkpt lat="43.4691733" lon="11.56377"><ele>359.5</ele><time>2026-04-28T09:30:36.704Z</time></trkpt><trkpt lat="43.4691583" lon="11.5638567"><ele>359.0</ele><time>2026-04-28T09:30:37.704Z</time></trkpt><trkpt lat="43.4691167" lon="11.56401"><ele>358.5</ele><time>2026-04-28T09:30:39.705Z</time></trkpt><trkpt lat="43.4691083" lon="11.564155"><ele>358.0</ele><time>2026-04-28T09:30:41.704Z</time></trkpt><trkpt lat="43.4691017" lon="11.5642567"><ele>357.5</ele><time>2026-04-28T09:30:43.707Z</time></trkpt><trkpt lat="43.4691183" lon="11.5643717"><ele>357.0</ele><time>2026-04-28T09:30:45.705Z</time></trkpt><trkpt lat="43.4691633" lon="11.564515"><ele>357.5</ele><time>2026-04-28T09:30:47.703Z</time></trkpt><trkpt lat="43.469195" lon="11.56462"><ele>358.0</ele><time>2026-04-28T09:30:48.707Z</time></trkpt><trkpt lat="43.46923" lon="11.5647183"><ele>358.5</ele><time>2026-04-28T09:30:49.704Z</time></trkpt><trkpt lat="43.4692667" lon="11.5648267"><ele>359.0</ele><time>2026-04-28T09:30:50.705Z</time></trkpt><trkpt lat="43.4693017" lon="11.5649333"><ele>359.5</ele><time>2026-04-28T09:30:51.705Z</time></trkpt><trkpt lat="43.4693433" lon="11.565055"><ele>360.0</ele><time>2026-04-28T09:30:52.705Z</time></trkpt><trkpt lat="43.4694033" lon="11.5651733"><ele>360.0</ele><time>2026-04-28T09:30:53.705Z</time></trkpt><trkpt lat="43.46946" lon="11.565315"><ele>360.0</ele><time>2026-04-28T09:30:54.704Z</time></trkpt><trkpt lat="43.469505" lon="11.5654367"><ele>360.0</ele><time>2026-04-28T09:30:55.706Z</time></trkpt><trkpt lat="43.4695483" lon="11.5655483"><ele>360.0</ele><time>2026-04-28T09:30:56.705Z</time></trkpt><trkpt lat="43.4695817" lon="11.56566"><ele>360.0</ele><time>2026-04-28T09:30:57.706Z</time></trkpt><trkpt lat="43.4696033" lon="11.56576"><ele>356.8333333333333</ele><time>2026-04-28T09:30:58.705Z</time></trkpt><trkpt lat="43.4696133" lon="11.5658717"><ele>353.6666666666667</ele><time>2026-04-28T09:30:59.705Z</time></trkpt><trkpt lat="43.4696317" lon="11.5659833"><ele>350.5</ele><time>2026-04-28T09:31:00.704Z</time></trkpt><trkpt lat="43.4696417" lon="11.5660833"><ele>347.33333333333337</ele><time>2026-04-28T09:31:01.705Z</time></trkpt><trkpt lat="43.4696567" lon="11.56619"><ele>344.1666666666667</ele><time>2026-04-28T09:31:02.704Z</time></trkpt><trkpt lat="43.4696667" lon="11.5663133"><ele>341.0</ele><time>2026-04-28T09:31:03.707Z</time></trkpt><trkpt lat="43.4696783" lon="11.56645"><ele>341.0</ele><time>2026-04-28T09:31:04.704Z</time></trkpt><trkpt lat="43.46968" lon="11.566605"><ele>341.0</ele><time>2026-04-28T09:31:05.705Z</time></trkpt><trkpt lat="43.469695" lon="11.5667317"><ele>341.0</ele><time>2026-04-28T09:31:06.704Z</time></trkpt><trkpt lat="43.46971" lon="11.5668867"><ele>341.0</ele><time>2026-04-28T09:31:07.704Z</time></trkpt><trkpt lat="43.469725" lon="11.5670333"><ele>341.0</ele><time>2026-04-28T09:31:08.705Z</time></trkpt><trkpt lat="43.4697417" lon="11.56716"><ele>341.0</ele><time>2026-04-28T09:31:09.706Z</time></trkpt><trkpt lat="43.46977" lon="11.5672917"><ele>341.0</ele><time>2026-04-28T09:31:10.703Z</time></trkpt><trkpt lat="43.4697867" lon="11.5674017"><ele>341.0</ele><time>2026-04-28T09:31:11.705Z</time></trkpt><trkpt lat="43.46981" lon="11.5675383"><ele>341.0</ele><time>2026-04-28T09:31:12.704Z</time></trkpt><trkpt lat="43.4698367" lon="11.5677233"><ele>341.0</ele><time>2026-04-28T09:31:13.706Z</time></trkpt><trkpt lat="43.4698417" lon="11.5678233"><ele>341.7142857142857</ele><time>2026-04-28T09:31:14.704Z</time></trkpt><trkpt lat="43.4698467" lon="11.5679367"><ele>342.42857142857144</ele><time>2026-04-28T09:31:15.706Z</time></trkpt><trkpt lat="43.4698583" lon="11.5680333"><ele>343.1428571428571</ele><time>2026-04-28T09:31:16.704Z</time></trkpt><trkpt lat="43.469865" lon="11.5681417"><ele>343.8571428571429</ele><time>2026-04-28T09:31:17.705Z</time></trkpt><trkpt lat="43.4698833" lon="11.5682433"><ele>344.5714285714286</ele><time>2026-04-28T09:31:18.706Z</time></trkpt><trkpt lat="43.4698883" lon="11.5683333"><ele>345.2857142857143</ele><time>2026-04-28T09:31:19.705Z</time></trkpt><trkpt lat="43.4699" lon="11.568425"><ele>346.0</ele><time>2026-04-28T09:31:20.704Z</time></trkpt><trkpt lat="43.4699217" lon="11.5685283"><ele>346.0</ele><time>2026-04-28T09:31:21.706Z</time></trkpt><trkpt lat="43.4699417" lon="11.5686283"><ele>346.0</ele><time>2026-04-28T09:31:22.705Z</time></trkpt><trkpt lat="43.4699583" lon="11.5687333"><ele>346.0</ele><time>2026-04-28T09:31:23.705Z</time></trkpt><trkpt lat="43.469975" lon="11.5688367"><ele>346.0</ele><time>2026-04-28T09:31:24.701Z</time></trkpt><trkpt lat="43.469995" lon="11.5689767"><ele>346.0</ele><time>2026-04-28T09:31:25.704Z</time></trkpt><trkpt lat="43.470015" lon="11.569125"><ele>346.0</ele><time>2026-04-28T09:31:26.704Z</time></trkpt><trkpt lat="43.470065" lon="11.56924"><ele>347.5</ele><time>2026-04-28T09:31:27.705Z</time></trkpt><trkpt lat="43.4700833" lon="11.5694567"><ele>349.0</ele><time>2026-04-28T09:31:28.705Z</time></trkpt><trkpt lat="43.47014" lon="11.5696033"><ele>350.5</ele><time>2026-04-28T09:31:29.705Z</time></trkpt><trkpt lat="43.4702133" lon="11.5697183"><ele>352.0</ele><time>2026-04-28T09:31:30.704Z</time></trkpt><trkpt lat="43.4702767" lon="11.5698333"><ele>353.0</ele><time>2026-04-28T09:31:31.705Z</time></trkpt><trkpt lat="43.470335" lon="11.5699567"><ele>354.0</ele><time>2026-04-28T09:31:32.704Z</time></trkpt><trkpt lat="43.4703783" lon="11.5700683"><ele>355.0</ele><time>2026-04-28T09:31:33.706Z</time></trkpt><trkpt lat="43.47041" lon="11.5701667"><ele>356.0</ele><time>2026-04-28T09:31:34.706Z</time></trkpt><trkpt lat="43.4704067" lon="11.5702733"><ele>357.0</ele><time>2026-04-28T09:31:36.704Z</time></trkpt><trkpt lat="43.470325" lon="11.57032"><ele>358.0</ele><time>2026-04-28T09:31:38.705Z</time></trkpt><trkpt lat="43.4702183" lon="11.5703483"><ele>358.0</ele><time>2026-04-28T09:31:40.704Z</time></trkpt><trkpt lat="43.4701567" lon="11.5703733"><ele>358.0</ele><time>2026-04-28T09:31:41.704Z</time></trkpt><trkpt lat="43.4700817" lon="11.5703883"><ele>358.0</ele><time>2026-04-28T09:31:42.706Z</time></trkpt><trkpt lat="43.4699983" lon="11.5703683"><ele>358.0</ele><time>2026-04-28T09:31:43.704Z</time></trkpt><trkpt lat="43.4699133" lon="11.5703467"><ele>358.0</ele><time>2026-04-28T09:31:44.704Z</time></trkpt><trkpt lat="43.4698383" lon="11.5702917"><ele>358.0</ele><time>2026-04-28T09:31:45.705Z</time></trkpt><trkpt lat="43.46977" lon="11.5702067"><ele>358.0</ele><time>2026-04-28T09:31:46.704Z</time></trkpt><trkpt lat="43.4697" lon="11.5701283"><ele>358.0</ele><time>2026-04-28T09:31:47.705Z</time></trkpt><trkpt lat="43.4696267" lon="11.57005"><ele>358.0</ele><time>2026-04-28T09:31:48.705Z</time></trkpt><trkpt lat="43.4695533" lon="11.5699683"><ele>358.0</ele><time>2026-04-28T09:31:49.703Z</time></trkpt><trkpt lat="43.4694767" lon="11.569885"><ele>358.0</ele><time>2026-04-28T09:31:50.703Z</time></trkpt><trkpt lat="43.469395" lon="11.5698033"><ele>361.4</ele><time>2026-04-28T09:31:51.706Z</time></trkpt><trkpt lat="43.469315" lon="11.5697283"><ele>364.79999999999995</ele><time>2026-04-28T09:31:52.704Z</time></trkpt><trkpt lat="43.46923" lon="11.5696583"><ele>368.2</ele><time>2026-04-28T09:31:53.705Z</time></trkpt><trkpt lat="43.469135" lon="11.5696017"><ele>371.6</ele><time>2026-04-28T09:31:54.705Z</time></trkpt><trkpt lat="43.4690233" lon="11.5695433"><ele>375.0</ele><time>2026-04-28T09:31:55.706Z</time></trkpt><trkpt lat="43.4689117" lon="11.569495"><ele>377.0</ele><time>2026-04-28T09:31:56.705Z</time></trkpt><trkpt lat="43.46882" lon="11.5694533"><ele>379.0</ele><time>2026-04-28T09:31:57.705Z</time></trkpt><trkpt lat="43.468735" lon="11.5694183"><ele>381.0</ele><time>2026-04-28T09:31:58.705Z</time></trkpt><trkpt lat="43.4686567" lon="11.5693883"><ele>383.0</ele><time>2026-04-28T09:31:59.704Z</time></trkpt><trkpt lat="43.468585" lon="11.56936"><ele>385.0</ele><time>2026-04-28T09:32:00.704Z</time></trkpt><trkpt lat="43.468495" lon="11.5692983"><ele>387.0</ele><time>2026-04-28T09:32:02.705Z</time></trkpt><trkpt lat="43.4684867" lon="11.569205"><ele>391.0</ele><time>2026-04-28T09:32:04.704Z</time></trkpt><trkpt lat="43.4685183" lon="11.569105"><ele>395.0</ele><time>2026-04-28T09:32:06.705Z</time></trkpt><trkpt lat="43.4686167" lon="11.5691367"><ele>399.0</ele><time>2026-04-28T09:32:08.704Z</time></trkpt><trkpt lat="43.4686917" lon="11.569105"><ele>403.0</ele><time>2026-04-28T09:32:10.706Z</time></trkpt><trkpt lat="43.4687317" lon="11.5690083"><ele>407.0</ele><time>2026-04-28T09:32:12.705Z</time></trkpt><trkpt lat="43.468725" lon="11.5688867"><ele>411.0</ele><time>2026-04-28T09:32:14.705Z</time></trkpt><trkpt lat="43.4686683" lon="11.56882"><ele>411.0</ele><time>2026-04-28T09:32:17.707Z</time></trkpt><trkpt lat="43.4685667" lon="11.568815"><ele>411.0</ele><time>2026-04-28T09:32:20.705Z</time></trkpt><trkpt lat="43.4685317" lon="11.5687233"><ele>411.0</ele><time>2026-04-28T09:32:23.705Z</time></trkpt><trkpt lat="43.4685483" lon="11.56858"><ele>411.0</ele><time>2026-04-28T09:32:25.706Z</time></trkpt><trkpt lat="43.4685433" lon="11.56847"><ele>411.0</ele><time>2026-04-28T09:32:26.707Z</time></trkpt><trkpt lat="43.468545" lon="11.5683517"><ele>411.0</ele><time>2026-04-28T09:32:27.708Z</time></trkpt><trkpt lat="43.4685217" lon="11.56821"><ele>413.6</ele><time>2026-04-28T09:32:28.705Z</time></trkpt><trkpt lat="43.4685" lon="11.5680717"><ele>416.20000000000005</ele><time>2026-04-28T09:32:29.704Z</time></trkpt><trkpt lat="43.468475" lon="11.5679317"><ele>418.79999999999995</ele><time>2026-04-28T09:32:30.705Z</time></trkpt><trkpt lat="43.4684233" lon="11.5677633"><ele>421.4</ele><time>2026-04-28T09:32:31.706Z</time></trkpt><trkpt lat="43.468395" lon="11.56764"><ele>424.0</ele><time>2026-04-28T09:32:32.705Z</time></trkpt><trkpt lat="43.46837" lon="11.567475"><ele>423.50000000000006</ele><time>2026-04-28T09:32:33.706Z</time></trkpt><trkpt lat="43.4683083" lon="11.5673867"><ele>423.0</ele><time>2026-04-28T09:32:34.704Z</time></trkpt><trkpt lat="43.4682583" lon="11.5673183"><ele>422.5</ele><time>2026-04-28T09:32:35.705Z</time></trkpt><trkpt lat="43.4681667" lon="11.5672333"><ele>422.0</ele><time>2026-04-28T09:32:37.706Z</time></trkpt><trkpt lat="43.4681133" lon="11.56716"><ele>421.50000000000006</ele><time>2026-04-28T09:32:38.706Z</time></trkpt><trkpt lat="43.46805" lon="11.5670583"><ele>421.0</ele><time>2026-04-28T09:32:39.71Z</time></trkpt><trkpt lat="43.4680033" lon="11.56695"><ele>421.0</ele><time>2026-04-28T09:32:40.706Z</time></trkpt><trkpt lat="43.467995" lon="11.56682"><ele>421.0</ele><time>2026-04-28T09:32:41.705Z</time></trkpt><trkpt lat="43.4679817" lon="11.5666883"><ele>421.0</ele><time>2026-04-28T09:32:42.705Z</time></trkpt><trkpt lat="43.4679683" lon="11.566555"><ele>421.0</ele><time>2026-04-28T09:32:43.706Z</time></trkpt><trkpt lat="43.4679433" lon="11.56642"><ele>421.0</ele><time>2026-04-28T09:32:44.705Z</time></trkpt><trkpt lat="43.467915" lon="11.5663133"><ele>425.00000000000006</ele><time>2026-04-28T09:32:45.706Z</time></trkpt><trkpt lat="43.4678917" lon="11.5662183"><ele>429.0</ele><time>2026-04-28T09:32:46.706Z</time></trkpt><trkpt lat="43.4678517" lon="11.5661367"><ele>433.0</ele><time>2026-04-28T09:32:47.705Z</time></trkpt><trkpt lat="43.4677683" lon="11.566005"><ele>437.0</ele><time>2026-04-28T09:32:49.705Z</time></trkpt><trkpt lat="43.46771" lon="11.56594"><ele>441.00000000000006</ele><time>2026-04-28T09:32:50.704Z</time></trkpt><trkpt lat="43.46765" lon="11.5658733"><ele>445.0</ele><time>2026-04-28T09:32:51.706Z</time></trkpt><trkpt lat="43.4675767" lon="11.5658217"><ele>445.0</ele><time>2026-04-28T09:32:52.704Z</time></trkpt><trkpt lat="43.4675117" lon="11.5657583"><ele>445.0</ele><time>2026-04-28T09:32:53.705Z</time></trkpt><trkpt lat="43.4674567" lon="11.5657017"><ele>445.0</ele><time>2026-04-28T09:32:54.705Z</time></trkpt><trkpt lat="43.467385" lon="11.5656767"><ele>445.0</ele><time>2026-04-28T09:32:55.705Z</time></trkpt><trkpt lat="43.4672817" lon="11.56566"><ele>445.0</ele><time>2026-04-28T09:32:57.706Z</time></trkpt><trkpt lat="43.4671317" lon="11.56563"><ele>445.0</ele><time>2026-04-28T09:32:59.705Z</time></trkpt><trkpt lat="43.46712" lon="11.565775"><ele>445.0</ele><time>2026-04-28T09:33:03.706Z</time></trkpt><trkpt lat="43.4671583" lon="11.565865"><ele>445.0</ele><time>2026-04-28T09:33:04.705Z</time></trkpt><trkpt lat="43.4672033" lon="11.565975"><ele>445.0</ele><time>2026-04-28T09:33:05.704Z</time></trkpt><trkpt lat="43.4672533" lon="11.5660783"><ele>445.0</ele><time>2026-04-28T09:33:06.705Z</time></trkpt><trkpt lat="43.4672917" lon="11.5661883"><ele>447.6</ele><time>2026-04-28T09:33:07.706Z</time></trkpt><trkpt lat="43.46732" lon="11.5663017"><ele>450.2</ele><time>2026-04-28T09:33:08.705Z</time></trkpt><trkpt lat="43.4673433" lon="11.5664217"><ele>452.79999999999995</ele><time>2026-04-28T09:33:09.704Z</time></trkpt><trkpt lat="43.4673583" lon="11.566555"><ele>455.4</ele><time>2026-04-28T09:33:10.704Z</time></trkpt><trkpt lat="43.4673683" lon="11.5666867"><ele>458.0</ele><time>2026-04-28T09:33:11.705Z</time></trkpt><trkpt lat="43.467385" lon="11.5668217"><ele>458.0</ele><time>2026-04-28T09:33:12.706Z</time></trkpt><trkpt lat="43.467395" lon="11.56697"><ele>457.99999999999994</ele><time>2026-04-28T09:33:13.705Z</time></trkpt><trkpt lat="43.4673917" lon="11.5670983"><ele>457.99999999999994</ele><time>2026-04-28T09:33:14.705Z</time></trkpt><trkpt lat="43.4673983" lon="11.5672017"><ele>458.0</ele><time>2026-04-28T09:33:15.707Z</time></trkpt><trkpt lat="43.4674133" lon="11.5672933"><ele>458.0</ele><time>2026-04-28T09:33:16.709Z</time></trkpt><trkpt lat="43.4674317" lon="11.5674433"><ele>458.2</ele><time>2026-04-28T09:33:18.703Z</time></trkpt><trkpt lat="43.4674467" lon="11.5675767"><ele>458.4</ele><time>2026-04-28T09:33:20.705Z</time></trkpt><trkpt lat="43.4674417" lon="11.5677"><ele>458.59999999999997</ele><time>2026-04-28T09:33:22.705Z</time></trkpt><trkpt lat="43.46743" lon="11.567795"><ele>458.79999999999995</ele><time>2026-04-28T09:33:24.704Z</time></trkpt><trkpt lat="43.4674083" lon="11.56793"><ele>459.0</ele><time>2026-04-28T09:33:26.704Z</time></trkpt><trkpt lat="43.4673767" lon="11.5680733"><ele>459.0</ele><time>2026-04-28T09:33:28.705Z</time></trkpt><trkpt lat="43.4673083" lon="11.568145"><ele>459.0</ele><time>2026-04-28T09:33:30.705Z</time></trkpt><trkpt lat="43.4671717" lon="11.5682083"><ele>459.0</ele><time>2026-04-28T09:33:32.705Z</time></trkpt><trkpt lat="43.4670933" lon="11.5682017"><ele>459.0</ele><time>2026-04-28T09:33:34.704Z</time></trkpt><trkpt lat="43.4669817" lon="11.56819"><ele>459.0</ele><time>2026-04-28T09:33:35.704Z</time></trkpt><trkpt lat="43.46688" lon="11.568125"><ele>459.2</ele><time>2026-04-28T09:33:37.703Z</time></trkpt><trkpt lat="43.46678" lon="11.56804"><ele>459.4</ele><time>2026-04-28T09:33:39.706Z</time></trkpt><trkpt lat="43.4667033" lon="11.56791"><ele>459.6</ele><time>2026-04-28T09:33:41.706Z</time></trkpt><trkpt lat="43.4666817" lon="11.5678217"><ele>459.8</ele><time>2026-04-28T09:33:42.705Z</time></trkpt><trkpt lat="43.46667" lon="11.5677017"><ele>460.0</ele><time>2026-04-28T09:33:43.706Z</time></trkpt><trkpt lat="43.4666667" lon="11.5676033"><ele>461.33333333333337</ele><time>2026-04-28T09:33:44.705Z</time></trkpt><trkpt lat="43.4666683" lon="11.5674883"><ele>462.6666666666667</ele><time>2026-04-28T09:33:45.705Z</time></trkpt><trkpt lat="43.4666683" lon="11.5673967"><ele>464.0</ele><time>2026-04-28T09:33:46.704Z</time></trkpt><trkpt lat="43.4666883" lon="11.5672767"><ele>465.33333333333337</ele><time>2026-04-28T09:33:48.703Z</time></trkpt><trkpt lat="43.4667167" lon="11.5671467"><ele>466.6666666666667</ele><time>2026-04-28T09:33:50.708Z</time></trkpt><trkpt lat="43.4668" lon="11.5670617"><ele>468.0</ele><time>2026-04-28T09:33:52.705Z</time></trkpt><trkpt lat="43.4668667" lon="11.5670533"><ele>468.0</ele><time>2026-04-28T09:33:54.705Z</time></trkpt><trkpt lat="43.4669317" lon="11.5670367"><ele>467.99999999999994</ele><time>2026-04-28T09:33:56.705Z</time></trkpt><trkpt lat="43.4670183" lon="11.5670333"><ele>467.99999999999994</ele><time>2026-04-28T09:33:59.704Z</time></trkpt><trkpt lat="43.4671117" lon="11.56706"><ele>468.0</ele><time>2026-04-28T09:34:03.706Z</time></trkpt><trkpt lat="43.4672583" lon="11.5671083"><ele>468.0</ele><time>2026-04-28T09:34:28.704Z</time></trkpt><trkpt lat="43.4671917" lon="11.567045"><ele>468.0</ele><time>2026-04-28T09:34:43.704Z</time></trkpt><trkpt lat="43.4670933" lon="11.56698"><ele>467.99999999999994</ele><time>2026-04-28T09:34:46.705Z</time></trkpt><trkpt lat="43.467" lon="11.566985"><ele>467.99999999999994</ele><time>2026-04-28T09:34:49.706Z</time></trkpt><trkpt lat="43.4669417" lon="11.567035"><ele>468.0</ele><time>2026-04-28T09:34:51.705Z</time></trkpt><trkpt lat="43.4668533" lon="11.5671033"><ele>468.0</ele><time>2026-04-28T09:34:53.704Z</time></trkpt><trkpt lat="43.466765" lon="11.5672133"><ele>468.0</ele><time>2026-04-28T09:34:55.706Z</time></trkpt><trkpt lat="43.4667467" lon="11.567335"><ele>467.99999999999994</ele><time>2026-04-28T09:34:57.705Z</time></trkpt><trkpt lat="43.466745" lon="11.56746"><ele>467.99999999999994</ele><time>2026-04-28T09:34:59.704Z</time></trkpt><trkpt lat="43.4667517" lon="11.56758"><ele>468.0</ele><time>2026-04-28T09:35:01.704Z</time></trkpt><trkpt lat="43.4667767" lon="11.5677"><ele>468.0</ele><time>2026-04-28T09:35:03.706Z</time></trkpt><trkpt lat="43.4668117" lon="11.5678183"><ele>466.6666666666667</ele><time>2026-04-28T09:35:05.706Z</time></trkpt><trkpt lat="43.46683" lon="11.5679183"><ele>465.33333333333337</ele><time>2026-04-28T09:35:07.705Z</time></trkpt><trkpt lat="43.4668017" lon="11.56809"><ele>464.0</ele><time>2026-04-28T09:35:10.705Z</time></trkpt><trkpt lat="43.46682" lon="11.568205"><ele>462.6666666666667</ele><time>2026-04-28T09:35:12.704Z</time></trkpt><trkpt lat="43.46685" lon="11.5683117"><ele>461.33333333333337</ele><time>2026-04-28T09:35:15.706Z</time></trkpt><trkpt lat="43.46682" lon="11.5684083"><ele>460.0</ele><time>2026-04-28T09:35:18.704Z</time></trkpt><trkpt lat="43.466765" lon="11.56848"><ele>460.0</ele><time>2026-04-28T09:35:19.705Z</time></trkpt><trkpt lat="43.4666967" lon="11.5685833"><ele>460.0</ele><time>2026-04-28T09:35:20.704Z</time></trkpt><trkpt lat="43.466635" lon="11.5687167"><ele>460.0</ele><time>2026-04-28T09:35:21.705Z</time></trkpt><trkpt lat="43.4665717" lon="11.5688467"><ele>460.0</ele><time>2026-04-28T09:35:22.705Z</time></trkpt><trkpt lat="43.4665183" lon="11.5690017"><ele>459.8</ele><time>2026-04-28T09:35:23.705Z</time></trkpt><trkpt lat="43.4664633" lon="11.569115"><ele>459.6</ele><time>2026-04-28T09:35:24.704Z</time></trkpt><trkpt lat="43.4664117" lon="11.569285"><ele>459.4</ele><time>2026-04-28T09:35:25.704Z</time></trkpt><trkpt lat="43.46635" lon="11.56943"><ele>459.2</ele><time>2026-04-28T09:35:26.705Z</time></trkpt><trkpt lat="43.4662733" lon="11.5695067"><ele>459.0</ele><time>2026-04-28T09:35:27.706Z</time></trkpt><trkpt lat="43.46619" lon="11.5695667"><ele>459.0</ele><time>2026-04-28T09:35:28.705Z</time></trkpt><trkpt lat="43.4660867" lon="11.56964"><ele>459.0</ele><time>2026-04-28T09:35:29.704Z</time></trkpt><trkpt lat="43.4659933" lon="11.5697033"><ele>459.0</ele><time>2026-04-28T09:35:30.704Z</time></trkpt><trkpt lat="43.4659133" lon="11.5697267"><ele>459.0</ele><time>2026-04-28T09:35:31.705Z</time></trkpt><trkpt lat="43.4658383" lon="11.56977"><ele>459.0</ele><time>2026-04-28T09:35:32.704Z</time></trkpt><trkpt lat="43.4657567" lon="11.569835"><ele>459.0</ele><time>2026-04-28T09:35:33.706Z</time></trkpt><trkpt lat="43.46567" lon="11.569925"><ele>459.0</ele><time>2026-04-28T09:35:34.703Z</time></trkpt><trkpt lat="43.4656183" lon="11.5700367"><ele>459.0</ele><time>2026-04-28T09:35:35.704Z</time></trkpt><trkpt lat="43.465565" lon="11.5701083"><ele>459.0</ele><time>2026-04-28T09:35:36.705Z</time></trkpt><trkpt lat="43.4655233" lon="11.5701933"><ele>459.0</ele><time>2026-04-28T09:35:37.706Z</time></trkpt><trkpt lat="43.4654617" lon="11.5703183"><ele>457.6666666666667</ele><time>2026-04-28T09:35:38.705Z</time></trkpt><trkpt lat="43.4654" lon="11.5704"><ele>456.33333333333337</ele><time>2026-04-28T09:35:39.706Z</time></trkpt><trkpt lat="43.4653533" lon="11.57049"><ele>455.0</ele><time>2026-04-28T09:35:40.706Z</time></trkpt><trkpt lat="43.46532" lon="11.5706033"><ele>453.6666666666667</ele><time>2026-04-28T09:35:41.704Z</time></trkpt><trkpt lat="43.4652967" lon="11.5707117"><ele>452.33333333333337</ele><time>2026-04-28T09:35:42.704Z</time></trkpt><trkpt lat="43.4652883" lon="11.570805"><ele>451.0</ele><time>2026-04-28T09:35:43.704Z</time></trkpt><trkpt lat="43.4652883" lon="11.5709267"><ele>451.0</ele><time>2026-04-28T09:35:44.706Z</time></trkpt><trkpt lat="43.4652983" lon="11.571015"><ele>451.0</ele><time>2026-04-28T09:35:45.708Z</time></trkpt><trkpt lat="43.465275" lon="11.571135"><ele>451.0</ele><time>2026-04-28T09:35:47.704Z</time></trkpt><trkpt lat="43.4652" lon="11.5712683"><ele>451.0</ele><time>2026-04-28T09:35:49.705Z</time></trkpt><trkpt lat="43.4651433" lon="11.571355"><ele>451.0</ele><time>2026-04-28T09:35:50.705Z</time></trkpt><trkpt lat="43.4650733" lon="11.5714417"><ele>448.6</ele><time>2026-04-28T09:35:51.706Z</time></trkpt><trkpt lat="43.4650067" lon="11.571525"><ele>446.20000000000005</ele><time>2026-04-28T09:35:52.706Z</time></trkpt><trkpt lat="43.464935" lon="11.5716067"><ele>443.79999999999995</ele><time>2026-04-28T09:35:53.704Z</time></trkpt><trkpt lat="43.4648617" lon="11.5716817"><ele>441.4</ele><time>2026-04-28T09:35:54.702Z</time></trkpt><trkpt lat="43.4647833" lon="11.5717533"><ele>439.0</ele><time>2026-04-28T09:35:55.705Z</time></trkpt><trkpt lat="43.4647083" lon="11.571825"><ele>439.0</ele><time>2026-04-28T09:35:56.706Z</time></trkpt><trkpt lat="43.4646367" lon="11.571915"><ele>439.0</ele><time>2026-04-28T09:35:57.707Z</time></trkpt><trkpt lat="43.4645567" lon="11.5720017"><ele>439.0</ele><time>2026-04-28T09:35:58.704Z</time></trkpt><trkpt lat="43.4644767" lon="11.5720933"><ele>439.0</ele><time>2026-04-28T09:35:59.703Z</time></trkpt><trkpt lat="43.4644017" lon="11.5721783"><ele>439.0</ele><time>2026-04-28T09:36:00.704Z</time></trkpt><trkpt lat="43.4643283" lon="11.5722733"><ele>439.1666666666667</ele><time>2026-04-28T09:36:01.704Z</time></trkpt><trkpt lat="43.46426" lon="11.5723633"><ele>439.33333333333337</ele><time>2026-04-28T09:36:02.704Z</time></trkpt><trkpt lat="43.464195" lon="11.5724433"><ele>439.5</ele><time>2026-04-28T09:36:03.706Z</time></trkpt><trkpt lat="43.4641367" lon="11.5725033"><ele>439.66666666666663</ele><time>2026-04-28T09:36:04.705Z</time></trkpt><trkpt lat="43.4640767" lon="11.57254"><ele>439.8333333333333</ele><time>2026-04-28T09:36:05.704Z</time></trkpt><trkpt lat="43.46401" lon="11.57256"><ele>440.0</ele><time>2026-04-28T09:36:06.703Z</time></trkpt><trkpt lat="43.4639467" lon="11.5725683"><ele>439.99999999999994</ele><time>2026-04-28T09:36:07.705Z</time></trkpt><trkpt lat="43.46388" lon="11.5725533"><ele>440.0</ele><time>2026-04-28T09:36:08.706Z</time></trkpt><trkpt lat="43.4638117" lon="11.57251"><ele>440.0</ele><time>2026-04-28T09:36:09.706Z</time></trkpt><trkpt lat="43.4637467" lon="11.572475"><ele>440.0</ele><time>2026-04-28T09:36:10.706Z</time></trkpt><trkpt lat="43.4636783" lon="11.5724517"><ele>439.99999999999994</ele><time>2026-04-28T09:36:11.705Z</time></trkpt><trkpt lat="43.4636083" lon="11.57245"><ele>440.0</ele><time>2026-04-28T09:36:12.705Z</time></trkpt><trkpt lat="43.4634917" lon="11.5725083"><ele>440.66666666666663</ele><time>2026-04-28T09:36:14.705Z</time></trkpt><trkpt lat="43.4634233" lon="11.5725417"><ele>441.3333333333333</ele><time>2026-04-28T09:36:15.706Z</time></trkpt><trkpt lat="43.4633217" lon="11.5725967"><ele>442.0</ele><time>2026-04-28T09:36:17.704Z</time></trkpt><trkpt lat="43.4632617" lon="11.5726617"><ele>442.66666666666663</ele><time>2026-04-28T09:36:19.706Z</time></trkpt><trkpt lat="43.4632133" lon="11.5727867"><ele>443.3333333333333</ele><time>2026-04-28T09:36:21.707Z</time></trkpt><trkpt lat="43.463165" lon="11.5728467"><ele>444.0</ele><time>2026-04-28T09:36:23.705Z</time></trkpt><trkpt lat="43.4631067" lon="11.5729467"><ele>444.5</ele><time>2026-04-28T09:36:25.706Z</time></trkpt><trkpt lat="43.463075" lon="11.5730283"><ele>445.0</ele><time>2026-04-28T09:36:26.704Z</time></trkpt><trkpt lat="43.463035" lon="11.5731317"><ele>445.5</ele><time>2026-04-28T09:36:27.706Z</time></trkpt><trkpt lat="43.462995" lon="11.57323"><ele>446.0</ele><time>2026-04-28T09:36:28.705Z</time></trkpt><trkpt lat="43.46295" lon="11.5733283"><ele>446.5</ele><time>2026-04-28T09:36:29.704Z</time></trkpt><trkpt lat="43.4628917" lon="11.5734233"><ele>447.0</ele><time>2026-04-28T09:36:30.706Z</time></trkpt><trkpt lat="43.462835" lon="11.573505"><ele>448.0</ele><time>2026-04-28T09:36:31.704Z</time></trkpt><trkpt lat="43.4627783" lon="11.573575"><ele>449.0</ele><time>2026-04-28T09:36:32.704Z</time></trkpt><trkpt lat="43.462715" lon="11.5736233"><ele>450.0</ele><time>2026-04-28T09:36:33.707Z</time></trkpt><trkpt lat="43.46265" lon="11.5736367"><ele>451.0</ele><time>2026-04-28T09:36:34.705Z</time></trkpt><trkpt lat="43.4625783" lon="11.573635"><ele>452.0</ele><time>2026-04-28T09:36:35.705Z</time></trkpt><trkpt lat="43.4624617" lon="11.573585"><ele>453.0</ele><time>2026-04-28T09:36:37.706Z</time></trkpt><trkpt lat="43.4623967" lon="11.5735183"><ele>453.0</ele><time>2026-04-28T09:36:38.706Z</time></trkpt><trkpt lat="43.4623467" lon="11.5734233"><ele>453.0</ele><time>2026-04-28T09:36:39.706Z</time></trkpt><trkpt lat="43.4623083" lon="11.5733283"><ele>453.0</ele><time>2026-04-28T09:36:40.705Z</time></trkpt><trkpt lat="43.462255" lon="11.5732567"><ele>453.0</ele><time>2026-04-28T09:36:41.705Z</time></trkpt><trkpt lat="43.4621933" lon="11.5731767"><ele>453.0</ele><time>2026-04-28T09:36:43.704Z</time></trkpt><trkpt lat="43.4621067" lon="11.5732067"><ele>453.0</ele><time>2026-04-28T09:36:45.707Z</time></trkpt><trkpt lat="43.4620183" lon="11.573245"><ele>452.6666666666667</ele><time>2026-04-28T09:36:47.704Z</time></trkpt><trkpt lat="43.4619417" lon="11.5733"><ele>452.33333333333337</ele><time>2026-04-28T09:36:49.706Z</time></trkpt><trkpt lat="43.4618783" lon="11.5734017"><ele>452.0</ele><time>2026-04-28T09:36:51.707Z</time></trkpt><trkpt lat="43.4618467" lon="11.5734833"><ele>451.6666666666667</ele><time>2026-04-28T09:36:53.703Z</time></trkpt><trkpt lat="43.4618017" lon="11.5735483"><ele>451.33333333333337</ele><time>2026-04-28T09:37:02.706Z</time></trkpt><trkpt lat="43.4617183" lon="11.573595"><ele>451.0</ele><time>2026-04-28T09:37:04.705Z</time></trkpt><trkpt lat="43.4616583" lon="11.573625"><ele>450.00000000000006</ele><time>2026-04-28T09:37:05.706Z</time></trkpt><trkpt lat="43.4615533" lon="11.5737117"><ele>449.0</ele><time>2026-04-28T09:37:07.707Z</time></trkpt><trkpt lat="43.4614467" lon="11.573805"><ele>448.0</ele><time>2026-04-28T09:37:09.706Z</time></trkpt><trkpt lat="43.4613917" lon="11.5738633"><ele>447.0</ele><time>2026-04-28T09:37:10.705Z</time></trkpt><trkpt lat="43.4613433" lon="11.57392"><ele>446.00000000000006</ele><time>2026-04-28T09:37:11.701Z</time></trkpt><trkpt lat="43.4612933" lon="11.5739733"><ele>445.0</ele><time>2026-04-28T09:37:12.704Z</time></trkpt><trkpt lat="43.4611933" lon="11.5740233"><ele>443.50000000000006</ele><time>2026-04-28T09:37:14.705Z</time></trkpt><trkpt lat="43.4611" lon="11.57408"><ele>442.0</ele><time>2026-04-28T09:37:16.705Z</time></trkpt><trkpt lat="43.4610567" lon="11.5741467"><ele>440.5</ele><time>2026-04-28T09:37:17.704Z</time></trkpt><trkpt lat="43.4610067" lon="11.5742333"><ele>439.0</ele><time>2026-04-28T09:37:18.705Z</time></trkpt><trkpt lat="43.4609567" lon="11.5743033"><ele>437.50000000000006</ele><time>2026-04-28T09:37:19.705Z</time></trkpt><trkpt lat="43.4608983" lon="11.574375"><ele>436.0</ele><time>2026-04-28T09:37:20.706Z</time></trkpt><trkpt lat="43.4608417" lon="11.5744217"><ele>436.0</ele><time>2026-04-28T09:37:21.706Z</time></trkpt><trkpt lat="43.4607267" lon="11.5744717"><ele>436.0</ele><time>2026-04-28T09:37:23.705Z</time></trkpt><trkpt lat="43.4606533" lon="11.574475"><ele>436.0</ele><time>2026-04-28T09:37:24.704Z</time></trkpt><trkpt lat="43.46054" lon="11.5744783"><ele>436.0</ele><time>2026-04-28T09:37:25.705Z</time></trkpt><trkpt lat="43.46041" lon="11.5744883"><ele>436.0</ele><time>2026-04-28T09:37:26.705Z</time></trkpt><trkpt lat="43.4602933" lon="11.5745017"><ele>436.0</ele><time>2026-04-28T09:37:27.706Z</time></trkpt><trkpt lat="43.4601833" lon="11.5745117"><ele>436.0</ele><time>2026-04-28T09:37:28.706Z</time></trkpt><trkpt lat="43.4600733" lon="11.57453"><ele>436.0</ele><time>2026-04-28T09:37:29.705Z</time></trkpt><trkpt lat="43.4599667" lon="11.57456"><ele>436.0</ele><time>2026-04-28T09:37:30.705Z</time></trkpt><trkpt lat="43.4598583" lon="11.5746033"><ele>436.0</ele><time>2026-04-28T09:37:31.704Z</time></trkpt><trkpt lat="43.45976" lon="11.574655"><ele>436.0</ele><time>2026-04-28T09:37:32.705Z</time></trkpt><trkpt lat="43.4596617" lon="11.574715"><ele>436.0</ele><time>2026-04-28T09:37:33.707Z</time></trkpt><trkpt lat="43.4595767" lon="11.574775"><ele>436.0</ele><time>2026-04-28T09:37:34.706Z</time></trkpt><trkpt lat="43.4594967" lon="11.5748433"><ele>436.0</ele><time>2026-04-28T09:37:35.705Z</time></trkpt><trkpt lat="43.4594017" lon="11.5748933"><ele>436.0</ele><time>2026-04-28T09:37:36.704Z</time></trkpt><trkpt lat="43.4593033" lon="11.5749317"><ele>438.0</ele><time>2026-04-28T09:37:37.706Z</time></trkpt><trkpt lat="43.459215" lon="11.5749283"><ele>440.0</ele><time>2026-04-28T09:37:38.705Z</time></trkpt><trkpt lat="43.45912" lon="11.5749233"><ele>442.0</ele><time>2026-04-28T09:37:39.706Z</time></trkpt><trkpt lat="43.4590267" lon="11.57492"><ele>444.0</ele><time>2026-04-28T09:37:40.705Z</time></trkpt><trkpt lat="43.4589333" lon="11.57491"><ele>446.0</ele><time>2026-04-28T09:37:41.705Z</time></trkpt><trkpt lat="43.4588317" lon="11.5748967"><ele>447.4</ele><time>2026-04-28T09:37:42.705Z</time></trkpt><trkpt lat="43.4587283" lon="11.5748767"><ele>448.8</ele><time>2026-04-28T09:37:43.706Z</time></trkpt><trkpt lat="43.4586233" lon="11.5748483"><ele>450.19999999999993</ele><time>2026-04-28T09:37:44.705Z</time></trkpt><trkpt lat="43.4585317" lon="11.5748083"><ele>451.59999999999997</ele><time>2026-04-28T09:37:45.706Z</time></trkpt><trkpt lat="43.458445" lon="11.57477"><ele>453.0</ele><time>2026-04-28T09:37:46.704Z</time></trkpt><trkpt lat="43.4583733" lon="11.5747383"><ele>452.99999999999994</ele><time>2026-04-28T09:37:47.704Z</time></trkpt><trkpt lat="43.4583" lon="11.5747317"><ele>453.0</ele><time>2026-04-28T09:37:48.709Z</time></trkpt><trkpt lat="43.458235" lon="11.5747633"><ele>452.99999999999994</ele><time>2026-04-28T09:37:49.705Z</time></trkpt><trkpt lat="43.458175" lon="11.5748067"><ele>452.99999999999994</ele><time>2026-04-28T09:37:50.703Z</time></trkpt><trkpt lat="43.458125" lon="11.5748667"><ele>453.0</ele><time>2026-04-28T09:37:51.706Z</time></trkpt><trkpt lat="43.458095" lon="11.5749467"><ele>452.99999999999994</ele><time>2026-04-28T09:37:52.706Z</time></trkpt><trkpt lat="43.4580667" lon="11.5750333"><ele>452.99999999999994</ele><time>2026-04-28T09:37:53.705Z</time></trkpt><trkpt lat="43.4580333" lon="11.57512"><ele>453.0</ele><time>2026-04-28T09:37:54.705Z</time></trkpt><trkpt lat="43.4579917" lon="11.5752017"><ele>453.0</ele><time>2026-04-28T09:37:55.705Z</time></trkpt><trkpt lat="43.4579567" lon="11.5752867"><ele>453.0</ele><time>2026-04-28T09:37:56.706Z</time></trkpt><trkpt lat="43.4579233" lon="11.5753783"><ele>453.0</ele><time>2026-04-28T09:37:57.707Z</time></trkpt><trkpt lat="43.4578917" lon="11.575465"><ele>453.0</ele><time>2026-04-28T09:37:58.706Z</time></trkpt><trkpt lat="43.4578533" lon="11.5755367"><ele>453.0</ele><time>2026-04-28T09:37:59.704Z</time></trkpt><trkpt lat="43.4577717" lon="11.575655"><ele>455.3333333333333</ele><time>2026-04-28T09:38:01.706Z</time></trkpt><trkpt lat="43.4576967" lon="11.5757233"><ele>457.66666666666663</ele><time>2026-04-28T09:38:03.705Z</time></trkpt><trkpt lat="43.45759" lon="11.5756983"><ele>460.0</ele><time>2026-04-28T09:38:05.705Z</time></trkpt><trkpt lat="43.45752" lon="11.57572"><ele>462.3333333333333</ele><time>2026-04-28T09:38:06.707Z</time></trkpt><trkpt lat="43.4574517" lon="11.5757517"><ele>464.66666666666663</ele><time>2026-04-28T09:38:07.706Z</time></trkpt><trkpt lat="43.45737" lon="11.5757933"><ele>467.0</ele><time>2026-04-28T09:38:08.702Z</time></trkpt><trkpt lat="43.4572817" lon="11.5758417"><ele>467.0</ele><time>2026-04-28T09:38:09.705Z</time></trkpt><trkpt lat="43.4571983" lon="11.57587"><ele>467.00000000000006</ele><time>2026-04-28T09:38:10.705Z</time></trkpt><trkpt lat="43.4571133" lon="11.5759017"><ele>467.00000000000006</ele><time>2026-04-28T09:38:11.704Z</time></trkpt><trkpt lat="43.4570333" lon="11.57593"><ele>467.0</ele><time>2026-04-28T09:38:12.705Z</time></trkpt><trkpt lat="43.4569283" lon="11.575975"><ele>467.0</ele><time>2026-04-28T09:38:13.706Z</time></trkpt><trkpt lat="43.456845" lon="11.5760317"><ele>466.3333333333333</ele><time>2026-04-28T09:38:14.706Z</time></trkpt><trkpt lat="43.4567767" lon="11.5761217"><ele>465.66666666666663</ele><time>2026-04-28T09:38:15.706Z</time></trkpt><trkpt lat="43.4567117" lon="11.5762167"><ele>465.0</ele><time>2026-04-28T09:38:16.705Z</time></trkpt><trkpt lat="43.4566533" lon="11.5763117"><ele>464.33333333333337</ele><time>2026-04-28T09:38:17.705Z</time></trkpt><trkpt lat="43.4566017" lon="11.576405"><ele>463.6666666666667</ele><time>2026-04-28T09:38:18.706Z</time></trkpt><trkpt lat="43.456555" lon="11.5765"><ele>463.0</ele><time>2026-04-28T09:38:19.704Z</time></trkpt><trkpt lat="43.45651" lon="11.5765933"><ele>463.0</ele><time>2026-04-28T09:38:20.704Z</time></trkpt><trkpt lat="43.4564633" lon="11.5767017"><ele>462.99999999999994</ele><time>2026-04-28T09:38:21.706Z</time></trkpt><trkpt lat="43.456415" lon="11.576825"><ele>462.99999999999994</ele><time>2026-04-28T09:38:22.704Z</time></trkpt><trkpt lat="43.456365" lon="11.57695"><ele>463.0</ele><time>2026-04-28T09:38:23.705Z</time></trkpt><trkpt lat="43.45631" lon="11.5770517"><ele>463.0</ele><time>2026-04-28T09:38:24.705Z</time></trkpt><trkpt lat="43.45627" lon="11.577135"><ele>462.85714285714283</ele><time>2026-04-28T09:38:25.706Z</time></trkpt><trkpt lat="43.4562283" lon="11.5772083"><ele>462.71428571428567</ele><time>2026-04-28T09:38:26.705Z</time></trkpt><trkpt lat="43.4561883" lon="11.57728"><ele>462.57142857142856</ele><time>2026-04-28T09:38:27.706Z</time></trkpt><trkpt lat="43.45613" lon="11.5773967"><ele>462.42857142857144</ele><time>2026-04-28T09:38:29.704Z</time></trkpt><trkpt lat="43.45609" lon="11.5774783"><ele>462.2857142857143</ele><time>2026-04-28T09:38:37.706Z</time></trkpt><trkpt lat="43.456045" lon="11.5774067"><ele>462.1428571428571</ele><time>2026-04-28T09:38:39.706Z</time></trkpt><trkpt lat="43.4559767" lon="11.5774"><ele>462.0</ele><time>2026-04-28T09:38:41.705Z</time></trkpt><trkpt lat="43.4559033" lon="11.5774217"><ele>462.0</ele><time>2026-04-28T09:38:42.706Z</time></trkpt><trkpt lat="43.4558333" lon="11.5774533"><ele>462.00000000000006</ele><time>2026-04-28T09:38:43.707Z</time></trkpt><trkpt lat="43.4557683" lon="11.5774967"><ele>462.00000000000006</ele><time>2026-04-28T09:38:44.707Z</time></trkpt><trkpt lat="43.455705" lon="11.5775417"><ele>462.0</ele><time>2026-04-28T09:38:45.704Z</time></trkpt><trkpt lat="43.4555883" lon="11.5775867"><ele>462.0</ele><time>2026-04-28T09:38:47.704Z</time></trkpt><trkpt lat="43.455465" lon="11.5775967"><ele>462.1666666666667</ele><time>2026-04-28T09:38:49.705Z</time></trkpt><trkpt lat="43.4553517" lon="11.57768"><ele>462.33333333333337</ele><time>2026-04-28T09:38:51.705Z</time></trkpt><trkpt lat="43.4552883" lon="11.5777417"><ele>462.5</ele><time>2026-04-28T09:38:52.705Z</time></trkpt><trkpt lat="43.4552317" lon="11.5778067"><ele>462.6666666666667</ele><time>2026-04-28T09:38:53.705Z</time></trkpt><trkpt lat="43.455175" lon="11.5778667"><ele>462.83333333333337</ele><time>2026-04-28T09:38:54.707Z</time></trkpt><trkpt lat="43.455115" lon="11.577925"><ele>463.0</ele><time>2026-04-28T09:38:55.705Z</time></trkpt><trkpt lat="43.4550567" lon="11.5779917"><ele>463.0</ele><time>2026-04-28T09:38:56.705Z</time></trkpt><trkpt lat="43.4550033" lon="11.5780633"><ele>462.99999999999994</ele><time>2026-04-28T09:38:57.705Z</time></trkpt><trkpt lat="43.45495" lon="11.5781317"><ele>463.0</ele><time>2026-04-28T09:38:58.704Z</time></trkpt><trkpt lat="43.4549033" lon="11.5781917"><ele>463.0</ele><time>2026-04-28T09:38:59.704Z</time></trkpt><trkpt lat="43.454855" lon="11.5782483"><ele>462.99999999999994</ele><time>2026-04-28T09:39:00.704Z</time></trkpt><trkpt lat="43.4548033" lon="11.5783067"><ele>463.0</ele><time>2026-04-28T09:39:01.705Z</time></trkpt><trkpt lat="43.4547517" lon="11.5783583"><ele>463.0</ele><time>2026-04-28T09:39:02.707Z</time></trkpt><trkpt lat="43.4546683" lon="11.5784"><ele>462.0</ele><time>2026-04-28T09:39:04.707Z</time></trkpt><trkpt lat="43.4545467" lon="11.57846"><ele>460.99999999999994</ele><time>2026-04-28T09:39:06.705Z</time></trkpt><trkpt lat="43.4544783" lon="11.578505"><ele>459.99999999999994</ele><time>2026-04-28T09:39:07.706Z</time></trkpt><trkpt lat="43.4543833" lon="11.57857"><ele>459.0</ele><time>2026-04-28T09:39:08.708Z</time></trkpt><trkpt lat="43.4543067" lon="11.5786267"><ele>458.0</ele><time>2026-04-28T09:39:09.705Z</time></trkpt><trkpt lat="43.4542133" lon="11.5787"><ele>457.59999999999997</ele><time>2026-04-28T09:39:10.705Z</time></trkpt><trkpt lat="43.4541217" lon="11.5787633"><ele>457.19999999999993</ele><time>2026-04-28T09:39:11.705Z</time></trkpt><trkpt lat="43.4540283" lon="11.578835"><ele>456.8</ele><time>2026-04-28T09:39:12.705Z</time></trkpt><trkpt lat="43.453935" lon="11.5789183"><ele>456.4</ele><time>2026-04-28T09:39:13.705Z</time></trkpt><trkpt lat="43.453845" lon="11.5790067"><ele>456.0</ele><time>2026-04-28T09:39:14.705Z</time></trkpt><trkpt lat="43.4537433" lon="11.5790883"><ele>456.0</ele><time>2026-04-28T09:39:15.706Z</time></trkpt><trkpt lat="43.45365" lon="11.5791583"><ele>456.0</ele><time>2026-04-28T09:39:16.705Z</time></trkpt><trkpt lat="43.4535633" lon="11.57921"><ele>456.0</ele><time>2026-04-28T09:39:17.704Z</time></trkpt><trkpt lat="43.4534767" lon="11.5792583"><ele>456.0</ele><time>2026-04-28T09:39:18.706Z</time></trkpt><trkpt lat="43.45339" lon="11.5793033"><ele>456.0</ele><time>2026-04-28T09:39:19.705Z</time></trkpt><trkpt lat="43.4532983" lon="11.5793467"><ele>456.0</ele><time>2026-04-28T09:39:20.706Z</time></trkpt><trkpt lat="43.453205" lon="11.5793967"><ele>456.0</ele><time>2026-04-28T09:39:21.706Z</time></trkpt><trkpt lat="43.4531133" lon="11.57945"><ele>456.0</ele><time>2026-04-28T09:39:22.706Z</time></trkpt><trkpt lat="43.4530267" lon="11.5795"><ele>456.0</ele><time>2026-04-28T09:39:23.705Z</time></trkpt><trkpt lat="43.45294" lon="11.5795517"><ele>456.0</ele><time>2026-04-28T09:39:24.704Z</time></trkpt><trkpt lat="43.452845" lon="11.5796017"><ele>454.25</ele><time>2026-04-28T09:39:25.706Z</time></trkpt><trkpt lat="43.4527433" lon="11.57966"><ele>452.5</ele><time>2026-04-28T09:39:26.707Z</time></trkpt><trkpt lat="43.4526383" lon="11.5797233"><ele>450.75</ele><time>2026-04-28T09:39:27.705Z</time></trkpt><trkpt lat="43.4525317" lon="11.5797867"><ele>449.0</ele><time>2026-04-28T09:39:28.705Z</time></trkpt><trkpt lat="43.4524267" lon="11.5798467"><ele>449.0</ele><time>2026-04-28T09:39:29.705Z</time></trkpt><trkpt lat="43.4523217" lon="11.5799033"><ele>449.0</ele><time>2026-04-28T09:39:30.706Z</time></trkpt><trkpt lat="43.45222" lon="11.579955"><ele>449.0</ele><time>2026-04-28T09:39:31.706Z</time></trkpt><trkpt lat="43.4521317" lon="11.5800033"><ele>449.0</ele><time>2026-04-28T09:39:32.706Z</time></trkpt><trkpt lat="43.45206" lon="11.5800433"><ele>449.0</ele><time>2026-04-28T09:39:33.707Z</time></trkpt><trkpt lat="43.4519867" lon="11.58014"><ele>449.0</ele><time>2026-04-28T09:39:35.704Z</time></trkpt><trkpt lat="43.4520217" lon="11.5802667"><ele>449.0</ele><time>2026-04-28T09:39:37.705Z</time></trkpt><trkpt lat="43.45206" lon="11.5803417"><ele>449.0</ele><time>2026-04-28T09:39:38.705Z</time></trkpt><trkpt lat="43.45213" lon="11.58048"><ele>449.0</ele><time>2026-04-28T09:39:40.705Z</time></trkpt><trkpt lat="43.4522167" lon="11.5805683"><ele>449.0</ele><time>2026-04-28T09:39:42.706Z</time></trkpt><trkpt lat="43.45228" lon="11.58059"><ele>447.3333333333333</ele><time>2026-04-28T09:39:43.706Z</time></trkpt><trkpt lat="43.452345" lon="11.5805917"><ele>445.66666666666663</ele><time>2026-04-28T09:39:44.706Z</time></trkpt><trkpt lat="43.4524267" lon="11.5805683"><ele>444.0</ele><time>2026-04-28T09:39:45.706Z</time></trkpt><trkpt lat="43.45252" lon="11.580525"><ele>442.33333333333337</ele><time>2026-04-28T09:39:46.704Z</time></trkpt><trkpt lat="43.4526067" lon="11.5804967"><ele>440.6666666666667</ele><time>2026-04-28T09:39:47.705Z</time></trkpt><trkpt lat="43.4526917" lon="11.5804717"><ele>439.0</ele><time>2026-04-28T09:39:48.704Z</time></trkpt><trkpt lat="43.4527733" lon="11.5804583"><ele>439.00000000000006</ele><time>2026-04-28T09:39:49.706Z</time></trkpt><trkpt lat="43.4528567" lon="11.5804433"><ele>439.0</ele><time>2026-04-28T09:39:50.705Z</time></trkpt><trkpt lat="43.4529433" lon="11.58044"><ele>439.0</ele><time>2026-04-28T09:39:51.706Z</time></trkpt><trkpt lat="43.4530283" lon="11.5804417"><ele>439.0</ele><time>2026-04-28T09:39:52.706Z</time></trkpt><trkpt lat="43.4531167" lon="11.5804583"><ele>439.00000000000006</ele><time>2026-04-28T09:39:53.705Z</time></trkpt><trkpt lat="43.4531983" lon="11.5804817"><ele>439.0</ele><time>2026-04-28T09:39:54.706Z</time></trkpt><trkpt lat="43.4532733" lon="11.5805117"><ele>437.33333333333337</ele><time>2026-04-28T09:39:55.707Z</time></trkpt><trkpt lat="43.453345" lon="11.5805533"><ele>435.6666666666667</ele><time>2026-04-28T09:39:56.706Z</time></trkpt><trkpt lat="43.4534067" lon="11.5806133"><ele>434.0</ele><time>2026-04-28T09:39:57.707Z</time></trkpt><trkpt lat="43.4534667" lon="11.5806817"><ele>432.33333333333337</ele><time>2026-04-28T09:39:58.706Z</time></trkpt><trkpt lat="43.4535267" lon="11.5807533"><ele>430.6666666666667</ele><time>2026-04-28T09:39:59.704Z</time></trkpt><trkpt lat="43.4535867" lon="11.580835"><ele>429.0</ele><time>2026-04-28T09:40:00.704Z</time></trkpt><trkpt lat="43.453645" lon="11.5809183"><ele>429.0</ele><time>2026-04-28T09:40:01.705Z</time></trkpt><trkpt lat="43.4537133" lon="11.58101"><ele>429.0</ele><time>2026-04-28T09:40:02.705Z</time></trkpt><trkpt lat="43.4537717" lon="11.581095"><ele>429.0</ele><time>2026-04-28T09:40:03.706Z</time></trkpt><trkpt lat="43.4538333" lon="11.581175"><ele>429.0</ele><time>2026-04-28T09:40:04.705Z</time></trkpt><trkpt lat="43.4538967" lon="11.58125"><ele>429.0</ele><time>2026-04-28T09:40:05.705Z</time></trkpt><trkpt lat="43.4539583" lon="11.5813133"><ele>429.0</ele><time>2026-04-28T09:40:06.706Z</time></trkpt><trkpt lat="43.4540167" lon="11.58137"><ele>426.6</ele><time>2026-04-28T09:40:07.707Z</time></trkpt><trkpt lat="43.4540783" lon="11.5814183"><ele>424.2</ele><time>2026-04-28T09:40:08.706Z</time></trkpt><trkpt lat="43.45414" lon="11.581455"><ele>421.8</ele><time>2026-04-28T09:40:09.707Z</time></trkpt><trkpt lat="43.4542683" lon="11.5814767"><ele>419.40000000000003</ele><time>2026-04-28T09:40:11.706Z</time></trkpt><trkpt lat="43.4543833" lon="11.5814633"><ele>417.0</ele><time>2026-04-28T09:40:13.706Z</time></trkpt><trkpt lat="43.4544617" lon="11.581425"><ele>417.0</ele><time>2026-04-28T09:40:15.706Z</time></trkpt><trkpt lat="43.454535" lon="11.58135"><ele>417.0</ele><time>2026-04-28T09:40:17.705Z</time></trkpt><trkpt lat="43.4546" lon="11.581305"><ele>417.0</ele><time>2026-04-28T09:40:18.705Z</time></trkpt><trkpt lat="43.4546833" lon="11.581175"><ele>417.0</ele><time>2026-04-28T09:40:20.706Z</time></trkpt><trkpt lat="43.4547217" lon="11.5810917"><ele>417.0</ele><time>2026-04-28T09:40:21.705Z</time></trkpt><trkpt lat="43.4547483" lon="11.581005"><ele>417.0</ele><time>2026-04-28T09:40:22.71Z</time></trkpt><trkpt lat="43.4547733" lon="11.5809167"><ele>418.42857142857144</ele><time>2026-04-28T09:40:23.705Z</time></trkpt><trkpt lat="43.454795" lon="11.58082"><ele>419.85714285714283</ele><time>2026-04-28T09:40:24.706Z</time></trkpt><trkpt lat="43.4548217" lon="11.58072"><ele>421.2857142857143</ele><time>2026-04-28T09:40:25.706Z</time></trkpt><trkpt lat="43.4548583" lon="11.5806333"><ele>422.7142857142857</ele><time>2026-04-28T09:40:26.705Z</time></trkpt><trkpt lat="43.4548983" lon="11.5805617"><ele>424.1428571428571</ele><time>2026-04-28T09:40:27.706Z</time></trkpt><trkpt lat="43.4549567" lon="11.5804983"><ele>425.57142857142856</ele><time>2026-04-28T09:40:28.706Z</time></trkpt><trkpt lat="43.4550233" lon="11.5804367"><ele>427.0</ele><time>2026-04-28T09:40:29.705Z</time></trkpt><trkpt lat="43.4550917" lon="11.5803783"><ele>429.1666666666667</ele><time>2026-04-28T09:40:30.705Z</time></trkpt><trkpt lat="43.45516" lon="11.5803283"><ele>431.33333333333337</ele><time>2026-04-28T09:40:31.705Z</time></trkpt><trkpt lat="43.4552217" lon="11.58027"><ele>433.5</ele><time>2026-04-28T09:40:32.704Z</time></trkpt><trkpt lat="43.4552733" lon="11.580205"><ele>435.66666666666663</ele><time>2026-04-28T09:40:33.706Z</time></trkpt><trkpt lat="43.4553183" lon="11.5801317"><ele>437.8333333333333</ele><time>2026-04-28T09:40:34.705Z</time></trkpt><trkpt lat="43.455355" lon="11.5800483"><ele>440.0</ele><time>2026-04-28T09:40:35.704Z</time></trkpt><trkpt lat="43.4553867" lon="11.5798783"><ele>439.99999999999994</ele><time>2026-04-28T09:40:37.705Z</time></trkpt><trkpt lat="43.4554033" lon="11.5797833"><ele>440.0</ele><time>2026-04-28T09:40:38.704Z</time></trkpt><trkpt lat="43.4554167" lon="11.5796883"><ele>440.0</ele><time>2026-04-28T09:40:39.706Z</time></trkpt><trkpt lat="43.45543" lon="11.579585"><ele>440.0</ele><time>2026-04-28T09:40:40.705Z</time></trkpt><trkpt lat="43.4554383" lon="11.5794983"><ele>440.0</ele><time>2026-04-28T09:40:41.703Z</time></trkpt><trkpt lat="43.4554517" lon="11.5794067"><ele>439.99999999999994</ele><time>2026-04-28T09:40:42.706Z</time></trkpt><trkpt lat="43.4554683" lon="11.5792967"><ele>440.0</ele><time>2026-04-28T09:40:43.705Z</time></trkpt><trkpt lat="43.45548" lon="11.5791833"><ele>440.3333333333333</ele><time>2026-04-28T09:40:44.705Z</time></trkpt><trkpt lat="43.4554967" lon="11.579075"><ele>440.66666666666663</ele><time>2026-04-28T09:40:45.706Z</time></trkpt><trkpt lat="43.4555183" lon="11.5789817"><ele>441.0</ele><time>2026-04-28T09:40:46.705Z</time></trkpt><trkpt lat="43.4555517" lon="11.5788817"><ele>441.33333333333337</ele><time>2026-04-28T09:40:47.705Z</time></trkpt><trkpt lat="43.4555983" lon="11.5787983"><ele>441.6666666666667</ele><time>2026-04-28T09:40:48.705Z</time></trkpt><trkpt lat="43.455645" lon="11.5787267"><ele>442.0</ele><time>2026-04-28T09:40:49.703Z</time></trkpt><trkpt lat="43.4557067" lon="11.578655"><ele>444.33333333333337</ele><time>2026-04-28T09:40:50.704Z</time></trkpt><trkpt lat="43.455775" lon="11.5785717"><ele>446.6666666666667</ele><time>2026-04-28T09:40:51.707Z</time></trkpt><trkpt lat="43.4558383" lon="11.5784883"><ele>449.0</ele><time>2026-04-28T09:40:52.705Z</time></trkpt><trkpt lat="43.4559083" lon="11.5784017"><ele>451.33333333333337</ele><time>2026-04-28T09:40:53.704Z</time></trkpt><trkpt lat="43.4559633" lon="11.578315"><ele>453.6666666666667</ele><time>2026-04-28T09:40:54.706Z</time></trkpt><trkpt lat="43.456" lon="11.5782433"><ele>456.0</ele><time>2026-04-28T09:40:55.706Z</time></trkpt><trkpt lat="43.4560383" lon="11.5781483"><ele>456.0</ele><time>2026-04-28T09:40:56.705Z</time></trkpt><trkpt lat="43.4560783" lon="11.5780517"><ele>455.99999999999994</ele><time>2026-04-28T09:40:57.708Z</time></trkpt><trkpt lat="43.456115" lon="11.5779617"><ele>456.0</ele><time>2026-04-28T09:40:58.705Z</time></trkpt><trkpt lat="43.4561417" lon="11.5778683"><ele>456.0</ele><time>2026-04-28T09:40:59.705Z</time></trkpt><trkpt lat="43.45615" lon="11.57778"><ele>455.99999999999994</ele><time>2026-04-28T09:41:00.707Z</time></trkpt><trkpt lat="43.4561433" lon="11.5776883"><ele>456.0</ele><time>2026-04-28T09:41:01.705Z</time></trkpt><trkpt lat="43.4561383" lon="11.5775967"><ele>456.0</ele><time>2026-04-28T09:41:02.704Z</time></trkpt><trkpt lat="43.4561467" lon="11.5774983"><ele>456.0</ele><time>2026-04-28T09:41:03.707Z</time></trkpt><trkpt lat="43.4561767" lon="11.577395"><ele>456.0</ele><time>2026-04-28T09:41:04.704Z</time></trkpt><trkpt lat="43.4562167" lon="11.5772833"><ele>456.0</ele><time>2026-04-28T09:41:05.706Z</time></trkpt><trkpt lat="43.4562667" lon="11.577165"><ele>456.0</ele><time>2026-04-28T09:41:06.704Z</time></trkpt><trkpt lat="43.4563217" lon="11.57706"><ele>456.0</ele><time>2026-04-28T09:41:07.707Z</time></trkpt><trkpt lat="43.4563683" lon="11.5769417"><ele>457.1666666666667</ele><time>2026-04-28T09:41:08.706Z</time></trkpt><trkpt lat="43.4564083" lon="11.576825"><ele>458.33333333333337</ele><time>2026-04-28T09:41:09.705Z</time></trkpt><trkpt lat="43.456445" lon="11.5767217"><ele>459.5</ele><time>2026-04-28T09:41:10.706Z</time></trkpt><trkpt lat="43.4564817" lon="11.5766317"><ele>460.6666666666667</ele><time>2026-04-28T09:41:11.704Z</time></trkpt><trkpt lat="43.4565283" lon="11.5765467"><ele>461.83333333333337</ele><time>2026-04-28T09:41:12.706Z</time></trkpt><trkpt lat="43.45657" lon="11.5764633"><ele>463.0</ele><time>2026-04-28T09:41:13.706Z</time></trkpt><trkpt lat="43.456615" lon="11.5763667"><ele>463.00000000000006</ele><time>2026-04-28T09:41:14.706Z</time></trkpt><trkpt lat="43.4566617" lon="11.576285"><ele>463.0</ele><time>2026-04-28T09:41:15.707Z</time></trkpt><trkpt lat="43.4567133" lon="11.5762033"><ele>463.0</ele><time>2026-04-28T09:41:16.705Z</time></trkpt><trkpt lat="43.45677" lon="11.5761183"><ele>463.0</ele><time>2026-04-28T09:41:17.705Z</time></trkpt><trkpt lat="43.456825" lon="11.5760433"><ele>463.00000000000006</ele><time>2026-04-28T09:41:18.705Z</time></trkpt><trkpt lat="43.4568867" lon="11.5759867"><ele>463.0</ele><time>2026-04-28T09:41:19.706Z</time></trkpt><trkpt lat="43.4569583" lon="11.5759483"><ele>463.0</ele><time>2026-04-28T09:41:20.706Z</time></trkpt><trkpt lat="43.45703" lon="11.5759233"><ele>462.99999999999994</ele><time>2026-04-28T09:41:21.706Z</time></trkpt><trkpt lat="43.457105" lon="11.5758867"><ele>463.0</ele><time>2026-04-28T09:41:22.705Z</time></trkpt><trkpt lat="43.4571733" lon="11.5758467"><ele>463.0</ele><time>2026-04-28T09:41:23.705Z</time></trkpt><trkpt lat="43.4572383" lon="11.5758017"><ele>462.99999999999994</ele><time>2026-04-28T09:41:24.709Z</time></trkpt><trkpt lat="43.4573083" lon="11.5757583"><ele>463.0</ele><time>2026-04-28T09:41:25.706Z</time></trkpt><trkpt lat="43.457375" lon="11.5757233"><ele>463.0</ele><time>2026-04-28T09:41:26.705Z</time></trkpt><trkpt lat="43.4574433" lon="11.5757017"><ele>463.79999999999995</ele><time>2026-04-28T09:41:27.706Z</time></trkpt><trkpt lat="43.4575083" lon="11.5756883"><ele>464.59999999999997</ele><time>2026-04-28T09:41:28.705Z</time></trkpt><trkpt lat="43.4576167" lon="11.5756917"><ele>465.40000000000003</ele><time>2026-04-28T09:41:30.705Z</time></trkpt><trkpt lat="43.4577083" lon="11.5756867"><ele>466.20000000000005</ele><time>2026-04-28T09:41:32.704Z</time></trkpt><trkpt lat="43.4578317" lon="11.5756233"><ele>467.0</ele><time>2026-04-28T09:41:34.706Z</time></trkpt><trkpt lat="43.4578917" lon="11.57557"><ele>466.99999999999994</ele><time>2026-04-28T09:41:35.706Z</time></trkpt><trkpt lat="43.4579517" lon="11.575485"><ele>467.0</ele><time>2026-04-28T09:41:36.707Z</time></trkpt><trkpt lat="43.457995" lon="11.5754167"><ele>467.0</ele><time>2026-04-28T09:41:37.706Z</time></trkpt><trkpt lat="43.45803" lon="11.5753167"><ele>467.0</ele><time>2026-04-28T09:41:38.707Z</time></trkpt><trkpt lat="43.4580667" lon="11.5752133"><ele>466.99999999999994</ele><time>2026-04-28T09:41:39.707Z</time></trkpt><trkpt lat="43.458105" lon="11.5751067"><ele>467.0</ele><time>2026-04-28T09:41:40.705Z</time></trkpt><trkpt lat="43.45814" lon="11.5750267"><ele>464.66666666666663</ele><time>2026-04-28T09:41:41.704Z</time></trkpt><trkpt lat="43.4581817" lon="11.574945"><ele>462.3333333333333</ele><time>2026-04-28T09:41:42.705Z</time></trkpt><trkpt lat="43.4582217" lon="11.5748717"><ele>460.0</ele><time>2026-04-28T09:41:43.705Z</time></trkpt><trkpt lat="43.458305" lon="11.5747467"><ele>457.66666666666663</ele><time>2026-04-28T09:41:45.705Z</time></trkpt><trkpt lat="43.458365" lon="11.57471"><ele>455.3333333333333</ele><time>2026-04-28T09:41:46.705Z</time></trkpt><trkpt lat="43.4584317" lon="11.5747117"><ele>453.0</ele><time>2026-04-28T09:41:47.705Z</time></trkpt><trkpt lat="43.458505" lon="11.5747367"><ele>453.0</ele><time>2026-04-28T09:41:48.706Z</time></trkpt><trkpt lat="43.4585733" lon="11.5747617"><ele>453.0</ele><time>2026-04-28T09:41:49.706Z</time></trkpt><trkpt lat="43.45865" lon="11.5747817"><ele>453.0</ele><time>2026-04-28T09:41:50.705Z</time></trkpt><trkpt lat="43.4587333" lon="11.5747967"><ele>453.0</ele><time>2026-04-28T09:41:51.707Z</time></trkpt><trkpt lat="43.4588217" lon="11.5748"><ele>453.0</ele><time>2026-04-28T09:41:52.706Z</time></trkpt><trkpt lat="43.4589033" lon="11.5748083"><ele>453.0</ele><time>2026-04-28T09:41:53.704Z</time></trkpt><trkpt lat="43.4589917" lon="11.574825"><ele>451.8333333333333</ele><time>2026-04-28T09:41:54.705Z</time></trkpt><trkpt lat="43.4590783" lon="11.5748383"><ele>450.66666666666663</ele><time>2026-04-28T09:41:55.705Z</time></trkpt><trkpt lat="43.4591683" lon="11.5748483"><ele>449.5</ele><time>2026-04-28T09:41:56.704Z</time></trkpt><trkpt lat="43.4592517" lon="11.5748483"><ele>448.3333333333333</ele><time>2026-04-28T09:41:57.705Z</time></trkpt><trkpt lat="43.4593367" lon="11.5748367"><ele>447.16666666666663</ele><time>2026-04-28T09:41:58.705Z</time></trkpt><trkpt lat="43.4594283" lon="11.5748233"><ele>446.0</ele><time>2026-04-28T09:41:59.705Z</time></trkpt><trkpt lat="43.4595267" lon="11.5747867"><ele>444.0</ele><time>2026-04-28T09:42:00.705Z</time></trkpt><trkpt lat="43.4596217" lon="11.5747183"><ele>442.0</ele><time>2026-04-28T09:42:01.705Z</time></trkpt><trkpt lat="43.45972" lon="11.574655"><ele>440.0</ele><time>2026-04-28T09:42:02.701Z</time></trkpt><trkpt lat="43.4598217" lon="11.5745983"><ele>438.0</ele><time>2026-04-28T09:42:03.706Z</time></trkpt><trkpt lat="43.4599383" lon="11.57455"><ele>436.0</ele><time>2026-04-28T09:42:04.706Z</time></trkpt><trkpt lat="43.460065" lon="11.574525"><ele>436.0</ele><time>2026-04-28T09:42:05.705Z</time></trkpt><trkpt lat="43.46019" lon="11.5745083"><ele>436.0</ele><time>2026-04-28T09:42:06.706Z</time></trkpt><trkpt lat="43.4603167" lon="11.5745"><ele>436.0</ele><time>2026-04-28T09:42:07.705Z</time></trkpt><trkpt lat="43.4604367" lon="11.5744767"><ele>436.0</ele><time>2026-04-28T09:42:08.705Z</time></trkpt><trkpt lat="43.4605467" lon="11.5744633"><ele>436.00000000000006</ele><time>2026-04-28T09:42:09.707Z</time></trkpt><trkpt lat="43.46065" lon="11.5744517"><ele>436.0</ele><time>2026-04-28T09:42:10.705Z</time></trkpt><trkpt lat="43.4607433" lon="11.57444"><ele>436.0</ele><time>2026-04-28T09:42:11.705Z</time></trkpt><trkpt lat="43.460825" lon="11.57443"><ele>436.0</ele><time>2026-04-28T09:42:12.707Z</time></trkpt><trkpt lat="43.4608967" lon="11.5744067"><ele>436.00000000000006</ele><time>2026-04-28T09:42:13.706Z</time></trkpt><trkpt lat="43.46096" lon="11.5743817"><ele>436.0</ele><time>2026-04-28T09:42:14.705Z</time></trkpt><trkpt lat="43.4610167" lon="11.5743167"><ele>436.00000000000006</ele><time>2026-04-28T09:42:15.706Z</time></trkpt><trkpt lat="43.4610667" lon="11.57424"><ele>436.0</ele><time>2026-04-28T09:42:16.705Z</time></trkpt><trkpt lat="43.461115" lon="11.5741667"><ele>436.0</ele><time>2026-04-28T09:42:17.705Z</time></trkpt><trkpt lat="43.461165" lon="11.5741017"><ele>436.0</ele><time>2026-04-28T09:42:18.7Z</time></trkpt><trkpt lat="43.4612333" lon="11.57404"><ele>436.00000000000006</ele><time>2026-04-28T09:42:19.705Z</time></trkpt><trkpt lat="43.461295" lon="11.5739767"><ele>436.0</ele><time>2026-04-28T09:42:20.706Z</time></trkpt><trkpt lat="43.4613533" lon="11.5739083"><ele>437.50000000000006</ele><time>2026-04-28T09:42:21.706Z</time></trkpt><trkpt lat="43.4614133" lon="11.573835"><ele>439.0</ele><time>2026-04-28T09:42:22.706Z</time></trkpt><trkpt lat="43.4614767" lon="11.5737683"><ele>440.5</ele><time>2026-04-28T09:42:23.706Z</time></trkpt><trkpt lat="43.461545" lon="11.573705"><ele>442.0</ele><time>2026-04-28T09:42:24.705Z</time></trkpt><trkpt lat="43.4616167" lon="11.573655"><ele>443.50000000000006</ele><time>2026-04-28T09:42:25.706Z</time></trkpt><trkpt lat="43.4616867" lon="11.57362"><ele>445.0</ele><time>2026-04-28T09:42:26.705Z</time></trkpt><trkpt lat="43.4617517" lon="11.5735867"><ele>445.0</ele><time>2026-04-28T09:42:27.709Z</time></trkpt><trkpt lat="43.4618567" lon="11.5735667"><ele>445.0</ele><time>2026-04-28T09:42:29.705Z</time></trkpt><trkpt lat="43.4619117" lon="11.5736467"><ele>445.0</ele><time>2026-04-28T09:42:31.708Z</time></trkpt><trkpt lat="43.4619883" lon="11.5738517"><ele>445.0</ele><time>2026-04-28T09:42:33.706Z</time></trkpt><trkpt lat="43.462045" lon="11.5739317"><ele>445.0</ele><time>2026-04-28T09:42:34.706Z</time></trkpt><trkpt lat="43.462105" lon="11.5740283"><ele>445.83333333333337</ele><time>2026-04-28T09:42:35.704Z</time></trkpt><trkpt lat="43.4621717" lon="11.5741233"><ele>446.6666666666667</ele><time>2026-04-28T09:42:36.705Z</time></trkpt><trkpt lat="43.46223" lon="11.574215"><ele>447.5</ele><time>2026-04-28T09:42:37.706Z</time></trkpt><trkpt lat="43.4622833" lon="11.5743033"><ele>448.33333333333337</ele><time>2026-04-28T09:42:38.706Z</time></trkpt><trkpt lat="43.46234" lon="11.5743717"><ele>449.1666666666667</ele><time>2026-04-28T09:42:39.706Z</time></trkpt><trkpt lat="43.4624083" lon="11.5744233"><ele>450.0</ele><time>2026-04-28T09:42:40.707Z</time></trkpt><trkpt lat="43.4624767" lon="11.5744517"><ele>450.0</ele><time>2026-04-28T09:42:41.704Z</time></trkpt><trkpt lat="43.4625467" lon="11.5744533"><ele>450.0</ele><time>2026-04-28T09:42:42.706Z</time></trkpt><trkpt lat="43.4626133" lon="11.5744483"><ele>450.0</ele><time>2026-04-28T09:42:43.706Z</time></trkpt><trkpt lat="43.4626767" lon="11.5744317"><ele>450.0</ele><time>2026-04-28T09:42:44.705Z</time></trkpt><trkpt lat="43.4627867" lon="11.5743483"><ele>450.0</ele><time>2026-04-28T09:42:46.705Z</time></trkpt><trkpt lat="43.462855" lon="11.5742833"><ele>450.0</ele><time>2026-04-28T09:42:47.704Z</time></trkpt><trkpt lat="43.4629317" lon="11.5742117"><ele>448.5</ele><time>2026-04-28T09:42:48.706Z</time></trkpt><trkpt lat="43.463005" lon="11.574145"><ele>447.0</ele><time>2026-04-28T09:42:49.705Z</time></trkpt><trkpt lat="43.4630767" lon="11.5740833"><ele>445.5</ele><time>2026-04-28T09:42:50.704Z</time></trkpt><trkpt lat="43.4631433" lon="11.5740283"><ele>444.0</ele><time>2026-04-28T09:42:51.705Z</time></trkpt><trkpt lat="43.463205" lon="11.5739733"><ele>442.5</ele><time>2026-04-28T09:42:52.706Z</time></trkpt><trkpt lat="43.463265" lon="11.5739233"><ele>441.0</ele><time>2026-04-28T09:42:53.705Z</time></trkpt><trkpt lat="43.463325" lon="11.57389"><ele>441.0</ele><time>2026-04-28T09:42:54.705Z</time></trkpt><trkpt lat="43.46339" lon="11.5738833"><ele>441.0</ele><time>2026-04-28T09:42:55.706Z</time></trkpt><trkpt lat="43.4634717" lon="11.5739"><ele>441.0</ele><time>2026-04-28T09:42:56.705Z</time></trkpt><trkpt lat="43.4635483" lon="11.5739217"><ele>441.0</ele><time>2026-04-28T09:42:57.706Z</time></trkpt><trkpt lat="43.46362" lon="11.57395"><ele>441.0</ele><time>2026-04-28T09:42:58.705Z</time></trkpt><trkpt lat="43.463685" lon="11.57398"><ele>441.0</ele><time>2026-04-28T09:42:59.706Z</time></trkpt><trkpt lat="43.463745" lon="11.57402"><ele>441.0</ele><time>2026-04-28T09:43:00.704Z</time></trkpt><trkpt lat="43.463805" lon="11.57407"><ele>439.6666666666667</ele><time>2026-04-28T09:43:01.706Z</time></trkpt><trkpt lat="43.4638617" lon="11.5741267"><ele>438.33333333333337</ele><time>2026-04-28T09:43:02.711Z</time></trkpt><trkpt lat="43.4639683" lon="11.574205"><ele>437.0</ele><time>2026-04-28T09:43:04.705Z</time></trkpt><trkpt lat="43.464035" lon="11.5742283"><ele>435.6666666666667</ele><time>2026-04-28T09:43:05.704Z</time></trkpt><trkpt lat="43.4641" lon="11.5742467"><ele>434.33333333333337</ele><time>2026-04-28T09:43:06.706Z</time></trkpt><trkpt lat="43.464215" lon="11.5742817"><ele>433.0</ele><time>2026-04-28T09:43:08.705Z</time></trkpt><trkpt lat="43.464275" lon="11.5743183"><ele>432.99999999999994</ele><time>2026-04-28T09:43:09.706Z</time></trkpt><trkpt lat="43.4643417" lon="11.57437"><ele>433.0</ele><time>2026-04-28T09:43:10.704Z</time></trkpt><trkpt lat="43.46441" lon="11.5744217"><ele>433.0</ele><time>2026-04-28T09:43:11.704Z</time></trkpt><trkpt lat="43.4644717" lon="11.5744683"><ele>433.0</ele><time>2026-04-28T09:43:12.707Z</time></trkpt><trkpt lat="43.46453" lon="11.574515"><ele>433.0</ele><time>2026-04-28T09:43:13.705Z</time></trkpt><trkpt lat="43.4645933" lon="11.5745617"><ele>432.99999999999994</ele><time>2026-04-28T09:43:14.706Z</time></trkpt><trkpt lat="43.46466" lon="11.5746017"><ele>433.0</ele><time>2026-04-28T09:43:15.706Z</time></trkpt><trkpt lat="43.464725" lon="11.57464"><ele>430.33333333333337</ele><time>2026-04-28T09:43:16.706Z</time></trkpt><trkpt lat="43.4648283" lon="11.5747117"><ele>427.6666666666667</ele><time>2026-04-28T09:43:18.705Z</time></trkpt><trkpt lat="43.4649083" lon="11.5748"><ele>425.0</ele><time>2026-04-28T09:43:20.705Z</time></trkpt><trkpt lat="43.4649617" lon="11.5748483"><ele>422.33333333333337</ele><time>2026-04-28T09:43:21.704Z</time></trkpt><trkpt lat="43.465015" lon="11.5748983"><ele>419.6666666666667</ele><time>2026-04-28T09:43:22.705Z</time></trkpt><trkpt lat="43.4650733" lon="11.5749433"><ele>417.0</ele><time>2026-04-28T09:43:23.704Z</time></trkpt><trkpt lat="43.465135" lon="11.5749883"><ele>417.0</ele><time>2026-04-28T09:43:24.705Z</time></trkpt><trkpt lat="43.4652383" lon="11.57507"><ele>417.0</ele><time>2026-04-28T09:43:26.705Z</time></trkpt><trkpt lat="43.4653033" lon="11.5751183"><ele>417.0</ele><time>2026-04-28T09:43:28.705Z</time></trkpt><trkpt lat="43.4652533" lon="11.5750633"><ele>417.0</ele><time>2026-04-28T09:43:36.705Z</time></trkpt><trkpt lat="43.4651967" lon="11.575015"><ele>417.0</ele><time>2026-04-28T09:43:37.704Z</time></trkpt><trkpt lat="43.46514" lon="11.57497"><ele>417.0</ele><time>2026-04-28T09:43:38.712Z</time></trkpt><trkpt lat="43.4650883" lon="11.5749183"><ele>417.0</ele><time>2026-04-28T09:43:39.706Z</time></trkpt><trkpt lat="43.46503" lon="11.5748483"><ele>417.0</ele><time>2026-04-28T09:43:40.705Z</time></trkpt><trkpt lat="43.46497" lon="11.57479"><ele>417.0</ele><time>2026-04-28T09:43:41.705Z</time></trkpt><trkpt lat="43.4649167" lon="11.5747433"><ele>417.0</ele><time>2026-04-28T09:43:42.706Z</time></trkpt><trkpt lat="43.4648583" lon="11.5747033"><ele>417.0</ele><time>2026-04-28T09:43:43.705Z</time></trkpt><trkpt lat="43.4647967" lon="11.5746617"><ele>417.0</ele><time>2026-04-28T09:43:44.705Z</time></trkpt><trkpt lat="43.46473" lon="11.5746233"><ele>417.0</ele><time>2026-04-28T09:43:45.706Z</time></trkpt><trkpt lat="43.4646617" lon="11.574585"><ele>417.5714285714286</ele><time>2026-04-28T09:43:46.703Z</time></trkpt><trkpt lat="43.4645967" lon="11.5745417"><ele>418.1428571428571</ele><time>2026-04-28T09:43:47.703Z</time></trkpt><trkpt lat="43.4645317" lon="11.5744967"><ele>418.7142857142857</ele><time>2026-04-28T09:43:48.705Z</time></trkpt><trkpt lat="43.4644667" lon="11.5744517"><ele>419.28571428571433</ele><time>2026-04-28T09:43:49.705Z</time></trkpt><trkpt lat="43.4643883" lon="11.574405"><ele>419.8571428571429</ele><time>2026-04-28T09:43:50.704Z</time></trkpt><trkpt lat="43.46432" lon="11.574365"><ele>420.42857142857144</ele><time>2026-04-28T09:43:51.705Z</time></trkpt><trkpt lat="43.464255" lon="11.57433"><ele>421.0</ele><time>2026-04-28T09:43:52.705Z</time></trkpt><trkpt lat="43.4641233" lon="11.5742833"><ele>423.00000000000006</ele><time>2026-04-28T09:43:54.705Z</time></trkpt><trkpt lat="43.464055" lon="11.5742633"><ele>425.0</ele><time>2026-04-28T09:43:55.705Z</time></trkpt><trkpt lat="43.4639917" lon="11.5742367"><ele>427.0</ele><time>2026-04-28T09:43:56.706Z</time></trkpt><trkpt lat="43.463925" lon="11.574185"><ele>429.0</ele><time>2026-04-28T09:43:57.706Z</time></trkpt><trkpt lat="43.4638617" lon="11.5741217"><ele>431.00000000000006</ele><time>2026-04-28T09:43:58.706Z</time></trkpt><trkpt lat="43.4637917" lon="11.574065"><ele>433.0</ele><time>2026-04-28T09:43:59.705Z</time></trkpt><trkpt lat="43.463705" lon="11.57402"><ele>434.59999999999997</ele><time>2026-04-28T09:44:00.704Z</time></trkpt><trkpt lat="43.4636083" lon="11.5739883"><ele>436.19999999999993</ele><time>2026-04-28T09:44:01.706Z</time></trkpt><trkpt lat="43.4635033" lon="11.5739667"><ele>437.8</ele><time>2026-04-28T09:44:02.705Z</time></trkpt><trkpt lat="43.4634133" lon="11.5739667"><ele>439.4</ele><time>2026-04-28T09:44:03.706Z</time></trkpt><trkpt lat="43.46333" lon="11.5739917"><ele>441.0</ele><time>2026-04-28T09:44:04.705Z</time></trkpt><trkpt lat="43.4632467" lon="11.5740367"><ele>441.0</ele><time>2026-04-28T09:44:05.705Z</time></trkpt><trkpt lat="43.463165" lon="11.5741"><ele>441.0</ele><time>2026-04-28T09:44:06.705Z</time></trkpt><trkpt lat="43.4630833" lon="11.5741733"><ele>441.0</ele><time>2026-04-28T09:44:07.705Z</time></trkpt><trkpt lat="43.463" lon="11.574255"><ele>441.0</ele><time>2026-04-28T09:44:08.705Z</time></trkpt><trkpt lat="43.4629317" lon="11.574335"><ele>441.0</ele><time>2026-04-28T09:44:09.705Z</time></trkpt><trkpt lat="43.4628567" lon="11.5744217"><ele>440.3333333333333</ele><time>2026-04-28T09:44:10.706Z</time></trkpt><trkpt lat="43.46278" lon="11.5744917"><ele>439.66666666666663</ele><time>2026-04-28T09:44:11.705Z</time></trkpt><trkpt lat="43.4627" lon="11.5745317"><ele>439.0</ele><time>2026-04-28T09:44:12.705Z</time></trkpt><trkpt lat="43.4626183" lon="11.5745517"><ele>438.3333333333333</ele><time>2026-04-28T09:44:13.706Z</time></trkpt><trkpt lat="43.462545" lon="11.5745633"><ele>437.66666666666663</ele><time>2026-04-28T09:44:14.706Z</time></trkpt><trkpt lat="43.462475" lon="11.5745583"><ele>437.0</ele><time>2026-04-28T09:44:15.708Z</time></trkpt><trkpt lat="43.4624083" lon="11.574535"><ele>438.3333333333333</ele><time>2026-04-28T09:44:16.704Z</time></trkpt><trkpt lat="43.4623483" lon="11.5744967"><ele>439.66666666666663</ele><time>2026-04-28T09:44:17.705Z</time></trkpt><trkpt lat="43.4623" lon="11.5744367"><ele>441.0</ele><time>2026-04-28T09:44:18.704Z</time></trkpt><trkpt lat="43.4622367" lon="11.57435"><ele>442.33333333333337</ele><time>2026-04-28T09:44:19.705Z</time></trkpt><trkpt lat="43.4621667" lon="11.5742417"><ele>443.6666666666667</ele><time>2026-04-28T09:44:20.704Z</time></trkpt><trkpt lat="43.4620967" lon="11.57415"><ele>445.0</ele><time>2026-04-28T09:44:21.705Z</time></trkpt><trkpt lat="43.46203" lon="11.5740683"><ele>445.00000000000006</ele><time>2026-04-28T09:44:22.705Z</time></trkpt><trkpt lat="43.46197" lon="11.57398"><ele>445.0</ele><time>2026-04-28T09:44:23.704Z</time></trkpt><trkpt lat="43.4619133" lon="11.5738833"><ele>445.0</ele><time>2026-04-28T09:44:24.703Z</time></trkpt><trkpt lat="43.46187" lon="11.57379"><ele>445.0</ele><time>2026-04-28T09:44:25.706Z</time></trkpt><trkpt lat="43.4618367" lon="11.57371"><ele>445.00000000000006</ele><time>2026-04-28T09:44:26.705Z</time></trkpt><trkpt lat="43.4617683" lon="11.5736267"><ele>445.0</ele><time>2026-04-28T09:44:28.708Z</time></trkpt><trkpt lat="43.461655" lon="11.5736417"><ele>445.0</ele><time>2026-04-28T09:44:30.704Z</time></trkpt><trkpt lat="43.4615867" lon="11.5736933"><ele>445.0</ele><time>2026-04-28T09:44:31.706Z</time></trkpt><trkpt lat="43.461525" lon="11.5737483"><ele>445.0</ele><time>2026-04-28T09:44:32.706Z</time></trkpt><trkpt lat="43.4614683" lon="11.5737983"><ele>445.0</ele><time>2026-04-28T09:44:33.706Z</time></trkpt><trkpt lat="43.4614117" lon="11.5738433"><ele>445.0</ele><time>2026-04-28T09:44:34.704Z</time></trkpt><trkpt lat="43.461355" lon="11.573895"><ele>445.0</ele><time>2026-04-28T09:44:35.704Z</time></trkpt><trkpt lat="43.4613033" lon="11.573945"><ele>445.0</ele><time>2026-04-28T09:44:36.704Z</time></trkpt><trkpt lat="43.4612467" lon="11.573995"><ele>443.50000000000006</ele><time>2026-04-28T09:44:37.705Z</time></trkpt><trkpt lat="43.461135" lon="11.5740483"><ele>442.0</ele><time>2026-04-28T09:44:39.706Z</time></trkpt><trkpt lat="43.4610417" lon="11.5741317"><ele>440.5</ele><time>2026-04-28T09:44:41.704Z</time></trkpt><trkpt lat="43.4609967" lon="11.57421"><ele>439.0</ele><time>2026-04-28T09:44:42.705Z</time></trkpt><trkpt lat="43.4609533" lon="11.5743017"><ele>437.50000000000006</ele><time>2026-04-28T09:44:43.705Z</time></trkpt><trkpt lat="43.4608983" lon="11.574355"><ele>436.0</ele><time>2026-04-28T09:44:44.705Z</time></trkpt><trkpt lat="43.460835" lon="11.57441"><ele>436.0</ele><time>2026-04-28T09:44:45.707Z</time></trkpt><trkpt lat="43.4607667" lon="11.574445"><ele>436.0</ele><time>2026-04-28T09:44:46.705Z</time></trkpt><trkpt lat="43.4606867" lon="11.574455"><ele>436.0</ele><time>2026-04-28T09:44:47.704Z</time></trkpt><trkpt lat="43.4605783" lon="11.5744617"><ele>436.0</ele><time>2026-04-28T09:44:48.706Z</time></trkpt><trkpt lat="43.4604517" lon="11.57447"><ele>436.0</ele><time>2026-04-28T09:44:49.705Z</time></trkpt><trkpt lat="43.4603283" lon="11.5744833"><ele>436.0</ele><time>2026-04-28T09:44:50.705Z</time></trkpt><trkpt lat="43.4602017" lon="11.5744933"><ele>436.0</ele><time>2026-04-28T09:44:51.706Z</time></trkpt><trkpt lat="43.4600833" lon="11.574505"><ele>436.0</ele><time>2026-04-28T09:44:52.703Z</time></trkpt><trkpt lat="43.45997" lon="11.5745267"><ele>436.0</ele><time>2026-04-28T09:44:53.706Z</time></trkpt><trkpt lat="43.45986" lon="11.5745633"><ele>436.0</ele><time>2026-04-28T09:44:54.703Z</time></trkpt><trkpt lat="43.4597533" lon="11.57462"><ele>436.0</ele><time>2026-04-28T09:44:55.706Z</time></trkpt><trkpt lat="43.45966" lon="11.57468"><ele>436.0</ele><time>2026-04-28T09:44:56.704Z</time></trkpt><trkpt lat="43.4595767" lon="11.5747483"><ele>436.0</ele><time>2026-04-28T09:44:57.705Z</time></trkpt><trkpt lat="43.4594967" lon="11.57481"><ele>436.0</ele><time>2026-04-28T09:44:58.705Z</time></trkpt><trkpt lat="43.4594083" lon="11.57487"><ele>438.0</ele><time>2026-04-28T09:44:59.705Z</time></trkpt><trkpt lat="43.45932" lon="11.5749033"><ele>440.0</ele><time>2026-04-28T09:45:00.706Z</time></trkpt><trkpt lat="43.45922" lon="11.57492"><ele>442.0</ele><time>2026-04-28T09:45:01.703Z</time></trkpt><trkpt lat="43.4591283" lon="11.5749067"><ele>444.0</ele><time>2026-04-28T09:45:02.705Z</time></trkpt><trkpt lat="43.4590183" lon="11.5748933"><ele>446.0</ele><time>2026-04-28T09:45:03.706Z</time></trkpt><trkpt lat="43.4589083" lon="11.5748767"><ele>446.0</ele><time>2026-04-28T09:45:04.703Z</time></trkpt><trkpt lat="43.45881" lon="11.5748517"><ele>446.0</ele><time>2026-04-28T09:45:05.703Z</time></trkpt><trkpt lat="43.4587033" lon="11.5748317"><ele>446.0</ele><time>2026-04-28T09:45:06.706Z</time></trkpt><trkpt lat="43.4586083" lon="11.574805"><ele>446.0</ele><time>2026-04-28T09:45:07.704Z</time></trkpt><trkpt lat="43.4585217" lon="11.5747733"><ele>446.0</ele><time>2026-04-28T09:45:08.705Z</time></trkpt><trkpt lat="43.45844" lon="11.5747433"><ele>447.16666666666663</ele><time>2026-04-28T09:45:09.706Z</time></trkpt><trkpt lat="43.4583567" lon="11.5747283"><ele>448.3333333333333</ele><time>2026-04-28T09:45:10.705Z</time></trkpt><trkpt lat="43.45829" lon="11.5747317"><ele>449.5</ele><time>2026-04-28T09:45:11.705Z</time></trkpt><trkpt lat="43.45822" lon="11.5747533"><ele>450.66666666666663</ele><time>2026-04-28T09:45:12.705Z</time></trkpt><trkpt lat="43.4581633" lon="11.5748083"><ele>451.8333333333333</ele><time>2026-04-28T09:45:13.705Z</time></trkpt><trkpt lat="43.45811" lon="11.57489"><ele>453.0</ele><time>2026-04-28T09:45:14.705Z</time></trkpt><trkpt lat="43.45807" lon="11.575"><ele>453.0</ele><time>2026-04-28T09:45:15.706Z</time></trkpt><trkpt lat="43.4580267" lon="11.57511"><ele>453.0</ele><time>2026-04-28T09:45:16.705Z</time></trkpt><trkpt lat="43.4579817" lon="11.57521"><ele>453.0</ele><time>2026-04-28T09:45:17.703Z</time></trkpt><trkpt lat="43.4579417" lon="11.5753133"><ele>453.0</ele><time>2026-04-28T09:45:18.705Z</time></trkpt><trkpt lat="43.4579017" lon="11.575405"><ele>453.0</ele><time>2026-04-28T09:45:19.705Z</time></trkpt><trkpt lat="43.4578717" lon="11.5754967"><ele>453.0</ele><time>2026-04-28T09:45:20.705Z</time></trkpt><trkpt lat="43.45784" lon="11.5755817"><ele>455.3333333333333</ele><time>2026-04-28T09:45:21.706Z</time></trkpt><trkpt lat="43.457775" lon="11.5756917"><ele>457.66666666666663</ele><time>2026-04-28T09:45:23.704Z</time></trkpt><trkpt lat="43.4576917" lon="11.5757383"><ele>460.0</ele><time>2026-04-28T09:45:25.706Z</time></trkpt><trkpt lat="43.457625" lon="11.5757317"><ele>462.3333333333333</ele><time>2026-04-28T09:45:26.705Z</time></trkpt><trkpt lat="43.4575367" lon="11.5757333"><ele>464.66666666666663</ele><time>2026-04-28T09:45:27.706Z</time></trkpt><trkpt lat="43.4574567" lon="11.5757583"><ele>467.0</ele><time>2026-04-28T09:45:28.706Z</time></trkpt><trkpt lat="43.457375" lon="11.5757967"><ele>466.99999999999994</ele><time>2026-04-28T09:45:29.705Z</time></trkpt><trkpt lat="43.4572933" lon="11.5758333"><ele>467.0</ele><time>2026-04-28T09:45:30.707Z</time></trkpt><trkpt lat="43.4572133" lon="11.5758667"><ele>467.0</ele><time>2026-04-28T09:45:31.705Z</time></trkpt><trkpt lat="43.4571317" lon="11.575895"><ele>467.0</ele><time>2026-04-28T09:45:32.705Z</time></trkpt><trkpt lat="43.457045" lon="11.5759217"><ele>466.99999999999994</ele><time>2026-04-28T09:45:33.705Z</time></trkpt><trkpt lat="43.4569667" lon="11.5759417"><ele>467.0</ele><time>2026-04-28T09:45:34.705Z</time></trkpt><trkpt lat="43.4568633" lon="11.575995"><ele>466.3333333333333</ele><time>2026-04-28T09:45:35.705Z</time></trkpt><trkpt lat="43.4567917" lon="11.576075"><ele>465.66666666666663</ele><time>2026-04-28T09:45:36.706Z</time></trkpt><trkpt lat="43.4567383" lon="11.5761667"><ele>465.0</ele><time>2026-04-28T09:45:37.706Z</time></trkpt><trkpt lat="43.456685" lon="11.5762633"><ele>464.33333333333337</ele><time>2026-04-28T09:45:38.706Z</time></trkpt><trkpt lat="43.4566383" lon="11.5763583"><ele>463.6666666666667</ele><time>2026-04-28T09:45:39.706Z</time></trkpt><trkpt lat="43.4565883" lon="11.576455"><ele>463.0</ele><time>2026-04-28T09:45:40.705Z</time></trkpt><trkpt lat="43.4565367" lon="11.57655"><ele>463.0</ele><time>2026-04-28T09:45:41.704Z</time></trkpt><trkpt lat="43.456485" lon="11.5766533"><ele>462.99999999999994</ele><time>2026-04-28T09:45:42.705Z</time></trkpt><trkpt lat="43.4564417" lon="11.5767617"><ele>462.99999999999994</ele><time>2026-04-28T09:45:43.705Z</time></trkpt><trkpt lat="43.4564017" lon="11.5768867"><ele>463.0</ele><time>2026-04-28T09:45:44.706Z</time></trkpt><trkpt lat="43.4563517" lon="11.57701"><ele>463.0</ele><time>2026-04-28T09:45:45.706Z</time></trkpt><trkpt lat="43.4562983" lon="11.5771167"><ele>462.83333333333337</ele><time>2026-04-28T09:45:46.704Z</time></trkpt><trkpt lat="43.4562433" lon="11.5772067"><ele>462.6666666666667</ele><time>2026-04-28T09:45:47.704Z</time></trkpt><trkpt lat="43.4561833" lon="11.577265"><ele>462.5</ele><time>2026-04-28T09:45:48.705Z</time></trkpt><trkpt lat="43.4561267" lon="11.5773217"><ele>462.33333333333337</ele><time>2026-04-28T09:45:49.705Z</time></trkpt><trkpt lat="43.456075" lon="11.5774217"><ele>462.1666666666667</ele><time>2026-04-28T09:45:51.706Z</time></trkpt><trkpt lat="43.4561117" lon="11.57755"><ele>462.0</ele><time>2026-04-28T09:45:53.704Z</time></trkpt><trkpt lat="43.45613" lon="11.5776967"><ele>462.0</ele><time>2026-04-28T09:45:55.704Z</time></trkpt><trkpt lat="43.456115" lon="11.577785"><ele>462.0</ele><time>2026-04-28T09:45:56.705Z</time></trkpt><trkpt lat="43.45609" lon="11.5778733"><ele>462.0</ele><time>2026-04-28T09:45:57.705Z</time></trkpt><trkpt lat="43.4560583" lon="11.5779667"><ele>462.0</ele><time>2026-04-28T09:45:58.706Z</time></trkpt><trkpt lat="43.4560233" lon="11.5780567"><ele>462.0</ele><time>2026-04-28T09:45:59.704Z</time></trkpt><trkpt lat="43.45599" lon="11.57814"><ele>462.0</ele><time>2026-04-28T09:46:00.705Z</time></trkpt><trkpt lat="43.4559567" lon="11.578225"><ele>462.0</ele><time>2026-04-28T09:46:01.704Z</time></trkpt><trkpt lat="43.4559133" lon="11.578305"><ele>461.0</ele><time>2026-04-28T09:46:02.704Z</time></trkpt><trkpt lat="43.4558633" lon="11.5783833"><ele>460.0</ele><time>2026-04-28T09:46:03.706Z</time></trkpt><trkpt lat="43.4558133" lon="11.57846"><ele>459.0</ele><time>2026-04-28T09:46:04.705Z</time></trkpt><trkpt lat="43.4557617" lon="11.5785283"><ele>458.0</ele><time>2026-04-28T09:46:05.703Z</time></trkpt><trkpt lat="43.4556717" lon="11.5786517"><ele>457.0</ele><time>2026-04-28T09:46:07.704Z</time></trkpt><trkpt lat="43.4556217" lon="11.578705"><ele>456.0</ele><time>2026-04-28T09:46:08.708Z</time></trkpt><trkpt lat="43.4555367" lon="11.578815"><ele>455.5</ele><time>2026-04-28T09:46:10.705Z</time></trkpt><trkpt lat="43.4554967" lon="11.5788883"><ele>455.0</ele><time>2026-04-28T09:46:11.705Z</time></trkpt><trkpt lat="43.4554667" lon="11.5789967"><ele>454.5</ele><time>2026-04-28T09:46:12.705Z</time></trkpt><trkpt lat="43.455445" lon="11.5791117"><ele>454.0</ele><time>2026-04-28T09:46:13.705Z</time></trkpt><trkpt lat="43.4554317" lon="11.5792233"><ele>453.5</ele><time>2026-04-28T09:46:14.704Z</time></trkpt><trkpt lat="43.4554133" lon="11.5793317"><ele>453.0</ele><time>2026-04-28T09:46:15.706Z</time></trkpt><trkpt lat="43.4554" lon="11.5794367"><ele>450.8333333333333</ele><time>2026-04-28T09:46:16.705Z</time></trkpt><trkpt lat="43.4553867" lon="11.57953"><ele>448.66666666666663</ele><time>2026-04-28T09:46:17.705Z</time></trkpt><trkpt lat="43.45537" lon="11.5796167"><ele>446.5</ele><time>2026-04-28T09:46:18.704Z</time></trkpt><trkpt lat="43.4553483" lon="11.57971"><ele>444.3333333333333</ele><time>2026-04-28T09:46:19.704Z</time></trkpt><trkpt lat="43.4553067" lon="11.57985"><ele>442.16666666666663</ele><time>2026-04-28T09:46:21.706Z</time></trkpt><trkpt lat="43.4552733" lon="11.5799767"><ele>440.0</ele><time>2026-04-28T09:46:23.705Z</time></trkpt><trkpt lat="43.4552383" lon="11.58009"><ele>440.0</ele><time>2026-04-28T09:46:25.706Z</time></trkpt><trkpt lat="43.4551883" lon="11.5802117"><ele>440.0</ele><time>2026-04-28T09:46:27.706Z</time></trkpt><trkpt lat="43.4551283" lon="11.5803217"><ele>440.0</ele><time>2026-04-28T09:46:29.705Z</time></trkpt><trkpt lat="43.4550433" lon="11.5803783"><ele>440.0</ele><time>2026-04-28T09:46:31.705Z</time></trkpt><trkpt lat="43.4549583" lon="11.5804433"><ele>440.0</ele><time>2026-04-28T09:46:33.706Z</time></trkpt><trkpt lat="43.4548917" lon="11.5805083"><ele>437.4</ele><time>2026-04-28T09:46:35.704Z</time></trkpt><trkpt lat="43.4548267" lon="11.5806167"><ele>434.8</ele><time>2026-04-28T09:46:37.706Z</time></trkpt><trkpt lat="43.4547883" lon="11.5807383"><ele>432.20000000000005</ele><time>2026-04-28T09:46:39.706Z</time></trkpt><trkpt lat="43.45477" lon="11.5808633"><ele>429.6</ele><time>2026-04-28T09:46:41.704Z</time></trkpt><trkpt lat="43.4547317" lon="11.5810117"><ele>427.0</ele><time>2026-04-28T09:46:43.706Z</time></trkpt><trkpt lat="43.4546683" lon="11.5811583"><ele>425.0</ele><time>2026-04-28T09:46:45.706Z</time></trkpt><trkpt lat="43.454605" lon="11.5812533"><ele>423.00000000000006</ele><time>2026-04-28T09:46:47.705Z</time></trkpt><trkpt lat="43.4545467" lon="11.5813167"><ele>421.0</ele><time>2026-04-28T09:46:49.707Z</time></trkpt><trkpt lat="43.4544483" lon="11.581365"><ele>419.0</ele><time>2026-04-28T09:46:52.707Z</time></trkpt><trkpt lat="43.4543383" lon="11.581415"><ele>417.0</ele><time>2026-04-28T09:46:54.707Z</time></trkpt><trkpt lat="43.4542267" lon="11.5813967"><ele>417.0</ele><time>2026-04-28T09:46:56.708Z</time></trkpt><trkpt lat="43.4541633" lon="11.5814533"><ele>417.0</ele><time>2026-04-28T09:46:58.706Z</time></trkpt><trkpt lat="43.4540833" lon="11.58153"><ele>417.0</ele><time>2026-04-28T09:47:00.706Z</time></trkpt><trkpt lat="43.4540417" lon="11.581625"><ele>417.0</ele><time>2026-04-28T09:47:03.708Z</time></trkpt><trkpt lat="43.45404" lon="11.5817217"><ele>417.0</ele><time>2026-04-28T09:47:05.704Z</time></trkpt><trkpt lat="43.4540583" lon="11.58181"><ele>417.0</ele><time>2026-04-28T09:47:07.707Z</time></trkpt><trkpt lat="43.4540533" lon="11.5819133"><ele>414.8333333333333</ele><time>2026-04-28T09:47:09.707Z</time></trkpt><trkpt lat="43.4540383" lon="11.5820217"><ele>412.66666666666663</ele><time>2026-04-28T09:47:11.704Z</time></trkpt><trkpt lat="43.453995" lon="11.5821333"><ele>410.5</ele><time>2026-04-28T09:47:13.705Z</time></trkpt><trkpt lat="43.4539583" lon="11.5822433"><ele>408.3333333333333</ele><time>2026-04-28T09:47:15.706Z</time></trkpt><trkpt lat="43.4539317" lon="11.5823467"><ele>406.16666666666663</ele><time>2026-04-28T09:47:17.705Z</time></trkpt><trkpt lat="43.4539217" lon="11.582475"><ele>404.0</ele><time>2026-04-28T09:47:19.706Z</time></trkpt><trkpt lat="43.453905" lon="11.5826183"><ele>404.0</ele><time>2026-04-28T09:47:21.699Z</time></trkpt><trkpt lat="43.4538967" lon="11.5827817"><ele>404.0</ele><time>2026-04-28T09:47:23.703Z</time></trkpt><trkpt lat="43.453905" lon="11.5829467"><ele>404.0</ele><time>2026-04-28T09:47:25.707Z</time></trkpt><trkpt lat="43.4538667" lon="11.58311"><ele>404.0</ele><time>2026-04-28T09:47:27.709Z</time></trkpt><trkpt lat="43.453845" lon="11.5831983"><ele>404.0</ele><time>2026-04-28T09:47:28.704Z</time></trkpt><trkpt lat="43.45382" lon="11.5832967"><ele>403.7142857142857</ele><time>2026-04-28T09:47:29.704Z</time></trkpt><trkpt lat="43.4538033" lon="11.5833983"><ele>403.42857142857144</ele><time>2026-04-28T09:47:30.704Z</time></trkpt><trkpt lat="43.4537933" lon="11.5835"><ele>403.1428571428571</ele><time>2026-04-28T09:47:31.706Z</time></trkpt><trkpt lat="43.4537817" lon="11.5836017"><ele>402.8571428571429</ele><time>2026-04-28T09:47:32.704Z</time></trkpt><trkpt lat="43.4537667" lon="11.58369"><ele>402.5714285714286</ele><time>2026-04-28T09:47:33.704Z</time></trkpt><trkpt lat="43.453755" lon="11.5837767"><ele>402.2857142857143</ele><time>2026-04-28T09:47:34.704Z</time></trkpt><trkpt lat="43.45375" lon="11.5838767"><ele>402.0</ele><time>2026-04-28T09:47:35.704Z</time></trkpt><trkpt lat="43.45378" lon="11.584045"><ele>400.20000000000005</ele><time>2026-04-28T09:47:36.705Z</time></trkpt><trkpt lat="43.4538083" lon="11.5841983"><ele>398.4</ele><time>2026-04-28T09:47:37.706Z</time></trkpt><trkpt lat="43.4538417" lon="11.5843083"><ele>396.6</ele><time>2026-04-28T09:47:38.7Z</time></trkpt><trkpt lat="43.4538817" lon="11.5844517"><ele>394.79999999999995</ele><time>2026-04-28T09:47:39.708Z</time></trkpt><trkpt lat="43.45392" lon="11.5845833"><ele>393.0</ele><time>2026-04-28T09:47:40.706Z</time></trkpt><trkpt lat="43.4539583" lon="11.5846867"><ele>390.6666666666667</ele><time>2026-04-28T09:47:41.705Z</time></trkpt><trkpt lat="43.4539983" lon="11.584805"><ele>388.3333333333333</ele><time>2026-04-28T09:47:42.705Z</time></trkpt><trkpt lat="43.454035" lon="11.5849083"><ele>386.0</ele><time>2026-04-28T09:47:43.704Z</time></trkpt><trkpt lat="43.454065" lon="11.584995"><ele>383.66666666666663</ele><time>2026-04-28T09:47:44.706Z</time></trkpt><trkpt lat="43.4540917" lon="11.5851167"><ele>381.3333333333333</ele><time>2026-04-28T09:47:45.706Z</time></trkpt><trkpt lat="43.45411" lon="11.58524"><ele>379.0</ele><time>2026-04-28T09:47:46.704Z</time></trkpt><trkpt lat="43.4541217" lon="11.5853533"><ele>377.5714285714286</ele><time>2026-04-28T09:47:47.706Z</time></trkpt><trkpt lat="43.45413" lon="11.5854517"><ele>376.14285714285717</ele><time>2026-04-28T09:47:48.705Z</time></trkpt><trkpt lat="43.4541383" lon="11.5855517"><ele>374.7142857142857</ele><time>2026-04-28T09:47:49.704Z</time></trkpt><trkpt lat="43.454145" lon="11.5856633"><ele>373.28571428571433</ele><time>2026-04-28T09:47:50.705Z</time></trkpt><trkpt lat="43.45415" lon="11.5857617"><ele>371.85714285714283</ele><time>2026-04-28T09:47:51.705Z</time></trkpt><trkpt lat="43.4541433" lon="11.585865"><ele>370.42857142857144</ele><time>2026-04-28T09:47:52.706Z</time></trkpt><trkpt lat="43.454135" lon="11.5859683"><ele>369.0</ele><time>2026-04-28T09:47:53.706Z</time></trkpt><trkpt lat="43.4541217" lon="11.5860917"><ele>367.4</ele><time>2026-04-28T09:47:54.705Z</time></trkpt><trkpt lat="43.4541117" lon="11.5862317"><ele>365.79999999999995</ele><time>2026-04-28T09:47:55.706Z</time></trkpt><trkpt lat="43.4541033" lon="11.5863817"><ele>364.20000000000005</ele><time>2026-04-28T09:47:56.705Z</time></trkpt><trkpt lat="43.4540883" lon="11.5865333"><ele>362.6</ele><time>2026-04-28T09:47:57.706Z</time></trkpt><trkpt lat="43.4540733" lon="11.5866917"><ele>361.0</ele><time>2026-04-28T09:47:58.706Z</time></trkpt><trkpt lat="43.4540567" lon="11.58684"><ele>361.0</ele><time>2026-04-28T09:47:59.704Z</time></trkpt><trkpt lat="43.4540383" lon="11.5869733"><ele>361.0</ele><time>2026-04-28T09:48:00.703Z</time></trkpt><trkpt lat="43.4540283" lon="11.5870967"><ele>361.0</ele><time>2026-04-28T09:48:01.707Z</time></trkpt><trkpt lat="43.4540217" lon="11.5872133"><ele>361.0</ele><time>2026-04-28T09:48:02.705Z</time></trkpt><trkpt lat="43.4540167" lon="11.5873217"><ele>361.0</ele><time>2026-04-28T09:48:03.707Z</time></trkpt><trkpt lat="43.4540083" lon="11.5874283"><ele>361.0</ele><time>2026-04-28T09:48:04.706Z</time></trkpt><trkpt lat="43.4540033" lon="11.5875283"><ele>360.3333333333333</ele><time>2026-04-28T09:48:05.706Z</time></trkpt><trkpt lat="43.454005" lon="11.5876283"><ele>359.66666666666663</ele><time>2026-04-28T09:48:06.706Z</time></trkpt><trkpt lat="43.4540117" lon="11.5877317"><ele>359.0</ele><time>2026-04-28T09:48:07.705Z</time></trkpt><trkpt lat="43.4540217" lon="11.5878367"><ele>358.3333333333333</ele><time>2026-04-28T09:48:08.707Z</time></trkpt><trkpt lat="43.4540367" lon="11.58796"><ele>357.6666666666667</ele><time>2026-04-28T09:48:09.706Z</time></trkpt><trkpt lat="43.4540583" lon="11.5880767"><ele>357.0</ele><time>2026-04-28T09:48:10.704Z</time></trkpt><trkpt lat="43.454085" lon="11.588195"><ele>356.1666666666667</ele><time>2026-04-28T09:48:11.705Z</time></trkpt><trkpt lat="43.4541133" lon="11.58831"><ele>355.3333333333333</ele><time>2026-04-28T09:48:12.703Z</time></trkpt><trkpt lat="43.454135" lon="11.5884117"><ele>354.5</ele><time>2026-04-28T09:48:13.706Z</time></trkpt><trkpt lat="43.454155" lon="11.5885133"><ele>353.66666666666663</ele><time>2026-04-28T09:48:14.703Z</time></trkpt><trkpt lat="43.4541633" lon="11.58862"><ele>352.8333333333333</ele><time>2026-04-28T09:48:15.706Z</time></trkpt><trkpt lat="43.454155" lon="11.5887117"><ele>352.0</ele><time>2026-04-28T09:48:16.706Z</time></trkpt><trkpt lat="43.4541433" lon="11.588805"><ele>351.14285714285717</ele><time>2026-04-28T09:48:17.705Z</time></trkpt><trkpt lat="43.4541283" lon="11.5888933"><ele>350.2857142857143</ele><time>2026-04-28T09:48:18.706Z</time></trkpt><trkpt lat="43.4541283" lon="11.58899"><ele>349.42857142857144</ele><time>2026-04-28T09:48:19.706Z</time></trkpt><trkpt lat="43.4541267" lon="11.589095"><ele>348.57142857142856</ele><time>2026-04-28T09:48:20.705Z</time></trkpt><trkpt lat="43.4541183" lon="11.5892"><ele>347.7142857142857</ele><time>2026-04-28T09:48:21.704Z</time></trkpt><trkpt lat="43.4541" lon="11.5893017"><ele>346.85714285714283</ele><time>2026-04-28T09:48:22.706Z</time></trkpt><trkpt lat="43.4540767" lon="11.589395"><ele>346.0</ele><time>2026-04-28T09:48:23.705Z</time></trkpt><trkpt lat="43.454055" lon="11.5894767"><ele>343.8</ele><time>2026-04-28T09:48:24.705Z</time></trkpt><trkpt lat="43.4540283" lon="11.5896233"><ele>341.6</ele><time>2026-04-28T09:48:26.705Z</time></trkpt><trkpt lat="43.454015" lon="11.5897583"><ele>339.4</ele><time>2026-04-28T09:48:28.705Z</time></trkpt><trkpt lat="43.45399" lon="11.58988"><ele>337.2</ele><time>2026-04-28T09:48:30.704Z</time></trkpt><trkpt lat="43.4539383" lon="11.5900033"><ele>335.0</ele><time>2026-04-28T09:48:32.704Z</time></trkpt><trkpt lat="43.453895" lon="11.5901633"><ele>335.0</ele><time>2026-04-28T09:48:34.705Z</time></trkpt><trkpt lat="43.453885" lon="11.5902617"><ele>335.0</ele><time>2026-04-28T09:48:35.705Z</time></trkpt><trkpt lat="43.4538917" lon="11.5903567"><ele>335.0</ele><time>2026-04-28T09:48:36.703Z</time></trkpt><trkpt lat="43.4539017" lon="11.590455"><ele>335.0</ele><time>2026-04-28T09:48:37.706Z</time></trkpt><trkpt lat="43.4539133" lon="11.5905617"><ele>335.0</ele><time>2026-04-28T09:48:38.705Z</time></trkpt><trkpt lat="43.45393" lon="11.5906767"><ele>335.0</ele><time>2026-04-28T09:48:39.715Z</time></trkpt><trkpt lat="43.4539317" lon="11.590795"><ele>333.1666666666667</ele><time>2026-04-28T09:48:40.704Z</time></trkpt><trkpt lat="43.4539267" lon="11.59091"><ele>331.33333333333337</ele><time>2026-04-28T09:48:41.705Z</time></trkpt><trkpt lat="43.4539167" lon="11.5910267"><ele>329.5</ele><time>2026-04-28T09:48:42.705Z</time></trkpt><trkpt lat="43.4539067" lon="11.591135"><ele>327.6666666666667</ele><time>2026-04-28T09:48:43.706Z</time></trkpt><trkpt lat="43.4538917" lon="11.5912433"><ele>325.8333333333333</ele><time>2026-04-28T09:48:44.706Z</time></trkpt><trkpt lat="43.4538783" lon="11.5913533"><ele>324.0</ele><time>2026-04-28T09:48:45.703Z</time></trkpt><trkpt lat="43.4538683" lon="11.5914633"><ele>322.3333333333333</ele><time>2026-04-28T09:48:46.704Z</time></trkpt><trkpt lat="43.4538683" lon="11.5915733"><ele>320.6666666666667</ele><time>2026-04-28T09:48:47.705Z</time></trkpt><trkpt lat="43.4538783" lon="11.59168"><ele>319.0</ele><time>2026-04-28T09:48:48.704Z</time></trkpt><trkpt lat="43.453905" lon="11.5917867"><ele>317.33333333333337</ele><time>2026-04-28T09:48:49.703Z</time></trkpt><trkpt lat="43.4539467" lon="11.5919033"><ele>315.6666666666667</ele><time>2026-04-28T09:48:50.705Z</time></trkpt><trkpt lat="43.453995" lon="11.5920233"><ele>314.0</ele><time>2026-04-28T09:48:51.705Z</time></trkpt><trkpt lat="43.45404" lon="11.5921467"><ele>312.59999999999997</ele><time>2026-04-28T09:48:52.703Z</time></trkpt><trkpt lat="43.4540817" lon="11.5922617"><ele>311.2</ele><time>2026-04-28T09:48:53.705Z</time></trkpt><trkpt lat="43.454125" lon="11.5923767"><ele>309.79999999999995</ele><time>2026-04-28T09:48:54.706Z</time></trkpt><trkpt lat="43.45417" lon="11.5924967"><ele>308.4</ele><time>2026-04-28T09:48:55.706Z</time></trkpt><trkpt lat="43.4542017" lon="11.5926367"><ele>307.0</ele><time>2026-04-28T09:48:56.706Z</time></trkpt><trkpt lat="43.4542283" lon="11.59277"><ele>306.5</ele><time>2026-04-28T09:48:57.706Z</time></trkpt><trkpt lat="43.4542517" lon="11.59289"><ele>306.0</ele><time>2026-04-28T09:48:58.706Z</time></trkpt><trkpt lat="43.4542767" lon="11.5929917"><ele>305.5</ele><time>2026-04-28T09:48:59.706Z</time></trkpt><trkpt lat="43.4542917" lon="11.5930817"><ele>305.0</ele><time>2026-04-28T09:49:00.705Z</time></trkpt><trkpt lat="43.4542633" lon="11.59325"><ele>304.5</ele><time>2026-04-28T09:49:02.707Z</time></trkpt><trkpt lat="43.454225" lon="11.5933367"><ele>304.0</ele><time>2026-04-28T09:49:03.706Z</time></trkpt><trkpt lat="43.454165" lon="11.5934183"><ele>304.0</ele><time>2026-04-28T09:49:04.705Z</time></trkpt><trkpt lat="43.4540967" lon="11.593495"><ele>304.0</ele><time>2026-04-28T09:49:05.704Z</time></trkpt><trkpt lat="43.4540367" lon="11.5935683"><ele>304.0</ele><time>2026-04-28T09:49:06.705Z</time></trkpt><trkpt lat="43.453985" lon="11.593635"><ele>304.0</ele><time>2026-04-28T09:49:07.714Z</time></trkpt><trkpt lat="43.45395" lon="11.5937083"><ele>304.0</ele><time>2026-04-28T09:49:08.705Z</time></trkpt><trkpt lat="43.4539233" lon="11.5938817"><ele>304.0</ele><time>2026-04-28T09:49:10.705Z</time></trkpt><trkpt lat="43.4539383" lon="11.59399"><ele>303.3333333333333</ele><time>2026-04-28T09:49:11.706Z</time></trkpt><trkpt lat="43.45395" lon="11.5941"><ele>302.66666666666663</ele><time>2026-04-28T09:49:12.704Z</time></trkpt><trkpt lat="43.4539433" lon="11.594205"><ele>302.0</ele><time>2026-04-28T09:49:13.705Z</time></trkpt><trkpt lat="43.4539283" lon="11.5943083"><ele>301.3333333333333</ele><time>2026-04-28T09:49:14.706Z</time></trkpt><trkpt lat="43.4539117" lon="11.5943983"><ele>300.6666666666667</ele><time>2026-04-28T09:49:15.706Z</time></trkpt><trkpt lat="43.453895" lon="11.5945417"><ele>300.0</ele><time>2026-04-28T09:49:17.704Z</time></trkpt><trkpt lat="43.4539417" lon="11.5946617"><ele>298.1666666666667</ele><time>2026-04-28T09:49:19.705Z</time></trkpt><trkpt lat="43.4539983" lon="11.5947317"><ele>296.3333333333333</ele><time>2026-04-28T09:49:20.706Z</time></trkpt><trkpt lat="43.4540733" lon="11.5947967"><ele>294.5</ele><time>2026-04-28T09:49:21.706Z</time></trkpt><trkpt lat="43.4541433" lon="11.5948633"><ele>292.66666666666663</ele><time>2026-04-28T09:49:22.704Z</time></trkpt><trkpt lat="43.4542133" lon="11.59492"><ele>290.8333333333333</ele><time>2026-04-28T09:49:23.704Z</time></trkpt><trkpt lat="43.454275" lon="11.594955"><ele>289.0</ele><time>2026-04-28T09:49:24.704Z</time></trkpt><trkpt lat="43.4543383" lon="11.5949683"><ele>289.0</ele><time>2026-04-28T09:49:25.706Z</time></trkpt><trkpt lat="43.45446" lon="11.59493"><ele>289.0</ele><time>2026-04-28T09:49:27.707Z</time></trkpt><trkpt lat="43.45454" lon="11.5948733"><ele>289.0</ele><time>2026-04-28T09:49:28.706Z</time></trkpt><trkpt lat="43.4546183" lon="11.5948183"><ele>289.0</ele><time>2026-04-28T09:49:29.704Z</time></trkpt><trkpt lat="43.4546933" lon="11.59478"><ele>289.0</ele><time>2026-04-28T09:49:30.705Z</time></trkpt><trkpt lat="43.4547683" lon="11.59476"><ele>289.4</ele><time>2026-04-28T09:49:31.706Z</time></trkpt><trkpt lat="43.45485" lon="11.5947483"><ele>289.79999999999995</ele><time>2026-04-28T09:49:32.706Z</time></trkpt><trkpt lat="43.45493" lon="11.59475"><ele>290.20000000000005</ele><time>2026-04-28T09:49:33.706Z</time></trkpt><trkpt lat="43.4549983" lon="11.5947733"><ele>290.6</ele><time>2026-04-28T09:49:34.705Z</time></trkpt><trkpt lat="43.4550783" lon="11.5948767"><ele>291.0</ele><time>2026-04-28T09:49:36.704Z</time></trkpt><trkpt lat="43.4550733" lon="11.5950783"><ele>291.0</ele><time>2026-04-28T09:49:38.706Z</time></trkpt><trkpt lat="43.4550733" lon="11.595195"><ele>291.0</ele><time>2026-04-28T09:49:39.706Z</time></trkpt><trkpt lat="43.45509" lon="11.595335"><ele>291.0</ele><time>2026-04-28T09:49:40.7Z</time></trkpt><trkpt lat="43.4551167" lon="11.5954717"><ele>291.0</ele><time>2026-04-28T09:49:41.704Z</time></trkpt><trkpt lat="43.4551483" lon="11.5956"><ele>291.0</ele><time>2026-04-28T09:49:42.703Z</time></trkpt><trkpt lat="43.4551833" lon="11.5957217"><ele>290.0</ele><time>2026-04-28T09:49:43.706Z</time></trkpt><trkpt lat="43.4552367" lon="11.5958617"><ele>289.0</ele><time>2026-04-28T09:49:44.705Z</time></trkpt><trkpt lat="43.4553067" lon="11.5959583"><ele>288.0</ele><time>2026-04-28T09:49:45.705Z</time></trkpt><trkpt lat="43.4553933" lon="11.59604"><ele>287.0</ele><time>2026-04-28T09:49:46.704Z</time></trkpt><trkpt lat="43.4554767" lon="11.596115"><ele>286.0</ele><time>2026-04-28T09:49:47.705Z</time></trkpt><trkpt lat="43.455555" lon="11.5961883"><ele>285.3333333333333</ele><time>2026-04-28T09:49:48.706Z</time></trkpt><trkpt lat="43.4556133" lon="11.5962617"><ele>284.66666666666663</ele><time>2026-04-28T09:49:49.706Z</time></trkpt><trkpt lat="43.4556717" lon="11.5963417"><ele>284.0</ele><time>2026-04-28T09:49:50.705Z</time></trkpt><trkpt lat="43.45573" lon="11.59642"><ele>283.3333333333333</ele><time>2026-04-28T09:49:51.705Z</time></trkpt><trkpt lat="43.4557817" lon="11.5964833"><ele>282.6666666666667</ele><time>2026-04-28T09:49:52.705Z</time></trkpt><trkpt lat="43.4558383" lon="11.5965367"><ele>282.0</ele><time>2026-04-28T09:49:53.705Z</time></trkpt><trkpt lat="43.455905" lon="11.5965667"><ele>282.0</ele><time>2026-04-28T09:49:54.704Z</time></trkpt><trkpt lat="43.455985" lon="11.5965583"><ele>282.0</ele><time>2026-04-28T09:49:55.705Z</time></trkpt><trkpt lat="43.4560617" lon="11.5965517"><ele>282.0</ele><time>2026-04-28T09:49:56.706Z</time></trkpt><trkpt lat="43.45613" lon="11.5965467"><ele>282.0</ele><time>2026-04-28T09:49:57.705Z</time></trkpt><trkpt lat="43.4561933" lon="11.5965483"><ele>282.0</ele><time>2026-04-28T09:49:58.704Z</time></trkpt><trkpt lat="43.4562683" lon="11.59656"><ele>282.0</ele><time>2026-04-28T09:49:59.705Z</time></trkpt><trkpt lat="43.4563367" lon="11.596585"><ele>282.0</ele><time>2026-04-28T09:50:00.704Z</time></trkpt><trkpt lat="43.4564" lon="11.5966183"><ele>280.6666666666667</ele><time>2026-04-28T09:50:01.704Z</time></trkpt><trkpt lat="43.4564683" lon="11.59665"><ele>279.3333333333333</ele><time>2026-04-28T09:50:02.705Z</time></trkpt><trkpt lat="43.4565383" lon="11.5966783"><ele>278.0</ele><time>2026-04-28T09:50:03.706Z</time></trkpt><trkpt lat="43.4566" lon="11.5967067"><ele>276.66666666666663</ele><time>2026-04-28T09:50:04.706Z</time></trkpt><trkpt lat="43.4567017" lon="11.5967933"><ele>275.3333333333333</ele><time>2026-04-28T09:50:06.704Z</time></trkpt><trkpt lat="43.45678" lon="11.596915"><ele>274.0</ele><time>2026-04-28T09:50:08.704Z</time></trkpt><trkpt lat="43.4568067" lon="11.596995"><ele>273.8333333333333</ele><time>2026-04-28T09:50:09.706Z</time></trkpt><trkpt lat="43.456825" lon="11.5970883"><ele>273.66666666666663</ele><time>2026-04-28T09:50:10.703Z</time></trkpt><trkpt lat="43.45684" lon="11.5971967"><ele>273.5</ele><time>2026-04-28T09:50:11.704Z</time></trkpt><trkpt lat="43.456865" lon="11.5973117"><ele>273.3333333333333</ele><time>2026-04-28T09:50:12.706Z</time></trkpt><trkpt lat="43.4569017" lon="11.5974267"><ele>273.1666666666667</ele><time>2026-04-28T09:50:13.705Z</time></trkpt><trkpt lat="43.456965" lon="11.5975567"><ele>273.0</ele><time>2026-04-28T09:50:14.705Z</time></trkpt><trkpt lat="43.45706" lon="11.5977017"><ele>272.5</ele><time>2026-04-28T09:50:15.706Z</time></trkpt><trkpt lat="43.4571583" lon="11.597845"><ele>272.0</ele><time>2026-04-28T09:50:16.706Z</time></trkpt><trkpt lat="43.4572533" lon="11.5980017"><ele>271.5</ele><time>2026-04-28T09:50:17.705Z</time></trkpt><trkpt lat="43.4573317" lon="11.5981667"><ele>271.0</ele><time>2026-04-28T09:50:18.705Z</time></trkpt><trkpt lat="43.4573967" lon="11.598335"><ele>271.0</ele><time>2026-04-28T09:50:19.706Z</time></trkpt><trkpt lat="43.4574533" lon="11.598505"><ele>271.0</ele><time>2026-04-28T09:50:20.704Z</time></trkpt><trkpt lat="43.4575033" lon="11.5986567"><ele>271.0</ele><time>2026-04-28T09:50:21.705Z</time></trkpt><trkpt lat="43.457555" lon="11.5988"><ele>271.0</ele><time>2026-04-28T09:50:22.707Z</time></trkpt><trkpt lat="43.4576083" lon="11.5989417"><ele>270.40000000000003</ele><time>2026-04-28T09:50:23.705Z</time></trkpt><trkpt lat="43.45767" lon="11.599075"><ele>269.8</ele><time>2026-04-28T09:50:24.704Z</time></trkpt><trkpt lat="43.45773" lon="11.599195"><ele>269.20000000000005</ele><time>2026-04-28T09:50:25.705Z</time></trkpt><trkpt lat="43.4577817" lon="11.5993067"><ele>268.6</ele><time>2026-04-28T09:50:26.704Z</time></trkpt><trkpt lat="43.4578333" lon="11.5994267"><ele>268.0</ele><time>2026-04-28T09:50:27.705Z</time></trkpt><trkpt lat="43.457895" lon="11.5995667"><ele>266.75</ele><time>2026-04-28T09:50:28.705Z</time></trkpt><trkpt lat="43.4579633" lon="11.5997167"><ele>265.5</ele><time>2026-04-28T09:50:29.704Z</time></trkpt><trkpt lat="43.45804" lon="11.599875"><ele>264.25</ele><time>2026-04-28T09:50:30.705Z</time></trkpt><trkpt lat="43.4581167" lon="11.6000367"><ele>263.0</ele><time>2026-04-28T09:50:31.704Z</time></trkpt><trkpt lat="43.4581967" lon="11.6002"><ele>262.0</ele><time>2026-04-28T09:50:32.704Z</time></trkpt><trkpt lat="43.4582767" lon="11.6003667"><ele>261.0</ele><time>2026-04-28T09:50:33.705Z</time></trkpt><trkpt lat="43.4583567" lon="11.6005367"><ele>260.0</ele><time>2026-04-28T09:50:34.705Z</time></trkpt><trkpt lat="43.45844" lon="11.6007083"><ele>259.0</ele><time>2026-04-28T09:50:35.705Z</time></trkpt><trkpt lat="43.4585233" lon="11.6008817"><ele>259.0</ele><time>2026-04-28T09:50:36.706Z</time></trkpt><trkpt lat="43.4586067" lon="11.6010583"><ele>259.0</ele><time>2026-04-28T09:50:37.705Z</time></trkpt><trkpt lat="43.4586917" lon="11.60124"><ele>259.0</ele><time>2026-04-28T09:50:38.705Z</time></trkpt><trkpt lat="43.4587733" lon="11.6014133"><ele>259.25</ele><time>2026-04-28T09:50:39.705Z</time></trkpt><trkpt lat="43.4588483" lon="11.6015783"><ele>259.5</ele><time>2026-04-28T09:50:40.704Z</time></trkpt><trkpt lat="43.4589183" lon="11.6017233"><ele>259.75</ele><time>2026-04-28T09:50:41.701Z</time></trkpt><trkpt lat="43.4589967" lon="11.6018467"><ele>260.0</ele><time>2026-04-28T09:50:42.704Z</time></trkpt><trkpt lat="43.4590867" lon="11.60193"><ele>260.0</ele><time>2026-04-28T09:50:43.706Z</time></trkpt><trkpt lat="43.459205" lon="11.6019767"><ele>260.0</ele><time>2026-04-28T09:50:44.705Z</time></trkpt><trkpt lat="43.459335" lon="11.6019933"><ele>260.0</ele><time>2026-04-28T09:50:45.705Z</time></trkpt><trkpt lat="43.4594667" lon="11.6020133"><ele>260.0</ele><time>2026-04-28T09:50:46.705Z</time></trkpt><trkpt lat="43.459595" lon="11.602055"><ele>259.75</ele><time>2026-04-28T09:50:47.706Z</time></trkpt><trkpt lat="43.45972" lon="11.6021233"><ele>259.5</ele><time>2026-04-28T09:50:48.706Z</time></trkpt><trkpt lat="43.4598417" lon="11.6022367"><ele>259.25</ele><time>2026-04-28T09:50:49.707Z</time></trkpt><trkpt lat="43.4599717" lon="11.6023817"><ele>259.0</ele><time>2026-04-28T09:50:50.706Z</time></trkpt><trkpt lat="43.4601033" lon="11.6025433"><ele>259.0</ele><time>2026-04-28T09:50:51.705Z</time></trkpt><trkpt lat="43.4602333" lon="11.6027117"><ele>259.0</ele><time>2026-04-28T09:50:52.706Z</time></trkpt><trkpt lat="43.460355" lon="11.6028683"><ele>259.0</ele><time>2026-04-28T09:50:53.706Z</time></trkpt><trkpt lat="43.4604767" lon="11.6030117"><ele>257.66666666666663</ele><time>2026-04-28T09:50:54.706Z</time></trkpt><trkpt lat="43.460595" lon="11.6031567"><ele>256.3333333333333</ele><time>2026-04-28T09:50:55.706Z</time></trkpt><trkpt lat="43.4607083" lon="11.6033017"><ele>255.0</ele><time>2026-04-28T09:50:56.704Z</time></trkpt><trkpt lat="43.46082" lon="11.6034533"><ele>255.0</ele><time>2026-04-28T09:50:57.708Z</time></trkpt><trkpt lat="43.46093" lon="11.6035933"><ele>255.0</ele><time>2026-04-28T09:50:58.706Z</time></trkpt><trkpt lat="43.46104" lon="11.6037383"><ele>255.0</ele><time>2026-04-28T09:50:59.705Z</time></trkpt><trkpt lat="43.4611583" lon="11.60389"><ele>254.0</ele><time>2026-04-28T09:51:00.705Z</time></trkpt><trkpt lat="43.4612817" lon="11.60404"><ele>253.0</ele><time>2026-04-28T09:51:01.705Z</time></trkpt><trkpt lat="43.4614033" lon="11.6041883"><ele>252.0</ele><time>2026-04-28T09:51:02.705Z</time></trkpt><trkpt lat="43.4615233" lon="11.6043367"><ele>250.0</ele><time>2026-04-28T09:51:03.706Z</time></trkpt><trkpt lat="43.46165" lon="11.60449"><ele>248.0</ele><time>2026-04-28T09:51:04.706Z</time></trkpt><trkpt lat="43.461775" lon="11.6046467"><ele>246.0</ele><time>2026-04-28T09:51:05.705Z</time></trkpt><trkpt lat="43.461905" lon="11.6048083"><ele>245.33333333333331</ele><time>2026-04-28T09:51:06.705Z</time></trkpt><trkpt lat="43.4620317" lon="11.604965"><ele>244.66666666666666</ele><time>2026-04-28T09:51:07.707Z</time></trkpt><trkpt lat="43.4621583" lon="11.605115"><ele>244.0</ele><time>2026-04-28T09:51:08.706Z</time></trkpt><trkpt lat="43.4622817" lon="11.6052583"><ele>241.0</ele><time>2026-04-28T09:51:09.707Z</time></trkpt><trkpt lat="43.4624067" lon="11.6053967"><ele>238.0</ele><time>2026-04-28T09:51:10.706Z</time></trkpt><trkpt lat="43.46253" lon="11.6055417"><ele>235.0</ele><time>2026-04-28T09:51:11.705Z</time></trkpt><trkpt lat="43.4626517" lon="11.605685"><ele>235.0</ele><time>2026-04-28T09:51:12.706Z</time></trkpt><trkpt lat="43.4627783" lon="11.60583"><ele>235.0</ele><time>2026-04-28T09:51:13.701Z</time></trkpt><trkpt lat="43.4629" lon="11.6059733"><ele>235.0</ele><time>2026-04-28T09:51:14.704Z</time></trkpt><trkpt lat="43.463025" lon="11.6061183"><ele>237.66666666666666</ele><time>2026-04-28T09:51:15.706Z</time></trkpt><trkpt lat="43.4631483" lon="11.6062517"><ele>240.33333333333331</ele><time>2026-04-28T09:51:16.705Z</time></trkpt><trkpt lat="43.463275" lon="11.6063817"><ele>243.0</ele><time>2026-04-28T09:51:17.705Z</time></trkpt><trkpt lat="43.4634033" lon="11.6065117"><ele>243.0</ele><time>2026-04-28T09:51:18.706Z</time></trkpt><trkpt lat="43.463535" lon="11.606635"><ele>243.0</ele><time>2026-04-28T09:51:19.706Z</time></trkpt><trkpt lat="43.4636733" lon="11.606745"><ele>243.0</ele><time>2026-04-28T09:51:20.708Z</time></trkpt><trkpt lat="43.463815" lon="11.6068367"><ele>245.66666666666669</ele><time>2026-04-28T09:51:21.705Z</time></trkpt><trkpt lat="43.463965" lon="11.6069217"><ele>248.33333333333334</ele><time>2026-04-28T09:51:22.705Z</time></trkpt><trkpt lat="43.464115" lon="11.607005"><ele>251.0</ele><time>2026-04-28T09:51:23.704Z</time></trkpt><trkpt lat="43.4642633" lon="11.60708"><ele>251.66666666666669</ele><time>2026-04-28T09:51:24.706Z</time></trkpt><trkpt lat="43.4644167" lon="11.607125"><ele>252.33333333333331</ele><time>2026-04-28T09:51:25.707Z</time></trkpt><trkpt lat="43.464585" lon="11.6071483"><ele>253.0</ele><time>2026-04-28T09:51:26.706Z</time></trkpt><trkpt lat="43.4647417" lon="11.6071483"><ele>253.0</ele><time>2026-04-28T09:51:27.705Z</time></trkpt><trkpt lat="43.4648817" lon="11.6071283"><ele>253.0</ele><time>2026-04-28T09:51:28.706Z</time></trkpt><trkpt lat="43.46502" lon="11.6070833"><ele>253.0</ele><time>2026-04-28T09:51:29.705Z</time></trkpt><trkpt lat="43.4651583" lon="11.6070117"><ele>253.0</ele><time>2026-04-28T09:51:30.706Z</time></trkpt><trkpt lat="43.4652967" lon="11.6069283"><ele>253.25</ele><time>2026-04-28T09:51:31.706Z</time></trkpt><trkpt lat="43.46544" lon="11.6068383"><ele>253.5</ele><time>2026-04-28T09:51:32.705Z</time></trkpt><trkpt lat="43.4655767" lon="11.6067483"><ele>253.75</ele><time>2026-04-28T09:51:33.706Z</time></trkpt><trkpt lat="43.4656967" lon="11.6066717"><ele>254.0</ele><time>2026-04-28T09:51:34.706Z</time></trkpt><trkpt lat="43.46581" lon="11.6066217"><ele>254.0</ele><time>2026-04-28T09:51:35.702Z</time></trkpt><trkpt lat="43.465925" lon="11.6066083"><ele>254.0</ele><time>2026-04-28T09:51:36.706Z</time></trkpt><trkpt lat="43.4660467" lon="11.606645"><ele>254.0</ele><time>2026-04-28T09:51:37.706Z</time></trkpt><trkpt lat="43.46617" lon="11.6067217"><ele>254.0</ele><time>2026-04-28T09:51:38.706Z</time></trkpt><trkpt lat="43.4662967" lon="11.6068367"><ele>253.0</ele><time>2026-04-28T09:51:39.706Z</time></trkpt><trkpt lat="43.46644" lon="11.6069617"><ele>252.0</ele><time>2026-04-28T09:51:40.706Z</time></trkpt><trkpt lat="43.4665917" lon="11.6071017"><ele>251.0</ele><time>2026-04-28T09:51:41.704Z</time></trkpt><trkpt lat="43.4667467" lon="11.607235"><ele>251.0</ele><time>2026-04-28T09:51:42.704Z</time></trkpt><trkpt lat="43.4668983" lon="11.6073667"><ele>251.0</ele><time>2026-04-28T09:51:43.706Z</time></trkpt><trkpt lat="43.46704" lon="11.6074883"><ele>251.0</ele><time>2026-04-28T09:51:44.706Z</time></trkpt><trkpt lat="43.4671683" lon="11.6076"><ele>250.0</ele><time>2026-04-28T09:51:45.706Z</time></trkpt><trkpt lat="43.4672883" lon="11.607705"><ele>249.0</ele><time>2026-04-28T09:51:46.707Z</time></trkpt><trkpt lat="43.4674033" lon="11.60781"><ele>248.0</ele><time>2026-04-28T09:51:47.704Z</time></trkpt><trkpt lat="43.4675133" lon="11.60791"><ele>247.0</ele><time>2026-04-28T09:51:48.706Z</time></trkpt><trkpt lat="43.46762" lon="11.608015"><ele>246.5</ele><time>2026-04-28T09:51:49.706Z</time></trkpt><trkpt lat="43.4677283" lon="11.6081233"><ele>246.0</ele><time>2026-04-28T09:51:50.706Z</time></trkpt><trkpt lat="43.4678333" lon="11.6082317"><ele>245.5</ele><time>2026-04-28T09:51:51.707Z</time></trkpt><trkpt lat="43.46794" lon="11.6083433"><ele>245.0</ele><time>2026-04-28T09:51:52.707Z</time></trkpt><trkpt lat="43.46805" lon="11.60845"><ele>243.25</ele><time>2026-04-28T09:51:53.704Z</time></trkpt><trkpt lat="43.4681633" lon="11.60855"><ele>241.5</ele><time>2026-04-28T09:51:54.705Z</time></trkpt><trkpt lat="43.4682883" lon="11.60866"><ele>239.75</ele><time>2026-04-28T09:51:55.705Z</time></trkpt><trkpt lat="43.4684083" lon="11.6087483"><ele>238.0</ele><time>2026-04-28T09:51:56.706Z</time></trkpt><trkpt lat="43.468535" lon="11.608845"><ele>238.0</ele><time>2026-04-28T09:51:57.706Z</time></trkpt><trkpt lat="43.468675" lon="11.6089583"><ele>238.0</ele><time>2026-04-28T09:51:58.705Z</time></trkpt><trkpt lat="43.4688267" lon="11.609085"><ele>238.0</ele><time>2026-04-28T09:51:59.705Z</time></trkpt><trkpt lat="43.4689717" lon="11.6091983"><ele>237.0</ele><time>2026-04-28T09:52:00.705Z</time></trkpt><trkpt lat="43.4691083" lon="11.609305"><ele>236.0</ele><time>2026-04-28T09:52:01.705Z</time></trkpt><trkpt lat="43.4692483" lon="11.609415"><ele>235.0</ele><time>2026-04-28T09:52:02.706Z</time></trkpt><trkpt lat="43.4693717" lon="11.6095133"><ele>235.0</ele><time>2026-04-28T09:52:03.706Z</time></trkpt><trkpt lat="43.469485" lon="11.6095933"><ele>235.0</ele><time>2026-04-28T09:52:04.706Z</time></trkpt><trkpt lat="43.4695817" lon="11.6096583"><ele>235.0</ele><time>2026-04-28T09:52:05.706Z</time></trkpt><trkpt lat="43.4696483" lon="11.60971"><ele>235.0</ele><time>2026-04-28T09:52:06.707Z</time></trkpt><trkpt lat="43.4697267" lon="11.60978"><ele>235.0</ele><time>2026-04-28T09:52:08.708Z</time></trkpt><trkpt lat="43.4698117" lon="11.6097533"><ele>234.75</ele><time>2026-04-28T09:52:12.706Z</time></trkpt><trkpt lat="43.4698467" lon="11.6096383"><ele>234.5</ele><time>2026-04-28T09:52:13.708Z</time></trkpt><trkpt lat="43.4698817" lon="11.609505"><ele>234.25</ele><time>2026-04-28T09:52:14.708Z</time></trkpt><trkpt lat="43.469935" lon="11.6093233"><ele>234.0</ele><time>2026-04-28T09:52:15.708Z</time></trkpt><trkpt lat="43.4699867" lon="11.6091383"><ele>234.0</ele><time>2026-04-28T09:52:16.707Z</time></trkpt><trkpt lat="43.4700333" lon="11.6089283"><ele>234.0</ele><time>2026-04-28T09:52:17.708Z</time></trkpt><trkpt lat="43.47009" lon="11.6087017"><ele>234.0</ele><time>2026-04-28T09:52:18.707Z</time></trkpt><trkpt lat="43.4701483" lon="11.6084617"><ele>234.0</ele><time>2026-04-28T09:52:19.708Z</time></trkpt><trkpt lat="43.4701933" lon="11.6082483"><ele>233.99999999999997</ele><time>2026-04-28T09:52:20.708Z</time></trkpt><trkpt lat="43.4702167" lon="11.6080833"><ele>233.99999999999997</ele><time>2026-04-28T09:52:21.707Z</time></trkpt><trkpt lat="43.4702317" lon="11.6079583"><ele>234.0</ele><time>2026-04-28T09:52:22.708Z</time></trkpt><trkpt lat="43.4702467" lon="11.60786"><ele>234.0</ele><time>2026-04-28T09:52:23.707Z</time></trkpt><trkpt lat="43.4702767" lon="11.6077683"><ele>234.0</ele><time>2026-04-28T09:52:24.707Z</time></trkpt><trkpt lat="43.470325" lon="11.607695"><ele>234.0</ele><time>2026-04-28T09:52:27.708Z</time></trkpt><trkpt lat="43.4703733" lon="11.6077833"><ele>234.0</ele><time>2026-04-28T09:52:28.708Z</time></trkpt><trkpt lat="43.47042" lon="11.6078717"><ele>234.0</ele><time>2026-04-28T09:52:29.706Z</time></trkpt><trkpt lat="43.4704717" lon="11.6079583"><ele>234.0</ele><time>2026-04-28T09:52:30.708Z</time></trkpt><trkpt lat="43.4705267" lon="11.6080533"><ele>234.0</ele><time>2026-04-28T09:52:31.708Z</time></trkpt><trkpt lat="43.4705933" lon="11.608135"><ele>234.16666666666666</ele><time>2026-04-28T09:52:32.704Z</time></trkpt><trkpt lat="43.4706567" lon="11.6082083"><ele>234.33333333333331</ele><time>2026-04-28T09:52:33.706Z</time></trkpt><trkpt lat="43.4707267" lon="11.6082817"><ele>234.5</ele><time>2026-04-28T09:52:34.705Z</time></trkpt><trkpt lat="43.4708" lon="11.6083567"><ele>234.66666666666666</ele><time>2026-04-28T09:52:35.705Z</time></trkpt><trkpt lat="43.4708717" lon="11.6084283"><ele>234.83333333333331</ele><time>2026-04-28T09:52:36.699Z</time></trkpt><trkpt lat="43.47094" lon="11.6084983"><ele>235.0</ele><time>2026-04-28T09:52:37.705Z</time></trkpt><trkpt lat="43.4710033" lon="11.6085717"><ele>234.99999999999997</ele><time>2026-04-28T09:52:38.705Z</time></trkpt><trkpt lat="43.471065" lon="11.6086317"><ele>235.0</ele><time>2026-04-28T09:52:39.706Z</time></trkpt><trkpt lat="43.47113" lon="11.6086833"><ele>235.0</ele><time>2026-04-28T09:52:40.704Z</time></trkpt><trkpt lat="43.4711983" lon="11.6087317"><ele>235.0</ele><time>2026-04-28T09:52:41.705Z</time></trkpt><trkpt lat="43.47128" lon="11.6087717"><ele>234.99999999999997</ele><time>2026-04-28T09:52:42.704Z</time></trkpt><trkpt lat="43.4713617" lon="11.6088083"><ele>235.0</ele><time>2026-04-28T09:52:43.706Z</time></trkpt><trkpt lat="43.47145" lon="11.6088417"><ele>234.66666666666666</ele><time>2026-04-28T09:52:44.706Z</time></trkpt><trkpt lat="43.4715433" lon="11.608875"><ele>234.33333333333331</ele><time>2026-04-28T09:52:45.706Z</time></trkpt><trkpt lat="43.471635" lon="11.608905"><ele>234.0</ele><time>2026-04-28T09:52:46.705Z</time></trkpt><trkpt lat="43.4717267" lon="11.608935"><ele>233.66666666666669</ele><time>2026-04-28T09:52:47.704Z</time></trkpt><trkpt lat="43.4718067" lon="11.60895"><ele>233.33333333333334</ele><time>2026-04-28T09:52:48.704Z</time></trkpt><trkpt lat="43.4718733" lon="11.6089567"><ele>233.0</ele><time>2026-04-28T09:52:49.705Z</time></trkpt><trkpt lat="43.4719467" lon="11.6089767"><ele>233.0</ele><time>2026-04-28T09:52:50.706Z</time></trkpt><trkpt lat="43.4720133" lon="11.60899"><ele>233.0</ele><time>2026-04-28T09:52:51.706Z</time></trkpt><trkpt lat="43.47213" lon="11.6090067"><ele>233.0</ele><time>2026-04-28T09:52:53.705Z</time></trkpt><trkpt lat="43.4722617" lon="11.6090133"><ele>233.0</ele><time>2026-04-28T09:52:55.705Z</time></trkpt><trkpt lat="43.4723433" lon="11.6090267"><ele>233.0</ele><time>2026-04-28T09:52:56.705Z</time></trkpt><trkpt lat="43.4724367" lon="11.6090433"><ele>233.33333333333334</ele><time>2026-04-28T09:52:57.706Z</time></trkpt><trkpt lat="43.472525" lon="11.6090633"><ele>233.66666666666669</ele><time>2026-04-28T09:52:58.705Z</time></trkpt><trkpt lat="43.4726133" lon="11.609085"><ele>234.0</ele><time>2026-04-28T09:52:59.705Z</time></trkpt><trkpt lat="43.4727017" lon="11.60911"><ele>234.33333333333331</ele><time>2026-04-28T09:53:00.704Z</time></trkpt><trkpt lat="43.4727883" lon="11.6091433"><ele>234.66666666666666</ele><time>2026-04-28T09:53:01.706Z</time></trkpt><trkpt lat="43.4728617" lon="11.609195"><ele>235.0</ele><time>2026-04-28T09:53:02.707Z</time></trkpt><trkpt lat="43.4729283" lon="11.6092633"><ele>235.6</ele><time>2026-04-28T09:53:03.706Z</time></trkpt><trkpt lat="43.4730017" lon="11.60935"><ele>236.2</ele><time>2026-04-28T09:53:04.705Z</time></trkpt><trkpt lat="43.4730767" lon="11.6094467"><ele>236.8</ele><time>2026-04-28T09:53:05.705Z</time></trkpt><trkpt lat="43.4731533" lon="11.609555"><ele>237.4</ele><time>2026-04-28T09:53:06.707Z</time></trkpt><trkpt lat="43.4732233" lon="11.609665"><ele>238.0</ele><time>2026-04-28T09:53:07.706Z</time></trkpt><trkpt lat="43.473305" lon="11.6097883"><ele>236.0</ele><time>2026-04-28T09:53:08.705Z</time></trkpt><trkpt lat="43.4733917" lon="11.6099267"><ele>234.0</ele><time>2026-04-28T09:53:09.706Z</time></trkpt><trkpt lat="43.4734733" lon="11.6100567"><ele>232.0</ele><time>2026-04-28T09:53:10.705Z</time></trkpt><trkpt lat="43.4735517" lon="11.6101783"><ele>230.0</ele><time>2026-04-28T09:53:11.705Z</time></trkpt><trkpt lat="43.4736367" lon="11.6102917"><ele>230.0</ele><time>2026-04-28T09:53:12.703Z</time></trkpt><trkpt lat="43.473715" lon="11.6104033"><ele>230.0</ele><time>2026-04-28T09:53:13.706Z</time></trkpt><trkpt lat="43.4737817" lon="11.6105067"><ele>230.0</ele><time>2026-04-28T09:53:14.705Z</time></trkpt><trkpt lat="43.4738417" lon="11.6106117"><ele>230.0</ele><time>2026-04-28T09:53:15.707Z</time></trkpt><trkpt lat="43.47389" lon="11.610715"><ele>230.0</ele><time>2026-04-28T09:53:16.704Z</time></trkpt><trkpt lat="43.4739333" lon="11.610845"><ele>230.2</ele><time>2026-04-28T09:53:17.704Z</time></trkpt><trkpt lat="43.4739667" lon="11.610995"><ele>230.4</ele><time>2026-04-28T09:53:18.705Z</time></trkpt><trkpt lat="43.473985" lon="11.6111367"><ele>230.60000000000002</ele><time>2026-04-28T09:53:19.704Z</time></trkpt><trkpt lat="43.47401" lon="11.6112767"><ele>230.8</ele><time>2026-04-28T09:53:20.701Z</time></trkpt><trkpt lat="43.4740483" lon="11.61142"><ele>231.0</ele><time>2026-04-28T09:53:21.706Z</time></trkpt><trkpt lat="43.4740967" lon="11.6115667"><ele>231.0</ele><time>2026-04-28T09:53:22.704Z</time></trkpt><trkpt lat="43.4741467" lon="11.61171"><ele>231.00000000000003</ele><time>2026-04-28T09:53:23.704Z</time></trkpt><trkpt lat="43.47419" lon="11.611835"><ele>231.00000000000003</ele><time>2026-04-28T09:53:24.705Z</time></trkpt><trkpt lat="43.4742533" lon="11.6119467"><ele>231.0</ele><time>2026-04-28T09:53:25.705Z</time></trkpt><trkpt lat="43.474315" lon="11.6120767"><ele>231.0</ele><time>2026-04-28T09:53:26.705Z</time></trkpt><trkpt lat="43.4743817" lon="11.6122083"><ele>230.0</ele><time>2026-04-28T09:53:27.707Z</time></trkpt><trkpt lat="43.4744633" lon="11.6123333"><ele>229.0</ele><time>2026-04-28T09:53:28.704Z</time></trkpt><trkpt lat="43.4745567" lon="11.6124467"><ele>228.0</ele><time>2026-04-28T09:53:29.705Z</time></trkpt><trkpt lat="43.4746667" lon="11.6125717"><ele>227.0</ele><time>2026-04-28T09:53:30.705Z</time></trkpt><trkpt lat="43.47478" lon="11.6126833"><ele>227.0</ele><time>2026-04-28T09:53:31.705Z</time></trkpt><trkpt lat="43.47489" lon="11.612785"><ele>227.0</ele><time>2026-04-28T09:53:32.705Z</time></trkpt><trkpt lat="43.4750017" lon="11.6128883"><ele>227.0</ele><time>2026-04-28T09:53:33.706Z</time></trkpt><trkpt lat="43.4751133" lon="11.6129983"><ele>227.0</ele><time>2026-04-28T09:53:34.706Z</time></trkpt><trkpt lat="43.475225" lon="11.61312"><ele>227.0</ele><time>2026-04-28T09:53:35.705Z</time></trkpt><trkpt lat="43.4753283" lon="11.613225"><ele>227.0</ele><time>2026-04-28T09:53:36.704Z</time></trkpt><trkpt lat="43.4754117" lon="11.6133183"><ele>227.0</ele><time>2026-04-28T09:53:37.705Z</time></trkpt><trkpt lat="43.47548" lon="11.613405"><ele>227.0</ele><time>2026-04-28T09:53:38.705Z</time></trkpt><trkpt lat="43.4755267" lon="11.6134983"><ele>227.0</ele><time>2026-04-28T09:53:39.706Z</time></trkpt><trkpt lat="43.4755583" lon="11.6136"><ele>229.25</ele><time>2026-04-28T09:53:40.704Z</time></trkpt><trkpt lat="43.47558" lon="11.6137067"><ele>231.5</ele><time>2026-04-28T09:53:41.704Z</time></trkpt><trkpt lat="43.4755783" lon="11.613855"><ele>233.75</ele><time>2026-04-28T09:53:42.701Z</time></trkpt><trkpt lat="43.4755767" lon="11.6140283"><ele>236.0</ele><time>2026-04-28T09:53:43.706Z</time></trkpt><trkpt lat="43.475595" lon="11.6142167"><ele>236.0</ele><time>2026-04-28T09:53:44.705Z</time></trkpt><trkpt lat="43.47562" lon="11.6144"><ele>236.0</ele><time>2026-04-28T09:53:45.705Z</time></trkpt><trkpt lat="43.475645" lon="11.6145767"><ele>236.0</ele><time>2026-04-28T09:53:46.704Z</time></trkpt><trkpt lat="43.47566" lon="11.61475"><ele>236.0</ele><time>2026-04-28T09:53:47.705Z</time></trkpt><trkpt lat="43.4756317" lon="11.61491"><ele>238.0</ele><time>2026-04-28T09:53:48.705Z</time></trkpt><trkpt lat="43.4755817" lon="11.615065"><ele>240.0</ele><time>2026-04-28T09:53:49.706Z</time></trkpt><trkpt lat="43.4755167" lon="11.6152533"><ele>242.0</ele><time>2026-04-28T09:53:50.706Z</time></trkpt><trkpt lat="43.475445" lon="11.6154417"><ele>244.0</ele><time>2026-04-28T09:53:51.706Z</time></trkpt><trkpt lat="43.4753817" lon="11.6156183"><ele>244.6</ele><time>2026-04-28T09:53:52.706Z</time></trkpt><trkpt lat="43.47533" lon="11.6157733"><ele>245.2</ele><time>2026-04-28T09:53:53.705Z</time></trkpt><trkpt lat="43.4752933" lon="11.6159033"><ele>245.79999999999998</ele><time>2026-04-28T09:53:54.704Z</time></trkpt><trkpt lat="43.475275" lon="11.6160083"><ele>246.39999999999998</ele><time>2026-04-28T09:53:55.705Z</time></trkpt><trkpt lat="43.4752533" lon="11.6161333"><ele>247.0</ele><time>2026-04-28T09:53:57.706Z</time></trkpt><trkpt lat="43.4752967" lon="11.6162017"><ele>247.2</ele><time>2026-04-28T09:54:01.706Z</time></trkpt><trkpt lat="43.475425" lon="11.6162167"><ele>247.39999999999998</ele><time>2026-04-28T09:54:03.707Z</time></trkpt><trkpt lat="43.4755183" lon="11.6161967"><ele>247.60000000000002</ele><time>2026-04-28T09:54:04.703Z</time></trkpt><trkpt lat="43.475615" lon="11.6161733"><ele>247.8</ele><time>2026-04-28T09:54:05.703Z</time></trkpt><trkpt lat="43.475725" lon="11.61615"><ele>248.0</ele><time>2026-04-28T09:54:06.706Z</time></trkpt><trkpt lat="43.47584" lon="11.6161217"><ele>248.75</ele><time>2026-04-28T09:54:07.704Z</time></trkpt><trkpt lat="43.4759667" lon="11.6161133"><ele>249.5</ele><time>2026-04-28T09:54:08.707Z</time></trkpt><trkpt lat="43.47608" lon="11.6160967"><ele>250.25</ele><time>2026-04-28T09:54:09.706Z</time></trkpt><trkpt lat="43.4761983" lon="11.6160833"><ele>251.0</ele><time>2026-04-28T09:54:10.705Z</time></trkpt><trkpt lat="43.4763217" lon="11.616065"><ele>251.0</ele><time>2026-04-28T09:54:11.705Z</time></trkpt><trkpt lat="43.4764383" lon="11.6160433"><ele>251.00000000000003</ele><time>2026-04-28T09:54:12.707Z</time></trkpt><trkpt lat="43.4765533" lon="11.6160333"><ele>251.00000000000003</ele><time>2026-04-28T09:54:13.706Z</time></trkpt><trkpt lat="43.4766617" lon="11.616025"><ele>251.0</ele><time>2026-04-28T09:54:14.704Z</time></trkpt><trkpt lat="43.4767583" lon="11.6160167"><ele>251.0</ele><time>2026-04-28T09:54:15.705Z</time></trkpt><trkpt lat="43.476865" lon="11.616015"><ele>251.0</ele><time>2026-04-28T09:54:16.705Z</time></trkpt><trkpt lat="43.4769817" lon="11.616"><ele>251.0</ele><time>2026-04-28T09:54:17.705Z</time></trkpt><trkpt lat="43.4770983" lon="11.6159833"><ele>251.0</ele><time>2026-04-28T09:54:18.704Z</time></trkpt><trkpt lat="43.477215" lon="11.6159617"><ele>251.0</ele><time>2026-04-28T09:54:19.705Z</time></trkpt><trkpt lat="43.4773183" lon="11.6159333"><ele>251.0</ele><time>2026-04-28T09:54:20.707Z</time></trkpt><trkpt lat="43.477425" lon="11.6159133"><ele>251.00000000000003</ele><time>2026-04-28T09:54:21.707Z</time></trkpt><trkpt lat="43.4775283" lon="11.61588"><ele>251.00000000000003</ele><time>2026-04-28T09:54:22.704Z</time></trkpt><trkpt lat="43.4776183" lon="11.61584"><ele>251.0</ele><time>2026-04-28T09:54:23.705Z</time></trkpt><trkpt lat="43.4777067" lon="11.615785"><ele>251.0</ele><time>2026-04-28T09:54:24.704Z</time></trkpt><trkpt lat="43.4778117" lon="11.615715"><ele>251.0</ele><time>2026-04-28T09:54:25.705Z</time></trkpt><trkpt lat="43.4778967" lon="11.6156283"><ele>251.0</ele><time>2026-04-28T09:54:26.706Z</time></trkpt><trkpt lat="43.477975" lon="11.6154867"><ele>251.0</ele><time>2026-04-28T09:54:27.707Z</time></trkpt><trkpt lat="43.478025" lon="11.6153333"><ele>251.0</ele><time>2026-04-28T09:54:28.706Z</time></trkpt><trkpt lat="43.4780633" lon="11.6151933"><ele>250.50000000000003</ele><time>2026-04-28T09:54:29.705Z</time></trkpt><trkpt lat="43.4781017" lon="11.6150717"><ele>250.0</ele><time>2026-04-28T09:54:30.705Z</time></trkpt><trkpt lat="43.4781417" lon="11.6149683"><ele>249.5</ele><time>2026-04-28T09:54:31.699Z</time></trkpt><trkpt lat="43.4781917" lon="11.6148683"><ele>249.0</ele><time>2026-04-28T09:54:32.706Z</time></trkpt><trkpt lat="43.47823" lon="11.61478"><ele>248.50000000000003</ele><time>2026-04-28T09:54:33.705Z</time></trkpt><trkpt lat="43.4782783" lon="11.6147183"><ele>248.0</ele><time>2026-04-28T09:54:34.707Z</time></trkpt><trkpt lat="43.4783417" lon="11.6146633"><ele>248.0</ele><time>2026-04-28T09:54:35.708Z</time></trkpt><trkpt lat="43.478465" lon="11.6146967"><ele>248.0</ele><time>2026-04-28T09:54:37.708Z</time></trkpt><trkpt lat="43.478525" lon="11.6147667"><ele>248.0</ele><time>2026-04-28T09:54:38.707Z</time></trkpt><trkpt lat="43.4785783" lon="11.6148717"><ele>248.0</ele><time>2026-04-28T09:54:39.707Z</time></trkpt><trkpt lat="43.4786283" lon="11.6149917"><ele>248.0</ele><time>2026-04-28T09:54:40.708Z</time></trkpt><trkpt lat="43.4787" lon="11.6151083"><ele>246.60000000000002</ele><time>2026-04-28T09:54:41.703Z</time></trkpt><trkpt lat="43.47878" lon="11.615265"><ele>245.20000000000002</ele><time>2026-04-28T09:54:42.708Z</time></trkpt><trkpt lat="43.4788583" lon="11.61535"><ele>243.8</ele><time>2026-04-28T09:54:43.708Z</time></trkpt><trkpt lat="43.4789283" lon="11.6154283"><ele>242.4</ele><time>2026-04-28T09:54:44.706Z</time></trkpt><trkpt lat="43.4789983" lon="11.6155117"><ele>241.0</ele><time>2026-04-28T09:54:45.709Z</time></trkpt><trkpt lat="43.4790683" lon="11.6155883"><ele>240.66666666666666</ele><time>2026-04-28T09:54:46.706Z</time></trkpt><trkpt lat="43.4791217" lon="11.6156933"><ele>240.33333333333331</ele><time>2026-04-28T09:54:47.707Z</time></trkpt><trkpt lat="43.47917" lon="11.6157833"><ele>240.0</ele><time>2026-04-28T09:54:48.708Z</time></trkpt><trkpt lat="43.4792017" lon="11.6158783"><ele>239.66666666666669</ele><time>2026-04-28T09:54:49.708Z</time></trkpt><trkpt lat="43.4792467" lon="11.6159633"><ele>239.33333333333334</ele><time>2026-04-28T09:54:50.706Z</time></trkpt><trkpt lat="43.4792783" lon="11.6160433"><ele>239.0</ele><time>2026-04-28T09:54:51.709Z</time></trkpt><trkpt lat="43.479275" lon="11.6161383"><ele>239.6</ele><time>2026-04-28T09:54:52.707Z</time></trkpt><trkpt lat="43.4792367" lon="11.6162683"><ele>240.2</ele><time>2026-04-28T09:54:53.707Z</time></trkpt><trkpt lat="43.479215" lon="11.616385"><ele>240.79999999999998</ele><time>2026-04-28T09:54:54.708Z</time></trkpt><trkpt lat="43.4791967" lon="11.6165017"><ele>241.39999999999998</ele><time>2026-04-28T09:54:55.708Z</time></trkpt><trkpt lat="43.47919" lon="11.6166683"><ele>242.0</ele><time>2026-04-28T09:54:56.705Z</time></trkpt><trkpt lat="43.4791683" lon="11.6167733"><ele>242.0</ele><time>2026-04-28T09:54:57.708Z</time></trkpt><trkpt lat="43.479135" lon="11.616885"><ele>242.0</ele><time>2026-04-28T09:54:58.706Z</time></trkpt><trkpt lat="43.479115" lon="11.61699"><ele>242.0</ele><time>2026-04-28T09:54:59.707Z</time></trkpt><trkpt lat="43.4790883" lon="11.6171067"><ele>242.0</ele><time>2026-04-28T09:55:00.709Z</time></trkpt><trkpt lat="43.4790567" lon="11.617215"><ele>242.0</ele><time>2026-04-28T09:55:01.708Z</time></trkpt><trkpt lat="43.479035" lon="11.6173867"><ele>241.0</ele><time>2026-04-28T09:55:02.708Z</time></trkpt><trkpt lat="43.4788967" lon="11.6175033"><ele>240.0</ele><time>2026-04-28T09:55:03.708Z</time></trkpt><trkpt lat="43.4788433" lon="11.6176"><ele>239.0</ele><time>2026-04-28T09:55:04.707Z</time></trkpt><trkpt lat="43.47879" lon="11.6177217"><ele>238.0</ele><time>2026-04-28T09:55:05.706Z</time></trkpt><trkpt lat="43.4787267" lon="11.61785"><ele>237.99999999999997</ele><time>2026-04-28T09:55:06.707Z</time></trkpt><trkpt lat="43.47871" lon="11.6179583"><ele>238.0</ele><time>2026-04-28T09:55:07.709Z</time></trkpt><trkpt lat="43.4787167" lon="11.618045"><ele>238.0</ele><time>2026-04-28T09:55:08.707Z</time></trkpt><trkpt lat="43.4787683" lon="11.6181083"><ele>238.0</ele><time>2026-04-28T09:55:09.709Z</time></trkpt><trkpt lat="43.478835" lon="11.61814"><ele>237.99999999999997</ele><time>2026-04-28T09:55:10.707Z</time></trkpt><trkpt lat="43.478935" lon="11.6181483"><ele>238.0</ele><time>2026-04-28T09:55:11.707Z</time></trkpt><trkpt lat="43.4790067" lon="11.6181883"><ele>237.16666666666666</ele><time>2026-04-28T09:55:14.707Z</time></trkpt><trkpt lat="43.4790717" lon="11.6183033"><ele>236.33333333333331</ele><time>2026-04-28T09:55:27.706Z</time></trkpt><trkpt lat="43.4791833" lon="11.6183083"><ele>235.5</ele><time>2026-04-28T09:55:49.706Z</time></trkpt><trkpt lat="43.479255" lon="11.61832"><ele>234.66666666666669</ele><time>2026-04-28T09:56:47.705Z</time></trkpt><trkpt lat="43.4793133" lon="11.618355"><ele>233.83333333333334</ele><time>2026-04-28T09:56:56.707Z</time></trkpt><trkpt lat="43.4792817" lon="11.61844"><ele>233.0</ele><time>2026-04-28T09:58:01.706Z</time></trkpt><trkpt lat="43.4792832" lon="11.6185816"><ele>233.0</ele><time>2026-04-28T09:58:18.706Z</time></trkpt><trkpt lat="43.479314" lon="11.6186695"><ele>232.0</ele><time>2026-04-28T09:58:22.718Z</time></trkpt><trkpt lat="43.479323" lon="11.6187558"><ele>232.0</ele><time>2026-04-28T09:58:26.705Z</time></trkpt></trkseg></trk></gpx>